<?xml version="1.0" encoding="utf-8"?>
<gpx xmlns:xsi="http://www.w3.org/2001/XMLSchema-instance" xmlns:xsd="http://www.w3.org/2001/XMLSchema" version="1.1" creator="Shapelink.com" xmlns="http://www.topografix.com/GPX/1/1" xmlns:gpxtpx="http://www.garmin.com/xmlschemas/TrackPointExtension/v1">
  <metadata>
    <name>Sykling 45.80 km, 2013-05-15</name>
    <desc></desc>
    <author><name>Mikael Blom</name></author> 
    <time>2013-05-15T14:22:10Z</time>
  </metadata>
  <trk>
    <name>Sykling 45.80 km, 2013-05-15</name>
    <trkseg>
      <trkpt lat="59.9787355" lon="17.7392761">
        <ele>36.6675</ele>
        <time>2013-05-15T14:22:10Z</time>
      </trkpt>
      <trkpt lat="59.9787041" lon="17.7392647">
        <ele>36.6675</ele>
        <time>2013-05-15T14:22:11Z</time>
      </trkpt>
      <trkpt lat="59.9786698" lon="17.739263">
        <ele>36.6675</ele>
        <time>2013-05-15T14:22:12Z</time>
      </trkpt>
      <trkpt lat="59.97863" lon="17.7392603">
        <ele>36.1868</ele>
        <time>2013-05-15T14:22:13Z</time>
      </trkpt>
      <trkpt lat="59.978589" lon="17.7392559">
        <ele>36.6675</ele>
        <time>2013-05-15T14:22:14Z</time>
      </trkpt>
      <trkpt lat="59.9785445" lon="17.7392537">
        <ele>36.6675</ele>
        <time>2013-05-15T14:22:15Z</time>
      </trkpt>
      <trkpt lat="59.9785015" lon="17.7392518">
        <ele>36.6675</ele>
        <time>2013-05-15T14:22:16Z</time>
      </trkpt>
      <trkpt lat="59.9784546" lon="17.7392404">
        <ele>36.1868</ele>
        <time>2013-05-15T14:22:17Z</time>
      </trkpt>
      <trkpt lat="59.9784068" lon="17.739229">
        <ele>36.6675</ele>
        <time>2013-05-15T14:22:18Z</time>
      </trkpt>
      <trkpt lat="59.978357" lon="17.7392202">
        <ele>37.6287</ele>
        <time>2013-05-15T14:22:19Z</time>
      </trkpt>
      <trkpt lat="59.9783049" lon="17.7392073">
        <ele>38.1094</ele>
        <time>2013-05-15T14:22:20Z</time>
      </trkpt>
      <trkpt lat="59.9782483" lon="17.7391923">
        <ele>38.5901</ele>
        <time>2013-05-15T14:22:21Z</time>
      </trkpt>
      <trkpt lat="59.9781907" lon="17.7391724">
        <ele>39.5513</ele>
        <time>2013-05-15T14:22:22Z</time>
      </trkpt>
      <trkpt lat="59.9781311" lon="17.7391471">
        <ele>39.5513</ele>
        <time>2013-05-15T14:22:23Z</time>
      </trkpt>
      <trkpt lat="59.9780713" lon="17.7391169">
        <ele>40.0321</ele>
        <time>2013-05-15T14:22:24Z</time>
      </trkpt>
      <trkpt lat="59.9780114" lon="17.7390866">
        <ele>39.5513</ele>
        <time>2013-05-15T14:22:25Z</time>
      </trkpt>
      <trkpt lat="59.9779524" lon="17.739058">
        <ele>39.0707</ele>
        <time>2013-05-15T14:22:26Z</time>
      </trkpt>
      <trkpt lat="59.9778933" lon="17.7390274">
        <ele>38.5901</ele>
        <time>2013-05-15T14:22:27Z</time>
      </trkpt>
      <trkpt lat="59.9778336" lon="17.7390015">
        <ele>38.1094</ele>
        <time>2013-05-15T14:22:28Z</time>
      </trkpt>
      <trkpt lat="59.9777712" lon="17.738986">
        <ele>37.6287</ele>
        <time>2013-05-15T14:22:29Z</time>
      </trkpt>
      <trkpt lat="59.9777074" lon="17.7389787">
        <ele>37.6287</ele>
        <time>2013-05-15T14:22:30Z</time>
      </trkpt>
      <trkpt lat="59.9776411" lon="17.7389787">
        <ele>37.1481</ele>
        <time>2013-05-15T14:22:31Z</time>
      </trkpt>
      <trkpt lat="59.9775725" lon="17.7389868">
        <ele>36.6675</ele>
        <time>2013-05-15T14:22:32Z</time>
      </trkpt>
      <trkpt lat="59.9775018" lon="17.7390052">
        <ele>36.1868</ele>
        <time>2013-05-15T14:22:33Z</time>
      </trkpt>
      <trkpt lat="59.9774297" lon="17.7390342">
        <ele>36.1868</ele>
        <time>2013-05-15T14:22:34Z</time>
      </trkpt>
      <trkpt lat="59.9773562" lon="17.7390694">
        <ele>35.7061</ele>
        <time>2013-05-15T14:22:35Z</time>
      </trkpt>
      <trkpt lat="59.9772844" lon="17.7390982">
        <ele>37.1481</ele>
        <time>2013-05-15T14:22:36Z</time>
      </trkpt>
      <trkpt lat="59.9772137" lon="17.7391303">
        <ele>37.6287</ele>
        <time>2013-05-15T14:22:37Z</time>
      </trkpt>
      <trkpt lat="59.9771432" lon="17.7391673">
        <ele>38.1094</ele>
        <time>2013-05-15T14:22:38Z</time>
      </trkpt>
      <trkpt lat="59.9770723" lon="17.7392041">
        <ele>38.1094</ele>
        <time>2013-05-15T14:22:39Z</time>
      </trkpt>
      <trkpt lat="59.9769978" lon="17.7392301">
        <ele>38.5901</ele>
        <time>2013-05-15T14:22:40Z</time>
      </trkpt>
      <trkpt lat="59.9769219" lon="17.7392572">
        <ele>38.1094</ele>
        <time>2013-05-15T14:22:41Z</time>
      </trkpt>
      <trkpt lat="59.9768445" lon="17.7392894">
        <ele>38.1094</ele>
        <time>2013-05-15T14:22:42Z</time>
      </trkpt>
      <trkpt lat="59.9767641" lon="17.7393247">
        <ele>37.6287</ele>
        <time>2013-05-15T14:22:43Z</time>
      </trkpt>
      <trkpt lat="59.9766823" lon="17.7393699">
        <ele>36.6675</ele>
        <time>2013-05-15T14:22:44Z</time>
      </trkpt>
      <trkpt lat="59.9765998" lon="17.7394323">
        <ele>36.1868</ele>
        <time>2013-05-15T14:22:45Z</time>
      </trkpt>
      <trkpt lat="59.9765184" lon="17.7395173">
        <ele>36.1868</ele>
        <time>2013-05-15T14:22:46Z</time>
      </trkpt>
      <trkpt lat="59.9764424" lon="17.7396252">
        <ele>36.1868</ele>
        <time>2013-05-15T14:22:47Z</time>
      </trkpt>
      <trkpt lat="59.9763745" lon="17.7397491">
        <ele>36.1868</ele>
        <time>2013-05-15T14:22:48Z</time>
      </trkpt>
      <trkpt lat="59.9763132" lon="17.7398822">
        <ele>35.7061</ele>
        <time>2013-05-15T14:22:49Z</time>
      </trkpt>
      <trkpt lat="59.9762658" lon="17.7400257">
        <ele>36.1868</ele>
        <time>2013-05-15T14:22:50Z</time>
      </trkpt>
      <trkpt lat="59.976221" lon="17.740169">
        <ele>36.1868</ele>
        <time>2013-05-15T14:22:51Z</time>
      </trkpt>
      <trkpt lat="59.9761767" lon="17.7403076">
        <ele>36.1868</ele>
        <time>2013-05-15T14:22:52Z</time>
      </trkpt>
      <trkpt lat="59.9761317" lon="17.7404474">
        <ele>36.1868</ele>
        <time>2013-05-15T14:22:53Z</time>
      </trkpt>
      <trkpt lat="59.9760868" lon="17.7405851">
        <ele>36.1868</ele>
        <time>2013-05-15T14:22:54Z</time>
      </trkpt>
      <trkpt lat="59.9760454" lon="17.7407263">
        <ele>36.1868</ele>
        <time>2013-05-15T14:22:55Z</time>
      </trkpt>
      <trkpt lat="59.9760076" lon="17.7408695">
        <ele>36.1868</ele>
        <time>2013-05-15T14:22:56Z</time>
      </trkpt>
      <trkpt lat="59.9759725" lon="17.7410123">
        <ele>36.6675</ele>
        <time>2013-05-15T14:22:57Z</time>
      </trkpt>
      <trkpt lat="59.9759389" lon="17.7411523">
        <ele>36.6675</ele>
        <time>2013-05-15T14:22:58Z</time>
      </trkpt>
      <trkpt lat="59.9759072" lon="17.7412899">
        <ele>36.6675</ele>
        <time>2013-05-15T14:22:59Z</time>
      </trkpt>
      <trkpt lat="59.9758755" lon="17.7414257">
        <ele>36.6675</ele>
        <time>2013-05-15T14:23:00Z</time>
      </trkpt>
      <trkpt lat="59.975844" lon="17.7415605">
        <ele>37.1481</ele>
        <time>2013-05-15T14:23:01Z</time>
      </trkpt>
      <trkpt lat="59.975813" lon="17.7416936">
        <ele>37.1481</ele>
        <time>2013-05-15T14:23:02Z</time>
      </trkpt>
      <trkpt lat="59.9757823" lon="17.7418252">
        <ele>37.1481</ele>
        <time>2013-05-15T14:23:03Z</time>
      </trkpt>
      <trkpt lat="59.9757522" lon="17.7419554">
        <ele>37.6287</ele>
        <time>2013-05-15T14:23:04Z</time>
      </trkpt>
      <trkpt lat="59.9757227" lon="17.7420852">
        <ele>37.6287</ele>
        <time>2013-05-15T14:23:05Z</time>
      </trkpt>
      <trkpt lat="59.9756926" lon="17.7422112">
        <ele>37.6287</ele>
        <time>2013-05-15T14:23:06Z</time>
      </trkpt>
      <trkpt lat="59.9756617" lon="17.7423324">
        <ele>37.6287</ele>
        <time>2013-05-15T14:23:07Z</time>
      </trkpt>
      <trkpt lat="59.9756328" lon="17.7424525">
        <ele>38.1094</ele>
        <time>2013-05-15T14:23:08Z</time>
      </trkpt>
      <trkpt lat="59.9756043" lon="17.742573">
        <ele>38.5901</ele>
        <time>2013-05-15T14:23:09Z</time>
      </trkpt>
      <trkpt lat="59.9755752" lon="17.7426908">
        <ele>38.5901</ele>
        <time>2013-05-15T14:23:10Z</time>
      </trkpt>
      <trkpt lat="59.9755456" lon="17.7428066">
        <ele>38.5901</ele>
        <time>2013-05-15T14:23:11Z</time>
      </trkpt>
      <trkpt lat="59.9755166" lon="17.7429242">
        <ele>39.0707</ele>
        <time>2013-05-15T14:23:12Z</time>
      </trkpt>
      <trkpt lat="59.9754881" lon="17.7430348">
        <ele>39.0707</ele>
        <time>2013-05-15T14:23:13Z</time>
      </trkpt>
      <trkpt lat="59.9754598" lon="17.7431456">
        <ele>39.0707</ele>
        <time>2013-05-15T14:23:14Z</time>
      </trkpt>
      <trkpt lat="59.9754338" lon="17.7432637">
        <ele>39.0707</ele>
        <time>2013-05-15T14:23:15Z</time>
      </trkpt>
      <trkpt lat="59.9754089" lon="17.7433845">
        <ele>39.0707</ele>
        <time>2013-05-15T14:23:16Z</time>
      </trkpt>
      <trkpt lat="59.9753846" lon="17.7435068">
        <ele>39.0707</ele>
        <time>2013-05-15T14:23:17Z</time>
      </trkpt>
      <trkpt lat="59.9753603" lon="17.7436306">
        <ele>39.0707</ele>
        <time>2013-05-15T14:23:18Z</time>
      </trkpt>
      <trkpt lat="59.9753368" lon="17.7437562">
        <ele>39.0707</ele>
        <time>2013-05-15T14:23:19Z</time>
      </trkpt>
      <trkpt lat="59.9753136" lon="17.7438829">
        <ele>39.0707</ele>
        <time>2013-05-15T14:23:20Z</time>
      </trkpt>
      <trkpt lat="59.9752884" lon="17.7440074">
        <ele>38.5901</ele>
        <time>2013-05-15T14:23:21Z</time>
      </trkpt>
      <trkpt lat="59.9752661" lon="17.744135">
        <ele>39.0707</ele>
        <time>2013-05-15T14:23:22Z</time>
      </trkpt>
      <trkpt lat="59.975241" lon="17.7442552">
        <ele>39.0707</ele>
        <time>2013-05-15T14:23:23Z</time>
      </trkpt>
      <trkpt lat="59.9752143" lon="17.7443806">
        <ele>39.0707</ele>
        <time>2013-05-15T14:23:24Z</time>
      </trkpt>
      <trkpt lat="59.9751892" lon="17.744507">
        <ele>39.0707</ele>
        <time>2013-05-15T14:23:25Z</time>
      </trkpt>
      <trkpt lat="59.9751559" lon="17.7446344">
        <ele>38.5901</ele>
        <time>2013-05-15T14:23:26Z</time>
      </trkpt>
      <trkpt lat="59.9751235" lon="17.7447583">
        <ele>38.1094</ele>
        <time>2013-05-15T14:23:27Z</time>
      </trkpt>
      <trkpt lat="59.9750904" lon="17.7448784">
        <ele>38.1094</ele>
        <time>2013-05-15T14:23:28Z</time>
      </trkpt>
      <trkpt lat="59.9750541" lon="17.7449939">
        <ele>38.1094</ele>
        <time>2013-05-15T14:23:29Z</time>
      </trkpt>
      <trkpt lat="59.9750157" lon="17.745108">
        <ele>38.5901</ele>
        <time>2013-05-15T14:23:30Z</time>
      </trkpt>
      <trkpt lat="59.974977" lon="17.7452232">
        <ele>38.5901</ele>
        <time>2013-05-15T14:23:31Z</time>
      </trkpt>
      <trkpt lat="59.9749379" lon="17.7453368">
        <ele>38.5901</ele>
        <time>2013-05-15T14:23:32Z</time>
      </trkpt>
      <trkpt lat="59.9748971" lon="17.7454485">
        <ele>38.5901</ele>
        <time>2013-05-15T14:23:33Z</time>
      </trkpt>
      <trkpt lat="59.9748542" lon="17.7455566">
        <ele>38.5901</ele>
        <time>2013-05-15T14:23:34Z</time>
      </trkpt>
      <trkpt lat="59.9748106" lon="17.7456638">
        <ele>39.0707</ele>
        <time>2013-05-15T14:23:35Z</time>
      </trkpt>
      <trkpt lat="59.9747638" lon="17.7457588">
        <ele>40.0321</ele>
        <time>2013-05-15T14:23:36Z</time>
      </trkpt>
      <trkpt lat="59.9746993" lon="17.7458616">
        <ele>40.5128</ele>
        <time>2013-05-15T14:23:37Z</time>
      </trkpt>
      <trkpt lat="59.9746222" lon="17.7459572">
        <ele>39.0707</ele>
        <time>2013-05-15T14:23:38Z</time>
      </trkpt>
      <trkpt lat="59.9745647" lon="17.7460418">
        <ele>38.5901</ele>
        <time>2013-05-15T14:23:39Z</time>
      </trkpt>
      <trkpt lat="59.9745093" lon="17.7461248">
        <ele>38.5901</ele>
        <time>2013-05-15T14:23:40Z</time>
      </trkpt>
      <trkpt lat="59.9744551" lon="17.7461984">
        <ele>39.0707</ele>
        <time>2013-05-15T14:23:41Z</time>
      </trkpt>
      <trkpt lat="59.9743993" lon="17.7462823">
        <ele>39.0707</ele>
        <time>2013-05-15T14:23:42Z</time>
      </trkpt>
      <trkpt lat="59.9743463" lon="17.7463541">
        <ele>39.0707</ele>
        <time>2013-05-15T14:23:43Z</time>
      </trkpt>
      <trkpt lat="59.9742812" lon="17.7464361">
        <ele>38.5901</ele>
        <time>2013-05-15T14:23:44Z</time>
      </trkpt>
      <trkpt lat="59.9742134" lon="17.7465177">
        <ele>38.5901</ele>
        <time>2013-05-15T14:23:45Z</time>
      </trkpt>
      <trkpt lat="59.9741474" lon="17.7465986">
        <ele>39.0707</ele>
        <time>2013-05-15T14:23:46Z</time>
      </trkpt>
      <trkpt lat="59.9740823" lon="17.7466826">
        <ele>39.0707</ele>
        <time>2013-05-15T14:23:47Z</time>
      </trkpt>
      <trkpt lat="59.9740166" lon="17.7467613">
        <ele>39.0707</ele>
        <time>2013-05-15T14:23:48Z</time>
      </trkpt>
      <trkpt lat="59.9739518" lon="17.746839">
        <ele>39.5513</ele>
        <time>2013-05-15T14:23:49Z</time>
      </trkpt>
      <trkpt lat="59.9738899" lon="17.7469161">
        <ele>39.5513</ele>
        <time>2013-05-15T14:23:50Z</time>
      </trkpt>
      <trkpt lat="59.9738291" lon="17.7469923">
        <ele>39.5513</ele>
        <time>2013-05-15T14:23:51Z</time>
      </trkpt>
      <trkpt lat="59.9737683" lon="17.7470649">
        <ele>39.5513</ele>
        <time>2013-05-15T14:23:52Z</time>
      </trkpt>
      <trkpt lat="59.9737076" lon="17.7471377">
        <ele>39.0707</ele>
        <time>2013-05-15T14:23:53Z</time>
      </trkpt>
      <trkpt lat="59.9736446" lon="17.7472016">
        <ele>38.5901</ele>
        <time>2013-05-15T14:23:54Z</time>
      </trkpt>
      <trkpt lat="59.9735783" lon="17.7472674">
        <ele>38.5901</ele>
        <time>2013-05-15T14:23:55Z</time>
      </trkpt>
      <trkpt lat="59.9735119" lon="17.7473362">
        <ele>38.1094</ele>
        <time>2013-05-15T14:23:56Z</time>
      </trkpt>
      <trkpt lat="59.9734457" lon="17.7474052">
        <ele>37.6287</ele>
        <time>2013-05-15T14:23:57Z</time>
      </trkpt>
      <trkpt lat="59.9733783" lon="17.747476">
        <ele>37.6287</ele>
        <time>2013-05-15T14:23:58Z</time>
      </trkpt>
      <trkpt lat="59.9733093" lon="17.747548">
        <ele>37.1481</ele>
        <time>2013-05-15T14:23:59Z</time>
      </trkpt>
      <trkpt lat="59.9732396" lon="17.7476221">
        <ele>37.1481</ele>
        <time>2013-05-15T14:24:00Z</time>
      </trkpt>
      <trkpt lat="59.9731696" lon="17.7476982">
        <ele>37.1481</ele>
        <time>2013-05-15T14:24:01Z</time>
      </trkpt>
      <trkpt lat="59.9731013" lon="17.7477775">
        <ele>37.1481</ele>
        <time>2013-05-15T14:24:02Z</time>
      </trkpt>
      <trkpt lat="59.9730335" lon="17.7478601">
        <ele>36.6675</ele>
        <time>2013-05-15T14:24:03Z</time>
      </trkpt>
      <trkpt lat="59.972969" lon="17.7479471">
        <ele>36.6675</ele>
        <time>2013-05-15T14:24:04Z</time>
      </trkpt>
      <trkpt lat="59.9729069" lon="17.7480398">
        <ele>36.6675</ele>
        <time>2013-05-15T14:24:05Z</time>
      </trkpt>
      <trkpt lat="59.9728446" lon="17.7481333">
        <ele>38.1094</ele>
        <time>2013-05-15T14:24:06Z</time>
      </trkpt>
      <trkpt lat="59.9727862" lon="17.7482328">
        <ele>38.5901</ele>
        <time>2013-05-15T14:24:07Z</time>
      </trkpt>
      <trkpt lat="59.9727327" lon="17.7483385">
        <ele>39.0707</ele>
        <time>2013-05-15T14:24:08Z</time>
      </trkpt>
      <trkpt lat="59.9726847" lon="17.7484509">
        <ele>39.5513</ele>
        <time>2013-05-15T14:24:09Z</time>
      </trkpt>
      <trkpt lat="59.9726392" lon="17.7485685">
        <ele>39.5513</ele>
        <time>2013-05-15T14:24:10Z</time>
      </trkpt>
      <trkpt lat="59.9725899" lon="17.7486744">
        <ele>40.0321</ele>
        <time>2013-05-15T14:24:11Z</time>
      </trkpt>
      <trkpt lat="59.9725495" lon="17.7487879">
        <ele>40.0321</ele>
        <time>2013-05-15T14:24:12Z</time>
      </trkpt>
      <trkpt lat="59.9725055" lon="17.7488962">
        <ele>40.0321</ele>
        <time>2013-05-15T14:24:13Z</time>
      </trkpt>
      <trkpt lat="59.9724611" lon="17.7490058">
        <ele>40.0321</ele>
        <time>2013-05-15T14:24:14Z</time>
      </trkpt>
      <trkpt lat="59.9724164" lon="17.749114">
        <ele>39.5513</ele>
        <time>2013-05-15T14:24:15Z</time>
      </trkpt>
      <trkpt lat="59.9723703" lon="17.7492193">
        <ele>39.5513</ele>
        <time>2013-05-15T14:24:16Z</time>
      </trkpt>
      <trkpt lat="59.9723237" lon="17.7493203">
        <ele>39.5513</ele>
        <time>2013-05-15T14:24:17Z</time>
      </trkpt>
      <trkpt lat="59.972277" lon="17.7494188">
        <ele>39.0707</ele>
        <time>2013-05-15T14:24:18Z</time>
      </trkpt>
      <trkpt lat="59.9722328" lon="17.7495212">
        <ele>38.5901</ele>
        <time>2013-05-15T14:24:19Z</time>
      </trkpt>
      <trkpt lat="59.9721927" lon="17.749634">
        <ele>38.1094</ele>
        <time>2013-05-15T14:24:20Z</time>
      </trkpt>
      <trkpt lat="59.9721479" lon="17.7497416">
        <ele>37.6287</ele>
        <time>2013-05-15T14:24:21Z</time>
      </trkpt>
      <trkpt lat="59.9721046" lon="17.7498526">
        <ele>37.1481</ele>
        <time>2013-05-15T14:24:22Z</time>
      </trkpt>
      <trkpt lat="59.9720617" lon="17.7499647">
        <ele>36.6675</ele>
        <time>2013-05-15T14:24:23Z</time>
      </trkpt>
      <trkpt lat="59.9720204" lon="17.7500826">
        <ele>36.1868</ele>
        <time>2013-05-15T14:24:24Z</time>
      </trkpt>
      <trkpt lat="59.9719761" lon="17.7501992">
        <ele>35.7061</ele>
        <time>2013-05-15T14:24:25Z</time>
      </trkpt>
      <trkpt lat="59.9719287" lon="17.7503056">
        <ele>35.2255</ele>
        <time>2013-05-15T14:24:26Z</time>
      </trkpt>
      <trkpt lat="59.9718798" lon="17.7504139">
        <ele>34.7449</ele>
        <time>2013-05-15T14:24:27Z</time>
      </trkpt>
      <trkpt lat="59.9718255" lon="17.7505246">
        <ele>34.2642</ele>
        <time>2013-05-15T14:24:28Z</time>
      </trkpt>
      <trkpt lat="59.9717649" lon="17.750632">
        <ele>33.7834</ele>
        <time>2013-05-15T14:24:29Z</time>
      </trkpt>
      <trkpt lat="59.9716963" lon="17.7507374">
        <ele>33.3029</ele>
        <time>2013-05-15T14:24:30Z</time>
      </trkpt>
      <trkpt lat="59.9716229" lon="17.7508406">
        <ele>32.8223</ele>
        <time>2013-05-15T14:24:31Z</time>
      </trkpt>
      <trkpt lat="59.9715447" lon="17.7509395">
        <ele>32.3416</ele>
        <time>2013-05-15T14:24:32Z</time>
      </trkpt>
      <trkpt lat="59.9714622" lon="17.751037">
        <ele>32.3416</ele>
        <time>2013-05-15T14:24:33Z</time>
      </trkpt>
      <trkpt lat="59.9713803" lon="17.7511293">
        <ele>32.3416</ele>
        <time>2013-05-15T14:24:34Z</time>
      </trkpt>
      <trkpt lat="59.9712995" lon="17.7512198">
        <ele>32.3416</ele>
        <time>2013-05-15T14:24:35Z</time>
      </trkpt>
      <trkpt lat="59.9712188" lon="17.7513061">
        <ele>32.3416</ele>
        <time>2013-05-15T14:24:36Z</time>
      </trkpt>
      <trkpt lat="59.9711398" lon="17.7513898">
        <ele>32.3416</ele>
        <time>2013-05-15T14:24:37Z</time>
      </trkpt>
      <trkpt lat="59.9710622" lon="17.7514738">
        <ele>32.3416</ele>
        <time>2013-05-15T14:24:38Z</time>
      </trkpt>
      <trkpt lat="59.9709851" lon="17.7515623">
        <ele>32.3416</ele>
        <time>2013-05-15T14:24:39Z</time>
      </trkpt>
      <trkpt lat="59.9708469" lon="17.7517512">
        <ele>33.3029</ele>
        <time>2013-05-15T14:24:41Z</time>
      </trkpt>
      <trkpt lat="59.9707785" lon="17.7518532">
        <ele>33.7834</ele>
        <time>2013-05-15T14:24:42Z</time>
      </trkpt>
      <trkpt lat="59.9707125" lon="17.7519583">
        <ele>34.2642</ele>
        <time>2013-05-15T14:24:43Z</time>
      </trkpt>
      <trkpt lat="59.9706484" lon="17.7520658">
        <ele>34.7449</ele>
        <time>2013-05-15T14:24:44Z</time>
      </trkpt>
      <trkpt lat="59.9705861" lon="17.7521765">
        <ele>35.2255</ele>
        <time>2013-05-15T14:24:45Z</time>
      </trkpt>
      <trkpt lat="59.9705343" lon="17.7522922">
        <ele>35.7061</ele>
        <time>2013-05-15T14:24:46Z</time>
      </trkpt>
      <trkpt lat="59.9704848" lon="17.7524101">
        <ele>36.1868</ele>
        <time>2013-05-15T14:24:47Z</time>
      </trkpt>
      <trkpt lat="59.9704391" lon="17.752532">
        <ele>36.1868</ele>
        <time>2013-05-15T14:24:48Z</time>
      </trkpt>
      <trkpt lat="59.9703951" lon="17.7526576">
        <ele>36.1868</ele>
        <time>2013-05-15T14:24:49Z</time>
      </trkpt>
      <trkpt lat="59.9703535" lon="17.7527811">
        <ele>35.7061</ele>
        <time>2013-05-15T14:24:50Z</time>
      </trkpt>
      <trkpt lat="59.9703122" lon="17.7529052">
        <ele>34.7449</ele>
        <time>2013-05-15T14:24:51Z</time>
      </trkpt>
      <trkpt lat="59.9702713" lon="17.7530324">
        <ele>34.7449</ele>
        <time>2013-05-15T14:24:52Z</time>
      </trkpt>
      <trkpt lat="59.9702314" lon="17.7531602">
        <ele>34.2642</ele>
        <time>2013-05-15T14:24:53Z</time>
      </trkpt>
      <trkpt lat="59.9701919" lon="17.7532867">
        <ele>34.2642</ele>
        <time>2013-05-15T14:24:54Z</time>
      </trkpt>
      <trkpt lat="59.9701517" lon="17.7534114">
        <ele>33.7834</ele>
        <time>2013-05-15T14:24:55Z</time>
      </trkpt>
      <trkpt lat="59.9701093" lon="17.7535321">
        <ele>33.7834</ele>
        <time>2013-05-15T14:24:56Z</time>
      </trkpt>
      <trkpt lat="59.9700662" lon="17.7536505">
        <ele>33.3029</ele>
        <time>2013-05-15T14:24:57Z</time>
      </trkpt>
      <trkpt lat="59.9700238" lon="17.7537617">
        <ele>33.3029</ele>
        <time>2013-05-15T14:24:58Z</time>
      </trkpt>
      <trkpt lat="59.9699812" lon="17.7538665">
        <ele>32.8223</ele>
        <time>2013-05-15T14:24:59Z</time>
      </trkpt>
      <trkpt lat="59.9699389" lon="17.7539804">
        <ele>32.3416</ele>
        <time>2013-05-15T14:25:00Z</time>
      </trkpt>
      <trkpt lat="59.9698961" lon="17.7540813">
        <ele>31.8607</ele>
        <time>2013-05-15T14:25:01Z</time>
      </trkpt>
      <trkpt lat="59.9698528" lon="17.7541801">
        <ele>31.3801</ele>
        <time>2013-05-15T14:25:02Z</time>
      </trkpt>
      <trkpt lat="59.9698092" lon="17.7542777">
        <ele>31.3801</ele>
        <time>2013-05-15T14:25:03Z</time>
      </trkpt>
      <trkpt lat="59.9697663" lon="17.7543785">
        <ele>31.3801</ele>
        <time>2013-05-15T14:25:04Z</time>
      </trkpt>
      <trkpt lat="59.9697232" lon="17.754476">
        <ele>31.3801</ele>
        <time>2013-05-15T14:25:05Z</time>
      </trkpt>
      <trkpt lat="59.969677" lon="17.7545725">
        <ele>31.3801</ele>
        <time>2013-05-15T14:25:06Z</time>
      </trkpt>
      <trkpt lat="59.9696326" lon="17.7546724">
        <ele>31.3801</ele>
        <time>2013-05-15T14:25:07Z</time>
      </trkpt>
      <trkpt lat="59.9695886" lon="17.754775">
        <ele>31.3801</ele>
        <time>2013-05-15T14:25:08Z</time>
      </trkpt>
      <trkpt lat="59.9695441" lon="17.7548771">
        <ele>31.3801</ele>
        <time>2013-05-15T14:25:09Z</time>
      </trkpt>
      <trkpt lat="59.9694973" lon="17.7549764">
        <ele>30.8995</ele>
        <time>2013-05-15T14:25:10Z</time>
      </trkpt>
      <trkpt lat="59.9694516" lon="17.7550753">
        <ele>30.8995</ele>
        <time>2013-05-15T14:25:11Z</time>
      </trkpt>
      <trkpt lat="59.9694072" lon="17.7551703">
        <ele>30.8995</ele>
        <time>2013-05-15T14:25:12Z</time>
      </trkpt>
      <trkpt lat="59.9693627" lon="17.7552591">
        <ele>30.4188</ele>
        <time>2013-05-15T14:25:13Z</time>
      </trkpt>
      <trkpt lat="59.9693185" lon="17.7553508">
        <ele>29.9381</ele>
        <time>2013-05-15T14:25:14Z</time>
      </trkpt>
      <trkpt lat="59.9692742" lon="17.7554453">
        <ele>29.9381</ele>
        <time>2013-05-15T14:25:15Z</time>
      </trkpt>
      <trkpt lat="59.9692306" lon="17.7555401">
        <ele>29.9381</ele>
        <time>2013-05-15T14:25:16Z</time>
      </trkpt>
      <trkpt lat="59.9691869" lon="17.7556316">
        <ele>29.9381</ele>
        <time>2013-05-15T14:25:17Z</time>
      </trkpt>
      <trkpt lat="59.9691435" lon="17.755726">
        <ele>29.9381</ele>
        <time>2013-05-15T14:25:18Z</time>
      </trkpt>
      <trkpt lat="59.9690996" lon="17.7558232">
        <ele>29.9381</ele>
        <time>2013-05-15T14:25:19Z</time>
      </trkpt>
      <trkpt lat="59.9690546" lon="17.755918">
        <ele>29.9381</ele>
        <time>2013-05-15T14:25:20Z</time>
      </trkpt>
      <trkpt lat="59.9690103" lon="17.7560139">
        <ele>30.4188</ele>
        <time>2013-05-15T14:25:21Z</time>
      </trkpt>
      <trkpt lat="59.9689628" lon="17.7561026">
        <ele>30.8995</ele>
        <time>2013-05-15T14:25:22Z</time>
      </trkpt>
      <trkpt lat="59.9689167" lon="17.7561871">
        <ele>31.3801</ele>
        <time>2013-05-15T14:25:23Z</time>
      </trkpt>
      <trkpt lat="59.9688725" lon="17.7562726">
        <ele>31.3801</ele>
        <time>2013-05-15T14:25:24Z</time>
      </trkpt>
      <trkpt lat="59.9688277" lon="17.7563575">
        <ele>31.8607</ele>
        <time>2013-05-15T14:25:25Z</time>
      </trkpt>
      <trkpt lat="59.9687831" lon="17.7564391">
        <ele>31.8607</ele>
        <time>2013-05-15T14:25:26Z</time>
      </trkpt>
      <trkpt lat="59.9687378" lon="17.7565163">
        <ele>31.8607</ele>
        <time>2013-05-15T14:25:27Z</time>
      </trkpt>
      <trkpt lat="59.9686914" lon="17.7565915">
        <ele>32.3416</ele>
        <time>2013-05-15T14:25:28Z</time>
      </trkpt>
      <trkpt lat="59.9686442" lon="17.7566646">
        <ele>32.3416</ele>
        <time>2013-05-15T14:25:29Z</time>
      </trkpt>
      <trkpt lat="59.9685966" lon="17.7567417">
        <ele>32.3416</ele>
        <time>2013-05-15T14:25:30Z</time>
      </trkpt>
      <trkpt lat="59.9685472" lon="17.7568164">
        <ele>32.3416</ele>
        <time>2013-05-15T14:25:31Z</time>
      </trkpt>
      <trkpt lat="59.9684956" lon="17.7568846">
        <ele>32.8223</ele>
        <time>2013-05-15T14:25:32Z</time>
      </trkpt>
      <trkpt lat="59.9684436" lon="17.7569537">
        <ele>32.8223</ele>
        <time>2013-05-15T14:25:33Z</time>
      </trkpt>
      <trkpt lat="59.9683929" lon="17.7570243">
        <ele>32.8223</ele>
        <time>2013-05-15T14:25:34Z</time>
      </trkpt>
      <trkpt lat="59.9683428" lon="17.757095">
        <ele>33.3029</ele>
        <time>2013-05-15T14:25:35Z</time>
      </trkpt>
      <trkpt lat="59.968292" lon="17.7571638">
        <ele>33.3029</ele>
        <time>2013-05-15T14:25:36Z</time>
      </trkpt>
      <trkpt lat="59.9682406" lon="17.7572334">
        <ele>33.3029</ele>
        <time>2013-05-15T14:25:37Z</time>
      </trkpt>
      <trkpt lat="59.9681884" lon="17.7573039">
        <ele>33.3029</ele>
        <time>2013-05-15T14:25:38Z</time>
      </trkpt>
      <trkpt lat="59.9681335" lon="17.7573721">
        <ele>32.8223</ele>
        <time>2013-05-15T14:25:39Z</time>
      </trkpt>
      <trkpt lat="59.9680759" lon="17.7574413">
        <ele>32.8223</ele>
        <time>2013-05-15T14:25:40Z</time>
      </trkpt>
      <trkpt lat="59.9680163" lon="17.7575135">
        <ele>32.3416</ele>
        <time>2013-05-15T14:25:41Z</time>
      </trkpt>
      <trkpt lat="59.9679543" lon="17.7575845">
        <ele>32.3416</ele>
        <time>2013-05-15T14:25:42Z</time>
      </trkpt>
      <trkpt lat="59.9678907" lon="17.7576559">
        <ele>31.8607</ele>
        <time>2013-05-15T14:25:43Z</time>
      </trkpt>
      <trkpt lat="59.9678258" lon="17.7577307">
        <ele>32.3416</ele>
        <time>2013-05-15T14:25:44Z</time>
      </trkpt>
      <trkpt lat="59.9677595" lon="17.7578054">
        <ele>32.3416</ele>
        <time>2013-05-15T14:25:45Z</time>
      </trkpt>
      <trkpt lat="59.967692" lon="17.7578797">
        <ele>32.3416</ele>
        <time>2013-05-15T14:25:46Z</time>
      </trkpt>
      <trkpt lat="59.9676233" lon="17.7579524">
        <ele>32.3416</ele>
        <time>2013-05-15T14:25:47Z</time>
      </trkpt>
      <trkpt lat="59.9675541" lon="17.7580234">
        <ele>32.3416</ele>
        <time>2013-05-15T14:25:48Z</time>
      </trkpt>
      <trkpt lat="59.9674839" lon="17.7580918">
        <ele>33.3029</ele>
        <time>2013-05-15T14:25:49Z</time>
      </trkpt>
      <trkpt lat="59.9674133" lon="17.758157">
        <ele>33.7834</ele>
        <time>2013-05-15T14:25:50Z</time>
      </trkpt>
      <trkpt lat="59.9673415" lon="17.7582162">
        <ele>34.2642</ele>
        <time>2013-05-15T14:25:51Z</time>
      </trkpt>
      <trkpt lat="59.9672698" lon="17.758272">
        <ele>34.7449</ele>
        <time>2013-05-15T14:25:52Z</time>
      </trkpt>
      <trkpt lat="59.9671988" lon="17.758328">
        <ele>35.7061</ele>
        <time>2013-05-15T14:25:53Z</time>
      </trkpt>
      <trkpt lat="59.9671292" lon="17.758383">
        <ele>36.6675</ele>
        <time>2013-05-15T14:25:54Z</time>
      </trkpt>
      <trkpt lat="59.9670607" lon="17.7584363">
        <ele>37.1481</ele>
        <time>2013-05-15T14:25:55Z</time>
      </trkpt>
      <trkpt lat="59.9669923" lon="17.758489">
        <ele>38.1094</ele>
        <time>2013-05-15T14:25:56Z</time>
      </trkpt>
      <trkpt lat="59.9669245" lon="17.7585407">
        <ele>39.0707</ele>
        <time>2013-05-15T14:25:57Z</time>
      </trkpt>
      <trkpt lat="59.9668591" lon="17.7585941">
        <ele>40.0321</ele>
        <time>2013-05-15T14:25:58Z</time>
      </trkpt>
      <trkpt lat="59.9667955" lon="17.7586487">
        <ele>40.5128</ele>
        <time>2013-05-15T14:25:59Z</time>
      </trkpt>
      <trkpt lat="59.9667312" lon="17.7587075">
        <ele>40.5128</ele>
        <time>2013-05-15T14:26:00Z</time>
      </trkpt>
      <trkpt lat="59.966667" lon="17.7587679">
        <ele>40.9934</ele>
        <time>2013-05-15T14:26:01Z</time>
      </trkpt>
      <trkpt lat="59.9666048" lon="17.7588319">
        <ele>40.9934</ele>
        <time>2013-05-15T14:26:02Z</time>
      </trkpt>
      <trkpt lat="59.9665451" lon="17.7588998">
        <ele>40.9934</ele>
        <time>2013-05-15T14:26:03Z</time>
      </trkpt>
      <trkpt lat="59.9664872" lon="17.7589696">
        <ele>40.9934</ele>
        <time>2013-05-15T14:26:04Z</time>
      </trkpt>
      <trkpt lat="59.9664318" lon="17.7590413">
        <ele>40.9934</ele>
        <time>2013-05-15T14:26:05Z</time>
      </trkpt>
      <trkpt lat="59.9663754" lon="17.7591174">
        <ele>41.474</ele>
        <time>2013-05-15T14:26:06Z</time>
      </trkpt>
      <trkpt lat="59.9663215" lon="17.7591983">
        <ele>41.474</ele>
        <time>2013-05-15T14:26:07Z</time>
      </trkpt>
      <trkpt lat="59.9662703" lon="17.7592811">
        <ele>41.474</ele>
        <time>2013-05-15T14:26:08Z</time>
      </trkpt>
      <trkpt lat="59.9662204" lon="17.7593666">
        <ele>40.9934</ele>
        <time>2013-05-15T14:26:09Z</time>
      </trkpt>
      <trkpt lat="59.9661718" lon="17.7594546">
        <ele>40.5128</ele>
        <time>2013-05-15T14:26:10Z</time>
      </trkpt>
      <trkpt lat="59.9661234" lon="17.759538">
        <ele>39.5513</ele>
        <time>2013-05-15T14:26:11Z</time>
      </trkpt>
      <trkpt lat="59.9660814" lon="17.7596213">
        <ele>39.0707</ele>
        <time>2013-05-15T14:26:12Z</time>
      </trkpt>
      <trkpt lat="59.9660386" lon="17.7596998">
        <ele>38.5901</ele>
        <time>2013-05-15T14:26:13Z</time>
      </trkpt>
      <trkpt lat="59.9659972" lon="17.7597813">
        <ele>38.5901</ele>
        <time>2013-05-15T14:26:14Z</time>
      </trkpt>
      <trkpt lat="59.9659573" lon="17.7598623">
        <ele>38.5901</ele>
        <time>2013-05-15T14:26:15Z</time>
      </trkpt>
      <trkpt lat="59.9659167" lon="17.7599407">
        <ele>38.5901</ele>
        <time>2013-05-15T14:26:16Z</time>
      </trkpt>
      <trkpt lat="59.9658737" lon="17.7600198">
        <ele>38.1094</ele>
        <time>2013-05-15T14:26:17Z</time>
      </trkpt>
      <trkpt lat="59.9658298" lon="17.760099">
        <ele>37.6287</ele>
        <time>2013-05-15T14:26:18Z</time>
      </trkpt>
      <trkpt lat="59.965787" lon="17.7601773">
        <ele>38.1094</ele>
        <time>2013-05-15T14:26:19Z</time>
      </trkpt>
      <trkpt lat="59.9657437" lon="17.7602544">
        <ele>37.6287</ele>
        <time>2013-05-15T14:26:20Z</time>
      </trkpt>
      <trkpt lat="59.9657017" lon="17.7603285">
        <ele>36.6675</ele>
        <time>2013-05-15T14:26:21Z</time>
      </trkpt>
      <trkpt lat="59.9656595" lon="17.7604016">
        <ele>36.1868</ele>
        <time>2013-05-15T14:26:22Z</time>
      </trkpt>
      <trkpt lat="59.965616" lon="17.7604725">
        <ele>35.7061</ele>
        <time>2013-05-15T14:26:23Z</time>
      </trkpt>
      <trkpt lat="59.9655738" lon="17.7605439">
        <ele>35.2255</ele>
        <time>2013-05-15T14:26:24Z</time>
      </trkpt>
      <trkpt lat="59.9655319" lon="17.7606155">
        <ele>35.7061</ele>
        <time>2013-05-15T14:26:25Z</time>
      </trkpt>
      <trkpt lat="59.9654914" lon="17.76069">
        <ele>35.2255</ele>
        <time>2013-05-15T14:26:26Z</time>
      </trkpt>
      <trkpt lat="59.9654513" lon="17.7607668">
        <ele>35.2255</ele>
        <time>2013-05-15T14:26:27Z</time>
      </trkpt>
      <trkpt lat="59.9654135" lon="17.7608494">
        <ele>34.7449</ele>
        <time>2013-05-15T14:26:28Z</time>
      </trkpt>
      <trkpt lat="59.9653739" lon="17.7609371">
        <ele>34.2642</ele>
        <time>2013-05-15T14:26:29Z</time>
      </trkpt>
      <trkpt lat="59.965335" lon="17.761032">
        <ele>34.2642</ele>
        <time>2013-05-15T14:26:30Z</time>
      </trkpt>
      <trkpt lat="59.9652953" lon="17.7611294">
        <ele>34.2642</ele>
        <time>2013-05-15T14:26:31Z</time>
      </trkpt>
      <trkpt lat="59.9652578" lon="17.7612299">
        <ele>33.3029</ele>
        <time>2013-05-15T14:26:32Z</time>
      </trkpt>
      <trkpt lat="59.9652192" lon="17.7613282">
        <ele>33.3029</ele>
        <time>2013-05-15T14:26:33Z</time>
      </trkpt>
      <trkpt lat="59.9651834" lon="17.7614265">
        <ele>32.8223</ele>
        <time>2013-05-15T14:26:34Z</time>
      </trkpt>
      <trkpt lat="59.9651472" lon="17.7615272">
        <ele>32.3416</ele>
        <time>2013-05-15T14:26:35Z</time>
      </trkpt>
      <trkpt lat="59.9651114" lon="17.7616272">
        <ele>31.8607</ele>
        <time>2013-05-15T14:26:36Z</time>
      </trkpt>
      <trkpt lat="59.9650784" lon="17.7617286">
        <ele>30.8995</ele>
        <time>2013-05-15T14:26:37Z</time>
      </trkpt>
      <trkpt lat="59.9650444" lon="17.7618301">
        <ele>30.4188</ele>
        <time>2013-05-15T14:26:38Z</time>
      </trkpt>
      <trkpt lat="59.9650074" lon="17.7619313">
        <ele>30.4188</ele>
        <time>2013-05-15T14:26:39Z</time>
      </trkpt>
      <trkpt lat="59.9649691" lon="17.7620338">
        <ele>30.4188</ele>
        <time>2013-05-15T14:26:40Z</time>
      </trkpt>
      <trkpt lat="59.964929" lon="17.7621369">
        <ele>29.9381</ele>
        <time>2013-05-15T14:26:41Z</time>
      </trkpt>
      <trkpt lat="59.9648877" lon="17.762242">
        <ele>29.9381</ele>
        <time>2013-05-15T14:26:42Z</time>
      </trkpt>
      <trkpt lat="59.9648498" lon="17.7623498">
        <ele>28.9769</ele>
        <time>2013-05-15T14:26:43Z</time>
      </trkpt>
      <trkpt lat="59.9648116" lon="17.7624569">
        <ele>28.9769</ele>
        <time>2013-05-15T14:26:44Z</time>
      </trkpt>
      <trkpt lat="59.9647737" lon="17.7625632">
        <ele>28.4962</ele>
        <time>2013-05-15T14:26:45Z</time>
      </trkpt>
      <trkpt lat="59.9647354" lon="17.7626679">
        <ele>28.0155</ele>
        <time>2013-05-15T14:26:46Z</time>
      </trkpt>
      <trkpt lat="59.9646991" lon="17.7627684">
        <ele>28.0155</ele>
        <time>2013-05-15T14:26:47Z</time>
      </trkpt>
      <trkpt lat="59.9646655" lon="17.7628668">
        <ele>28.0155</ele>
        <time>2013-05-15T14:26:48Z</time>
      </trkpt>
      <trkpt lat="59.964637" lon="17.7629735">
        <ele>28.0155</ele>
        <time>2013-05-15T14:26:49Z</time>
      </trkpt>
      <trkpt lat="59.9646093" lon="17.7630802">
        <ele>28.0155</ele>
        <time>2013-05-15T14:26:50Z</time>
      </trkpt>
      <trkpt lat="59.9645825" lon="17.7631998">
        <ele>27.0543</ele>
        <time>2013-05-15T14:26:51Z</time>
      </trkpt>
      <trkpt lat="59.964554" lon="17.7633131">
        <ele>27.0543</ele>
        <time>2013-05-15T14:26:52Z</time>
      </trkpt>
      <trkpt lat="59.9645239" lon="17.763432">
        <ele>25.6123</ele>
        <time>2013-05-15T14:26:53Z</time>
      </trkpt>
      <trkpt lat="59.9644903" lon="17.7635398">
        <ele>24.1703</ele>
        <time>2013-05-15T14:26:54Z</time>
      </trkpt>
      <trkpt lat="59.9644602" lon="17.7636503">
        <ele>24.1703</ele>
        <time>2013-05-15T14:26:55Z</time>
      </trkpt>
      <trkpt lat="59.9644308" lon="17.7637555">
        <ele>23.6896</ele>
        <time>2013-05-15T14:26:56Z</time>
      </trkpt>
      <trkpt lat="59.964405" lon="17.7638679">
        <ele>22.7283</ele>
        <time>2013-05-15T14:26:57Z</time>
      </trkpt>
      <trkpt lat="59.964379" lon="17.763985">
        <ele>22.2476</ele>
        <time>2013-05-15T14:26:58Z</time>
      </trkpt>
      <trkpt lat="59.9643524" lon="17.7640997">
        <ele>21.2864</ele>
        <time>2013-05-15T14:26:59Z</time>
      </trkpt>
      <trkpt lat="59.964323" lon="17.7642145">
        <ele>19.8444</ele>
        <time>2013-05-15T14:27:00Z</time>
      </trkpt>
      <trkpt lat="59.9642935" lon="17.7643296">
        <ele>19.3638</ele>
        <time>2013-05-15T14:27:01Z</time>
      </trkpt>
      <trkpt lat="59.9642653" lon="17.7644468">
        <ele>18.8831</ele>
        <time>2013-05-15T14:27:02Z</time>
      </trkpt>
      <trkpt lat="59.9642389" lon="17.7645653">
        <ele>19.3638</ele>
        <time>2013-05-15T14:27:03Z</time>
      </trkpt>
      <trkpt lat="59.964211" lon="17.764686">
        <ele>18.8831</ele>
        <time>2013-05-15T14:27:04Z</time>
      </trkpt>
      <trkpt lat="59.9641827" lon="17.7648">
        <ele>19.3638</ele>
        <time>2013-05-15T14:27:05Z</time>
      </trkpt>
      <trkpt lat="59.9641624" lon="17.7649117">
        <ele>20.325</ele>
        <time>2013-05-15T14:27:06Z</time>
      </trkpt>
      <trkpt lat="59.9641407" lon="17.7650213">
        <ele>20.8057</ele>
        <time>2013-05-15T14:27:07Z</time>
      </trkpt>
      <trkpt lat="59.9641271" lon="17.7651173">
        <ele>21.2864</ele>
        <time>2013-05-15T14:27:08Z</time>
      </trkpt>
      <trkpt lat="59.9641132" lon="17.7652186">
        <ele>20.8057</ele>
        <time>2013-05-15T14:27:09Z</time>
      </trkpt>
      <trkpt lat="59.9640987" lon="17.7653206">
        <ele>20.8057</ele>
        <time>2013-05-15T14:27:10Z</time>
      </trkpt>
      <trkpt lat="59.9640881" lon="17.765418">
        <ele>21.2864</ele>
        <time>2013-05-15T14:27:11Z</time>
      </trkpt>
      <trkpt lat="59.964077" lon="17.7655139">
        <ele>21.767</ele>
        <time>2013-05-15T14:27:12Z</time>
      </trkpt>
      <trkpt lat="59.9640705" lon="17.7656018">
        <ele>21.767</ele>
        <time>2013-05-15T14:27:13Z</time>
      </trkpt>
      <trkpt lat="59.9640665" lon="17.7656848">
        <ele>21.767</ele>
        <time>2013-05-15T14:27:14Z</time>
      </trkpt>
      <trkpt lat="59.9640659" lon="17.7657739">
        <ele>22.2476</ele>
        <time>2013-05-15T14:27:15Z</time>
      </trkpt>
      <trkpt lat="59.9640628" lon="17.7658655">
        <ele>22.2476</ele>
        <time>2013-05-15T14:27:16Z</time>
      </trkpt>
      <trkpt lat="59.9640586" lon="17.7659539">
        <ele>22.2476</ele>
        <time>2013-05-15T14:27:17Z</time>
      </trkpt>
      <trkpt lat="59.9640572" lon="17.7660426">
        <ele>22.7283</ele>
        <time>2013-05-15T14:27:18Z</time>
      </trkpt>
      <trkpt lat="59.9640552" lon="17.7661286">
        <ele>22.7283</ele>
        <time>2013-05-15T14:27:19Z</time>
      </trkpt>
      <trkpt lat="59.9640534" lon="17.7662119">
        <ele>22.7283</ele>
        <time>2013-05-15T14:27:20Z</time>
      </trkpt>
      <trkpt lat="59.9640473" lon="17.7662872">
        <ele>22.7283</ele>
        <time>2013-05-15T14:27:21Z</time>
      </trkpt>
      <trkpt lat="59.9640421" lon="17.7663515">
        <ele>22.2476</ele>
        <time>2013-05-15T14:27:22Z</time>
      </trkpt>
      <trkpt lat="59.96404" lon="17.7664227">
        <ele>21.767</ele>
        <time>2013-05-15T14:27:23Z</time>
      </trkpt>
      <trkpt lat="59.96404" lon="17.7665062">
        <ele>20.8057</ele>
        <time>2013-05-15T14:27:24Z</time>
      </trkpt>
      <trkpt lat="59.9640424" lon="17.766597">
        <ele>19.8444</ele>
        <time>2013-05-15T14:27:25Z</time>
      </trkpt>
      <trkpt lat="59.9640391" lon="17.766702">
        <ele>21.2864</ele>
        <time>2013-05-15T14:27:26Z</time>
      </trkpt>
      <trkpt lat="59.964038" lon="17.7668123">
        <ele>22.2476</ele>
        <time>2013-05-15T14:27:27Z</time>
      </trkpt>
      <trkpt lat="59.9640355" lon="17.7669244">
        <ele>22.7283</ele>
        <time>2013-05-15T14:27:28Z</time>
      </trkpt>
      <trkpt lat="59.9640351" lon="17.7670426">
        <ele>22.7283</ele>
        <time>2013-05-15T14:27:29Z</time>
      </trkpt>
      <trkpt lat="59.9640298" lon="17.7671576">
        <ele>23.209</ele>
        <time>2013-05-15T14:27:30Z</time>
      </trkpt>
      <trkpt lat="59.9640147" lon="17.767274">
        <ele>23.6896</ele>
        <time>2013-05-15T14:27:31Z</time>
      </trkpt>
      <trkpt lat="59.9639961" lon="17.7673854">
        <ele>24.651</ele>
        <time>2013-05-15T14:27:32Z</time>
      </trkpt>
      <trkpt lat="59.9639749" lon="17.767494">
        <ele>25.1317</ele>
        <time>2013-05-15T14:27:33Z</time>
      </trkpt>
      <trkpt lat="59.9639509" lon="17.7675998">
        <ele>25.1317</ele>
        <time>2013-05-15T14:27:34Z</time>
      </trkpt>
      <trkpt lat="59.9639232" lon="17.7677023">
        <ele>25.1317</ele>
        <time>2013-05-15T14:27:35Z</time>
      </trkpt>
      <trkpt lat="59.9638977" lon="17.7678092">
        <ele>25.6123</ele>
        <time>2013-05-15T14:27:36Z</time>
      </trkpt>
      <trkpt lat="59.9638734" lon="17.7679208">
        <ele>26.0929</ele>
        <time>2013-05-15T14:27:37Z</time>
      </trkpt>
      <trkpt lat="59.9638465" lon="17.7680329">
        <ele>26.0929</ele>
        <time>2013-05-15T14:27:38Z</time>
      </trkpt>
      <trkpt lat="59.9638164" lon="17.7681464">
        <ele>26.5736</ele>
        <time>2013-05-15T14:27:39Z</time>
      </trkpt>
      <trkpt lat="59.9637837" lon="17.768263">
        <ele>26.5736</ele>
        <time>2013-05-15T14:27:40Z</time>
      </trkpt>
      <trkpt lat="59.9637511" lon="17.768388">
        <ele>26.0929</ele>
        <time>2013-05-15T14:27:41Z</time>
      </trkpt>
      <trkpt lat="59.9637184" lon="17.7685173">
        <ele>25.1317</ele>
        <time>2013-05-15T14:27:42Z</time>
      </trkpt>
      <trkpt lat="59.9636803" lon="17.7686411">
        <ele>25.1317</ele>
        <time>2013-05-15T14:27:43Z</time>
      </trkpt>
      <trkpt lat="59.9636438" lon="17.7687652">
        <ele>25.1317</ele>
        <time>2013-05-15T14:27:44Z</time>
      </trkpt>
      <trkpt lat="59.9636088" lon="17.76889">
        <ele>25.1317</ele>
        <time>2013-05-15T14:27:45Z</time>
      </trkpt>
      <trkpt lat="59.963575" lon="17.7690208">
        <ele>25.1317</ele>
        <time>2013-05-15T14:27:46Z</time>
      </trkpt>
      <trkpt lat="59.9635423" lon="17.7691486">
        <ele>24.651</ele>
        <time>2013-05-15T14:27:47Z</time>
      </trkpt>
      <trkpt lat="59.9635095" lon="17.7692709">
        <ele>24.651</ele>
        <time>2013-05-15T14:27:48Z</time>
      </trkpt>
      <trkpt lat="59.9634776" lon="17.7693858">
        <ele>25.6123</ele>
        <time>2013-05-15T14:27:49Z</time>
      </trkpt>
      <trkpt lat="59.9634503" lon="17.7694989">
        <ele>25.6123</ele>
        <time>2013-05-15T14:27:50Z</time>
      </trkpt>
      <trkpt lat="59.96343" lon="17.76962">
        <ele>25.6123</ele>
        <time>2013-05-15T14:27:51Z</time>
      </trkpt>
      <trkpt lat="59.9634155" lon="17.7697445">
        <ele>26.0929</ele>
        <time>2013-05-15T14:27:52Z</time>
      </trkpt>
      <trkpt lat="59.9634068" lon="17.7698779">
        <ele>26.0929</ele>
        <time>2013-05-15T14:27:53Z</time>
      </trkpt>
      <trkpt lat="59.9634036" lon="17.7699965">
        <ele>27.0543</ele>
        <time>2013-05-15T14:27:54Z</time>
      </trkpt>
      <trkpt lat="59.963404" lon="17.7701138">
        <ele>27.0543</ele>
        <time>2013-05-15T14:27:55Z</time>
      </trkpt>
      <trkpt lat="59.9634067" lon="17.7702344">
        <ele>27.5349</ele>
        <time>2013-05-15T14:27:56Z</time>
      </trkpt>
      <trkpt lat="59.9634104" lon="17.7703582">
        <ele>28.0155</ele>
        <time>2013-05-15T14:27:57Z</time>
      </trkpt>
      <trkpt lat="59.9634176" lon="17.7704867">
        <ele>27.5349</ele>
        <time>2013-05-15T14:27:58Z</time>
      </trkpt>
      <trkpt lat="59.9634274" lon="17.7706196">
        <ele>27.0543</ele>
        <time>2013-05-15T14:27:59Z</time>
      </trkpt>
      <trkpt lat="59.9634419" lon="17.7707631">
        <ele>26.5736</ele>
        <time>2013-05-15T14:28:00Z</time>
      </trkpt>
      <trkpt lat="59.9634656" lon="17.7709069">
        <ele>26.0929</ele>
        <time>2013-05-15T14:28:01Z</time>
      </trkpt>
      <trkpt lat="59.963493" lon="17.771052">
        <ele>26.0929</ele>
        <time>2013-05-15T14:28:02Z</time>
      </trkpt>
      <trkpt lat="59.9635242" lon="17.7711965">
        <ele>25.6123</ele>
        <time>2013-05-15T14:28:03Z</time>
      </trkpt>
      <trkpt lat="59.9635585" lon="17.7713424">
        <ele>25.6123</ele>
        <time>2013-05-15T14:28:04Z</time>
      </trkpt>
      <trkpt lat="59.9635953" lon="17.7714901">
        <ele>25.1317</ele>
        <time>2013-05-15T14:28:05Z</time>
      </trkpt>
      <trkpt lat="59.9636323" lon="17.7716391">
        <ele>25.1317</ele>
        <time>2013-05-15T14:28:06Z</time>
      </trkpt>
      <trkpt lat="59.9636689" lon="17.77179">
        <ele>25.1317</ele>
        <time>2013-05-15T14:28:07Z</time>
      </trkpt>
      <trkpt lat="59.963706" lon="17.7719444">
        <ele>25.1317</ele>
        <time>2013-05-15T14:28:08Z</time>
      </trkpt>
      <trkpt lat="59.9637423" lon="17.7721019">
        <ele>25.1317</ele>
        <time>2013-05-15T14:28:09Z</time>
      </trkpt>
      <trkpt lat="59.9637774" lon="17.7722633">
        <ele>24.651</ele>
        <time>2013-05-15T14:28:10Z</time>
      </trkpt>
      <trkpt lat="59.9638089" lon="17.772429">
        <ele>24.651</ele>
        <time>2013-05-15T14:28:11Z</time>
      </trkpt>
      <trkpt lat="59.9638361" lon="17.772598">
        <ele>24.651</ele>
        <time>2013-05-15T14:28:12Z</time>
      </trkpt>
      <trkpt lat="59.9638556" lon="17.7727665">
        <ele>24.651</ele>
        <time>2013-05-15T14:28:13Z</time>
      </trkpt>
      <trkpt lat="59.963863" lon="17.7729355">
        <ele>24.651</ele>
        <time>2013-05-15T14:28:14Z</time>
      </trkpt>
      <trkpt lat="59.9638593" lon="17.7731">
        <ele>24.651</ele>
        <time>2013-05-15T14:28:15Z</time>
      </trkpt>
      <trkpt lat="59.9638473" lon="17.7732595">
        <ele>24.651</ele>
        <time>2013-05-15T14:28:16Z</time>
      </trkpt>
      <trkpt lat="59.9638304" lon="17.7734166">
        <ele>24.651</ele>
        <time>2013-05-15T14:28:17Z</time>
      </trkpt>
      <trkpt lat="59.9638107" lon="17.7735725">
        <ele>24.651</ele>
        <time>2013-05-15T14:28:18Z</time>
      </trkpt>
      <trkpt lat="59.9637874" lon="17.7737248">
        <ele>24.651</ele>
        <time>2013-05-15T14:28:19Z</time>
      </trkpt>
      <trkpt lat="59.9637609" lon="17.7738724">
        <ele>24.651</ele>
        <time>2013-05-15T14:28:20Z</time>
      </trkpt>
      <trkpt lat="59.9637329" lon="17.774016">
        <ele>24.651</ele>
        <time>2013-05-15T14:28:21Z</time>
      </trkpt>
      <trkpt lat="59.9637066" lon="17.7741588">
        <ele>24.651</ele>
        <time>2013-05-15T14:28:22Z</time>
      </trkpt>
      <trkpt lat="59.9636838" lon="17.7743023">
        <ele>25.1317</ele>
        <time>2013-05-15T14:28:23Z</time>
      </trkpt>
      <trkpt lat="59.9636636" lon="17.7744464">
        <ele>24.651</ele>
        <time>2013-05-15T14:28:24Z</time>
      </trkpt>
      <trkpt lat="59.9636427" lon="17.7745904">
        <ele>24.651</ele>
        <time>2013-05-15T14:28:25Z</time>
      </trkpt>
      <trkpt lat="59.9636185" lon="17.7747338">
        <ele>24.651</ele>
        <time>2013-05-15T14:28:26Z</time>
      </trkpt>
      <trkpt lat="59.963591" lon="17.7748761">
        <ele>24.651</ele>
        <time>2013-05-15T14:28:27Z</time>
      </trkpt>
      <trkpt lat="59.9635615" lon="17.7750177">
        <ele>24.651</ele>
        <time>2013-05-15T14:28:28Z</time>
      </trkpt>
      <trkpt lat="59.9635297" lon="17.7751572">
        <ele>24.651</ele>
        <time>2013-05-15T14:28:29Z</time>
      </trkpt>
      <trkpt lat="59.9634941" lon="17.7752919">
        <ele>24.651</ele>
        <time>2013-05-15T14:28:30Z</time>
      </trkpt>
      <trkpt lat="59.9634548" lon="17.7754182">
        <ele>24.651</ele>
        <time>2013-05-15T14:28:31Z</time>
      </trkpt>
      <trkpt lat="59.9634142" lon="17.7755378">
        <ele>24.651</ele>
        <time>2013-05-15T14:28:32Z</time>
      </trkpt>
      <trkpt lat="59.963374" lon="17.7756534">
        <ele>24.651</ele>
        <time>2013-05-15T14:28:33Z</time>
      </trkpt>
      <trkpt lat="59.9633355" lon="17.7757668">
        <ele>25.1317</ele>
        <time>2013-05-15T14:28:34Z</time>
      </trkpt>
      <trkpt lat="59.9632988" lon="17.7758783">
        <ele>25.1317</ele>
        <time>2013-05-15T14:28:35Z</time>
      </trkpt>
      <trkpt lat="59.9632641" lon="17.7759879">
        <ele>25.1317</ele>
        <time>2013-05-15T14:28:36Z</time>
      </trkpt>
      <trkpt lat="59.96323" lon="17.7760963">
        <ele>25.1317</ele>
        <time>2013-05-15T14:28:37Z</time>
      </trkpt>
      <trkpt lat="59.9631957" lon="17.7762045">
        <ele>25.1317</ele>
        <time>2013-05-15T14:28:38Z</time>
      </trkpt>
      <trkpt lat="59.9631622" lon="17.7763136">
        <ele>25.1317</ele>
        <time>2013-05-15T14:28:39Z</time>
      </trkpt>
      <trkpt lat="59.9631295" lon="17.776422">
        <ele>24.651</ele>
        <time>2013-05-15T14:28:40Z</time>
      </trkpt>
      <trkpt lat="59.9630969" lon="17.7765315">
        <ele>24.651</ele>
        <time>2013-05-15T14:28:41Z</time>
      </trkpt>
      <trkpt lat="59.9630635" lon="17.7766433">
        <ele>24.1703</ele>
        <time>2013-05-15T14:28:42Z</time>
      </trkpt>
      <trkpt lat="59.9630284" lon="17.7767567">
        <ele>23.6896</ele>
        <time>2013-05-15T14:28:43Z</time>
      </trkpt>
      <trkpt lat="59.9629917" lon="17.7768694">
        <ele>23.6896</ele>
        <time>2013-05-15T14:28:44Z</time>
      </trkpt>
      <trkpt lat="59.9629513" lon="17.7769826">
        <ele>23.6896</ele>
        <time>2013-05-15T14:28:45Z</time>
      </trkpt>
      <trkpt lat="59.9629078" lon="17.777097">
        <ele>23.6896</ele>
        <time>2013-05-15T14:28:46Z</time>
      </trkpt>
      <trkpt lat="59.9628612" lon="17.7772074">
        <ele>23.6896</ele>
        <time>2013-05-15T14:28:47Z</time>
      </trkpt>
      <trkpt lat="59.9628112" lon="17.7773144">
        <ele>23.6896</ele>
        <time>2013-05-15T14:28:48Z</time>
      </trkpt>
      <trkpt lat="59.9627598" lon="17.7774209">
        <ele>23.6896</ele>
        <time>2013-05-15T14:28:49Z</time>
      </trkpt>
      <trkpt lat="59.9627087" lon="17.7775326">
        <ele>23.6896</ele>
        <time>2013-05-15T14:28:50Z</time>
      </trkpt>
      <trkpt lat="59.9626579" lon="17.7776397">
        <ele>23.6896</ele>
        <time>2013-05-15T14:28:51Z</time>
      </trkpt>
      <trkpt lat="59.9626069" lon="17.7777476">
        <ele>23.209</ele>
        <time>2013-05-15T14:28:52Z</time>
      </trkpt>
      <trkpt lat="59.9625562" lon="17.7778576">
        <ele>23.209</ele>
        <time>2013-05-15T14:28:53Z</time>
      </trkpt>
      <trkpt lat="59.9625054" lon="17.7779676">
        <ele>23.6896</ele>
        <time>2013-05-15T14:28:54Z</time>
      </trkpt>
      <trkpt lat="59.9624561" lon="17.7780781">
        <ele>23.6896</ele>
        <time>2013-05-15T14:28:55Z</time>
      </trkpt>
      <trkpt lat="59.9624075" lon="17.7781885">
        <ele>23.6896</ele>
        <time>2013-05-15T14:28:56Z</time>
      </trkpt>
      <trkpt lat="59.9623588" lon="17.7782989">
        <ele>23.6896</ele>
        <time>2013-05-15T14:28:57Z</time>
      </trkpt>
      <trkpt lat="59.9623109" lon="17.778409">
        <ele>23.6896</ele>
        <time>2013-05-15T14:28:58Z</time>
      </trkpt>
      <trkpt lat="59.9622655" lon="17.7785205">
        <ele>24.1703</ele>
        <time>2013-05-15T14:28:59Z</time>
      </trkpt>
      <trkpt lat="59.9622207" lon="17.7786314">
        <ele>24.651</ele>
        <time>2013-05-15T14:29:00Z</time>
      </trkpt>
      <trkpt lat="59.9621751" lon="17.7787402">
        <ele>24.651</ele>
        <time>2013-05-15T14:29:01Z</time>
      </trkpt>
      <trkpt lat="59.9621297" lon="17.7788468">
        <ele>24.651</ele>
        <time>2013-05-15T14:29:02Z</time>
      </trkpt>
      <trkpt lat="59.9620842" lon="17.7789489">
        <ele>24.651</ele>
        <time>2013-05-15T14:29:03Z</time>
      </trkpt>
      <trkpt lat="59.9620392" lon="17.7790469">
        <ele>24.651</ele>
        <time>2013-05-15T14:29:04Z</time>
      </trkpt>
      <trkpt lat="59.9619946" lon="17.7791433">
        <ele>25.1317</ele>
        <time>2013-05-15T14:29:05Z</time>
      </trkpt>
      <trkpt lat="59.9619503" lon="17.7792385">
        <ele>25.1317</ele>
        <time>2013-05-15T14:29:06Z</time>
      </trkpt>
      <trkpt lat="59.9619068" lon="17.7793333">
        <ele>25.1317</ele>
        <time>2013-05-15T14:29:07Z</time>
      </trkpt>
      <trkpt lat="59.9618641" lon="17.7794268">
        <ele>25.1317</ele>
        <time>2013-05-15T14:29:08Z</time>
      </trkpt>
      <trkpt lat="59.9618226" lon="17.779519">
        <ele>25.6123</ele>
        <time>2013-05-15T14:29:09Z</time>
      </trkpt>
      <trkpt lat="59.9617827" lon="17.7796108">
        <ele>25.6123</ele>
        <time>2013-05-15T14:29:10Z</time>
      </trkpt>
      <trkpt lat="59.9617438" lon="17.7797025">
        <ele>25.6123</ele>
        <time>2013-05-15T14:29:11Z</time>
      </trkpt>
      <trkpt lat="59.9617059" lon="17.7797949">
        <ele>25.6123</ele>
        <time>2013-05-15T14:29:12Z</time>
      </trkpt>
      <trkpt lat="59.9616676" lon="17.7798885">
        <ele>25.6123</ele>
        <time>2013-05-15T14:29:13Z</time>
      </trkpt>
      <trkpt lat="59.9616271" lon="17.7799811">
        <ele>25.6123</ele>
        <time>2013-05-15T14:29:14Z</time>
      </trkpt>
      <trkpt lat="59.9615843" lon="17.7800734">
        <ele>25.6123</ele>
        <time>2013-05-15T14:29:15Z</time>
      </trkpt>
      <trkpt lat="59.9615403" lon="17.7801657">
        <ele>25.1317</ele>
        <time>2013-05-15T14:29:16Z</time>
      </trkpt>
      <trkpt lat="59.9614951" lon="17.7802579">
        <ele>25.1317</ele>
        <time>2013-05-15T14:29:17Z</time>
      </trkpt>
      <trkpt lat="59.9614485" lon="17.7803496">
        <ele>25.1317</ele>
        <time>2013-05-15T14:29:18Z</time>
      </trkpt>
      <trkpt lat="59.9614002" lon="17.7804407">
        <ele>25.1317</ele>
        <time>2013-05-15T14:29:19Z</time>
      </trkpt>
      <trkpt lat="59.9613507" lon="17.7805302">
        <ele>25.1317</ele>
        <time>2013-05-15T14:29:20Z</time>
      </trkpt>
      <trkpt lat="59.961302" lon="17.7806203">
        <ele>25.1317</ele>
        <time>2013-05-15T14:29:21Z</time>
      </trkpt>
      <trkpt lat="59.9612533" lon="17.7807107">
        <ele>25.1317</ele>
        <time>2013-05-15T14:29:22Z</time>
      </trkpt>
      <trkpt lat="59.9612033" lon="17.7808006">
        <ele>25.1317</ele>
        <time>2013-05-15T14:29:23Z</time>
      </trkpt>
      <trkpt lat="59.9611532" lon="17.7808904">
        <ele>24.651</ele>
        <time>2013-05-15T14:29:24Z</time>
      </trkpt>
      <trkpt lat="59.9611037" lon="17.7809811">
        <ele>24.651</ele>
        <time>2013-05-15T14:29:25Z</time>
      </trkpt>
      <trkpt lat="59.9610537" lon="17.7810715">
        <ele>24.651</ele>
        <time>2013-05-15T14:29:26Z</time>
      </trkpt>
      <trkpt lat="59.9610026" lon="17.7811611">
        <ele>24.651</ele>
        <time>2013-05-15T14:29:27Z</time>
      </trkpt>
      <trkpt lat="59.9609511" lon="17.7812523">
        <ele>24.651</ele>
        <time>2013-05-15T14:29:28Z</time>
      </trkpt>
      <trkpt lat="59.9608989" lon="17.7813445">
        <ele>24.651</ele>
        <time>2013-05-15T14:29:29Z</time>
      </trkpt>
      <trkpt lat="59.9608459" lon="17.781436">
        <ele>24.651</ele>
        <time>2013-05-15T14:29:30Z</time>
      </trkpt>
      <trkpt lat="59.9607921" lon="17.7815282">
        <ele>24.651</ele>
        <time>2013-05-15T14:29:31Z</time>
      </trkpt>
      <trkpt lat="59.9607389" lon="17.7816242">
        <ele>24.651</ele>
        <time>2013-05-15T14:29:32Z</time>
      </trkpt>
      <trkpt lat="59.9606875" lon="17.7817212">
        <ele>24.651</ele>
        <time>2013-05-15T14:29:33Z</time>
      </trkpt>
      <trkpt lat="59.960637" lon="17.7818191">
        <ele>25.1317</ele>
        <time>2013-05-15T14:29:34Z</time>
      </trkpt>
      <trkpt lat="59.9605885" lon="17.7819211">
        <ele>25.1317</ele>
        <time>2013-05-15T14:29:35Z</time>
      </trkpt>
      <trkpt lat="59.9605419" lon="17.7820216">
        <ele>25.1317</ele>
        <time>2013-05-15T14:29:36Z</time>
      </trkpt>
      <trkpt lat="59.9604995" lon="17.782126">
        <ele>25.6123</ele>
        <time>2013-05-15T14:29:37Z</time>
      </trkpt>
      <trkpt lat="59.9604598" lon="17.7822347">
        <ele>25.6123</ele>
        <time>2013-05-15T14:29:38Z</time>
      </trkpt>
      <trkpt lat="59.9604224" lon="17.7823434">
        <ele>25.6123</ele>
        <time>2013-05-15T14:29:39Z</time>
      </trkpt>
      <trkpt lat="59.9603877" lon="17.7824527">
        <ele>26.0929</ele>
        <time>2013-05-15T14:29:40Z</time>
      </trkpt>
      <trkpt lat="59.9603538" lon="17.7825594">
        <ele>26.0929</ele>
        <time>2013-05-15T14:29:41Z</time>
      </trkpt>
      <trkpt lat="59.9603191" lon="17.7826599">
        <ele>26.0929</ele>
        <time>2013-05-15T14:29:42Z</time>
      </trkpt>
      <trkpt lat="59.9602851" lon="17.7827566">
        <ele>26.0929</ele>
        <time>2013-05-15T14:29:43Z</time>
      </trkpt>
      <trkpt lat="59.9602519" lon="17.7828542">
        <ele>25.6123</ele>
        <time>2013-05-15T14:29:44Z</time>
      </trkpt>
      <trkpt lat="59.9602176" lon="17.782955">
        <ele>26.0929</ele>
        <time>2013-05-15T14:29:45Z</time>
      </trkpt>
      <trkpt lat="59.9601835" lon="17.7830562">
        <ele>25.6123</ele>
        <time>2013-05-15T14:29:46Z</time>
      </trkpt>
      <trkpt lat="59.9601488" lon="17.7831634">
        <ele>26.0929</ele>
        <time>2013-05-15T14:29:47Z</time>
      </trkpt>
      <trkpt lat="59.9601136" lon="17.7832692">
        <ele>26.0929</ele>
        <time>2013-05-15T14:29:48Z</time>
      </trkpt>
      <trkpt lat="59.960079" lon="17.7833758">
        <ele>26.0929</ele>
        <time>2013-05-15T14:29:49Z</time>
      </trkpt>
      <trkpt lat="59.9600438" lon="17.7834845">
        <ele>25.6123</ele>
        <time>2013-05-15T14:29:50Z</time>
      </trkpt>
      <trkpt lat="59.960007" lon="17.7835901">
        <ele>25.6123</ele>
        <time>2013-05-15T14:29:51Z</time>
      </trkpt>
      <trkpt lat="59.9599675" lon="17.7836975">
        <ele>25.1317</ele>
        <time>2013-05-15T14:29:52Z</time>
      </trkpt>
      <trkpt lat="59.9599255" lon="17.7838053">
        <ele>25.1317</ele>
        <time>2013-05-15T14:29:53Z</time>
      </trkpt>
      <trkpt lat="59.9598814" lon="17.783913">
        <ele>25.1317</ele>
        <time>2013-05-15T14:29:54Z</time>
      </trkpt>
      <trkpt lat="59.9598358" lon="17.7840177">
        <ele>25.1317</ele>
        <time>2013-05-15T14:29:55Z</time>
      </trkpt>
      <trkpt lat="59.9597882" lon="17.7841191">
        <ele>25.1317</ele>
        <time>2013-05-15T14:29:56Z</time>
      </trkpt>
      <trkpt lat="59.9597389" lon="17.7842158">
        <ele>24.651</ele>
        <time>2013-05-15T14:29:57Z</time>
      </trkpt>
      <trkpt lat="59.9596879" lon="17.7843077">
        <ele>25.1317</ele>
        <time>2013-05-15T14:29:58Z</time>
      </trkpt>
      <trkpt lat="59.9596346" lon="17.7844024">
        <ele>25.6123</ele>
        <time>2013-05-15T14:29:59Z</time>
      </trkpt>
      <trkpt lat="59.9595813" lon="17.7844915">
        <ele>25.6123</ele>
        <time>2013-05-15T14:30:00Z</time>
      </trkpt>
      <trkpt lat="59.9595276" lon="17.7845792">
        <ele>26.0929</ele>
        <time>2013-05-15T14:30:01Z</time>
      </trkpt>
      <trkpt lat="59.9594737" lon="17.7846668">
        <ele>26.5736</ele>
        <time>2013-05-15T14:30:02Z</time>
      </trkpt>
      <trkpt lat="59.95942" lon="17.7847509">
        <ele>26.5736</ele>
        <time>2013-05-15T14:30:03Z</time>
      </trkpt>
      <trkpt lat="59.9593652" lon="17.7848325">
        <ele>26.0929</ele>
        <time>2013-05-15T14:30:04Z</time>
      </trkpt>
      <trkpt lat="59.9593085" lon="17.7849143">
        <ele>26.0929</ele>
        <time>2013-05-15T14:30:05Z</time>
      </trkpt>
      <trkpt lat="59.959248" lon="17.7849918">
        <ele>26.0929</ele>
        <time>2013-05-15T14:30:06Z</time>
      </trkpt>
      <trkpt lat="59.9591844" lon="17.785063">
        <ele>26.0929</ele>
        <time>2013-05-15T14:30:07Z</time>
      </trkpt>
      <trkpt lat="59.9591191" lon="17.7851286">
        <ele>25.6123</ele>
        <time>2013-05-15T14:30:08Z</time>
      </trkpt>
      <trkpt lat="59.9590518" lon="17.7851869">
        <ele>25.6123</ele>
        <time>2013-05-15T14:30:09Z</time>
      </trkpt>
      <trkpt lat="59.9589842" lon="17.7852421">
        <ele>25.6123</ele>
        <time>2013-05-15T14:30:10Z</time>
      </trkpt>
      <trkpt lat="59.9589169" lon="17.7852961">
        <ele>25.6123</ele>
        <time>2013-05-15T14:30:11Z</time>
      </trkpt>
      <trkpt lat="59.9588507" lon="17.7853477">
        <ele>25.6123</ele>
        <time>2013-05-15T14:30:12Z</time>
      </trkpt>
      <trkpt lat="59.9587858" lon="17.7853966">
        <ele>25.6123</ele>
        <time>2013-05-15T14:30:13Z</time>
      </trkpt>
      <trkpt lat="59.9587232" lon="17.7854477">
        <ele>26.0929</ele>
        <time>2013-05-15T14:30:14Z</time>
      </trkpt>
      <trkpt lat="59.9586611" lon="17.7854996">
        <ele>26.0929</ele>
        <time>2013-05-15T14:30:15Z</time>
      </trkpt>
      <trkpt lat="59.9586004" lon="17.7855565">
        <ele>26.0929</ele>
        <time>2013-05-15T14:30:16Z</time>
      </trkpt>
      <trkpt lat="59.9585406" lon="17.7856192">
        <ele>25.6123</ele>
        <time>2013-05-15T14:30:17Z</time>
      </trkpt>
      <trkpt lat="59.9584794" lon="17.7856815">
        <ele>25.1317</ele>
        <time>2013-05-15T14:30:18Z</time>
      </trkpt>
      <trkpt lat="59.9584211" lon="17.7857518">
        <ele>25.1317</ele>
        <time>2013-05-15T14:30:19Z</time>
      </trkpt>
      <trkpt lat="59.9583624" lon="17.7858235">
        <ele>25.1317</ele>
        <time>2013-05-15T14:30:20Z</time>
      </trkpt>
      <trkpt lat="59.9583011" lon="17.7858932">
        <ele>25.1317</ele>
        <time>2013-05-15T14:30:21Z</time>
      </trkpt>
      <trkpt lat="59.9582421" lon="17.7859691">
        <ele>26.0929</ele>
        <time>2013-05-15T14:30:22Z</time>
      </trkpt>
      <trkpt lat="59.958181" lon="17.7860423">
        <ele>26.0929</ele>
        <time>2013-05-15T14:30:23Z</time>
      </trkpt>
      <trkpt lat="59.9581191" lon="17.7861141">
        <ele>26.0929</ele>
        <time>2013-05-15T14:30:24Z</time>
      </trkpt>
      <trkpt lat="59.9580568" lon="17.786184">
        <ele>26.0929</ele>
        <time>2013-05-15T14:30:25Z</time>
      </trkpt>
      <trkpt lat="59.957996" lon="17.786256">
        <ele>26.0929</ele>
        <time>2013-05-15T14:30:26Z</time>
      </trkpt>
      <trkpt lat="59.957936" lon="17.78633">
        <ele>25.6123</ele>
        <time>2013-05-15T14:30:27Z</time>
      </trkpt>
      <trkpt lat="59.9578783" lon="17.7864082">
        <ele>26.0929</ele>
        <time>2013-05-15T14:30:28Z</time>
      </trkpt>
      <trkpt lat="59.9578214" lon="17.7864863">
        <ele>26.5736</ele>
        <time>2013-05-15T14:30:29Z</time>
      </trkpt>
      <trkpt lat="59.9577691" lon="17.7865707">
        <ele>26.5736</ele>
        <time>2013-05-15T14:30:30Z</time>
      </trkpt>
      <trkpt lat="59.9577234" lon="17.786662">
        <ele>27.0543</ele>
        <time>2013-05-15T14:30:31Z</time>
      </trkpt>
      <trkpt lat="59.957685" lon="17.7867599">
        <ele>27.0543</ele>
        <time>2013-05-15T14:30:32Z</time>
      </trkpt>
      <trkpt lat="59.9576532" lon="17.7868618">
        <ele>27.5349</ele>
        <time>2013-05-15T14:30:33Z</time>
      </trkpt>
      <trkpt lat="59.957627" lon="17.7869667">
        <ele>27.5349</ele>
        <time>2013-05-15T14:30:34Z</time>
      </trkpt>
      <trkpt lat="59.957605" lon="17.7870743">
        <ele>27.5349</ele>
        <time>2013-05-15T14:30:35Z</time>
      </trkpt>
      <trkpt lat="59.9575852" lon="17.7871817">
        <ele>27.5349</ele>
        <time>2013-05-15T14:30:36Z</time>
      </trkpt>
      <trkpt lat="59.9575654" lon="17.7872893">
        <ele>27.5349</ele>
        <time>2013-05-15T14:30:37Z</time>
      </trkpt>
      <trkpt lat="59.9575437" lon="17.7873956">
        <ele>27.5349</ele>
        <time>2013-05-15T14:30:38Z</time>
      </trkpt>
      <trkpt lat="59.9575177" lon="17.7874997">
        <ele>27.5349</ele>
        <time>2013-05-15T14:30:39Z</time>
      </trkpt>
      <trkpt lat="59.9574889" lon="17.7876055">
        <ele>27.5349</ele>
        <time>2013-05-15T14:30:40Z</time>
      </trkpt>
      <trkpt lat="59.9574598" lon="17.7877107">
        <ele>27.5349</ele>
        <time>2013-05-15T14:30:41Z</time>
      </trkpt>
      <trkpt lat="59.95743" lon="17.7878162">
        <ele>27.5349</ele>
        <time>2013-05-15T14:30:42Z</time>
      </trkpt>
      <trkpt lat="59.9574001" lon="17.7879213">
        <ele>27.5349</ele>
        <time>2013-05-15T14:30:43Z</time>
      </trkpt>
      <trkpt lat="59.9573699" lon="17.7880265">
        <ele>27.5349</ele>
        <time>2013-05-15T14:30:44Z</time>
      </trkpt>
      <trkpt lat="59.9573396" lon="17.7881313">
        <ele>27.5349</ele>
        <time>2013-05-15T14:30:45Z</time>
      </trkpt>
      <trkpt lat="59.9573098" lon="17.7882409">
        <ele>27.5349</ele>
        <time>2013-05-15T14:30:46Z</time>
      </trkpt>
      <trkpt lat="59.95728" lon="17.7883514">
        <ele>27.5349</ele>
        <time>2013-05-15T14:30:47Z</time>
      </trkpt>
      <trkpt lat="59.9572459" lon="17.788474">
        <ele>27.5349</ele>
        <time>2013-05-15T14:30:48Z</time>
      </trkpt>
      <trkpt lat="59.9572113" lon="17.788574">
        <ele>27.5349</ele>
        <time>2013-05-15T14:30:49Z</time>
      </trkpt>
      <trkpt lat="59.9571839" lon="17.7886839">
        <ele>27.0543</ele>
        <time>2013-05-15T14:30:50Z</time>
      </trkpt>
      <trkpt lat="59.9571408" lon="17.7888176">
        <ele>26.0929</ele>
        <time>2013-05-15T14:30:51Z</time>
      </trkpt>
      <trkpt lat="59.9570921" lon="17.7889266">
        <ele>25.1317</ele>
        <time>2013-05-15T14:30:52Z</time>
      </trkpt>
      <trkpt lat="59.9570329" lon="17.7890206">
        <ele>24.1703</ele>
        <time>2013-05-15T14:30:53Z</time>
      </trkpt>
      <trkpt lat="59.9569723" lon="17.789093">
        <ele>23.6896</ele>
        <time>2013-05-15T14:30:54Z</time>
      </trkpt>
      <trkpt lat="59.9569103" lon="17.7891699">
        <ele>23.209</ele>
        <time>2013-05-15T14:30:55Z</time>
      </trkpt>
      <trkpt lat="59.9568511" lon="17.7892476">
        <ele>23.209</ele>
        <time>2013-05-15T14:30:56Z</time>
      </trkpt>
      <trkpt lat="59.9567911" lon="17.789311">
        <ele>22.7283</ele>
        <time>2013-05-15T14:30:57Z</time>
      </trkpt>
      <trkpt lat="59.9567376" lon="17.7893846">
        <ele>23.209</ele>
        <time>2013-05-15T14:30:58Z</time>
      </trkpt>
      <trkpt lat="59.9566847" lon="17.7894656">
        <ele>23.209</ele>
        <time>2013-05-15T14:30:59Z</time>
      </trkpt>
      <trkpt lat="59.9566353" lon="17.7895557">
        <ele>23.6896</ele>
        <time>2013-05-15T14:31:00Z</time>
      </trkpt>
      <trkpt lat="59.9565917" lon="17.7896589">
        <ele>23.6896</ele>
        <time>2013-05-15T14:31:01Z</time>
      </trkpt>
      <trkpt lat="59.9565592" lon="17.7897669">
        <ele>23.209</ele>
        <time>2013-05-15T14:31:02Z</time>
      </trkpt>
      <trkpt lat="59.9565294" lon="17.7899094">
        <ele>23.209</ele>
        <time>2013-05-15T14:31:03Z</time>
      </trkpt>
      <trkpt lat="59.9565237" lon="17.7900559">
        <ele>23.6896</ele>
        <time>2013-05-15T14:31:04Z</time>
      </trkpt>
      <trkpt lat="59.9565335" lon="17.7901937">
        <ele>23.209</ele>
        <time>2013-05-15T14:31:05Z</time>
      </trkpt>
      <trkpt lat="59.9565527" lon="17.7903212">
        <ele>23.6896</ele>
        <time>2013-05-15T14:31:06Z</time>
      </trkpt>
      <trkpt lat="59.956577" lon="17.7904436">
        <ele>23.6896</ele>
        <time>2013-05-15T14:31:07Z</time>
      </trkpt>
      <trkpt lat="59.9566001" lon="17.7905659">
        <ele>23.6896</ele>
        <time>2013-05-15T14:31:08Z</time>
      </trkpt>
      <trkpt lat="59.9566229" lon="17.7906803">
        <ele>24.1703</ele>
        <time>2013-05-15T14:31:09Z</time>
      </trkpt>
      <trkpt lat="59.9566438" lon="17.7907891">
        <ele>24.651</ele>
        <time>2013-05-15T14:31:10Z</time>
      </trkpt>
      <trkpt lat="59.9566611" lon="17.7908956">
        <ele>24.651</ele>
        <time>2013-05-15T14:31:11Z</time>
      </trkpt>
      <trkpt lat="59.9566756" lon="17.7909999">
        <ele>25.1317</ele>
        <time>2013-05-15T14:31:12Z</time>
      </trkpt>
      <trkpt lat="59.9566882" lon="17.7911066">
        <ele>25.1317</ele>
        <time>2013-05-15T14:31:13Z</time>
      </trkpt>
      <trkpt lat="59.9566963" lon="17.7912128">
        <ele>25.1317</ele>
        <time>2013-05-15T14:31:14Z</time>
      </trkpt>
      <trkpt lat="59.9566979" lon="17.7913229">
        <ele>24.651</ele>
        <time>2013-05-15T14:31:15Z</time>
      </trkpt>
      <trkpt lat="59.9566932" lon="17.7914357">
        <ele>24.651</ele>
        <time>2013-05-15T14:31:16Z</time>
      </trkpt>
      <trkpt lat="59.9566822" lon="17.7915509">
        <ele>24.651</ele>
        <time>2013-05-15T14:31:17Z</time>
      </trkpt>
      <trkpt lat="59.9566658" lon="17.7916672">
        <ele>24.651</ele>
        <time>2013-05-15T14:31:18Z</time>
      </trkpt>
      <trkpt lat="59.9566452" lon="17.7917789">
        <ele>24.651</ele>
        <time>2013-05-15T14:31:19Z</time>
      </trkpt>
      <trkpt lat="59.9566236" lon="17.7918933">
        <ele>24.651</ele>
        <time>2013-05-15T14:31:20Z</time>
      </trkpt>
      <trkpt lat="59.956602" lon="17.7920089">
        <ele>24.651</ele>
        <time>2013-05-15T14:31:21Z</time>
      </trkpt>
      <trkpt lat="59.9565808" lon="17.7921249">
        <ele>24.651</ele>
        <time>2013-05-15T14:31:22Z</time>
      </trkpt>
      <trkpt lat="59.9565599" lon="17.7922412">
        <ele>24.651</ele>
        <time>2013-05-15T14:31:23Z</time>
      </trkpt>
      <trkpt lat="59.9565392" lon="17.7923591">
        <ele>24.651</ele>
        <time>2013-05-15T14:31:24Z</time>
      </trkpt>
      <trkpt lat="59.9565186" lon="17.7924787">
        <ele>24.651</ele>
        <time>2013-05-15T14:31:25Z</time>
      </trkpt>
      <trkpt lat="59.9564974" lon="17.7925994">
        <ele>24.651</ele>
        <time>2013-05-15T14:31:26Z</time>
      </trkpt>
      <trkpt lat="59.9564756" lon="17.7927206">
        <ele>24.651</ele>
        <time>2013-05-15T14:31:27Z</time>
      </trkpt>
      <trkpt lat="59.9564528" lon="17.7928413">
        <ele>24.651</ele>
        <time>2013-05-15T14:31:28Z</time>
      </trkpt>
      <trkpt lat="59.9564292" lon="17.792962">
        <ele>24.651</ele>
        <time>2013-05-15T14:31:29Z</time>
      </trkpt>
      <trkpt lat="59.9564052" lon="17.7930833">
        <ele>24.651</ele>
        <time>2013-05-15T14:31:30Z</time>
      </trkpt>
      <trkpt lat="59.9563812" lon="17.7932056">
        <ele>24.651</ele>
        <time>2013-05-15T14:31:31Z</time>
      </trkpt>
      <trkpt lat="59.9563568" lon="17.7933295">
        <ele>24.651</ele>
        <time>2013-05-15T14:31:32Z</time>
      </trkpt>
      <trkpt lat="59.9563312" lon="17.7934531">
        <ele>24.1703</ele>
        <time>2013-05-15T14:31:33Z</time>
      </trkpt>
      <trkpt lat="59.9563053" lon="17.7935763">
        <ele>24.1703</ele>
        <time>2013-05-15T14:31:34Z</time>
      </trkpt>
      <trkpt lat="59.9562783" lon="17.7937001">
        <ele>24.1703</ele>
        <time>2013-05-15T14:31:35Z</time>
      </trkpt>
      <trkpt lat="59.9562512" lon="17.7938246">
        <ele>24.1703</ele>
        <time>2013-05-15T14:31:36Z</time>
      </trkpt>
      <trkpt lat="59.9562234" lon="17.7939495">
        <ele>23.6896</ele>
        <time>2013-05-15T14:31:37Z</time>
      </trkpt>
      <trkpt lat="59.9561959" lon="17.7940758">
        <ele>23.6896</ele>
        <time>2013-05-15T14:31:38Z</time>
      </trkpt>
      <trkpt lat="59.9561679" lon="17.7942039">
        <ele>23.6896</ele>
        <time>2013-05-15T14:31:39Z</time>
      </trkpt>
      <trkpt lat="59.9561386" lon="17.7943319">
        <ele>23.209</ele>
        <time>2013-05-15T14:31:40Z</time>
      </trkpt>
      <trkpt lat="59.9561093" lon="17.7944592">
        <ele>23.209</ele>
        <time>2013-05-15T14:31:41Z</time>
      </trkpt>
      <trkpt lat="59.9560797" lon="17.7945834">
        <ele>23.209</ele>
        <time>2013-05-15T14:31:42Z</time>
      </trkpt>
      <trkpt lat="59.9560493" lon="17.7947077">
        <ele>23.209</ele>
        <time>2013-05-15T14:31:43Z</time>
      </trkpt>
      <trkpt lat="59.9560179" lon="17.7948327">
        <ele>23.209</ele>
        <time>2013-05-15T14:31:44Z</time>
      </trkpt>
      <trkpt lat="59.9559863" lon="17.7949575">
        <ele>22.7283</ele>
        <time>2013-05-15T14:31:45Z</time>
      </trkpt>
      <trkpt lat="59.9559556" lon="17.7950811">
        <ele>22.7283</ele>
        <time>2013-05-15T14:31:46Z</time>
      </trkpt>
      <trkpt lat="59.9559255" lon="17.7952077">
        <ele>22.7283</ele>
        <time>2013-05-15T14:31:47Z</time>
      </trkpt>
      <trkpt lat="59.955896" lon="17.7953357">
        <ele>22.7283</ele>
        <time>2013-05-15T14:31:48Z</time>
      </trkpt>
      <trkpt lat="59.9558686" lon="17.7954658">
        <ele>22.7283</ele>
        <time>2013-05-15T14:31:49Z</time>
      </trkpt>
      <trkpt lat="59.9558432" lon="17.7956004">
        <ele>23.209</ele>
        <time>2013-05-15T14:31:50Z</time>
      </trkpt>
      <trkpt lat="59.9558199" lon="17.7957367">
        <ele>23.209</ele>
        <time>2013-05-15T14:31:51Z</time>
      </trkpt>
      <trkpt lat="59.955797" lon="17.7958732">
        <ele>23.209</ele>
        <time>2013-05-15T14:31:52Z</time>
      </trkpt>
      <trkpt lat="59.9557731" lon="17.7960086">
        <ele>23.209</ele>
        <time>2013-05-15T14:31:53Z</time>
      </trkpt>
      <trkpt lat="59.955749" lon="17.7961432">
        <ele>23.6896</ele>
        <time>2013-05-15T14:31:54Z</time>
      </trkpt>
      <trkpt lat="59.9557262" lon="17.7962767">
        <ele>23.6896</ele>
        <time>2013-05-15T14:31:55Z</time>
      </trkpt>
      <trkpt lat="59.9557029" lon="17.7964095">
        <ele>23.209</ele>
        <time>2013-05-15T14:31:56Z</time>
      </trkpt>
      <trkpt lat="59.9556781" lon="17.796543">
        <ele>23.209</ele>
        <time>2013-05-15T14:31:57Z</time>
      </trkpt>
      <trkpt lat="59.955652" lon="17.7966752">
        <ele>23.209</ele>
        <time>2013-05-15T14:31:58Z</time>
      </trkpt>
      <trkpt lat="59.955623" lon="17.7968071">
        <ele>23.209</ele>
        <time>2013-05-15T14:31:59Z</time>
      </trkpt>
      <trkpt lat="59.9555921" lon="17.7969379">
        <ele>23.209</ele>
        <time>2013-05-15T14:32:00Z</time>
      </trkpt>
      <trkpt lat="59.9555604" lon="17.7970623">
        <ele>23.6896</ele>
        <time>2013-05-15T14:32:01Z</time>
      </trkpt>
      <trkpt lat="59.9555286" lon="17.7971863">
        <ele>23.6896</ele>
        <time>2013-05-15T14:32:02Z</time>
      </trkpt>
      <trkpt lat="59.9554956" lon="17.797305">
        <ele>23.6896</ele>
        <time>2013-05-15T14:32:03Z</time>
      </trkpt>
      <trkpt lat="59.9554631" lon="17.7974175">
        <ele>24.1703</ele>
        <time>2013-05-15T14:32:04Z</time>
      </trkpt>
      <trkpt lat="59.9554312" lon="17.7975263">
        <ele>24.1703</ele>
        <time>2013-05-15T14:32:05Z</time>
      </trkpt>
      <trkpt lat="59.9553983" lon="17.7976354">
        <ele>24.1703</ele>
        <time>2013-05-15T14:32:06Z</time>
      </trkpt>
      <trkpt lat="59.9553666" lon="17.7977411">
        <ele>24.1703</ele>
        <time>2013-05-15T14:32:07Z</time>
      </trkpt>
      <trkpt lat="59.955336" lon="17.7978457">
        <ele>24.1703</ele>
        <time>2013-05-15T14:32:08Z</time>
      </trkpt>
      <trkpt lat="59.9553058" lon="17.7979485">
        <ele>24.1703</ele>
        <time>2013-05-15T14:32:09Z</time>
      </trkpt>
      <trkpt lat="59.955276" lon="17.7980484">
        <ele>24.1703</ele>
        <time>2013-05-15T14:32:10Z</time>
      </trkpt>
      <trkpt lat="59.9552464" lon="17.7981469">
        <ele>24.1703</ele>
        <time>2013-05-15T14:32:11Z</time>
      </trkpt>
      <trkpt lat="59.9552163" lon="17.7982443">
        <ele>24.1703</ele>
        <time>2013-05-15T14:32:12Z</time>
      </trkpt>
      <trkpt lat="59.9551858" lon="17.7983373">
        <ele>24.1703</ele>
        <time>2013-05-15T14:32:13Z</time>
      </trkpt>
      <trkpt lat="59.9551536" lon="17.7984277">
        <ele>24.1703</ele>
        <time>2013-05-15T14:32:14Z</time>
      </trkpt>
      <trkpt lat="59.9551193" lon="17.7985141">
        <ele>23.6896</ele>
        <time>2013-05-15T14:32:15Z</time>
      </trkpt>
      <trkpt lat="59.9550846" lon="17.7985951">
        <ele>23.6896</ele>
        <time>2013-05-15T14:32:16Z</time>
      </trkpt>
      <trkpt lat="59.9550496" lon="17.7986714">
        <ele>23.6896</ele>
        <time>2013-05-15T14:32:17Z</time>
      </trkpt>
      <trkpt lat="59.9550128" lon="17.7987504">
        <ele>23.6896</ele>
        <time>2013-05-15T14:32:18Z</time>
      </trkpt>
      <trkpt lat="59.9549745" lon="17.79883">
        <ele>23.6896</ele>
        <time>2013-05-15T14:32:19Z</time>
      </trkpt>
      <trkpt lat="59.9549336" lon="17.7989083">
        <ele>23.6896</ele>
        <time>2013-05-15T14:32:20Z</time>
      </trkpt>
      <trkpt lat="59.9548904" lon="17.7989864">
        <ele>23.6896</ele>
        <time>2013-05-15T14:32:21Z</time>
      </trkpt>
      <trkpt lat="59.9548465" lon="17.7990664">
        <ele>23.6896</ele>
        <time>2013-05-15T14:32:22Z</time>
      </trkpt>
      <trkpt lat="59.9548019" lon="17.7991503">
        <ele>23.209</ele>
        <time>2013-05-15T14:32:23Z</time>
      </trkpt>
      <trkpt lat="59.9547568" lon="17.7992359">
        <ele>23.209</ele>
        <time>2013-05-15T14:32:24Z</time>
      </trkpt>
      <trkpt lat="59.9547101" lon="17.7993247">
        <ele>22.7283</ele>
        <time>2013-05-15T14:32:25Z</time>
      </trkpt>
      <trkpt lat="59.9546622" lon="17.7994159">
        <ele>22.7283</ele>
        <time>2013-05-15T14:32:26Z</time>
      </trkpt>
      <trkpt lat="59.9546145" lon="17.7995127">
        <ele>22.2476</ele>
        <time>2013-05-15T14:32:27Z</time>
      </trkpt>
      <trkpt lat="59.9545664" lon="17.799614">
        <ele>22.2476</ele>
        <time>2013-05-15T14:32:28Z</time>
      </trkpt>
      <trkpt lat="59.9545186" lon="17.7997185">
        <ele>22.2476</ele>
        <time>2013-05-15T14:32:29Z</time>
      </trkpt>
      <trkpt lat="59.9544715" lon="17.7998248">
        <ele>22.2476</ele>
        <time>2013-05-15T14:32:30Z</time>
      </trkpt>
      <trkpt lat="59.9544259" lon="17.7999317">
        <ele>22.2476</ele>
        <time>2013-05-15T14:32:31Z</time>
      </trkpt>
      <trkpt lat="59.9543823" lon="17.8000379">
        <ele>22.2476</ele>
        <time>2013-05-15T14:32:32Z</time>
      </trkpt>
      <trkpt lat="59.9543404" lon="17.8001428">
        <ele>22.7283</ele>
        <time>2013-05-15T14:32:33Z</time>
      </trkpt>
      <trkpt lat="59.9542995" lon="17.8002454">
        <ele>22.7283</ele>
        <time>2013-05-15T14:32:34Z</time>
      </trkpt>
      <trkpt lat="59.954257" lon="17.8003488">
        <ele>22.7283</ele>
        <time>2013-05-15T14:32:35Z</time>
      </trkpt>
      <trkpt lat="59.954214" lon="17.8004523">
        <ele>22.7283</ele>
        <time>2013-05-15T14:32:36Z</time>
      </trkpt>
      <trkpt lat="59.9541714" lon="17.8005531">
        <ele>22.7283</ele>
        <time>2013-05-15T14:32:37Z</time>
      </trkpt>
      <trkpt lat="59.9541275" lon="17.8006618">
        <ele>23.209</ele>
        <time>2013-05-15T14:32:38Z</time>
      </trkpt>
      <trkpt lat="59.9540847" lon="17.8007711">
        <ele>23.6896</ele>
        <time>2013-05-15T14:32:39Z</time>
      </trkpt>
      <trkpt lat="59.9540415" lon="17.8008741">
        <ele>24.651</ele>
        <time>2013-05-15T14:32:40Z</time>
      </trkpt>
      <trkpt lat="59.9539847" lon="17.800994">
        <ele>25.1317</ele>
        <time>2013-05-15T14:32:41Z</time>
      </trkpt>
      <trkpt lat="59.9539411" lon="17.8011131">
        <ele>25.1317</ele>
        <time>2013-05-15T14:32:42Z</time>
      </trkpt>
      <trkpt lat="59.9538981" lon="17.8012321">
        <ele>25.1317</ele>
        <time>2013-05-15T14:32:43Z</time>
      </trkpt>
      <trkpt lat="59.9538592" lon="17.8013395">
        <ele>24.651</ele>
        <time>2013-05-15T14:32:44Z</time>
      </trkpt>
      <trkpt lat="59.9538194" lon="17.8014462">
        <ele>24.651</ele>
        <time>2013-05-15T14:32:45Z</time>
      </trkpt>
      <trkpt lat="59.9537782" lon="17.8015355">
        <ele>25.6123</ele>
        <time>2013-05-15T14:32:46Z</time>
      </trkpt>
      <trkpt lat="59.953741" lon="17.8016405">
        <ele>25.6123</ele>
        <time>2013-05-15T14:32:47Z</time>
      </trkpt>
      <trkpt lat="59.9537038" lon="17.8017558">
        <ele>26.0929</ele>
        <time>2013-05-15T14:32:48Z</time>
      </trkpt>
      <trkpt lat="59.9536722" lon="17.8018687">
        <ele>26.0929</ele>
        <time>2013-05-15T14:32:49Z</time>
      </trkpt>
      <trkpt lat="59.9536436" lon="17.8019828">
        <ele>26.0929</ele>
        <time>2013-05-15T14:32:50Z</time>
      </trkpt>
      <trkpt lat="59.9536186" lon="17.8021029">
        <ele>25.6123</ele>
        <time>2013-05-15T14:32:51Z</time>
      </trkpt>
      <trkpt lat="59.9535938" lon="17.8022568">
        <ele>25.6123</ele>
        <time>2013-05-15T14:32:52Z</time>
      </trkpt>
      <trkpt lat="59.9535712" lon="17.8023594">
        <ele>25.6123</ele>
        <time>2013-05-15T14:32:53Z</time>
      </trkpt>
      <trkpt lat="59.9535473" lon="17.8024733">
        <ele>25.6123</ele>
        <time>2013-05-15T14:32:54Z</time>
      </trkpt>
      <trkpt lat="59.9535202" lon="17.8026064">
        <ele>25.6123</ele>
        <time>2013-05-15T14:32:55Z</time>
      </trkpt>
      <trkpt lat="59.9534986" lon="17.8027277">
        <ele>25.6123</ele>
        <time>2013-05-15T14:32:56Z</time>
      </trkpt>
      <trkpt lat="59.9534851" lon="17.8028198">
        <ele>25.6123</ele>
        <time>2013-05-15T14:32:57Z</time>
      </trkpt>
      <trkpt lat="59.9534667" lon="17.8028996">
        <ele>26.0929</ele>
        <time>2013-05-15T14:32:58Z</time>
      </trkpt>
      <trkpt lat="59.9534485" lon="17.8029865">
        <ele>26.0929</ele>
        <time>2013-05-15T14:32:59Z</time>
      </trkpt>
      <trkpt lat="59.9534272" lon="17.8030679">
        <ele>26.0929</ele>
        <time>2013-05-15T14:33:00Z</time>
      </trkpt>
      <trkpt lat="59.9534037" lon="17.8031489">
        <ele>26.0929</ele>
        <time>2013-05-15T14:33:01Z</time>
      </trkpt>
      <trkpt lat="59.9533771" lon="17.803228">
        <ele>26.0929</ele>
        <time>2013-05-15T14:33:02Z</time>
      </trkpt>
      <trkpt lat="59.9533484" lon="17.8033131">
        <ele>26.0929</ele>
        <time>2013-05-15T14:33:03Z</time>
      </trkpt>
      <trkpt lat="59.9533174" lon="17.8033938">
        <ele>26.0929</ele>
        <time>2013-05-15T14:33:04Z</time>
      </trkpt>
      <trkpt lat="59.9532869" lon="17.8034723">
        <ele>26.0929</ele>
        <time>2013-05-15T14:33:05Z</time>
      </trkpt>
      <trkpt lat="59.9532557" lon="17.8035466">
        <ele>25.6123</ele>
        <time>2013-05-15T14:33:06Z</time>
      </trkpt>
      <trkpt lat="59.9532219" lon="17.803621">
        <ele>25.6123</ele>
        <time>2013-05-15T14:33:07Z</time>
      </trkpt>
      <trkpt lat="59.9531846" lon="17.8036941">
        <ele>25.6123</ele>
        <time>2013-05-15T14:33:08Z</time>
      </trkpt>
      <trkpt lat="59.9531433" lon="17.8037738">
        <ele>25.1317</ele>
        <time>2013-05-15T14:33:09Z</time>
      </trkpt>
      <trkpt lat="59.9531039" lon="17.8038542">
        <ele>25.1317</ele>
        <time>2013-05-15T14:33:10Z</time>
      </trkpt>
      <trkpt lat="59.9530623" lon="17.8039389">
        <ele>24.651</ele>
        <time>2013-05-15T14:33:11Z</time>
      </trkpt>
      <trkpt lat="59.9530188" lon="17.8040269">
        <ele>23.6896</ele>
        <time>2013-05-15T14:33:12Z</time>
      </trkpt>
      <trkpt lat="59.9529724" lon="17.8041219">
        <ele>23.6896</ele>
        <time>2013-05-15T14:33:13Z</time>
      </trkpt>
      <trkpt lat="59.9529262" lon="17.8042268">
        <ele>23.6896</ele>
        <time>2013-05-15T14:33:14Z</time>
      </trkpt>
      <trkpt lat="59.9528844" lon="17.804344">
        <ele>23.6896</ele>
        <time>2013-05-15T14:33:15Z</time>
      </trkpt>
      <trkpt lat="59.9528484" lon="17.804476">
        <ele>23.6896</ele>
        <time>2013-05-15T14:33:16Z</time>
      </trkpt>
      <trkpt lat="59.9528174" lon="17.8046236">
        <ele>23.6896</ele>
        <time>2013-05-15T14:33:17Z</time>
      </trkpt>
      <trkpt lat="59.9527904" lon="17.8047822">
        <ele>24.651</ele>
        <time>2013-05-15T14:33:18Z</time>
      </trkpt>
      <trkpt lat="59.9527683" lon="17.8049388">
        <ele>26.0929</ele>
        <time>2013-05-15T14:33:19Z</time>
      </trkpt>
      <trkpt lat="59.9527496" lon="17.8050902">
        <ele>26.0929</ele>
        <time>2013-05-15T14:33:20Z</time>
      </trkpt>
      <trkpt lat="59.9527324" lon="17.8052673">
        <ele>26.0929</ele>
        <time>2013-05-15T14:33:21Z</time>
      </trkpt>
      <trkpt lat="59.9527153" lon="17.8054275">
        <ele>26.0929</ele>
        <time>2013-05-15T14:33:22Z</time>
      </trkpt>
      <trkpt lat="59.9526963" lon="17.8055828">
        <ele>26.5736</ele>
        <time>2013-05-15T14:33:23Z</time>
      </trkpt>
      <trkpt lat="59.9526745" lon="17.8057357">
        <ele>26.5736</ele>
        <time>2013-05-15T14:33:24Z</time>
      </trkpt>
      <trkpt lat="59.9526491" lon="17.8058912">
        <ele>27.0543</ele>
        <time>2013-05-15T14:33:25Z</time>
      </trkpt>
      <trkpt lat="59.9526253" lon="17.8060419">
        <ele>27.5349</ele>
        <time>2013-05-15T14:33:26Z</time>
      </trkpt>
      <trkpt lat="59.9525979" lon="17.8061898">
        <ele>27.5349</ele>
        <time>2013-05-15T14:33:27Z</time>
      </trkpt>
      <trkpt lat="59.9525688" lon="17.8063319">
        <ele>28.0155</ele>
        <time>2013-05-15T14:33:28Z</time>
      </trkpt>
      <trkpt lat="59.9525418" lon="17.8064677">
        <ele>27.5349</ele>
        <time>2013-05-15T14:33:29Z</time>
      </trkpt>
      <trkpt lat="59.9525142" lon="17.8066024">
        <ele>27.5349</ele>
        <time>2013-05-15T14:33:30Z</time>
      </trkpt>
      <trkpt lat="59.9524861" lon="17.8067403">
        <ele>27.5349</ele>
        <time>2013-05-15T14:33:31Z</time>
      </trkpt>
      <trkpt lat="59.9524537" lon="17.8068778">
        <ele>27.5349</ele>
        <time>2013-05-15T14:33:32Z</time>
      </trkpt>
      <trkpt lat="59.9524206" lon="17.8070116">
        <ele>27.0543</ele>
        <time>2013-05-15T14:33:33Z</time>
      </trkpt>
      <trkpt lat="59.9523865" lon="17.8071436">
        <ele>27.0543</ele>
        <time>2013-05-15T14:33:34Z</time>
      </trkpt>
      <trkpt lat="59.9523516" lon="17.8072757">
        <ele>26.5736</ele>
        <time>2013-05-15T14:33:35Z</time>
      </trkpt>
      <trkpt lat="59.9523155" lon="17.807408">
        <ele>26.5736</ele>
        <time>2013-05-15T14:33:36Z</time>
      </trkpt>
      <trkpt lat="59.9522789" lon="17.8075409">
        <ele>26.0929</ele>
        <time>2013-05-15T14:33:37Z</time>
      </trkpt>
      <trkpt lat="59.9522434" lon="17.8076753">
        <ele>26.0929</ele>
        <time>2013-05-15T14:33:38Z</time>
      </trkpt>
      <trkpt lat="59.9522081" lon="17.8078108">
        <ele>26.0929</ele>
        <time>2013-05-15T14:33:39Z</time>
      </trkpt>
      <trkpt lat="59.9521725" lon="17.807947">
        <ele>25.6123</ele>
        <time>2013-05-15T14:33:40Z</time>
      </trkpt>
      <trkpt lat="59.9521367" lon="17.8080834">
        <ele>25.6123</ele>
        <time>2013-05-15T14:33:41Z</time>
      </trkpt>
      <trkpt lat="59.9521001" lon="17.80822">
        <ele>25.6123</ele>
        <time>2013-05-15T14:33:42Z</time>
      </trkpt>
      <trkpt lat="59.9520628" lon="17.8083569">
        <ele>25.1317</ele>
        <time>2013-05-15T14:33:43Z</time>
      </trkpt>
      <trkpt lat="59.952026" lon="17.8084947">
        <ele>25.1317</ele>
        <time>2013-05-15T14:33:44Z</time>
      </trkpt>
      <trkpt lat="59.9519898" lon="17.8086318">
        <ele>25.1317</ele>
        <time>2013-05-15T14:33:45Z</time>
      </trkpt>
      <trkpt lat="59.9519539" lon="17.808767">
        <ele>25.1317</ele>
        <time>2013-05-15T14:33:46Z</time>
      </trkpt>
      <trkpt lat="59.951918" lon="17.8089013">
        <ele>24.651</ele>
        <time>2013-05-15T14:33:47Z</time>
      </trkpt>
      <trkpt lat="59.9518825" lon="17.8090354">
        <ele>24.651</ele>
        <time>2013-05-15T14:33:48Z</time>
      </trkpt>
      <trkpt lat="59.9518478" lon="17.8091684">
        <ele>24.651</ele>
        <time>2013-05-15T14:33:49Z</time>
      </trkpt>
      <trkpt lat="59.9518126" lon="17.8092996">
        <ele>24.651</ele>
        <time>2013-05-15T14:33:50Z</time>
      </trkpt>
      <trkpt lat="59.951778" lon="17.8094303">
        <ele>24.651</ele>
        <time>2013-05-15T14:33:51Z</time>
      </trkpt>
      <trkpt lat="59.9517437" lon="17.8095628">
        <ele>24.651</ele>
        <time>2013-05-15T14:33:52Z</time>
      </trkpt>
      <trkpt lat="59.9517089" lon="17.8096933">
        <ele>24.651</ele>
        <time>2013-05-15T14:33:53Z</time>
      </trkpt>
      <trkpt lat="59.9516737" lon="17.8098234">
        <ele>25.1317</ele>
        <time>2013-05-15T14:33:54Z</time>
      </trkpt>
      <trkpt lat="59.9516399" lon="17.8099504">
        <ele>24.651</ele>
        <time>2013-05-15T14:33:55Z</time>
      </trkpt>
      <trkpt lat="59.9516068" lon="17.8100778">
        <ele>24.651</ele>
        <time>2013-05-15T14:33:56Z</time>
      </trkpt>
      <trkpt lat="59.9515753" lon="17.8102066">
        <ele>24.651</ele>
        <time>2013-05-15T14:33:57Z</time>
      </trkpt>
      <trkpt lat="59.9515447" lon="17.8103363">
        <ele>24.651</ele>
        <time>2013-05-15T14:33:58Z</time>
      </trkpt>
      <trkpt lat="59.9515153" lon="17.8104674">
        <ele>24.651</ele>
        <time>2013-05-15T14:33:59Z</time>
      </trkpt>
      <trkpt lat="59.9514872" lon="17.8106024">
        <ele>24.651</ele>
        <time>2013-05-15T14:34:00Z</time>
      </trkpt>
      <trkpt lat="59.9514614" lon="17.8107391">
        <ele>24.651</ele>
        <time>2013-05-15T14:34:01Z</time>
      </trkpt>
      <trkpt lat="59.9514368" lon="17.810876">
        <ele>25.1317</ele>
        <time>2013-05-15T14:34:02Z</time>
      </trkpt>
      <trkpt lat="59.9514132" lon="17.8110132">
        <ele>25.1317</ele>
        <time>2013-05-15T14:34:03Z</time>
      </trkpt>
      <trkpt lat="59.9513919" lon="17.8111515">
        <ele>25.1317</ele>
        <time>2013-05-15T14:34:04Z</time>
      </trkpt>
      <trkpt lat="59.9513717" lon="17.8112914">
        <ele>25.1317</ele>
        <time>2013-05-15T14:34:05Z</time>
      </trkpt>
      <trkpt lat="59.9513524" lon="17.8114317">
        <ele>25.1317</ele>
        <time>2013-05-15T14:34:06Z</time>
      </trkpt>
      <trkpt lat="59.9513351" lon="17.8115727">
        <ele>25.1317</ele>
        <time>2013-05-15T14:34:07Z</time>
      </trkpt>
      <trkpt lat="59.9513203" lon="17.8117146">
        <ele>25.1317</ele>
        <time>2013-05-15T14:34:08Z</time>
      </trkpt>
      <trkpt lat="59.9513075" lon="17.8118586">
        <ele>25.1317</ele>
        <time>2013-05-15T14:34:09Z</time>
      </trkpt>
      <trkpt lat="59.9512977" lon="17.8120052">
        <ele>25.1317</ele>
        <time>2013-05-15T14:34:10Z</time>
      </trkpt>
      <trkpt lat="59.9512914" lon="17.8121548">
        <ele>25.1317</ele>
        <time>2013-05-15T14:34:11Z</time>
      </trkpt>
      <trkpt lat="59.9512878" lon="17.8123072">
        <ele>24.651</ele>
        <time>2013-05-15T14:34:12Z</time>
      </trkpt>
      <trkpt lat="59.9512852" lon="17.8124629">
        <ele>24.651</ele>
        <time>2013-05-15T14:34:13Z</time>
      </trkpt>
      <trkpt lat="59.9512842" lon="17.8126206">
        <ele>24.651</ele>
        <time>2013-05-15T14:34:14Z</time>
      </trkpt>
      <trkpt lat="59.9512832" lon="17.8127796">
        <ele>24.651</ele>
        <time>2013-05-15T14:34:15Z</time>
      </trkpt>
      <trkpt lat="59.9512812" lon="17.8129402">
        <ele>24.651</ele>
        <time>2013-05-15T14:34:16Z</time>
      </trkpt>
      <trkpt lat="59.9512799" lon="17.8131016">
        <ele>24.651</ele>
        <time>2013-05-15T14:34:17Z</time>
      </trkpt>
      <trkpt lat="59.9512795" lon="17.8132629">
        <ele>24.651</ele>
        <time>2013-05-15T14:34:18Z</time>
      </trkpt>
      <trkpt lat="59.9512791" lon="17.8134247">
        <ele>24.651</ele>
        <time>2013-05-15T14:34:19Z</time>
      </trkpt>
      <trkpt lat="59.951279" lon="17.8135877">
        <ele>24.651</ele>
        <time>2013-05-15T14:34:20Z</time>
      </trkpt>
      <trkpt lat="59.9512785" lon="17.8137508">
        <ele>24.651</ele>
        <time>2013-05-15T14:34:21Z</time>
      </trkpt>
      <trkpt lat="59.9512769" lon="17.8139137">
        <ele>24.1703</ele>
        <time>2013-05-15T14:34:22Z</time>
      </trkpt>
      <trkpt lat="59.9512749" lon="17.8140767">
        <ele>24.1703</ele>
        <time>2013-05-15T14:34:23Z</time>
      </trkpt>
      <trkpt lat="59.9512736" lon="17.8142397">
        <ele>24.1703</ele>
        <time>2013-05-15T14:34:24Z</time>
      </trkpt>
      <trkpt lat="59.9512716" lon="17.8144027">
        <ele>24.1703</ele>
        <time>2013-05-15T14:34:25Z</time>
      </trkpt>
      <trkpt lat="59.9512692" lon="17.814564">
        <ele>24.1703</ele>
        <time>2013-05-15T14:34:26Z</time>
      </trkpt>
      <trkpt lat="59.9512676" lon="17.814723">
        <ele>24.1703</ele>
        <time>2013-05-15T14:34:27Z</time>
      </trkpt>
      <trkpt lat="59.9512661" lon="17.8148812">
        <ele>24.1703</ele>
        <time>2013-05-15T14:34:28Z</time>
      </trkpt>
      <trkpt lat="59.9512625" lon="17.8150386">
        <ele>24.1703</ele>
        <time>2013-05-15T14:34:29Z</time>
      </trkpt>
      <trkpt lat="59.9512577" lon="17.8151952">
        <ele>24.1703</ele>
        <time>2013-05-15T14:34:30Z</time>
      </trkpt>
      <trkpt lat="59.9512525" lon="17.8153514">
        <ele>24.1703</ele>
        <time>2013-05-15T14:34:31Z</time>
      </trkpt>
      <trkpt lat="59.9512464" lon="17.8155079">
        <ele>24.1703</ele>
        <time>2013-05-15T14:34:32Z</time>
      </trkpt>
      <trkpt lat="59.9512395" lon="17.8156644">
        <ele>24.1703</ele>
        <time>2013-05-15T14:34:33Z</time>
      </trkpt>
      <trkpt lat="59.9512309" lon="17.8158201">
        <ele>24.1703</ele>
        <time>2013-05-15T14:34:34Z</time>
      </trkpt>
      <trkpt lat="59.9512214" lon="17.8159747">
        <ele>24.651</ele>
        <time>2013-05-15T14:34:35Z</time>
      </trkpt>
      <trkpt lat="59.9512115" lon="17.8161285">
        <ele>24.651</ele>
        <time>2013-05-15T14:34:36Z</time>
      </trkpt>
      <trkpt lat="59.9512002" lon="17.8162813">
        <ele>24.651</ele>
        <time>2013-05-15T14:34:37Z</time>
      </trkpt>
      <trkpt lat="59.9511877" lon="17.816434">
        <ele>24.651</ele>
        <time>2013-05-15T14:34:38Z</time>
      </trkpt>
      <trkpt lat="59.9511742" lon="17.8165866">
        <ele>24.651</ele>
        <time>2013-05-15T14:34:39Z</time>
      </trkpt>
      <trkpt lat="59.9511589" lon="17.8167381">
        <ele>24.651</ele>
        <time>2013-05-15T14:34:40Z</time>
      </trkpt>
      <trkpt lat="59.9511433" lon="17.8168885">
        <ele>24.651</ele>
        <time>2013-05-15T14:34:41Z</time>
      </trkpt>
      <trkpt lat="59.9511279" lon="17.8170385">
        <ele>24.651</ele>
        <time>2013-05-15T14:34:42Z</time>
      </trkpt>
      <trkpt lat="59.9511137" lon="17.8171885">
        <ele>25.1317</ele>
        <time>2013-05-15T14:34:43Z</time>
      </trkpt>
      <trkpt lat="59.9510991" lon="17.8173381">
        <ele>25.1317</ele>
        <time>2013-05-15T14:34:44Z</time>
      </trkpt>
      <trkpt lat="59.9510833" lon="17.8174863">
        <ele>25.1317</ele>
        <time>2013-05-15T14:34:45Z</time>
      </trkpt>
      <trkpt lat="59.9510675" lon="17.817634">
        <ele>25.1317</ele>
        <time>2013-05-15T14:34:46Z</time>
      </trkpt>
      <trkpt lat="59.9510521" lon="17.817782">
        <ele>25.1317</ele>
        <time>2013-05-15T14:34:47Z</time>
      </trkpt>
      <trkpt lat="59.9510376" lon="17.8179302">
        <ele>25.6123</ele>
        <time>2013-05-15T14:34:48Z</time>
      </trkpt>
      <trkpt lat="59.9510236" lon="17.8180784">
        <ele>25.6123</ele>
        <time>2013-05-15T14:34:49Z</time>
      </trkpt>
      <trkpt lat="59.9510095" lon="17.8182263">
        <ele>25.6123</ele>
        <time>2013-05-15T14:34:50Z</time>
      </trkpt>
      <trkpt lat="59.9509946" lon="17.818373">
        <ele>26.0929</ele>
        <time>2013-05-15T14:34:51Z</time>
      </trkpt>
      <trkpt lat="59.9509794" lon="17.8185191">
        <ele>26.0929</ele>
        <time>2013-05-15T14:34:52Z</time>
      </trkpt>
      <trkpt lat="59.9509649" lon="17.8186661">
        <ele>26.0929</ele>
        <time>2013-05-15T14:34:53Z</time>
      </trkpt>
      <trkpt lat="59.9509516" lon="17.8188158">
        <ele>26.0929</ele>
        <time>2013-05-15T14:34:54Z</time>
      </trkpt>
      <trkpt lat="59.9509408" lon="17.8189692">
        <ele>25.6123</ele>
        <time>2013-05-15T14:34:55Z</time>
      </trkpt>
      <trkpt lat="59.9509334" lon="17.8191247">
        <ele>25.6123</ele>
        <time>2013-05-15T14:34:56Z</time>
      </trkpt>
      <trkpt lat="59.9509282" lon="17.8192807">
        <ele>25.6123</ele>
        <time>2013-05-15T14:34:57Z</time>
      </trkpt>
      <trkpt lat="59.9509245" lon="17.819438">
        <ele>25.1317</ele>
        <time>2013-05-15T14:34:58Z</time>
      </trkpt>
      <trkpt lat="59.950922" lon="17.8195962">
        <ele>25.1317</ele>
        <time>2013-05-15T14:34:59Z</time>
      </trkpt>
      <trkpt lat="59.9509193" lon="17.8197557">
        <ele>25.1317</ele>
        <time>2013-05-15T14:35:00Z</time>
      </trkpt>
      <trkpt lat="59.9509155" lon="17.8199158">
        <ele>24.651</ele>
        <time>2013-05-15T14:35:01Z</time>
      </trkpt>
      <trkpt lat="59.9509108" lon="17.8200774">
        <ele>24.651</ele>
        <time>2013-05-15T14:35:02Z</time>
      </trkpt>
      <trkpt lat="59.950905" lon="17.8202389">
        <ele>24.651</ele>
        <time>2013-05-15T14:35:03Z</time>
      </trkpt>
      <trkpt lat="59.9508972" lon="17.8203995">
        <ele>24.651</ele>
        <time>2013-05-15T14:35:04Z</time>
      </trkpt>
      <trkpt lat="59.9508874" lon="17.8205591">
        <ele>24.651</ele>
        <time>2013-05-15T14:35:05Z</time>
      </trkpt>
      <trkpt lat="59.950877" lon="17.8207172">
        <ele>24.651</ele>
        <time>2013-05-15T14:35:06Z</time>
      </trkpt>
      <trkpt lat="59.9508662" lon="17.8208742">
        <ele>24.651</ele>
        <time>2013-05-15T14:35:07Z</time>
      </trkpt>
      <trkpt lat="59.9508548" lon="17.8210288">
        <ele>24.651</ele>
        <time>2013-05-15T14:35:08Z</time>
      </trkpt>
      <trkpt lat="59.9508422" lon="17.821181">
        <ele>24.1703</ele>
        <time>2013-05-15T14:35:09Z</time>
      </trkpt>
      <trkpt lat="59.9508286" lon="17.8213318">
        <ele>24.1703</ele>
        <time>2013-05-15T14:35:10Z</time>
      </trkpt>
      <trkpt lat="59.9508139" lon="17.8214796">
        <ele>24.1703</ele>
        <time>2013-05-15T14:35:11Z</time>
      </trkpt>
      <trkpt lat="59.9507999" lon="17.8216251">
        <ele>24.1703</ele>
        <time>2013-05-15T14:35:12Z</time>
      </trkpt>
      <trkpt lat="59.9507859" lon="17.8217697">
        <ele>24.1703</ele>
        <time>2013-05-15T14:35:13Z</time>
      </trkpt>
      <trkpt lat="59.9507707" lon="17.8219135">
        <ele>24.1703</ele>
        <time>2013-05-15T14:35:14Z</time>
      </trkpt>
      <trkpt lat="59.9507543" lon="17.8220561">
        <ele>24.1703</ele>
        <time>2013-05-15T14:35:15Z</time>
      </trkpt>
      <trkpt lat="59.9507376" lon="17.822197">
        <ele>24.1703</ele>
        <time>2013-05-15T14:35:16Z</time>
      </trkpt>
      <trkpt lat="59.9507214" lon="17.8223364">
        <ele>24.1703</ele>
        <time>2013-05-15T14:35:17Z</time>
      </trkpt>
      <trkpt lat="59.9507048" lon="17.8224748">
        <ele>24.1703</ele>
        <time>2013-05-15T14:35:18Z</time>
      </trkpt>
      <trkpt lat="59.9506879" lon="17.8226114">
        <ele>24.1703</ele>
        <time>2013-05-15T14:35:19Z</time>
      </trkpt>
      <trkpt lat="59.9506733" lon="17.8227472">
        <ele>23.6896</ele>
        <time>2013-05-15T14:35:20Z</time>
      </trkpt>
      <trkpt lat="59.9506605" lon="17.8228834">
        <ele>23.6896</ele>
        <time>2013-05-15T14:35:21Z</time>
      </trkpt>
      <trkpt lat="59.9506484" lon="17.8230197">
        <ele>23.6896</ele>
        <time>2013-05-15T14:35:22Z</time>
      </trkpt>
      <trkpt lat="59.950637" lon="17.8231549">
        <ele>23.6896</ele>
        <time>2013-05-15T14:35:23Z</time>
      </trkpt>
      <trkpt lat="59.9506248" lon="17.823291">
        <ele>23.6896</ele>
        <time>2013-05-15T14:35:24Z</time>
      </trkpt>
      <trkpt lat="59.9506098" lon="17.8234274">
        <ele>23.6896</ele>
        <time>2013-05-15T14:35:25Z</time>
      </trkpt>
      <trkpt lat="59.9505926" lon="17.8235631">
        <ele>23.6896</ele>
        <time>2013-05-15T14:35:26Z</time>
      </trkpt>
      <trkpt lat="59.950574" lon="17.8236976">
        <ele>23.6896</ele>
        <time>2013-05-15T14:35:27Z</time>
      </trkpt>
      <trkpt lat="59.9505542" lon="17.823832">
        <ele>23.6896</ele>
        <time>2013-05-15T14:35:28Z</time>
      </trkpt>
      <trkpt lat="59.9505316" lon="17.8239662">
        <ele>23.6896</ele>
        <time>2013-05-15T14:35:29Z</time>
      </trkpt>
      <trkpt lat="59.9505068" lon="17.8240997">
        <ele>23.6896</ele>
        <time>2013-05-15T14:35:30Z</time>
      </trkpt>
      <trkpt lat="59.95048" lon="17.8242337">
        <ele>23.209</ele>
        <time>2013-05-15T14:35:31Z</time>
      </trkpt>
      <trkpt lat="59.9504511" lon="17.8243668">
        <ele>23.209</ele>
        <time>2013-05-15T14:35:32Z</time>
      </trkpt>
      <trkpt lat="59.9504213" lon="17.8245008">
        <ele>23.209</ele>
        <time>2013-05-15T14:35:33Z</time>
      </trkpt>
      <trkpt lat="59.9503922" lon="17.8246349">
        <ele>23.209</ele>
        <time>2013-05-15T14:35:34Z</time>
      </trkpt>
      <trkpt lat="59.9503626" lon="17.8247688">
        <ele>22.7283</ele>
        <time>2013-05-15T14:35:35Z</time>
      </trkpt>
      <trkpt lat="59.9503321" lon="17.824901">
        <ele>22.7283</ele>
        <time>2013-05-15T14:35:36Z</time>
      </trkpt>
      <trkpt lat="59.9503021" lon="17.8250331">
        <ele>22.7283</ele>
        <time>2013-05-15T14:35:37Z</time>
      </trkpt>
      <trkpt lat="59.9502726" lon="17.8251657">
        <ele>22.7283</ele>
        <time>2013-05-15T14:35:38Z</time>
      </trkpt>
      <trkpt lat="59.9502434" lon="17.8252975">
        <ele>22.7283</ele>
        <time>2013-05-15T14:35:39Z</time>
      </trkpt>
      <trkpt lat="59.950214" lon="17.8254279">
        <ele>22.2476</ele>
        <time>2013-05-15T14:35:40Z</time>
      </trkpt>
      <trkpt lat="59.9501834" lon="17.8255589">
        <ele>22.2476</ele>
        <time>2013-05-15T14:35:41Z</time>
      </trkpt>
      <trkpt lat="59.9501533" lon="17.8256898">
        <ele>22.7283</ele>
        <time>2013-05-15T14:35:42Z</time>
      </trkpt>
      <trkpt lat="59.9501229" lon="17.82582">
        <ele>22.7283</ele>
        <time>2013-05-15T14:35:43Z</time>
      </trkpt>
      <trkpt lat="59.9500922" lon="17.8259516">
        <ele>22.7283</ele>
        <time>2013-05-15T14:35:44Z</time>
      </trkpt>
      <trkpt lat="59.9500632" lon="17.8260842">
        <ele>22.2476</ele>
        <time>2013-05-15T14:35:45Z</time>
      </trkpt>
      <trkpt lat="59.950038" lon="17.8262213">
        <ele>22.2476</ele>
        <time>2013-05-15T14:35:46Z</time>
      </trkpt>
      <trkpt lat="59.9500171" lon="17.8263632">
        <ele>22.2476</ele>
        <time>2013-05-15T14:35:47Z</time>
      </trkpt>
      <trkpt lat="59.95" lon="17.8265082">
        <ele>22.2476</ele>
        <time>2013-05-15T14:35:48Z</time>
      </trkpt>
      <trkpt lat="59.9499865" lon="17.8266543">
        <ele>22.7283</ele>
        <time>2013-05-15T14:35:49Z</time>
      </trkpt>
      <trkpt lat="59.9499761" lon="17.8268006">
        <ele>22.7283</ele>
        <time>2013-05-15T14:35:50Z</time>
      </trkpt>
      <trkpt lat="59.9499682" lon="17.8269481">
        <ele>22.7283</ele>
        <time>2013-05-15T14:35:51Z</time>
      </trkpt>
      <trkpt lat="59.9499617" lon="17.8270983">
        <ele>22.7283</ele>
        <time>2013-05-15T14:35:52Z</time>
      </trkpt>
      <trkpt lat="59.9499576" lon="17.8272497">
        <ele>22.7283</ele>
        <time>2013-05-15T14:35:53Z</time>
      </trkpt>
      <trkpt lat="59.9499551" lon="17.8274026">
        <ele>23.209</ele>
        <time>2013-05-15T14:35:54Z</time>
      </trkpt>
      <trkpt lat="59.9499538" lon="17.8275565">
        <ele>23.209</ele>
        <time>2013-05-15T14:35:55Z</time>
      </trkpt>
      <trkpt lat="59.9499542" lon="17.8277112">
        <ele>23.209</ele>
        <time>2013-05-15T14:35:56Z</time>
      </trkpt>
      <trkpt lat="59.9499555" lon="17.8278655">
        <ele>23.209</ele>
        <time>2013-05-15T14:35:57Z</time>
      </trkpt>
      <trkpt lat="59.9499565" lon="17.8280182">
        <ele>23.209</ele>
        <time>2013-05-15T14:35:58Z</time>
      </trkpt>
      <trkpt lat="59.9499579" lon="17.8281691">
        <ele>23.209</ele>
        <time>2013-05-15T14:35:59Z</time>
      </trkpt>
      <trkpt lat="59.9499601" lon="17.8283184">
        <ele>23.6896</ele>
        <time>2013-05-15T14:36:00Z</time>
      </trkpt>
      <trkpt lat="59.9499627" lon="17.8284665">
        <ele>23.6896</ele>
        <time>2013-05-15T14:36:01Z</time>
      </trkpt>
      <trkpt lat="59.9499654" lon="17.8286126">
        <ele>23.6896</ele>
        <time>2013-05-15T14:36:02Z</time>
      </trkpt>
      <trkpt lat="59.9499694" lon="17.8287551">
        <ele>23.6896</ele>
        <time>2013-05-15T14:36:03Z</time>
      </trkpt>
      <trkpt lat="59.9499734" lon="17.8288938">
        <ele>23.6896</ele>
        <time>2013-05-15T14:36:04Z</time>
      </trkpt>
      <trkpt lat="59.9499758" lon="17.8290289">
        <ele>23.6896</ele>
        <time>2013-05-15T14:36:05Z</time>
      </trkpt>
      <trkpt lat="59.9499752" lon="17.8291607">
        <ele>23.6896</ele>
        <time>2013-05-15T14:36:06Z</time>
      </trkpt>
      <trkpt lat="59.9499705" lon="17.8292882">
        <ele>23.6896</ele>
        <time>2013-05-15T14:36:07Z</time>
      </trkpt>
      <trkpt lat="59.9499634" lon="17.8294103">
        <ele>24.1703</ele>
        <time>2013-05-15T14:36:08Z</time>
      </trkpt>
      <trkpt lat="59.9499529" lon="17.8295267">
        <ele>24.1703</ele>
        <time>2013-05-15T14:36:09Z</time>
      </trkpt>
      <trkpt lat="59.9499321" lon="17.8296319">
        <ele>24.1703</ele>
        <time>2013-05-15T14:36:10Z</time>
      </trkpt>
      <trkpt lat="59.949897" lon="17.8297165">
        <ele>24.1703</ele>
        <time>2013-05-15T14:36:11Z</time>
      </trkpt>
      <trkpt lat="59.9498489" lon="17.8297657">
        <ele>24.1703</ele>
        <time>2013-05-15T14:36:12Z</time>
      </trkpt>
      <trkpt lat="59.9497923" lon="17.8297713">
        <ele>24.1703</ele>
        <time>2013-05-15T14:36:13Z</time>
      </trkpt>
      <trkpt lat="59.9497348" lon="17.8297305">
        <ele>23.6896</ele>
        <time>2013-05-15T14:36:14Z</time>
      </trkpt>
      <trkpt lat="59.9496829" lon="17.8296554">
        <ele>23.209</ele>
        <time>2013-05-15T14:36:15Z</time>
      </trkpt>
      <trkpt lat="59.9496334" lon="17.8295703">
        <ele>23.209</ele>
        <time>2013-05-15T14:36:16Z</time>
      </trkpt>
      <trkpt lat="59.9495833" lon="17.8294845">
        <ele>23.209</ele>
        <time>2013-05-15T14:36:17Z</time>
      </trkpt>
      <trkpt lat="59.9495317" lon="17.8293972">
        <ele>22.7283</ele>
        <time>2013-05-15T14:36:18Z</time>
      </trkpt>
      <trkpt lat="59.9494763" lon="17.829312">
        <ele>22.7283</ele>
        <time>2013-05-15T14:36:19Z</time>
      </trkpt>
      <trkpt lat="59.9494169" lon="17.829229">
        <ele>22.2476</ele>
        <time>2013-05-15T14:36:20Z</time>
      </trkpt>
      <trkpt lat="59.9493554" lon="17.8291444">
        <ele>21.2864</ele>
        <time>2013-05-15T14:36:21Z</time>
      </trkpt>
      <trkpt lat="59.9492925" lon="17.8290628">
        <ele>21.2864</ele>
        <time>2013-05-15T14:36:22Z</time>
      </trkpt>
      <trkpt lat="59.9492285" lon="17.8289825">
        <ele>20.8057</ele>
        <time>2013-05-15T14:36:23Z</time>
      </trkpt>
      <trkpt lat="59.9491634" lon="17.8289028">
        <ele>20.8057</ele>
        <time>2013-05-15T14:36:24Z</time>
      </trkpt>
      <trkpt lat="59.9490971" lon="17.8288245">
        <ele>20.325</ele>
        <time>2013-05-15T14:36:25Z</time>
      </trkpt>
      <trkpt lat="59.9490304" lon="17.8287468">
        <ele>20.325</ele>
        <time>2013-05-15T14:36:26Z</time>
      </trkpt>
      <trkpt lat="59.9489644" lon="17.8286705">
        <ele>20.325</ele>
        <time>2013-05-15T14:36:27Z</time>
      </trkpt>
      <trkpt lat="59.948898" lon="17.8285953">
        <ele>20.325</ele>
        <time>2013-05-15T14:36:28Z</time>
      </trkpt>
      <trkpt lat="59.9488314" lon="17.8285215">
        <ele>20.325</ele>
        <time>2013-05-15T14:36:29Z</time>
      </trkpt>
      <trkpt lat="59.9487652" lon="17.8284494">
        <ele>20.325</ele>
        <time>2013-05-15T14:36:30Z</time>
      </trkpt>
      <trkpt lat="59.9486999" lon="17.8283786">
        <ele>20.325</ele>
        <time>2013-05-15T14:36:31Z</time>
      </trkpt>
      <trkpt lat="59.9486355" lon="17.828308">
        <ele>20.8057</ele>
        <time>2013-05-15T14:36:32Z</time>
      </trkpt>
      <trkpt lat="59.9485709" lon="17.8282396">
        <ele>20.8057</ele>
        <time>2013-05-15T14:36:33Z</time>
      </trkpt>
      <trkpt lat="59.9485071" lon="17.8281727">
        <ele>20.8057</ele>
        <time>2013-05-15T14:36:34Z</time>
      </trkpt>
      <trkpt lat="59.9484438" lon="17.8281066">
        <ele>20.8057</ele>
        <time>2013-05-15T14:36:35Z</time>
      </trkpt>
      <trkpt lat="59.9483807" lon="17.8280401">
        <ele>20.8057</ele>
        <time>2013-05-15T14:36:36Z</time>
      </trkpt>
      <trkpt lat="59.9483163" lon="17.8279699">
        <ele>20.8057</ele>
        <time>2013-05-15T14:36:37Z</time>
      </trkpt>
      <trkpt lat="59.9482516" lon="17.8278984">
        <ele>20.325</ele>
        <time>2013-05-15T14:36:38Z</time>
      </trkpt>
      <trkpt lat="59.9481865" lon="17.8278278">
        <ele>20.325</ele>
        <time>2013-05-15T14:36:39Z</time>
      </trkpt>
      <trkpt lat="59.9481211" lon="17.8277592">
        <ele>19.8444</ele>
        <time>2013-05-15T14:36:40Z</time>
      </trkpt>
      <trkpt lat="59.9480548" lon="17.8276909">
        <ele>19.8444</ele>
        <time>2013-05-15T14:36:41Z</time>
      </trkpt>
      <trkpt lat="59.9479879" lon="17.8276216">
        <ele>19.3638</ele>
        <time>2013-05-15T14:36:42Z</time>
      </trkpt>
      <trkpt lat="59.9479211" lon="17.8275502">
        <ele>19.3638</ele>
        <time>2013-05-15T14:36:43Z</time>
      </trkpt>
      <trkpt lat="59.9478534" lon="17.8274787">
        <ele>18.8831</ele>
        <time>2013-05-15T14:36:44Z</time>
      </trkpt>
      <trkpt lat="59.9477856" lon="17.8274088">
        <ele>18.8831</ele>
        <time>2013-05-15T14:36:45Z</time>
      </trkpt>
      <trkpt lat="59.947719" lon="17.8273387">
        <ele>18.8831</ele>
        <time>2013-05-15T14:36:46Z</time>
      </trkpt>
      <trkpt lat="59.9476528" lon="17.8272699">
        <ele>18.8831</ele>
        <time>2013-05-15T14:36:47Z</time>
      </trkpt>
      <trkpt lat="59.9475872" lon="17.8272024">
        <ele>18.8831</ele>
        <time>2013-05-15T14:36:48Z</time>
      </trkpt>
      <trkpt lat="59.9475228" lon="17.8271331">
        <ele>18.8831</ele>
        <time>2013-05-15T14:36:49Z</time>
      </trkpt>
      <trkpt lat="59.9474585" lon="17.8270642">
        <ele>18.4023</ele>
        <time>2013-05-15T14:36:50Z</time>
      </trkpt>
      <trkpt lat="59.9473939" lon="17.8269968">
        <ele>18.4023</ele>
        <time>2013-05-15T14:36:51Z</time>
      </trkpt>
      <trkpt lat="59.9473292" lon="17.8269286">
        <ele>18.4023</ele>
        <time>2013-05-15T14:36:52Z</time>
      </trkpt>
      <trkpt lat="59.9472648" lon="17.8268605">
        <ele>18.4023</ele>
        <time>2013-05-15T14:36:53Z</time>
      </trkpt>
      <trkpt lat="59.9472007" lon="17.8267932">
        <ele>18.4023</ele>
        <time>2013-05-15T14:36:54Z</time>
      </trkpt>
      <trkpt lat="59.9471366" lon="17.8267261">
        <ele>18.4023</ele>
        <time>2013-05-15T14:36:55Z</time>
      </trkpt>
      <trkpt lat="59.9470726" lon="17.8266595">
        <ele>18.4023</ele>
        <time>2013-05-15T14:36:56Z</time>
      </trkpt>
      <trkpt lat="59.9470085" lon="17.8265924">
        <ele>18.4023</ele>
        <time>2013-05-15T14:36:57Z</time>
      </trkpt>
      <trkpt lat="59.9469449" lon="17.8265251">
        <ele>18.4023</ele>
        <time>2013-05-15T14:36:58Z</time>
      </trkpt>
      <trkpt lat="59.9468821" lon="17.8264585">
        <ele>18.4023</ele>
        <time>2013-05-15T14:36:59Z</time>
      </trkpt>
      <trkpt lat="59.9468195" lon="17.8263931">
        <ele>18.4023</ele>
        <time>2013-05-15T14:37:00Z</time>
      </trkpt>
      <trkpt lat="59.9466939" lon="17.8262629">
        <ele>18.8831</ele>
        <time>2013-05-15T14:37:02Z</time>
      </trkpt>
      <trkpt lat="59.9466314" lon="17.826198">
        <ele>18.8831</ele>
        <time>2013-05-15T14:37:03Z</time>
      </trkpt>
      <trkpt lat="59.9465702" lon="17.826134">
        <ele>18.8831</ele>
        <time>2013-05-15T14:37:04Z</time>
      </trkpt>
      <trkpt lat="59.9465097" lon="17.8260701">
        <ele>18.8831</ele>
        <time>2013-05-15T14:37:05Z</time>
      </trkpt>
      <trkpt lat="59.9464494" lon="17.8260068">
        <ele>18.8831</ele>
        <time>2013-05-15T14:37:06Z</time>
      </trkpt>
      <trkpt lat="59.9463889" lon="17.8259442">
        <ele>18.8831</ele>
        <time>2013-05-15T14:37:07Z</time>
      </trkpt>
      <trkpt lat="59.9463285" lon="17.8258816">
        <ele>19.3638</ele>
        <time>2013-05-15T14:37:08Z</time>
      </trkpt>
      <trkpt lat="59.9462683" lon="17.8258196">
        <ele>19.3638</ele>
        <time>2013-05-15T14:37:09Z</time>
      </trkpt>
      <trkpt lat="59.9462081" lon="17.8257575">
        <ele>19.8444</ele>
        <time>2013-05-15T14:37:10Z</time>
      </trkpt>
      <trkpt lat="59.9461481" lon="17.8256947">
        <ele>19.8444</ele>
        <time>2013-05-15T14:37:11Z</time>
      </trkpt>
      <trkpt lat="59.9460879" lon="17.8256325">
        <ele>19.8444</ele>
        <time>2013-05-15T14:37:12Z</time>
      </trkpt>
      <trkpt lat="59.9460279" lon="17.8255701">
        <ele>20.325</ele>
        <time>2013-05-15T14:37:13Z</time>
      </trkpt>
      <trkpt lat="59.9459684" lon="17.8255082">
        <ele>20.325</ele>
        <time>2013-05-15T14:37:14Z</time>
      </trkpt>
      <trkpt lat="59.9459091" lon="17.8254469">
        <ele>20.8057</ele>
        <time>2013-05-15T14:37:15Z</time>
      </trkpt>
      <trkpt lat="59.9458503" lon="17.8253854">
        <ele>20.8057</ele>
        <time>2013-05-15T14:37:16Z</time>
      </trkpt>
      <trkpt lat="59.945792" lon="17.8253251">
        <ele>20.8057</ele>
        <time>2013-05-15T14:37:17Z</time>
      </trkpt>
      <trkpt lat="59.9457342" lon="17.8252655">
        <ele>21.2864</ele>
        <time>2013-05-15T14:37:18Z</time>
      </trkpt>
      <trkpt lat="59.9456772" lon="17.8252065">
        <ele>21.2864</ele>
        <time>2013-05-15T14:37:19Z</time>
      </trkpt>
      <trkpt lat="59.9456208" lon="17.8251492">
        <ele>21.767</ele>
        <time>2013-05-15T14:37:20Z</time>
      </trkpt>
      <trkpt lat="59.9455654" lon="17.8250926">
        <ele>21.767</ele>
        <time>2013-05-15T14:37:21Z</time>
      </trkpt>
      <trkpt lat="59.9455108" lon="17.8250358">
        <ele>22.2476</ele>
        <time>2013-05-15T14:37:22Z</time>
      </trkpt>
      <trkpt lat="59.945457" lon="17.8249792">
        <ele>22.2476</ele>
        <time>2013-05-15T14:37:23Z</time>
      </trkpt>
      <trkpt lat="59.9454038" lon="17.8249239">
        <ele>22.7283</ele>
        <time>2013-05-15T14:37:24Z</time>
      </trkpt>
      <trkpt lat="59.9453513" lon="17.82487">
        <ele>22.7283</ele>
        <time>2013-05-15T14:37:25Z</time>
      </trkpt>
      <trkpt lat="59.9452996" lon="17.8248181">
        <ele>22.7283</ele>
        <time>2013-05-15T14:37:26Z</time>
      </trkpt>
      <trkpt lat="59.9452486" lon="17.8247663">
        <ele>23.209</ele>
        <time>2013-05-15T14:37:27Z</time>
      </trkpt>
      <trkpt lat="59.9451987" lon="17.8247137">
        <ele>23.209</ele>
        <time>2013-05-15T14:37:28Z</time>
      </trkpt>
      <trkpt lat="59.9451495" lon="17.8246623">
        <ele>23.209</ele>
        <time>2013-05-15T14:37:29Z</time>
      </trkpt>
      <trkpt lat="59.9451003" lon="17.8246111">
        <ele>23.209</ele>
        <time>2013-05-15T14:37:30Z</time>
      </trkpt>
      <trkpt lat="59.9450519" lon="17.82456">
        <ele>23.6896</ele>
        <time>2013-05-15T14:37:31Z</time>
      </trkpt>
      <trkpt lat="59.9450039" lon="17.8245095">
        <ele>23.6896</ele>
        <time>2013-05-15T14:37:32Z</time>
      </trkpt>
      <trkpt lat="59.9449562" lon="17.8244593">
        <ele>23.6896</ele>
        <time>2013-05-15T14:37:33Z</time>
      </trkpt>
      <trkpt lat="59.9449084" lon="17.8244091">
        <ele>23.209</ele>
        <time>2013-05-15T14:37:34Z</time>
      </trkpt>
      <trkpt lat="59.9448617" lon="17.8243591">
        <ele>23.209</ele>
        <time>2013-05-15T14:37:35Z</time>
      </trkpt>
      <trkpt lat="59.9448153" lon="17.8243079">
        <ele>23.209</ele>
        <time>2013-05-15T14:37:36Z</time>
      </trkpt>
      <trkpt lat="59.944768" lon="17.8242567">
        <ele>23.209</ele>
        <time>2013-05-15T14:37:37Z</time>
      </trkpt>
      <trkpt lat="59.9447198" lon="17.8242028">
        <ele>23.209</ele>
        <time>2013-05-15T14:37:38Z</time>
      </trkpt>
      <trkpt lat="59.9446709" lon="17.8241468">
        <ele>23.209</ele>
        <time>2013-05-15T14:37:39Z</time>
      </trkpt>
      <trkpt lat="59.944621" lon="17.8240934">
        <ele>23.209</ele>
        <time>2013-05-15T14:37:40Z</time>
      </trkpt>
      <trkpt lat="59.9445717" lon="17.8240406">
        <ele>22.7283</ele>
        <time>2013-05-15T14:37:41Z</time>
      </trkpt>
      <trkpt lat="59.9445236" lon="17.8239857">
        <ele>22.7283</ele>
        <time>2013-05-15T14:37:42Z</time>
      </trkpt>
      <trkpt lat="59.9444759" lon="17.8239324">
        <ele>22.7283</ele>
        <time>2013-05-15T14:37:43Z</time>
      </trkpt>
      <trkpt lat="59.9444288" lon="17.8238783">
        <ele>22.2476</ele>
        <time>2013-05-15T14:37:44Z</time>
      </trkpt>
      <trkpt lat="59.9443815" lon="17.823823">
        <ele>22.2476</ele>
        <time>2013-05-15T14:37:45Z</time>
      </trkpt>
      <trkpt lat="59.9443335" lon="17.8237677">
        <ele>22.2476</ele>
        <time>2013-05-15T14:37:46Z</time>
      </trkpt>
      <trkpt lat="59.9442859" lon="17.8237105">
        <ele>21.767</ele>
        <time>2013-05-15T14:37:47Z</time>
      </trkpt>
      <trkpt lat="59.944239" lon="17.8236537">
        <ele>21.2864</ele>
        <time>2013-05-15T14:37:48Z</time>
      </trkpt>
      <trkpt lat="59.9441921" lon="17.8235973">
        <ele>21.2864</ele>
        <time>2013-05-15T14:37:49Z</time>
      </trkpt>
      <trkpt lat="59.9441445" lon="17.8235393">
        <ele>20.8057</ele>
        <time>2013-05-15T14:37:50Z</time>
      </trkpt>
      <trkpt lat="59.9440961" lon="17.8234792">
        <ele>20.325</ele>
        <time>2013-05-15T14:37:51Z</time>
      </trkpt>
      <trkpt lat="59.9440455" lon="17.8234188">
        <ele>20.8057</ele>
        <time>2013-05-15T14:37:52Z</time>
      </trkpt>
      <trkpt lat="59.9439931" lon="17.8233564">
        <ele>20.8057</ele>
        <time>2013-05-15T14:37:53Z</time>
      </trkpt>
      <trkpt lat="59.9439387" lon="17.8232922">
        <ele>20.8057</ele>
        <time>2013-05-15T14:37:54Z</time>
      </trkpt>
      <trkpt lat="59.9438834" lon="17.8232249">
        <ele>20.325</ele>
        <time>2013-05-15T14:37:55Z</time>
      </trkpt>
      <trkpt lat="59.9438274" lon="17.8231541">
        <ele>20.325</ele>
        <time>2013-05-15T14:37:56Z</time>
      </trkpt>
      <trkpt lat="59.9437702" lon="17.8230814">
        <ele>19.8444</ele>
        <time>2013-05-15T14:37:57Z</time>
      </trkpt>
      <trkpt lat="59.9437105" lon="17.8230083">
        <ele>19.8444</ele>
        <time>2013-05-15T14:37:58Z</time>
      </trkpt>
      <trkpt lat="59.9436501" lon="17.8229336">
        <ele>19.8444</ele>
        <time>2013-05-15T14:37:59Z</time>
      </trkpt>
      <trkpt lat="59.9435896" lon="17.8228579">
        <ele>19.3638</ele>
        <time>2013-05-15T14:38:00Z</time>
      </trkpt>
      <trkpt lat="59.943528" lon="17.8227808">
        <ele>19.3638</ele>
        <time>2013-05-15T14:38:01Z</time>
      </trkpt>
      <trkpt lat="59.9434654" lon="17.8227041">
        <ele>18.8831</ele>
        <time>2013-05-15T14:38:02Z</time>
      </trkpt>
      <trkpt lat="59.943403" lon="17.8226276">
        <ele>18.8831</ele>
        <time>2013-05-15T14:38:03Z</time>
      </trkpt>
      <trkpt lat="59.9433405" lon="17.8225502">
        <ele>18.4023</ele>
        <time>2013-05-15T14:38:04Z</time>
      </trkpt>
      <trkpt lat="59.9432778" lon="17.8224716">
        <ele>17.9218</ele>
        <time>2013-05-15T14:38:05Z</time>
      </trkpt>
      <trkpt lat="59.9432144" lon="17.8223917">
        <ele>17.9218</ele>
        <time>2013-05-15T14:38:06Z</time>
      </trkpt>
      <trkpt lat="59.9431492" lon="17.8223101">
        <ele>17.4412</ele>
        <time>2013-05-15T14:38:07Z</time>
      </trkpt>
      <trkpt lat="59.943083" lon="17.8222283">
        <ele>16.9604</ele>
        <time>2013-05-15T14:38:08Z</time>
      </trkpt>
      <trkpt lat="59.9430158" lon="17.8221456">
        <ele>16.9604</ele>
        <time>2013-05-15T14:38:09Z</time>
      </trkpt>
      <trkpt lat="59.9429484" lon="17.8220614">
        <ele>16.4797</ele>
        <time>2013-05-15T14:38:10Z</time>
      </trkpt>
      <trkpt lat="59.94288" lon="17.8219763">
        <ele>16.4797</ele>
        <time>2013-05-15T14:38:11Z</time>
      </trkpt>
      <trkpt lat="59.9428112" lon="17.8218913">
        <ele>15.999</ele>
        <time>2013-05-15T14:38:12Z</time>
      </trkpt>
      <trkpt lat="59.9427422" lon="17.8218058">
        <ele>15.999</ele>
        <time>2013-05-15T14:38:13Z</time>
      </trkpt>
      <trkpt lat="59.9426731" lon="17.82172">
        <ele>15.5184</ele>
        <time>2013-05-15T14:38:14Z</time>
      </trkpt>
      <trkpt lat="59.9426048" lon="17.8216355">
        <ele>15.5184</ele>
        <time>2013-05-15T14:38:15Z</time>
      </trkpt>
      <trkpt lat="59.9425374" lon="17.8215511">
        <ele>15.5184</ele>
        <time>2013-05-15T14:38:16Z</time>
      </trkpt>
      <trkpt lat="59.9424717" lon="17.8214672">
        <ele>15.5184</ele>
        <time>2013-05-15T14:38:17Z</time>
      </trkpt>
      <trkpt lat="59.9424054" lon="17.8213843">
        <ele>15.5184</ele>
        <time>2013-05-15T14:38:18Z</time>
      </trkpt>
      <trkpt lat="59.9423371" lon="17.8213018">
        <ele>15.5184</ele>
        <time>2013-05-15T14:38:19Z</time>
      </trkpt>
      <trkpt lat="59.9422698" lon="17.8212192">
        <ele>15.0377</ele>
        <time>2013-05-15T14:38:20Z</time>
      </trkpt>
      <trkpt lat="59.9422024" lon="17.8211362">
        <ele>15.0377</ele>
        <time>2013-05-15T14:38:21Z</time>
      </trkpt>
      <trkpt lat="59.9421351" lon="17.8210527">
        <ele>15.0377</ele>
        <time>2013-05-15T14:38:22Z</time>
      </trkpt>
      <trkpt lat="59.9420676" lon="17.8209699">
        <ele>15.0377</ele>
        <time>2013-05-15T14:38:23Z</time>
      </trkpt>
      <trkpt lat="59.9420004" lon="17.8208878">
        <ele>14.557</ele>
        <time>2013-05-15T14:38:24Z</time>
      </trkpt>
      <trkpt lat="59.9419326" lon="17.8208053">
        <ele>14.557</ele>
        <time>2013-05-15T14:38:25Z</time>
      </trkpt>
      <trkpt lat="59.9418652" lon="17.8207228">
        <ele>14.557</ele>
        <time>2013-05-15T14:38:26Z</time>
      </trkpt>
      <trkpt lat="59.9417985" lon="17.8206404">
        <ele>14.557</ele>
        <time>2013-05-15T14:38:27Z</time>
      </trkpt>
      <trkpt lat="59.9417327" lon="17.8205587">
        <ele>14.557</ele>
        <time>2013-05-15T14:38:28Z</time>
      </trkpt>
      <trkpt lat="59.9416667" lon="17.8204778">
        <ele>14.557</ele>
        <time>2013-05-15T14:38:29Z</time>
      </trkpt>
      <trkpt lat="59.941601" lon="17.820397">
        <ele>14.557</ele>
        <time>2013-05-15T14:38:30Z</time>
      </trkpt>
      <trkpt lat="59.9415357" lon="17.8203161">
        <ele>14.557</ele>
        <time>2013-05-15T14:38:31Z</time>
      </trkpt>
      <trkpt lat="59.9414731" lon="17.8202383">
        <ele>15.0377</ele>
        <time>2013-05-15T14:38:32Z</time>
      </trkpt>
      <trkpt lat="59.9414114" lon="17.8201613">
        <ele>15.5184</ele>
        <time>2013-05-15T14:38:33Z</time>
      </trkpt>
      <trkpt lat="59.9413508" lon="17.8200867">
        <ele>15.999</ele>
        <time>2013-05-15T14:38:34Z</time>
      </trkpt>
      <trkpt lat="59.9412922" lon="17.820015">
        <ele>16.4797</ele>
        <time>2013-05-15T14:38:35Z</time>
      </trkpt>
      <trkpt lat="59.9412358" lon="17.8199449">
        <ele>16.9604</ele>
        <time>2013-05-15T14:38:36Z</time>
      </trkpt>
      <trkpt lat="59.9411815" lon="17.8198768">
        <ele>16.9604</ele>
        <time>2013-05-15T14:38:37Z</time>
      </trkpt>
      <trkpt lat="59.9411281" lon="17.8198101">
        <ele>17.4412</ele>
        <time>2013-05-15T14:38:38Z</time>
      </trkpt>
      <trkpt lat="59.9410754" lon="17.8197447">
        <ele>17.9218</ele>
        <time>2013-05-15T14:38:39Z</time>
      </trkpt>
      <trkpt lat="59.9410246" lon="17.8196829">
        <ele>18.4023</ele>
        <time>2013-05-15T14:38:40Z</time>
      </trkpt>
      <trkpt lat="59.9409763" lon="17.8196242">
        <ele>18.4023</ele>
        <time>2013-05-15T14:38:41Z</time>
      </trkpt>
      <trkpt lat="59.9409307" lon="17.8195683">
        <ele>18.8831</ele>
        <time>2013-05-15T14:38:42Z</time>
      </trkpt>
      <trkpt lat="59.9408889" lon="17.8195164">
        <ele>19.3638</ele>
        <time>2013-05-15T14:38:43Z</time>
      </trkpt>
      <trkpt lat="59.9408484" lon="17.8194664">
        <ele>19.3638</ele>
        <time>2013-05-15T14:38:44Z</time>
      </trkpt>
      <trkpt lat="59.9408086" lon="17.8194186">
        <ele>19.8444</ele>
        <time>2013-05-15T14:38:45Z</time>
      </trkpt>
      <trkpt lat="59.9407713" lon="17.8193724">
        <ele>20.325</ele>
        <time>2013-05-15T14:38:46Z</time>
      </trkpt>
      <trkpt lat="59.9407328" lon="17.819326">
        <ele>20.325</ele>
        <time>2013-05-15T14:38:47Z</time>
      </trkpt>
      <trkpt lat="59.9406924" lon="17.8192759">
        <ele>20.325</ele>
        <time>2013-05-15T14:38:48Z</time>
      </trkpt>
      <trkpt lat="59.9406494" lon="17.8192221">
        <ele>20.8057</ele>
        <time>2013-05-15T14:38:49Z</time>
      </trkpt>
      <trkpt lat="59.9406028" lon="17.8191645">
        <ele>20.8057</ele>
        <time>2013-05-15T14:38:50Z</time>
      </trkpt>
      <trkpt lat="59.9405555" lon="17.8191034">
        <ele>20.8057</ele>
        <time>2013-05-15T14:38:51Z</time>
      </trkpt>
      <trkpt lat="59.9405096" lon="17.8190461">
        <ele>21.2864</ele>
        <time>2013-05-15T14:38:52Z</time>
      </trkpt>
      <trkpt lat="59.9404648" lon="17.8189941">
        <ele>21.2864</ele>
        <time>2013-05-15T14:38:53Z</time>
      </trkpt>
      <trkpt lat="59.9404183" lon="17.8189368">
        <ele>21.2864</ele>
        <time>2013-05-15T14:38:54Z</time>
      </trkpt>
      <trkpt lat="59.9403707" lon="17.8188754">
        <ele>21.2864</ele>
        <time>2013-05-15T14:38:55Z</time>
      </trkpt>
      <trkpt lat="59.9403247" lon="17.8188174">
        <ele>21.767</ele>
        <time>2013-05-15T14:38:56Z</time>
      </trkpt>
      <trkpt lat="59.9402809" lon="17.818762">
        <ele>21.767</ele>
        <time>2013-05-15T14:38:57Z</time>
      </trkpt>
      <trkpt lat="59.9402345" lon="17.8187052">
        <ele>22.2476</ele>
        <time>2013-05-15T14:38:58Z</time>
      </trkpt>
      <trkpt lat="59.9401856" lon="17.8186492">
        <ele>22.2476</ele>
        <time>2013-05-15T14:38:59Z</time>
      </trkpt>
      <trkpt lat="59.9401326" lon="17.8186042">
        <ele>22.7283</ele>
        <time>2013-05-15T14:39:00Z</time>
      </trkpt>
      <trkpt lat="59.9400739" lon="17.8185788">
        <ele>22.7283</ele>
        <time>2013-05-15T14:39:01Z</time>
      </trkpt>
      <trkpt lat="59.9400133" lon="17.8185583">
        <ele>22.7283</ele>
        <time>2013-05-15T14:39:02Z</time>
      </trkpt>
      <trkpt lat="59.9399522" lon="17.8185276">
        <ele>23.209</ele>
        <time>2013-05-15T14:39:03Z</time>
      </trkpt>
      <trkpt lat="59.9398911" lon="17.8184921">
        <ele>23.6896</ele>
        <time>2013-05-15T14:39:04Z</time>
      </trkpt>
      <trkpt lat="59.9398293" lon="17.818455">
        <ele>23.6896</ele>
        <time>2013-05-15T14:39:05Z</time>
      </trkpt>
      <trkpt lat="59.9397673" lon="17.8184248">
        <ele>23.6896</ele>
        <time>2013-05-15T14:39:06Z</time>
      </trkpt>
      <trkpt lat="59.939706" lon="17.8184088">
        <ele>23.6896</ele>
        <time>2013-05-15T14:39:07Z</time>
      </trkpt>
      <trkpt lat="59.9396445" lon="17.8184047">
        <ele>23.6896</ele>
        <time>2013-05-15T14:39:08Z</time>
      </trkpt>
      <trkpt lat="59.9395829" lon="17.8184076">
        <ele>23.6896</ele>
        <time>2013-05-15T14:39:09Z</time>
      </trkpt>
      <trkpt lat="59.939521" lon="17.818416">
        <ele>23.6896</ele>
        <time>2013-05-15T14:39:10Z</time>
      </trkpt>
      <trkpt lat="59.9394599" lon="17.8184317">
        <ele>23.6896</ele>
        <time>2013-05-15T14:39:11Z</time>
      </trkpt>
      <trkpt lat="59.9393993" lon="17.8184561">
        <ele>23.6896</ele>
        <time>2013-05-15T14:39:12Z</time>
      </trkpt>
      <trkpt lat="59.9393394" lon="17.8184907">
        <ele>23.209</ele>
        <time>2013-05-15T14:39:13Z</time>
      </trkpt>
      <trkpt lat="59.9392804" lon="17.8185352">
        <ele>23.209</ele>
        <time>2013-05-15T14:39:14Z</time>
      </trkpt>
      <trkpt lat="59.9392224" lon="17.8185892">
        <ele>22.7283</ele>
        <time>2013-05-15T14:39:15Z</time>
      </trkpt>
      <trkpt lat="59.9391659" lon="17.8186507">
        <ele>22.7283</ele>
        <time>2013-05-15T14:39:16Z</time>
      </trkpt>
      <trkpt lat="59.9391104" lon="17.8187179">
        <ele>22.7283</ele>
        <time>2013-05-15T14:39:17Z</time>
      </trkpt>
      <trkpt lat="59.9390574" lon="17.8187942">
        <ele>22.7283</ele>
        <time>2013-05-15T14:39:18Z</time>
      </trkpt>
      <trkpt lat="59.9390068" lon="17.8188814">
        <ele>22.7283</ele>
        <time>2013-05-15T14:39:19Z</time>
      </trkpt>
      <trkpt lat="59.9389585" lon="17.818972">
        <ele>22.7283</ele>
        <time>2013-05-15T14:39:20Z</time>
      </trkpt>
      <trkpt lat="59.9389123" lon="17.8190656">
        <ele>22.7283</ele>
        <time>2013-05-15T14:39:21Z</time>
      </trkpt>
      <trkpt lat="59.9388676" lon="17.8191605">
        <ele>22.7283</ele>
        <time>2013-05-15T14:39:22Z</time>
      </trkpt>
      <trkpt lat="59.9388235" lon="17.8192527">
        <ele>22.7283</ele>
        <time>2013-05-15T14:39:23Z</time>
      </trkpt>
      <trkpt lat="59.9387798" lon="17.8193423">
        <ele>22.7283</ele>
        <time>2013-05-15T14:39:24Z</time>
      </trkpt>
      <trkpt lat="59.9387373" lon="17.8194312">
        <ele>22.7283</ele>
        <time>2013-05-15T14:39:25Z</time>
      </trkpt>
      <trkpt lat="59.9386958" lon="17.8195204">
        <ele>22.2476</ele>
        <time>2013-05-15T14:39:26Z</time>
      </trkpt>
      <trkpt lat="59.938655" lon="17.8196091">
        <ele>22.2476</ele>
        <time>2013-05-15T14:39:27Z</time>
      </trkpt>
      <trkpt lat="59.9386153" lon="17.8196957">
        <ele>22.2476</ele>
        <time>2013-05-15T14:39:28Z</time>
      </trkpt>
      <trkpt lat="59.9385764" lon="17.8197822">
        <ele>21.767</ele>
        <time>2013-05-15T14:39:29Z</time>
      </trkpt>
      <trkpt lat="59.9385373" lon="17.819871">
        <ele>21.2864</ele>
        <time>2013-05-15T14:39:30Z</time>
      </trkpt>
      <trkpt lat="59.938497" lon="17.8199608">
        <ele>20.8057</ele>
        <time>2013-05-15T14:39:31Z</time>
      </trkpt>
      <trkpt lat="59.9384551" lon="17.8200509">
        <ele>20.8057</ele>
        <time>2013-05-15T14:39:32Z</time>
      </trkpt>
      <trkpt lat="59.9384127" lon="17.8201426">
        <ele>20.325</ele>
        <time>2013-05-15T14:39:33Z</time>
      </trkpt>
      <trkpt lat="59.9383707" lon="17.8202368">
        <ele>19.8444</ele>
        <time>2013-05-15T14:39:34Z</time>
      </trkpt>
      <trkpt lat="59.9383282" lon="17.8203328">
        <ele>19.8444</ele>
        <time>2013-05-15T14:39:35Z</time>
      </trkpt>
      <trkpt lat="59.9382842" lon="17.8204291">
        <ele>19.3638</ele>
        <time>2013-05-15T14:39:36Z</time>
      </trkpt>
      <trkpt lat="59.9382394" lon="17.8205264">
        <ele>19.3638</ele>
        <time>2013-05-15T14:39:37Z</time>
      </trkpt>
      <trkpt lat="59.9381944" lon="17.8206258">
        <ele>18.8831</ele>
        <time>2013-05-15T14:39:38Z</time>
      </trkpt>
      <trkpt lat="59.9381493" lon="17.8207269">
        <ele>18.4023</ele>
        <time>2013-05-15T14:39:39Z</time>
      </trkpt>
      <trkpt lat="59.9381035" lon="17.8208281">
        <ele>18.4023</ele>
        <time>2013-05-15T14:39:40Z</time>
      </trkpt>
      <trkpt lat="59.9380572" lon="17.8209305">
        <ele>17.9218</ele>
        <time>2013-05-15T14:39:41Z</time>
      </trkpt>
      <trkpt lat="59.9380102" lon="17.8210351">
        <ele>17.4412</ele>
        <time>2013-05-15T14:39:42Z</time>
      </trkpt>
      <trkpt lat="59.9379626" lon="17.8211414">
        <ele>17.4412</ele>
        <time>2013-05-15T14:39:43Z</time>
      </trkpt>
      <trkpt lat="59.9379139" lon="17.8212495">
        <ele>16.9604</ele>
        <time>2013-05-15T14:39:44Z</time>
      </trkpt>
      <trkpt lat="59.9378646" lon="17.8213598">
        <ele>16.9604</ele>
        <time>2013-05-15T14:39:45Z</time>
      </trkpt>
      <trkpt lat="59.937814" lon="17.8214694">
        <ele>16.4797</ele>
        <time>2013-05-15T14:39:46Z</time>
      </trkpt>
      <trkpt lat="59.9377626" lon="17.821579">
        <ele>16.4797</ele>
        <time>2013-05-15T14:39:47Z</time>
      </trkpt>
      <trkpt lat="59.9377132" lon="17.8216905">
        <ele>16.4797</ele>
        <time>2013-05-15T14:39:48Z</time>
      </trkpt>
      <trkpt lat="59.9376683" lon="17.821806">
        <ele>16.4797</ele>
        <time>2013-05-15T14:39:49Z</time>
      </trkpt>
      <trkpt lat="59.9376273" lon="17.8219257">
        <ele>16.4797</ele>
        <time>2013-05-15T14:39:50Z</time>
      </trkpt>
      <trkpt lat="59.9375889" lon="17.8220519">
        <ele>15.999</ele>
        <time>2013-05-15T14:39:51Z</time>
      </trkpt>
      <trkpt lat="59.9375521" lon="17.8221806">
        <ele>15.999</ele>
        <time>2013-05-15T14:39:52Z</time>
      </trkpt>
      <trkpt lat="59.9375154" lon="17.8223096">
        <ele>15.999</ele>
        <time>2013-05-15T14:39:53Z</time>
      </trkpt>
      <trkpt lat="59.9374788" lon="17.822438">
        <ele>15.999</ele>
        <time>2013-05-15T14:39:54Z</time>
      </trkpt>
      <trkpt lat="59.9374438" lon="17.8225665">
        <ele>15.999</ele>
        <time>2013-05-15T14:39:55Z</time>
      </trkpt>
      <trkpt lat="59.9374081" lon="17.8226944">
        <ele>15.999</ele>
        <time>2013-05-15T14:39:56Z</time>
      </trkpt>
      <trkpt lat="59.9373692" lon="17.8228177">
        <ele>15.999</ele>
        <time>2013-05-15T14:39:57Z</time>
      </trkpt>
      <trkpt lat="59.9373273" lon="17.8229355">
        <ele>15.999</ele>
        <time>2013-05-15T14:39:58Z</time>
      </trkpt>
      <trkpt lat="59.9372833" lon="17.8230502">
        <ele>15.999</ele>
        <time>2013-05-15T14:39:59Z</time>
      </trkpt>
      <trkpt lat="59.9372387" lon="17.823166">
        <ele>15.999</ele>
        <time>2013-05-15T14:40:00Z</time>
      </trkpt>
      <trkpt lat="59.9371943" lon="17.8232828">
        <ele>15.999</ele>
        <time>2013-05-15T14:40:01Z</time>
      </trkpt>
      <trkpt lat="59.9371499" lon="17.8234002">
        <ele>15.999</ele>
        <time>2013-05-15T14:40:02Z</time>
      </trkpt>
      <trkpt lat="59.9371051" lon="17.8235169">
        <ele>15.5184</ele>
        <time>2013-05-15T14:40:03Z</time>
      </trkpt>
      <trkpt lat="59.9370605" lon="17.8236329">
        <ele>15.5184</ele>
        <time>2013-05-15T14:40:04Z</time>
      </trkpt>
      <trkpt lat="59.9370166" lon="17.823748">
        <ele>15.5184</ele>
        <time>2013-05-15T14:40:05Z</time>
      </trkpt>
      <trkpt lat="59.9369717" lon="17.8238608">
        <ele>15.5184</ele>
        <time>2013-05-15T14:40:06Z</time>
      </trkpt>
      <trkpt lat="59.9369254" lon="17.8239728">
        <ele>15.5184</ele>
        <time>2013-05-15T14:40:07Z</time>
      </trkpt>
      <trkpt lat="59.9368776" lon="17.8240864">
        <ele>15.5184</ele>
        <time>2013-05-15T14:40:08Z</time>
      </trkpt>
      <trkpt lat="59.936827" lon="17.8241986">
        <ele>15.0377</ele>
        <time>2013-05-15T14:40:09Z</time>
      </trkpt>
      <trkpt lat="59.9367722" lon="17.8243028">
        <ele>15.0377</ele>
        <time>2013-05-15T14:40:10Z</time>
      </trkpt>
      <trkpt lat="59.9367135" lon="17.8243982">
        <ele>15.0377</ele>
        <time>2013-05-15T14:40:11Z</time>
      </trkpt>
      <trkpt lat="59.9366512" lon="17.8244835">
        <ele>14.557</ele>
        <time>2013-05-15T14:40:12Z</time>
      </trkpt>
      <trkpt lat="59.9365873" lon="17.8245618">
        <ele>14.0764</ele>
        <time>2013-05-15T14:40:13Z</time>
      </trkpt>
      <trkpt lat="59.9365215" lon="17.8246299">
        <ele>14.0764</ele>
        <time>2013-05-15T14:40:14Z</time>
      </trkpt>
      <trkpt lat="59.9364529" lon="17.8246843">
        <ele>14.0764</ele>
        <time>2013-05-15T14:40:15Z</time>
      </trkpt>
      <trkpt lat="59.9363817" lon="17.8247279">
        <ele>13.5958</ele>
        <time>2013-05-15T14:40:16Z</time>
      </trkpt>
      <trkpt lat="59.9363095" lon="17.8247643">
        <ele>13.5958</ele>
        <time>2013-05-15T14:40:17Z</time>
      </trkpt>
      <trkpt lat="59.9362308" lon="17.8247962">
        <ele>13.1151</ele>
        <time>2013-05-15T14:40:18Z</time>
      </trkpt>
      <trkpt lat="59.9361546" lon="17.824827">
        <ele>13.1151</ele>
        <time>2013-05-15T14:40:19Z</time>
      </trkpt>
      <trkpt lat="59.9360785" lon="17.8248591">
        <ele>12.6344</ele>
        <time>2013-05-15T14:40:20Z</time>
      </trkpt>
      <trkpt lat="59.9360029" lon="17.8248898">
        <ele>12.6344</ele>
        <time>2013-05-15T14:40:21Z</time>
      </trkpt>
      <trkpt lat="59.9359283" lon="17.8249191">
        <ele>12.6344</ele>
        <time>2013-05-15T14:40:22Z</time>
      </trkpt>
      <trkpt lat="59.9358543" lon="17.8249483">
        <ele>12.6344</ele>
        <time>2013-05-15T14:40:23Z</time>
      </trkpt>
      <trkpt lat="59.9357815" lon="17.8249798">
        <ele>12.1538</ele>
        <time>2013-05-15T14:40:24Z</time>
      </trkpt>
      <trkpt lat="59.9357093" lon="17.8250109">
        <ele>12.1538</ele>
        <time>2013-05-15T14:40:25Z</time>
      </trkpt>
      <trkpt lat="59.9356377" lon="17.8250403">
        <ele>12.1538</ele>
        <time>2013-05-15T14:40:26Z</time>
      </trkpt>
      <trkpt lat="59.935567" lon="17.8250699">
        <ele>12.1538</ele>
        <time>2013-05-15T14:40:27Z</time>
      </trkpt>
      <trkpt lat="59.9354966" lon="17.8251009">
        <ele>12.1538</ele>
        <time>2013-05-15T14:40:28Z</time>
      </trkpt>
      <trkpt lat="59.9354263" lon="17.8251322">
        <ele>12.1538</ele>
        <time>2013-05-15T14:40:29Z</time>
      </trkpt>
      <trkpt lat="59.9353565" lon="17.8251641">
        <ele>12.1538</ele>
        <time>2013-05-15T14:40:30Z</time>
      </trkpt>
      <trkpt lat="59.9352866" lon="17.8251947">
        <ele>12.1538</ele>
        <time>2013-05-15T14:40:31Z</time>
      </trkpt>
      <trkpt lat="59.9352164" lon="17.8252243">
        <ele>12.1538</ele>
        <time>2013-05-15T14:40:32Z</time>
      </trkpt>
      <trkpt lat="59.9351465" lon="17.8252543">
        <ele>12.1538</ele>
        <time>2013-05-15T14:40:33Z</time>
      </trkpt>
      <trkpt lat="59.9350768" lon="17.8252844">
        <ele>12.1538</ele>
        <time>2013-05-15T14:40:34Z</time>
      </trkpt>
      <trkpt lat="59.9350073" lon="17.8253159">
        <ele>12.1538</ele>
        <time>2013-05-15T14:40:35Z</time>
      </trkpt>
      <trkpt lat="59.9349378" lon="17.8253466">
        <ele>12.1538</ele>
        <time>2013-05-15T14:40:36Z</time>
      </trkpt>
      <trkpt lat="59.934869" lon="17.825377">
        <ele>12.1538</ele>
        <time>2013-05-15T14:40:37Z</time>
      </trkpt>
      <trkpt lat="59.9348009" lon="17.8254065">
        <ele>12.1538</ele>
        <time>2013-05-15T14:40:38Z</time>
      </trkpt>
      <trkpt lat="59.9347338" lon="17.8254358">
        <ele>12.1538</ele>
        <time>2013-05-15T14:40:39Z</time>
      </trkpt>
      <trkpt lat="59.9346681" lon="17.8254647">
        <ele>12.1538</ele>
        <time>2013-05-15T14:40:40Z</time>
      </trkpt>
      <trkpt lat="59.9346037" lon="17.8254927">
        <ele>12.1538</ele>
        <time>2013-05-15T14:40:41Z</time>
      </trkpt>
      <trkpt lat="59.9345404" lon="17.8255227">
        <ele>12.6344</ele>
        <time>2013-05-15T14:40:42Z</time>
      </trkpt>
      <trkpt lat="59.9344775" lon="17.8255536">
        <ele>12.6344</ele>
        <time>2013-05-15T14:40:43Z</time>
      </trkpt>
      <trkpt lat="59.9344152" lon="17.8255832">
        <ele>12.6344</ele>
        <time>2013-05-15T14:40:44Z</time>
      </trkpt>
      <trkpt lat="59.9343533" lon="17.8256102">
        <ele>12.6344</ele>
        <time>2013-05-15T14:40:45Z</time>
      </trkpt>
      <trkpt lat="59.9342914" lon="17.8256365">
        <ele>12.6344</ele>
        <time>2013-05-15T14:40:46Z</time>
      </trkpt>
      <trkpt lat="59.9342297" lon="17.8256627">
        <ele>13.1151</ele>
        <time>2013-05-15T14:40:47Z</time>
      </trkpt>
      <trkpt lat="59.9341681" lon="17.8256882">
        <ele>13.1151</ele>
        <time>2013-05-15T14:40:48Z</time>
      </trkpt>
      <trkpt lat="59.9341068" lon="17.8257142">
        <ele>13.1151</ele>
        <time>2013-05-15T14:40:49Z</time>
      </trkpt>
      <trkpt lat="59.9340457" lon="17.8257402">
        <ele>13.1151</ele>
        <time>2013-05-15T14:40:50Z</time>
      </trkpt>
      <trkpt lat="59.9339855" lon="17.8257665">
        <ele>13.5958</ele>
        <time>2013-05-15T14:40:51Z</time>
      </trkpt>
      <trkpt lat="59.933926" lon="17.8257932">
        <ele>13.5958</ele>
        <time>2013-05-15T14:40:52Z</time>
      </trkpt>
      <trkpt lat="59.9338665" lon="17.8258208">
        <ele>13.5958</ele>
        <time>2013-05-15T14:40:53Z</time>
      </trkpt>
      <trkpt lat="59.9338068" lon="17.8258486">
        <ele>13.5958</ele>
        <time>2013-05-15T14:40:54Z</time>
      </trkpt>
      <trkpt lat="59.933747" lon="17.8258776">
        <ele>13.5958</ele>
        <time>2013-05-15T14:40:55Z</time>
      </trkpt>
      <trkpt lat="59.933687" lon="17.8259091">
        <ele>14.0764</ele>
        <time>2013-05-15T14:40:56Z</time>
      </trkpt>
      <trkpt lat="59.9336279" lon="17.8259433">
        <ele>14.0764</ele>
        <time>2013-05-15T14:40:57Z</time>
      </trkpt>
      <trkpt lat="59.9335699" lon="17.8259801">
        <ele>14.0764</ele>
        <time>2013-05-15T14:40:58Z</time>
      </trkpt>
      <trkpt lat="59.9335119" lon="17.8260185">
        <ele>14.0764</ele>
        <time>2013-05-15T14:40:59Z</time>
      </trkpt>
      <trkpt lat="59.9334543" lon="17.8260604">
        <ele>14.0764</ele>
        <time>2013-05-15T14:41:00Z</time>
      </trkpt>
      <trkpt lat="59.9333967" lon="17.8261064">
        <ele>14.0764</ele>
        <time>2013-05-15T14:41:01Z</time>
      </trkpt>
      <trkpt lat="59.9333393" lon="17.8261557">
        <ele>13.5958</ele>
        <time>2013-05-15T14:41:02Z</time>
      </trkpt>
      <trkpt lat="59.9332826" lon="17.8262099">
        <ele>13.5958</ele>
        <time>2013-05-15T14:41:03Z</time>
      </trkpt>
      <trkpt lat="59.9332257" lon="17.8262682">
        <ele>13.5958</ele>
        <time>2013-05-15T14:41:04Z</time>
      </trkpt>
      <trkpt lat="59.9331689" lon="17.8263313">
        <ele>13.5958</ele>
        <time>2013-05-15T14:41:05Z</time>
      </trkpt>
      <trkpt lat="59.933113" lon="17.8264012">
        <ele>13.5958</ele>
        <time>2013-05-15T14:41:06Z</time>
      </trkpt>
      <trkpt lat="59.9330575" lon="17.826478">
        <ele>13.1151</ele>
        <time>2013-05-15T14:41:07Z</time>
      </trkpt>
      <trkpt lat="59.933002" lon="17.8265592">
        <ele>13.1151</ele>
        <time>2013-05-15T14:41:08Z</time>
      </trkpt>
      <trkpt lat="59.9329471" lon="17.8266466">
        <ele>13.1151</ele>
        <time>2013-05-15T14:41:09Z</time>
      </trkpt>
      <trkpt lat="59.9328925" lon="17.8267385">
        <ele>13.1151</ele>
        <time>2013-05-15T14:41:10Z</time>
      </trkpt>
      <trkpt lat="59.9328374" lon="17.8268305">
        <ele>12.6344</ele>
        <time>2013-05-15T14:41:11Z</time>
      </trkpt>
      <trkpt lat="59.932782" lon="17.8269258">
        <ele>12.6344</ele>
        <time>2013-05-15T14:41:12Z</time>
      </trkpt>
      <trkpt lat="59.932727" lon="17.8270232">
        <ele>12.6344</ele>
        <time>2013-05-15T14:41:13Z</time>
      </trkpt>
      <trkpt lat="59.9326721" lon="17.8271192">
        <ele>12.6344</ele>
        <time>2013-05-15T14:41:14Z</time>
      </trkpt>
      <trkpt lat="59.9326167" lon="17.8272133">
        <ele>12.6344</ele>
        <time>2013-05-15T14:41:15Z</time>
      </trkpt>
      <trkpt lat="59.9325618" lon="17.8273077">
        <ele>12.6344</ele>
        <time>2013-05-15T14:41:16Z</time>
      </trkpt>
      <trkpt lat="59.9325078" lon="17.8274037">
        <ele>12.6344</ele>
        <time>2013-05-15T14:41:17Z</time>
      </trkpt>
      <trkpt lat="59.9324539" lon="17.8274994">
        <ele>12.6344</ele>
        <time>2013-05-15T14:41:18Z</time>
      </trkpt>
      <trkpt lat="59.9324006" lon="17.8275932">
        <ele>12.6344</ele>
        <time>2013-05-15T14:41:19Z</time>
      </trkpt>
      <trkpt lat="59.9323493" lon="17.8276869">
        <ele>12.6344</ele>
        <time>2013-05-15T14:41:20Z</time>
      </trkpt>
      <trkpt lat="59.9323006" lon="17.8277832">
        <ele>12.6344</ele>
        <time>2013-05-15T14:41:21Z</time>
      </trkpt>
      <trkpt lat="59.9322534" lon="17.82788">
        <ele>12.6344</ele>
        <time>2013-05-15T14:41:22Z</time>
      </trkpt>
      <trkpt lat="59.9322062" lon="17.8279751">
        <ele>12.6344</ele>
        <time>2013-05-15T14:41:23Z</time>
      </trkpt>
      <trkpt lat="59.9321596" lon="17.8280708">
        <ele>12.6344</ele>
        <time>2013-05-15T14:41:24Z</time>
      </trkpt>
      <trkpt lat="59.9321152" lon="17.8281695">
        <ele>12.6344</ele>
        <time>2013-05-15T14:41:25Z</time>
      </trkpt>
      <trkpt lat="59.9320733" lon="17.82827">
        <ele>12.6344</ele>
        <time>2013-05-15T14:41:26Z</time>
      </trkpt>
      <trkpt lat="59.932034" lon="17.8283703">
        <ele>12.6344</ele>
        <time>2013-05-15T14:41:27Z</time>
      </trkpt>
      <trkpt lat="59.9319972" lon="17.8284712">
        <ele>12.6344</ele>
        <time>2013-05-15T14:41:28Z</time>
      </trkpt>
      <trkpt lat="59.9319638" lon="17.8285739">
        <ele>12.6344</ele>
        <time>2013-05-15T14:41:29Z</time>
      </trkpt>
      <trkpt lat="59.9319328" lon="17.8286788">
        <ele>13.1151</ele>
        <time>2013-05-15T14:41:30Z</time>
      </trkpt>
      <trkpt lat="59.9319045" lon="17.8287821">
        <ele>13.1151</ele>
        <time>2013-05-15T14:41:31Z</time>
      </trkpt>
      <trkpt lat="59.9318775" lon="17.8288873">
        <ele>13.5958</ele>
        <time>2013-05-15T14:41:32Z</time>
      </trkpt>
      <trkpt lat="59.9318503" lon="17.8289954">
        <ele>13.5958</ele>
        <time>2013-05-15T14:41:33Z</time>
      </trkpt>
      <trkpt lat="59.9318229" lon="17.8291068">
        <ele>14.0764</ele>
        <time>2013-05-15T14:41:34Z</time>
      </trkpt>
      <trkpt lat="59.9317954" lon="17.8292186">
        <ele>14.557</ele>
        <time>2013-05-15T14:41:35Z</time>
      </trkpt>
      <trkpt lat="59.9317679" lon="17.8293306">
        <ele>15.0377</ele>
        <time>2013-05-15T14:41:36Z</time>
      </trkpt>
      <trkpt lat="59.93174" lon="17.8294417">
        <ele>15.999</ele>
        <time>2013-05-15T14:41:37Z</time>
      </trkpt>
      <trkpt lat="59.9317125" lon="17.8295521">
        <ele>16.4797</ele>
        <time>2013-05-15T14:41:38Z</time>
      </trkpt>
      <trkpt lat="59.9316848" lon="17.8296638">
        <ele>16.4797</ele>
        <time>2013-05-15T14:41:39Z</time>
      </trkpt>
      <trkpt lat="59.9316567" lon="17.8297739">
        <ele>17.4412</ele>
        <time>2013-05-15T14:41:40Z</time>
      </trkpt>
      <trkpt lat="59.9316282" lon="17.8298807">
        <ele>17.9218</ele>
        <time>2013-05-15T14:41:41Z</time>
      </trkpt>
      <trkpt lat="59.9315999" lon="17.829987">
        <ele>18.4023</ele>
        <time>2013-05-15T14:41:42Z</time>
      </trkpt>
      <trkpt lat="59.9315739" lon="17.8300909">
        <ele>18.8831</ele>
        <time>2013-05-15T14:41:43Z</time>
      </trkpt>
      <trkpt lat="59.9315474" lon="17.8301926">
        <ele>18.8831</ele>
        <time>2013-05-15T14:41:44Z</time>
      </trkpt>
      <trkpt lat="59.9315198" lon="17.8302919">
        <ele>19.3638</ele>
        <time>2013-05-15T14:41:45Z</time>
      </trkpt>
      <trkpt lat="59.9314913" lon="17.8303876">
        <ele>19.3638</ele>
        <time>2013-05-15T14:41:46Z</time>
      </trkpt>
      <trkpt lat="59.9314597" lon="17.8304809">
        <ele>19.3638</ele>
        <time>2013-05-15T14:41:47Z</time>
      </trkpt>
      <trkpt lat="59.9314262" lon="17.8305746">
        <ele>19.3638</ele>
        <time>2013-05-15T14:41:48Z</time>
      </trkpt>
      <trkpt lat="59.9313911" lon="17.830669">
        <ele>19.3638</ele>
        <time>2013-05-15T14:41:49Z</time>
      </trkpt>
      <trkpt lat="59.9313537" lon="17.8307644">
        <ele>19.3638</ele>
        <time>2013-05-15T14:41:50Z</time>
      </trkpt>
      <trkpt lat="59.9313139" lon="17.8308638">
        <ele>19.3638</ele>
        <time>2013-05-15T14:41:51Z</time>
      </trkpt>
      <trkpt lat="59.9312714" lon="17.8309664">
        <ele>19.3638</ele>
        <time>2013-05-15T14:41:52Z</time>
      </trkpt>
      <trkpt lat="59.9312267" lon="17.8310681">
        <ele>19.8444</ele>
        <time>2013-05-15T14:41:53Z</time>
      </trkpt>
      <trkpt lat="59.9311793" lon="17.8311657">
        <ele>19.8444</ele>
        <time>2013-05-15T14:41:54Z</time>
      </trkpt>
      <trkpt lat="59.9311293" lon="17.8312585">
        <ele>19.3638</ele>
        <time>2013-05-15T14:41:55Z</time>
      </trkpt>
      <trkpt lat="59.9310785" lon="17.8313504">
        <ele>19.3638</ele>
        <time>2013-05-15T14:41:56Z</time>
      </trkpt>
      <trkpt lat="59.9310274" lon="17.8314418">
        <ele>19.3638</ele>
        <time>2013-05-15T14:41:57Z</time>
      </trkpt>
      <trkpt lat="59.9309752" lon="17.8315299">
        <ele>19.8444</ele>
        <time>2013-05-15T14:41:58Z</time>
      </trkpt>
      <trkpt lat="59.9309224" lon="17.8316163">
        <ele>19.8444</ele>
        <time>2013-05-15T14:41:59Z</time>
      </trkpt>
      <trkpt lat="59.9308692" lon="17.8316999">
        <ele>19.8444</ele>
        <time>2013-05-15T14:42:00Z</time>
      </trkpt>
      <trkpt lat="59.9308162" lon="17.8317828">
        <ele>20.325</ele>
        <time>2013-05-15T14:42:01Z</time>
      </trkpt>
      <trkpt lat="59.930763" lon="17.8318642">
        <ele>20.325</ele>
        <time>2013-05-15T14:42:02Z</time>
      </trkpt>
      <trkpt lat="59.9307088" lon="17.8319448">
        <ele>20.325</ele>
        <time>2013-05-15T14:42:03Z</time>
      </trkpt>
      <trkpt lat="59.9306551" lon="17.8320253">
        <ele>19.8444</ele>
        <time>2013-05-15T14:42:04Z</time>
      </trkpt>
      <trkpt lat="59.9306029" lon="17.8321061">
        <ele>19.8444</ele>
        <time>2013-05-15T14:42:05Z</time>
      </trkpt>
      <trkpt lat="59.9305502" lon="17.8321808">
        <ele>19.8444</ele>
        <time>2013-05-15T14:42:06Z</time>
      </trkpt>
      <trkpt lat="59.9304965" lon="17.832253">
        <ele>19.3638</ele>
        <time>2013-05-15T14:42:07Z</time>
      </trkpt>
      <trkpt lat="59.9304437" lon="17.8323265">
        <ele>19.3638</ele>
        <time>2013-05-15T14:42:08Z</time>
      </trkpt>
      <trkpt lat="59.9303917" lon="17.8324038">
        <ele>18.8831</ele>
        <time>2013-05-15T14:42:09Z</time>
      </trkpt>
      <trkpt lat="59.9303391" lon="17.832482">
        <ele>18.4023</ele>
        <time>2013-05-15T14:42:10Z</time>
      </trkpt>
      <trkpt lat="59.9302866" lon="17.8325607">
        <ele>17.9218</ele>
        <time>2013-05-15T14:42:11Z</time>
      </trkpt>
      <trkpt lat="59.9302338" lon="17.8326399">
        <ele>17.4412</ele>
        <time>2013-05-15T14:42:12Z</time>
      </trkpt>
      <trkpt lat="59.930181" lon="17.8327188">
        <ele>17.4412</ele>
        <time>2013-05-15T14:42:13Z</time>
      </trkpt>
      <trkpt lat="59.9301286" lon="17.8327976">
        <ele>16.9604</ele>
        <time>2013-05-15T14:42:14Z</time>
      </trkpt>
      <trkpt lat="59.9300769" lon="17.8328774">
        <ele>16.9604</ele>
        <time>2013-05-15T14:42:15Z</time>
      </trkpt>
      <trkpt lat="59.930026" lon="17.8329581">
        <ele>16.4797</ele>
        <time>2013-05-15T14:42:16Z</time>
      </trkpt>
      <trkpt lat="59.9299758" lon="17.8330391">
        <ele>16.4797</ele>
        <time>2013-05-15T14:42:17Z</time>
      </trkpt>
      <trkpt lat="59.9299264" lon="17.8331209">
        <ele>15.999</ele>
        <time>2013-05-15T14:42:18Z</time>
      </trkpt>
      <trkpt lat="59.9298769" lon="17.8332027">
        <ele>15.999</ele>
        <time>2013-05-15T14:42:19Z</time>
      </trkpt>
      <trkpt lat="59.9298268" lon="17.8332813">
        <ele>15.999</ele>
        <time>2013-05-15T14:42:20Z</time>
      </trkpt>
      <trkpt lat="59.9297779" lon="17.8333582">
        <ele>15.999</ele>
        <time>2013-05-15T14:42:21Z</time>
      </trkpt>
      <trkpt lat="59.9297313" lon="17.8334373">
        <ele>15.999</ele>
        <time>2013-05-15T14:42:22Z</time>
      </trkpt>
      <trkpt lat="59.9296858" lon="17.8335175">
        <ele>15.999</ele>
        <time>2013-05-15T14:42:23Z</time>
      </trkpt>
      <trkpt lat="59.9296397" lon="17.8335946">
        <ele>15.999</ele>
        <time>2013-05-15T14:42:24Z</time>
      </trkpt>
      <trkpt lat="59.9295933" lon="17.8336669">
        <ele>16.4797</ele>
        <time>2013-05-15T14:42:25Z</time>
      </trkpt>
      <trkpt lat="59.9295481" lon="17.8337394">
        <ele>16.4797</ele>
        <time>2013-05-15T14:42:26Z</time>
      </trkpt>
      <trkpt lat="59.9295045" lon="17.8338127">
        <ele>16.4797</ele>
        <time>2013-05-15T14:42:27Z</time>
      </trkpt>
      <trkpt lat="59.9294605" lon="17.8338833">
        <ele>16.4797</ele>
        <time>2013-05-15T14:42:28Z</time>
      </trkpt>
      <trkpt lat="59.9294143" lon="17.8339481">
        <ele>15.999</ele>
        <time>2013-05-15T14:42:29Z</time>
      </trkpt>
      <trkpt lat="59.9293677" lon="17.8340125">
        <ele>15.999</ele>
        <time>2013-05-15T14:42:30Z</time>
      </trkpt>
      <trkpt lat="59.9293207" lon="17.8340786">
        <ele>15.999</ele>
        <time>2013-05-15T14:42:31Z</time>
      </trkpt>
      <trkpt lat="59.9292734" lon="17.8341474">
        <ele>15.5184</ele>
        <time>2013-05-15T14:42:32Z</time>
      </trkpt>
      <trkpt lat="59.9292254" lon="17.834219">
        <ele>15.5184</ele>
        <time>2013-05-15T14:42:33Z</time>
      </trkpt>
      <trkpt lat="59.929176" lon="17.8342884">
        <ele>15.0377</ele>
        <time>2013-05-15T14:42:34Z</time>
      </trkpt>
      <trkpt lat="59.9291248" lon="17.8343582">
        <ele>15.0377</ele>
        <time>2013-05-15T14:42:35Z</time>
      </trkpt>
      <trkpt lat="59.9290714" lon="17.8344245">
        <ele>15.0377</ele>
        <time>2013-05-15T14:42:36Z</time>
      </trkpt>
      <trkpt lat="59.9290168" lon="17.8344884">
        <ele>15.0377</ele>
        <time>2013-05-15T14:42:37Z</time>
      </trkpt>
      <trkpt lat="59.9289615" lon="17.8345531">
        <ele>15.0377</ele>
        <time>2013-05-15T14:42:38Z</time>
      </trkpt>
      <trkpt lat="59.9289056" lon="17.8346195">
        <ele>15.0377</ele>
        <time>2013-05-15T14:42:39Z</time>
      </trkpt>
      <trkpt lat="59.92885" lon="17.8346892">
        <ele>15.0377</ele>
        <time>2013-05-15T14:42:40Z</time>
      </trkpt>
      <trkpt lat="59.9287931" lon="17.8347609">
        <ele>14.557</ele>
        <time>2013-05-15T14:42:41Z</time>
      </trkpt>
      <trkpt lat="59.928736" lon="17.8348361">
        <ele>14.557</ele>
        <time>2013-05-15T14:42:42Z</time>
      </trkpt>
      <trkpt lat="59.9286792" lon="17.8349147">
        <ele>14.0764</ele>
        <time>2013-05-15T14:42:43Z</time>
      </trkpt>
      <trkpt lat="59.9286223" lon="17.8349949">
        <ele>14.0764</ele>
        <time>2013-05-15T14:42:44Z</time>
      </trkpt>
      <trkpt lat="59.9285653" lon="17.8350753">
        <ele>13.5958</ele>
        <time>2013-05-15T14:42:45Z</time>
      </trkpt>
      <trkpt lat="59.9285091" lon="17.8351577">
        <ele>13.5958</ele>
        <time>2013-05-15T14:42:46Z</time>
      </trkpt>
      <trkpt lat="59.9284534" lon="17.8352421">
        <ele>13.5958</ele>
        <time>2013-05-15T14:42:47Z</time>
      </trkpt>
      <trkpt lat="59.9283976" lon="17.8353274">
        <ele>13.5958</ele>
        <time>2013-05-15T14:42:48Z</time>
      </trkpt>
      <trkpt lat="59.9283415" lon="17.8354108">
        <ele>13.5958</ele>
        <time>2013-05-15T14:42:49Z</time>
      </trkpt>
      <trkpt lat="59.9282851" lon="17.8354923">
        <ele>13.1151</ele>
        <time>2013-05-15T14:42:50Z</time>
      </trkpt>
      <trkpt lat="59.9282287" lon="17.8355712">
        <ele>13.1151</ele>
        <time>2013-05-15T14:42:51Z</time>
      </trkpt>
      <trkpt lat="59.9281727" lon="17.8356508">
        <ele>13.1151</ele>
        <time>2013-05-15T14:42:52Z</time>
      </trkpt>
      <trkpt lat="59.928117" lon="17.8357311">
        <ele>13.1151</ele>
        <time>2013-05-15T14:42:53Z</time>
      </trkpt>
      <trkpt lat="59.9280608" lon="17.8358114">
        <ele>13.1151</ele>
        <time>2013-05-15T14:42:54Z</time>
      </trkpt>
      <trkpt lat="59.9280054" lon="17.8358934">
        <ele>13.1151</ele>
        <time>2013-05-15T14:42:55Z</time>
      </trkpt>
      <trkpt lat="59.9279509" lon="17.835979">
        <ele>13.1151</ele>
        <time>2013-05-15T14:42:56Z</time>
      </trkpt>
      <trkpt lat="59.9278965" lon="17.8360668">
        <ele>13.1151</ele>
        <time>2013-05-15T14:42:57Z</time>
      </trkpt>
      <trkpt lat="59.9278426" lon="17.8361558">
        <ele>13.1151</ele>
        <time>2013-05-15T14:42:58Z</time>
      </trkpt>
      <trkpt lat="59.9277893" lon="17.8362465">
        <ele>13.1151</ele>
        <time>2013-05-15T14:42:59Z</time>
      </trkpt>
      <trkpt lat="59.9277368" lon="17.8363339">
        <ele>13.1151</ele>
        <time>2013-05-15T14:43:00Z</time>
      </trkpt>
      <trkpt lat="59.9276836" lon="17.8364144">
        <ele>12.6344</ele>
        <time>2013-05-15T14:43:01Z</time>
      </trkpt>
      <trkpt lat="59.9276311" lon="17.836497">
        <ele>12.1538</ele>
        <time>2013-05-15T14:43:02Z</time>
      </trkpt>
      <trkpt lat="59.9275811" lon="17.8365811">
        <ele>12.1538</ele>
        <time>2013-05-15T14:43:03Z</time>
      </trkpt>
      <trkpt lat="59.9275299" lon="17.8366612">
        <ele>12.1538</ele>
        <time>2013-05-15T14:43:04Z</time>
      </trkpt>
      <trkpt lat="59.9274763" lon="17.836734">
        <ele>12.1538</ele>
        <time>2013-05-15T14:43:05Z</time>
      </trkpt>
      <trkpt lat="59.9274205" lon="17.8368055">
        <ele>12.1538</ele>
        <time>2013-05-15T14:43:06Z</time>
      </trkpt>
      <trkpt lat="59.9273641" lon="17.8368775">
        <ele>11.6732</ele>
        <time>2013-05-15T14:43:07Z</time>
      </trkpt>
      <trkpt lat="59.9273071" lon="17.8369494">
        <ele>11.6732</ele>
        <time>2013-05-15T14:43:08Z</time>
      </trkpt>
      <trkpt lat="59.9272496" lon="17.8370296">
        <ele>11.6732</ele>
        <time>2013-05-15T14:43:09Z</time>
      </trkpt>
      <trkpt lat="59.9271925" lon="17.8371141">
        <ele>12.1538</ele>
        <time>2013-05-15T14:43:10Z</time>
      </trkpt>
      <trkpt lat="59.9271375" lon="17.8371924">
        <ele>12.1538</ele>
        <time>2013-05-15T14:43:11Z</time>
      </trkpt>
      <trkpt lat="59.9270734" lon="17.8372733">
        <ele>12.6344</ele>
        <time>2013-05-15T14:43:12Z</time>
      </trkpt>
      <trkpt lat="59.9270173" lon="17.8373459">
        <ele>12.6344</ele>
        <time>2013-05-15T14:43:13Z</time>
      </trkpt>
      <trkpt lat="59.9269583" lon="17.8374316">
        <ele>12.6344</ele>
        <time>2013-05-15T14:43:14Z</time>
      </trkpt>
      <trkpt lat="59.9268976" lon="17.8374996">
        <ele>12.6344</ele>
        <time>2013-05-15T14:43:15Z</time>
      </trkpt>
      <trkpt lat="59.9268323" lon="17.8375598">
        <ele>12.6344</ele>
        <time>2013-05-15T14:43:16Z</time>
      </trkpt>
      <trkpt lat="59.9267668" lon="17.8376167">
        <ele>13.1151</ele>
        <time>2013-05-15T14:43:17Z</time>
      </trkpt>
      <trkpt lat="59.926687" lon="17.837717">
        <ele>13.5958</ele>
        <time>2013-05-15T14:43:18Z</time>
      </trkpt>
      <trkpt lat="59.9266144" lon="17.8377595">
        <ele>13.1151</ele>
        <time>2013-05-15T14:43:19Z</time>
      </trkpt>
      <trkpt lat="59.9265557" lon="17.83782">
        <ele>12.6344</ele>
        <time>2013-05-15T14:43:20Z</time>
      </trkpt>
      <trkpt lat="59.9264844" lon="17.8378916">
        <ele>12.6344</ele>
        <time>2013-05-15T14:43:21Z</time>
      </trkpt>
      <trkpt lat="59.9264174" lon="17.8379897">
        <ele>12.1538</ele>
        <time>2013-05-15T14:43:22Z</time>
      </trkpt>
      <trkpt lat="59.9263574" lon="17.8381073">
        <ele>12.1538</ele>
        <time>2013-05-15T14:43:23Z</time>
      </trkpt>
      <trkpt lat="59.9263026" lon="17.8382408">
        <ele>11.6732</ele>
        <time>2013-05-15T14:43:24Z</time>
      </trkpt>
      <trkpt lat="59.9262431" lon="17.8383725">
        <ele>11.6732</ele>
        <time>2013-05-15T14:43:25Z</time>
      </trkpt>
      <trkpt lat="59.9261846" lon="17.838504">
        <ele>11.6732</ele>
        <time>2013-05-15T14:43:26Z</time>
      </trkpt>
      <trkpt lat="59.9261275" lon="17.8386335">
        <ele>11.6732</ele>
        <time>2013-05-15T14:43:27Z</time>
      </trkpt>
      <trkpt lat="59.9260709" lon="17.8387604">
        <ele>11.6732</ele>
        <time>2013-05-15T14:43:28Z</time>
      </trkpt>
      <trkpt lat="59.9260137" lon="17.8388823">
        <ele>11.1925</ele>
        <time>2013-05-15T14:43:29Z</time>
      </trkpt>
      <trkpt lat="59.925955" lon="17.8389987">
        <ele>11.1925</ele>
        <time>2013-05-15T14:43:30Z</time>
      </trkpt>
      <trkpt lat="59.9258927" lon="17.8391085">
        <ele>11.1925</ele>
        <time>2013-05-15T14:43:31Z</time>
      </trkpt>
      <trkpt lat="59.9258264" lon="17.8392058">
        <ele>11.1925</ele>
        <time>2013-05-15T14:43:32Z</time>
      </trkpt>
      <trkpt lat="59.9257539" lon="17.8392841">
        <ele>11.1925</ele>
        <time>2013-05-15T14:43:33Z</time>
      </trkpt>
      <trkpt lat="59.9256768" lon="17.839335">
        <ele>11.6732</ele>
        <time>2013-05-15T14:43:34Z</time>
      </trkpt>
      <trkpt lat="59.9255995" lon="17.8393596">
        <ele>12.1538</ele>
        <time>2013-05-15T14:43:35Z</time>
      </trkpt>
      <trkpt lat="59.9255239" lon="17.8393613">
        <ele>12.6344</ele>
        <time>2013-05-15T14:43:36Z</time>
      </trkpt>
      <trkpt lat="59.9254511" lon="17.839353">
        <ele>13.1151</ele>
        <time>2013-05-15T14:43:37Z</time>
      </trkpt>
      <trkpt lat="59.9253815" lon="17.8393437">
        <ele>13.5958</ele>
        <time>2013-05-15T14:43:38Z</time>
      </trkpt>
      <trkpt lat="59.9253151" lon="17.8393349">
        <ele>13.5958</ele>
        <time>2013-05-15T14:43:39Z</time>
      </trkpt>
      <trkpt lat="59.9252506" lon="17.839329">
        <ele>14.0764</ele>
        <time>2013-05-15T14:43:40Z</time>
      </trkpt>
      <trkpt lat="59.9251874" lon="17.8393272">
        <ele>14.0764</ele>
        <time>2013-05-15T14:43:41Z</time>
      </trkpt>
      <trkpt lat="59.9251247" lon="17.839326">
        <ele>14.557</ele>
        <time>2013-05-15T14:43:42Z</time>
      </trkpt>
      <trkpt lat="59.9250619" lon="17.8393254">
        <ele>14.557</ele>
        <time>2013-05-15T14:43:43Z</time>
      </trkpt>
      <trkpt lat="59.9249986" lon="17.8393271">
        <ele>14.557</ele>
        <time>2013-05-15T14:43:44Z</time>
      </trkpt>
      <trkpt lat="59.9249346" lon="17.8393309">
        <ele>14.557</ele>
        <time>2013-05-15T14:43:45Z</time>
      </trkpt>
      <trkpt lat="59.9248701" lon="17.8393365">
        <ele>14.557</ele>
        <time>2013-05-15T14:43:46Z</time>
      </trkpt>
      <trkpt lat="59.924804" lon="17.8393428">
        <ele>14.557</ele>
        <time>2013-05-15T14:43:47Z</time>
      </trkpt>
      <trkpt lat="59.9247366" lon="17.8393489">
        <ele>15.0377</ele>
        <time>2013-05-15T14:43:48Z</time>
      </trkpt>
      <trkpt lat="59.9246683" lon="17.8393551">
        <ele>15.0377</ele>
        <time>2013-05-15T14:43:49Z</time>
      </trkpt>
      <trkpt lat="59.9246" lon="17.8393645">
        <ele>15.0377</ele>
        <time>2013-05-15T14:43:50Z</time>
      </trkpt>
      <trkpt lat="59.9245315" lon="17.8393782">
        <ele>15.0377</ele>
        <time>2013-05-15T14:43:51Z</time>
      </trkpt>
      <trkpt lat="59.9244621" lon="17.8393913">
        <ele>15.0377</ele>
        <time>2013-05-15T14:43:52Z</time>
      </trkpt>
      <trkpt lat="59.924392" lon="17.8394043">
        <ele>15.0377</ele>
        <time>2013-05-15T14:43:53Z</time>
      </trkpt>
      <trkpt lat="59.9243216" lon="17.8394214">
        <ele>15.0377</ele>
        <time>2013-05-15T14:43:54Z</time>
      </trkpt>
      <trkpt lat="59.9242523" lon="17.8394421">
        <ele>15.0377</ele>
        <time>2013-05-15T14:43:55Z</time>
      </trkpt>
      <trkpt lat="59.9241834" lon="17.8394642">
        <ele>15.5184</ele>
        <time>2013-05-15T14:43:56Z</time>
      </trkpt>
      <trkpt lat="59.9241156" lon="17.8394872">
        <ele>15.5184</ele>
        <time>2013-05-15T14:43:57Z</time>
      </trkpt>
      <trkpt lat="59.9240491" lon="17.8395111">
        <ele>15.5184</ele>
        <time>2013-05-15T14:43:58Z</time>
      </trkpt>
      <trkpt lat="59.923983" lon="17.8395359">
        <ele>15.5184</ele>
        <time>2013-05-15T14:43:59Z</time>
      </trkpt>
      <trkpt lat="59.9239172" lon="17.8395601">
        <ele>15.0377</ele>
        <time>2013-05-15T14:44:00Z</time>
      </trkpt>
      <trkpt lat="59.9238517" lon="17.8395839">
        <ele>15.5184</ele>
        <time>2013-05-15T14:44:01Z</time>
      </trkpt>
      <trkpt lat="59.9237862" lon="17.83961">
        <ele>15.5184</ele>
        <time>2013-05-15T14:44:02Z</time>
      </trkpt>
      <trkpt lat="59.9237214" lon="17.8396391">
        <ele>15.5184</ele>
        <time>2013-05-15T14:44:03Z</time>
      </trkpt>
      <trkpt lat="59.9236566" lon="17.8396696">
        <ele>15.5184</ele>
        <time>2013-05-15T14:44:04Z</time>
      </trkpt>
      <trkpt lat="59.9235909" lon="17.8397014">
        <ele>15.5184</ele>
        <time>2013-05-15T14:44:05Z</time>
      </trkpt>
      <trkpt lat="59.9235249" lon="17.8397342">
        <ele>15.5184</ele>
        <time>2013-05-15T14:44:06Z</time>
      </trkpt>
      <trkpt lat="59.9234587" lon="17.8397676">
        <ele>15.5184</ele>
        <time>2013-05-15T14:44:07Z</time>
      </trkpt>
      <trkpt lat="59.9233924" lon="17.8398009">
        <ele>15.5184</ele>
        <time>2013-05-15T14:44:08Z</time>
      </trkpt>
      <trkpt lat="59.9233267" lon="17.8398368">
        <ele>15.999</ele>
        <time>2013-05-15T14:44:09Z</time>
      </trkpt>
      <trkpt lat="59.9232608" lon="17.8398777">
        <ele>15.999</ele>
        <time>2013-05-15T14:44:10Z</time>
      </trkpt>
      <trkpt lat="59.9231944" lon="17.8399171">
        <ele>15.999</ele>
        <time>2013-05-15T14:44:11Z</time>
      </trkpt>
      <trkpt lat="59.9231277" lon="17.8399524">
        <ele>15.999</ele>
        <time>2013-05-15T14:44:12Z</time>
      </trkpt>
      <trkpt lat="59.9230619" lon="17.8399882">
        <ele>15.999</ele>
        <time>2013-05-15T14:44:13Z</time>
      </trkpt>
      <trkpt lat="59.9229965" lon="17.8400254">
        <ele>15.999</ele>
        <time>2013-05-15T14:44:14Z</time>
      </trkpt>
      <trkpt lat="59.9229309" lon="17.8400625">
        <ele>16.4797</ele>
        <time>2013-05-15T14:44:15Z</time>
      </trkpt>
      <trkpt lat="59.9228652" lon="17.8400968">
        <ele>16.4797</ele>
        <time>2013-05-15T14:44:16Z</time>
      </trkpt>
      <trkpt lat="59.9228002" lon="17.8401321">
        <ele>16.4797</ele>
        <time>2013-05-15T14:44:17Z</time>
      </trkpt>
      <trkpt lat="59.9227352" lon="17.8401682">
        <ele>16.4797</ele>
        <time>2013-05-15T14:44:18Z</time>
      </trkpt>
      <trkpt lat="59.9226709" lon="17.8402031">
        <ele>16.4797</ele>
        <time>2013-05-15T14:44:19Z</time>
      </trkpt>
      <trkpt lat="59.9226069" lon="17.8402381">
        <ele>16.9604</ele>
        <time>2013-05-15T14:44:20Z</time>
      </trkpt>
      <trkpt lat="59.9225429" lon="17.8402718">
        <ele>16.9604</ele>
        <time>2013-05-15T14:44:21Z</time>
      </trkpt>
      <trkpt lat="59.9224783" lon="17.8403041">
        <ele>16.9604</ele>
        <time>2013-05-15T14:44:22Z</time>
      </trkpt>
      <trkpt lat="59.9224128" lon="17.8403361">
        <ele>16.9604</ele>
        <time>2013-05-15T14:44:23Z</time>
      </trkpt>
      <trkpt lat="59.9223464" lon="17.8403652">
        <ele>16.9604</ele>
        <time>2013-05-15T14:44:24Z</time>
      </trkpt>
      <trkpt lat="59.9222792" lon="17.8403902">
        <ele>16.9604</ele>
        <time>2013-05-15T14:44:25Z</time>
      </trkpt>
      <trkpt lat="59.9222122" lon="17.8404144">
        <ele>16.9604</ele>
        <time>2013-05-15T14:44:26Z</time>
      </trkpt>
      <trkpt lat="59.9221454" lon="17.8404377">
        <ele>17.4412</ele>
        <time>2013-05-15T14:44:27Z</time>
      </trkpt>
      <trkpt lat="59.9220779" lon="17.8404589">
        <ele>17.4412</ele>
        <time>2013-05-15T14:44:28Z</time>
      </trkpt>
      <trkpt lat="59.9220099" lon="17.8404781">
        <ele>17.4412</ele>
        <time>2013-05-15T14:44:29Z</time>
      </trkpt>
      <trkpt lat="59.9219414" lon="17.8404971">
        <ele>17.4412</ele>
        <time>2013-05-15T14:44:30Z</time>
      </trkpt>
      <trkpt lat="59.9218721" lon="17.8405163">
        <ele>17.4412</ele>
        <time>2013-05-15T14:44:31Z</time>
      </trkpt>
      <trkpt lat="59.921802" lon="17.840535">
        <ele>17.4412</ele>
        <time>2013-05-15T14:44:32Z</time>
      </trkpt>
      <trkpt lat="59.9217312" lon="17.8405541">
        <ele>17.4412</ele>
        <time>2013-05-15T14:44:33Z</time>
      </trkpt>
      <trkpt lat="59.9216602" lon="17.8405725">
        <ele>17.4412</ele>
        <time>2013-05-15T14:44:34Z</time>
      </trkpt>
      <trkpt lat="59.9215889" lon="17.8405906">
        <ele>17.4412</ele>
        <time>2013-05-15T14:44:35Z</time>
      </trkpt>
      <trkpt lat="59.9215177" lon="17.8406085">
        <ele>17.4412</ele>
        <time>2013-05-15T14:44:36Z</time>
      </trkpt>
      <trkpt lat="59.9214464" lon="17.8406242">
        <ele>17.4412</ele>
        <time>2013-05-15T14:44:37Z</time>
      </trkpt>
      <trkpt lat="59.9213748" lon="17.8406368">
        <ele>17.4412</ele>
        <time>2013-05-15T14:44:38Z</time>
      </trkpt>
      <trkpt lat="59.9213028" lon="17.8406485">
        <ele>17.4412</ele>
        <time>2013-05-15T14:44:39Z</time>
      </trkpt>
      <trkpt lat="59.9212312" lon="17.8406594">
        <ele>17.4412</ele>
        <time>2013-05-15T14:44:40Z</time>
      </trkpt>
      <trkpt lat="59.9211604" lon="17.8406657">
        <ele>17.4412</ele>
        <time>2013-05-15T14:44:41Z</time>
      </trkpt>
      <trkpt lat="59.9210905" lon="17.8406682">
        <ele>17.4412</ele>
        <time>2013-05-15T14:44:42Z</time>
      </trkpt>
      <trkpt lat="59.921022" lon="17.8406714">
        <ele>17.4412</ele>
        <time>2013-05-15T14:44:43Z</time>
      </trkpt>
      <trkpt lat="59.9209548" lon="17.8406756">
        <ele>17.4412</ele>
        <time>2013-05-15T14:44:44Z</time>
      </trkpt>
      <trkpt lat="59.9208895" lon="17.8406784">
        <ele>17.9218</ele>
        <time>2013-05-15T14:44:45Z</time>
      </trkpt>
      <trkpt lat="59.9208251" lon="17.8406803">
        <ele>17.9218</ele>
        <time>2013-05-15T14:44:46Z</time>
      </trkpt>
      <trkpt lat="59.920761" lon="17.8406838">
        <ele>17.9218</ele>
        <time>2013-05-15T14:44:47Z</time>
      </trkpt>
      <trkpt lat="59.9206978" lon="17.8406875">
        <ele>17.9218</ele>
        <time>2013-05-15T14:44:48Z</time>
      </trkpt>
      <trkpt lat="59.9206361" lon="17.8406914">
        <ele>18.4023</ele>
        <time>2013-05-15T14:44:49Z</time>
      </trkpt>
      <trkpt lat="59.9205766" lon="17.8406958">
        <ele>18.4023</ele>
        <time>2013-05-15T14:44:50Z</time>
      </trkpt>
      <trkpt lat="59.9205174" lon="17.8406993">
        <ele>18.4023</ele>
        <time>2013-05-15T14:44:51Z</time>
      </trkpt>
      <trkpt lat="59.920458" lon="17.8407028">
        <ele>18.4023</ele>
        <time>2013-05-15T14:44:52Z</time>
      </trkpt>
      <trkpt lat="59.920399" lon="17.840705">
        <ele>18.4023</ele>
        <time>2013-05-15T14:44:53Z</time>
      </trkpt>
      <trkpt lat="59.9203407" lon="17.8407045">
        <ele>18.8831</ele>
        <time>2013-05-15T14:44:54Z</time>
      </trkpt>
      <trkpt lat="59.9202819" lon="17.8407035">
        <ele>18.8831</ele>
        <time>2013-05-15T14:44:55Z</time>
      </trkpt>
      <trkpt lat="59.9202232" lon="17.8407004">
        <ele>18.4023</ele>
        <time>2013-05-15T14:44:56Z</time>
      </trkpt>
      <trkpt lat="59.9201653" lon="17.8406973">
        <ele>18.4023</ele>
        <time>2013-05-15T14:44:57Z</time>
      </trkpt>
      <trkpt lat="59.9201076" lon="17.8406961">
        <ele>17.9218</ele>
        <time>2013-05-15T14:44:58Z</time>
      </trkpt>
      <trkpt lat="59.9200495" lon="17.8406961">
        <ele>17.9218</ele>
        <time>2013-05-15T14:44:59Z</time>
      </trkpt>
      <trkpt lat="59.9199906" lon="17.8406981">
        <ele>17.4412</ele>
        <time>2013-05-15T14:45:00Z</time>
      </trkpt>
      <trkpt lat="59.9199289" lon="17.8407019">
        <ele>17.4412</ele>
        <time>2013-05-15T14:45:01Z</time>
      </trkpt>
      <trkpt lat="59.9198673" lon="17.8407066">
        <ele>17.4412</ele>
        <time>2013-05-15T14:45:02Z</time>
      </trkpt>
      <trkpt lat="59.9198055" lon="17.8407158">
        <ele>16.9604</ele>
        <time>2013-05-15T14:45:03Z</time>
      </trkpt>
      <trkpt lat="59.9197431" lon="17.8407307">
        <ele>16.9604</ele>
        <time>2013-05-15T14:45:04Z</time>
      </trkpt>
      <trkpt lat="59.9196788" lon="17.8407513">
        <ele>16.4797</ele>
        <time>2013-05-15T14:45:05Z</time>
      </trkpt>
      <trkpt lat="59.9196132" lon="17.8407796">
        <ele>16.4797</ele>
        <time>2013-05-15T14:45:06Z</time>
      </trkpt>
      <trkpt lat="59.9195468" lon="17.8408153">
        <ele>16.4797</ele>
        <time>2013-05-15T14:45:07Z</time>
      </trkpt>
      <trkpt lat="59.9194795" lon="17.8408557">
        <ele>16.4797</ele>
        <time>2013-05-15T14:45:08Z</time>
      </trkpt>
      <trkpt lat="59.9194111" lon="17.8408983">
        <ele>16.4797</ele>
        <time>2013-05-15T14:45:09Z</time>
      </trkpt>
      <trkpt lat="59.9193424" lon="17.8409413">
        <ele>15.999</ele>
        <time>2013-05-15T14:45:10Z</time>
      </trkpt>
      <trkpt lat="59.9192747" lon="17.8409858">
        <ele>16.4797</ele>
        <time>2013-05-15T14:45:11Z</time>
      </trkpt>
      <trkpt lat="59.9192078" lon="17.8410324">
        <ele>16.4797</ele>
        <time>2013-05-15T14:45:12Z</time>
      </trkpt>
      <trkpt lat="59.9191417" lon="17.841079">
        <ele>16.4797</ele>
        <time>2013-05-15T14:45:13Z</time>
      </trkpt>
      <trkpt lat="59.9190755" lon="17.8411241">
        <ele>16.4797</ele>
        <time>2013-05-15T14:45:14Z</time>
      </trkpt>
      <trkpt lat="59.9190096" lon="17.8411693">
        <ele>16.4797</ele>
        <time>2013-05-15T14:45:15Z</time>
      </trkpt>
      <trkpt lat="59.9189438" lon="17.8412151">
        <ele>16.4797</ele>
        <time>2013-05-15T14:45:16Z</time>
      </trkpt>
      <trkpt lat="59.918879" lon="17.8412614">
        <ele>16.4797</ele>
        <time>2013-05-15T14:45:17Z</time>
      </trkpt>
      <trkpt lat="59.9188151" lon="17.8413094">
        <ele>16.4797</ele>
        <time>2013-05-15T14:45:18Z</time>
      </trkpt>
      <trkpt lat="59.9187516" lon="17.8413586">
        <ele>16.4797</ele>
        <time>2013-05-15T14:45:19Z</time>
      </trkpt>
      <trkpt lat="59.9186884" lon="17.8414069">
        <ele>16.4797</ele>
        <time>2013-05-15T14:45:20Z</time>
      </trkpt>
      <trkpt lat="59.9186257" lon="17.8414549">
        <ele>16.4797</ele>
        <time>2013-05-15T14:45:21Z</time>
      </trkpt>
      <trkpt lat="59.9185641" lon="17.8415052">
        <ele>16.4797</ele>
        <time>2013-05-15T14:45:22Z</time>
      </trkpt>
      <trkpt lat="59.9185033" lon="17.8415593">
        <ele>16.4797</ele>
        <time>2013-05-15T14:45:23Z</time>
      </trkpt>
      <trkpt lat="59.918443" lon="17.841615">
        <ele>16.4797</ele>
        <time>2013-05-15T14:45:24Z</time>
      </trkpt>
      <trkpt lat="59.9183833" lon="17.8416692">
        <ele>16.4797</ele>
        <time>2013-05-15T14:45:25Z</time>
      </trkpt>
      <trkpt lat="59.9183248" lon="17.8417234">
        <ele>16.4797</ele>
        <time>2013-05-15T14:45:26Z</time>
      </trkpt>
      <trkpt lat="59.9182678" lon="17.8417787">
        <ele>16.4797</ele>
        <time>2013-05-15T14:45:27Z</time>
      </trkpt>
      <trkpt lat="59.9182118" lon="17.8418332">
        <ele>16.9604</ele>
        <time>2013-05-15T14:45:28Z</time>
      </trkpt>
      <trkpt lat="59.9181564" lon="17.8418883">
        <ele>16.9604</ele>
        <time>2013-05-15T14:45:29Z</time>
      </trkpt>
      <trkpt lat="59.9181024" lon="17.8419455">
        <ele>17.4412</ele>
        <time>2013-05-15T14:45:30Z</time>
      </trkpt>
      <trkpt lat="59.9180491" lon="17.8420007">
        <ele>17.4412</ele>
        <time>2013-05-15T14:45:31Z</time>
      </trkpt>
      <trkpt lat="59.9179963" lon="17.8420554">
        <ele>17.9218</ele>
        <time>2013-05-15T14:45:32Z</time>
      </trkpt>
      <trkpt lat="59.9179439" lon="17.8421081">
        <ele>17.9218</ele>
        <time>2013-05-15T14:45:33Z</time>
      </trkpt>
      <trkpt lat="59.917892" lon="17.8421617">
        <ele>18.4023</ele>
        <time>2013-05-15T14:45:34Z</time>
      </trkpt>
      <trkpt lat="59.9178408" lon="17.8422179">
        <ele>19.3638</ele>
        <time>2013-05-15T14:45:35Z</time>
      </trkpt>
      <trkpt lat="59.91779" lon="17.8422745">
        <ele>19.8444</ele>
        <time>2013-05-15T14:45:36Z</time>
      </trkpt>
      <trkpt lat="59.9177389" lon="17.842328">
        <ele>20.325</ele>
        <time>2013-05-15T14:45:37Z</time>
      </trkpt>
      <trkpt lat="59.9176884" lon="17.8423802">
        <ele>20.325</ele>
        <time>2013-05-15T14:45:38Z</time>
      </trkpt>
      <trkpt lat="59.9176372" lon="17.8424326">
        <ele>20.325</ele>
        <time>2013-05-15T14:45:39Z</time>
      </trkpt>
      <trkpt lat="59.9175856" lon="17.8424829">
        <ele>20.325</ele>
        <time>2013-05-15T14:45:40Z</time>
      </trkpt>
      <trkpt lat="59.9175318" lon="17.84253">
        <ele>20.325</ele>
        <time>2013-05-15T14:45:41Z</time>
      </trkpt>
      <trkpt lat="59.9174769" lon="17.8425764">
        <ele>20.325</ele>
        <time>2013-05-15T14:45:42Z</time>
      </trkpt>
      <trkpt lat="59.9174208" lon="17.8426254">
        <ele>19.8444</ele>
        <time>2013-05-15T14:45:43Z</time>
      </trkpt>
      <trkpt lat="59.9173642" lon="17.8426751">
        <ele>19.8444</ele>
        <time>2013-05-15T14:45:44Z</time>
      </trkpt>
      <trkpt lat="59.9173049" lon="17.8427215">
        <ele>19.8444</ele>
        <time>2013-05-15T14:45:45Z</time>
      </trkpt>
      <trkpt lat="59.9172448" lon="17.8427671">
        <ele>19.3638</ele>
        <time>2013-05-15T14:45:46Z</time>
      </trkpt>
      <trkpt lat="59.9171862" lon="17.8428196">
        <ele>19.3638</ele>
        <time>2013-05-15T14:45:47Z</time>
      </trkpt>
      <trkpt lat="59.9171283" lon="17.8428714">
        <ele>19.3638</ele>
        <time>2013-05-15T14:45:48Z</time>
      </trkpt>
      <trkpt lat="59.9170701" lon="17.8429199">
        <ele>19.3638</ele>
        <time>2013-05-15T14:45:49Z</time>
      </trkpt>
      <trkpt lat="59.9170119" lon="17.8429606">
        <ele>19.8444</ele>
        <time>2013-05-15T14:45:50Z</time>
      </trkpt>
      <trkpt lat="59.9169527" lon="17.8429874">
        <ele>19.8444</ele>
        <time>2013-05-15T14:45:51Z</time>
      </trkpt>
      <trkpt lat="59.9168925" lon="17.8429865">
        <ele>19.8444</ele>
        <time>2013-05-15T14:45:52Z</time>
      </trkpt>
      <trkpt lat="59.9168329" lon="17.8429514">
        <ele>19.3638</ele>
        <time>2013-05-15T14:45:53Z</time>
      </trkpt>
      <trkpt lat="59.9167775" lon="17.8428922">
        <ele>18.8831</ele>
        <time>2013-05-15T14:45:54Z</time>
      </trkpt>
      <trkpt lat="59.9167231" lon="17.8428154">
        <ele>18.4023</ele>
        <time>2013-05-15T14:45:55Z</time>
      </trkpt>
      <trkpt lat="59.9166693" lon="17.8427293">
        <ele>17.9218</ele>
        <time>2013-05-15T14:45:56Z</time>
      </trkpt>
      <trkpt lat="59.9166147" lon="17.8426403">
        <ele>17.4412</ele>
        <time>2013-05-15T14:45:57Z</time>
      </trkpt>
      <trkpt lat="59.9165578" lon="17.8425512">
        <ele>17.4412</ele>
        <time>2013-05-15T14:45:58Z</time>
      </trkpt>
      <trkpt lat="59.9165008" lon="17.842461">
        <ele>16.9604</ele>
        <time>2013-05-15T14:45:59Z</time>
      </trkpt>
      <trkpt lat="59.9164432" lon="17.8423671">
        <ele>16.4797</ele>
        <time>2013-05-15T14:46:00Z</time>
      </trkpt>
      <trkpt lat="59.9163843" lon="17.8422719">
        <ele>15.999</ele>
        <time>2013-05-15T14:46:01Z</time>
      </trkpt>
      <trkpt lat="59.9163245" lon="17.8421787">
        <ele>15.5184</ele>
        <time>2013-05-15T14:46:02Z</time>
      </trkpt>
      <trkpt lat="59.9162636" lon="17.8420829">
        <ele>15.5184</ele>
        <time>2013-05-15T14:46:03Z</time>
      </trkpt>
      <trkpt lat="59.9161987" lon="17.8419939">
        <ele>15.0377</ele>
        <time>2013-05-15T14:46:04Z</time>
      </trkpt>
      <trkpt lat="59.9161294" lon="17.8419198">
        <ele>14.557</ele>
        <time>2013-05-15T14:46:05Z</time>
      </trkpt>
      <trkpt lat="59.9160548" lon="17.8418642">
        <ele>14.557</ele>
        <time>2013-05-15T14:46:06Z</time>
      </trkpt>
      <trkpt lat="59.9159776" lon="17.8418268">
        <ele>14.0764</ele>
        <time>2013-05-15T14:46:07Z</time>
      </trkpt>
      <trkpt lat="59.9158997" lon="17.8418072">
        <ele>14.0764</ele>
        <time>2013-05-15T14:46:08Z</time>
      </trkpt>
      <trkpt lat="59.9158216" lon="17.8417975">
        <ele>13.5958</ele>
        <time>2013-05-15T14:46:09Z</time>
      </trkpt>
      <trkpt lat="59.9157435" lon="17.8417934">
        <ele>13.1151</ele>
        <time>2013-05-15T14:46:10Z</time>
      </trkpt>
      <trkpt lat="59.9156653" lon="17.841788">
        <ele>13.1151</ele>
        <time>2013-05-15T14:46:11Z</time>
      </trkpt>
      <trkpt lat="59.9155861" lon="17.8417818">
        <ele>12.6344</ele>
        <time>2013-05-15T14:46:12Z</time>
      </trkpt>
      <trkpt lat="59.9155068" lon="17.8417746">
        <ele>12.6344</ele>
        <time>2013-05-15T14:46:13Z</time>
      </trkpt>
      <trkpt lat="59.915427" lon="17.8417679">
        <ele>12.6344</ele>
        <time>2013-05-15T14:46:14Z</time>
      </trkpt>
      <trkpt lat="59.9153475" lon="17.8417623">
        <ele>12.1538</ele>
        <time>2013-05-15T14:46:15Z</time>
      </trkpt>
      <trkpt lat="59.9152678" lon="17.8417588">
        <ele>12.1538</ele>
        <time>2013-05-15T14:46:16Z</time>
      </trkpt>
      <trkpt lat="59.9151872" lon="17.8417611">
        <ele>11.6732</ele>
        <time>2013-05-15T14:46:17Z</time>
      </trkpt>
      <trkpt lat="59.9151067" lon="17.8417736">
        <ele>11.6732</ele>
        <time>2013-05-15T14:46:18Z</time>
      </trkpt>
      <trkpt lat="59.9150271" lon="17.841796">
        <ele>11.6732</ele>
        <time>2013-05-15T14:46:19Z</time>
      </trkpt>
      <trkpt lat="59.9149485" lon="17.8418265">
        <ele>11.1925</ele>
        <time>2013-05-15T14:46:20Z</time>
      </trkpt>
      <trkpt lat="59.914872" lon="17.8418643">
        <ele>11.1925</ele>
        <time>2013-05-15T14:46:21Z</time>
      </trkpt>
      <trkpt lat="59.9147966" lon="17.8419042">
        <ele>11.1925</ele>
        <time>2013-05-15T14:46:22Z</time>
      </trkpt>
      <trkpt lat="59.9147228" lon="17.8419498">
        <ele>11.1925</ele>
        <time>2013-05-15T14:46:23Z</time>
      </trkpt>
      <trkpt lat="59.9146516" lon="17.8420066">
        <ele>11.1925</ele>
        <time>2013-05-15T14:46:24Z</time>
      </trkpt>
      <trkpt lat="59.9145142" lon="17.842139">
        <ele>11.1925</ele>
        <time>2013-05-15T14:46:26Z</time>
      </trkpt>
      <trkpt lat="59.914448" lon="17.8422131">
        <ele>11.1925</ele>
        <time>2013-05-15T14:46:27Z</time>
      </trkpt>
      <trkpt lat="59.9143844" lon="17.8422938">
        <ele>11.1925</ele>
        <time>2013-05-15T14:46:28Z</time>
      </trkpt>
      <trkpt lat="59.9143209" lon="17.8423761">
        <ele>11.1925</ele>
        <time>2013-05-15T14:46:29Z</time>
      </trkpt>
      <trkpt lat="59.9142548" lon="17.8424538">
        <ele>11.1925</ele>
        <time>2013-05-15T14:46:30Z</time>
      </trkpt>
      <trkpt lat="59.9141868" lon="17.8425287">
        <ele>11.1925</ele>
        <time>2013-05-15T14:46:31Z</time>
      </trkpt>
      <trkpt lat="59.9141186" lon="17.8426035">
        <ele>11.1925</ele>
        <time>2013-05-15T14:46:32Z</time>
      </trkpt>
      <trkpt lat="59.9140507" lon="17.8426731">
        <ele>11.6732</ele>
        <time>2013-05-15T14:46:33Z</time>
      </trkpt>
      <trkpt lat="59.9139826" lon="17.8427392">
        <ele>11.6732</ele>
        <time>2013-05-15T14:46:34Z</time>
      </trkpt>
      <trkpt lat="59.9139155" lon="17.8428056">
        <ele>11.6732</ele>
        <time>2013-05-15T14:46:35Z</time>
      </trkpt>
      <trkpt lat="59.9138481" lon="17.8428703">
        <ele>11.6732</ele>
        <time>2013-05-15T14:46:36Z</time>
      </trkpt>
      <trkpt lat="59.9137803" lon="17.8429309">
        <ele>11.6732</ele>
        <time>2013-05-15T14:46:37Z</time>
      </trkpt>
      <trkpt lat="59.9137119" lon="17.8429891">
        <ele>12.1538</ele>
        <time>2013-05-15T14:46:38Z</time>
      </trkpt>
      <trkpt lat="59.9136436" lon="17.8430429">
        <ele>12.1538</ele>
        <time>2013-05-15T14:46:39Z</time>
      </trkpt>
      <trkpt lat="59.9135741" lon="17.843092">
        <ele>12.1538</ele>
        <time>2013-05-15T14:46:40Z</time>
      </trkpt>
      <trkpt lat="59.9135034" lon="17.8431346">
        <ele>12.1538</ele>
        <time>2013-05-15T14:46:41Z</time>
      </trkpt>
      <trkpt lat="59.9134319" lon="17.8431708">
        <ele>12.1538</ele>
        <time>2013-05-15T14:46:42Z</time>
      </trkpt>
      <trkpt lat="59.9133603" lon="17.8432013">
        <ele>12.6344</ele>
        <time>2013-05-15T14:46:43Z</time>
      </trkpt>
      <trkpt lat="59.9132895" lon="17.8432267">
        <ele>12.6344</ele>
        <time>2013-05-15T14:46:44Z</time>
      </trkpt>
      <trkpt lat="59.9132188" lon="17.8432478">
        <ele>12.6344</ele>
        <time>2013-05-15T14:46:45Z</time>
      </trkpt>
      <trkpt lat="59.9131492" lon="17.843266">
        <ele>13.1151</ele>
        <time>2013-05-15T14:46:46Z</time>
      </trkpt>
      <trkpt lat="59.9130809" lon="17.8432827">
        <ele>13.1151</ele>
        <time>2013-05-15T14:46:47Z</time>
      </trkpt>
      <trkpt lat="59.9130141" lon="17.8433001">
        <ele>13.5958</ele>
        <time>2013-05-15T14:46:48Z</time>
      </trkpt>
      <trkpt lat="59.9129489" lon="17.8433175">
        <ele>13.5958</ele>
        <time>2013-05-15T14:46:49Z</time>
      </trkpt>
      <trkpt lat="59.9128857" lon="17.843335">
        <ele>13.5958</ele>
        <time>2013-05-15T14:46:50Z</time>
      </trkpt>
      <trkpt lat="59.9128244" lon="17.8433555">
        <ele>14.0764</ele>
        <time>2013-05-15T14:46:51Z</time>
      </trkpt>
      <trkpt lat="59.9127646" lon="17.84338">
        <ele>14.0764</ele>
        <time>2013-05-15T14:46:52Z</time>
      </trkpt>
      <trkpt lat="59.9127071" lon="17.8434097">
        <ele>14.557</ele>
        <time>2013-05-15T14:46:53Z</time>
      </trkpt>
      <trkpt lat="59.9126515" lon="17.8434437">
        <ele>14.557</ele>
        <time>2013-05-15T14:46:54Z</time>
      </trkpt>
      <trkpt lat="59.9125974" lon="17.8434838">
        <ele>14.557</ele>
        <time>2013-05-15T14:46:55Z</time>
      </trkpt>
      <trkpt lat="59.9125436" lon="17.8435297">
        <ele>14.557</ele>
        <time>2013-05-15T14:46:56Z</time>
      </trkpt>
      <trkpt lat="59.9124899" lon="17.8435779">
        <ele>14.0764</ele>
        <time>2013-05-15T14:46:57Z</time>
      </trkpt>
      <trkpt lat="59.9124367" lon="17.8436282">
        <ele>14.0764</ele>
        <time>2013-05-15T14:46:58Z</time>
      </trkpt>
      <trkpt lat="59.9123848" lon="17.8436826">
        <ele>14.0764</ele>
        <time>2013-05-15T14:46:59Z</time>
      </trkpt>
      <trkpt lat="59.9123329" lon="17.8437401">
        <ele>14.0764</ele>
        <time>2013-05-15T14:47:00Z</time>
      </trkpt>
      <trkpt lat="59.9122801" lon="17.8437991">
        <ele>14.0764</ele>
        <time>2013-05-15T14:47:01Z</time>
      </trkpt>
      <trkpt lat="59.9122269" lon="17.8438669">
        <ele>14.0764</ele>
        <time>2013-05-15T14:47:02Z</time>
      </trkpt>
      <trkpt lat="59.9121734" lon="17.84393">
        <ele>14.0764</ele>
        <time>2013-05-15T14:47:03Z</time>
      </trkpt>
      <trkpt lat="59.9121138" lon="17.8439798">
        <ele>13.5958</ele>
        <time>2013-05-15T14:47:04Z</time>
      </trkpt>
      <trkpt lat="59.9120528" lon="17.8440312">
        <ele>13.5958</ele>
        <time>2013-05-15T14:47:05Z</time>
      </trkpt>
      <trkpt lat="59.911989" lon="17.8440815">
        <ele>13.1151</ele>
        <time>2013-05-15T14:47:06Z</time>
      </trkpt>
      <trkpt lat="59.9119248" lon="17.8441269">
        <ele>13.1151</ele>
        <time>2013-05-15T14:47:07Z</time>
      </trkpt>
      <trkpt lat="59.9118584" lon="17.8441673">
        <ele>12.6344</ele>
        <time>2013-05-15T14:47:08Z</time>
      </trkpt>
      <trkpt lat="59.9117906" lon="17.8441993">
        <ele>12.1538</ele>
        <time>2013-05-15T14:47:09Z</time>
      </trkpt>
      <trkpt lat="59.9117227" lon="17.8442223">
        <ele>12.1538</ele>
        <time>2013-05-15T14:47:10Z</time>
      </trkpt>
      <trkpt lat="59.9116532" lon="17.8442382">
        <ele>11.6732</ele>
        <time>2013-05-15T14:47:11Z</time>
      </trkpt>
      <trkpt lat="59.911584" lon="17.8442468">
        <ele>11.6732</ele>
        <time>2013-05-15T14:47:12Z</time>
      </trkpt>
      <trkpt lat="59.9115144" lon="17.8442493">
        <ele>11.1925</ele>
        <time>2013-05-15T14:47:13Z</time>
      </trkpt>
      <trkpt lat="59.9114457" lon="17.8442556">
        <ele>11.1925</ele>
        <time>2013-05-15T14:47:14Z</time>
      </trkpt>
      <trkpt lat="59.9113782" lon="17.8442591">
        <ele>11.1925</ele>
        <time>2013-05-15T14:47:15Z</time>
      </trkpt>
      <trkpt lat="59.9113113" lon="17.8442573">
        <ele>11.6732</ele>
        <time>2013-05-15T14:47:16Z</time>
      </trkpt>
      <trkpt lat="59.911244" lon="17.8442539">
        <ele>11.6732</ele>
        <time>2013-05-15T14:47:17Z</time>
      </trkpt>
      <trkpt lat="59.9111767" lon="17.8442512">
        <ele>11.6732</ele>
        <time>2013-05-15T14:47:18Z</time>
      </trkpt>
      <trkpt lat="59.9111115" lon="17.8442326">
        <ele>12.1538</ele>
        <time>2013-05-15T14:47:19Z</time>
      </trkpt>
      <trkpt lat="59.9110457" lon="17.844211">
        <ele>12.1538</ele>
        <time>2013-05-15T14:47:20Z</time>
      </trkpt>
      <trkpt lat="59.9109799" lon="17.8441818">
        <ele>12.1538</ele>
        <time>2013-05-15T14:47:21Z</time>
      </trkpt>
      <trkpt lat="59.910917" lon="17.8441409">
        <ele>12.1538</ele>
        <time>2013-05-15T14:47:22Z</time>
      </trkpt>
      <trkpt lat="59.9108582" lon="17.8440917">
        <ele>12.1538</ele>
        <time>2013-05-15T14:47:23Z</time>
      </trkpt>
      <trkpt lat="59.9108023" lon="17.844041">
        <ele>12.1538</ele>
        <time>2013-05-15T14:47:24Z</time>
      </trkpt>
      <trkpt lat="59.9107515" lon="17.8440023">
        <ele>12.1538</ele>
        <time>2013-05-15T14:47:25Z</time>
      </trkpt>
      <trkpt lat="59.9107027" lon="17.8439654">
        <ele>11.6732</ele>
        <time>2013-05-15T14:47:26Z</time>
      </trkpt>
      <trkpt lat="59.9106504" lon="17.8439251">
        <ele>12.1538</ele>
        <time>2013-05-15T14:47:27Z</time>
      </trkpt>
      <trkpt lat="59.9105946" lon="17.8438798">
        <ele>12.1538</ele>
        <time>2013-05-15T14:47:28Z</time>
      </trkpt>
      <trkpt lat="59.9105417" lon="17.84383">
        <ele>12.6344</ele>
        <time>2013-05-15T14:47:29Z</time>
      </trkpt>
      <trkpt lat="59.9104871" lon="17.8437575">
        <ele>12.6344</ele>
        <time>2013-05-15T14:47:30Z</time>
      </trkpt>
      <trkpt lat="59.9104241" lon="17.843685">
        <ele>12.1538</ele>
        <time>2013-05-15T14:47:31Z</time>
      </trkpt>
      <trkpt lat="59.9103691" lon="17.8436282">
        <ele>11.6732</ele>
        <time>2013-05-15T14:47:32Z</time>
      </trkpt>
      <trkpt lat="59.910306" lon="17.8435821">
        <ele>11.1925</ele>
        <time>2013-05-15T14:47:33Z</time>
      </trkpt>
      <trkpt lat="59.9102479" lon="17.8435286">
        <ele>10.7118</ele>
        <time>2013-05-15T14:47:34Z</time>
      </trkpt>
      <trkpt lat="59.9101884" lon="17.8434791">
        <ele>10.2312</ele>
        <time>2013-05-15T14:47:35Z</time>
      </trkpt>
      <trkpt lat="59.9101319" lon="17.8434267">
        <ele>9.2699</ele>
        <time>2013-05-15T14:47:36Z</time>
      </trkpt>
      <trkpt lat="59.9100723" lon="17.8433835">
        <ele>8.78918</ele>
        <time>2013-05-15T14:47:37Z</time>
      </trkpt>
      <trkpt lat="59.9100179" lon="17.843351">
        <ele>8.78918</ele>
        <time>2013-05-15T14:47:38Z</time>
      </trkpt>
      <trkpt lat="59.909966" lon="17.8433084">
        <ele>8.30859</ele>
        <time>2013-05-15T14:47:39Z</time>
      </trkpt>
      <trkpt lat="59.9099128" lon="17.8432614">
        <ele>8.30859</ele>
        <time>2013-05-15T14:47:40Z</time>
      </trkpt>
      <trkpt lat="59.9098603" lon="17.843212">
        <ele>8.30859</ele>
        <time>2013-05-15T14:47:41Z</time>
      </trkpt>
      <trkpt lat="59.9098085" lon="17.8431572">
        <ele>8.30859</ele>
        <time>2013-05-15T14:47:42Z</time>
      </trkpt>
      <trkpt lat="59.9097569" lon="17.8430993">
        <ele>8.78918</ele>
        <time>2013-05-15T14:47:43Z</time>
      </trkpt>
      <trkpt lat="59.9097093" lon="17.8430367">
        <ele>8.78918</ele>
        <time>2013-05-15T14:47:44Z</time>
      </trkpt>
      <trkpt lat="59.9096608" lon="17.8429448">
        <ele>8.78918</ele>
        <time>2013-05-15T14:47:45Z</time>
      </trkpt>
      <trkpt lat="59.9096289" lon="17.8428334">
        <ele>8.78918</ele>
        <time>2013-05-15T14:47:46Z</time>
      </trkpt>
      <trkpt lat="59.9096135" lon="17.8427059">
        <ele>8.78918</ele>
        <time>2013-05-15T14:47:47Z</time>
      </trkpt>
      <trkpt lat="59.9096133" lon="17.8425808">
        <ele>9.2699</ele>
        <time>2013-05-15T14:47:48Z</time>
      </trkpt>
      <trkpt lat="59.9096216" lon="17.8424579">
        <ele>9.2699</ele>
        <time>2013-05-15T14:47:49Z</time>
      </trkpt>
      <trkpt lat="59.9096327" lon="17.8423342">
        <ele>9.2699</ele>
        <time>2013-05-15T14:47:50Z</time>
      </trkpt>
      <trkpt lat="59.9096429" lon="17.8422065">
        <ele>9.2699</ele>
        <time>2013-05-15T14:47:51Z</time>
      </trkpt>
      <trkpt lat="59.909652" lon="17.8420679">
        <ele>8.78918</ele>
        <time>2013-05-15T14:47:52Z</time>
      </trkpt>
      <trkpt lat="59.90966" lon="17.8419197">
        <ele>8.78918</ele>
        <time>2013-05-15T14:47:53Z</time>
      </trkpt>
      <trkpt lat="59.909663" lon="17.8417629">
        <ele>8.30859</ele>
        <time>2013-05-15T14:47:54Z</time>
      </trkpt>
      <trkpt lat="59.9096595" lon="17.8416042">
        <ele>7.82788</ele>
        <time>2013-05-15T14:47:55Z</time>
      </trkpt>
      <trkpt lat="59.9096502" lon="17.8414443">
        <ele>7.82788</ele>
        <time>2013-05-15T14:47:56Z</time>
      </trkpt>
      <trkpt lat="59.9096353" lon="17.841285">
        <ele>7.34717</ele>
        <time>2013-05-15T14:47:57Z</time>
      </trkpt>
      <trkpt lat="59.9096124" lon="17.841126">
        <ele>6.86646</ele>
        <time>2013-05-15T14:47:58Z</time>
      </trkpt>
      <trkpt lat="59.9095823" lon="17.8409735">
        <ele>6.86646</ele>
        <time>2013-05-15T14:47:59Z</time>
      </trkpt>
      <trkpt lat="59.909546" lon="17.8408308">
        <ele>6.86646</ele>
        <time>2013-05-15T14:48:00Z</time>
      </trkpt>
      <trkpt lat="59.9095056" lon="17.8407004">
        <ele>7.34717</ele>
        <time>2013-05-15T14:48:01Z</time>
      </trkpt>
      <trkpt lat="59.9094627" lon="17.8405785">
        <ele>7.34717</ele>
        <time>2013-05-15T14:48:02Z</time>
      </trkpt>
      <trkpt lat="59.9094189" lon="17.8404605">
        <ele>7.34717</ele>
        <time>2013-05-15T14:48:03Z</time>
      </trkpt>
      <trkpt lat="59.909375" lon="17.8403445">
        <ele>6.86646</ele>
        <time>2013-05-15T14:48:04Z</time>
      </trkpt>
      <trkpt lat="59.9093325" lon="17.8402332">
        <ele>6.86646</ele>
        <time>2013-05-15T14:48:05Z</time>
      </trkpt>
      <trkpt lat="59.9092917" lon="17.8401238">
        <ele>7.34717</ele>
        <time>2013-05-15T14:48:06Z</time>
      </trkpt>
      <trkpt lat="59.9092518" lon="17.8400138">
        <ele>7.34717</ele>
        <time>2013-05-15T14:48:07Z</time>
      </trkpt>
      <trkpt lat="59.909213" lon="17.8399083">
        <ele>7.82788</ele>
        <time>2013-05-15T14:48:08Z</time>
      </trkpt>
      <trkpt lat="59.909174" lon="17.8398079">
        <ele>7.82788</ele>
        <time>2013-05-15T14:48:09Z</time>
      </trkpt>
      <trkpt lat="59.9091376" lon="17.8397114">
        <ele>8.30859</ele>
        <time>2013-05-15T14:48:10Z</time>
      </trkpt>
      <trkpt lat="59.9091048" lon="17.8396182">
        <ele>8.78918</ele>
        <time>2013-05-15T14:48:11Z</time>
      </trkpt>
      <trkpt lat="59.909074" lon="17.8395291">
        <ele>8.78918</ele>
        <time>2013-05-15T14:48:12Z</time>
      </trkpt>
      <trkpt lat="59.9090454" lon="17.8394473">
        <ele>9.2699</ele>
        <time>2013-05-15T14:48:13Z</time>
      </trkpt>
      <trkpt lat="59.9090186" lon="17.8393758">
        <ele>9.75061</ele>
        <time>2013-05-15T14:48:14Z</time>
      </trkpt>
      <trkpt lat="59.9089913" lon="17.839309">
        <ele>9.75061</ele>
        <time>2013-05-15T14:48:15Z</time>
      </trkpt>
      <trkpt lat="59.9089636" lon="17.8392437">
        <ele>10.2312</ele>
        <time>2013-05-15T14:48:16Z</time>
      </trkpt>
      <trkpt lat="59.9089339" lon="17.8391804">
        <ele>10.7118</ele>
        <time>2013-05-15T14:48:17Z</time>
      </trkpt>
      <trkpt lat="59.9089057" lon="17.8391224">
        <ele>10.7118</ele>
        <time>2013-05-15T14:48:18Z</time>
      </trkpt>
      <trkpt lat="59.9088779" lon="17.8390624">
        <ele>11.1925</ele>
        <time>2013-05-15T14:48:19Z</time>
      </trkpt>
      <trkpt lat="59.9088504" lon="17.839006">
        <ele>11.6732</ele>
        <time>2013-05-15T14:48:20Z</time>
      </trkpt>
      <trkpt lat="59.9088172" lon="17.8389516">
        <ele>11.6732</ele>
        <time>2013-05-15T14:48:21Z</time>
      </trkpt>
      <trkpt lat="59.9087809" lon="17.8389008">
        <ele>12.1538</ele>
        <time>2013-05-15T14:48:22Z</time>
      </trkpt>
      <trkpt lat="59.9087453" lon="17.8388569">
        <ele>11.6732</ele>
        <time>2013-05-15T14:48:23Z</time>
      </trkpt>
      <trkpt lat="59.9087101" lon="17.8388164">
        <ele>11.6732</ele>
        <time>2013-05-15T14:48:24Z</time>
      </trkpt>
      <trkpt lat="59.9086718" lon="17.8387703">
        <ele>11.6732</ele>
        <time>2013-05-15T14:48:25Z</time>
      </trkpt>
      <trkpt lat="59.9086318" lon="17.8387279">
        <ele>12.1538</ele>
        <time>2013-05-15T14:48:26Z</time>
      </trkpt>
      <trkpt lat="59.9085904" lon="17.8386903">
        <ele>12.6344</ele>
        <time>2013-05-15T14:48:27Z</time>
      </trkpt>
      <trkpt lat="59.9085482" lon="17.8386595">
        <ele>13.1151</ele>
        <time>2013-05-15T14:48:28Z</time>
      </trkpt>
      <trkpt lat="59.9085043" lon="17.8386392">
        <ele>14.0764</ele>
        <time>2013-05-15T14:48:29Z</time>
      </trkpt>
      <trkpt lat="59.9084594" lon="17.8386232">
        <ele>14.557</ele>
        <time>2013-05-15T14:48:30Z</time>
      </trkpt>
      <trkpt lat="59.9084151" lon="17.8386127">
        <ele>15.0377</ele>
        <time>2013-05-15T14:48:31Z</time>
      </trkpt>
      <trkpt lat="59.9083732" lon="17.8386086">
        <ele>15.5184</ele>
        <time>2013-05-15T14:48:32Z</time>
      </trkpt>
      <trkpt lat="59.9083283" lon="17.8386086">
        <ele>15.5184</ele>
        <time>2013-05-15T14:48:33Z</time>
      </trkpt>
      <trkpt lat="59.9082806" lon="17.8386124">
        <ele>15.999</ele>
        <time>2013-05-15T14:48:34Z</time>
      </trkpt>
      <trkpt lat="59.9082298" lon="17.8386224">
        <ele>16.4797</ele>
        <time>2013-05-15T14:48:35Z</time>
      </trkpt>
      <trkpt lat="59.9081795" lon="17.8386408">
        <ele>16.9604</ele>
        <time>2013-05-15T14:48:36Z</time>
      </trkpt>
      <trkpt lat="59.9081307" lon="17.8386682">
        <ele>16.9604</ele>
        <time>2013-05-15T14:48:37Z</time>
      </trkpt>
      <trkpt lat="59.9080812" lon="17.838706">
        <ele>17.4412</ele>
        <time>2013-05-15T14:48:38Z</time>
      </trkpt>
      <trkpt lat="59.9080324" lon="17.8387527">
        <ele>17.9218</ele>
        <time>2013-05-15T14:48:39Z</time>
      </trkpt>
      <trkpt lat="59.9079848" lon="17.838797">
        <ele>18.4023</ele>
        <time>2013-05-15T14:48:40Z</time>
      </trkpt>
      <trkpt lat="59.9079406" lon="17.8388415">
        <ele>19.3638</ele>
        <time>2013-05-15T14:48:41Z</time>
      </trkpt>
      <trkpt lat="59.9078986" lon="17.8388898">
        <ele>19.8444</ele>
        <time>2013-05-15T14:48:42Z</time>
      </trkpt>
      <trkpt lat="59.9078604" lon="17.8389386">
        <ele>20.325</ele>
        <time>2013-05-15T14:48:43Z</time>
      </trkpt>
      <trkpt lat="59.9078231" lon="17.8389868">
        <ele>20.8057</ele>
        <time>2013-05-15T14:48:44Z</time>
      </trkpt>
      <trkpt lat="59.9077869" lon="17.839032">
        <ele>20.8057</ele>
        <time>2013-05-15T14:48:45Z</time>
      </trkpt>
      <trkpt lat="59.9077533" lon="17.839078">
        <ele>20.8057</ele>
        <time>2013-05-15T14:48:46Z</time>
      </trkpt>
      <trkpt lat="59.9077211" lon="17.8391211">
        <ele>21.2864</ele>
        <time>2013-05-15T14:48:47Z</time>
      </trkpt>
      <trkpt lat="59.9076868" lon="17.8391575">
        <ele>22.2476</ele>
        <time>2013-05-15T14:48:48Z</time>
      </trkpt>
      <trkpt lat="59.9076542" lon="17.8391923">
        <ele>22.2476</ele>
        <time>2013-05-15T14:48:49Z</time>
      </trkpt>
      <trkpt lat="59.9076212" lon="17.8392308">
        <ele>23.209</ele>
        <time>2013-05-15T14:48:50Z</time>
      </trkpt>
      <trkpt lat="59.9075873" lon="17.8392671">
        <ele>23.209</ele>
        <time>2013-05-15T14:48:51Z</time>
      </trkpt>
      <trkpt lat="59.9075542" lon="17.8393002">
        <ele>23.6896</ele>
        <time>2013-05-15T14:48:52Z</time>
      </trkpt>
      <trkpt lat="59.9075175" lon="17.8393344">
        <ele>23.6896</ele>
        <time>2013-05-15T14:48:53Z</time>
      </trkpt>
      <trkpt lat="59.9074791" lon="17.8393756">
        <ele>24.1703</ele>
        <time>2013-05-15T14:48:54Z</time>
      </trkpt>
      <trkpt lat="59.907442" lon="17.8394274">
        <ele>24.1703</ele>
        <time>2013-05-15T14:48:55Z</time>
      </trkpt>
      <trkpt lat="59.907402" lon="17.8394804">
        <ele>24.1703</ele>
        <time>2013-05-15T14:48:56Z</time>
      </trkpt>
      <trkpt lat="59.907358" lon="17.8395409">
        <ele>24.1703</ele>
        <time>2013-05-15T14:48:57Z</time>
      </trkpt>
      <trkpt lat="59.907306" lon="17.8395947">
        <ele>24.1703</ele>
        <time>2013-05-15T14:48:58Z</time>
      </trkpt>
      <trkpt lat="59.907249" lon="17.8396426">
        <ele>23.6896</ele>
        <time>2013-05-15T14:48:59Z</time>
      </trkpt>
      <trkpt lat="59.9071892" lon="17.8396902">
        <ele>23.6896</ele>
        <time>2013-05-15T14:49:00Z</time>
      </trkpt>
      <trkpt lat="59.9071244" lon="17.839739">
        <ele>23.209</ele>
        <time>2013-05-15T14:49:01Z</time>
      </trkpt>
      <trkpt lat="59.9070574" lon="17.8397902">
        <ele>22.7283</ele>
        <time>2013-05-15T14:49:02Z</time>
      </trkpt>
      <trkpt lat="59.9069934" lon="17.8398451">
        <ele>22.2476</ele>
        <time>2013-05-15T14:49:03Z</time>
      </trkpt>
      <trkpt lat="59.9069281" lon="17.8398999">
        <ele>21.767</ele>
        <time>2013-05-15T14:49:04Z</time>
      </trkpt>
      <trkpt lat="59.9068606" lon="17.8399591">
        <ele>21.2864</ele>
        <time>2013-05-15T14:49:05Z</time>
      </trkpt>
      <trkpt lat="59.9067949" lon="17.8400266">
        <ele>20.8057</ele>
        <time>2013-05-15T14:49:06Z</time>
      </trkpt>
      <trkpt lat="59.906716" lon="17.840078">
        <ele>20.325</ele>
        <time>2013-05-15T14:49:07Z</time>
      </trkpt>
      <trkpt lat="59.9066416" lon="17.8401481">
        <ele>19.3638</ele>
        <time>2013-05-15T14:49:08Z</time>
      </trkpt>
      <trkpt lat="59.9065616" lon="17.8402185">
        <ele>17.9218</ele>
        <time>2013-05-15T14:49:09Z</time>
      </trkpt>
      <trkpt lat="59.9064847" lon="17.840275">
        <ele>16.9604</ele>
        <time>2013-05-15T14:49:10Z</time>
      </trkpt>
      <trkpt lat="59.9064086" lon="17.8403424">
        <ele>15.5184</ele>
        <time>2013-05-15T14:49:11Z</time>
      </trkpt>
      <trkpt lat="59.9063338" lon="17.8404139">
        <ele>14.557</ele>
        <time>2013-05-15T14:49:12Z</time>
      </trkpt>
      <trkpt lat="59.9062625" lon="17.840492">
        <ele>13.5958</ele>
        <time>2013-05-15T14:49:13Z</time>
      </trkpt>
      <trkpt lat="59.9061954" lon="17.840587">
        <ele>12.6344</ele>
        <time>2013-05-15T14:49:14Z</time>
      </trkpt>
      <trkpt lat="59.9061286" lon="17.8406867">
        <ele>12.6344</ele>
        <time>2013-05-15T14:49:15Z</time>
      </trkpt>
      <trkpt lat="59.906068" lon="17.8407843">
        <ele>11.6732</ele>
        <time>2013-05-15T14:49:16Z</time>
      </trkpt>
      <trkpt lat="59.9060026" lon="17.8408822">
        <ele>12.1538</ele>
        <time>2013-05-15T14:49:17Z</time>
      </trkpt>
      <trkpt lat="59.9059308" lon="17.8409696">
        <ele>12.1538</ele>
        <time>2013-05-15T14:49:18Z</time>
      </trkpt>
      <trkpt lat="59.9058559" lon="17.8410459">
        <ele>12.6344</ele>
        <time>2013-05-15T14:49:19Z</time>
      </trkpt>
      <trkpt lat="59.905778" lon="17.841112">
        <ele>12.6344</ele>
        <time>2013-05-15T14:49:20Z</time>
      </trkpt>
      <trkpt lat="59.9056986" lon="17.8411649">
        <ele>13.1151</ele>
        <time>2013-05-15T14:49:21Z</time>
      </trkpt>
      <trkpt lat="59.9055465" lon="17.8412333">
        <ele>13.5958</ele>
        <time>2013-05-15T14:49:23Z</time>
      </trkpt>
      <trkpt lat="59.9054748" lon="17.8412562">
        <ele>13.5958</ele>
        <time>2013-05-15T14:49:24Z</time>
      </trkpt>
      <trkpt lat="59.9054064" lon="17.841279">
        <ele>13.5958</ele>
        <time>2013-05-15T14:49:25Z</time>
      </trkpt>
      <trkpt lat="59.9053429" lon="17.8412997">
        <ele>14.0764</ele>
        <time>2013-05-15T14:49:26Z</time>
      </trkpt>
      <trkpt lat="59.905284" lon="17.8413401">
        <ele>14.0764</ele>
        <time>2013-05-15T14:49:27Z</time>
      </trkpt>
      <trkpt lat="59.905228" lon="17.8413599">
        <ele>13.5958</ele>
        <time>2013-05-15T14:49:28Z</time>
      </trkpt>
      <trkpt lat="59.9051502" lon="17.8413686">
        <ele>13.5958</ele>
        <time>2013-05-15T14:49:29Z</time>
      </trkpt>
      <trkpt lat="59.9050996" lon="17.8413955">
        <ele>14.0764</ele>
        <time>2013-05-15T14:49:30Z</time>
      </trkpt>
      <trkpt lat="59.9050495" lon="17.8414115">
        <ele>15.0377</ele>
        <time>2013-05-15T14:49:31Z</time>
      </trkpt>
      <trkpt lat="59.9050032" lon="17.8414239">
        <ele>15.5184</ele>
        <time>2013-05-15T14:49:32Z</time>
      </trkpt>
      <trkpt lat="59.9049566" lon="17.8414442">
        <ele>15.999</ele>
        <time>2013-05-15T14:49:33Z</time>
      </trkpt>
      <trkpt lat="59.904911" lon="17.841465">
        <ele>16.4797</ele>
        <time>2013-05-15T14:49:34Z</time>
      </trkpt>
      <trkpt lat="59.9048695" lon="17.8414831">
        <ele>16.9604</ele>
        <time>2013-05-15T14:49:35Z</time>
      </trkpt>
      <trkpt lat="59.9048252" lon="17.8415028">
        <ele>16.9604</ele>
        <time>2013-05-15T14:49:36Z</time>
      </trkpt>
      <trkpt lat="59.9047762" lon="17.8415105">
        <ele>16.9604</ele>
        <time>2013-05-15T14:49:37Z</time>
      </trkpt>
      <trkpt lat="59.9047301" lon="17.8415155">
        <ele>17.4412</ele>
        <time>2013-05-15T14:49:38Z</time>
      </trkpt>
      <trkpt lat="59.9046907" lon="17.8415197">
        <ele>17.9218</ele>
        <time>2013-05-15T14:49:39Z</time>
      </trkpt>
      <trkpt lat="59.9046504" lon="17.8415322">
        <ele>18.4023</ele>
        <time>2013-05-15T14:49:40Z</time>
      </trkpt>
      <trkpt lat="59.9045984" lon="17.8415655">
        <ele>18.4023</ele>
        <time>2013-05-15T14:49:41Z</time>
      </trkpt>
      <trkpt lat="59.9045512" lon="17.8415968">
        <ele>18.4023</ele>
        <time>2013-05-15T14:49:42Z</time>
      </trkpt>
      <trkpt lat="59.9045018" lon="17.8416199">
        <ele>17.9218</ele>
        <time>2013-05-15T14:49:43Z</time>
      </trkpt>
      <trkpt lat="59.9044467" lon="17.8416546">
        <ele>16.9604</ele>
        <time>2013-05-15T14:49:44Z</time>
      </trkpt>
      <trkpt lat="59.9043956" lon="17.8416906">
        <ele>15.5184</ele>
        <time>2013-05-15T14:49:45Z</time>
      </trkpt>
      <trkpt lat="59.9043459" lon="17.841725">
        <ele>15.0377</ele>
        <time>2013-05-15T14:49:46Z</time>
      </trkpt>
      <trkpt lat="59.9042893" lon="17.8417655">
        <ele>13.5958</ele>
        <time>2013-05-15T14:49:47Z</time>
      </trkpt>
      <trkpt lat="59.9042267" lon="17.8418149">
        <ele>13.5958</ele>
        <time>2013-05-15T14:49:48Z</time>
      </trkpt>
      <trkpt lat="59.9041634" lon="17.8418453">
        <ele>13.1151</ele>
        <time>2013-05-15T14:49:49Z</time>
      </trkpt>
      <trkpt lat="59.9041096" lon="17.8418662">
        <ele>11.6732</ele>
        <time>2013-05-15T14:49:50Z</time>
      </trkpt>
      <trkpt lat="59.9040591" lon="17.841873">
        <ele>9.75061</ele>
        <time>2013-05-15T14:49:51Z</time>
      </trkpt>
      <trkpt lat="59.9040101" lon="17.8418784">
        <ele>7.82788</ele>
        <time>2013-05-15T14:49:52Z</time>
      </trkpt>
      <trkpt lat="59.9039605" lon="17.8418733">
        <ele>7.82788</ele>
        <time>2013-05-15T14:49:53Z</time>
      </trkpt>
      <trkpt lat="59.9039122" lon="17.8418633">
        <ele>8.30859</ele>
        <time>2013-05-15T14:49:54Z</time>
      </trkpt>
      <trkpt lat="59.9038655" lon="17.8418426">
        <ele>7.82788</ele>
        <time>2013-05-15T14:49:55Z</time>
      </trkpt>
      <trkpt lat="59.9038135" lon="17.841811">
        <ele>7.34717</ele>
        <time>2013-05-15T14:49:56Z</time>
      </trkpt>
      <trkpt lat="59.9037713" lon="17.8417774">
        <ele>7.34717</ele>
        <time>2013-05-15T14:49:57Z</time>
      </trkpt>
      <trkpt lat="59.9037296" lon="17.841755">
        <ele>8.78918</ele>
        <time>2013-05-15T14:49:58Z</time>
      </trkpt>
      <trkpt lat="59.9036936" lon="17.8417415">
        <ele>10.2312</ele>
        <time>2013-05-15T14:49:59Z</time>
      </trkpt>
      <trkpt lat="59.9036574" lon="17.8417203">
        <ele>11.1925</ele>
        <time>2013-05-15T14:50:00Z</time>
      </trkpt>
      <trkpt lat="59.9036237" lon="17.8416799">
        <ele>12.6344</ele>
        <time>2013-05-15T14:50:01Z</time>
      </trkpt>
      <trkpt lat="59.9035927" lon="17.8416365">
        <ele>14.0764</ele>
        <time>2013-05-15T14:50:02Z</time>
      </trkpt>
      <trkpt lat="59.9035646" lon="17.8415943">
        <ele>15.0377</ele>
        <time>2013-05-15T14:50:03Z</time>
      </trkpt>
      <trkpt lat="59.9035375" lon="17.8415525">
        <ele>15.999</ele>
        <time>2013-05-15T14:50:04Z</time>
      </trkpt>
      <trkpt lat="59.9035033" lon="17.8415003">
        <ele>16.4797</ele>
        <time>2013-05-15T14:50:05Z</time>
      </trkpt>
      <trkpt lat="59.9034696" lon="17.8414531">
        <ele>16.9604</ele>
        <time>2013-05-15T14:50:06Z</time>
      </trkpt>
      <trkpt lat="59.9034305" lon="17.8414018">
        <ele>17.4412</ele>
        <time>2013-05-15T14:50:07Z</time>
      </trkpt>
      <trkpt lat="59.9033931" lon="17.8413601">
        <ele>17.9218</ele>
        <time>2013-05-15T14:50:08Z</time>
      </trkpt>
      <trkpt lat="59.9033491" lon="17.8413221">
        <ele>18.8831</ele>
        <time>2013-05-15T14:50:09Z</time>
      </trkpt>
      <trkpt lat="59.9033049" lon="17.8412974">
        <ele>19.8444</ele>
        <time>2013-05-15T14:50:10Z</time>
      </trkpt>
      <trkpt lat="59.9032601" lon="17.8412783">
        <ele>19.8444</ele>
        <time>2013-05-15T14:50:11Z</time>
      </trkpt>
      <trkpt lat="59.9032097" lon="17.8412567">
        <ele>20.325</ele>
        <time>2013-05-15T14:50:12Z</time>
      </trkpt>
      <trkpt lat="59.9031565" lon="17.8412458">
        <ele>20.325</ele>
        <time>2013-05-15T14:50:13Z</time>
      </trkpt>
      <trkpt lat="59.9031018" lon="17.8412444">
        <ele>20.325</ele>
        <time>2013-05-15T14:50:14Z</time>
      </trkpt>
      <trkpt lat="59.903045" lon="17.8412494">
        <ele>20.325</ele>
        <time>2013-05-15T14:50:15Z</time>
      </trkpt>
      <trkpt lat="59.9029855" lon="17.8412597">
        <ele>19.8444</ele>
        <time>2013-05-15T14:50:16Z</time>
      </trkpt>
      <trkpt lat="59.9029207" lon="17.841269">
        <ele>19.3638</ele>
        <time>2013-05-15T14:50:17Z</time>
      </trkpt>
      <trkpt lat="59.9028628" lon="17.8412914">
        <ele>19.8444</ele>
        <time>2013-05-15T14:50:18Z</time>
      </trkpt>
      <trkpt lat="59.9027974" lon="17.8413234">
        <ele>19.8444</ele>
        <time>2013-05-15T14:50:19Z</time>
      </trkpt>
      <trkpt lat="59.9027393" lon="17.8413648">
        <ele>20.325</ele>
        <time>2013-05-15T14:50:20Z</time>
      </trkpt>
      <trkpt lat="59.902681" lon="17.8414006">
        <ele>20.325</ele>
        <time>2013-05-15T14:50:21Z</time>
      </trkpt>
      <trkpt lat="59.9026228" lon="17.8414277">
        <ele>20.325</ele>
        <time>2013-05-15T14:50:22Z</time>
      </trkpt>
      <trkpt lat="59.9025639" lon="17.8414557">
        <ele>19.8444</ele>
        <time>2013-05-15T14:50:23Z</time>
      </trkpt>
      <trkpt lat="59.9025089" lon="17.8414826">
        <ele>19.8444</ele>
        <time>2013-05-15T14:50:24Z</time>
      </trkpt>
      <trkpt lat="59.9024533" lon="17.8415117">
        <ele>19.3638</ele>
        <time>2013-05-15T14:50:25Z</time>
      </trkpt>
      <trkpt lat="59.9024016" lon="17.8415318">
        <ele>18.4023</ele>
        <time>2013-05-15T14:50:26Z</time>
      </trkpt>
      <trkpt lat="59.9023531" lon="17.8415516">
        <ele>17.9218</ele>
        <time>2013-05-15T14:50:27Z</time>
      </trkpt>
      <trkpt lat="59.9023089" lon="17.8415645">
        <ele>16.4797</ele>
        <time>2013-05-15T14:50:28Z</time>
      </trkpt>
      <trkpt lat="59.9022649" lon="17.841572">
        <ele>15.999</ele>
        <time>2013-05-15T14:50:29Z</time>
      </trkpt>
      <trkpt lat="59.9022212" lon="17.8415809">
        <ele>15.999</ele>
        <time>2013-05-15T14:50:30Z</time>
      </trkpt>
      <trkpt lat="59.9021775" lon="17.841588">
        <ele>15.5184</ele>
        <time>2013-05-15T14:50:31Z</time>
      </trkpt>
      <trkpt lat="59.9021235" lon="17.8415977">
        <ele>16.9604</ele>
        <time>2013-05-15T14:50:32Z</time>
      </trkpt>
      <trkpt lat="59.9020808" lon="17.8415975">
        <ele>16.9604</ele>
        <time>2013-05-15T14:50:33Z</time>
      </trkpt>
      <trkpt lat="59.9020261" lon="17.8415945">
        <ele>18.8831</ele>
        <time>2013-05-15T14:50:34Z</time>
      </trkpt>
      <trkpt lat="59.9019825" lon="17.8416006">
        <ele>19.8444</ele>
        <time>2013-05-15T14:50:35Z</time>
      </trkpt>
      <trkpt lat="59.9019436" lon="17.841607">
        <ele>19.8444</ele>
        <time>2013-05-15T14:50:36Z</time>
      </trkpt>
      <trkpt lat="59.9018998" lon="17.8416062">
        <ele>19.3638</ele>
        <time>2013-05-15T14:50:37Z</time>
      </trkpt>
      <trkpt lat="59.9018529" lon="17.8415996">
        <ele>19.3638</ele>
        <time>2013-05-15T14:50:38Z</time>
      </trkpt>
      <trkpt lat="59.9018078" lon="17.8415956">
        <ele>19.3638</ele>
        <time>2013-05-15T14:50:39Z</time>
      </trkpt>
      <trkpt lat="59.9017488" lon="17.841586">
        <ele>19.3638</ele>
        <time>2013-05-15T14:50:40Z</time>
      </trkpt>
      <trkpt lat="59.901692" lon="17.8415696">
        <ele>19.3638</ele>
        <time>2013-05-15T14:50:41Z</time>
      </trkpt>
      <trkpt lat="59.9016329" lon="17.841545">
        <ele>19.3638</ele>
        <time>2013-05-15T14:50:42Z</time>
      </trkpt>
      <trkpt lat="59.9015785" lon="17.8415214">
        <ele>18.8831</ele>
        <time>2013-05-15T14:50:43Z</time>
      </trkpt>
      <trkpt lat="59.9015262" lon="17.8415006">
        <ele>18.8831</ele>
        <time>2013-05-15T14:50:44Z</time>
      </trkpt>
      <trkpt lat="59.9014729" lon="17.8414868">
        <ele>18.8831</ele>
        <time>2013-05-15T14:50:45Z</time>
      </trkpt>
      <trkpt lat="59.9014201" lon="17.8414827">
        <ele>18.8831</ele>
        <time>2013-05-15T14:50:46Z</time>
      </trkpt>
      <trkpt lat="59.9013676" lon="17.8414779">
        <ele>18.8831</ele>
        <time>2013-05-15T14:50:47Z</time>
      </trkpt>
      <trkpt lat="59.9013108" lon="17.8414111">
        <ele>18.8831</ele>
        <time>2013-05-15T14:50:48Z</time>
      </trkpt>
      <trkpt lat="59.9012561" lon="17.8414022">
        <ele>18.8831</ele>
        <time>2013-05-15T14:50:49Z</time>
      </trkpt>
      <trkpt lat="59.9012019" lon="17.8413903">
        <ele>18.4023</ele>
        <time>2013-05-15T14:50:50Z</time>
      </trkpt>
      <trkpt lat="59.9011461" lon="17.8413748">
        <ele>18.8831</ele>
        <time>2013-05-15T14:50:51Z</time>
      </trkpt>
      <trkpt lat="59.9010889" lon="17.8413606">
        <ele>18.8831</ele>
        <time>2013-05-15T14:50:52Z</time>
      </trkpt>
      <trkpt lat="59.9010273" lon="17.8413557">
        <ele>19.3638</ele>
        <time>2013-05-15T14:50:53Z</time>
      </trkpt>
      <trkpt lat="59.9009676" lon="17.8413571">
        <ele>19.8444</ele>
        <time>2013-05-15T14:50:54Z</time>
      </trkpt>
      <trkpt lat="59.9009081" lon="17.8413562">
        <ele>20.325</ele>
        <time>2013-05-15T14:50:55Z</time>
      </trkpt>
      <trkpt lat="59.9008481" lon="17.841353">
        <ele>21.2864</ele>
        <time>2013-05-15T14:50:56Z</time>
      </trkpt>
      <trkpt lat="59.9007892" lon="17.8413463">
        <ele>21.767</ele>
        <time>2013-05-15T14:50:57Z</time>
      </trkpt>
      <trkpt lat="59.9007337" lon="17.8413423">
        <ele>22.2476</ele>
        <time>2013-05-15T14:50:58Z</time>
      </trkpt>
      <trkpt lat="59.9006819" lon="17.8413422">
        <ele>22.7283</ele>
        <time>2013-05-15T14:50:59Z</time>
      </trkpt>
      <trkpt lat="59.9006311" lon="17.8413385">
        <ele>23.209</ele>
        <time>2013-05-15T14:51:00Z</time>
      </trkpt>
      <trkpt lat="59.9005787" lon="17.8413325">
        <ele>24.1703</ele>
        <time>2013-05-15T14:51:01Z</time>
      </trkpt>
      <trkpt lat="59.9005208" lon="17.8413256">
        <ele>24.651</ele>
        <time>2013-05-15T14:51:02Z</time>
      </trkpt>
      <trkpt lat="59.90047" lon="17.8413265">
        <ele>26.0929</ele>
        <time>2013-05-15T14:51:03Z</time>
      </trkpt>
      <trkpt lat="59.9004171" lon="17.8413325">
        <ele>26.0929</ele>
        <time>2013-05-15T14:51:04Z</time>
      </trkpt>
      <trkpt lat="59.9003636" lon="17.8413347">
        <ele>26.0929</ele>
        <time>2013-05-15T14:51:05Z</time>
      </trkpt>
      <trkpt lat="59.9003108" lon="17.8413343">
        <ele>26.0929</ele>
        <time>2013-05-15T14:51:06Z</time>
      </trkpt>
      <trkpt lat="59.9002553" lon="17.8413299">
        <ele>27.0543</ele>
        <time>2013-05-15T14:51:07Z</time>
      </trkpt>
      <trkpt lat="59.9002063" lon="17.8413337">
        <ele>27.5349</ele>
        <time>2013-05-15T14:51:08Z</time>
      </trkpt>
      <trkpt lat="59.9001582" lon="17.8413411">
        <ele>28.0155</ele>
        <time>2013-05-15T14:51:09Z</time>
      </trkpt>
      <trkpt lat="59.9001103" lon="17.841353">
        <ele>28.9769</ele>
        <time>2013-05-15T14:51:10Z</time>
      </trkpt>
      <trkpt lat="59.900065" lon="17.8413663">
        <ele>29.4575</ele>
        <time>2013-05-15T14:51:11Z</time>
      </trkpt>
      <trkpt lat="59.9000203" lon="17.8413821">
        <ele>29.9381</ele>
        <time>2013-05-15T14:51:12Z</time>
      </trkpt>
      <trkpt lat="59.899978" lon="17.8413975">
        <ele>29.9381</ele>
        <time>2013-05-15T14:51:13Z</time>
      </trkpt>
      <trkpt lat="59.8999321" lon="17.8414031">
        <ele>29.9381</ele>
        <time>2013-05-15T14:51:14Z</time>
      </trkpt>
      <trkpt lat="59.8998891" lon="17.8414124">
        <ele>30.4188</ele>
        <time>2013-05-15T14:51:15Z</time>
      </trkpt>
      <trkpt lat="59.8998479" lon="17.841421">
        <ele>30.4188</ele>
        <time>2013-05-15T14:51:16Z</time>
      </trkpt>
      <trkpt lat="59.8998069" lon="17.8414297">
        <ele>30.4188</ele>
        <time>2013-05-15T14:51:17Z</time>
      </trkpt>
      <trkpt lat="59.8997593" lon="17.8414236">
        <ele>30.4188</ele>
        <time>2013-05-15T14:51:18Z</time>
      </trkpt>
      <trkpt lat="59.8997171" lon="17.8414163">
        <ele>30.4188</ele>
        <time>2013-05-15T14:51:19Z</time>
      </trkpt>
      <trkpt lat="59.8996728" lon="17.8414199">
        <ele>30.8995</ele>
        <time>2013-05-15T14:51:20Z</time>
      </trkpt>
      <trkpt lat="59.8996319" lon="17.8414266">
        <ele>30.8995</ele>
        <time>2013-05-15T14:51:21Z</time>
      </trkpt>
      <trkpt lat="59.8995998" lon="17.841443">
        <ele>30.8995</ele>
        <time>2013-05-15T14:51:22Z</time>
      </trkpt>
      <trkpt lat="59.899569" lon="17.8414578">
        <ele>30.8995</ele>
        <time>2013-05-15T14:51:23Z</time>
      </trkpt>
      <trkpt lat="59.8995368" lon="17.8414733">
        <ele>30.4188</ele>
        <time>2013-05-15T14:51:24Z</time>
      </trkpt>
      <trkpt lat="59.8995019" lon="17.8414941">
        <ele>30.4188</ele>
        <time>2013-05-15T14:51:25Z</time>
      </trkpt>
      <trkpt lat="59.8994667" lon="17.8415209">
        <ele>29.9381</ele>
        <time>2013-05-15T14:51:26Z</time>
      </trkpt>
      <trkpt lat="59.8994272" lon="17.8415456">
        <ele>30.4188</ele>
        <time>2013-05-15T14:51:27Z</time>
      </trkpt>
      <trkpt lat="59.8993848" lon="17.8415696">
        <ele>30.8995</ele>
        <time>2013-05-15T14:51:28Z</time>
      </trkpt>
      <trkpt lat="59.8993387" lon="17.841599">
        <ele>31.3801</ele>
        <time>2013-05-15T14:51:29Z</time>
      </trkpt>
      <trkpt lat="59.8992972" lon="17.841628">
        <ele>31.3801</ele>
        <time>2013-05-15T14:51:30Z</time>
      </trkpt>
      <trkpt lat="59.8992576" lon="17.8416627">
        <ele>30.8995</ele>
        <time>2013-05-15T14:51:31Z</time>
      </trkpt>
      <trkpt lat="59.8992193" lon="17.8416938">
        <ele>30.4188</ele>
        <time>2013-05-15T14:51:32Z</time>
      </trkpt>
      <trkpt lat="59.8991815" lon="17.8417302">
        <ele>29.9381</ele>
        <time>2013-05-15T14:51:33Z</time>
      </trkpt>
      <trkpt lat="59.8991414" lon="17.8417609">
        <ele>29.9381</ele>
        <time>2013-05-15T14:51:34Z</time>
      </trkpt>
      <trkpt lat="59.8991036" lon="17.8417861">
        <ele>28.9769</ele>
        <time>2013-05-15T14:51:35Z</time>
      </trkpt>
      <trkpt lat="59.899063" lon="17.8418152">
        <ele>28.9769</ele>
        <time>2013-05-15T14:51:36Z</time>
      </trkpt>
      <trkpt lat="59.8990217" lon="17.8418452">
        <ele>28.4962</ele>
        <time>2013-05-15T14:51:37Z</time>
      </trkpt>
      <trkpt lat="59.8989766" lon="17.8418741">
        <ele>28.0155</ele>
        <time>2013-05-15T14:51:38Z</time>
      </trkpt>
      <trkpt lat="59.8989274" lon="17.8418997">
        <ele>28.0155</ele>
        <time>2013-05-15T14:51:39Z</time>
      </trkpt>
      <trkpt lat="59.8988759" lon="17.8419343">
        <ele>28.0155</ele>
        <time>2013-05-15T14:51:40Z</time>
      </trkpt>
      <trkpt lat="59.8988225" lon="17.8419643">
        <ele>27.5349</ele>
        <time>2013-05-15T14:51:41Z</time>
      </trkpt>
      <trkpt lat="59.8987669" lon="17.841994">
        <ele>26.5736</ele>
        <time>2013-05-15T14:51:42Z</time>
      </trkpt>
      <trkpt lat="59.8987083" lon="17.842028">
        <ele>26.0929</ele>
        <time>2013-05-15T14:51:43Z</time>
      </trkpt>
      <trkpt lat="59.898645" lon="17.8420638">
        <ele>25.6123</ele>
        <time>2013-05-15T14:51:44Z</time>
      </trkpt>
      <trkpt lat="59.8985767" lon="17.8420985">
        <ele>25.6123</ele>
        <time>2013-05-15T14:51:45Z</time>
      </trkpt>
      <trkpt lat="59.8985062" lon="17.8421301">
        <ele>26.0929</ele>
        <time>2013-05-15T14:51:46Z</time>
      </trkpt>
      <trkpt lat="59.8984389" lon="17.8421596">
        <ele>26.0929</ele>
        <time>2013-05-15T14:51:47Z</time>
      </trkpt>
      <trkpt lat="59.8983736" lon="17.8421796">
        <ele>25.6123</ele>
        <time>2013-05-15T14:51:48Z</time>
      </trkpt>
      <trkpt lat="59.8983076" lon="17.8421936">
        <ele>25.1317</ele>
        <time>2013-05-15T14:51:49Z</time>
      </trkpt>
      <trkpt lat="59.8982413" lon="17.8422026">
        <ele>24.651</ele>
        <time>2013-05-15T14:51:50Z</time>
      </trkpt>
      <trkpt lat="59.8981717" lon="17.8422052">
        <ele>24.651</ele>
        <time>2013-05-15T14:51:51Z</time>
      </trkpt>
      <trkpt lat="59.8980999" lon="17.8422004">
        <ele>24.1703</ele>
        <time>2013-05-15T14:51:52Z</time>
      </trkpt>
      <trkpt lat="59.8980275" lon="17.8421955">
        <ele>22.7283</ele>
        <time>2013-05-15T14:51:53Z</time>
      </trkpt>
      <trkpt lat="59.8979606" lon="17.8422005">
        <ele>22.7283</ele>
        <time>2013-05-15T14:51:54Z</time>
      </trkpt>
      <trkpt lat="59.897898" lon="17.8422027">
        <ele>22.2476</ele>
        <time>2013-05-15T14:51:55Z</time>
      </trkpt>
      <trkpt lat="59.8978293" lon="17.8422078">
        <ele>21.767</ele>
        <time>2013-05-15T14:51:56Z</time>
      </trkpt>
      <trkpt lat="59.8977661" lon="17.8422306">
        <ele>20.8057</ele>
        <time>2013-05-15T14:51:57Z</time>
      </trkpt>
      <trkpt lat="59.8977011" lon="17.8422611">
        <ele>20.325</ele>
        <time>2013-05-15T14:51:58Z</time>
      </trkpt>
      <trkpt lat="59.8976335" lon="17.8422987">
        <ele>19.8444</ele>
        <time>2013-05-15T14:51:59Z</time>
      </trkpt>
      <trkpt lat="59.8975677" lon="17.8423342">
        <ele>18.8831</ele>
        <time>2013-05-15T14:52:00Z</time>
      </trkpt>
      <trkpt lat="59.8975019" lon="17.8423755">
        <ele>18.4023</ele>
        <time>2013-05-15T14:52:01Z</time>
      </trkpt>
      <trkpt lat="59.8974339" lon="17.8424176">
        <ele>18.4023</ele>
        <time>2013-05-15T14:52:02Z</time>
      </trkpt>
      <trkpt lat="59.8973645" lon="17.842473">
        <ele>18.8831</ele>
        <time>2013-05-15T14:52:03Z</time>
      </trkpt>
      <trkpt lat="59.8973004" lon="17.8425242">
        <ele>17.9218</ele>
        <time>2013-05-15T14:52:04Z</time>
      </trkpt>
      <trkpt lat="59.8972387" lon="17.8425865">
        <ele>17.4412</ele>
        <time>2013-05-15T14:52:05Z</time>
      </trkpt>
      <trkpt lat="59.8971651" lon="17.8426472">
        <ele>16.9604</ele>
        <time>2013-05-15T14:52:06Z</time>
      </trkpt>
      <trkpt lat="59.8970801" lon="17.8426933">
        <ele>16.4797</ele>
        <time>2013-05-15T14:52:07Z</time>
      </trkpt>
      <trkpt lat="59.8969926" lon="17.8427557">
        <ele>19.3638</ele>
        <time>2013-05-15T14:52:08Z</time>
      </trkpt>
      <trkpt lat="59.896907" lon="17.8428074">
        <ele>20.8057</ele>
        <time>2013-05-15T14:52:09Z</time>
      </trkpt>
      <trkpt lat="59.8968159" lon="17.8428341">
        <ele>21.2864</ele>
        <time>2013-05-15T14:52:10Z</time>
      </trkpt>
      <trkpt lat="59.896728" lon="17.8428448">
        <ele>20.8057</ele>
        <time>2013-05-15T14:52:11Z</time>
      </trkpt>
      <trkpt lat="59.8966383" lon="17.8428427">
        <ele>20.325</ele>
        <time>2013-05-15T14:52:12Z</time>
      </trkpt>
      <trkpt lat="59.8965449" lon="17.8428206">
        <ele>19.8444</ele>
        <time>2013-05-15T14:52:13Z</time>
      </trkpt>
      <trkpt lat="59.8964529" lon="17.8427847">
        <ele>18.8831</ele>
        <time>2013-05-15T14:52:14Z</time>
      </trkpt>
      <trkpt lat="59.8963559" lon="17.8427403">
        <ele>18.4023</ele>
        <time>2013-05-15T14:52:15Z</time>
      </trkpt>
      <trkpt lat="59.896258" lon="17.8427085">
        <ele>17.9218</ele>
        <time>2013-05-15T14:52:16Z</time>
      </trkpt>
      <trkpt lat="59.8961613" lon="17.8426801">
        <ele>17.4412</ele>
        <time>2013-05-15T14:52:17Z</time>
      </trkpt>
      <trkpt lat="59.8960632" lon="17.8426688">
        <ele>16.4797</ele>
        <time>2013-05-15T14:52:18Z</time>
      </trkpt>
      <trkpt lat="59.895968" lon="17.8426803">
        <ele>15.5184</ele>
        <time>2013-05-15T14:52:19Z</time>
      </trkpt>
      <trkpt lat="59.8958685" lon="17.8427081">
        <ele>15.0377</ele>
        <time>2013-05-15T14:52:20Z</time>
      </trkpt>
      <trkpt lat="59.8957709" lon="17.8427258">
        <ele>14.557</ele>
        <time>2013-05-15T14:52:21Z</time>
      </trkpt>
      <trkpt lat="59.8956829" lon="17.8427667">
        <ele>13.5958</ele>
        <time>2013-05-15T14:52:22Z</time>
      </trkpt>
      <trkpt lat="59.8956052" lon="17.8428051">
        <ele>12.1538</ele>
        <time>2013-05-15T14:52:23Z</time>
      </trkpt>
      <trkpt lat="59.8955244" lon="17.8428589">
        <ele>11.1925</ele>
        <time>2013-05-15T14:52:24Z</time>
      </trkpt>
      <trkpt lat="59.8954386" lon="17.8429008">
        <ele>10.2312</ele>
        <time>2013-05-15T14:52:25Z</time>
      </trkpt>
      <trkpt lat="59.8953567" lon="17.8429434">
        <ele>10.2312</ele>
        <time>2013-05-15T14:52:26Z</time>
      </trkpt>
      <trkpt lat="59.8952738" lon="17.8429813">
        <ele>9.75061</ele>
        <time>2013-05-15T14:52:27Z</time>
      </trkpt>
      <trkpt lat="59.8951931" lon="17.8430108">
        <ele>8.78918</ele>
        <time>2013-05-15T14:52:28Z</time>
      </trkpt>
      <trkpt lat="59.8951127" lon="17.8430362">
        <ele>7.82788</ele>
        <time>2013-05-15T14:52:29Z</time>
      </trkpt>
      <trkpt lat="59.8950169" lon="17.8430397">
        <ele>7.34717</ele>
        <time>2013-05-15T14:52:30Z</time>
      </trkpt>
      <trkpt lat="59.8949314" lon="17.8430438">
        <ele>6.86646</ele>
        <time>2013-05-15T14:52:31Z</time>
      </trkpt>
      <trkpt lat="59.8948447" lon="17.843037">
        <ele>5.90527</ele>
        <time>2013-05-15T14:52:32Z</time>
      </trkpt>
      <trkpt lat="59.894757" lon="17.8430279">
        <ele>5.42456</ele>
        <time>2013-05-15T14:52:33Z</time>
      </trkpt>
      <trkpt lat="59.8946749" lon="17.8430206">
        <ele>4.94385</ele>
        <time>2013-05-15T14:52:34Z</time>
      </trkpt>
      <trkpt lat="59.8945994" lon="17.8430227">
        <ele>4.46326</ele>
        <time>2013-05-15T14:52:35Z</time>
      </trkpt>
      <trkpt lat="59.8945308" lon="17.8430333">
        <ele>3.98267</ele>
        <time>2013-05-15T14:52:36Z</time>
      </trkpt>
      <trkpt lat="59.8944259" lon="17.8429499">
        <ele>3.50195</ele>
        <time>2013-05-15T14:52:37Z</time>
      </trkpt>
      <trkpt lat="59.894345" lon="17.8429428">
        <ele>3.50195</ele>
        <time>2013-05-15T14:52:38Z</time>
      </trkpt>
      <trkpt lat="59.8942745" lon="17.8429491">
        <ele>4.46326</ele>
        <time>2013-05-15T14:52:39Z</time>
      </trkpt>
      <trkpt lat="59.8942035" lon="17.8429324">
        <ele>4.46326</ele>
        <time>2013-05-15T14:52:40Z</time>
      </trkpt>
      <trkpt lat="59.8941352" lon="17.8429282">
        <ele>4.46326</ele>
        <time>2013-05-15T14:52:41Z</time>
      </trkpt>
      <trkpt lat="59.8940725" lon="17.8429359">
        <ele>5.42456</ele>
        <time>2013-05-15T14:52:42Z</time>
      </trkpt>
      <trkpt lat="59.8940092" lon="17.8429401">
        <ele>5.42456</ele>
        <time>2013-05-15T14:52:43Z</time>
      </trkpt>
      <trkpt lat="59.8939446" lon="17.8429725">
        <ele>6.38586</ele>
        <time>2013-05-15T14:52:44Z</time>
      </trkpt>
      <trkpt lat="59.8938819" lon="17.8429864">
        <ele>7.34717</ele>
        <time>2013-05-15T14:52:45Z</time>
      </trkpt>
      <trkpt lat="59.8938132" lon="17.842978">
        <ele>7.82788</ele>
        <time>2013-05-15T14:52:46Z</time>
      </trkpt>
      <trkpt lat="59.893744" lon="17.842977">
        <ele>7.82788</ele>
        <time>2013-05-15T14:52:47Z</time>
      </trkpt>
      <trkpt lat="59.8936821" lon="17.8429598">
        <ele>8.30859</ele>
        <time>2013-05-15T14:52:48Z</time>
      </trkpt>
      <trkpt lat="59.8936178" lon="17.8429443">
        <ele>9.2699</ele>
        <time>2013-05-15T14:52:49Z</time>
      </trkpt>
      <trkpt lat="59.893554" lon="17.8429349">
        <ele>9.75061</ele>
        <time>2013-05-15T14:52:50Z</time>
      </trkpt>
      <trkpt lat="59.8934862" lon="17.8429199">
        <ele>10.2312</ele>
        <time>2013-05-15T14:52:51Z</time>
      </trkpt>
      <trkpt lat="59.8934246" lon="17.8429014">
        <ele>10.2312</ele>
        <time>2013-05-15T14:52:52Z</time>
      </trkpt>
      <trkpt lat="59.893351" lon="17.8428667">
        <ele>10.7118</ele>
        <time>2013-05-15T14:52:53Z</time>
      </trkpt>
      <trkpt lat="59.8932739" lon="17.8428445">
        <ele>12.1538</ele>
        <time>2013-05-15T14:52:54Z</time>
      </trkpt>
      <trkpt lat="59.8932023" lon="17.8428179">
        <ele>14.0764</ele>
        <time>2013-05-15T14:52:55Z</time>
      </trkpt>
      <trkpt lat="59.8931358" lon="17.84279">
        <ele>15.5184</ele>
        <time>2013-05-15T14:52:56Z</time>
      </trkpt>
      <trkpt lat="59.8930753" lon="17.8427629">
        <ele>15.5184</ele>
        <time>2013-05-15T14:52:57Z</time>
      </trkpt>
      <trkpt lat="59.8930157" lon="17.8427357">
        <ele>15.5184</ele>
        <time>2013-05-15T14:52:58Z</time>
      </trkpt>
      <trkpt lat="59.8929545" lon="17.8427059">
        <ele>16.9604</ele>
        <time>2013-05-15T14:52:59Z</time>
      </trkpt>
      <trkpt lat="59.8928903" lon="17.8426729">
        <ele>17.4412</ele>
        <time>2013-05-15T14:53:00Z</time>
      </trkpt>
      <trkpt lat="59.8928339" lon="17.8426372">
        <ele>17.4412</ele>
        <time>2013-05-15T14:53:01Z</time>
      </trkpt>
      <trkpt lat="59.8927799" lon="17.8426068">
        <ele>17.4412</ele>
        <time>2013-05-15T14:53:02Z</time>
      </trkpt>
      <trkpt lat="59.8927318" lon="17.8425849">
        <ele>17.4412</ele>
        <time>2013-05-15T14:53:03Z</time>
      </trkpt>
      <trkpt lat="59.8926826" lon="17.8425584">
        <ele>16.9604</ele>
        <time>2013-05-15T14:53:04Z</time>
      </trkpt>
      <trkpt lat="59.8926314" lon="17.8425305">
        <ele>16.9604</ele>
        <time>2013-05-15T14:53:05Z</time>
      </trkpt>
      <trkpt lat="59.8925813" lon="17.8425124">
        <ele>16.4797</ele>
        <time>2013-05-15T14:53:06Z</time>
      </trkpt>
      <trkpt lat="59.8925318" lon="17.8424984">
        <ele>16.4797</ele>
        <time>2013-05-15T14:53:07Z</time>
      </trkpt>
      <trkpt lat="59.8924788" lon="17.8424731">
        <ele>16.4797</ele>
        <time>2013-05-15T14:53:08Z</time>
      </trkpt>
      <trkpt lat="59.8924308" lon="17.842445">
        <ele>15.999</ele>
        <time>2013-05-15T14:53:09Z</time>
      </trkpt>
      <trkpt lat="59.8923857" lon="17.8424184">
        <ele>15.999</ele>
        <time>2013-05-15T14:53:10Z</time>
      </trkpt>
      <trkpt lat="59.8923356" lon="17.8423834">
        <ele>15.0377</ele>
        <time>2013-05-15T14:53:11Z</time>
      </trkpt>
      <trkpt lat="59.892288" lon="17.842359">
        <ele>15.0377</ele>
        <time>2013-05-15T14:53:12Z</time>
      </trkpt>
      <trkpt lat="59.8922405" lon="17.8423351">
        <ele>14.557</ele>
        <time>2013-05-15T14:53:13Z</time>
      </trkpt>
      <trkpt lat="59.8921948" lon="17.8423166">
        <ele>14.0764</ele>
        <time>2013-05-15T14:53:14Z</time>
      </trkpt>
      <trkpt lat="59.8921482" lon="17.842299">
        <ele>14.0764</ele>
        <time>2013-05-15T14:53:15Z</time>
      </trkpt>
      <trkpt lat="59.8921017" lon="17.8422851">
        <ele>14.0764</ele>
        <time>2013-05-15T14:53:16Z</time>
      </trkpt>
      <trkpt lat="59.8920543" lon="17.8422725">
        <ele>14.0764</ele>
        <time>2013-05-15T14:53:17Z</time>
      </trkpt>
      <trkpt lat="59.8920039" lon="17.8422561">
        <ele>13.5958</ele>
        <time>2013-05-15T14:53:18Z</time>
      </trkpt>
      <trkpt lat="59.8919529" lon="17.8422435">
        <ele>13.5958</ele>
        <time>2013-05-15T14:53:19Z</time>
      </trkpt>
      <trkpt lat="59.8918996" lon="17.8422309">
        <ele>13.5958</ele>
        <time>2013-05-15T14:53:20Z</time>
      </trkpt>
      <trkpt lat="59.8918452" lon="17.8422193">
        <ele>13.1151</ele>
        <time>2013-05-15T14:53:21Z</time>
      </trkpt>
      <trkpt lat="59.8917919" lon="17.8422105">
        <ele>12.6344</ele>
        <time>2013-05-15T14:53:22Z</time>
      </trkpt>
      <trkpt lat="59.8917356" lon="17.8421975">
        <ele>12.1538</ele>
        <time>2013-05-15T14:53:23Z</time>
      </trkpt>
      <trkpt lat="59.8916777" lon="17.8421834">
        <ele>12.1538</ele>
        <time>2013-05-15T14:53:24Z</time>
      </trkpt>
      <trkpt lat="59.8916191" lon="17.8421679">
        <ele>11.6732</ele>
        <time>2013-05-15T14:53:25Z</time>
      </trkpt>
      <trkpt lat="59.8915614" lon="17.8421503">
        <ele>11.1925</ele>
        <time>2013-05-15T14:53:26Z</time>
      </trkpt>
      <trkpt lat="59.8915046" lon="17.8421299">
        <ele>11.1925</ele>
        <time>2013-05-15T14:53:27Z</time>
      </trkpt>
      <trkpt lat="59.8914499" lon="17.8421078">
        <ele>11.1925</ele>
        <time>2013-05-15T14:53:28Z</time>
      </trkpt>
      <trkpt lat="59.891397" lon="17.8420804">
        <ele>11.1925</ele>
        <time>2013-05-15T14:53:29Z</time>
      </trkpt>
      <trkpt lat="59.8913446" lon="17.8420498">
        <ele>11.6732</ele>
        <time>2013-05-15T14:53:30Z</time>
      </trkpt>
      <trkpt lat="59.8912912" lon="17.8420155">
        <ele>11.6732</ele>
        <time>2013-05-15T14:53:31Z</time>
      </trkpt>
      <trkpt lat="59.8912391" lon="17.8419791">
        <ele>11.6732</ele>
        <time>2013-05-15T14:53:32Z</time>
      </trkpt>
      <trkpt lat="59.8911881" lon="17.8419374">
        <ele>11.6732</ele>
        <time>2013-05-15T14:53:33Z</time>
      </trkpt>
      <trkpt lat="59.8911364" lon="17.841889">
        <ele>11.6732</ele>
        <time>2013-05-15T14:53:34Z</time>
      </trkpt>
      <trkpt lat="59.8910843" lon="17.8418391">
        <ele>11.6732</ele>
        <time>2013-05-15T14:53:35Z</time>
      </trkpt>
      <trkpt lat="59.8910318" lon="17.8417876">
        <ele>11.6732</ele>
        <time>2013-05-15T14:53:36Z</time>
      </trkpt>
      <trkpt lat="59.8909796" lon="17.8417343">
        <ele>11.6732</ele>
        <time>2013-05-15T14:53:37Z</time>
      </trkpt>
      <trkpt lat="59.890928" lon="17.841678">
        <ele>11.1925</ele>
        <time>2013-05-15T14:53:38Z</time>
      </trkpt>
      <trkpt lat="59.890874" lon="17.8416163">
        <ele>11.1925</ele>
        <time>2013-05-15T14:53:39Z</time>
      </trkpt>
      <trkpt lat="59.8908204" lon="17.841545">
        <ele>11.1925</ele>
        <time>2013-05-15T14:53:40Z</time>
      </trkpt>
      <trkpt lat="59.8907691" lon="17.8414705">
        <ele>11.1925</ele>
        <time>2013-05-15T14:53:41Z</time>
      </trkpt>
      <trkpt lat="59.8907185" lon="17.8413964">
        <ele>11.1925</ele>
        <time>2013-05-15T14:53:42Z</time>
      </trkpt>
      <trkpt lat="59.890668" lon="17.8413159">
        <ele>11.1925</ele>
        <time>2013-05-15T14:53:43Z</time>
      </trkpt>
      <trkpt lat="59.8906195" lon="17.84124">
        <ele>11.1925</ele>
        <time>2013-05-15T14:53:44Z</time>
      </trkpt>
      <trkpt lat="59.8905696" lon="17.8411622">
        <ele>11.6732</ele>
        <time>2013-05-15T14:53:45Z</time>
      </trkpt>
      <trkpt lat="59.8905206" lon="17.8410853">
        <ele>12.1538</ele>
        <time>2013-05-15T14:53:46Z</time>
      </trkpt>
      <trkpt lat="59.8904677" lon="17.8410081">
        <ele>12.1538</ele>
        <time>2013-05-15T14:53:47Z</time>
      </trkpt>
      <trkpt lat="59.8904143" lon="17.8409341">
        <ele>12.1538</ele>
        <time>2013-05-15T14:53:48Z</time>
      </trkpt>
      <trkpt lat="59.8903563" lon="17.8408656">
        <ele>12.1538</ele>
        <time>2013-05-15T14:53:49Z</time>
      </trkpt>
      <trkpt lat="59.8902707" lon="17.8407685">
        <ele>12.6344</ele>
        <time>2013-05-15T14:53:50Z</time>
      </trkpt>
      <trkpt lat="59.8901966" lon="17.840735">
        <ele>12.1538</ele>
        <time>2013-05-15T14:53:51Z</time>
      </trkpt>
      <trkpt lat="59.8901046" lon="17.8407307">
        <ele>11.6732</ele>
        <time>2013-05-15T14:53:52Z</time>
      </trkpt>
      <trkpt lat="59.8900452" lon="17.8407936">
        <ele>11.6732</ele>
        <time>2013-05-15T14:53:53Z</time>
      </trkpt>
      <trkpt lat="59.8899927" lon="17.8408784">
        <ele>11.1925</ele>
        <time>2013-05-15T14:53:54Z</time>
      </trkpt>
      <trkpt lat="59.8899402" lon="17.8409765">
        <ele>11.1925</ele>
        <time>2013-05-15T14:53:55Z</time>
      </trkpt>
      <trkpt lat="59.8898784" lon="17.8411372">
        <ele>13.1151</ele>
        <time>2013-05-15T14:53:56Z</time>
      </trkpt>
      <trkpt lat="59.8898418" lon="17.8412684">
        <ele>14.0764</ele>
        <time>2013-05-15T14:53:57Z</time>
      </trkpt>
      <trkpt lat="59.8898047" lon="17.8414618">
        <ele>13.5958</ele>
        <time>2013-05-15T14:53:58Z</time>
      </trkpt>
      <trkpt lat="59.8898009" lon="17.8415741">
        <ele>13.5958</ele>
        <time>2013-05-15T14:53:59Z</time>
      </trkpt>
      <trkpt lat="59.8897825" lon="17.8417199">
        <ele>14.0764</ele>
        <time>2013-05-15T14:54:00Z</time>
      </trkpt>
      <trkpt lat="59.889769" lon="17.8418503">
        <ele>15.0377</ele>
        <time>2013-05-15T14:54:01Z</time>
      </trkpt>
      <trkpt lat="59.8897626" lon="17.8419962">
        <ele>15.999</ele>
        <time>2013-05-15T14:54:02Z</time>
      </trkpt>
      <trkpt lat="59.8897524" lon="17.8421358">
        <ele>15.999</ele>
        <time>2013-05-15T14:54:03Z</time>
      </trkpt>
      <trkpt lat="59.8897405" lon="17.8422617">
        <ele>16.9604</ele>
        <time>2013-05-15T14:54:04Z</time>
      </trkpt>
      <trkpt lat="59.8897316" lon="17.8423943">
        <ele>17.9218</ele>
        <time>2013-05-15T14:54:05Z</time>
      </trkpt>
      <trkpt lat="59.8897223" lon="17.8425384">
        <ele>19.8444</ele>
        <time>2013-05-15T14:54:06Z</time>
      </trkpt>
      <trkpt lat="59.8897219" lon="17.8427346">
        <ele>19.8444</ele>
        <time>2013-05-15T14:54:07Z</time>
      </trkpt>
      <trkpt lat="59.8897026" lon="17.8428973">
        <ele>21.2864</ele>
        <time>2013-05-15T14:54:08Z</time>
      </trkpt>
      <trkpt lat="59.8896657" lon="17.8430672">
        <ele>23.209</ele>
        <time>2013-05-15T14:54:09Z</time>
      </trkpt>
      <trkpt lat="59.8896199" lon="17.843203">
        <ele>24.651</ele>
        <time>2013-05-15T14:54:10Z</time>
      </trkpt>
      <trkpt lat="59.8895758" lon="17.8432757">
        <ele>25.1317</ele>
        <time>2013-05-15T14:54:11Z</time>
      </trkpt>
      <trkpt lat="59.8895059" lon="17.8433281">
        <ele>25.1317</ele>
        <time>2013-05-15T14:54:12Z</time>
      </trkpt>
      <trkpt lat="59.8894229" lon="17.8433567">
        <ele>25.6123</ele>
        <time>2013-05-15T14:54:13Z</time>
      </trkpt>
      <trkpt lat="59.8893363" lon="17.8433565">
        <ele>26.5736</ele>
        <time>2013-05-15T14:54:14Z</time>
      </trkpt>
      <trkpt lat="59.8892494" lon="17.8433229">
        <ele>27.5349</ele>
        <time>2013-05-15T14:54:15Z</time>
      </trkpt>
      <trkpt lat="59.8891748" lon="17.8432757">
        <ele>28.0155</ele>
        <time>2013-05-15T14:54:16Z</time>
      </trkpt>
      <trkpt lat="59.8891055" lon="17.8432252">
        <ele>28.0155</ele>
        <time>2013-05-15T14:54:17Z</time>
      </trkpt>
      <trkpt lat="59.8890409" lon="17.8431887">
        <ele>28.0155</ele>
        <time>2013-05-15T14:54:18Z</time>
      </trkpt>
      <trkpt lat="59.8889527" lon="17.8431017">
        <ele>28.4962</ele>
        <time>2013-05-15T14:54:19Z</time>
      </trkpt>
      <trkpt lat="59.8888811" lon="17.8430716">
        <ele>28.4962</ele>
        <time>2013-05-15T14:54:20Z</time>
      </trkpt>
      <trkpt lat="59.8888016" lon="17.8430496">
        <ele>28.4962</ele>
        <time>2013-05-15T14:54:21Z</time>
      </trkpt>
      <trkpt lat="59.8887273" lon="17.8430485">
        <ele>28.0155</ele>
        <time>2013-05-15T14:54:22Z</time>
      </trkpt>
      <trkpt lat="59.8886542" lon="17.8430464">
        <ele>28.4962</ele>
        <time>2013-05-15T14:54:23Z</time>
      </trkpt>
      <trkpt lat="59.8885823" lon="17.8430454">
        <ele>28.9769</ele>
        <time>2013-05-15T14:54:24Z</time>
      </trkpt>
      <trkpt lat="59.8885082" lon="17.8430293">
        <ele>28.9769</ele>
        <time>2013-05-15T14:54:25Z</time>
      </trkpt>
      <trkpt lat="59.8884343" lon="17.8429996">
        <ele>28.0155</ele>
        <time>2013-05-15T14:54:26Z</time>
      </trkpt>
      <trkpt lat="59.8883579" lon="17.8429589">
        <ele>28.0155</ele>
        <time>2013-05-15T14:54:27Z</time>
      </trkpt>
      <trkpt lat="59.8882801" lon="17.8429035">
        <ele>27.5349</ele>
        <time>2013-05-15T14:54:28Z</time>
      </trkpt>
      <trkpt lat="59.8882046" lon="17.8428403">
        <ele>27.0543</ele>
        <time>2013-05-15T14:54:29Z</time>
      </trkpt>
      <trkpt lat="59.8881297" lon="17.842776">
        <ele>27.0543</ele>
        <time>2013-05-15T14:54:30Z</time>
      </trkpt>
      <trkpt lat="59.8880533" lon="17.8427097">
        <ele>27.0543</ele>
        <time>2013-05-15T14:54:31Z</time>
      </trkpt>
      <trkpt lat="59.887978" lon="17.8426397">
        <ele>27.0543</ele>
        <time>2013-05-15T14:54:32Z</time>
      </trkpt>
      <trkpt lat="59.8879031" lon="17.8425631">
        <ele>27.0543</ele>
        <time>2013-05-15T14:54:33Z</time>
      </trkpt>
      <trkpt lat="59.8878334" lon="17.8424798">
        <ele>27.0543</ele>
        <time>2013-05-15T14:54:34Z</time>
      </trkpt>
      <trkpt lat="59.8877642" lon="17.8423915">
        <ele>27.0543</ele>
        <time>2013-05-15T14:54:35Z</time>
      </trkpt>
      <trkpt lat="59.8876968" lon="17.842301">
        <ele>26.5736</ele>
        <time>2013-05-15T14:54:36Z</time>
      </trkpt>
      <trkpt lat="59.8876307" lon="17.8422071">
        <ele>26.5736</ele>
        <time>2013-05-15T14:54:37Z</time>
      </trkpt>
      <trkpt lat="59.8875669" lon="17.8421089">
        <ele>26.5736</ele>
        <time>2013-05-15T14:54:38Z</time>
      </trkpt>
      <trkpt lat="59.8875092" lon="17.8420115">
        <ele>26.5736</ele>
        <time>2013-05-15T14:54:39Z</time>
      </trkpt>
      <trkpt lat="59.8874555" lon="17.8419053">
        <ele>26.5736</ele>
        <time>2013-05-15T14:54:40Z</time>
      </trkpt>
      <trkpt lat="59.8874074" lon="17.8417932">
        <ele>27.0543</ele>
        <time>2013-05-15T14:54:41Z</time>
      </trkpt>
      <trkpt lat="59.8873638" lon="17.8416793">
        <ele>27.0543</ele>
        <time>2013-05-15T14:54:42Z</time>
      </trkpt>
      <trkpt lat="59.8873222" lon="17.8415629">
        <ele>27.0543</ele>
        <time>2013-05-15T14:54:43Z</time>
      </trkpt>
      <trkpt lat="59.8872784" lon="17.8414498">
        <ele>27.0543</ele>
        <time>2013-05-15T14:54:44Z</time>
      </trkpt>
      <trkpt lat="59.8872286" lon="17.8413437">
        <ele>27.0543</ele>
        <time>2013-05-15T14:54:45Z</time>
      </trkpt>
      <trkpt lat="59.8871727" lon="17.8412464">
        <ele>26.5736</ele>
        <time>2013-05-15T14:54:46Z</time>
      </trkpt>
      <trkpt lat="59.8871094" lon="17.8411639">
        <ele>26.5736</ele>
        <time>2013-05-15T14:54:47Z</time>
      </trkpt>
      <trkpt lat="59.887039" lon="17.8410952">
        <ele>26.5736</ele>
        <time>2013-05-15T14:54:48Z</time>
      </trkpt>
      <trkpt lat="59.8869664" lon="17.8410412">
        <ele>26.5736</ele>
        <time>2013-05-15T14:54:49Z</time>
      </trkpt>
      <trkpt lat="59.8868896" lon="17.8410066">
        <ele>26.5736</ele>
        <time>2013-05-15T14:54:50Z</time>
      </trkpt>
      <trkpt lat="59.8868106" lon="17.8409926">
        <ele>26.5736</ele>
        <time>2013-05-15T14:54:51Z</time>
      </trkpt>
      <trkpt lat="59.8867318" lon="17.8409998">
        <ele>26.0929</ele>
        <time>2013-05-15T14:54:52Z</time>
      </trkpt>
      <trkpt lat="59.8866542" lon="17.8410258">
        <ele>26.0929</ele>
        <time>2013-05-15T14:54:53Z</time>
      </trkpt>
      <trkpt lat="59.886577" lon="17.8410607">
        <ele>25.6123</ele>
        <time>2013-05-15T14:54:54Z</time>
      </trkpt>
      <trkpt lat="59.886502" lon="17.8411004">
        <ele>25.6123</ele>
        <time>2013-05-15T14:54:55Z</time>
      </trkpt>
      <trkpt lat="59.8864252" lon="17.8411371">
        <ele>25.6123</ele>
        <time>2013-05-15T14:54:56Z</time>
      </trkpt>
      <trkpt lat="59.8863481" lon="17.8411748">
        <ele>25.6123</ele>
        <time>2013-05-15T14:54:57Z</time>
      </trkpt>
      <trkpt lat="59.8862722" lon="17.8412137">
        <ele>25.6123</ele>
        <time>2013-05-15T14:54:58Z</time>
      </trkpt>
      <trkpt lat="59.8861951" lon="17.8412464">
        <ele>25.6123</ele>
        <time>2013-05-15T14:54:59Z</time>
      </trkpt>
      <trkpt lat="59.8861157" lon="17.8412712">
        <ele>25.6123</ele>
        <time>2013-05-15T14:55:00Z</time>
      </trkpt>
      <trkpt lat="59.8860351" lon="17.841293">
        <ele>25.6123</ele>
        <time>2013-05-15T14:55:01Z</time>
      </trkpt>
      <trkpt lat="59.8859554" lon="17.8413148">
        <ele>25.6123</ele>
        <time>2013-05-15T14:55:02Z</time>
      </trkpt>
      <trkpt lat="59.8858752" lon="17.8413313">
        <ele>25.6123</ele>
        <time>2013-05-15T14:55:03Z</time>
      </trkpt>
      <trkpt lat="59.8857917" lon="17.841338">
        <ele>25.6123</ele>
        <time>2013-05-15T14:55:04Z</time>
      </trkpt>
      <trkpt lat="59.8857093" lon="17.8413426">
        <ele>26.0929</ele>
        <time>2013-05-15T14:55:05Z</time>
      </trkpt>
      <trkpt lat="59.8856302" lon="17.8413525">
        <ele>25.6123</ele>
        <time>2013-05-15T14:55:06Z</time>
      </trkpt>
      <trkpt lat="59.8855523" lon="17.8413671">
        <ele>25.6123</ele>
        <time>2013-05-15T14:55:07Z</time>
      </trkpt>
      <trkpt lat="59.8854746" lon="17.8413788">
        <ele>25.6123</ele>
        <time>2013-05-15T14:55:08Z</time>
      </trkpt>
      <trkpt lat="59.8853965" lon="17.8413851">
        <ele>25.6123</ele>
        <time>2013-05-15T14:55:09Z</time>
      </trkpt>
      <trkpt lat="59.8853173" lon="17.8413924">
        <ele>25.6123</ele>
        <time>2013-05-15T14:55:10Z</time>
      </trkpt>
      <trkpt lat="59.8852384" lon="17.8414042">
        <ele>25.1317</ele>
        <time>2013-05-15T14:55:11Z</time>
      </trkpt>
      <trkpt lat="59.8851581" lon="17.8414155">
        <ele>25.1317</ele>
        <time>2013-05-15T14:55:12Z</time>
      </trkpt>
      <trkpt lat="59.8850758" lon="17.8414243">
        <ele>24.651</ele>
        <time>2013-05-15T14:55:13Z</time>
      </trkpt>
      <trkpt lat="59.8849882" lon="17.8414223">
        <ele>24.651</ele>
        <time>2013-05-15T14:55:14Z</time>
      </trkpt>
      <trkpt lat="59.8849008" lon="17.8414111">
        <ele>24.651</ele>
        <time>2013-05-15T14:55:15Z</time>
      </trkpt>
      <trkpt lat="59.8848136" lon="17.8413909">
        <ele>24.651</ele>
        <time>2013-05-15T14:55:16Z</time>
      </trkpt>
      <trkpt lat="59.8847277" lon="17.8413615">
        <ele>24.651</ele>
        <time>2013-05-15T14:55:17Z</time>
      </trkpt>
      <trkpt lat="59.8846443" lon="17.841322">
        <ele>24.651</ele>
        <time>2013-05-15T14:55:18Z</time>
      </trkpt>
      <trkpt lat="59.8845639" lon="17.8412743">
        <ele>24.651</ele>
        <time>2013-05-15T14:55:19Z</time>
      </trkpt>
      <trkpt lat="59.8844863" lon="17.8412193">
        <ele>24.651</ele>
        <time>2013-05-15T14:55:20Z</time>
      </trkpt>
      <trkpt lat="59.884413" lon="17.8411576">
        <ele>24.651</ele>
        <time>2013-05-15T14:55:21Z</time>
      </trkpt>
      <trkpt lat="59.8843421" lon="17.8410916">
        <ele>24.651</ele>
        <time>2013-05-15T14:55:22Z</time>
      </trkpt>
      <trkpt lat="59.8842728" lon="17.84102">
        <ele>24.651</ele>
        <time>2013-05-15T14:55:23Z</time>
      </trkpt>
      <trkpt lat="59.884205" lon="17.840941">
        <ele>24.1703</ele>
        <time>2013-05-15T14:55:24Z</time>
      </trkpt>
      <trkpt lat="59.8841382" lon="17.8408584">
        <ele>24.1703</ele>
        <time>2013-05-15T14:55:25Z</time>
      </trkpt>
      <trkpt lat="59.8840727" lon="17.840774">
        <ele>24.1703</ele>
        <time>2013-05-15T14:55:26Z</time>
      </trkpt>
      <trkpt lat="59.8840081" lon="17.8406895">
        <ele>24.1703</ele>
        <time>2013-05-15T14:55:27Z</time>
      </trkpt>
      <trkpt lat="59.8839437" lon="17.840605">
        <ele>24.1703</ele>
        <time>2013-05-15T14:55:28Z</time>
      </trkpt>
      <trkpt lat="59.8838807" lon="17.8405237">
        <ele>24.1703</ele>
        <time>2013-05-15T14:55:29Z</time>
      </trkpt>
      <trkpt lat="59.8838187" lon="17.8404435">
        <ele>24.1703</ele>
        <time>2013-05-15T14:55:30Z</time>
      </trkpt>
      <trkpt lat="59.8837573" lon="17.8403622">
        <ele>24.1703</ele>
        <time>2013-05-15T14:55:31Z</time>
      </trkpt>
      <trkpt lat="59.8836973" lon="17.8402795">
        <ele>24.1703</ele>
        <time>2013-05-15T14:55:32Z</time>
      </trkpt>
      <trkpt lat="59.8836379" lon="17.8401958">
        <ele>24.651</ele>
        <time>2013-05-15T14:55:33Z</time>
      </trkpt>
      <trkpt lat="59.8835803" lon="17.840096">
        <ele>25.1317</ele>
        <time>2013-05-15T14:55:34Z</time>
      </trkpt>
      <trkpt lat="59.8835243" lon="17.8400031">
        <ele>25.1317</ele>
        <time>2013-05-15T14:55:35Z</time>
      </trkpt>
      <trkpt lat="59.8834661" lon="17.8399243">
        <ele>25.1317</ele>
        <time>2013-05-15T14:55:36Z</time>
      </trkpt>
      <trkpt lat="59.8834083" lon="17.8398385">
        <ele>25.6123</ele>
        <time>2013-05-15T14:55:37Z</time>
      </trkpt>
      <trkpt lat="59.8833389" lon="17.8397408">
        <ele>25.6123</ele>
        <time>2013-05-15T14:55:38Z</time>
      </trkpt>
      <trkpt lat="59.8832877" lon="17.8396732">
        <ele>25.6123</ele>
        <time>2013-05-15T14:55:39Z</time>
      </trkpt>
      <trkpt lat="59.8832371" lon="17.8396052">
        <ele>25.6123</ele>
        <time>2013-05-15T14:55:40Z</time>
      </trkpt>
      <trkpt lat="59.8831897" lon="17.8395421">
        <ele>26.0929</ele>
        <time>2013-05-15T14:55:41Z</time>
      </trkpt>
      <trkpt lat="59.8831441" lon="17.8394886">
        <ele>26.5736</ele>
        <time>2013-05-15T14:55:42Z</time>
      </trkpt>
      <trkpt lat="59.8830976" lon="17.8394364">
        <ele>27.5349</ele>
        <time>2013-05-15T14:55:43Z</time>
      </trkpt>
      <trkpt lat="59.8830548" lon="17.8393779">
        <ele>27.5349</ele>
        <time>2013-05-15T14:55:44Z</time>
      </trkpt>
      <trkpt lat="59.8830136" lon="17.8393192">
        <ele>27.5349</ele>
        <time>2013-05-15T14:55:45Z</time>
      </trkpt>
      <trkpt lat="59.8829737" lon="17.8392695">
        <ele>28.0155</ele>
        <time>2013-05-15T14:55:46Z</time>
      </trkpt>
      <trkpt lat="59.8829359" lon="17.8392215">
        <ele>28.0155</ele>
        <time>2013-05-15T14:55:47Z</time>
      </trkpt>
      <trkpt lat="59.8829001" lon="17.8391791">
        <ele>28.0155</ele>
        <time>2013-05-15T14:55:48Z</time>
      </trkpt>
      <trkpt lat="59.8828617" lon="17.8391421">
        <ele>28.4962</ele>
        <time>2013-05-15T14:55:49Z</time>
      </trkpt>
      <trkpt lat="59.882824" lon="17.8390997">
        <ele>28.4962</ele>
        <time>2013-05-15T14:55:50Z</time>
      </trkpt>
      <trkpt lat="59.8827819" lon="17.8390649">
        <ele>28.4962</ele>
        <time>2013-05-15T14:55:51Z</time>
      </trkpt>
      <trkpt lat="59.8827374" lon="17.8390389">
        <ele>28.4962</ele>
        <time>2013-05-15T14:55:52Z</time>
      </trkpt>
      <trkpt lat="59.8826922" lon="17.8390179">
        <ele>28.4962</ele>
        <time>2013-05-15T14:55:53Z</time>
      </trkpt>
      <trkpt lat="59.8826448" lon="17.8389946">
        <ele>28.0155</ele>
        <time>2013-05-15T14:55:54Z</time>
      </trkpt>
      <trkpt lat="59.8825924" lon="17.8389731">
        <ele>27.5349</ele>
        <time>2013-05-15T14:55:55Z</time>
      </trkpt>
      <trkpt lat="59.8825339" lon="17.8389509">
        <ele>27.0543</ele>
        <time>2013-05-15T14:55:56Z</time>
      </trkpt>
      <trkpt lat="59.882469" lon="17.8389256">
        <ele>26.5736</ele>
        <time>2013-05-15T14:55:57Z</time>
      </trkpt>
      <trkpt lat="59.8824001" lon="17.8389002">
        <ele>26.5736</ele>
        <time>2013-05-15T14:55:58Z</time>
      </trkpt>
      <trkpt lat="59.8823277" lon="17.8388758">
        <ele>25.6123</ele>
        <time>2013-05-15T14:55:59Z</time>
      </trkpt>
      <trkpt lat="59.8822527" lon="17.838845">
        <ele>25.1317</ele>
        <time>2013-05-15T14:56:00Z</time>
      </trkpt>
      <trkpt lat="59.8821753" lon="17.8388027">
        <ele>24.651</ele>
        <time>2013-05-15T14:56:01Z</time>
      </trkpt>
      <trkpt lat="59.8820973" lon="17.8387449">
        <ele>24.1703</ele>
        <time>2013-05-15T14:56:02Z</time>
      </trkpt>
      <trkpt lat="59.8820232" lon="17.838673">
        <ele>23.6896</ele>
        <time>2013-05-15T14:56:03Z</time>
      </trkpt>
      <trkpt lat="59.8819542" lon="17.8385854">
        <ele>23.209</ele>
        <time>2013-05-15T14:56:04Z</time>
      </trkpt>
      <trkpt lat="59.8818894" lon="17.838489">
        <ele>23.209</ele>
        <time>2013-05-15T14:56:05Z</time>
      </trkpt>
      <trkpt lat="59.8818268" lon="17.8383875">
        <ele>22.7283</ele>
        <time>2013-05-15T14:56:06Z</time>
      </trkpt>
      <trkpt lat="59.8817639" lon="17.8382871">
        <ele>22.7283</ele>
        <time>2013-05-15T14:56:07Z</time>
      </trkpt>
      <trkpt lat="59.8817023" lon="17.8381881">
        <ele>22.7283</ele>
        <time>2013-05-15T14:56:08Z</time>
      </trkpt>
      <trkpt lat="59.8816438" lon="17.8380953">
        <ele>22.7283</ele>
        <time>2013-05-15T14:56:09Z</time>
      </trkpt>
      <trkpt lat="59.8815839" lon="17.8380017">
        <ele>22.7283</ele>
        <time>2013-05-15T14:56:10Z</time>
      </trkpt>
      <trkpt lat="59.8815229" lon="17.8379107">
        <ele>22.7283</ele>
        <time>2013-05-15T14:56:11Z</time>
      </trkpt>
      <trkpt lat="59.8814626" lon="17.8378208">
        <ele>22.2476</ele>
        <time>2013-05-15T14:56:12Z</time>
      </trkpt>
      <trkpt lat="59.8814021" lon="17.8377326">
        <ele>21.767</ele>
        <time>2013-05-15T14:56:13Z</time>
      </trkpt>
      <trkpt lat="59.8813417" lon="17.8376457">
        <ele>21.2864</ele>
        <time>2013-05-15T14:56:14Z</time>
      </trkpt>
      <trkpt lat="59.8812813" lon="17.83756">
        <ele>21.2864</ele>
        <time>2013-05-15T14:56:15Z</time>
      </trkpt>
      <trkpt lat="59.8812212" lon="17.8374742">
        <ele>21.2864</ele>
        <time>2013-05-15T14:56:16Z</time>
      </trkpt>
      <trkpt lat="59.8811617" lon="17.8373873">
        <ele>21.2864</ele>
        <time>2013-05-15T14:56:17Z</time>
      </trkpt>
      <trkpt lat="59.8811037" lon="17.8372996">
        <ele>21.2864</ele>
        <time>2013-05-15T14:56:18Z</time>
      </trkpt>
      <trkpt lat="59.8810488" lon="17.8372081">
        <ele>21.2864</ele>
        <time>2013-05-15T14:56:19Z</time>
      </trkpt>
      <trkpt lat="59.8809971" lon="17.8371141">
        <ele>21.767</ele>
        <time>2013-05-15T14:56:20Z</time>
      </trkpt>
      <trkpt lat="59.8809446" lon="17.8370256">
        <ele>21.767</ele>
        <time>2013-05-15T14:56:21Z</time>
      </trkpt>
      <trkpt lat="59.8808895" lon="17.8369428">
        <ele>21.767</ele>
        <time>2013-05-15T14:56:22Z</time>
      </trkpt>
      <trkpt lat="59.8808353" lon="17.8368531">
        <ele>21.2864</ele>
        <time>2013-05-15T14:56:23Z</time>
      </trkpt>
      <trkpt lat="59.8807807" lon="17.8367609">
        <ele>21.2864</ele>
        <time>2013-05-15T14:56:24Z</time>
      </trkpt>
      <trkpt lat="59.8807241" lon="17.8366728">
        <ele>20.8057</ele>
        <time>2013-05-15T14:56:25Z</time>
      </trkpt>
      <trkpt lat="59.8806653" lon="17.8365831">
        <ele>20.8057</ele>
        <time>2013-05-15T14:56:26Z</time>
      </trkpt>
      <trkpt lat="59.8806038" lon="17.8364953">
        <ele>20.8057</ele>
        <time>2013-05-15T14:56:27Z</time>
      </trkpt>
      <trkpt lat="59.8805407" lon="17.8364108">
        <ele>20.8057</ele>
        <time>2013-05-15T14:56:28Z</time>
      </trkpt>
      <trkpt lat="59.8804752" lon="17.83633">
        <ele>20.8057</ele>
        <time>2013-05-15T14:56:29Z</time>
      </trkpt>
      <trkpt lat="59.8804093" lon="17.8362541">
        <ele>20.8057</ele>
        <time>2013-05-15T14:56:30Z</time>
      </trkpt>
      <trkpt lat="59.8803416" lon="17.8361792">
        <ele>20.8057</ele>
        <time>2013-05-15T14:56:31Z</time>
      </trkpt>
      <trkpt lat="59.8802722" lon="17.8361051">
        <ele>21.2864</ele>
        <time>2013-05-15T14:56:32Z</time>
      </trkpt>
      <trkpt lat="59.8802021" lon="17.8360378">
        <ele>21.2864</ele>
        <time>2013-05-15T14:56:33Z</time>
      </trkpt>
      <trkpt lat="59.8801314" lon="17.8359714">
        <ele>21.2864</ele>
        <time>2013-05-15T14:56:34Z</time>
      </trkpt>
      <trkpt lat="59.8800604" lon="17.8359148">
        <ele>21.2864</ele>
        <time>2013-05-15T14:56:35Z</time>
      </trkpt>
      <trkpt lat="59.8799889" lon="17.8358626">
        <ele>21.767</ele>
        <time>2013-05-15T14:56:36Z</time>
      </trkpt>
      <trkpt lat="59.879918" lon="17.8358143">
        <ele>22.2476</ele>
        <time>2013-05-15T14:56:37Z</time>
      </trkpt>
      <trkpt lat="59.8798427" lon="17.8357834">
        <ele>22.7283</ele>
        <time>2013-05-15T14:56:38Z</time>
      </trkpt>
      <trkpt lat="59.8797671" lon="17.8357715">
        <ele>22.7283</ele>
        <time>2013-05-15T14:56:39Z</time>
      </trkpt>
      <trkpt lat="59.8796881" lon="17.8357674">
        <ele>22.2476</ele>
        <time>2013-05-15T14:56:40Z</time>
      </trkpt>
      <trkpt lat="59.8796034" lon="17.8357647">
        <ele>21.767</ele>
        <time>2013-05-15T14:56:41Z</time>
      </trkpt>
      <trkpt lat="59.8795149" lon="17.8357606">
        <ele>21.2864</ele>
        <time>2013-05-15T14:56:42Z</time>
      </trkpt>
      <trkpt lat="59.8794207" lon="17.8357528">
        <ele>20.325</ele>
        <time>2013-05-15T14:56:43Z</time>
      </trkpt>
      <trkpt lat="59.8793283" lon="17.8357387">
        <ele>19.8444</ele>
        <time>2013-05-15T14:56:44Z</time>
      </trkpt>
      <trkpt lat="59.8792451" lon="17.8357245">
        <ele>19.3638</ele>
        <time>2013-05-15T14:56:45Z</time>
      </trkpt>
      <trkpt lat="59.8791654" lon="17.8357108">
        <ele>19.3638</ele>
        <time>2013-05-15T14:56:46Z</time>
      </trkpt>
      <trkpt lat="59.8790866" lon="17.8356905">
        <ele>18.8831</ele>
        <time>2013-05-15T14:56:47Z</time>
      </trkpt>
      <trkpt lat="59.8790086" lon="17.8356664">
        <ele>18.8831</ele>
        <time>2013-05-15T14:56:48Z</time>
      </trkpt>
      <trkpt lat="59.8789271" lon="17.8356333">
        <ele>18.8831</ele>
        <time>2013-05-15T14:56:49Z</time>
      </trkpt>
      <trkpt lat="59.8788473" lon="17.8355964">
        <ele>18.4023</ele>
        <time>2013-05-15T14:56:50Z</time>
      </trkpt>
      <trkpt lat="59.8787695" lon="17.8355512">
        <ele>18.4023</ele>
        <time>2013-05-15T14:56:51Z</time>
      </trkpt>
      <trkpt lat="59.8786917" lon="17.8354962">
        <ele>18.4023</ele>
        <time>2013-05-15T14:56:52Z</time>
      </trkpt>
      <trkpt lat="59.8786109" lon="17.8354481">
        <ele>18.8831</ele>
        <time>2013-05-15T14:56:53Z</time>
      </trkpt>
      <trkpt lat="59.8785308" lon="17.8353952">
        <ele>19.8444</ele>
        <time>2013-05-15T14:56:54Z</time>
      </trkpt>
      <trkpt lat="59.8784525" lon="17.8353337">
        <ele>20.325</ele>
        <time>2013-05-15T14:56:55Z</time>
      </trkpt>
      <trkpt lat="59.8783752" lon="17.8352714">
        <ele>20.8057</ele>
        <time>2013-05-15T14:56:56Z</time>
      </trkpt>
      <trkpt lat="59.8782991" lon="17.8352084">
        <ele>21.767</ele>
        <time>2013-05-15T14:56:57Z</time>
      </trkpt>
      <trkpt lat="59.878227" lon="17.8351411">
        <ele>22.2476</ele>
        <time>2013-05-15T14:56:58Z</time>
      </trkpt>
      <trkpt lat="59.8781588" lon="17.8350733">
        <ele>22.2476</ele>
        <time>2013-05-15T14:56:59Z</time>
      </trkpt>
      <trkpt lat="59.8780914" lon="17.8350145">
        <ele>22.7283</ele>
        <time>2013-05-15T14:57:00Z</time>
      </trkpt>
      <trkpt lat="59.8780272" lon="17.8349499">
        <ele>23.209</ele>
        <time>2013-05-15T14:57:01Z</time>
      </trkpt>
      <trkpt lat="59.8779646" lon="17.8348767">
        <ele>23.6896</ele>
        <time>2013-05-15T14:57:02Z</time>
      </trkpt>
      <trkpt lat="59.8779038" lon="17.8347977">
        <ele>24.1703</ele>
        <time>2013-05-15T14:57:03Z</time>
      </trkpt>
      <trkpt lat="59.8778427" lon="17.8347245">
        <ele>24.651</ele>
        <time>2013-05-15T14:57:04Z</time>
      </trkpt>
      <trkpt lat="59.877779" lon="17.8346522">
        <ele>24.651</ele>
        <time>2013-05-15T14:57:05Z</time>
      </trkpt>
      <trkpt lat="59.8777174" lon="17.8345765">
        <ele>24.651</ele>
        <time>2013-05-15T14:57:06Z</time>
      </trkpt>
      <trkpt lat="59.8776557" lon="17.8344968">
        <ele>24.651</ele>
        <time>2013-05-15T14:57:07Z</time>
      </trkpt>
      <trkpt lat="59.8775921" lon="17.8344153">
        <ele>24.651</ele>
        <time>2013-05-15T14:57:08Z</time>
      </trkpt>
      <trkpt lat="59.8775315" lon="17.8343344">
        <ele>25.1317</ele>
        <time>2013-05-15T14:57:09Z</time>
      </trkpt>
      <trkpt lat="59.8774679" lon="17.8342506">
        <ele>25.1317</ele>
        <time>2013-05-15T14:57:10Z</time>
      </trkpt>
      <trkpt lat="59.8774056" lon="17.8341725">
        <ele>25.1317</ele>
        <time>2013-05-15T14:57:11Z</time>
      </trkpt>
      <trkpt lat="59.8773419" lon="17.8340958">
        <ele>25.1317</ele>
        <time>2013-05-15T14:57:12Z</time>
      </trkpt>
      <trkpt lat="59.877278" lon="17.8340178">
        <ele>24.651</ele>
        <time>2013-05-15T14:57:13Z</time>
      </trkpt>
      <trkpt lat="59.877214" lon="17.8339409">
        <ele>25.1317</ele>
        <time>2013-05-15T14:57:14Z</time>
      </trkpt>
      <trkpt lat="59.8771487" lon="17.8338724">
        <ele>25.1317</ele>
        <time>2013-05-15T14:57:15Z</time>
      </trkpt>
      <trkpt lat="59.8770833" lon="17.8338103">
        <ele>25.1317</ele>
        <time>2013-05-15T14:57:16Z</time>
      </trkpt>
      <trkpt lat="59.8770185" lon="17.8337505">
        <ele>25.1317</ele>
        <time>2013-05-15T14:57:17Z</time>
      </trkpt>
      <trkpt lat="59.8769549" lon="17.833699">
        <ele>25.1317</ele>
        <time>2013-05-15T14:57:18Z</time>
      </trkpt>
      <trkpt lat="59.8768911" lon="17.8336528">
        <ele>25.6123</ele>
        <time>2013-05-15T14:57:19Z</time>
      </trkpt>
      <trkpt lat="59.8768279" lon="17.8336083">
        <ele>26.0929</ele>
        <time>2013-05-15T14:57:20Z</time>
      </trkpt>
      <trkpt lat="59.8767664" lon="17.8335677">
        <ele>26.5736</ele>
        <time>2013-05-15T14:57:21Z</time>
      </trkpt>
      <trkpt lat="59.8767028" lon="17.8335311">
        <ele>26.5736</ele>
        <time>2013-05-15T14:57:22Z</time>
      </trkpt>
      <trkpt lat="59.8766411" lon="17.8334928">
        <ele>26.5736</ele>
        <time>2013-05-15T14:57:23Z</time>
      </trkpt>
      <trkpt lat="59.8765825" lon="17.833459">
        <ele>26.0929</ele>
        <time>2013-05-15T14:57:24Z</time>
      </trkpt>
      <trkpt lat="59.8765186" lon="17.8334229">
        <ele>26.0929</ele>
        <time>2013-05-15T14:57:25Z</time>
      </trkpt>
      <trkpt lat="59.8764526" lon="17.8333866">
        <ele>25.6123</ele>
        <time>2013-05-15T14:57:26Z</time>
      </trkpt>
      <trkpt lat="59.8763867" lon="17.8333455">
        <ele>25.1317</ele>
        <time>2013-05-15T14:57:27Z</time>
      </trkpt>
      <trkpt lat="59.8763156" lon="17.8333046">
        <ele>26.0929</ele>
        <time>2013-05-15T14:57:28Z</time>
      </trkpt>
      <trkpt lat="59.8762433" lon="17.833256">
        <ele>26.5736</ele>
        <time>2013-05-15T14:57:29Z</time>
      </trkpt>
      <trkpt lat="59.8761727" lon="17.8331995">
        <ele>26.5736</ele>
        <time>2013-05-15T14:57:30Z</time>
      </trkpt>
      <trkpt lat="59.8761018" lon="17.8331388">
        <ele>26.5736</ele>
        <time>2013-05-15T14:57:31Z</time>
      </trkpt>
      <trkpt lat="59.8760318" lon="17.8330772">
        <ele>26.5736</ele>
        <time>2013-05-15T14:57:32Z</time>
      </trkpt>
      <trkpt lat="59.875965" lon="17.8330135">
        <ele>26.5736</ele>
        <time>2013-05-15T14:57:33Z</time>
      </trkpt>
      <trkpt lat="59.8758998" lon="17.8329498">
        <ele>26.0929</ele>
        <time>2013-05-15T14:57:34Z</time>
      </trkpt>
      <trkpt lat="59.8758375" lon="17.832881">
        <ele>26.0929</ele>
        <time>2013-05-15T14:57:35Z</time>
      </trkpt>
      <trkpt lat="59.8757775" lon="17.8328129">
        <ele>25.6123</ele>
        <time>2013-05-15T14:57:36Z</time>
      </trkpt>
      <trkpt lat="59.8757184" lon="17.832747">
        <ele>25.6123</ele>
        <time>2013-05-15T14:57:37Z</time>
      </trkpt>
      <trkpt lat="59.8756597" lon="17.8326871">
        <ele>25.6123</ele>
        <time>2013-05-15T14:57:38Z</time>
      </trkpt>
      <trkpt lat="59.8755994" lon="17.8326282">
        <ele>25.1317</ele>
        <time>2013-05-15T14:57:39Z</time>
      </trkpt>
      <trkpt lat="59.875538" lon="17.8325759">
        <ele>24.651</ele>
        <time>2013-05-15T14:57:40Z</time>
      </trkpt>
      <trkpt lat="59.8754727" lon="17.8325317">
        <ele>24.651</ele>
        <time>2013-05-15T14:57:41Z</time>
      </trkpt>
      <trkpt lat="59.875405" lon="17.8324899">
        <ele>24.651</ele>
        <time>2013-05-15T14:57:42Z</time>
      </trkpt>
      <trkpt lat="59.8753352" lon="17.8324531">
        <ele>24.1703</ele>
        <time>2013-05-15T14:57:43Z</time>
      </trkpt>
      <trkpt lat="59.8752636" lon="17.8324206">
        <ele>24.1703</ele>
        <time>2013-05-15T14:57:44Z</time>
      </trkpt>
      <trkpt lat="59.8751881" lon="17.8323976">
        <ele>24.1703</ele>
        <time>2013-05-15T14:57:45Z</time>
      </trkpt>
      <trkpt lat="59.8751102" lon="17.8323758">
        <ele>24.1703</ele>
        <time>2013-05-15T14:57:46Z</time>
      </trkpt>
      <trkpt lat="59.8750315" lon="17.8323535">
        <ele>23.6896</ele>
        <time>2013-05-15T14:57:47Z</time>
      </trkpt>
      <trkpt lat="59.8749543" lon="17.8323386">
        <ele>23.6896</ele>
        <time>2013-05-15T14:57:48Z</time>
      </trkpt>
      <trkpt lat="59.8748755" lon="17.8323179">
        <ele>23.209</ele>
        <time>2013-05-15T14:57:49Z</time>
      </trkpt>
      <trkpt lat="59.8747982" lon="17.8322914">
        <ele>23.209</ele>
        <time>2013-05-15T14:57:50Z</time>
      </trkpt>
      <trkpt lat="59.8747238" lon="17.8322812">
        <ele>22.7283</ele>
        <time>2013-05-15T14:57:51Z</time>
      </trkpt>
      <trkpt lat="59.8746544" lon="17.832261">
        <ele>22.7283</ele>
        <time>2013-05-15T14:57:52Z</time>
      </trkpt>
      <trkpt lat="59.8745864" lon="17.8322371">
        <ele>22.7283</ele>
        <time>2013-05-15T14:57:53Z</time>
      </trkpt>
      <trkpt lat="59.8745218" lon="17.8322144">
        <ele>22.7283</ele>
        <time>2013-05-15T14:57:54Z</time>
      </trkpt>
      <trkpt lat="59.8744606" lon="17.8321826">
        <ele>23.209</ele>
        <time>2013-05-15T14:57:55Z</time>
      </trkpt>
      <trkpt lat="59.8744011" lon="17.8321366">
        <ele>23.209</ele>
        <time>2013-05-15T14:57:56Z</time>
      </trkpt>
      <trkpt lat="59.874346" lon="17.8320821">
        <ele>23.6896</ele>
        <time>2013-05-15T14:57:57Z</time>
      </trkpt>
      <trkpt lat="59.8742924" lon="17.8320232">
        <ele>23.6896</ele>
        <time>2013-05-15T14:57:58Z</time>
      </trkpt>
      <trkpt lat="59.8742383" lon="17.831964">
        <ele>24.1703</ele>
        <time>2013-05-15T14:57:59Z</time>
      </trkpt>
      <trkpt lat="59.8741862" lon="17.8319004">
        <ele>24.1703</ele>
        <time>2013-05-15T14:58:00Z</time>
      </trkpt>
      <trkpt lat="59.8741358" lon="17.8318372">
        <ele>24.1703</ele>
        <time>2013-05-15T14:58:01Z</time>
      </trkpt>
      <trkpt lat="59.8740839" lon="17.8317651">
        <ele>24.1703</ele>
        <time>2013-05-15T14:58:02Z</time>
      </trkpt>
      <trkpt lat="59.8740318" lon="17.8316953">
        <ele>24.1703</ele>
        <time>2013-05-15T14:58:03Z</time>
      </trkpt>
      <trkpt lat="59.8739794" lon="17.8316263">
        <ele>23.6896</ele>
        <time>2013-05-15T14:58:04Z</time>
      </trkpt>
      <trkpt lat="59.8739261" lon="17.8315568">
        <ele>23.6896</ele>
        <time>2013-05-15T14:58:05Z</time>
      </trkpt>
      <trkpt lat="59.8738728" lon="17.831488">
        <ele>24.1703</ele>
        <time>2013-05-15T14:58:06Z</time>
      </trkpt>
      <trkpt lat="59.8738199" lon="17.8314221">
        <ele>24.1703</ele>
        <time>2013-05-15T14:58:07Z</time>
      </trkpt>
      <trkpt lat="59.8737669" lon="17.8313584">
        <ele>23.6896</ele>
        <time>2013-05-15T14:58:08Z</time>
      </trkpt>
      <trkpt lat="59.8737121" lon="17.8312897">
        <ele>23.6896</ele>
        <time>2013-05-15T14:58:09Z</time>
      </trkpt>
      <trkpt lat="59.8736525" lon="17.8312218">
        <ele>23.6896</ele>
        <time>2013-05-15T14:58:10Z</time>
      </trkpt>
      <trkpt lat="59.8735909" lon="17.8311494">
        <ele>23.6896</ele>
        <time>2013-05-15T14:58:11Z</time>
      </trkpt>
      <trkpt lat="59.8735241" lon="17.8310855">
        <ele>23.6896</ele>
        <time>2013-05-15T14:58:12Z</time>
      </trkpt>
      <trkpt lat="59.8734562" lon="17.8310204">
        <ele>23.209</ele>
        <time>2013-05-15T14:58:13Z</time>
      </trkpt>
      <trkpt lat="59.8733865" lon="17.8309552">
        <ele>23.209</ele>
        <time>2013-05-15T14:58:14Z</time>
      </trkpt>
      <trkpt lat="59.8733123" lon="17.830894">
        <ele>23.209</ele>
        <time>2013-05-15T14:58:15Z</time>
      </trkpt>
      <trkpt lat="59.8732387" lon="17.8308349">
        <ele>23.209</ele>
        <time>2013-05-15T14:58:16Z</time>
      </trkpt>
      <trkpt lat="59.8731639" lon="17.8307814">
        <ele>22.7283</ele>
        <time>2013-05-15T14:58:17Z</time>
      </trkpt>
      <trkpt lat="59.8730885" lon="17.8307317">
        <ele>22.7283</ele>
        <time>2013-05-15T14:58:18Z</time>
      </trkpt>
      <trkpt lat="59.8730129" lon="17.8306819">
        <ele>22.2476</ele>
        <time>2013-05-15T14:58:19Z</time>
      </trkpt>
      <trkpt lat="59.8729374" lon="17.830634">
        <ele>21.767</ele>
        <time>2013-05-15T14:58:20Z</time>
      </trkpt>
      <trkpt lat="59.8728615" lon="17.8305922">
        <ele>21.767</ele>
        <time>2013-05-15T14:58:21Z</time>
      </trkpt>
      <trkpt lat="59.872784" lon="17.8305557">
        <ele>21.2864</ele>
        <time>2013-05-15T14:58:22Z</time>
      </trkpt>
      <trkpt lat="59.8727058" lon="17.830523">
        <ele>20.8057</ele>
        <time>2013-05-15T14:58:23Z</time>
      </trkpt>
      <trkpt lat="59.8726268" lon="17.8304895">
        <ele>20.325</ele>
        <time>2013-05-15T14:58:24Z</time>
      </trkpt>
      <trkpt lat="59.8725461" lon="17.8304484">
        <ele>19.8444</ele>
        <time>2013-05-15T14:58:25Z</time>
      </trkpt>
      <trkpt lat="59.8724644" lon="17.8303972">
        <ele>19.3638</ele>
        <time>2013-05-15T14:58:26Z</time>
      </trkpt>
      <trkpt lat="59.8723825" lon="17.8303335">
        <ele>18.8831</ele>
        <time>2013-05-15T14:58:27Z</time>
      </trkpt>
      <trkpt lat="59.8723006" lon="17.8302625">
        <ele>18.4023</ele>
        <time>2013-05-15T14:58:28Z</time>
      </trkpt>
      <trkpt lat="59.8722194" lon="17.830187">
        <ele>18.4023</ele>
        <time>2013-05-15T14:58:29Z</time>
      </trkpt>
      <trkpt lat="59.8721394" lon="17.8301098">
        <ele>17.9218</ele>
        <time>2013-05-15T14:58:30Z</time>
      </trkpt>
      <trkpt lat="59.8720601" lon="17.830033">
        <ele>17.9218</ele>
        <time>2013-05-15T14:58:31Z</time>
      </trkpt>
      <trkpt lat="59.8719814" lon="17.8299587">
        <ele>17.4412</ele>
        <time>2013-05-15T14:58:32Z</time>
      </trkpt>
      <trkpt lat="59.8719019" lon="17.8298854">
        <ele>16.9604</ele>
        <time>2013-05-15T14:58:33Z</time>
      </trkpt>
      <trkpt lat="59.8718203" lon="17.8298076">
        <ele>16.9604</ele>
        <time>2013-05-15T14:58:34Z</time>
      </trkpt>
      <trkpt lat="59.8717378" lon="17.8297272">
        <ele>16.4797</ele>
        <time>2013-05-15T14:58:35Z</time>
      </trkpt>
      <trkpt lat="59.8716548" lon="17.8296482">
        <ele>16.4797</ele>
        <time>2013-05-15T14:58:36Z</time>
      </trkpt>
      <trkpt lat="59.8715717" lon="17.8295704">
        <ele>16.4797</ele>
        <time>2013-05-15T14:58:37Z</time>
      </trkpt>
      <trkpt lat="59.8714889" lon="17.8294928">
        <ele>16.4797</ele>
        <time>2013-05-15T14:58:38Z</time>
      </trkpt>
      <trkpt lat="59.8714079" lon="17.8294171">
        <ele>16.9604</ele>
        <time>2013-05-15T14:58:39Z</time>
      </trkpt>
      <trkpt lat="59.8713287" lon="17.8293423">
        <ele>16.9604</ele>
        <time>2013-05-15T14:58:40Z</time>
      </trkpt>
      <trkpt lat="59.8712512" lon="17.8292692">
        <ele>16.9604</ele>
        <time>2013-05-15T14:58:41Z</time>
      </trkpt>
      <trkpt lat="59.8711755" lon="17.8291962">
        <ele>16.9604</ele>
        <time>2013-05-15T14:58:42Z</time>
      </trkpt>
      <trkpt lat="59.8711009" lon="17.829124">
        <ele>16.9604</ele>
        <time>2013-05-15T14:58:43Z</time>
      </trkpt>
      <trkpt lat="59.8710268" lon="17.8290558">
        <ele>16.9604</ele>
        <time>2013-05-15T14:58:44Z</time>
      </trkpt>
      <trkpt lat="59.8709538" lon="17.8289883">
        <ele>16.9604</ele>
        <time>2013-05-15T14:58:45Z</time>
      </trkpt>
      <trkpt lat="59.8708821" lon="17.8289201">
        <ele>16.9604</ele>
        <time>2013-05-15T14:58:46Z</time>
      </trkpt>
      <trkpt lat="59.8708119" lon="17.8288539">
        <ele>17.4412</ele>
        <time>2013-05-15T14:58:47Z</time>
      </trkpt>
      <trkpt lat="59.8707433" lon="17.8287903">
        <ele>17.4412</ele>
        <time>2013-05-15T14:58:48Z</time>
      </trkpt>
      <trkpt lat="59.8706771" lon="17.8287255">
        <ele>17.4412</ele>
        <time>2013-05-15T14:58:49Z</time>
      </trkpt>
      <trkpt lat="59.8706125" lon="17.8286603">
        <ele>17.9218</ele>
        <time>2013-05-15T14:58:50Z</time>
      </trkpt>
      <trkpt lat="59.8705488" lon="17.8285989">
        <ele>17.9218</ele>
        <time>2013-05-15T14:58:51Z</time>
      </trkpt>
      <trkpt lat="59.8704881" lon="17.8285397">
        <ele>17.9218</ele>
        <time>2013-05-15T14:58:52Z</time>
      </trkpt>
      <trkpt lat="59.8704286" lon="17.828481">
        <ele>18.4023</ele>
        <time>2013-05-15T14:58:53Z</time>
      </trkpt>
      <trkpt lat="59.8703685" lon="17.8284233">
        <ele>18.8831</ele>
        <time>2013-05-15T14:58:54Z</time>
      </trkpt>
      <trkpt lat="59.8703083" lon="17.8283671">
        <ele>18.8831</ele>
        <time>2013-05-15T14:58:55Z</time>
      </trkpt>
      <trkpt lat="59.8702488" lon="17.8283115">
        <ele>19.3638</ele>
        <time>2013-05-15T14:58:56Z</time>
      </trkpt>
      <trkpt lat="59.8701901" lon="17.8282558">
        <ele>19.3638</ele>
        <time>2013-05-15T14:58:57Z</time>
      </trkpt>
      <trkpt lat="59.8701321" lon="17.8281997">
        <ele>19.8444</ele>
        <time>2013-05-15T14:58:58Z</time>
      </trkpt>
      <trkpt lat="59.8700756" lon="17.8281407">
        <ele>20.325</ele>
        <time>2013-05-15T14:58:59Z</time>
      </trkpt>
      <trkpt lat="59.8700208" lon="17.8280787">
        <ele>20.325</ele>
        <time>2013-05-15T14:59:00Z</time>
      </trkpt>
      <trkpt lat="59.8699665" lon="17.828018">
        <ele>20.8057</ele>
        <time>2013-05-15T14:59:01Z</time>
      </trkpt>
      <trkpt lat="59.8699124" lon="17.8279583">
        <ele>20.8057</ele>
        <time>2013-05-15T14:59:02Z</time>
      </trkpt>
      <trkpt lat="59.869859" lon="17.8278967">
        <ele>21.2864</ele>
        <time>2013-05-15T14:59:03Z</time>
      </trkpt>
      <trkpt lat="59.8698068" lon="17.827833">
        <ele>21.2864</ele>
        <time>2013-05-15T14:59:04Z</time>
      </trkpt>
      <trkpt lat="59.8697561" lon="17.8277662">
        <ele>21.767</ele>
        <time>2013-05-15T14:59:05Z</time>
      </trkpt>
      <trkpt lat="59.8697078" lon="17.8276973">
        <ele>21.767</ele>
        <time>2013-05-15T14:59:06Z</time>
      </trkpt>
      <trkpt lat="59.8696618" lon="17.8276273">
        <ele>22.2476</ele>
        <time>2013-05-15T14:59:07Z</time>
      </trkpt>
      <trkpt lat="59.8696184" lon="17.8275559">
        <ele>22.2476</ele>
        <time>2013-05-15T14:59:08Z</time>
      </trkpt>
      <trkpt lat="59.8695769" lon="17.8274827">
        <ele>22.7283</ele>
        <time>2013-05-15T14:59:09Z</time>
      </trkpt>
      <trkpt lat="59.8695365" lon="17.8274102">
        <ele>22.7283</ele>
        <time>2013-05-15T14:59:10Z</time>
      </trkpt>
      <trkpt lat="59.8694959" lon="17.8273384">
        <ele>22.7283</ele>
        <time>2013-05-15T14:59:11Z</time>
      </trkpt>
      <trkpt lat="59.8694546" lon="17.8272661">
        <ele>22.7283</ele>
        <time>2013-05-15T14:59:12Z</time>
      </trkpt>
      <trkpt lat="59.869412" lon="17.8271929">
        <ele>22.7283</ele>
        <time>2013-05-15T14:59:13Z</time>
      </trkpt>
      <trkpt lat="59.869368" lon="17.8271166">
        <ele>22.7283</ele>
        <time>2013-05-15T14:59:14Z</time>
      </trkpt>
      <trkpt lat="59.8693226" lon="17.8270392">
        <ele>22.7283</ele>
        <time>2013-05-15T14:59:15Z</time>
      </trkpt>
      <trkpt lat="59.8692753" lon="17.8269608">
        <ele>22.7283</ele>
        <time>2013-05-15T14:59:16Z</time>
      </trkpt>
      <trkpt lat="59.8692283" lon="17.8268833">
        <ele>22.7283</ele>
        <time>2013-05-15T14:59:17Z</time>
      </trkpt>
      <trkpt lat="59.8691831" lon="17.8268057">
        <ele>22.7283</ele>
        <time>2013-05-15T14:59:18Z</time>
      </trkpt>
      <trkpt lat="59.86914" lon="17.826727">
        <ele>22.7283</ele>
        <time>2013-05-15T14:59:19Z</time>
      </trkpt>
      <trkpt lat="59.8690963" lon="17.8266471">
        <ele>22.7283</ele>
        <time>2013-05-15T14:59:20Z</time>
      </trkpt>
      <trkpt lat="59.8690533" lon="17.8265678">
        <ele>22.7283</ele>
        <time>2013-05-15T14:59:21Z</time>
      </trkpt>
      <trkpt lat="59.8690112" lon="17.8264904">
        <ele>22.2476</ele>
        <time>2013-05-15T14:59:22Z</time>
      </trkpt>
      <trkpt lat="59.8689697" lon="17.8264132">
        <ele>22.2476</ele>
        <time>2013-05-15T14:59:23Z</time>
      </trkpt>
      <trkpt lat="59.8689285" lon="17.8263371">
        <ele>22.2476</ele>
        <time>2013-05-15T14:59:24Z</time>
      </trkpt>
      <trkpt lat="59.8688874" lon="17.8262637">
        <ele>22.2476</ele>
        <time>2013-05-15T14:59:25Z</time>
      </trkpt>
      <trkpt lat="59.8688479" lon="17.8261908">
        <ele>22.2476</ele>
        <time>2013-05-15T14:59:26Z</time>
      </trkpt>
      <trkpt lat="59.8688104" lon="17.8261194">
        <ele>22.2476</ele>
        <time>2013-05-15T14:59:27Z</time>
      </trkpt>
      <trkpt lat="59.868775" lon="17.826053">
        <ele>22.2476</ele>
        <time>2013-05-15T14:59:28Z</time>
      </trkpt>
      <trkpt lat="59.8687396" lon="17.8259908">
        <ele>22.2476</ele>
        <time>2013-05-15T14:59:29Z</time>
      </trkpt>
      <trkpt lat="59.8687037" lon="17.8259298">
        <ele>22.2476</ele>
        <time>2013-05-15T14:59:30Z</time>
      </trkpt>
      <trkpt lat="59.8686678" lon="17.8258712">
        <ele>21.767</ele>
        <time>2013-05-15T14:59:31Z</time>
      </trkpt>
      <trkpt lat="59.868629" lon="17.8258143">
        <ele>21.767</ele>
        <time>2013-05-15T14:59:32Z</time>
      </trkpt>
      <trkpt lat="59.868587" lon="17.8257605">
        <ele>21.767</ele>
        <time>2013-05-15T14:59:33Z</time>
      </trkpt>
      <trkpt lat="59.8685426" lon="17.8257108">
        <ele>21.767</ele>
        <time>2013-05-15T14:59:34Z</time>
      </trkpt>
      <trkpt lat="59.8684957" lon="17.8256632">
        <ele>21.2864</ele>
        <time>2013-05-15T14:59:35Z</time>
      </trkpt>
      <trkpt lat="59.8684471" lon="17.8256201">
        <ele>20.8057</ele>
        <time>2013-05-15T14:59:36Z</time>
      </trkpt>
      <trkpt lat="59.8683951" lon="17.8255886">
        <ele>20.325</ele>
        <time>2013-05-15T14:59:37Z</time>
      </trkpt>
      <trkpt lat="59.8683372" lon="17.8255636">
        <ele>20.325</ele>
        <time>2013-05-15T14:59:38Z</time>
      </trkpt>
      <trkpt lat="59.8682753" lon="17.8255475">
        <ele>19.8444</ele>
        <time>2013-05-15T14:59:39Z</time>
      </trkpt>
      <trkpt lat="59.8682136" lon="17.8255499">
        <ele>20.325</ele>
        <time>2013-05-15T14:59:40Z</time>
      </trkpt>
      <trkpt lat="59.8681511" lon="17.8255626">
        <ele>20.8057</ele>
        <time>2013-05-15T14:59:41Z</time>
      </trkpt>
      <trkpt lat="59.8680886" lon="17.8255808">
        <ele>21.2864</ele>
        <time>2013-05-15T14:59:42Z</time>
      </trkpt>
      <trkpt lat="59.868027" lon="17.8256137">
        <ele>21.2864</ele>
        <time>2013-05-15T14:59:43Z</time>
      </trkpt>
      <trkpt lat="59.8679652" lon="17.8256574">
        <ele>21.2864</ele>
        <time>2013-05-15T14:59:44Z</time>
      </trkpt>
      <trkpt lat="59.8679" lon="17.8257076">
        <ele>21.2864</ele>
        <time>2013-05-15T14:59:45Z</time>
      </trkpt>
      <trkpt lat="59.8678334" lon="17.8257594">
        <ele>21.2864</ele>
        <time>2013-05-15T14:59:46Z</time>
      </trkpt>
      <trkpt lat="59.8677668" lon="17.8258117">
        <ele>21.2864</ele>
        <time>2013-05-15T14:59:47Z</time>
      </trkpt>
      <trkpt lat="59.8676989" lon="17.8258629">
        <ele>20.8057</ele>
        <time>2013-05-15T14:59:48Z</time>
      </trkpt>
      <trkpt lat="59.8676287" lon="17.8259106">
        <ele>20.8057</ele>
        <time>2013-05-15T14:59:49Z</time>
      </trkpt>
      <trkpt lat="59.8675567" lon="17.8259619">
        <ele>20.8057</ele>
        <time>2013-05-15T14:59:50Z</time>
      </trkpt>
      <trkpt lat="59.8674832" lon="17.8260174">
        <ele>20.325</ele>
        <time>2013-05-15T14:59:51Z</time>
      </trkpt>
      <trkpt lat="59.867408" lon="17.8260739">
        <ele>20.325</ele>
        <time>2013-05-15T14:59:52Z</time>
      </trkpt>
      <trkpt lat="59.8673309" lon="17.8261303">
        <ele>19.8444</ele>
        <time>2013-05-15T14:59:53Z</time>
      </trkpt>
      <trkpt lat="59.8672527" lon="17.8261874">
        <ele>19.8444</ele>
        <time>2013-05-15T14:59:54Z</time>
      </trkpt>
      <trkpt lat="59.8671743" lon="17.8262473">
        <ele>19.3638</ele>
        <time>2013-05-15T14:59:55Z</time>
      </trkpt>
      <trkpt lat="59.8670946" lon="17.8263048">
        <ele>19.3638</ele>
        <time>2013-05-15T14:59:56Z</time>
      </trkpt>
      <trkpt lat="59.8670138" lon="17.8263597">
        <ele>18.8831</ele>
        <time>2013-05-15T14:59:57Z</time>
      </trkpt>
      <trkpt lat="59.8669334" lon="17.8264174">
        <ele>18.8831</ele>
        <time>2013-05-15T14:59:58Z</time>
      </trkpt>
      <trkpt lat="59.8668527" lon="17.8264686">
        <ele>18.8831</ele>
        <time>2013-05-15T14:59:59Z</time>
      </trkpt>
      <trkpt lat="59.8667723" lon="17.8265153">
        <ele>18.4023</ele>
        <time>2013-05-15T15:00:00Z</time>
      </trkpt>
      <trkpt lat="59.866691" lon="17.8265588">
        <ele>18.4023</ele>
        <time>2013-05-15T15:00:01Z</time>
      </trkpt>
      <trkpt lat="59.8666096" lon="17.8265976">
        <ele>18.4023</ele>
        <time>2013-05-15T15:00:02Z</time>
      </trkpt>
      <trkpt lat="59.8665289" lon="17.8266301">
        <ele>17.9218</ele>
        <time>2013-05-15T15:00:03Z</time>
      </trkpt>
      <trkpt lat="59.8664497" lon="17.8266575">
        <ele>17.9218</ele>
        <time>2013-05-15T15:00:04Z</time>
      </trkpt>
      <trkpt lat="59.8663721" lon="17.8266782">
        <ele>17.9218</ele>
        <time>2013-05-15T15:00:05Z</time>
      </trkpt>
      <trkpt lat="59.8662965" lon="17.8266978">
        <ele>17.9218</ele>
        <time>2013-05-15T15:00:06Z</time>
      </trkpt>
      <trkpt lat="59.8662222" lon="17.8267108">
        <ele>17.4412</ele>
        <time>2013-05-15T15:00:07Z</time>
      </trkpt>
      <trkpt lat="59.866148" lon="17.8267147">
        <ele>16.9604</ele>
        <time>2013-05-15T15:00:08Z</time>
      </trkpt>
      <trkpt lat="59.8660744" lon="17.8267059">
        <ele>16.9604</ele>
        <time>2013-05-15T15:00:09Z</time>
      </trkpt>
      <trkpt lat="59.8660019" lon="17.8266933">
        <ele>16.4797</ele>
        <time>2013-05-15T15:00:10Z</time>
      </trkpt>
      <trkpt lat="59.8659275" lon="17.8266804">
        <ele>15.999</ele>
        <time>2013-05-15T15:00:11Z</time>
      </trkpt>
      <trkpt lat="59.865852" lon="17.8266618">
        <ele>15.999</ele>
        <time>2013-05-15T15:00:12Z</time>
      </trkpt>
      <trkpt lat="59.8657759" lon="17.8266398">
        <ele>15.5184</ele>
        <time>2013-05-15T15:00:13Z</time>
      </trkpt>
      <trkpt lat="59.8657006" lon="17.8266144">
        <ele>15.0377</ele>
        <time>2013-05-15T15:00:14Z</time>
      </trkpt>
      <trkpt lat="59.8656261" lon="17.8265933">
        <ele>15.0377</ele>
        <time>2013-05-15T15:00:15Z</time>
      </trkpt>
      <trkpt lat="59.8655526" lon="17.8265767">
        <ele>15.5184</ele>
        <time>2013-05-15T15:00:16Z</time>
      </trkpt>
      <trkpt lat="59.8654806" lon="17.8265621">
        <ele>15.5184</ele>
        <time>2013-05-15T15:00:17Z</time>
      </trkpt>
      <trkpt lat="59.865409" lon="17.8265494">
        <ele>15.5184</ele>
        <time>2013-05-15T15:00:18Z</time>
      </trkpt>
      <trkpt lat="59.8653379" lon="17.8265352">
        <ele>15.999</ele>
        <time>2013-05-15T15:00:19Z</time>
      </trkpt>
      <trkpt lat="59.8652682" lon="17.8265166">
        <ele>15.999</ele>
        <time>2013-05-15T15:00:20Z</time>
      </trkpt>
      <trkpt lat="59.8652013" lon="17.8264851">
        <ele>15.999</ele>
        <time>2013-05-15T15:00:21Z</time>
      </trkpt>
      <trkpt lat="59.8651376" lon="17.826439">
        <ele>16.4797</ele>
        <time>2013-05-15T15:00:22Z</time>
      </trkpt>
      <trkpt lat="59.8650796" lon="17.8263752">
        <ele>16.9604</ele>
        <time>2013-05-15T15:00:23Z</time>
      </trkpt>
      <trkpt lat="59.8650257" lon="17.8263002">
        <ele>16.9604</ele>
        <time>2013-05-15T15:00:24Z</time>
      </trkpt>
      <trkpt lat="59.8649744" lon="17.8262179">
        <ele>16.9604</ele>
        <time>2013-05-15T15:00:25Z</time>
      </trkpt>
      <trkpt lat="59.8649234" lon="17.8261267">
        <ele>16.9604</ele>
        <time>2013-05-15T15:00:26Z</time>
      </trkpt>
      <trkpt lat="59.8648723" lon="17.8260298">
        <ele>16.9604</ele>
        <time>2013-05-15T15:00:27Z</time>
      </trkpt>
      <trkpt lat="59.8648214" lon="17.8259276">
        <ele>16.4797</ele>
        <time>2013-05-15T15:00:28Z</time>
      </trkpt>
      <trkpt lat="59.8647685" lon="17.8258185">
        <ele>15.5184</ele>
        <time>2013-05-15T15:00:29Z</time>
      </trkpt>
      <trkpt lat="59.8647144" lon="17.8257014">
        <ele>15.5184</ele>
        <time>2013-05-15T15:00:30Z</time>
      </trkpt>
      <trkpt lat="59.86466" lon="17.8255792">
        <ele>14.557</ele>
        <time>2013-05-15T15:00:31Z</time>
      </trkpt>
      <trkpt lat="59.8646041" lon="17.8254544">
        <ele>14.0764</ele>
        <time>2013-05-15T15:00:32Z</time>
      </trkpt>
      <trkpt lat="59.8645468" lon="17.8253264">
        <ele>14.0764</ele>
        <time>2013-05-15T15:00:33Z</time>
      </trkpt>
      <trkpt lat="59.8644886" lon="17.8251958">
        <ele>13.5958</ele>
        <time>2013-05-15T15:00:34Z</time>
      </trkpt>
      <trkpt lat="59.8644304" lon="17.8250656">
        <ele>13.1151</ele>
        <time>2013-05-15T15:00:35Z</time>
      </trkpt>
      <trkpt lat="59.8643718" lon="17.8249364">
        <ele>13.1151</ele>
        <time>2013-05-15T15:00:36Z</time>
      </trkpt>
      <trkpt lat="59.8643138" lon="17.8248069">
        <ele>12.6344</ele>
        <time>2013-05-15T15:00:37Z</time>
      </trkpt>
      <trkpt lat="59.864256" lon="17.8246763">
        <ele>12.6344</ele>
        <time>2013-05-15T15:00:38Z</time>
      </trkpt>
      <trkpt lat="59.8641999" lon="17.8245515">
        <ele>12.6344</ele>
        <time>2013-05-15T15:00:39Z</time>
      </trkpt>
      <trkpt lat="59.8641446" lon="17.8244297">
        <ele>12.6344</ele>
        <time>2013-05-15T15:00:40Z</time>
      </trkpt>
      <trkpt lat="59.8640908" lon="17.8243099">
        <ele>12.1538</ele>
        <time>2013-05-15T15:00:41Z</time>
      </trkpt>
      <trkpt lat="59.8640373" lon="17.8241917">
        <ele>12.1538</ele>
        <time>2013-05-15T15:00:42Z</time>
      </trkpt>
      <trkpt lat="59.8639835" lon="17.8240731">
        <ele>12.1538</ele>
        <time>2013-05-15T15:00:43Z</time>
      </trkpt>
      <trkpt lat="59.86393" lon="17.823954">
        <ele>12.1538</ele>
        <time>2013-05-15T15:00:44Z</time>
      </trkpt>
      <trkpt lat="59.8638772" lon="17.8238364">
        <ele>11.6732</ele>
        <time>2013-05-15T15:00:45Z</time>
      </trkpt>
      <trkpt lat="59.8638243" lon="17.8237179">
        <ele>12.1538</ele>
        <time>2013-05-15T15:00:46Z</time>
      </trkpt>
      <trkpt lat="59.8637716" lon="17.8236002">
        <ele>12.1538</ele>
        <time>2013-05-15T15:00:47Z</time>
      </trkpt>
      <trkpt lat="59.8637175" lon="17.8234839">
        <ele>11.6732</ele>
        <time>2013-05-15T15:00:48Z</time>
      </trkpt>
      <trkpt lat="59.8636652" lon="17.8233665">
        <ele>11.1925</ele>
        <time>2013-05-15T15:00:49Z</time>
      </trkpt>
      <trkpt lat="59.8636151" lon="17.8232502">
        <ele>11.1925</ele>
        <time>2013-05-15T15:00:50Z</time>
      </trkpt>
      <trkpt lat="59.8635657" lon="17.823137">
        <ele>11.1925</ele>
        <time>2013-05-15T15:00:51Z</time>
      </trkpt>
      <trkpt lat="59.8635165" lon="17.8230248">
        <ele>11.1925</ele>
        <time>2013-05-15T15:00:52Z</time>
      </trkpt>
      <trkpt lat="59.8634694" lon="17.8229125">
        <ele>10.7118</ele>
        <time>2013-05-15T15:00:53Z</time>
      </trkpt>
      <trkpt lat="59.863424" lon="17.8228">
        <ele>10.7118</ele>
        <time>2013-05-15T15:00:54Z</time>
      </trkpt>
      <trkpt lat="59.86338" lon="17.8226881">
        <ele>10.7118</ele>
        <time>2013-05-15T15:00:55Z</time>
      </trkpt>
      <trkpt lat="59.863337" lon="17.8225769">
        <ele>10.7118</ele>
        <time>2013-05-15T15:00:56Z</time>
      </trkpt>
      <trkpt lat="59.863295" lon="17.8224684">
        <ele>10.7118</ele>
        <time>2013-05-15T15:00:57Z</time>
      </trkpt>
      <trkpt lat="59.8632551" lon="17.8223624">
        <ele>11.1925</ele>
        <time>2013-05-15T15:00:58Z</time>
      </trkpt>
      <trkpt lat="59.8632173" lon="17.8222578">
        <ele>11.1925</ele>
        <time>2013-05-15T15:00:59Z</time>
      </trkpt>
      <trkpt lat="59.8631808" lon="17.8221561">
        <ele>11.6732</ele>
        <time>2013-05-15T15:01:00Z</time>
      </trkpt>
      <trkpt lat="59.8631468" lon="17.8220577">
        <ele>12.1538</ele>
        <time>2013-05-15T15:01:01Z</time>
      </trkpt>
      <trkpt lat="59.8631168" lon="17.8219638">
        <ele>12.1538</ele>
        <time>2013-05-15T15:01:02Z</time>
      </trkpt>
      <trkpt lat="59.8630874" lon="17.8218728">
        <ele>12.6344</ele>
        <time>2013-05-15T15:01:03Z</time>
      </trkpt>
      <trkpt lat="59.8630567" lon="17.8217822">
        <ele>12.6344</ele>
        <time>2013-05-15T15:01:04Z</time>
      </trkpt>
      <trkpt lat="59.863027" lon="17.8216914">
        <ele>12.6344</ele>
        <time>2013-05-15T15:01:05Z</time>
      </trkpt>
      <trkpt lat="59.8629997" lon="17.8215978">
        <ele>13.1151</ele>
        <time>2013-05-15T15:01:06Z</time>
      </trkpt>
      <trkpt lat="59.8629727" lon="17.8215027">
        <ele>13.1151</ele>
        <time>2013-05-15T15:01:07Z</time>
      </trkpt>
      <trkpt lat="59.8629449" lon="17.8214085">
        <ele>13.1151</ele>
        <time>2013-05-15T15:01:08Z</time>
      </trkpt>
      <trkpt lat="59.8629163" lon="17.8213144">
        <ele>13.5958</ele>
        <time>2013-05-15T15:01:09Z</time>
      </trkpt>
      <trkpt lat="59.8628884" lon="17.8212218">
        <ele>13.5958</ele>
        <time>2013-05-15T15:01:10Z</time>
      </trkpt>
      <trkpt lat="59.8628619" lon="17.8211313">
        <ele>14.0764</ele>
        <time>2013-05-15T15:01:11Z</time>
      </trkpt>
      <trkpt lat="59.8628364" lon="17.8210408">
        <ele>14.0764</ele>
        <time>2013-05-15T15:01:12Z</time>
      </trkpt>
      <trkpt lat="59.8628122" lon="17.8209532">
        <ele>14.0764</ele>
        <time>2013-05-15T15:01:13Z</time>
      </trkpt>
      <trkpt lat="59.8627884" lon="17.8208703">
        <ele>14.557</ele>
        <time>2013-05-15T15:01:14Z</time>
      </trkpt>
      <trkpt lat="59.8627633" lon="17.8207869">
        <ele>14.557</ele>
        <time>2013-05-15T15:01:15Z</time>
      </trkpt>
      <trkpt lat="59.8627371" lon="17.8207032">
        <ele>15.0377</ele>
        <time>2013-05-15T15:01:16Z</time>
      </trkpt>
      <trkpt lat="59.8627193" lon="17.8206312">
        <ele>15.5184</ele>
        <time>2013-05-15T15:01:17Z</time>
      </trkpt>
      <trkpt lat="59.8627013" lon="17.8205633">
        <ele>15.5184</ele>
        <time>2013-05-15T15:01:18Z</time>
      </trkpt>
      <trkpt lat="59.8626854" lon="17.8204968">
        <ele>15.5184</ele>
        <time>2013-05-15T15:01:19Z</time>
      </trkpt>
      <trkpt lat="59.8626727" lon="17.8204295">
        <ele>15.999</ele>
        <time>2013-05-15T15:01:20Z</time>
      </trkpt>
      <trkpt lat="59.8626625" lon="17.8203628">
        <ele>15.999</ele>
        <time>2013-05-15T15:01:21Z</time>
      </trkpt>
      <trkpt lat="59.8626511" lon="17.8202976">
        <ele>15.999</ele>
        <time>2013-05-15T15:01:22Z</time>
      </trkpt>
      <trkpt lat="59.8626354" lon="17.8202266">
        <ele>15.999</ele>
        <time>2013-05-15T15:01:23Z</time>
      </trkpt>
      <trkpt lat="59.8626199" lon="17.820151">
        <ele>16.4797</ele>
        <time>2013-05-15T15:01:24Z</time>
      </trkpt>
      <trkpt lat="59.8626035" lon="17.8200737">
        <ele>16.4797</ele>
        <time>2013-05-15T15:01:25Z</time>
      </trkpt>
      <trkpt lat="59.8625862" lon="17.8199963">
        <ele>16.4797</ele>
        <time>2013-05-15T15:01:26Z</time>
      </trkpt>
      <trkpt lat="59.8625688" lon="17.8199109">
        <ele>16.9604</ele>
        <time>2013-05-15T15:01:27Z</time>
      </trkpt>
      <trkpt lat="59.8625522" lon="17.8198239">
        <ele>17.4412</ele>
        <time>2013-05-15T15:01:28Z</time>
      </trkpt>
      <trkpt lat="59.862535" lon="17.8197381">
        <ele>17.4412</ele>
        <time>2013-05-15T15:01:29Z</time>
      </trkpt>
      <trkpt lat="59.8625162" lon="17.8196463">
        <ele>17.9218</ele>
        <time>2013-05-15T15:01:30Z</time>
      </trkpt>
      <trkpt lat="59.8624961" lon="17.819556">
        <ele>17.9218</ele>
        <time>2013-05-15T15:01:31Z</time>
      </trkpt>
      <trkpt lat="59.8624822" lon="17.8194704">
        <ele>18.4023</ele>
        <time>2013-05-15T15:01:32Z</time>
      </trkpt>
      <trkpt lat="59.8624661" lon="17.8193873">
        <ele>18.4023</ele>
        <time>2013-05-15T15:01:33Z</time>
      </trkpt>
      <trkpt lat="59.862447" lon="17.8193091">
        <ele>18.8831</ele>
        <time>2013-05-15T15:01:34Z</time>
      </trkpt>
      <trkpt lat="59.8624242" lon="17.8192315">
        <ele>19.3638</ele>
        <time>2013-05-15T15:01:35Z</time>
      </trkpt>
      <trkpt lat="59.8623969" lon="17.8191523">
        <ele>19.8444</ele>
        <time>2013-05-15T15:01:36Z</time>
      </trkpt>
      <trkpt lat="59.8623631" lon="17.8190777">
        <ele>20.325</ele>
        <time>2013-05-15T15:01:37Z</time>
      </trkpt>
      <trkpt lat="59.8623233" lon="17.8190062">
        <ele>21.2864</ele>
        <time>2013-05-15T15:01:38Z</time>
      </trkpt>
      <trkpt lat="59.8622849" lon="17.8189315">
        <ele>22.2476</ele>
        <time>2013-05-15T15:01:39Z</time>
      </trkpt>
      <trkpt lat="59.8622443" lon="17.8188699">
        <ele>22.2476</ele>
        <time>2013-05-15T15:01:40Z</time>
      </trkpt>
      <trkpt lat="59.8621977" lon="17.8188202">
        <ele>22.2476</ele>
        <time>2013-05-15T15:01:41Z</time>
      </trkpt>
      <trkpt lat="59.8621484" lon="17.8187823">
        <ele>22.7283</ele>
        <time>2013-05-15T15:01:42Z</time>
      </trkpt>
      <trkpt lat="59.8620524" lon="17.8187129">
        <ele>24.1703</ele>
        <time>2013-05-15T15:01:44Z</time>
      </trkpt>
      <trkpt lat="59.8620029" lon="17.8186806">
        <ele>25.1317</ele>
        <time>2013-05-15T15:01:45Z</time>
      </trkpt>
      <trkpt lat="59.8619543" lon="17.8186502">
        <ele>25.1317</ele>
        <time>2013-05-15T15:01:46Z</time>
      </trkpt>
      <trkpt lat="59.8619058" lon="17.8186158">
        <ele>25.6123</ele>
        <time>2013-05-15T15:01:47Z</time>
      </trkpt>
      <trkpt lat="59.8618573" lon="17.8185848">
        <ele>25.6123</ele>
        <time>2013-05-15T15:01:48Z</time>
      </trkpt>
      <trkpt lat="59.8618055" lon="17.8185477">
        <ele>25.1317</ele>
        <time>2013-05-15T15:01:49Z</time>
      </trkpt>
      <trkpt lat="59.8617555" lon="17.8185176">
        <ele>24.651</ele>
        <time>2013-05-15T15:01:50Z</time>
      </trkpt>
      <trkpt lat="59.8617135" lon="17.8184917">
        <ele>24.651</ele>
        <time>2013-05-15T15:01:51Z</time>
      </trkpt>
      <trkpt lat="59.8616721" lon="17.8184663">
        <ele>24.1703</ele>
        <time>2013-05-15T15:01:52Z</time>
      </trkpt>
      <trkpt lat="59.8616339" lon="17.8184457">
        <ele>24.1703</ele>
        <time>2013-05-15T15:01:53Z</time>
      </trkpt>
      <trkpt lat="59.8615937" lon="17.8184147">
        <ele>24.1703</ele>
        <time>2013-05-15T15:01:54Z</time>
      </trkpt>
      <trkpt lat="59.8615504" lon="17.8183773">
        <ele>23.6896</ele>
        <time>2013-05-15T15:01:55Z</time>
      </trkpt>
      <trkpt lat="59.8615048" lon="17.8183348">
        <ele>23.209</ele>
        <time>2013-05-15T15:01:56Z</time>
      </trkpt>
      <trkpt lat="59.8614519" lon="17.8182975">
        <ele>22.7283</ele>
        <time>2013-05-15T15:01:57Z</time>
      </trkpt>
      <trkpt lat="59.8613951" lon="17.818255">
        <ele>22.2476</ele>
        <time>2013-05-15T15:01:58Z</time>
      </trkpt>
      <trkpt lat="59.8613365" lon="17.81821">
        <ele>22.2476</ele>
        <time>2013-05-15T15:01:59Z</time>
      </trkpt>
      <trkpt lat="59.8612757" lon="17.818161">
        <ele>22.7283</ele>
        <time>2013-05-15T15:02:00Z</time>
      </trkpt>
      <trkpt lat="59.8612157" lon="17.8181052">
        <ele>22.7283</ele>
        <time>2013-05-15T15:02:01Z</time>
      </trkpt>
      <trkpt lat="59.8611582" lon="17.818044">
        <ele>22.2476</ele>
        <time>2013-05-15T15:02:02Z</time>
      </trkpt>
      <trkpt lat="59.861101" lon="17.8179856">
        <ele>21.767</ele>
        <time>2013-05-15T15:02:03Z</time>
      </trkpt>
      <trkpt lat="59.8610474" lon="17.8179312">
        <ele>21.767</ele>
        <time>2013-05-15T15:02:04Z</time>
      </trkpt>
      <trkpt lat="59.8609925" lon="17.8178645">
        <ele>21.767</ele>
        <time>2013-05-15T15:02:05Z</time>
      </trkpt>
      <trkpt lat="59.8609202" lon="17.8177599">
        <ele>21.2864</ele>
        <time>2013-05-15T15:02:06Z</time>
      </trkpt>
      <trkpt lat="59.8608548" lon="17.8176837">
        <ele>21.2864</ele>
        <time>2013-05-15T15:02:07Z</time>
      </trkpt>
      <trkpt lat="59.8607853" lon="17.8175982">
        <ele>20.8057</ele>
        <time>2013-05-15T15:02:08Z</time>
      </trkpt>
      <trkpt lat="59.8607178" lon="17.8175224">
        <ele>20.325</ele>
        <time>2013-05-15T15:02:09Z</time>
      </trkpt>
      <trkpt lat="59.8606515" lon="17.8174412">
        <ele>19.8444</ele>
        <time>2013-05-15T15:02:10Z</time>
      </trkpt>
      <trkpt lat="59.8605889" lon="17.8173552">
        <ele>19.8444</ele>
        <time>2013-05-15T15:02:11Z</time>
      </trkpt>
      <trkpt lat="59.8605273" lon="17.8172657">
        <ele>19.3638</ele>
        <time>2013-05-15T15:02:12Z</time>
      </trkpt>
      <trkpt lat="59.8604649" lon="17.817177">
        <ele>19.3638</ele>
        <time>2013-05-15T15:02:13Z</time>
      </trkpt>
      <trkpt lat="59.8604024" lon="17.8170879">
        <ele>19.3638</ele>
        <time>2013-05-15T15:02:14Z</time>
      </trkpt>
      <trkpt lat="59.8603409" lon="17.8169997">
        <ele>18.8831</ele>
        <time>2013-05-15T15:02:15Z</time>
      </trkpt>
      <trkpt lat="59.8602792" lon="17.8169138">
        <ele>19.3638</ele>
        <time>2013-05-15T15:02:16Z</time>
      </trkpt>
      <trkpt lat="59.8602174" lon="17.81683">
        <ele>19.3638</ele>
        <time>2013-05-15T15:02:17Z</time>
      </trkpt>
      <trkpt lat="59.8601574" lon="17.8167516">
        <ele>19.3638</ele>
        <time>2013-05-15T15:02:18Z</time>
      </trkpt>
      <trkpt lat="59.8600983" lon="17.8166813">
        <ele>19.3638</ele>
        <time>2013-05-15T15:02:19Z</time>
      </trkpt>
      <trkpt lat="59.8600353" lon="17.8166117">
        <ele>19.3638</ele>
        <time>2013-05-15T15:02:20Z</time>
      </trkpt>
      <trkpt lat="59.8599725" lon="17.8165451">
        <ele>19.3638</ele>
        <time>2013-05-15T15:02:21Z</time>
      </trkpt>
      <trkpt lat="59.8599092" lon="17.8164818">
        <ele>19.3638</ele>
        <time>2013-05-15T15:02:22Z</time>
      </trkpt>
      <trkpt lat="59.8598445" lon="17.8164233">
        <ele>19.8444</ele>
        <time>2013-05-15T15:02:23Z</time>
      </trkpt>
      <trkpt lat="59.8597782" lon="17.81637">
        <ele>19.8444</ele>
        <time>2013-05-15T15:02:24Z</time>
      </trkpt>
      <trkpt lat="59.8597141" lon="17.8163176">
        <ele>19.8444</ele>
        <time>2013-05-15T15:02:25Z</time>
      </trkpt>
      <trkpt lat="59.8596506" lon="17.8162638">
        <ele>19.8444</ele>
        <time>2013-05-15T15:02:26Z</time>
      </trkpt>
      <trkpt lat="59.8595874" lon="17.8162099">
        <ele>19.8444</ele>
        <time>2013-05-15T15:02:27Z</time>
      </trkpt>
      <trkpt lat="59.8595247" lon="17.8161559">
        <ele>19.8444</ele>
        <time>2013-05-15T15:02:28Z</time>
      </trkpt>
      <trkpt lat="59.8594613" lon="17.8161032">
        <ele>19.8444</ele>
        <time>2013-05-15T15:02:29Z</time>
      </trkpt>
      <trkpt lat="59.8593964" lon="17.8160524">
        <ele>19.3638</ele>
        <time>2013-05-15T15:02:30Z</time>
      </trkpt>
      <trkpt lat="59.85933" lon="17.8159968">
        <ele>19.3638</ele>
        <time>2013-05-15T15:02:31Z</time>
      </trkpt>
      <trkpt lat="59.8592659" lon="17.815942">
        <ele>19.3638</ele>
        <time>2013-05-15T15:02:32Z</time>
      </trkpt>
      <trkpt lat="59.8592013" lon="17.8158856">
        <ele>19.8444</ele>
        <time>2013-05-15T15:02:33Z</time>
      </trkpt>
      <trkpt lat="59.8591344" lon="17.8158253">
        <ele>19.8444</ele>
        <time>2013-05-15T15:02:34Z</time>
      </trkpt>
      <trkpt lat="59.8590717" lon="17.8157763">
        <ele>20.325</ele>
        <time>2013-05-15T15:02:35Z</time>
      </trkpt>
      <trkpt lat="59.8590106" lon="17.815722">
        <ele>20.325</ele>
        <time>2013-05-15T15:02:36Z</time>
      </trkpt>
      <trkpt lat="59.8589487" lon="17.8156746">
        <ele>20.325</ele>
        <time>2013-05-15T15:02:37Z</time>
      </trkpt>
      <trkpt lat="59.8588871" lon="17.8156262">
        <ele>20.8057</ele>
        <time>2013-05-15T15:02:38Z</time>
      </trkpt>
      <trkpt lat="59.8588241" lon="17.8155788">
        <ele>21.2864</ele>
        <time>2013-05-15T15:02:39Z</time>
      </trkpt>
      <trkpt lat="59.8587639" lon="17.815524">
        <ele>20.8057</ele>
        <time>2013-05-15T15:02:40Z</time>
      </trkpt>
      <trkpt lat="59.8587049" lon="17.8154747">
        <ele>20.8057</ele>
        <time>2013-05-15T15:02:41Z</time>
      </trkpt>
      <trkpt lat="59.8586455" lon="17.8154288">
        <ele>20.8057</ele>
        <time>2013-05-15T15:02:42Z</time>
      </trkpt>
      <trkpt lat="59.8585874" lon="17.8153883">
        <ele>20.8057</ele>
        <time>2013-05-15T15:02:43Z</time>
      </trkpt>
      <trkpt lat="59.8585314" lon="17.8153412">
        <ele>21.2864</ele>
        <time>2013-05-15T15:02:44Z</time>
      </trkpt>
      <trkpt lat="59.8584778" lon="17.8152972">
        <ele>20.8057</ele>
        <time>2013-05-15T15:02:45Z</time>
      </trkpt>
      <trkpt lat="59.858426" lon="17.8152557">
        <ele>20.8057</ele>
        <time>2013-05-15T15:02:46Z</time>
      </trkpt>
      <trkpt lat="59.8583765" lon="17.8152122">
        <ele>20.8057</ele>
        <time>2013-05-15T15:02:47Z</time>
      </trkpt>
      <trkpt lat="59.8583279" lon="17.8151695">
        <ele>20.8057</ele>
        <time>2013-05-15T15:02:48Z</time>
      </trkpt>
      <trkpt lat="59.8582784" lon="17.8151305">
        <ele>20.8057</ele>
        <time>2013-05-15T15:02:49Z</time>
      </trkpt>
      <trkpt lat="59.8582284" lon="17.8150997">
        <ele>20.325</ele>
        <time>2013-05-15T15:02:50Z</time>
      </trkpt>
      <trkpt lat="59.8581744" lon="17.8150692">
        <ele>20.325</ele>
        <time>2013-05-15T15:02:51Z</time>
      </trkpt>
      <trkpt lat="59.858118" lon="17.8150369">
        <ele>20.325</ele>
        <time>2013-05-15T15:02:52Z</time>
      </trkpt>
      <trkpt lat="59.8580615" lon="17.8150015">
        <ele>20.325</ele>
        <time>2013-05-15T15:02:53Z</time>
      </trkpt>
      <trkpt lat="59.8580025" lon="17.8149677">
        <ele>19.8444</ele>
        <time>2013-05-15T15:02:54Z</time>
      </trkpt>
      <trkpt lat="59.8579397" lon="17.8149407">
        <ele>19.3638</ele>
        <time>2013-05-15T15:02:55Z</time>
      </trkpt>
      <trkpt lat="59.8578771" lon="17.8149123">
        <ele>18.8831</ele>
        <time>2013-05-15T15:02:56Z</time>
      </trkpt>
      <trkpt lat="59.8578223" lon="17.814878">
        <ele>18.8831</ele>
        <time>2013-05-15T15:02:57Z</time>
      </trkpt>
      <trkpt lat="59.8577767" lon="17.8148335">
        <ele>19.3638</ele>
        <time>2013-05-15T15:02:58Z</time>
      </trkpt>
      <trkpt lat="59.8577461" lon="17.8147817">
        <ele>19.8444</ele>
        <time>2013-05-15T15:02:59Z</time>
      </trkpt>
      <trkpt lat="59.857729" lon="17.8147266">
        <ele>20.325</ele>
        <time>2013-05-15T15:03:00Z</time>
      </trkpt>
      <trkpt lat="59.8577252" lon="17.8146692">
        <ele>20.325</ele>
        <time>2013-05-15T15:03:01Z</time>
      </trkpt>
      <trkpt lat="59.8577281" lon="17.8146019">
        <ele>21.2864</ele>
        <time>2013-05-15T15:03:02Z</time>
      </trkpt>
      <trkpt lat="59.857735" lon="17.8145247">
        <ele>21.767</ele>
        <time>2013-05-15T15:03:03Z</time>
      </trkpt>
      <trkpt lat="59.8577483" lon="17.8144404">
        <ele>22.2476</ele>
        <time>2013-05-15T15:03:04Z</time>
      </trkpt>
      <trkpt lat="59.8577642" lon="17.8143457">
        <ele>22.7283</ele>
        <time>2013-05-15T15:03:05Z</time>
      </trkpt>
      <trkpt lat="59.8577824" lon="17.8142467">
        <ele>23.209</ele>
        <time>2013-05-15T15:03:06Z</time>
      </trkpt>
      <trkpt lat="59.857801" lon="17.8141413">
        <ele>23.6896</ele>
        <time>2013-05-15T15:03:07Z</time>
      </trkpt>
      <trkpt lat="59.8578203" lon="17.8140294">
        <ele>24.1703</ele>
        <time>2013-05-15T15:03:08Z</time>
      </trkpt>
      <trkpt lat="59.8578398" lon="17.8139123">
        <ele>24.651</ele>
        <time>2013-05-15T15:03:09Z</time>
      </trkpt>
      <trkpt lat="59.8578585" lon="17.8137875">
        <ele>25.1317</ele>
        <time>2013-05-15T15:03:10Z</time>
      </trkpt>
      <trkpt lat="59.8578766" lon="17.8136566">
        <ele>25.6123</ele>
        <time>2013-05-15T15:03:11Z</time>
      </trkpt>
      <trkpt lat="59.857893" lon="17.8135223">
        <ele>25.6123</ele>
        <time>2013-05-15T15:03:12Z</time>
      </trkpt>
      <trkpt lat="59.8579093" lon="17.8133842">
        <ele>26.0929</ele>
        <time>2013-05-15T15:03:13Z</time>
      </trkpt>
      <trkpt lat="59.8579265" lon="17.8132437">
        <ele>26.0929</ele>
        <time>2013-05-15T15:03:14Z</time>
      </trkpt>
      <trkpt lat="59.8579423" lon="17.8130992">
        <ele>26.0929</ele>
        <time>2013-05-15T15:03:15Z</time>
      </trkpt>
      <trkpt lat="59.8579548" lon="17.8129473">
        <ele>26.0929</ele>
        <time>2013-05-15T15:03:16Z</time>
      </trkpt>
      <trkpt lat="59.8579668" lon="17.8127943">
        <ele>26.0929</ele>
        <time>2013-05-15T15:03:17Z</time>
      </trkpt>
      <trkpt lat="59.8579769" lon="17.8126367">
        <ele>26.0929</ele>
        <time>2013-05-15T15:03:18Z</time>
      </trkpt>
      <trkpt lat="59.8579854" lon="17.8124759">
        <ele>26.0929</ele>
        <time>2013-05-15T15:03:19Z</time>
      </trkpt>
      <trkpt lat="59.8579925" lon="17.8123155">
        <ele>26.0929</ele>
        <time>2013-05-15T15:03:20Z</time>
      </trkpt>
      <trkpt lat="59.8579973" lon="17.8121561">
        <ele>26.5736</ele>
        <time>2013-05-15T15:03:21Z</time>
      </trkpt>
      <trkpt lat="59.858" lon="17.8119967">
        <ele>26.5736</ele>
        <time>2013-05-15T15:03:22Z</time>
      </trkpt>
      <trkpt lat="59.8580004" lon="17.8118377">
        <ele>26.5736</ele>
        <time>2013-05-15T15:03:23Z</time>
      </trkpt>
      <trkpt lat="59.8579989" lon="17.8116792">
        <ele>26.5736</ele>
        <time>2013-05-15T15:03:24Z</time>
      </trkpt>
      <trkpt lat="59.8579963" lon="17.8115202">
        <ele>26.5736</ele>
        <time>2013-05-15T15:03:25Z</time>
      </trkpt>
      <trkpt lat="59.8579925" lon="17.8113608">
        <ele>26.5736</ele>
        <time>2013-05-15T15:03:26Z</time>
      </trkpt>
      <trkpt lat="59.8579867" lon="17.8112027">
        <ele>26.5736</ele>
        <time>2013-05-15T15:03:27Z</time>
      </trkpt>
      <trkpt lat="59.8579798" lon="17.811049">
        <ele>26.0929</ele>
        <time>2013-05-15T15:03:28Z</time>
      </trkpt>
      <trkpt lat="59.8579712" lon="17.8108944">
        <ele>26.0929</ele>
        <time>2013-05-15T15:03:29Z</time>
      </trkpt>
      <trkpt lat="59.8579601" lon="17.8107408">
        <ele>26.0929</ele>
        <time>2013-05-15T15:03:30Z</time>
      </trkpt>
      <trkpt lat="59.8579472" lon="17.8105894">
        <ele>25.6123</ele>
        <time>2013-05-15T15:03:31Z</time>
      </trkpt>
      <trkpt lat="59.8579318" lon="17.8104382">
        <ele>25.6123</ele>
        <time>2013-05-15T15:03:32Z</time>
      </trkpt>
      <trkpt lat="59.8579156" lon="17.8102873">
        <ele>25.6123</ele>
        <time>2013-05-15T15:03:33Z</time>
      </trkpt>
      <trkpt lat="59.8578989" lon="17.8101391">
        <ele>25.1317</ele>
        <time>2013-05-15T15:03:34Z</time>
      </trkpt>
      <trkpt lat="59.8578801" lon="17.8099953">
        <ele>25.1317</ele>
        <time>2013-05-15T15:03:35Z</time>
      </trkpt>
      <trkpt lat="59.8578601" lon="17.8098498">
        <ele>25.1317</ele>
        <time>2013-05-15T15:03:36Z</time>
      </trkpt>
      <trkpt lat="59.8578383" lon="17.8097073">
        <ele>25.1317</ele>
        <time>2013-05-15T15:03:37Z</time>
      </trkpt>
      <trkpt lat="59.8578145" lon="17.8095655">
        <ele>24.651</ele>
        <time>2013-05-15T15:03:38Z</time>
      </trkpt>
      <trkpt lat="59.8577895" lon="17.8094255">
        <ele>24.651</ele>
        <time>2013-05-15T15:03:39Z</time>
      </trkpt>
      <trkpt lat="59.8577638" lon="17.809287">
        <ele>24.1703</ele>
        <time>2013-05-15T15:03:40Z</time>
      </trkpt>
      <trkpt lat="59.8577369" lon="17.8091499">
        <ele>23.6896</ele>
        <time>2013-05-15T15:03:41Z</time>
      </trkpt>
      <trkpt lat="59.8577079" lon="17.8090153">
        <ele>23.6896</ele>
        <time>2013-05-15T15:03:42Z</time>
      </trkpt>
      <trkpt lat="59.8576772" lon="17.8088815">
        <ele>23.209</ele>
        <time>2013-05-15T15:03:43Z</time>
      </trkpt>
      <trkpt lat="59.8576455" lon="17.8087455">
        <ele>23.209</ele>
        <time>2013-05-15T15:03:44Z</time>
      </trkpt>
      <trkpt lat="59.8576136" lon="17.8086101">
        <ele>23.209</ele>
        <time>2013-05-15T15:03:45Z</time>
      </trkpt>
      <trkpt lat="59.8575818" lon="17.8084751">
        <ele>22.7283</ele>
        <time>2013-05-15T15:03:46Z</time>
      </trkpt>
      <trkpt lat="59.857548" lon="17.8083399">
        <ele>22.7283</ele>
        <time>2013-05-15T15:03:47Z</time>
      </trkpt>
      <trkpt lat="59.8575123" lon="17.8082059">
        <ele>22.2476</ele>
        <time>2013-05-15T15:03:48Z</time>
      </trkpt>
      <trkpt lat="59.8574752" lon="17.8080716">
        <ele>22.2476</ele>
        <time>2013-05-15T15:03:49Z</time>
      </trkpt>
      <trkpt lat="59.8574369" lon="17.8079388">
        <ele>22.2476</ele>
        <time>2013-05-15T15:03:50Z</time>
      </trkpt>
      <trkpt lat="59.8573985" lon="17.8078093">
        <ele>21.767</ele>
        <time>2013-05-15T15:03:51Z</time>
      </trkpt>
      <trkpt lat="59.8573596" lon="17.8076828">
        <ele>21.767</ele>
        <time>2013-05-15T15:03:52Z</time>
      </trkpt>
      <trkpt lat="59.8573207" lon="17.8075565">
        <ele>21.767</ele>
        <time>2013-05-15T15:03:53Z</time>
      </trkpt>
      <trkpt lat="59.8572828" lon="17.8074274">
        <ele>21.2864</ele>
        <time>2013-05-15T15:03:54Z</time>
      </trkpt>
      <trkpt lat="59.8572451" lon="17.8072995">
        <ele>20.8057</ele>
        <time>2013-05-15T15:03:55Z</time>
      </trkpt>
      <trkpt lat="59.8572064" lon="17.807173">
        <ele>20.8057</ele>
        <time>2013-05-15T15:03:56Z</time>
      </trkpt>
      <trkpt lat="59.8571679" lon="17.8070468">
        <ele>20.8057</ele>
        <time>2013-05-15T15:03:57Z</time>
      </trkpt>
      <trkpt lat="59.8571297" lon="17.8069229">
        <ele>20.8057</ele>
        <time>2013-05-15T15:03:58Z</time>
      </trkpt>
      <trkpt lat="59.8570918" lon="17.8068002">
        <ele>20.325</ele>
        <time>2013-05-15T15:03:59Z</time>
      </trkpt>
      <trkpt lat="59.8570535" lon="17.8066785">
        <ele>20.325</ele>
        <time>2013-05-15T15:04:00Z</time>
      </trkpt>
      <trkpt lat="59.8570152" lon="17.8065578">
        <ele>20.325</ele>
        <time>2013-05-15T15:04:01Z</time>
      </trkpt>
      <trkpt lat="59.8569767" lon="17.8064383">
        <ele>20.325</ele>
        <time>2013-05-15T15:04:02Z</time>
      </trkpt>
      <trkpt lat="59.8569384" lon="17.8063191">
        <ele>20.8057</ele>
        <time>2013-05-15T15:04:03Z</time>
      </trkpt>
      <trkpt lat="59.8569011" lon="17.8061988">
        <ele>20.8057</ele>
        <time>2013-05-15T15:04:04Z</time>
      </trkpt>
      <trkpt lat="59.8568634" lon="17.8060791">
        <ele>20.8057</ele>
        <time>2013-05-15T15:04:05Z</time>
      </trkpt>
      <trkpt lat="59.8568262" lon="17.8059583">
        <ele>20.8057</ele>
        <time>2013-05-15T15:04:06Z</time>
      </trkpt>
      <trkpt lat="59.8567893" lon="17.8058363">
        <ele>20.8057</ele>
        <time>2013-05-15T15:04:07Z</time>
      </trkpt>
      <trkpt lat="59.8567519" lon="17.8057136">
        <ele>20.8057</ele>
        <time>2013-05-15T15:04:08Z</time>
      </trkpt>
      <trkpt lat="59.8567157" lon="17.8055964">
        <ele>21.2864</ele>
        <time>2013-05-15T15:04:09Z</time>
      </trkpt>
      <trkpt lat="59.8566803" lon="17.8054792">
        <ele>21.2864</ele>
        <time>2013-05-15T15:04:10Z</time>
      </trkpt>
      <trkpt lat="59.8566452" lon="17.8053631">
        <ele>21.2864</ele>
        <time>2013-05-15T15:04:11Z</time>
      </trkpt>
      <trkpt lat="59.8566101" lon="17.8052473">
        <ele>21.2864</ele>
        <time>2013-05-15T15:04:12Z</time>
      </trkpt>
      <trkpt lat="59.8565763" lon="17.8051308">
        <ele>21.2864</ele>
        <time>2013-05-15T15:04:13Z</time>
      </trkpt>
      <trkpt lat="59.8565428" lon="17.8050158">
        <ele>21.767</ele>
        <time>2013-05-15T15:04:14Z</time>
      </trkpt>
      <trkpt lat="59.8565087" lon="17.8049024">
        <ele>21.767</ele>
        <time>2013-05-15T15:04:15Z</time>
      </trkpt>
      <trkpt lat="59.8564736" lon="17.8047903">
        <ele>21.767</ele>
        <time>2013-05-15T15:04:16Z</time>
      </trkpt>
      <trkpt lat="59.8564386" lon="17.8046785">
        <ele>21.767</ele>
        <time>2013-05-15T15:04:17Z</time>
      </trkpt>
      <trkpt lat="59.8564055" lon="17.8045664">
        <ele>21.767</ele>
        <time>2013-05-15T15:04:18Z</time>
      </trkpt>
      <trkpt lat="59.8563734" lon="17.8044546">
        <ele>21.767</ele>
        <time>2013-05-15T15:04:19Z</time>
      </trkpt>
      <trkpt lat="59.8563423" lon="17.8043422">
        <ele>22.2476</ele>
        <time>2013-05-15T15:04:20Z</time>
      </trkpt>
      <trkpt lat="59.8563123" lon="17.804231">
        <ele>22.2476</ele>
        <time>2013-05-15T15:04:21Z</time>
      </trkpt>
      <trkpt lat="59.8562823" lon="17.8041235">
        <ele>22.2476</ele>
        <time>2013-05-15T15:04:22Z</time>
      </trkpt>
      <trkpt lat="59.8562502" lon="17.804019">
        <ele>21.767</ele>
        <time>2013-05-15T15:04:23Z</time>
      </trkpt>
      <trkpt lat="59.8562179" lon="17.8039163">
        <ele>21.767</ele>
        <time>2013-05-15T15:04:24Z</time>
      </trkpt>
      <trkpt lat="59.8561877" lon="17.8038129">
        <ele>22.2476</ele>
        <time>2013-05-15T15:04:25Z</time>
      </trkpt>
      <trkpt lat="59.856162" lon="17.8037078">
        <ele>22.2476</ele>
        <time>2013-05-15T15:04:26Z</time>
      </trkpt>
      <trkpt lat="59.8561478" lon="17.8035963">
        <ele>22.2476</ele>
        <time>2013-05-15T15:04:27Z</time>
      </trkpt>
      <trkpt lat="59.8561392" lon="17.8034794">
        <ele>22.2476</ele>
        <time>2013-05-15T15:04:28Z</time>
      </trkpt>
      <trkpt lat="59.8561207" lon="17.8033656">
        <ele>22.7283</ele>
        <time>2013-05-15T15:04:29Z</time>
      </trkpt>
      <trkpt lat="59.85609" lon="17.8032638">
        <ele>22.2476</ele>
        <time>2013-05-15T15:04:30Z</time>
      </trkpt>
      <trkpt lat="59.8560533" lon="17.8031711">
        <ele>22.2476</ele>
        <time>2013-05-15T15:04:31Z</time>
      </trkpt>
      <trkpt lat="59.8560164" lon="17.8030846">
        <ele>22.2476</ele>
        <time>2013-05-15T15:04:32Z</time>
      </trkpt>
      <trkpt lat="59.8559852" lon="17.8030036">
        <ele>22.2476</ele>
        <time>2013-05-15T15:04:33Z</time>
      </trkpt>
      <trkpt lat="59.855959" lon="17.8029126">
        <ele>21.767</ele>
        <time>2013-05-15T15:04:34Z</time>
      </trkpt>
      <trkpt lat="59.8559299" lon="17.8028166">
        <ele>21.767</ele>
        <time>2013-05-15T15:04:35Z</time>
      </trkpt>
      <trkpt lat="59.8559002" lon="17.8027173">
        <ele>21.767</ele>
        <time>2013-05-15T15:04:36Z</time>
      </trkpt>
      <trkpt lat="59.855872" lon="17.8026177">
        <ele>21.767</ele>
        <time>2013-05-15T15:04:37Z</time>
      </trkpt>
      <trkpt lat="59.8558437" lon="17.8025138">
        <ele>21.767</ele>
        <time>2013-05-15T15:04:38Z</time>
      </trkpt>
      <trkpt lat="59.8558132" lon="17.8024029">
        <ele>21.767</ele>
        <time>2013-05-15T15:04:39Z</time>
      </trkpt>
      <trkpt lat="59.8557857" lon="17.8022861">
        <ele>22.7283</ele>
        <time>2013-05-15T15:04:40Z</time>
      </trkpt>
      <trkpt lat="59.8557607" lon="17.8021753">
        <ele>23.209</ele>
        <time>2013-05-15T15:04:41Z</time>
      </trkpt>
      <trkpt lat="59.8557355" lon="17.802061">
        <ele>23.6896</ele>
        <time>2013-05-15T15:04:42Z</time>
      </trkpt>
      <trkpt lat="59.8557171" lon="17.8019451">
        <ele>24.1703</ele>
        <time>2013-05-15T15:04:43Z</time>
      </trkpt>
      <trkpt lat="59.8557001" lon="17.8018386">
        <ele>24.651</ele>
        <time>2013-05-15T15:04:44Z</time>
      </trkpt>
      <trkpt lat="59.855683" lon="17.8017446">
        <ele>24.651</ele>
        <time>2013-05-15T15:04:45Z</time>
      </trkpt>
      <trkpt lat="59.8556625" lon="17.8016496">
        <ele>25.1317</ele>
        <time>2013-05-15T15:04:46Z</time>
      </trkpt>
      <trkpt lat="59.8556409" lon="17.8015575">
        <ele>25.1317</ele>
        <time>2013-05-15T15:04:47Z</time>
      </trkpt>
      <trkpt lat="59.8556158" lon="17.8014612">
        <ele>25.6123</ele>
        <time>2013-05-15T15:04:48Z</time>
      </trkpt>
      <trkpt lat="59.8555925" lon="17.8013677">
        <ele>25.6123</ele>
        <time>2013-05-15T15:04:49Z</time>
      </trkpt>
      <trkpt lat="59.8555705" lon="17.8012693">
        <ele>26.5736</ele>
        <time>2013-05-15T15:04:50Z</time>
      </trkpt>
      <trkpt lat="59.8555507" lon="17.8011741">
        <ele>27.0543</ele>
        <time>2013-05-15T15:04:51Z</time>
      </trkpt>
      <trkpt lat="59.8555285" lon="17.8010792">
        <ele>27.5349</ele>
        <time>2013-05-15T15:04:52Z</time>
      </trkpt>
      <trkpt lat="59.8555053" lon="17.800989">
        <ele>27.5349</ele>
        <time>2013-05-15T15:04:53Z</time>
      </trkpt>
      <trkpt lat="59.8554809" lon="17.8009028">
        <ele>28.0155</ele>
        <time>2013-05-15T15:04:54Z</time>
      </trkpt>
      <trkpt lat="59.8554556" lon="17.8008132">
        <ele>28.4962</ele>
        <time>2013-05-15T15:04:55Z</time>
      </trkpt>
      <trkpt lat="59.8554293" lon="17.8007189">
        <ele>28.4962</ele>
        <time>2013-05-15T15:04:56Z</time>
      </trkpt>
      <trkpt lat="59.8554019" lon="17.800622">
        <ele>28.4962</ele>
        <time>2013-05-15T15:04:57Z</time>
      </trkpt>
      <trkpt lat="59.8553705" lon="17.8005246">
        <ele>28.4962</ele>
        <time>2013-05-15T15:04:58Z</time>
      </trkpt>
      <trkpt lat="59.8553406" lon="17.8004259">
        <ele>28.9769</ele>
        <time>2013-05-15T15:04:59Z</time>
      </trkpt>
      <trkpt lat="59.8553103" lon="17.8003258">
        <ele>29.4575</ele>
        <time>2013-05-15T15:05:00Z</time>
      </trkpt>
      <trkpt lat="59.8552799" lon="17.8002253">
        <ele>28.9769</ele>
        <time>2013-05-15T15:05:01Z</time>
      </trkpt>
      <trkpt lat="59.8552507" lon="17.8001274">
        <ele>28.9769</ele>
        <time>2013-05-15T15:05:02Z</time>
      </trkpt>
      <trkpt lat="59.8552192" lon="17.8000253">
        <ele>28.9769</ele>
        <time>2013-05-15T15:05:03Z</time>
      </trkpt>
      <trkpt lat="59.8551877" lon="17.7999217">
        <ele>28.9769</ele>
        <time>2013-05-15T15:05:04Z</time>
      </trkpt>
      <trkpt lat="59.8551592" lon="17.799816">
        <ele>28.9769</ele>
        <time>2013-05-15T15:05:05Z</time>
      </trkpt>
      <trkpt lat="59.8551361" lon="17.7997111">
        <ele>28.4962</ele>
        <time>2013-05-15T15:05:06Z</time>
      </trkpt>
      <trkpt lat="59.8551085" lon="17.7996082">
        <ele>28.0155</ele>
        <time>2013-05-15T15:05:07Z</time>
      </trkpt>
      <trkpt lat="59.8550794" lon="17.7995065">
        <ele>28.0155</ele>
        <time>2013-05-15T15:05:08Z</time>
      </trkpt>
      <trkpt lat="59.8550514" lon="17.7994003">
        <ele>28.0155</ele>
        <time>2013-05-15T15:05:09Z</time>
      </trkpt>
      <trkpt lat="59.8550218" lon="17.7992953">
        <ele>28.0155</ele>
        <time>2013-05-15T15:05:10Z</time>
      </trkpt>
      <trkpt lat="59.8549966" lon="17.7991877">
        <ele>27.5349</ele>
        <time>2013-05-15T15:05:11Z</time>
      </trkpt>
      <trkpt lat="59.8549716" lon="17.7990782">
        <ele>27.0543</ele>
        <time>2013-05-15T15:05:12Z</time>
      </trkpt>
      <trkpt lat="59.854939" lon="17.7989689">
        <ele>28.0155</ele>
        <time>2013-05-15T15:05:13Z</time>
      </trkpt>
      <trkpt lat="59.8549072" lon="17.798861">
        <ele>28.4962</ele>
        <time>2013-05-15T15:05:14Z</time>
      </trkpt>
      <trkpt lat="59.8548714" lon="17.7987458">
        <ele>28.9769</ele>
        <time>2013-05-15T15:05:15Z</time>
      </trkpt>
      <trkpt lat="59.8548411" lon="17.7986277">
        <ele>28.9769</ele>
        <time>2013-05-15T15:05:16Z</time>
      </trkpt>
      <trkpt lat="59.8548119" lon="17.7985088">
        <ele>28.9769</ele>
        <time>2013-05-15T15:05:17Z</time>
      </trkpt>
      <trkpt lat="59.8547824" lon="17.798393">
        <ele>28.9769</ele>
        <time>2013-05-15T15:05:18Z</time>
      </trkpt>
      <trkpt lat="59.854753" lon="17.7982795">
        <ele>28.9769</ele>
        <time>2013-05-15T15:05:19Z</time>
      </trkpt>
      <trkpt lat="59.8547057" lon="17.798142">
        <ele>29.4575</ele>
        <time>2013-05-15T15:05:20Z</time>
      </trkpt>
      <trkpt lat="59.8546708" lon="17.7980112">
        <ele>29.4575</ele>
        <time>2013-05-15T15:05:21Z</time>
      </trkpt>
      <trkpt lat="59.8546314" lon="17.7979019">
        <ele>29.9381</ele>
        <time>2013-05-15T15:05:22Z</time>
      </trkpt>
      <trkpt lat="59.8545986" lon="17.7977852">
        <ele>29.9381</ele>
        <time>2013-05-15T15:05:23Z</time>
      </trkpt>
      <trkpt lat="59.8545639" lon="17.7976675">
        <ele>29.9381</ele>
        <time>2013-05-15T15:05:24Z</time>
      </trkpt>
      <trkpt lat="59.8545256" lon="17.797547">
        <ele>29.9381</ele>
        <time>2013-05-15T15:05:25Z</time>
      </trkpt>
      <trkpt lat="59.8545039" lon="17.7974279">
        <ele>29.4575</ele>
        <time>2013-05-15T15:05:26Z</time>
      </trkpt>
      <trkpt lat="59.8544796" lon="17.7973186">
        <ele>29.4575</ele>
        <time>2013-05-15T15:05:27Z</time>
      </trkpt>
      <trkpt lat="59.8544581" lon="17.7972039">
        <ele>29.4575</ele>
        <time>2013-05-15T15:05:28Z</time>
      </trkpt>
      <trkpt lat="59.8544268" lon="17.7970876">
        <ele>29.4575</ele>
        <time>2013-05-15T15:05:29Z</time>
      </trkpt>
      <trkpt lat="59.8543928" lon="17.7969776">
        <ele>29.9381</ele>
        <time>2013-05-15T15:05:30Z</time>
      </trkpt>
      <trkpt lat="59.8543543" lon="17.7968761">
        <ele>30.4188</ele>
        <time>2013-05-15T15:05:31Z</time>
      </trkpt>
      <trkpt lat="59.8543148" lon="17.7967737">
        <ele>30.4188</ele>
        <time>2013-05-15T15:05:32Z</time>
      </trkpt>
      <trkpt lat="59.8542775" lon="17.796672">
        <ele>30.8995</ele>
        <time>2013-05-15T15:05:33Z</time>
      </trkpt>
      <trkpt lat="59.8542464" lon="17.7965696">
        <ele>30.8995</ele>
        <time>2013-05-15T15:05:34Z</time>
      </trkpt>
      <trkpt lat="59.8542168" lon="17.7964674">
        <ele>30.8995</ele>
        <time>2013-05-15T15:05:35Z</time>
      </trkpt>
      <trkpt lat="59.8541879" lon="17.7963622">
        <ele>31.3801</ele>
        <time>2013-05-15T15:05:36Z</time>
      </trkpt>
      <trkpt lat="59.854148" lon="17.79623">
        <ele>31.8607</ele>
        <time>2013-05-15T15:05:37Z</time>
      </trkpt>
      <trkpt lat="59.8541143" lon="17.7961386">
        <ele>32.3416</ele>
        <time>2013-05-15T15:05:38Z</time>
      </trkpt>
      <trkpt lat="59.8540844" lon="17.7960231">
        <ele>32.3416</ele>
        <time>2013-05-15T15:05:39Z</time>
      </trkpt>
      <trkpt lat="59.8540553" lon="17.795913">
        <ele>32.3416</ele>
        <time>2013-05-15T15:05:40Z</time>
      </trkpt>
      <trkpt lat="59.8540226" lon="17.795812">
        <ele>32.8223</ele>
        <time>2013-05-15T15:05:41Z</time>
      </trkpt>
      <trkpt lat="59.8539838" lon="17.7957039">
        <ele>32.8223</ele>
        <time>2013-05-15T15:05:42Z</time>
      </trkpt>
      <trkpt lat="59.8539533" lon="17.7955944">
        <ele>32.8223</ele>
        <time>2013-05-15T15:05:43Z</time>
      </trkpt>
      <trkpt lat="59.8539235" lon="17.7954852">
        <ele>32.8223</ele>
        <time>2013-05-15T15:05:44Z</time>
      </trkpt>
      <trkpt lat="59.8538957" lon="17.7953775">
        <ele>32.8223</ele>
        <time>2013-05-15T15:05:45Z</time>
      </trkpt>
      <trkpt lat="59.8538671" lon="17.7952691">
        <ele>32.3416</ele>
        <time>2013-05-15T15:05:46Z</time>
      </trkpt>
      <trkpt lat="59.853838" lon="17.7951564">
        <ele>31.3801</ele>
        <time>2013-05-15T15:05:47Z</time>
      </trkpt>
      <trkpt lat="59.8538018" lon="17.7950503">
        <ele>31.8607</ele>
        <time>2013-05-15T15:05:48Z</time>
      </trkpt>
      <trkpt lat="59.8537679" lon="17.7949459">
        <ele>31.8607</ele>
        <time>2013-05-15T15:05:49Z</time>
      </trkpt>
      <trkpt lat="59.8537376" lon="17.7948398">
        <ele>31.3801</ele>
        <time>2013-05-15T15:05:50Z</time>
      </trkpt>
      <trkpt lat="59.8537123" lon="17.7947342">
        <ele>30.4188</ele>
        <time>2013-05-15T15:05:51Z</time>
      </trkpt>
      <trkpt lat="59.8536832" lon="17.794629">
        <ele>29.9381</ele>
        <time>2013-05-15T15:05:52Z</time>
      </trkpt>
      <trkpt lat="59.8536537" lon="17.7945237">
        <ele>29.4575</ele>
        <time>2013-05-15T15:05:53Z</time>
      </trkpt>
      <trkpt lat="59.853617" lon="17.7944141">
        <ele>28.9769</ele>
        <time>2013-05-15T15:05:54Z</time>
      </trkpt>
      <trkpt lat="59.8535859" lon="17.7943058">
        <ele>28.4962</ele>
        <time>2013-05-15T15:05:55Z</time>
      </trkpt>
      <trkpt lat="59.8535523" lon="17.7941941">
        <ele>28.0155</ele>
        <time>2013-05-15T15:05:56Z</time>
      </trkpt>
      <trkpt lat="59.8535175" lon="17.7940804">
        <ele>27.5349</ele>
        <time>2013-05-15T15:05:57Z</time>
      </trkpt>
      <trkpt lat="59.8534813" lon="17.793965">
        <ele>27.0543</ele>
        <time>2013-05-15T15:05:58Z</time>
      </trkpt>
      <trkpt lat="59.8534454" lon="17.7938465">
        <ele>26.5736</ele>
        <time>2013-05-15T15:05:59Z</time>
      </trkpt>
      <trkpt lat="59.8534047" lon="17.7937253">
        <ele>26.5736</ele>
        <time>2013-05-15T15:06:00Z</time>
      </trkpt>
      <trkpt lat="59.8533612" lon="17.7936019">
        <ele>26.5736</ele>
        <time>2013-05-15T15:06:01Z</time>
      </trkpt>
      <trkpt lat="59.8533176" lon="17.7934789">
        <ele>27.0543</ele>
        <time>2013-05-15T15:06:02Z</time>
      </trkpt>
      <trkpt lat="59.8532788" lon="17.7933537">
        <ele>26.5736</ele>
        <time>2013-05-15T15:06:03Z</time>
      </trkpt>
      <trkpt lat="59.8532389" lon="17.7932258">
        <ele>26.0929</ele>
        <time>2013-05-15T15:06:04Z</time>
      </trkpt>
      <trkpt lat="59.8531931" lon="17.7930983">
        <ele>26.0929</ele>
        <time>2013-05-15T15:06:05Z</time>
      </trkpt>
      <trkpt lat="59.8531468" lon="17.7929751">
        <ele>26.5736</ele>
        <time>2013-05-15T15:06:06Z</time>
      </trkpt>
      <trkpt lat="59.8531002" lon="17.7928523">
        <ele>26.5736</ele>
        <time>2013-05-15T15:06:07Z</time>
      </trkpt>
      <trkpt lat="59.8530545" lon="17.7927268">
        <ele>27.0543</ele>
        <time>2013-05-15T15:06:08Z</time>
      </trkpt>
      <trkpt lat="59.8530113" lon="17.7925986">
        <ele>27.0543</ele>
        <time>2013-05-15T15:06:09Z</time>
      </trkpt>
      <trkpt lat="59.8529667" lon="17.79247">
        <ele>27.0543</ele>
        <time>2013-05-15T15:06:10Z</time>
      </trkpt>
      <trkpt lat="59.8529211" lon="17.7923426">
        <ele>26.5736</ele>
        <time>2013-05-15T15:06:11Z</time>
      </trkpt>
      <trkpt lat="59.852875" lon="17.7922158">
        <ele>26.5736</ele>
        <time>2013-05-15T15:06:12Z</time>
      </trkpt>
      <trkpt lat="59.8528277" lon="17.7920889">
        <ele>27.0543</ele>
        <time>2013-05-15T15:06:13Z</time>
      </trkpt>
      <trkpt lat="59.8527826" lon="17.7919608">
        <ele>26.5736</ele>
        <time>2013-05-15T15:06:14Z</time>
      </trkpt>
      <trkpt lat="59.8527368" lon="17.7918337">
        <ele>26.5736</ele>
        <time>2013-05-15T15:06:15Z</time>
      </trkpt>
      <trkpt lat="59.8526888" lon="17.7917102">
        <ele>26.5736</ele>
        <time>2013-05-15T15:06:16Z</time>
      </trkpt>
      <trkpt lat="59.8526411" lon="17.7915879">
        <ele>27.0543</ele>
        <time>2013-05-15T15:06:17Z</time>
      </trkpt>
      <trkpt lat="59.8525949" lon="17.7914657">
        <ele>27.0543</ele>
        <time>2013-05-15T15:06:18Z</time>
      </trkpt>
      <trkpt lat="59.8525484" lon="17.791347">
        <ele>27.0543</ele>
        <time>2013-05-15T15:06:19Z</time>
      </trkpt>
      <trkpt lat="59.8525028" lon="17.7912284">
        <ele>27.0543</ele>
        <time>2013-05-15T15:06:20Z</time>
      </trkpt>
      <trkpt lat="59.8524582" lon="17.7911103">
        <ele>27.0543</ele>
        <time>2013-05-15T15:06:21Z</time>
      </trkpt>
      <trkpt lat="59.8524133" lon="17.7909943">
        <ele>27.0543</ele>
        <time>2013-05-15T15:06:22Z</time>
      </trkpt>
      <trkpt lat="59.8523671" lon="17.7908797">
        <ele>27.0543</ele>
        <time>2013-05-15T15:06:23Z</time>
      </trkpt>
      <trkpt lat="59.8523176" lon="17.7907676">
        <ele>27.0543</ele>
        <time>2013-05-15T15:06:24Z</time>
      </trkpt>
      <trkpt lat="59.8522685" lon="17.7906569">
        <ele>27.5349</ele>
        <time>2013-05-15T15:06:25Z</time>
      </trkpt>
      <trkpt lat="59.8522205" lon="17.7905457">
        <ele>27.5349</ele>
        <time>2013-05-15T15:06:26Z</time>
      </trkpt>
      <trkpt lat="59.8521728" lon="17.7904354">
        <ele>27.5349</ele>
        <time>2013-05-15T15:06:27Z</time>
      </trkpt>
      <trkpt lat="59.8521246" lon="17.7903275">
        <ele>28.0155</ele>
        <time>2013-05-15T15:06:28Z</time>
      </trkpt>
      <trkpt lat="59.8520781" lon="17.7902188">
        <ele>27.5349</ele>
        <time>2013-05-15T15:06:29Z</time>
      </trkpt>
      <trkpt lat="59.8520328" lon="17.7901074">
        <ele>27.5349</ele>
        <time>2013-05-15T15:06:30Z</time>
      </trkpt>
      <trkpt lat="59.8519882" lon="17.7899939">
        <ele>27.5349</ele>
        <time>2013-05-15T15:06:31Z</time>
      </trkpt>
      <trkpt lat="59.8519432" lon="17.7898788">
        <ele>27.5349</ele>
        <time>2013-05-15T15:06:32Z</time>
      </trkpt>
      <trkpt lat="59.8518961" lon="17.7897642">
        <ele>27.5349</ele>
        <time>2013-05-15T15:06:33Z</time>
      </trkpt>
      <trkpt lat="59.8518496" lon="17.7896495">
        <ele>27.5349</ele>
        <time>2013-05-15T15:06:34Z</time>
      </trkpt>
      <trkpt lat="59.8518045" lon="17.7895345">
        <ele>27.5349</ele>
        <time>2013-05-15T15:06:35Z</time>
      </trkpt>
      <trkpt lat="59.8517589" lon="17.7894213">
        <ele>27.0543</ele>
        <time>2013-05-15T15:06:36Z</time>
      </trkpt>
      <trkpt lat="59.8517137" lon="17.7893106">
        <ele>27.0543</ele>
        <time>2013-05-15T15:06:37Z</time>
      </trkpt>
      <trkpt lat="59.8516689" lon="17.7891983">
        <ele>27.0543</ele>
        <time>2013-05-15T15:06:38Z</time>
      </trkpt>
      <trkpt lat="59.8516248" lon="17.7890832">
        <ele>27.5349</ele>
        <time>2013-05-15T15:06:39Z</time>
      </trkpt>
      <trkpt lat="59.8515822" lon="17.7889703">
        <ele>28.0155</ele>
        <time>2013-05-15T15:06:40Z</time>
      </trkpt>
      <trkpt lat="59.8515398" lon="17.7888588">
        <ele>27.5349</ele>
        <time>2013-05-15T15:06:41Z</time>
      </trkpt>
      <trkpt lat="59.8514972" lon="17.7887481">
        <ele>27.5349</ele>
        <time>2013-05-15T15:06:42Z</time>
      </trkpt>
      <trkpt lat="59.8514549" lon="17.7886417">
        <ele>27.5349</ele>
        <time>2013-05-15T15:06:43Z</time>
      </trkpt>
      <trkpt lat="59.8514155" lon="17.7885363">
        <ele>27.0543</ele>
        <time>2013-05-15T15:06:44Z</time>
      </trkpt>
      <trkpt lat="59.8513761" lon="17.7884317">
        <ele>26.5736</ele>
        <time>2013-05-15T15:06:45Z</time>
      </trkpt>
      <trkpt lat="59.8513374" lon="17.788326">
        <ele>26.0929</ele>
        <time>2013-05-15T15:06:46Z</time>
      </trkpt>
      <trkpt lat="59.8512959" lon="17.7882213">
        <ele>26.0929</ele>
        <time>2013-05-15T15:06:47Z</time>
      </trkpt>
      <trkpt lat="59.8512518" lon="17.7881146">
        <ele>25.6123</ele>
        <time>2013-05-15T15:06:48Z</time>
      </trkpt>
      <trkpt lat="59.8512065" lon="17.7880058">
        <ele>25.6123</ele>
        <time>2013-05-15T15:06:49Z</time>
      </trkpt>
      <trkpt lat="59.8511606" lon="17.7878947">
        <ele>25.1317</ele>
        <time>2013-05-15T15:06:50Z</time>
      </trkpt>
      <trkpt lat="59.8511134" lon="17.787782">
        <ele>24.651</ele>
        <time>2013-05-15T15:06:51Z</time>
      </trkpt>
      <trkpt lat="59.8510653" lon="17.7876682">
        <ele>25.1317</ele>
        <time>2013-05-15T15:06:52Z</time>
      </trkpt>
      <trkpt lat="59.851017" lon="17.7875555">
        <ele>25.1317</ele>
        <time>2013-05-15T15:06:53Z</time>
      </trkpt>
      <trkpt lat="59.8509664" lon="17.7874443">
        <ele>24.651</ele>
        <time>2013-05-15T15:06:54Z</time>
      </trkpt>
      <trkpt lat="59.8509155" lon="17.7873312">
        <ele>24.651</ele>
        <time>2013-05-15T15:06:55Z</time>
      </trkpt>
      <trkpt lat="59.8508658" lon="17.7872132">
        <ele>24.1703</ele>
        <time>2013-05-15T15:06:56Z</time>
      </trkpt>
      <trkpt lat="59.8508163" lon="17.7870935">
        <ele>23.6896</ele>
        <time>2013-05-15T15:06:57Z</time>
      </trkpt>
      <trkpt lat="59.8507673" lon="17.7869712">
        <ele>23.209</ele>
        <time>2013-05-15T15:06:58Z</time>
      </trkpt>
      <trkpt lat="59.8507177" lon="17.7868475">
        <ele>23.209</ele>
        <time>2013-05-15T15:06:59Z</time>
      </trkpt>
      <trkpt lat="59.8506689" lon="17.786723">
        <ele>23.209</ele>
        <time>2013-05-15T15:07:00Z</time>
      </trkpt>
      <trkpt lat="59.8506213" lon="17.7865958">
        <ele>23.209</ele>
        <time>2013-05-15T15:07:01Z</time>
      </trkpt>
      <trkpt lat="59.8505727" lon="17.7864671">
        <ele>22.7283</ele>
        <time>2013-05-15T15:07:02Z</time>
      </trkpt>
      <trkpt lat="59.8505209" lon="17.7863335">
        <ele>23.6896</ele>
        <time>2013-05-15T15:07:03Z</time>
      </trkpt>
      <trkpt lat="59.8504735" lon="17.7862025">
        <ele>23.6896</ele>
        <time>2013-05-15T15:07:04Z</time>
      </trkpt>
      <trkpt lat="59.8504256" lon="17.7860721">
        <ele>23.6896</ele>
        <time>2013-05-15T15:07:05Z</time>
      </trkpt>
      <trkpt lat="59.8503794" lon="17.7859383">
        <ele>23.6896</ele>
        <time>2013-05-15T15:07:06Z</time>
      </trkpt>
      <trkpt lat="59.8503316" lon="17.7858046">
        <ele>23.209</ele>
        <time>2013-05-15T15:07:07Z</time>
      </trkpt>
      <trkpt lat="59.8502816" lon="17.7856722">
        <ele>23.209</ele>
        <time>2013-05-15T15:07:08Z</time>
      </trkpt>
      <trkpt lat="59.8502293" lon="17.785538">
        <ele>22.7283</ele>
        <time>2013-05-15T15:07:09Z</time>
      </trkpt>
      <trkpt lat="59.8501748" lon="17.785399">
        <ele>22.7283</ele>
        <time>2013-05-15T15:07:10Z</time>
      </trkpt>
      <trkpt lat="59.850124" lon="17.7852543">
        <ele>22.2476</ele>
        <time>2013-05-15T15:07:11Z</time>
      </trkpt>
      <trkpt lat="59.8500732" lon="17.7851039">
        <ele>21.767</ele>
        <time>2013-05-15T15:07:12Z</time>
      </trkpt>
      <trkpt lat="59.8500237" lon="17.7849489">
        <ele>21.767</ele>
        <time>2013-05-15T15:07:13Z</time>
      </trkpt>
      <trkpt lat="59.849976" lon="17.7847869">
        <ele>21.767</ele>
        <time>2013-05-15T15:07:14Z</time>
      </trkpt>
      <trkpt lat="59.8499284" lon="17.7846249">
        <ele>21.767</ele>
        <time>2013-05-15T15:07:15Z</time>
      </trkpt>
      <trkpt lat="59.8498821" lon="17.784459">
        <ele>21.767</ele>
        <time>2013-05-15T15:07:16Z</time>
      </trkpt>
      <trkpt lat="59.8498386" lon="17.7842881">
        <ele>21.767</ele>
        <time>2013-05-15T15:07:17Z</time>
      </trkpt>
      <trkpt lat="59.8497997" lon="17.7841114">
        <ele>21.2864</ele>
        <time>2013-05-15T15:07:18Z</time>
      </trkpt>
      <trkpt lat="59.8497664" lon="17.7839248">
        <ele>21.2864</ele>
        <time>2013-05-15T15:07:19Z</time>
      </trkpt>
      <trkpt lat="59.8497335" lon="17.7837325">
        <ele>21.2864</ele>
        <time>2013-05-15T15:07:20Z</time>
      </trkpt>
      <trkpt lat="59.8496972" lon="17.7835429">
        <ele>21.2864</ele>
        <time>2013-05-15T15:07:21Z</time>
      </trkpt>
      <trkpt lat="59.8496574" lon="17.783358">
        <ele>21.2864</ele>
        <time>2013-05-15T15:07:22Z</time>
      </trkpt>
      <trkpt lat="59.8496169" lon="17.783178">
        <ele>21.2864</ele>
        <time>2013-05-15T15:07:23Z</time>
      </trkpt>
      <trkpt lat="59.8495781" lon="17.7829997">
        <ele>21.2864</ele>
        <time>2013-05-15T15:07:24Z</time>
      </trkpt>
      <trkpt lat="59.8495417" lon="17.782824">
        <ele>21.2864</ele>
        <time>2013-05-15T15:07:25Z</time>
      </trkpt>
      <trkpt lat="59.8495061" lon="17.7826491">
        <ele>21.767</ele>
        <time>2013-05-15T15:07:26Z</time>
      </trkpt>
      <trkpt lat="59.8494725" lon="17.7824738">
        <ele>21.767</ele>
        <time>2013-05-15T15:07:27Z</time>
      </trkpt>
      <trkpt lat="59.8494393" lon="17.7823009">
        <ele>21.767</ele>
        <time>2013-05-15T15:07:28Z</time>
      </trkpt>
      <trkpt lat="59.8494047" lon="17.7821311">
        <ele>21.767</ele>
        <time>2013-05-15T15:07:29Z</time>
      </trkpt>
      <trkpt lat="59.8493707" lon="17.7819611">
        <ele>21.2864</ele>
        <time>2013-05-15T15:07:30Z</time>
      </trkpt>
      <trkpt lat="59.8493367" lon="17.7817923">
        <ele>21.2864</ele>
        <time>2013-05-15T15:07:31Z</time>
      </trkpt>
      <trkpt lat="59.8493021" lon="17.7816287">
        <ele>21.2864</ele>
        <time>2013-05-15T15:07:32Z</time>
      </trkpt>
      <trkpt lat="59.8492688" lon="17.7814699">
        <ele>21.767</ele>
        <time>2013-05-15T15:07:33Z</time>
      </trkpt>
      <trkpt lat="59.8492363" lon="17.7813137">
        <ele>21.767</ele>
        <time>2013-05-15T15:07:34Z</time>
      </trkpt>
      <trkpt lat="59.8492046" lon="17.7811597">
        <ele>21.767</ele>
        <time>2013-05-15T15:07:35Z</time>
      </trkpt>
      <trkpt lat="59.8491746" lon="17.7810039">
        <ele>21.767</ele>
        <time>2013-05-15T15:07:36Z</time>
      </trkpt>
      <trkpt lat="59.8491466" lon="17.780848">
        <ele>21.767</ele>
        <time>2013-05-15T15:07:37Z</time>
      </trkpt>
      <trkpt lat="59.8491191" lon="17.7806941">
        <ele>21.767</ele>
        <time>2013-05-15T15:07:38Z</time>
      </trkpt>
      <trkpt lat="59.8490938" lon="17.7805361">
        <ele>22.2476</ele>
        <time>2013-05-15T15:07:39Z</time>
      </trkpt>
      <trkpt lat="59.8490711" lon="17.7803756">
        <ele>22.2476</ele>
        <time>2013-05-15T15:07:40Z</time>
      </trkpt>
      <trkpt lat="59.8490492" lon="17.7802205">
        <ele>22.2476</ele>
        <time>2013-05-15T15:07:41Z</time>
      </trkpt>
      <trkpt lat="59.8490264" lon="17.7800698">
        <ele>22.2476</ele>
        <time>2013-05-15T15:07:42Z</time>
      </trkpt>
      <trkpt lat="59.849001" lon="17.7799237">
        <ele>22.7283</ele>
        <time>2013-05-15T15:07:43Z</time>
      </trkpt>
      <trkpt lat="59.8489708" lon="17.779783">
        <ele>22.7283</ele>
        <time>2013-05-15T15:07:44Z</time>
      </trkpt>
      <trkpt lat="59.84894" lon="17.779647">
        <ele>22.7283</ele>
        <time>2013-05-15T15:07:45Z</time>
      </trkpt>
      <trkpt lat="59.8489177" lon="17.7795051">
        <ele>22.7283</ele>
        <time>2013-05-15T15:07:46Z</time>
      </trkpt>
      <trkpt lat="59.8489024" lon="17.7793577">
        <ele>23.209</ele>
        <time>2013-05-15T15:07:47Z</time>
      </trkpt>
      <trkpt lat="59.848889" lon="17.7792105">
        <ele>22.7283</ele>
        <time>2013-05-15T15:07:48Z</time>
      </trkpt>
      <trkpt lat="59.8488773" lon="17.7790613">
        <ele>22.7283</ele>
        <time>2013-05-15T15:07:49Z</time>
      </trkpt>
      <trkpt lat="59.8488682" lon="17.7789122">
        <ele>22.7283</ele>
        <time>2013-05-15T15:07:50Z</time>
      </trkpt>
      <trkpt lat="59.8488604" lon="17.778764">
        <ele>22.7283</ele>
        <time>2013-05-15T15:07:51Z</time>
      </trkpt>
      <trkpt lat="59.8488534" lon="17.7786149">
        <ele>22.2476</ele>
        <time>2013-05-15T15:07:52Z</time>
      </trkpt>
      <trkpt lat="59.8488477" lon="17.7784637">
        <ele>22.2476</ele>
        <time>2013-05-15T15:07:53Z</time>
      </trkpt>
      <trkpt lat="59.8488439" lon="17.7783103">
        <ele>21.767</ele>
        <time>2013-05-15T15:07:54Z</time>
      </trkpt>
      <trkpt lat="59.8488423" lon="17.7781543">
        <ele>21.767</ele>
        <time>2013-05-15T15:07:55Z</time>
      </trkpt>
      <trkpt lat="59.8488428" lon="17.7779963">
        <ele>21.767</ele>
        <time>2013-05-15T15:07:56Z</time>
      </trkpt>
      <trkpt lat="59.8488419" lon="17.7778387">
        <ele>21.767</ele>
        <time>2013-05-15T15:07:57Z</time>
      </trkpt>
      <trkpt lat="59.8488357" lon="17.7776824">
        <ele>21.767</ele>
        <time>2013-05-15T15:07:58Z</time>
      </trkpt>
      <trkpt lat="59.8488257" lon="17.7775295">
        <ele>21.767</ele>
        <time>2013-05-15T15:07:59Z</time>
      </trkpt>
      <trkpt lat="59.8488135" lon="17.7773791">
        <ele>21.2864</ele>
        <time>2013-05-15T15:08:00Z</time>
      </trkpt>
      <trkpt lat="59.8488011" lon="17.777226">
        <ele>21.2864</ele>
        <time>2013-05-15T15:08:01Z</time>
      </trkpt>
      <trkpt lat="59.8487918" lon="17.7770701">
        <ele>20.8057</ele>
        <time>2013-05-15T15:08:02Z</time>
      </trkpt>
      <trkpt lat="59.848785" lon="17.7769131">
        <ele>20.8057</ele>
        <time>2013-05-15T15:08:03Z</time>
      </trkpt>
      <trkpt lat="59.8487781" lon="17.7767531">
        <ele>20.325</ele>
        <time>2013-05-15T15:08:04Z</time>
      </trkpt>
      <trkpt lat="59.8487703" lon="17.776591">
        <ele>20.325</ele>
        <time>2013-05-15T15:08:05Z</time>
      </trkpt>
      <trkpt lat="59.8487613" lon="17.7764199">
        <ele>19.8444</ele>
        <time>2013-05-15T15:08:06Z</time>
      </trkpt>
      <trkpt lat="59.8487497" lon="17.7762548">
        <ele>19.8444</ele>
        <time>2013-05-15T15:08:07Z</time>
      </trkpt>
      <trkpt lat="59.8487379" lon="17.7760842">
        <ele>19.8444</ele>
        <time>2013-05-15T15:08:08Z</time>
      </trkpt>
      <trkpt lat="59.8487266" lon="17.7759122">
        <ele>19.3638</ele>
        <time>2013-05-15T15:08:09Z</time>
      </trkpt>
      <trkpt lat="59.8487159" lon="17.7757367">
        <ele>18.8831</ele>
        <time>2013-05-15T15:08:10Z</time>
      </trkpt>
      <trkpt lat="59.8487028" lon="17.7755576">
        <ele>18.4023</ele>
        <time>2013-05-15T15:08:11Z</time>
      </trkpt>
      <trkpt lat="59.8486885" lon="17.7753758">
        <ele>18.4023</ele>
        <time>2013-05-15T15:08:12Z</time>
      </trkpt>
      <trkpt lat="59.8486731" lon="17.7751921">
        <ele>17.9218</ele>
        <time>2013-05-15T15:08:13Z</time>
      </trkpt>
      <trkpt lat="59.8486562" lon="17.7750065">
        <ele>17.4412</ele>
        <time>2013-05-15T15:08:14Z</time>
      </trkpt>
      <trkpt lat="59.8486383" lon="17.7748209">
        <ele>16.9604</ele>
        <time>2013-05-15T15:08:15Z</time>
      </trkpt>
      <trkpt lat="59.8486194" lon="17.774636">
        <ele>16.4797</ele>
        <time>2013-05-15T15:08:16Z</time>
      </trkpt>
      <trkpt lat="59.8486001" lon="17.774452">
        <ele>16.4797</ele>
        <time>2013-05-15T15:08:17Z</time>
      </trkpt>
      <trkpt lat="59.8485802" lon="17.7742702">
        <ele>15.999</ele>
        <time>2013-05-15T15:08:18Z</time>
      </trkpt>
      <trkpt lat="59.8485591" lon="17.7740898">
        <ele>15.5184</ele>
        <time>2013-05-15T15:08:19Z</time>
      </trkpt>
      <trkpt lat="59.8485378" lon="17.7739093">
        <ele>15.0377</ele>
        <time>2013-05-15T15:08:20Z</time>
      </trkpt>
      <trkpt lat="59.8485162" lon="17.7737287">
        <ele>14.557</ele>
        <time>2013-05-15T15:08:21Z</time>
      </trkpt>
      <trkpt lat="59.8484943" lon="17.7735464">
        <ele>14.557</ele>
        <time>2013-05-15T15:08:22Z</time>
      </trkpt>
      <trkpt lat="59.8484736" lon="17.7733609">
        <ele>14.0764</ele>
        <time>2013-05-15T15:08:23Z</time>
      </trkpt>
      <trkpt lat="59.8484543" lon="17.7731741">
        <ele>13.5958</ele>
        <time>2013-05-15T15:08:24Z</time>
      </trkpt>
      <trkpt lat="59.8484343" lon="17.7729852">
        <ele>13.1151</ele>
        <time>2013-05-15T15:08:25Z</time>
      </trkpt>
      <trkpt lat="59.8484125" lon="17.7727925">
        <ele>12.6344</ele>
        <time>2013-05-15T15:08:26Z</time>
      </trkpt>
      <trkpt lat="59.8483856" lon="17.7725941">
        <ele>11.6732</ele>
        <time>2013-05-15T15:08:27Z</time>
      </trkpt>
      <trkpt lat="59.848354" lon="17.7723919">
        <ele>11.1925</ele>
        <time>2013-05-15T15:08:28Z</time>
      </trkpt>
      <trkpt lat="59.8483189" lon="17.7721894">
        <ele>10.7118</ele>
        <time>2013-05-15T15:08:29Z</time>
      </trkpt>
      <trkpt lat="59.8482815" lon="17.7719869">
        <ele>10.7118</ele>
        <time>2013-05-15T15:08:30Z</time>
      </trkpt>
      <trkpt lat="59.8482443" lon="17.7717849">
        <ele>10.2312</ele>
        <time>2013-05-15T15:08:31Z</time>
      </trkpt>
      <trkpt lat="59.8482076" lon="17.7715849">
        <ele>10.2312</ele>
        <time>2013-05-15T15:08:32Z</time>
      </trkpt>
      <trkpt lat="59.848171" lon="17.7713865">
        <ele>9.75061</ele>
        <time>2013-05-15T15:08:33Z</time>
      </trkpt>
      <trkpt lat="59.8481359" lon="17.7711835">
        <ele>9.75061</ele>
        <time>2013-05-15T15:08:34Z</time>
      </trkpt>
      <trkpt lat="59.8481057" lon="17.7709768">
        <ele>10.2312</ele>
        <time>2013-05-15T15:08:35Z</time>
      </trkpt>
      <trkpt lat="59.848084" lon="17.7707637">
        <ele>10.2312</ele>
        <time>2013-05-15T15:08:36Z</time>
      </trkpt>
      <trkpt lat="59.8480712" lon="17.7705529">
        <ele>10.2312</ele>
        <time>2013-05-15T15:08:37Z</time>
      </trkpt>
      <trkpt lat="59.8480529" lon="17.7703462">
        <ele>10.2312</ele>
        <time>2013-05-15T15:08:38Z</time>
      </trkpt>
      <trkpt lat="59.8480159" lon="17.770151">
        <ele>10.2312</ele>
        <time>2013-05-15T15:08:39Z</time>
      </trkpt>
      <trkpt lat="59.8479686" lon="17.7699682">
        <ele>10.2312</ele>
        <time>2013-05-15T15:08:40Z</time>
      </trkpt>
      <trkpt lat="59.8479158" lon="17.769791">
        <ele>10.2312</ele>
        <time>2013-05-15T15:08:41Z</time>
      </trkpt>
      <trkpt lat="59.8478666" lon="17.7696149">
        <ele>10.2312</ele>
        <time>2013-05-15T15:08:42Z</time>
      </trkpt>
      <trkpt lat="59.8478251" lon="17.7694376">
        <ele>10.2312</ele>
        <time>2013-05-15T15:08:43Z</time>
      </trkpt>
      <trkpt lat="59.8477921" lon="17.769254">
        <ele>9.75061</ele>
        <time>2013-05-15T15:08:44Z</time>
      </trkpt>
      <trkpt lat="59.847764" lon="17.7690675">
        <ele>9.75061</ele>
        <time>2013-05-15T15:08:45Z</time>
      </trkpt>
      <trkpt lat="59.8477371" lon="17.7688824">
        <ele>9.75061</ele>
        <time>2013-05-15T15:08:46Z</time>
      </trkpt>
      <trkpt lat="59.8477106" lon="17.7686986">
        <ele>9.75061</ele>
        <time>2013-05-15T15:08:47Z</time>
      </trkpt>
      <trkpt lat="59.8476827" lon="17.7685179">
        <ele>9.75061</ele>
        <time>2013-05-15T15:08:48Z</time>
      </trkpt>
      <trkpt lat="59.8476542" lon="17.7683409">
        <ele>10.2312</ele>
        <time>2013-05-15T15:08:49Z</time>
      </trkpt>
      <trkpt lat="59.8476272" lon="17.7681659">
        <ele>10.2312</ele>
        <time>2013-05-15T15:08:50Z</time>
      </trkpt>
      <trkpt lat="59.8476003" lon="17.7679941">
        <ele>10.2312</ele>
        <time>2013-05-15T15:08:51Z</time>
      </trkpt>
      <trkpt lat="59.847573" lon="17.7678261">
        <ele>10.2312</ele>
        <time>2013-05-15T15:08:52Z</time>
      </trkpt>
      <trkpt lat="59.8475455" lon="17.7676592">
        <ele>10.2312</ele>
        <time>2013-05-15T15:08:53Z</time>
      </trkpt>
      <trkpt lat="59.8475172" lon="17.7674951">
        <ele>10.2312</ele>
        <time>2013-05-15T15:08:54Z</time>
      </trkpt>
      <trkpt lat="59.8474883" lon="17.7673336">
        <ele>10.7118</ele>
        <time>2013-05-15T15:08:55Z</time>
      </trkpt>
      <trkpt lat="59.8474608" lon="17.7671731">
        <ele>10.7118</ele>
        <time>2013-05-15T15:08:56Z</time>
      </trkpt>
      <trkpt lat="59.8474351" lon="17.7670124">
        <ele>10.7118</ele>
        <time>2013-05-15T15:08:57Z</time>
      </trkpt>
      <trkpt lat="59.8474107" lon="17.7668542">
        <ele>11.1925</ele>
        <time>2013-05-15T15:08:58Z</time>
      </trkpt>
      <trkpt lat="59.8473874" lon="17.7666993">
        <ele>11.1925</ele>
        <time>2013-05-15T15:08:59Z</time>
      </trkpt>
      <trkpt lat="59.8473627" lon="17.7665471">
        <ele>11.6732</ele>
        <time>2013-05-15T15:09:00Z</time>
      </trkpt>
      <trkpt lat="59.8473382" lon="17.7663999">
        <ele>11.6732</ele>
        <time>2013-05-15T15:09:01Z</time>
      </trkpt>
      <trkpt lat="59.8473144" lon="17.7662555">
        <ele>11.6732</ele>
        <time>2013-05-15T15:09:02Z</time>
      </trkpt>
      <trkpt lat="59.8472906" lon="17.7661124">
        <ele>11.6732</ele>
        <time>2013-05-15T15:09:03Z</time>
      </trkpt>
      <trkpt lat="59.8472669" lon="17.7659716">
        <ele>11.6732</ele>
        <time>2013-05-15T15:09:04Z</time>
      </trkpt>
      <trkpt lat="59.8472446" lon="17.7658339">
        <ele>11.6732</ele>
        <time>2013-05-15T15:09:05Z</time>
      </trkpt>
      <trkpt lat="59.8472232" lon="17.7656992">
        <ele>12.1538</ele>
        <time>2013-05-15T15:09:06Z</time>
      </trkpt>
      <trkpt lat="59.8472011" lon="17.7655645">
        <ele>12.1538</ele>
        <time>2013-05-15T15:09:07Z</time>
      </trkpt>
      <trkpt lat="59.8471853" lon="17.7654259">
        <ele>12.1538</ele>
        <time>2013-05-15T15:09:08Z</time>
      </trkpt>
      <trkpt lat="59.847187" lon="17.7652857">
        <ele>12.1538</ele>
        <time>2013-05-15T15:09:09Z</time>
      </trkpt>
      <trkpt lat="59.8472107" lon="17.7651521">
        <ele>12.1538</ele>
        <time>2013-05-15T15:09:10Z</time>
      </trkpt>
      <trkpt lat="59.8472515" lon="17.7650346">
        <ele>12.1538</ele>
        <time>2013-05-15T15:09:11Z</time>
      </trkpt>
      <trkpt lat="59.8472994" lon="17.764929">
        <ele>12.1538</ele>
        <time>2013-05-15T15:09:12Z</time>
      </trkpt>
      <trkpt lat="59.8473496" lon="17.7648278">
        <ele>11.6732</ele>
        <time>2013-05-15T15:09:13Z</time>
      </trkpt>
      <trkpt lat="59.8473999" lon="17.7647265">
        <ele>11.1925</ele>
        <time>2013-05-15T15:09:14Z</time>
      </trkpt>
      <trkpt lat="59.8474517" lon="17.764624">
        <ele>11.1925</ele>
        <time>2013-05-15T15:09:15Z</time>
      </trkpt>
      <trkpt lat="59.847504" lon="17.7645191">
        <ele>11.1925</ele>
        <time>2013-05-15T15:09:16Z</time>
      </trkpt>
      <trkpt lat="59.8475575" lon="17.7644113">
        <ele>10.7118</ele>
        <time>2013-05-15T15:09:17Z</time>
      </trkpt>
      <trkpt lat="59.8476117" lon="17.7643022">
        <ele>10.7118</ele>
        <time>2013-05-15T15:09:18Z</time>
      </trkpt>
      <trkpt lat="59.8476661" lon="17.7641929">
        <ele>10.7118</ele>
        <time>2013-05-15T15:09:19Z</time>
      </trkpt>
      <trkpt lat="59.8477211" lon="17.7640832">
        <ele>10.2312</ele>
        <time>2013-05-15T15:09:20Z</time>
      </trkpt>
      <trkpt lat="59.8477759" lon="17.763972">
        <ele>10.2312</ele>
        <time>2013-05-15T15:09:21Z</time>
      </trkpt>
      <trkpt lat="59.8478292" lon="17.7638578">
        <ele>10.2312</ele>
        <time>2013-05-15T15:09:22Z</time>
      </trkpt>
      <trkpt lat="59.8478847" lon="17.7637431">
        <ele>9.75061</ele>
        <time>2013-05-15T15:09:23Z</time>
      </trkpt>
      <trkpt lat="59.8479408" lon="17.7636302">
        <ele>9.75061</ele>
        <time>2013-05-15T15:09:24Z</time>
      </trkpt>
      <trkpt lat="59.8479982" lon="17.76352">
        <ele>9.2699</ele>
        <time>2013-05-15T15:09:25Z</time>
      </trkpt>
      <trkpt lat="59.8480524" lon="17.7634108">
        <ele>8.78918</ele>
        <time>2013-05-15T15:09:26Z</time>
      </trkpt>
      <trkpt lat="59.8481057" lon="17.7633004">
        <ele>8.78918</ele>
        <time>2013-05-15T15:09:27Z</time>
      </trkpt>
      <trkpt lat="59.848158" lon="17.7631909">
        <ele>8.78918</ele>
        <time>2013-05-15T15:09:28Z</time>
      </trkpt>
      <trkpt lat="59.8482106" lon="17.7630847">
        <ele>8.78918</ele>
        <time>2013-05-15T15:09:29Z</time>
      </trkpt>
      <trkpt lat="59.8482608" lon="17.7629735">
        <ele>8.30859</ele>
        <time>2013-05-15T15:09:30Z</time>
      </trkpt>
      <trkpt lat="59.8483007" lon="17.7628481">
        <ele>7.82788</ele>
        <time>2013-05-15T15:09:31Z</time>
      </trkpt>
      <trkpt lat="59.8483254" lon="17.7627088">
        <ele>7.34717</ele>
        <time>2013-05-15T15:09:32Z</time>
      </trkpt>
      <trkpt lat="59.8483388" lon="17.7625642">
        <ele>7.82788</ele>
        <time>2013-05-15T15:09:33Z</time>
      </trkpt>
      <trkpt lat="59.8483482" lon="17.7624181">
        <ele>7.82788</ele>
        <time>2013-05-15T15:09:34Z</time>
      </trkpt>
      <trkpt lat="59.848356" lon="17.7622685">
        <ele>7.82788</ele>
        <time>2013-05-15T15:09:35Z</time>
      </trkpt>
      <trkpt lat="59.8483618" lon="17.7621168">
        <ele>7.82788</ele>
        <time>2013-05-15T15:09:36Z</time>
      </trkpt>
      <trkpt lat="59.8483663" lon="17.7619629">
        <ele>7.82788</ele>
        <time>2013-05-15T15:09:37Z</time>
      </trkpt>
      <trkpt lat="59.8483696" lon="17.7618064">
        <ele>7.82788</ele>
        <time>2013-05-15T15:09:38Z</time>
      </trkpt>
      <trkpt lat="59.8483725" lon="17.7616477">
        <ele>7.82788</ele>
        <time>2013-05-15T15:09:39Z</time>
      </trkpt>
      <trkpt lat="59.8483753" lon="17.7614873">
        <ele>7.34717</ele>
        <time>2013-05-15T15:09:40Z</time>
      </trkpt>
      <trkpt lat="59.84838" lon="17.7613251">
        <ele>7.34717</ele>
        <time>2013-05-15T15:09:41Z</time>
      </trkpt>
      <trkpt lat="59.8483871" lon="17.7611615">
        <ele>7.34717</ele>
        <time>2013-05-15T15:09:42Z</time>
      </trkpt>
      <trkpt lat="59.8483934" lon="17.7609963">
        <ele>7.34717</ele>
        <time>2013-05-15T15:09:43Z</time>
      </trkpt>
      <trkpt lat="59.8483981" lon="17.7608294">
        <ele>7.34717</ele>
        <time>2013-05-15T15:09:44Z</time>
      </trkpt>
      <trkpt lat="59.8484025" lon="17.7606607">
        <ele>7.34717</ele>
        <time>2013-05-15T15:09:45Z</time>
      </trkpt>
      <trkpt lat="59.8484065" lon="17.7604902">
        <ele>7.34717</ele>
        <time>2013-05-15T15:09:46Z</time>
      </trkpt>
      <trkpt lat="59.8484104" lon="17.7603219">
        <ele>7.34717</ele>
        <time>2013-05-15T15:09:47Z</time>
      </trkpt>
      <trkpt lat="59.8484141" lon="17.760158">
        <ele>7.34717</ele>
        <time>2013-05-15T15:09:48Z</time>
      </trkpt>
      <trkpt lat="59.8484183" lon="17.759997">
        <ele>7.34717</ele>
        <time>2013-05-15T15:09:49Z</time>
      </trkpt>
      <trkpt lat="59.8484219" lon="17.7598389">
        <ele>7.34717</ele>
        <time>2013-05-15T15:09:50Z</time>
      </trkpt>
      <trkpt lat="59.8484255" lon="17.7596834">
        <ele>7.34717</ele>
        <time>2013-05-15T15:09:51Z</time>
      </trkpt>
      <trkpt lat="59.8484301" lon="17.7595307">
        <ele>7.34717</ele>
        <time>2013-05-15T15:09:52Z</time>
      </trkpt>
      <trkpt lat="59.8484347" lon="17.7593797">
        <ele>7.34717</ele>
        <time>2013-05-15T15:09:53Z</time>
      </trkpt>
      <trkpt lat="59.8484395" lon="17.7592297">
        <ele>7.34717</ele>
        <time>2013-05-15T15:09:54Z</time>
      </trkpt>
      <trkpt lat="59.8484443" lon="17.7590804">
        <ele>7.82788</ele>
        <time>2013-05-15T15:09:55Z</time>
      </trkpt>
      <trkpt lat="59.8484488" lon="17.7589335">
        <ele>7.82788</ele>
        <time>2013-05-15T15:09:56Z</time>
      </trkpt>
      <trkpt lat="59.8484534" lon="17.7587888">
        <ele>7.82788</ele>
        <time>2013-05-15T15:09:57Z</time>
      </trkpt>
      <trkpt lat="59.8484574" lon="17.758646">
        <ele>7.82788</ele>
        <time>2013-05-15T15:09:58Z</time>
      </trkpt>
      <trkpt lat="59.84846" lon="17.7585052">
        <ele>7.82788</ele>
        <time>2013-05-15T15:09:59Z</time>
      </trkpt>
      <trkpt lat="59.8484626" lon="17.7583666">
        <ele>8.30859</ele>
        <time>2013-05-15T15:10:00Z</time>
      </trkpt>
      <trkpt lat="59.8484665" lon="17.7582302">
        <ele>8.30859</ele>
        <time>2013-05-15T15:10:01Z</time>
      </trkpt>
      <trkpt lat="59.8484706" lon="17.7580949">
        <ele>8.30859</ele>
        <time>2013-05-15T15:10:02Z</time>
      </trkpt>
      <trkpt lat="59.8484743" lon="17.7579598">
        <ele>8.30859</ele>
        <time>2013-05-15T15:10:03Z</time>
      </trkpt>
      <trkpt lat="59.8484777" lon="17.7578245">
        <ele>8.30859</ele>
        <time>2013-05-15T15:10:04Z</time>
      </trkpt>
      <trkpt lat="59.8484804" lon="17.7576882">
        <ele>8.30859</ele>
        <time>2013-05-15T15:10:05Z</time>
      </trkpt>
      <trkpt lat="59.8484825" lon="17.7575513">
        <ele>8.30859</ele>
        <time>2013-05-15T15:10:06Z</time>
      </trkpt>
      <trkpt lat="59.848484" lon="17.7574135">
        <ele>8.30859</ele>
        <time>2013-05-15T15:10:07Z</time>
      </trkpt>
      <trkpt lat="59.8484854" lon="17.7572742">
        <ele>8.30859</ele>
        <time>2013-05-15T15:10:08Z</time>
      </trkpt>
      <trkpt lat="59.8484867" lon="17.7571343">
        <ele>8.30859</ele>
        <time>2013-05-15T15:10:09Z</time>
      </trkpt>
      <trkpt lat="59.8484862" lon="17.7569931">
        <ele>8.30859</ele>
        <time>2013-05-15T15:10:10Z</time>
      </trkpt>
      <trkpt lat="59.8484846" lon="17.75685">
        <ele>8.30859</ele>
        <time>2013-05-15T15:10:11Z</time>
      </trkpt>
      <trkpt lat="59.8484824" lon="17.7567066">
        <ele>8.30859</ele>
        <time>2013-05-15T15:10:12Z</time>
      </trkpt>
      <trkpt lat="59.8484778" lon="17.7565622">
        <ele>8.30859</ele>
        <time>2013-05-15T15:10:13Z</time>
      </trkpt>
      <trkpt lat="59.8484716" lon="17.7564174">
        <ele>8.30859</ele>
        <time>2013-05-15T15:10:14Z</time>
      </trkpt>
      <trkpt lat="59.8484642" lon="17.756272">
        <ele>8.30859</ele>
        <time>2013-05-15T15:10:15Z</time>
      </trkpt>
      <trkpt lat="59.8484564" lon="17.7561259">
        <ele>8.30859</ele>
        <time>2013-05-15T15:10:16Z</time>
      </trkpt>
      <trkpt lat="59.8484483" lon="17.7559809">
        <ele>8.30859</ele>
        <time>2013-05-15T15:10:17Z</time>
      </trkpt>
      <trkpt lat="59.8484391" lon="17.7558391">
        <ele>8.78918</ele>
        <time>2013-05-15T15:10:18Z</time>
      </trkpt>
      <trkpt lat="59.8484286" lon="17.7557006">
        <ele>8.78918</ele>
        <time>2013-05-15T15:10:19Z</time>
      </trkpt>
      <trkpt lat="59.8484171" lon="17.7555634">
        <ele>8.78918</ele>
        <time>2013-05-15T15:10:20Z</time>
      </trkpt>
      <trkpt lat="59.8484048" lon="17.7554282">
        <ele>8.78918</ele>
        <time>2013-05-15T15:10:21Z</time>
      </trkpt>
      <trkpt lat="59.8483906" lon="17.755296">
        <ele>9.2699</ele>
        <time>2013-05-15T15:10:22Z</time>
      </trkpt>
      <trkpt lat="59.8483767" lon="17.7551686">
        <ele>9.2699</ele>
        <time>2013-05-15T15:10:23Z</time>
      </trkpt>
      <trkpt lat="59.8483634" lon="17.7550444">
        <ele>9.75061</ele>
        <time>2013-05-15T15:10:24Z</time>
      </trkpt>
      <trkpt lat="59.8483494" lon="17.754922">
        <ele>9.75061</ele>
        <time>2013-05-15T15:10:25Z</time>
      </trkpt>
      <trkpt lat="59.8483349" lon="17.7548003">
        <ele>10.2312</ele>
        <time>2013-05-15T15:10:26Z</time>
      </trkpt>
      <trkpt lat="59.84832" lon="17.7546786">
        <ele>10.2312</ele>
        <time>2013-05-15T15:10:27Z</time>
      </trkpt>
      <trkpt lat="59.8483062" lon="17.7545568">
        <ele>10.2312</ele>
        <time>2013-05-15T15:10:28Z</time>
      </trkpt>
      <trkpt lat="59.8482922" lon="17.7544345">
        <ele>10.7118</ele>
        <time>2013-05-15T15:10:29Z</time>
      </trkpt>
      <trkpt lat="59.8482769" lon="17.7543116">
        <ele>10.7118</ele>
        <time>2013-05-15T15:10:30Z</time>
      </trkpt>
      <trkpt lat="59.8482616" lon="17.754188">
        <ele>10.7118</ele>
        <time>2013-05-15T15:10:31Z</time>
      </trkpt>
      <trkpt lat="59.8482458" lon="17.754063">
        <ele>11.1925</ele>
        <time>2013-05-15T15:10:32Z</time>
      </trkpt>
      <trkpt lat="59.8482308" lon="17.7539369">
        <ele>11.1925</ele>
        <time>2013-05-15T15:10:33Z</time>
      </trkpt>
      <trkpt lat="59.8482157" lon="17.7538109">
        <ele>11.1925</ele>
        <time>2013-05-15T15:10:34Z</time>
      </trkpt>
      <trkpt lat="59.848199" lon="17.7536857">
        <ele>11.6732</ele>
        <time>2013-05-15T15:10:35Z</time>
      </trkpt>
      <trkpt lat="59.8481826" lon="17.7535607">
        <ele>11.6732</ele>
        <time>2013-05-15T15:10:36Z</time>
      </trkpt>
      <trkpt lat="59.8481687" lon="17.7534349">
        <ele>12.1538</ele>
        <time>2013-05-15T15:10:37Z</time>
      </trkpt>
      <trkpt lat="59.8481545" lon="17.7533101">
        <ele>12.1538</ele>
        <time>2013-05-15T15:10:38Z</time>
      </trkpt>
      <trkpt lat="59.8481394" lon="17.7531904">
        <ele>12.6344</ele>
        <time>2013-05-15T15:10:39Z</time>
      </trkpt>
      <trkpt lat="59.848124" lon="17.7530734">
        <ele>12.6344</ele>
        <time>2013-05-15T15:10:40Z</time>
      </trkpt>
      <trkpt lat="59.8481089" lon="17.7529566">
        <ele>12.6344</ele>
        <time>2013-05-15T15:10:41Z</time>
      </trkpt>
      <trkpt lat="59.8480935" lon="17.7528385">
        <ele>12.6344</ele>
        <time>2013-05-15T15:10:42Z</time>
      </trkpt>
      <trkpt lat="59.8480783" lon="17.7527199">
        <ele>12.6344</ele>
        <time>2013-05-15T15:10:43Z</time>
      </trkpt>
      <trkpt lat="59.8480634" lon="17.7526022">
        <ele>12.6344</ele>
        <time>2013-05-15T15:10:44Z</time>
      </trkpt>
      <trkpt lat="59.8480472" lon="17.75249">
        <ele>12.6344</ele>
        <time>2013-05-15T15:10:45Z</time>
      </trkpt>
      <trkpt lat="59.8480309" lon="17.7523802">
        <ele>13.1151</ele>
        <time>2013-05-15T15:10:46Z</time>
      </trkpt>
      <trkpt lat="59.8480173" lon="17.7522681">
        <ele>13.1151</ele>
        <time>2013-05-15T15:10:47Z</time>
      </trkpt>
      <trkpt lat="59.8480054" lon="17.7521547">
        <ele>13.1151</ele>
        <time>2013-05-15T15:10:48Z</time>
      </trkpt>
      <trkpt lat="59.8479925" lon="17.7520408">
        <ele>13.5958</ele>
        <time>2013-05-15T15:10:49Z</time>
      </trkpt>
      <trkpt lat="59.8479773" lon="17.7519279">
        <ele>13.5958</ele>
        <time>2013-05-15T15:10:50Z</time>
      </trkpt>
      <trkpt lat="59.8479612" lon="17.7518154">
        <ele>13.5958</ele>
        <time>2013-05-15T15:10:51Z</time>
      </trkpt>
      <trkpt lat="59.8479449" lon="17.7517005">
        <ele>13.5958</ele>
        <time>2013-05-15T15:10:52Z</time>
      </trkpt>
      <trkpt lat="59.8479298" lon="17.7515877">
        <ele>14.0764</ele>
        <time>2013-05-15T15:10:53Z</time>
      </trkpt>
      <trkpt lat="59.8479166" lon="17.7514747">
        <ele>14.0764</ele>
        <time>2013-05-15T15:10:54Z</time>
      </trkpt>
      <trkpt lat="59.8479044" lon="17.751357">
        <ele>14.0764</ele>
        <time>2013-05-15T15:10:55Z</time>
      </trkpt>
      <trkpt lat="59.8478933" lon="17.7512384">
        <ele>14.557</ele>
        <time>2013-05-15T15:10:56Z</time>
      </trkpt>
      <trkpt lat="59.8478824" lon="17.7511194">
        <ele>14.557</ele>
        <time>2013-05-15T15:10:57Z</time>
      </trkpt>
      <trkpt lat="59.8478714" lon="17.7510002">
        <ele>14.557</ele>
        <time>2013-05-15T15:10:58Z</time>
      </trkpt>
      <trkpt lat="59.8478614" lon="17.7508821">
        <ele>14.557</ele>
        <time>2013-05-15T15:10:59Z</time>
      </trkpt>
      <trkpt lat="59.8478526" lon="17.750765">
        <ele>14.557</ele>
        <time>2013-05-15T15:11:00Z</time>
      </trkpt>
      <trkpt lat="59.8478433" lon="17.750648">
        <ele>14.557</ele>
        <time>2013-05-15T15:11:01Z</time>
      </trkpt>
      <trkpt lat="59.8478336" lon="17.750533">
        <ele>14.557</ele>
        <time>2013-05-15T15:11:02Z</time>
      </trkpt>
      <trkpt lat="59.8478246" lon="17.7504154">
        <ele>15.0377</ele>
        <time>2013-05-15T15:11:03Z</time>
      </trkpt>
      <trkpt lat="59.8478168" lon="17.7502962">
        <ele>15.0377</ele>
        <time>2013-05-15T15:11:04Z</time>
      </trkpt>
      <trkpt lat="59.84781" lon="17.7501782">
        <ele>15.0377</ele>
        <time>2013-05-15T15:11:05Z</time>
      </trkpt>
      <trkpt lat="59.8478025" lon="17.7500637">
        <ele>15.0377</ele>
        <time>2013-05-15T15:11:06Z</time>
      </trkpt>
      <trkpt lat="59.8477951" lon="17.7499477">
        <ele>15.0377</ele>
        <time>2013-05-15T15:11:07Z</time>
      </trkpt>
      <trkpt lat="59.8477882" lon="17.749827">
        <ele>15.0377</ele>
        <time>2013-05-15T15:11:08Z</time>
      </trkpt>
      <trkpt lat="59.8477814" lon="17.7497058">
        <ele>15.0377</ele>
        <time>2013-05-15T15:11:09Z</time>
      </trkpt>
      <trkpt lat="59.847775" lon="17.7495832">
        <ele>15.0377</ele>
        <time>2013-05-15T15:11:10Z</time>
      </trkpt>
      <trkpt lat="59.8477696" lon="17.7494594">
        <ele>15.0377</ele>
        <time>2013-05-15T15:11:11Z</time>
      </trkpt>
      <trkpt lat="59.8477651" lon="17.7493344">
        <ele>14.557</ele>
        <time>2013-05-15T15:11:12Z</time>
      </trkpt>
      <trkpt lat="59.8477618" lon="17.7492079">
        <ele>14.557</ele>
        <time>2013-05-15T15:11:13Z</time>
      </trkpt>
      <trkpt lat="59.847759" lon="17.7490806">
        <ele>14.557</ele>
        <time>2013-05-15T15:11:14Z</time>
      </trkpt>
      <trkpt lat="59.8477567" lon="17.748953">
        <ele>14.557</ele>
        <time>2013-05-15T15:11:15Z</time>
      </trkpt>
      <trkpt lat="59.8477532" lon="17.7488259">
        <ele>14.557</ele>
        <time>2013-05-15T15:11:16Z</time>
      </trkpt>
      <trkpt lat="59.847749" lon="17.7487008">
        <ele>14.557</ele>
        <time>2013-05-15T15:11:17Z</time>
      </trkpt>
      <trkpt lat="59.8477467" lon="17.748577">
        <ele>15.0377</ele>
        <time>2013-05-15T15:11:18Z</time>
      </trkpt>
      <trkpt lat="59.8477449" lon="17.7484526">
        <ele>15.5184</ele>
        <time>2013-05-15T15:11:19Z</time>
      </trkpt>
      <trkpt lat="59.8477416" lon="17.7483278">
        <ele>15.5184</ele>
        <time>2013-05-15T15:11:20Z</time>
      </trkpt>
      <trkpt lat="59.8477393" lon="17.7482028">
        <ele>15.5184</ele>
        <time>2013-05-15T15:11:21Z</time>
      </trkpt>
      <trkpt lat="59.8477397" lon="17.7480776">
        <ele>15.5184</ele>
        <time>2013-05-15T15:11:22Z</time>
      </trkpt>
      <trkpt lat="59.8477407" lon="17.7479518">
        <ele>15.0377</ele>
        <time>2013-05-15T15:11:23Z</time>
      </trkpt>
      <trkpt lat="59.8477406" lon="17.7478253">
        <ele>15.0377</ele>
        <time>2013-05-15T15:11:24Z</time>
      </trkpt>
      <trkpt lat="59.8477405" lon="17.7476972">
        <ele>15.0377</ele>
        <time>2013-05-15T15:11:25Z</time>
      </trkpt>
      <trkpt lat="59.8477415" lon="17.7475679">
        <ele>14.557</ele>
        <time>2013-05-15T15:11:26Z</time>
      </trkpt>
      <trkpt lat="59.8477422" lon="17.7474372">
        <ele>14.557</ele>
        <time>2013-05-15T15:11:27Z</time>
      </trkpt>
      <trkpt lat="59.8477431" lon="17.7473046">
        <ele>14.557</ele>
        <time>2013-05-15T15:11:28Z</time>
      </trkpt>
      <trkpt lat="59.8477454" lon="17.74717">
        <ele>14.0764</ele>
        <time>2013-05-15T15:11:29Z</time>
      </trkpt>
      <trkpt lat="59.8477476" lon="17.7470326">
        <ele>14.0764</ele>
        <time>2013-05-15T15:11:30Z</time>
      </trkpt>
      <trkpt lat="59.847749" lon="17.7468922">
        <ele>13.5958</ele>
        <time>2013-05-15T15:11:31Z</time>
      </trkpt>
      <trkpt lat="59.8477506" lon="17.7467493">
        <ele>13.5958</ele>
        <time>2013-05-15T15:11:32Z</time>
      </trkpt>
      <trkpt lat="59.8477517" lon="17.7466031">
        <ele>13.1151</ele>
        <time>2013-05-15T15:11:33Z</time>
      </trkpt>
      <trkpt lat="59.8477532" lon="17.7464546">
        <ele>13.1151</ele>
        <time>2013-05-15T15:11:34Z</time>
      </trkpt>
      <trkpt lat="59.8477564" lon="17.7463043">
        <ele>12.6344</ele>
        <time>2013-05-15T15:11:35Z</time>
      </trkpt>
      <trkpt lat="59.8477607" lon="17.7461527">
        <ele>12.6344</ele>
        <time>2013-05-15T15:11:36Z</time>
      </trkpt>
      <trkpt lat="59.8477645" lon="17.7459998">
        <ele>12.6344</ele>
        <time>2013-05-15T15:11:37Z</time>
      </trkpt>
      <trkpt lat="59.8477671" lon="17.745846">
        <ele>12.6344</ele>
        <time>2013-05-15T15:11:38Z</time>
      </trkpt>
      <trkpt lat="59.8477691" lon="17.7456914">
        <ele>12.1538</ele>
        <time>2013-05-15T15:11:39Z</time>
      </trkpt>
      <trkpt lat="59.8477702" lon="17.7455351">
        <ele>12.1538</ele>
        <time>2013-05-15T15:11:40Z</time>
      </trkpt>
      <trkpt lat="59.8477706" lon="17.7453771">
        <ele>12.1538</ele>
        <time>2013-05-15T15:11:41Z</time>
      </trkpt>
      <trkpt lat="59.8477728" lon="17.7452186">
        <ele>12.1538</ele>
        <time>2013-05-15T15:11:42Z</time>
      </trkpt>
      <trkpt lat="59.8477771" lon="17.7450602">
        <ele>11.6732</ele>
        <time>2013-05-15T15:11:43Z</time>
      </trkpt>
      <trkpt lat="59.8477816" lon="17.7449015">
        <ele>11.6732</ele>
        <time>2013-05-15T15:11:44Z</time>
      </trkpt>
      <trkpt lat="59.8477843" lon="17.7447422">
        <ele>11.6732</ele>
        <time>2013-05-15T15:11:45Z</time>
      </trkpt>
      <trkpt lat="59.8477868" lon="17.7445825">
        <ele>11.1925</ele>
        <time>2013-05-15T15:11:46Z</time>
      </trkpt>
      <trkpt lat="59.8477888" lon="17.744423">
        <ele>11.1925</ele>
        <time>2013-05-15T15:11:47Z</time>
      </trkpt>
      <trkpt lat="59.8477902" lon="17.7442645">
        <ele>11.1925</ele>
        <time>2013-05-15T15:11:48Z</time>
      </trkpt>
      <trkpt lat="59.8477919" lon="17.7441059">
        <ele>11.1925</ele>
        <time>2013-05-15T15:11:49Z</time>
      </trkpt>
      <trkpt lat="59.8477937" lon="17.743947">
        <ele>11.1925</ele>
        <time>2013-05-15T15:11:50Z</time>
      </trkpt>
      <trkpt lat="59.8477967" lon="17.7437889">
        <ele>11.1925</ele>
        <time>2013-05-15T15:11:51Z</time>
      </trkpt>
      <trkpt lat="59.8478003" lon="17.743631">
        <ele>11.1925</ele>
        <time>2013-05-15T15:11:52Z</time>
      </trkpt>
      <trkpt lat="59.847803" lon="17.7434731">
        <ele>11.1925</ele>
        <time>2013-05-15T15:11:53Z</time>
      </trkpt>
      <trkpt lat="59.8478047" lon="17.743315">
        <ele>11.1925</ele>
        <time>2013-05-15T15:11:54Z</time>
      </trkpt>
      <trkpt lat="59.8478074" lon="17.7431576">
        <ele>11.1925</ele>
        <time>2013-05-15T15:11:55Z</time>
      </trkpt>
      <trkpt lat="59.8478105" lon="17.7430015">
        <ele>11.1925</ele>
        <time>2013-05-15T15:11:56Z</time>
      </trkpt>
      <trkpt lat="59.8478121" lon="17.7428461">
        <ele>11.1925</ele>
        <time>2013-05-15T15:11:57Z</time>
      </trkpt>
      <trkpt lat="59.8478127" lon="17.742694">
        <ele>11.1925</ele>
        <time>2013-05-15T15:11:58Z</time>
      </trkpt>
      <trkpt lat="59.8478153" lon="17.7425456">
        <ele>11.1925</ele>
        <time>2013-05-15T15:11:59Z</time>
      </trkpt>
      <trkpt lat="59.847819" lon="17.7423974">
        <ele>11.1925</ele>
        <time>2013-05-15T15:12:00Z</time>
      </trkpt>
      <trkpt lat="59.8478215" lon="17.7422488">
        <ele>11.1925</ele>
        <time>2013-05-15T15:12:01Z</time>
      </trkpt>
      <trkpt lat="59.8478234" lon="17.7420999">
        <ele>11.1925</ele>
        <time>2013-05-15T15:12:02Z</time>
      </trkpt>
      <trkpt lat="59.8478262" lon="17.7419509">
        <ele>11.1925</ele>
        <time>2013-05-15T15:12:03Z</time>
      </trkpt>
      <trkpt lat="59.8478301" lon="17.7418029">
        <ele>11.6732</ele>
        <time>2013-05-15T15:12:04Z</time>
      </trkpt>
      <trkpt lat="59.8478328" lon="17.7416569">
        <ele>11.6732</ele>
        <time>2013-05-15T15:12:05Z</time>
      </trkpt>
      <trkpt lat="59.8478341" lon="17.7415123">
        <ele>11.6732</ele>
        <time>2013-05-15T15:12:06Z</time>
      </trkpt>
      <trkpt lat="59.847836" lon="17.741369">
        <ele>12.1538</ele>
        <time>2013-05-15T15:12:07Z</time>
      </trkpt>
      <trkpt lat="59.8478389" lon="17.7412262">
        <ele>12.1538</ele>
        <time>2013-05-15T15:12:08Z</time>
      </trkpt>
      <trkpt lat="59.847842" lon="17.7410822">
        <ele>12.1538</ele>
        <time>2013-05-15T15:12:09Z</time>
      </trkpt>
      <trkpt lat="59.8478438" lon="17.7409362">
        <ele>12.1538</ele>
        <time>2013-05-15T15:12:10Z</time>
      </trkpt>
      <trkpt lat="59.8478451" lon="17.740789">
        <ele>12.1538</ele>
        <time>2013-05-15T15:12:11Z</time>
      </trkpt>
      <trkpt lat="59.8478469" lon="17.7406408">
        <ele>12.1538</ele>
        <time>2013-05-15T15:12:12Z</time>
      </trkpt>
      <trkpt lat="59.8478484" lon="17.7404919">
        <ele>12.1538</ele>
        <time>2013-05-15T15:12:13Z</time>
      </trkpt>
      <trkpt lat="59.847849" lon="17.7403423">
        <ele>12.1538</ele>
        <time>2013-05-15T15:12:14Z</time>
      </trkpt>
      <trkpt lat="59.8478469" lon="17.7401952">
        <ele>12.1538</ele>
        <time>2013-05-15T15:12:15Z</time>
      </trkpt>
      <trkpt lat="59.8478441" lon="17.7400546">
        <ele>12.1538</ele>
        <time>2013-05-15T15:12:16Z</time>
      </trkpt>
      <trkpt lat="59.8478454" lon="17.7399177">
        <ele>12.1538</ele>
        <time>2013-05-15T15:12:17Z</time>
      </trkpt>
      <trkpt lat="59.8478521" lon="17.7397869">
        <ele>12.1538</ele>
        <time>2013-05-15T15:12:18Z</time>
      </trkpt>
      <trkpt lat="59.8478576" lon="17.7396641">
        <ele>12.1538</ele>
        <time>2013-05-15T15:12:19Z</time>
      </trkpt>
      <trkpt lat="59.8478578" lon="17.7395512">
        <ele>12.1538</ele>
        <time>2013-05-15T15:12:20Z</time>
      </trkpt>
      <trkpt lat="59.8478567" lon="17.7394533">
        <ele>12.6344</ele>
        <time>2013-05-15T15:12:21Z</time>
      </trkpt>
      <trkpt lat="59.8478599" lon="17.7393724">
        <ele>12.6344</ele>
        <time>2013-05-15T15:12:22Z</time>
      </trkpt>
      <trkpt lat="59.8478635" lon="17.7393018">
        <ele>12.1538</ele>
        <time>2013-05-15T15:12:23Z</time>
      </trkpt>
      <trkpt lat="59.8478614" lon="17.7392357">
        <ele>12.1538</ele>
        <time>2013-05-15T15:12:24Z</time>
      </trkpt>
      <trkpt lat="59.847856" lon="17.7391724">
        <ele>12.1538</ele>
        <time>2013-05-15T15:12:25Z</time>
      </trkpt>
      <trkpt lat="59.8478538" lon="17.7391053">
        <ele>12.6344</ele>
        <time>2013-05-15T15:12:26Z</time>
      </trkpt>
      <trkpt lat="59.8478614" lon="17.739031">
        <ele>12.6344</ele>
        <time>2013-05-15T15:12:27Z</time>
      </trkpt>
      <trkpt lat="59.8478815" lon="17.7389554">
        <ele>12.6344</ele>
        <time>2013-05-15T15:12:28Z</time>
      </trkpt>
      <trkpt lat="59.8479182" lon="17.7388962">
        <ele>12.6344</ele>
        <time>2013-05-15T15:12:29Z</time>
      </trkpt>
      <trkpt lat="59.8479686" lon="17.7388571">
        <ele>12.6344</ele>
        <time>2013-05-15T15:12:30Z</time>
      </trkpt>
      <trkpt lat="59.8480263" lon="17.7388337">
        <ele>12.6344</ele>
        <time>2013-05-15T15:12:31Z</time>
      </trkpt>
      <trkpt lat="59.8480877" lon="17.7388109">
        <ele>12.6344</ele>
        <time>2013-05-15T15:12:32Z</time>
      </trkpt>
      <trkpt lat="59.8481511" lon="17.7387829">
        <ele>12.1538</ele>
        <time>2013-05-15T15:12:33Z</time>
      </trkpt>
      <trkpt lat="59.8482168" lon="17.7387537">
        <ele>12.1538</ele>
        <time>2013-05-15T15:12:34Z</time>
      </trkpt>
      <trkpt lat="59.8482844" lon="17.7387239">
        <ele>12.1538</ele>
        <time>2013-05-15T15:12:35Z</time>
      </trkpt>
      <trkpt lat="59.8483513" lon="17.7386921">
        <ele>12.1538</ele>
        <time>2013-05-15T15:12:36Z</time>
      </trkpt>
      <trkpt lat="59.8484183" lon="17.7386586">
        <ele>12.1538</ele>
        <time>2013-05-15T15:12:37Z</time>
      </trkpt>
      <trkpt lat="59.8484847" lon="17.7386274">
        <ele>12.1538</ele>
        <time>2013-05-15T15:12:38Z</time>
      </trkpt>
      <trkpt lat="59.8485499" lon="17.7385959">
        <ele>12.1538</ele>
        <time>2013-05-15T15:12:39Z</time>
      </trkpt>
      <trkpt lat="59.8486151" lon="17.738561">
        <ele>12.1538</ele>
        <time>2013-05-15T15:12:40Z</time>
      </trkpt>
      <trkpt lat="59.8486825" lon="17.7385274">
        <ele>12.1538</ele>
        <time>2013-05-15T15:12:41Z</time>
      </trkpt>
      <trkpt lat="59.8487522" lon="17.7384944">
        <ele>12.1538</ele>
        <time>2013-05-15T15:12:42Z</time>
      </trkpt>
      <trkpt lat="59.8488237" lon="17.7384608">
        <ele>12.1538</ele>
        <time>2013-05-15T15:12:43Z</time>
      </trkpt>
      <trkpt lat="59.8488973" lon="17.7384271">
        <ele>12.6344</ele>
        <time>2013-05-15T15:12:44Z</time>
      </trkpt>
      <trkpt lat="59.8489718" lon="17.7383911">
        <ele>12.6344</ele>
        <time>2013-05-15T15:12:45Z</time>
      </trkpt>
      <trkpt lat="59.8490477" lon="17.7383555">
        <ele>13.1151</ele>
        <time>2013-05-15T15:12:46Z</time>
      </trkpt>
      <trkpt lat="59.8491248" lon="17.7383207">
        <ele>13.1151</ele>
        <time>2013-05-15T15:12:47Z</time>
      </trkpt>
      <trkpt lat="59.8492027" lon="17.7382832">
        <ele>13.1151</ele>
        <time>2013-05-15T15:12:48Z</time>
      </trkpt>
      <trkpt lat="59.8492818" lon="17.7382447">
        <ele>13.5958</ele>
        <time>2013-05-15T15:12:49Z</time>
      </trkpt>
      <trkpt lat="59.8493617" lon="17.7382077">
        <ele>13.5958</ele>
        <time>2013-05-15T15:12:50Z</time>
      </trkpt>
      <trkpt lat="59.8494423" lon="17.7381732">
        <ele>13.5958</ele>
        <time>2013-05-15T15:12:51Z</time>
      </trkpt>
      <trkpt lat="59.849524" lon="17.7381414">
        <ele>14.0764</ele>
        <time>2013-05-15T15:12:52Z</time>
      </trkpt>
      <trkpt lat="59.8496062" lon="17.738109">
        <ele>14.0764</ele>
        <time>2013-05-15T15:12:53Z</time>
      </trkpt>
      <trkpt lat="59.8496888" lon="17.7380784">
        <ele>14.0764</ele>
        <time>2013-05-15T15:12:54Z</time>
      </trkpt>
      <trkpt lat="59.8497718" lon="17.738049">
        <ele>14.0764</ele>
        <time>2013-05-15T15:12:55Z</time>
      </trkpt>
      <trkpt lat="59.8498552" lon="17.7380187">
        <ele>14.0764</ele>
        <time>2013-05-15T15:12:56Z</time>
      </trkpt>
      <trkpt lat="59.8499407" lon="17.7379862">
        <ele>14.0764</ele>
        <time>2013-05-15T15:12:57Z</time>
      </trkpt>
      <trkpt lat="59.8500267" lon="17.7379495">
        <ele>14.557</ele>
        <time>2013-05-15T15:12:58Z</time>
      </trkpt>
      <trkpt lat="59.8501126" lon="17.7379096">
        <ele>14.557</ele>
        <time>2013-05-15T15:12:59Z</time>
      </trkpt>
      <trkpt lat="59.8501983" lon="17.7378656">
        <ele>14.557</ele>
        <time>2013-05-15T15:13:00Z</time>
      </trkpt>
      <trkpt lat="59.8502841" lon="17.7378152">
        <ele>14.557</ele>
        <time>2013-05-15T15:13:01Z</time>
      </trkpt>
      <trkpt lat="59.8503705" lon="17.7377592">
        <ele>14.557</ele>
        <time>2013-05-15T15:13:02Z</time>
      </trkpt>
      <trkpt lat="59.8504577" lon="17.7377013">
        <ele>14.557</ele>
        <time>2013-05-15T15:13:03Z</time>
      </trkpt>
      <trkpt lat="59.8505453" lon="17.737641">
        <ele>14.557</ele>
        <time>2013-05-15T15:13:04Z</time>
      </trkpt>
      <trkpt lat="59.8506329" lon="17.7375758">
        <ele>14.557</ele>
        <time>2013-05-15T15:13:05Z</time>
      </trkpt>
      <trkpt lat="59.8507181" lon="17.7375062">
        <ele>14.0764</ele>
        <time>2013-05-15T15:13:06Z</time>
      </trkpt>
      <trkpt lat="59.8508032" lon="17.7374366">
        <ele>13.5958</ele>
        <time>2013-05-15T15:13:07Z</time>
      </trkpt>
      <trkpt lat="59.8508891" lon="17.7373698">
        <ele>13.5958</ele>
        <time>2013-05-15T15:13:08Z</time>
      </trkpt>
      <trkpt lat="59.8509736" lon="17.7373003">
        <ele>13.1151</ele>
        <time>2013-05-15T15:13:09Z</time>
      </trkpt>
      <trkpt lat="59.8510574" lon="17.7372289">
        <ele>12.6344</ele>
        <time>2013-05-15T15:13:10Z</time>
      </trkpt>
      <trkpt lat="59.8511409" lon="17.7371578">
        <ele>12.6344</ele>
        <time>2013-05-15T15:13:11Z</time>
      </trkpt>
      <trkpt lat="59.8512234" lon="17.7370852">
        <ele>12.1538</ele>
        <time>2013-05-15T15:13:12Z</time>
      </trkpt>
      <trkpt lat="59.8513062" lon="17.7370029">
        <ele>11.6732</ele>
        <time>2013-05-15T15:13:13Z</time>
      </trkpt>
      <trkpt lat="59.8513883" lon="17.7369139">
        <ele>11.1925</ele>
        <time>2013-05-15T15:13:14Z</time>
      </trkpt>
      <trkpt lat="59.8514688" lon="17.7368202">
        <ele>10.7118</ele>
        <time>2013-05-15T15:13:15Z</time>
      </trkpt>
      <trkpt lat="59.8515474" lon="17.7367191">
        <ele>10.2312</ele>
        <time>2013-05-15T15:13:16Z</time>
      </trkpt>
      <trkpt lat="59.8516237" lon="17.7366078">
        <ele>9.75061</ele>
        <time>2013-05-15T15:13:17Z</time>
      </trkpt>
      <trkpt lat="59.8516992" lon="17.7364914">
        <ele>9.75061</ele>
        <time>2013-05-15T15:13:18Z</time>
      </trkpt>
      <trkpt lat="59.8517733" lon="17.7363757">
        <ele>8.78918</ele>
        <time>2013-05-15T15:13:19Z</time>
      </trkpt>
      <trkpt lat="59.8518465" lon="17.736258">
        <ele>7.82788</ele>
        <time>2013-05-15T15:13:20Z</time>
      </trkpt>
      <trkpt lat="59.8519189" lon="17.736137">
        <ele>7.34717</ele>
        <time>2013-05-15T15:13:21Z</time>
      </trkpt>
      <trkpt lat="59.8519919" lon="17.7360174">
        <ele>6.38586</ele>
        <time>2013-05-15T15:13:22Z</time>
      </trkpt>
      <trkpt lat="59.8520675" lon="17.7359028">
        <ele>5.90527</ele>
        <time>2013-05-15T15:13:23Z</time>
      </trkpt>
      <trkpt lat="59.8521443" lon="17.7357974">
        <ele>5.90527</ele>
        <time>2013-05-15T15:13:24Z</time>
      </trkpt>
      <trkpt lat="59.8522223" lon="17.7357009">
        <ele>5.42456</ele>
        <time>2013-05-15T15:13:25Z</time>
      </trkpt>
      <trkpt lat="59.8523006" lon="17.7356092">
        <ele>4.94385</ele>
        <time>2013-05-15T15:13:26Z</time>
      </trkpt>
      <trkpt lat="59.8523785" lon="17.7355178">
        <ele>4.94385</ele>
        <time>2013-05-15T15:13:27Z</time>
      </trkpt>
      <trkpt lat="59.8524555" lon="17.7354258">
        <ele>4.46326</ele>
        <time>2013-05-15T15:13:28Z</time>
      </trkpt>
      <trkpt lat="59.8525313" lon="17.7353343">
        <ele>3.98267</ele>
        <time>2013-05-15T15:13:29Z</time>
      </trkpt>
      <trkpt lat="59.8526074" lon="17.7352435">
        <ele>3.98267</ele>
        <time>2013-05-15T15:13:30Z</time>
      </trkpt>
      <trkpt lat="59.852684" lon="17.7351554">
        <ele>3.98267</ele>
        <time>2013-05-15T15:13:31Z</time>
      </trkpt>
      <trkpt lat="59.8527612" lon="17.7350683">
        <ele>3.98267</ele>
        <time>2013-05-15T15:13:32Z</time>
      </trkpt>
      <trkpt lat="59.8528364" lon="17.7349802">
        <ele>3.98267</ele>
        <time>2013-05-15T15:13:33Z</time>
      </trkpt>
      <trkpt lat="59.852911" lon="17.7348916">
        <ele>3.98267</ele>
        <time>2013-05-15T15:13:34Z</time>
      </trkpt>
      <trkpt lat="59.8529867" lon="17.7348031">
        <ele>3.50195</ele>
        <time>2013-05-15T15:13:35Z</time>
      </trkpt>
      <trkpt lat="59.8530622" lon="17.7347145">
        <ele>3.50195</ele>
        <time>2013-05-15T15:13:36Z</time>
      </trkpt>
      <trkpt lat="59.8531379" lon="17.7346263">
        <ele>3.50195</ele>
        <time>2013-05-15T15:13:37Z</time>
      </trkpt>
      <trkpt lat="59.8532135" lon="17.7345368">
        <ele>3.02124</ele>
        <time>2013-05-15T15:13:38Z</time>
      </trkpt>
      <trkpt lat="59.8532895" lon="17.7344406">
        <ele>2.54065</ele>
        <time>2013-05-15T15:13:39Z</time>
      </trkpt>
      <trkpt lat="59.8533653" lon="17.7343336">
        <ele>2.54065</ele>
        <time>2013-05-15T15:13:40Z</time>
      </trkpt>
      <trkpt lat="59.8534379" lon="17.7342137">
        <ele>2.06006</ele>
        <time>2013-05-15T15:13:41Z</time>
      </trkpt>
      <trkpt lat="59.8535067" lon="17.7340819">
        <ele>1.57935</ele>
        <time>2013-05-15T15:13:42Z</time>
      </trkpt>
      <trkpt lat="59.8535713" lon="17.7339375">
        <ele>1.09863</ele>
        <time>2013-05-15T15:13:43Z</time>
      </trkpt>
      <trkpt lat="59.8536316" lon="17.733782">
        <ele>0.618042</ele>
        <time>2013-05-15T15:13:44Z</time>
      </trkpt>
      <trkpt lat="59.8536864" lon="17.7336154">
        <ele>0.137451</ele>
        <time>2013-05-15T15:13:45Z</time>
      </trkpt>
      <trkpt lat="59.8537356" lon="17.733437">
        <ele>0</ele>
        <time>2013-05-15T15:13:46Z</time>
      </trkpt>
      <trkpt lat="59.853777" lon="17.7332491">
        <ele>0</ele>
        <time>2013-05-15T15:13:47Z</time>
      </trkpt>
      <trkpt lat="59.8538132" lon="17.7330538">
        <ele>0</ele>
        <time>2013-05-15T15:13:48Z</time>
      </trkpt>
      <trkpt lat="59.8538433" lon="17.7328549">
        <ele>0</ele>
        <time>2013-05-15T15:13:49Z</time>
      </trkpt>
      <trkpt lat="59.8538662" lon="17.7326538">
        <ele>0</ele>
        <time>2013-05-15T15:13:50Z</time>
      </trkpt>
      <trkpt lat="59.853889" lon="17.7324549">
        <ele>0</ele>
        <time>2013-05-15T15:13:51Z</time>
      </trkpt>
      <trkpt lat="59.8539152" lon="17.7322509">
        <ele>0</ele>
        <time>2013-05-15T15:13:52Z</time>
      </trkpt>
      <trkpt lat="59.853924" lon="17.7320431">
        <ele>0</ele>
        <time>2013-05-15T15:13:53Z</time>
      </trkpt>
      <trkpt lat="59.8539324" lon="17.7318336">
        <ele>0.618042</ele>
        <time>2013-05-15T15:13:54Z</time>
      </trkpt>
      <trkpt lat="59.8539532" lon="17.7316278">
        <ele>1.09863</ele>
        <time>2013-05-15T15:13:55Z</time>
      </trkpt>
      <trkpt lat="59.8539713" lon="17.7314329">
        <ele>2.06006</ele>
        <time>2013-05-15T15:13:56Z</time>
      </trkpt>
      <trkpt lat="59.8539936" lon="17.7312457">
        <ele>2.54065</ele>
        <time>2013-05-15T15:13:57Z</time>
      </trkpt>
      <trkpt lat="59.8540185" lon="17.7310675">
        <ele>3.02124</ele>
        <time>2013-05-15T15:13:58Z</time>
      </trkpt>
      <trkpt lat="59.8540459" lon="17.7308988">
        <ele>3.50195</ele>
        <time>2013-05-15T15:13:59Z</time>
      </trkpt>
      <trkpt lat="59.8540758" lon="17.7307386">
        <ele>3.98267</ele>
        <time>2013-05-15T15:14:00Z</time>
      </trkpt>
      <trkpt lat="59.8541085" lon="17.7305886">
        <ele>4.94385</ele>
        <time>2013-05-15T15:14:01Z</time>
      </trkpt>
      <trkpt lat="59.8541436" lon="17.7304466">
        <ele>5.42456</ele>
        <time>2013-05-15T15:14:02Z</time>
      </trkpt>
      <trkpt lat="59.8541801" lon="17.7303118">
        <ele>6.38586</ele>
        <time>2013-05-15T15:14:03Z</time>
      </trkpt>
      <trkpt lat="59.8542592" lon="17.7300655">
        <ele>6.86646</ele>
        <time>2013-05-15T15:14:05Z</time>
      </trkpt>
      <trkpt lat="59.8543018" lon="17.7299513">
        <ele>7.34717</ele>
        <time>2013-05-15T15:14:06Z</time>
      </trkpt>
      <trkpt lat="59.8543452" lon="17.7298394">
        <ele>7.82788</ele>
        <time>2013-05-15T15:14:07Z</time>
      </trkpt>
      <trkpt lat="59.8543884" lon="17.7297286">
        <ele>8.30859</ele>
        <time>2013-05-15T15:14:08Z</time>
      </trkpt>
      <trkpt lat="59.8544319" lon="17.7296178">
        <ele>8.78918</ele>
        <time>2013-05-15T15:14:09Z</time>
      </trkpt>
      <trkpt lat="59.8544752" lon="17.7295062">
        <ele>8.78918</ele>
        <time>2013-05-15T15:14:10Z</time>
      </trkpt>
      <trkpt lat="59.8545189" lon="17.7293933">
        <ele>9.2699</ele>
        <time>2013-05-15T15:14:11Z</time>
      </trkpt>
      <trkpt lat="59.8545634" lon="17.7292778">
        <ele>9.2699</ele>
        <time>2013-05-15T15:14:12Z</time>
      </trkpt>
      <trkpt lat="59.8546095" lon="17.7291592">
        <ele>9.75061</ele>
        <time>2013-05-15T15:14:13Z</time>
      </trkpt>
      <trkpt lat="59.8546566" lon="17.7290398">
        <ele>9.75061</ele>
        <time>2013-05-15T15:14:14Z</time>
      </trkpt>
      <trkpt lat="59.8547041" lon="17.7289188">
        <ele>10.2312</ele>
        <time>2013-05-15T15:14:15Z</time>
      </trkpt>
      <trkpt lat="59.8547516" lon="17.7287951">
        <ele>10.2312</ele>
        <time>2013-05-15T15:14:16Z</time>
      </trkpt>
      <trkpt lat="59.8547995" lon="17.7286682">
        <ele>10.2312</ele>
        <time>2013-05-15T15:14:17Z</time>
      </trkpt>
      <trkpt lat="59.8548471" lon="17.7285415">
        <ele>10.2312</ele>
        <time>2013-05-15T15:14:18Z</time>
      </trkpt>
      <trkpt lat="59.8548942" lon="17.728418">
        <ele>10.2312</ele>
        <time>2013-05-15T15:14:19Z</time>
      </trkpt>
      <trkpt lat="59.854942" lon="17.7282948">
        <ele>10.2312</ele>
        <time>2013-05-15T15:14:20Z</time>
      </trkpt>
      <trkpt lat="59.8549902" lon="17.7281721">
        <ele>10.2312</ele>
        <time>2013-05-15T15:14:21Z</time>
      </trkpt>
      <trkpt lat="59.855039" lon="17.7280487">
        <ele>10.2312</ele>
        <time>2013-05-15T15:14:22Z</time>
      </trkpt>
      <trkpt lat="59.8550874" lon="17.7279233">
        <ele>10.2312</ele>
        <time>2013-05-15T15:14:23Z</time>
      </trkpt>
      <trkpt lat="59.8551353" lon="17.7277975">
        <ele>10.2312</ele>
        <time>2013-05-15T15:14:24Z</time>
      </trkpt>
      <trkpt lat="59.8551834" lon="17.7276722">
        <ele>10.2312</ele>
        <time>2013-05-15T15:14:25Z</time>
      </trkpt>
      <trkpt lat="59.8552311" lon="17.7275461">
        <ele>9.75061</ele>
        <time>2013-05-15T15:14:26Z</time>
      </trkpt>
      <trkpt lat="59.8552783" lon="17.7274203">
        <ele>9.75061</ele>
        <time>2013-05-15T15:14:27Z</time>
      </trkpt>
      <trkpt lat="59.8553249" lon="17.727295">
        <ele>9.75061</ele>
        <time>2013-05-15T15:14:28Z</time>
      </trkpt>
      <trkpt lat="59.8553701" lon="17.7271695">
        <ele>9.75061</ele>
        <time>2013-05-15T15:14:29Z</time>
      </trkpt>
      <trkpt lat="59.8554145" lon="17.7270437">
        <ele>9.2699</ele>
        <time>2013-05-15T15:14:30Z</time>
      </trkpt>
      <trkpt lat="59.8554585" lon="17.7269174">
        <ele>9.2699</ele>
        <time>2013-05-15T15:14:31Z</time>
      </trkpt>
      <trkpt lat="59.8555021" lon="17.7267905">
        <ele>9.2699</ele>
        <time>2013-05-15T15:14:32Z</time>
      </trkpt>
      <trkpt lat="59.8555456" lon="17.7266631">
        <ele>9.2699</ele>
        <time>2013-05-15T15:14:33Z</time>
      </trkpt>
      <trkpt lat="59.8555891" lon="17.7265361">
        <ele>9.2699</ele>
        <time>2013-05-15T15:14:34Z</time>
      </trkpt>
      <trkpt lat="59.8556325" lon="17.7264094">
        <ele>9.2699</ele>
        <time>2013-05-15T15:14:35Z</time>
      </trkpt>
      <trkpt lat="59.855676" lon="17.7262833">
        <ele>8.78918</ele>
        <time>2013-05-15T15:14:36Z</time>
      </trkpt>
      <trkpt lat="59.8557196" lon="17.726157">
        <ele>8.78918</ele>
        <time>2013-05-15T15:14:37Z</time>
      </trkpt>
      <trkpt lat="59.855763" lon="17.7260302">
        <ele>8.78918</ele>
        <time>2013-05-15T15:14:38Z</time>
      </trkpt>
      <trkpt lat="59.8558061" lon="17.725905">
        <ele>8.78918</ele>
        <time>2013-05-15T15:14:39Z</time>
      </trkpt>
      <trkpt lat="59.8558495" lon="17.725783">
        <ele>8.78918</ele>
        <time>2013-05-15T15:14:40Z</time>
      </trkpt>
      <trkpt lat="59.8558935" lon="17.7256638">
        <ele>9.2699</ele>
        <time>2013-05-15T15:14:41Z</time>
      </trkpt>
      <trkpt lat="59.8559385" lon="17.725546">
        <ele>8.78918</ele>
        <time>2013-05-15T15:14:42Z</time>
      </trkpt>
      <trkpt lat="59.8559848" lon="17.7254308">
        <ele>8.78918</ele>
        <time>2013-05-15T15:14:43Z</time>
      </trkpt>
      <trkpt lat="59.8560324" lon="17.7253188">
        <ele>8.78918</ele>
        <time>2013-05-15T15:14:44Z</time>
      </trkpt>
      <trkpt lat="59.8560806" lon="17.7252091">
        <ele>8.78918</ele>
        <time>2013-05-15T15:14:45Z</time>
      </trkpt>
      <trkpt lat="59.8561282" lon="17.7251006">
        <ele>8.78918</ele>
        <time>2013-05-15T15:14:46Z</time>
      </trkpt>
      <trkpt lat="59.856175" lon="17.7249912">
        <ele>8.78918</ele>
        <time>2013-05-15T15:14:47Z</time>
      </trkpt>
      <trkpt lat="59.8562203" lon="17.7248806">
        <ele>9.2699</ele>
        <time>2013-05-15T15:14:48Z</time>
      </trkpt>
      <trkpt lat="59.8562647" lon="17.7247692">
        <ele>9.2699</ele>
        <time>2013-05-15T15:14:49Z</time>
      </trkpt>
      <trkpt lat="59.8563096" lon="17.7246571">
        <ele>9.2699</ele>
        <time>2013-05-15T15:14:50Z</time>
      </trkpt>
      <trkpt lat="59.8563543" lon="17.7245455">
        <ele>9.2699</ele>
        <time>2013-05-15T15:14:51Z</time>
      </trkpt>
      <trkpt lat="59.856399" lon="17.7244357">
        <ele>9.2699</ele>
        <time>2013-05-15T15:14:52Z</time>
      </trkpt>
      <trkpt lat="59.8564436" lon="17.7243262">
        <ele>9.2699</ele>
        <time>2013-05-15T15:14:53Z</time>
      </trkpt>
      <trkpt lat="59.8564889" lon="17.7242192">
        <ele>9.2699</ele>
        <time>2013-05-15T15:14:54Z</time>
      </trkpt>
      <trkpt lat="59.8565355" lon="17.7241165">
        <ele>9.2699</ele>
        <time>2013-05-15T15:14:55Z</time>
      </trkpt>
      <trkpt lat="59.8565811" lon="17.7240166">
        <ele>9.75061</ele>
        <time>2013-05-15T15:14:56Z</time>
      </trkpt>
      <trkpt lat="59.856627" lon="17.7239182">
        <ele>9.75061</ele>
        <time>2013-05-15T15:14:57Z</time>
      </trkpt>
      <trkpt lat="59.8566752" lon="17.7238205">
        <ele>9.75061</ele>
        <time>2013-05-15T15:14:58Z</time>
      </trkpt>
      <trkpt lat="59.8567235" lon="17.7237218">
        <ele>10.2312</ele>
        <time>2013-05-15T15:14:59Z</time>
      </trkpt>
      <trkpt lat="59.8567721" lon="17.7236232">
        <ele>10.2312</ele>
        <time>2013-05-15T15:15:00Z</time>
      </trkpt>
      <trkpt lat="59.85682" lon="17.7235245">
        <ele>10.7118</ele>
        <time>2013-05-15T15:15:01Z</time>
      </trkpt>
      <trkpt lat="59.8568684" lon="17.7234281">
        <ele>11.1925</ele>
        <time>2013-05-15T15:15:02Z</time>
      </trkpt>
      <trkpt lat="59.8569158" lon="17.7233324">
        <ele>11.1925</ele>
        <time>2013-05-15T15:15:03Z</time>
      </trkpt>
      <trkpt lat="59.8569637" lon="17.7232391">
        <ele>11.6732</ele>
        <time>2013-05-15T15:15:04Z</time>
      </trkpt>
      <trkpt lat="59.8570085" lon="17.7231421">
        <ele>11.6732</ele>
        <time>2013-05-15T15:15:05Z</time>
      </trkpt>
      <trkpt lat="59.8570626" lon="17.7230608">
        <ele>12.1538</ele>
        <time>2013-05-15T15:15:06Z</time>
      </trkpt>
      <trkpt lat="59.8571113" lon="17.7229904">
        <ele>12.1538</ele>
        <time>2013-05-15T15:15:07Z</time>
      </trkpt>
      <trkpt lat="59.8571671" lon="17.7229199">
        <ele>12.1538</ele>
        <time>2013-05-15T15:15:08Z</time>
      </trkpt>
      <trkpt lat="59.8572218" lon="17.7228436">
        <ele>12.6344</ele>
        <time>2013-05-15T15:15:09Z</time>
      </trkpt>
      <trkpt lat="59.8572756" lon="17.7227562">
        <ele>12.6344</ele>
        <time>2013-05-15T15:15:10Z</time>
      </trkpt>
      <trkpt lat="59.8573325" lon="17.722662">
        <ele>12.6344</ele>
        <time>2013-05-15T15:15:11Z</time>
      </trkpt>
      <trkpt lat="59.8573849" lon="17.7225609">
        <ele>13.1151</ele>
        <time>2013-05-15T15:15:12Z</time>
      </trkpt>
      <trkpt lat="59.8574447" lon="17.7224786">
        <ele>13.1151</ele>
        <time>2013-05-15T15:15:13Z</time>
      </trkpt>
      <trkpt lat="59.8575001" lon="17.7223963">
        <ele>12.6344</ele>
        <time>2013-05-15T15:15:14Z</time>
      </trkpt>
      <trkpt lat="59.8575512" lon="17.7223168">
        <ele>13.1151</ele>
        <time>2013-05-15T15:15:15Z</time>
      </trkpt>
      <trkpt lat="59.8575882" lon="17.7222282">
        <ele>13.1151</ele>
        <time>2013-05-15T15:15:16Z</time>
      </trkpt>
      <trkpt lat="59.8576229" lon="17.7221309">
        <ele>12.6344</ele>
        <time>2013-05-15T15:15:17Z</time>
      </trkpt>
      <trkpt lat="59.8576538" lon="17.7220243">
        <ele>12.1538</ele>
        <time>2013-05-15T15:15:18Z</time>
      </trkpt>
      <trkpt lat="59.8576791" lon="17.7219115">
        <ele>12.1538</ele>
        <time>2013-05-15T15:15:19Z</time>
      </trkpt>
      <trkpt lat="59.8576991" lon="17.7217946">
        <ele>11.6732</ele>
        <time>2013-05-15T15:15:20Z</time>
      </trkpt>
      <trkpt lat="59.8577187" lon="17.7216751">
        <ele>11.6732</ele>
        <time>2013-05-15T15:15:21Z</time>
      </trkpt>
      <trkpt lat="59.8577306" lon="17.7215472">
        <ele>11.1925</ele>
        <time>2013-05-15T15:15:22Z</time>
      </trkpt>
      <trkpt lat="59.857736" lon="17.721414">
        <ele>11.1925</ele>
        <time>2013-05-15T15:15:23Z</time>
      </trkpt>
      <trkpt lat="59.8577378" lon="17.7212794">
        <ele>10.7118</ele>
        <time>2013-05-15T15:15:24Z</time>
      </trkpt>
      <trkpt lat="59.8577281" lon="17.7211295">
        <ele>10.7118</ele>
        <time>2013-05-15T15:15:25Z</time>
      </trkpt>
      <trkpt lat="59.8577198" lon="17.7209914">
        <ele>10.7118</ele>
        <time>2013-05-15T15:15:26Z</time>
      </trkpt>
      <trkpt lat="59.8577177" lon="17.720851">
        <ele>10.7118</ele>
        <time>2013-05-15T15:15:27Z</time>
      </trkpt>
      <trkpt lat="59.8577179" lon="17.7207071">
        <ele>10.7118</ele>
        <time>2013-05-15T15:15:28Z</time>
      </trkpt>
      <trkpt lat="59.8577239" lon="17.7205469">
        <ele>11.1925</ele>
        <time>2013-05-15T15:15:29Z</time>
      </trkpt>
      <trkpt lat="59.8577246" lon="17.7203955">
        <ele>11.6732</ele>
        <time>2013-05-15T15:15:30Z</time>
      </trkpt>
      <trkpt lat="59.8577212" lon="17.7202412">
        <ele>11.6732</ele>
        <time>2013-05-15T15:15:31Z</time>
      </trkpt>
      <trkpt lat="59.8577161" lon="17.7200867">
        <ele>11.6732</ele>
        <time>2013-05-15T15:15:32Z</time>
      </trkpt>
      <trkpt lat="59.8577104" lon="17.71993">
        <ele>11.6732</ele>
        <time>2013-05-15T15:15:33Z</time>
      </trkpt>
      <trkpt lat="59.8577035" lon="17.7197728">
        <ele>12.1538</ele>
        <time>2013-05-15T15:15:34Z</time>
      </trkpt>
      <trkpt lat="59.8576953" lon="17.7196149">
        <ele>12.1538</ele>
        <time>2013-05-15T15:15:35Z</time>
      </trkpt>
      <trkpt lat="59.857688" lon="17.7194565">
        <ele>12.1538</ele>
        <time>2013-05-15T15:15:36Z</time>
      </trkpt>
      <trkpt lat="59.8576829" lon="17.7192978">
        <ele>12.1538</ele>
        <time>2013-05-15T15:15:37Z</time>
      </trkpt>
      <trkpt lat="59.8576782" lon="17.7191391">
        <ele>12.6344</ele>
        <time>2013-05-15T15:15:38Z</time>
      </trkpt>
      <trkpt lat="59.8576741" lon="17.7189816">
        <ele>12.6344</ele>
        <time>2013-05-15T15:15:39Z</time>
      </trkpt>
      <trkpt lat="59.8576715" lon="17.7188257">
        <ele>12.6344</ele>
        <time>2013-05-15T15:15:40Z</time>
      </trkpt>
      <trkpt lat="59.8576706" lon="17.7186712">
        <ele>13.1151</ele>
        <time>2013-05-15T15:15:41Z</time>
      </trkpt>
      <trkpt lat="59.857671" lon="17.7185182">
        <ele>13.1151</ele>
        <time>2013-05-15T15:15:42Z</time>
      </trkpt>
      <trkpt lat="59.8576721" lon="17.7183652">
        <ele>13.1151</ele>
        <time>2013-05-15T15:15:43Z</time>
      </trkpt>
      <trkpt lat="59.8576752" lon="17.7182179">
        <ele>13.5958</ele>
        <time>2013-05-15T15:15:44Z</time>
      </trkpt>
      <trkpt lat="59.8576793" lon="17.7180728">
        <ele>13.5958</ele>
        <time>2013-05-15T15:15:45Z</time>
      </trkpt>
      <trkpt lat="59.8576835" lon="17.7179288">
        <ele>13.5958</ele>
        <time>2013-05-15T15:15:46Z</time>
      </trkpt>
      <trkpt lat="59.857687" lon="17.717786">
        <ele>14.0764</ele>
        <time>2013-05-15T15:15:47Z</time>
      </trkpt>
      <trkpt lat="59.8576899" lon="17.717645">
        <ele>14.0764</ele>
        <time>2013-05-15T15:15:48Z</time>
      </trkpt>
      <trkpt lat="59.8576917" lon="17.7175052">
        <ele>14.0764</ele>
        <time>2013-05-15T15:15:49Z</time>
      </trkpt>
      <trkpt lat="59.8576925" lon="17.7173651">
        <ele>14.0764</ele>
        <time>2013-05-15T15:15:50Z</time>
      </trkpt>
      <trkpt lat="59.8576922" lon="17.7172255">
        <ele>14.0764</ele>
        <time>2013-05-15T15:15:51Z</time>
      </trkpt>
      <trkpt lat="59.8576879" lon="17.7170864">
        <ele>14.0764</ele>
        <time>2013-05-15T15:15:52Z</time>
      </trkpt>
      <trkpt lat="59.8576804" lon="17.7169447">
        <ele>14.0764</ele>
        <time>2013-05-15T15:15:53Z</time>
      </trkpt>
      <trkpt lat="59.8576741" lon="17.7168007">
        <ele>14.0764</ele>
        <time>2013-05-15T15:15:54Z</time>
      </trkpt>
      <trkpt lat="59.8576677" lon="17.7166582">
        <ele>14.0764</ele>
        <time>2013-05-15T15:15:55Z</time>
      </trkpt>
      <trkpt lat="59.8576601" lon="17.7165142">
        <ele>14.0764</ele>
        <time>2013-05-15T15:15:56Z</time>
      </trkpt>
      <trkpt lat="59.8576526" lon="17.7163675">
        <ele>14.0764</ele>
        <time>2013-05-15T15:15:57Z</time>
      </trkpt>
      <trkpt lat="59.8576471" lon="17.716219">
        <ele>14.0764</ele>
        <time>2013-05-15T15:15:58Z</time>
      </trkpt>
      <trkpt lat="59.8576475" lon="17.7160699">
        <ele>14.0764</ele>
        <time>2013-05-15T15:15:59Z</time>
      </trkpt>
      <trkpt lat="59.8576542" lon="17.7159206">
        <ele>14.0764</ele>
        <time>2013-05-15T15:16:00Z</time>
      </trkpt>
      <trkpt lat="59.8576658" lon="17.7157715">
        <ele>14.0764</ele>
        <time>2013-05-15T15:16:01Z</time>
      </trkpt>
      <trkpt lat="59.8576822" lon="17.7156235">
        <ele>14.0764</ele>
        <time>2013-05-15T15:16:02Z</time>
      </trkpt>
      <trkpt lat="59.8577025" lon="17.7154764">
        <ele>14.0764</ele>
        <time>2013-05-15T15:16:03Z</time>
      </trkpt>
      <trkpt lat="59.8577263" lon="17.7153302">
        <ele>14.0764</ele>
        <time>2013-05-15T15:16:04Z</time>
      </trkpt>
      <trkpt lat="59.8577528" lon="17.7151856">
        <ele>14.557</ele>
        <time>2013-05-15T15:16:05Z</time>
      </trkpt>
      <trkpt lat="59.8577808" lon="17.7150435">
        <ele>14.557</ele>
        <time>2013-05-15T15:16:06Z</time>
      </trkpt>
      <trkpt lat="59.8578106" lon="17.7149023">
        <ele>14.557</ele>
        <time>2013-05-15T15:16:07Z</time>
      </trkpt>
      <trkpt lat="59.8578439" lon="17.7147643">
        <ele>14.557</ele>
        <time>2013-05-15T15:16:08Z</time>
      </trkpt>
      <trkpt lat="59.8578814" lon="17.7146282">
        <ele>14.557</ele>
        <time>2013-05-15T15:16:09Z</time>
      </trkpt>
      <trkpt lat="59.8579241" lon="17.7144961">
        <ele>14.557</ele>
        <time>2013-05-15T15:16:10Z</time>
      </trkpt>
      <trkpt lat="59.8579705" lon="17.7143687">
        <ele>14.557</ele>
        <time>2013-05-15T15:16:11Z</time>
      </trkpt>
      <trkpt lat="59.858018" lon="17.7142448">
        <ele>14.557</ele>
        <time>2013-05-15T15:16:12Z</time>
      </trkpt>
      <trkpt lat="59.8580652" lon="17.7141214">
        <ele>14.557</ele>
        <time>2013-05-15T15:16:13Z</time>
      </trkpt>
      <trkpt lat="59.8581097" lon="17.7139947">
        <ele>14.557</ele>
        <time>2013-05-15T15:16:14Z</time>
      </trkpt>
      <trkpt lat="59.858149" lon="17.7138616">
        <ele>14.557</ele>
        <time>2013-05-15T15:16:15Z</time>
      </trkpt>
      <trkpt lat="59.8581813" lon="17.7137212">
        <ele>15.0377</ele>
        <time>2013-05-15T15:16:16Z</time>
      </trkpt>
      <trkpt lat="59.8582069" lon="17.713574">
        <ele>15.0377</ele>
        <time>2013-05-15T15:16:17Z</time>
      </trkpt>
      <trkpt lat="59.8582279" lon="17.7134223">
        <ele>15.0377</ele>
        <time>2013-05-15T15:16:18Z</time>
      </trkpt>
      <trkpt lat="59.8582471" lon="17.7132685">
        <ele>15.0377</ele>
        <time>2013-05-15T15:16:19Z</time>
      </trkpt>
      <trkpt lat="59.858264" lon="17.7131131">
        <ele>15.0377</ele>
        <time>2013-05-15T15:16:20Z</time>
      </trkpt>
      <trkpt lat="59.8582808" lon="17.7129568">
        <ele>15.0377</ele>
        <time>2013-05-15T15:16:21Z</time>
      </trkpt>
      <trkpt lat="59.8582983" lon="17.7127999">
        <ele>15.0377</ele>
        <time>2013-05-15T15:16:22Z</time>
      </trkpt>
      <trkpt lat="59.8583164" lon="17.7126452">
        <ele>15.5184</ele>
        <time>2013-05-15T15:16:23Z</time>
      </trkpt>
      <trkpt lat="59.8583372" lon="17.7124951">
        <ele>15.5184</ele>
        <time>2013-05-15T15:16:24Z</time>
      </trkpt>
      <trkpt lat="59.8583614" lon="17.71235">
        <ele>15.5184</ele>
        <time>2013-05-15T15:16:25Z</time>
      </trkpt>
      <trkpt lat="59.8583895" lon="17.7122125">
        <ele>15.5184</ele>
        <time>2013-05-15T15:16:26Z</time>
      </trkpt>
      <trkpt lat="59.8584205" lon="17.7120799">
        <ele>15.999</ele>
        <time>2013-05-15T15:16:27Z</time>
      </trkpt>
      <trkpt lat="59.8584517" lon="17.7119491">
        <ele>15.999</ele>
        <time>2013-05-15T15:16:28Z</time>
      </trkpt>
      <trkpt lat="59.8584816" lon="17.7118179">
        <ele>15.999</ele>
        <time>2013-05-15T15:16:29Z</time>
      </trkpt>
      <trkpt lat="59.8585085" lon="17.7116864">
        <ele>15.999</ele>
        <time>2013-05-15T15:16:30Z</time>
      </trkpt>
      <trkpt lat="59.8585299" lon="17.7115508">
        <ele>15.5184</ele>
        <time>2013-05-15T15:16:31Z</time>
      </trkpt>
      <trkpt lat="59.8585472" lon="17.7114129">
        <ele>15.5184</ele>
        <time>2013-05-15T15:16:32Z</time>
      </trkpt>
      <trkpt lat="59.8585598" lon="17.7112741">
        <ele>15.5184</ele>
        <time>2013-05-15T15:16:33Z</time>
      </trkpt>
      <trkpt lat="59.8585676" lon="17.7111387">
        <ele>15.5184</ele>
        <time>2013-05-15T15:16:34Z</time>
      </trkpt>
      <trkpt lat="59.8585631" lon="17.7109948">
        <ele>15.0377</ele>
        <time>2013-05-15T15:16:35Z</time>
      </trkpt>
      <trkpt lat="59.858549" lon="17.7108488">
        <ele>15.0377</ele>
        <time>2013-05-15T15:16:36Z</time>
      </trkpt>
      <trkpt lat="59.8585344" lon="17.7107085">
        <ele>15.0377</ele>
        <time>2013-05-15T15:16:37Z</time>
      </trkpt>
      <trkpt lat="59.8585111" lon="17.7105913">
        <ele>14.557</ele>
        <time>2013-05-15T15:16:38Z</time>
      </trkpt>
      <trkpt lat="59.8584923" lon="17.710483">
        <ele>14.0764</ele>
        <time>2013-05-15T15:16:39Z</time>
      </trkpt>
      <trkpt lat="59.8584784" lon="17.7103603">
        <ele>14.0764</ele>
        <time>2013-05-15T15:16:40Z</time>
      </trkpt>
      <trkpt lat="59.8584588" lon="17.7102443">
        <ele>13.5958</ele>
        <time>2013-05-15T15:16:41Z</time>
      </trkpt>
      <trkpt lat="59.8584386" lon="17.7101093">
        <ele>13.5958</ele>
        <time>2013-05-15T15:16:42Z</time>
      </trkpt>
      <trkpt lat="59.8584051" lon="17.7099562">
        <ele>13.1151</ele>
        <time>2013-05-15T15:16:43Z</time>
      </trkpt>
      <trkpt lat="59.8583817" lon="17.7098236">
        <ele>13.1151</ele>
        <time>2013-05-15T15:16:44Z</time>
      </trkpt>
      <trkpt lat="59.8583625" lon="17.7096817">
        <ele>12.6344</ele>
        <time>2013-05-15T15:16:45Z</time>
      </trkpt>
      <trkpt lat="59.8583501" lon="17.7095473">
        <ele>12.6344</ele>
        <time>2013-05-15T15:16:46Z</time>
      </trkpt>
      <trkpt lat="59.8583403" lon="17.7094056">
        <ele>12.6344</ele>
        <time>2013-05-15T15:16:47Z</time>
      </trkpt>
      <trkpt lat="59.858334" lon="17.7092626">
        <ele>12.6344</ele>
        <time>2013-05-15T15:16:48Z</time>
      </trkpt>
      <trkpt lat="59.858333" lon="17.7091142">
        <ele>13.1151</ele>
        <time>2013-05-15T15:16:49Z</time>
      </trkpt>
      <trkpt lat="59.858338" lon="17.7089612">
        <ele>13.1151</ele>
        <time>2013-05-15T15:16:50Z</time>
      </trkpt>
      <trkpt lat="59.85835" lon="17.7088104">
        <ele>13.1151</ele>
        <time>2013-05-15T15:16:51Z</time>
      </trkpt>
      <trkpt lat="59.8583677" lon="17.7086594">
        <ele>13.1151</ele>
        <time>2013-05-15T15:16:52Z</time>
      </trkpt>
      <trkpt lat="59.8583875" lon="17.7085063">
        <ele>13.1151</ele>
        <time>2013-05-15T15:16:53Z</time>
      </trkpt>
      <trkpt lat="59.8584076" lon="17.7083483">
        <ele>13.1151</ele>
        <time>2013-05-15T15:16:54Z</time>
      </trkpt>
      <trkpt lat="59.8584278" lon="17.7081857">
        <ele>12.6344</ele>
        <time>2013-05-15T15:16:55Z</time>
      </trkpt>
      <trkpt lat="59.8584469" lon="17.7080187">
        <ele>12.6344</ele>
        <time>2013-05-15T15:16:56Z</time>
      </trkpt>
      <trkpt lat="59.858467" lon="17.707849">
        <ele>12.1538</ele>
        <time>2013-05-15T15:16:57Z</time>
      </trkpt>
      <trkpt lat="59.8584877" lon="17.7076744">
        <ele>12.1538</ele>
        <time>2013-05-15T15:16:58Z</time>
      </trkpt>
      <trkpt lat="59.8585068" lon="17.7074947">
        <ele>12.1538</ele>
        <time>2013-05-15T15:16:59Z</time>
      </trkpt>
      <trkpt lat="59.8585265" lon="17.7073143">
        <ele>12.1538</ele>
        <time>2013-05-15T15:17:00Z</time>
      </trkpt>
      <trkpt lat="59.8585474" lon="17.7071335">
        <ele>11.6732</ele>
        <time>2013-05-15T15:17:01Z</time>
      </trkpt>
      <trkpt lat="59.8585671" lon="17.7069522">
        <ele>11.6732</ele>
        <time>2013-05-15T15:17:02Z</time>
      </trkpt>
      <trkpt lat="59.8585859" lon="17.706758">
        <ele>11.6732</ele>
        <time>2013-05-15T15:17:03Z</time>
      </trkpt>
      <trkpt lat="59.8586073" lon="17.7065752">
        <ele>11.6732</ele>
        <time>2013-05-15T15:17:04Z</time>
      </trkpt>
      <trkpt lat="59.8586288" lon="17.7063953">
        <ele>12.1538</ele>
        <time>2013-05-15T15:17:05Z</time>
      </trkpt>
      <trkpt lat="59.85865" lon="17.7062178">
        <ele>12.1538</ele>
        <time>2013-05-15T15:17:06Z</time>
      </trkpt>
      <trkpt lat="59.8586739" lon="17.7060514">
        <ele>12.1538</ele>
        <time>2013-05-15T15:17:07Z</time>
      </trkpt>
      <trkpt lat="59.85869" lon="17.7058903">
        <ele>13.1151</ele>
        <time>2013-05-15T15:17:08Z</time>
      </trkpt>
      <trkpt lat="59.8587232" lon="17.705763">
        <ele>13.5958</ele>
        <time>2013-05-15T15:17:09Z</time>
      </trkpt>
      <trkpt lat="59.8587732" lon="17.705786">
        <ele>14.0764</ele>
        <time>2013-05-15T15:17:10Z</time>
      </trkpt>
      <trkpt lat="59.858822" lon="17.705799">
        <ele>14.0764</ele>
        <time>2013-05-15T15:17:11Z</time>
      </trkpt>
      <trkpt lat="59.8588742" lon="17.7058368">
        <ele>14.0764</ele>
        <time>2013-05-15T15:17:12Z</time>
      </trkpt>
      <trkpt lat="59.8589214" lon="17.7058844">
        <ele>14.0764</ele>
        <time>2013-05-15T15:17:13Z</time>
      </trkpt>
      <trkpt lat="59.8589725" lon="17.7059447">
        <ele>14.557</ele>
        <time>2013-05-15T15:17:14Z</time>
      </trkpt>
      <trkpt lat="59.8590265" lon="17.7059971">
        <ele>14.557</ele>
        <time>2013-05-15T15:17:15Z</time>
      </trkpt>
      <trkpt lat="59.859082" lon="17.7060483">
        <ele>15.0377</ele>
        <time>2013-05-15T15:17:16Z</time>
      </trkpt>
      <trkpt lat="59.8591394" lon="17.7061056">
        <ele>15.0377</ele>
        <time>2013-05-15T15:17:17Z</time>
      </trkpt>
      <trkpt lat="59.8591959" lon="17.7061727">
        <ele>14.557</ele>
        <time>2013-05-15T15:17:18Z</time>
      </trkpt>
      <trkpt lat="59.8592486" lon="17.7062509">
        <ele>14.557</ele>
        <time>2013-05-15T15:17:19Z</time>
      </trkpt>
      <trkpt lat="59.8592971" lon="17.7063446">
        <ele>14.0764</ele>
        <time>2013-05-15T15:17:20Z</time>
      </trkpt>
      <trkpt lat="59.8593519" lon="17.7064441">
        <ele>15.0377</ele>
        <time>2013-05-15T15:17:21Z</time>
      </trkpt>
      <trkpt lat="59.8594075" lon="17.7065441">
        <ele>15.5184</ele>
        <time>2013-05-15T15:17:22Z</time>
      </trkpt>
      <trkpt lat="59.8594644" lon="17.7066415">
        <ele>15.999</ele>
        <time>2013-05-15T15:17:23Z</time>
      </trkpt>
      <trkpt lat="59.8595233" lon="17.7067377">
        <ele>16.4797</ele>
        <time>2013-05-15T15:17:24Z</time>
      </trkpt>
      <trkpt lat="59.8595799" lon="17.7068324">
        <ele>16.4797</ele>
        <time>2013-05-15T15:17:25Z</time>
      </trkpt>
      <trkpt lat="59.8596379" lon="17.7069243">
        <ele>16.4797</ele>
        <time>2013-05-15T15:17:26Z</time>
      </trkpt>
      <trkpt lat="59.8596979" lon="17.7070135">
        <ele>16.4797</ele>
        <time>2013-05-15T15:17:27Z</time>
      </trkpt>
      <trkpt lat="59.8597597" lon="17.7071016">
        <ele>16.4797</ele>
        <time>2013-05-15T15:17:28Z</time>
      </trkpt>
      <trkpt lat="59.8598237" lon="17.707188">
        <ele>16.4797</ele>
        <time>2013-05-15T15:17:29Z</time>
      </trkpt>
      <trkpt lat="59.8598896" lon="17.7072724">
        <ele>16.4797</ele>
        <time>2013-05-15T15:17:30Z</time>
      </trkpt>
      <trkpt lat="59.8599563" lon="17.7073562">
        <ele>16.4797</ele>
        <time>2013-05-15T15:17:31Z</time>
      </trkpt>
      <trkpt lat="59.8600169" lon="17.7074449">
        <ele>16.4797</ele>
        <time>2013-05-15T15:17:32Z</time>
      </trkpt>
      <trkpt lat="59.8600824" lon="17.7075236">
        <ele>16.4797</ele>
        <time>2013-05-15T15:17:33Z</time>
      </trkpt>
      <trkpt lat="59.8601362" lon="17.7076457">
        <ele>16.9604</ele>
        <time>2013-05-15T15:17:34Z</time>
      </trkpt>
      <trkpt lat="59.86021" lon="17.7077158">
        <ele>16.9604</ele>
        <time>2013-05-15T15:17:35Z</time>
      </trkpt>
      <trkpt lat="59.8602817" lon="17.7077853">
        <ele>17.4412</ele>
        <time>2013-05-15T15:17:36Z</time>
      </trkpt>
      <trkpt lat="59.860346" lon="17.7078645">
        <ele>17.4412</ele>
        <time>2013-05-15T15:17:37Z</time>
      </trkpt>
      <trkpt lat="59.8604075" lon="17.707933">
        <ele>17.4412</ele>
        <time>2013-05-15T15:17:38Z</time>
      </trkpt>
      <trkpt lat="59.860478" lon="17.7080054">
        <ele>17.4412</ele>
        <time>2013-05-15T15:17:39Z</time>
      </trkpt>
      <trkpt lat="59.8605413" lon="17.7080855">
        <ele>16.9604</ele>
        <time>2013-05-15T15:17:40Z</time>
      </trkpt>
      <trkpt lat="59.8606095" lon="17.7081669">
        <ele>17.4412</ele>
        <time>2013-05-15T15:17:41Z</time>
      </trkpt>
      <trkpt lat="59.8606713" lon="17.7082551">
        <ele>16.9604</ele>
        <time>2013-05-15T15:17:42Z</time>
      </trkpt>
      <trkpt lat="59.860736" lon="17.7083483">
        <ele>17.4412</ele>
        <time>2013-05-15T15:17:43Z</time>
      </trkpt>
      <trkpt lat="59.8608047" lon="17.708445">
        <ele>18.4023</ele>
        <time>2013-05-15T15:17:44Z</time>
      </trkpt>
      <trkpt lat="59.8608635" lon="17.7085421">
        <ele>17.9218</ele>
        <time>2013-05-15T15:17:45Z</time>
      </trkpt>
      <trkpt lat="59.8609205" lon="17.7086503">
        <ele>18.4023</ele>
        <time>2013-05-15T15:17:46Z</time>
      </trkpt>
      <trkpt lat="59.8609748" lon="17.7087659">
        <ele>18.4023</ele>
        <time>2013-05-15T15:17:47Z</time>
      </trkpt>
      <trkpt lat="59.8610303" lon="17.7088817">
        <ele>18.8831</ele>
        <time>2013-05-15T15:17:48Z</time>
      </trkpt>
      <trkpt lat="59.8610861" lon="17.7089962">
        <ele>19.3638</ele>
        <time>2013-05-15T15:17:49Z</time>
      </trkpt>
      <trkpt lat="59.8611406" lon="17.7091098">
        <ele>19.8444</ele>
        <time>2013-05-15T15:17:50Z</time>
      </trkpt>
      <trkpt lat="59.8611929" lon="17.7092253">
        <ele>20.325</ele>
        <time>2013-05-15T15:17:51Z</time>
      </trkpt>
      <trkpt lat="59.8612331" lon="17.709363">
        <ele>20.8057</ele>
        <time>2013-05-15T15:17:52Z</time>
      </trkpt>
      <trkpt lat="59.8612773" lon="17.7094594">
        <ele>20.8057</ele>
        <time>2013-05-15T15:17:53Z</time>
      </trkpt>
      <trkpt lat="59.861328" lon="17.7095542">
        <ele>20.8057</ele>
        <time>2013-05-15T15:17:54Z</time>
      </trkpt>
      <trkpt lat="59.8613811" lon="17.7096397">
        <ele>20.8057</ele>
        <time>2013-05-15T15:17:55Z</time>
      </trkpt>
      <trkpt lat="59.8614421" lon="17.7097319">
        <ele>21.2864</ele>
        <time>2013-05-15T15:17:56Z</time>
      </trkpt>
      <trkpt lat="59.8615294" lon="17.7098472">
        <ele>22.2476</ele>
        <time>2013-05-15T15:17:57Z</time>
      </trkpt>
      <trkpt lat="59.8615653" lon="17.7099674">
        <ele>22.2476</ele>
        <time>2013-05-15T15:17:58Z</time>
      </trkpt>
      <trkpt lat="59.8616098" lon="17.7100899">
        <ele>21.767</ele>
        <time>2013-05-15T15:17:59Z</time>
      </trkpt>
      <trkpt lat="59.8616582" lon="17.7102207">
        <ele>22.2476</ele>
        <time>2013-05-15T15:18:00Z</time>
      </trkpt>
      <trkpt lat="59.8617098" lon="17.7103295">
        <ele>21.767</ele>
        <time>2013-05-15T15:18:01Z</time>
      </trkpt>
      <trkpt lat="59.8617607" lon="17.7104375">
        <ele>21.767</ele>
        <time>2013-05-15T15:18:02Z</time>
      </trkpt>
      <trkpt lat="59.861811" lon="17.7105479">
        <ele>21.767</ele>
        <time>2013-05-15T15:18:03Z</time>
      </trkpt>
      <trkpt lat="59.8618595" lon="17.7106585">
        <ele>21.2864</ele>
        <time>2013-05-15T15:18:04Z</time>
      </trkpt>
      <trkpt lat="59.8619105" lon="17.710772">
        <ele>21.2864</ele>
        <time>2013-05-15T15:18:05Z</time>
      </trkpt>
      <trkpt lat="59.8619615" lon="17.7108869">
        <ele>21.2864</ele>
        <time>2013-05-15T15:18:06Z</time>
      </trkpt>
      <trkpt lat="59.8620124" lon="17.7110031">
        <ele>21.2864</ele>
        <time>2013-05-15T15:18:07Z</time>
      </trkpt>
      <trkpt lat="59.862065" lon="17.7111171">
        <ele>21.2864</ele>
        <time>2013-05-15T15:18:08Z</time>
      </trkpt>
      <trkpt lat="59.8621215" lon="17.7112241">
        <ele>21.2864</ele>
        <time>2013-05-15T15:18:09Z</time>
      </trkpt>
      <trkpt lat="59.8621839" lon="17.7113222">
        <ele>21.2864</ele>
        <time>2013-05-15T15:18:10Z</time>
      </trkpt>
      <trkpt lat="59.862249" lon="17.7114124">
        <ele>21.2864</ele>
        <time>2013-05-15T15:18:11Z</time>
      </trkpt>
      <trkpt lat="59.8623165" lon="17.7114936">
        <ele>21.767</ele>
        <time>2013-05-15T15:18:12Z</time>
      </trkpt>
      <trkpt lat="59.8623875" lon="17.7115641">
        <ele>21.767</ele>
        <time>2013-05-15T15:18:13Z</time>
      </trkpt>
      <trkpt lat="59.8624601" lon="17.7116209">
        <ele>21.767</ele>
        <time>2013-05-15T15:18:14Z</time>
      </trkpt>
      <trkpt lat="59.8625382" lon="17.711664">
        <ele>21.2864</ele>
        <time>2013-05-15T15:18:15Z</time>
      </trkpt>
      <trkpt lat="59.8626198" lon="17.711695">
        <ele>20.8057</ele>
        <time>2013-05-15T15:18:16Z</time>
      </trkpt>
      <trkpt lat="59.8627033" lon="17.7117102">
        <ele>20.325</ele>
        <time>2013-05-15T15:18:17Z</time>
      </trkpt>
      <trkpt lat="59.8627882" lon="17.7117124">
        <ele>20.325</ele>
        <time>2013-05-15T15:18:18Z</time>
      </trkpt>
      <trkpt lat="59.8628742" lon="17.7117012">
        <ele>19.8444</ele>
        <time>2013-05-15T15:18:19Z</time>
      </trkpt>
      <trkpt lat="59.8629593" lon="17.7116713">
        <ele>19.3638</ele>
        <time>2013-05-15T15:18:20Z</time>
      </trkpt>
      <trkpt lat="59.8630427" lon="17.7116205">
        <ele>18.8831</ele>
        <time>2013-05-15T15:18:21Z</time>
      </trkpt>
      <trkpt lat="59.8631241" lon="17.7115541">
        <ele>18.4023</ele>
        <time>2013-05-15T15:18:22Z</time>
      </trkpt>
      <trkpt lat="59.8632034" lon="17.7114767">
        <ele>18.4023</ele>
        <time>2013-05-15T15:18:23Z</time>
      </trkpt>
      <trkpt lat="59.8632782" lon="17.7113878">
        <ele>17.9218</ele>
        <time>2013-05-15T15:18:24Z</time>
      </trkpt>
      <trkpt lat="59.8633493" lon="17.7112905">
        <ele>17.9218</ele>
        <time>2013-05-15T15:18:25Z</time>
      </trkpt>
      <trkpt lat="59.8634187" lon="17.7111875">
        <ele>17.9218</ele>
        <time>2013-05-15T15:18:26Z</time>
      </trkpt>
      <trkpt lat="59.8634841" lon="17.7110798">
        <ele>17.9218</ele>
        <time>2013-05-15T15:18:27Z</time>
      </trkpt>
      <trkpt lat="59.8635468" lon="17.7109648">
        <ele>17.4412</ele>
        <time>2013-05-15T15:18:28Z</time>
      </trkpt>
      <trkpt lat="59.8636094" lon="17.7108488">
        <ele>17.4412</ele>
        <time>2013-05-15T15:18:29Z</time>
      </trkpt>
      <trkpt lat="59.8636727" lon="17.7107354">
        <ele>17.4412</ele>
        <time>2013-05-15T15:18:30Z</time>
      </trkpt>
      <trkpt lat="59.8637348" lon="17.7106213">
        <ele>17.4412</ele>
        <time>2013-05-15T15:18:31Z</time>
      </trkpt>
      <trkpt lat="59.8637976" lon="17.7105068">
        <ele>17.4412</ele>
        <time>2013-05-15T15:18:32Z</time>
      </trkpt>
      <trkpt lat="59.8638639" lon="17.7103913">
        <ele>17.4412</ele>
        <time>2013-05-15T15:18:33Z</time>
      </trkpt>
      <trkpt lat="59.863932" lon="17.7102766">
        <ele>17.4412</ele>
        <time>2013-05-15T15:18:34Z</time>
      </trkpt>
      <trkpt lat="59.8640014" lon="17.7101645">
        <ele>16.9604</ele>
        <time>2013-05-15T15:18:35Z</time>
      </trkpt>
      <trkpt lat="59.8640747" lon="17.7100546">
        <ele>16.4797</ele>
        <time>2013-05-15T15:18:36Z</time>
      </trkpt>
      <trkpt lat="59.8641503" lon="17.7099438">
        <ele>16.4797</ele>
        <time>2013-05-15T15:18:37Z</time>
      </trkpt>
      <trkpt lat="59.864228" lon="17.7098329">
        <ele>15.999</ele>
        <time>2013-05-15T15:18:38Z</time>
      </trkpt>
      <trkpt lat="59.8643051" lon="17.7097248">
        <ele>15.999</ele>
        <time>2013-05-15T15:18:39Z</time>
      </trkpt>
      <trkpt lat="59.8643837" lon="17.7096195">
        <ele>15.999</ele>
        <time>2013-05-15T15:18:40Z</time>
      </trkpt>
      <trkpt lat="59.8644635" lon="17.7095169">
        <ele>15.5184</ele>
        <time>2013-05-15T15:18:41Z</time>
      </trkpt>
      <trkpt lat="59.864544" lon="17.7094152">
        <ele>15.5184</ele>
        <time>2013-05-15T15:18:42Z</time>
      </trkpt>
      <trkpt lat="59.8646238" lon="17.7093126">
        <ele>15.0377</ele>
        <time>2013-05-15T15:18:43Z</time>
      </trkpt>
      <trkpt lat="59.864704" lon="17.7092117">
        <ele>15.0377</ele>
        <time>2013-05-15T15:18:44Z</time>
      </trkpt>
      <trkpt lat="59.8647842" lon="17.7091137">
        <ele>14.557</ele>
        <time>2013-05-15T15:18:45Z</time>
      </trkpt>
      <trkpt lat="59.864866" lon="17.7090185">
        <ele>14.557</ele>
        <time>2013-05-15T15:18:46Z</time>
      </trkpt>
      <trkpt lat="59.864948" lon="17.7089234">
        <ele>14.557</ele>
        <time>2013-05-15T15:18:47Z</time>
      </trkpt>
      <trkpt lat="59.8650284" lon="17.7088264">
        <ele>14.557</ele>
        <time>2013-05-15T15:18:48Z</time>
      </trkpt>
      <trkpt lat="59.8651055" lon="17.7087254">
        <ele>14.0764</ele>
        <time>2013-05-15T15:18:49Z</time>
      </trkpt>
      <trkpt lat="59.8651815" lon="17.7086197">
        <ele>14.0764</ele>
        <time>2013-05-15T15:18:50Z</time>
      </trkpt>
      <trkpt lat="59.8652562" lon="17.7085115">
        <ele>14.0764</ele>
        <time>2013-05-15T15:18:51Z</time>
      </trkpt>
      <trkpt lat="59.865328" lon="17.7083987">
        <ele>14.0764</ele>
        <time>2013-05-15T15:18:52Z</time>
      </trkpt>
      <trkpt lat="59.8653965" lon="17.7082814">
        <ele>14.0764</ele>
        <time>2013-05-15T15:18:53Z</time>
      </trkpt>
      <trkpt lat="59.8654618" lon="17.7081621">
        <ele>14.0764</ele>
        <time>2013-05-15T15:18:54Z</time>
      </trkpt>
      <trkpt lat="59.8655246" lon="17.7080395">
        <ele>14.0764</ele>
        <time>2013-05-15T15:18:55Z</time>
      </trkpt>
      <trkpt lat="59.8655837" lon="17.7079107">
        <ele>14.0764</ele>
        <time>2013-05-15T15:18:56Z</time>
      </trkpt>
      <trkpt lat="59.8656401" lon="17.7077799">
        <ele>14.0764</ele>
        <time>2013-05-15T15:18:57Z</time>
      </trkpt>
      <trkpt lat="59.8656927" lon="17.7076491">
        <ele>14.0764</ele>
        <time>2013-05-15T15:18:58Z</time>
      </trkpt>
      <trkpt lat="59.8657429" lon="17.707523">
        <ele>14.0764</ele>
        <time>2013-05-15T15:18:59Z</time>
      </trkpt>
      <trkpt lat="59.8657835" lon="17.7073926">
        <ele>13.5958</ele>
        <time>2013-05-15T15:19:00Z</time>
      </trkpt>
      <trkpt lat="59.8658035" lon="17.7072513">
        <ele>13.5958</ele>
        <time>2013-05-15T15:19:01Z</time>
      </trkpt>
      <trkpt lat="59.8658052" lon="17.7071059">
        <ele>13.1151</ele>
        <time>2013-05-15T15:19:02Z</time>
      </trkpt>
      <trkpt lat="59.865789" lon="17.7069645">
        <ele>12.6344</ele>
        <time>2013-05-15T15:19:03Z</time>
      </trkpt>
      <trkpt lat="59.865758" lon="17.7068274">
        <ele>12.6344</ele>
        <time>2013-05-15T15:19:04Z</time>
      </trkpt>
      <trkpt lat="59.8657219" lon="17.706692">
        <ele>12.6344</ele>
        <time>2013-05-15T15:19:05Z</time>
      </trkpt>
      <trkpt lat="59.8656837" lon="17.706559">
        <ele>12.1538</ele>
        <time>2013-05-15T15:19:06Z</time>
      </trkpt>
      <trkpt lat="59.8656437" lon="17.7064282">
        <ele>12.1538</ele>
        <time>2013-05-15T15:19:07Z</time>
      </trkpt>
      <trkpt lat="59.8656015" lon="17.7063001">
        <ele>12.1538</ele>
        <time>2013-05-15T15:19:08Z</time>
      </trkpt>
      <trkpt lat="59.8655585" lon="17.7061737">
        <ele>11.6732</ele>
        <time>2013-05-15T15:19:09Z</time>
      </trkpt>
      <trkpt lat="59.8655147" lon="17.7060468">
        <ele>11.6732</ele>
        <time>2013-05-15T15:19:10Z</time>
      </trkpt>
      <trkpt lat="59.8654705" lon="17.7059202">
        <ele>11.6732</ele>
        <time>2013-05-15T15:19:11Z</time>
      </trkpt>
      <trkpt lat="59.8654266" lon="17.705793">
        <ele>11.6732</ele>
        <time>2013-05-15T15:19:12Z</time>
      </trkpt>
      <trkpt lat="59.8653842" lon="17.7056635">
        <ele>11.6732</ele>
        <time>2013-05-15T15:19:13Z</time>
      </trkpt>
      <trkpt lat="59.8653437" lon="17.7055309">
        <ele>11.6732</ele>
        <time>2013-05-15T15:19:14Z</time>
      </trkpt>
      <trkpt lat="59.8653039" lon="17.7053956">
        <ele>11.1925</ele>
        <time>2013-05-15T15:19:15Z</time>
      </trkpt>
      <trkpt lat="59.8652667" lon="17.7052567">
        <ele>11.1925</ele>
        <time>2013-05-15T15:19:16Z</time>
      </trkpt>
      <trkpt lat="59.8652303" lon="17.7051149">
        <ele>11.1925</ele>
        <time>2013-05-15T15:19:17Z</time>
      </trkpt>
      <trkpt lat="59.8651915" lon="17.7049744">
        <ele>11.1925</ele>
        <time>2013-05-15T15:19:18Z</time>
      </trkpt>
      <trkpt lat="59.8651493" lon="17.7048367">
        <ele>11.1925</ele>
        <time>2013-05-15T15:19:19Z</time>
      </trkpt>
      <trkpt lat="59.8651049" lon="17.7047018">
        <ele>11.1925</ele>
        <time>2013-05-15T15:19:20Z</time>
      </trkpt>
      <trkpt lat="59.8650607" lon="17.7045678">
        <ele>11.1925</ele>
        <time>2013-05-15T15:19:21Z</time>
      </trkpt>
      <trkpt lat="59.8650159" lon="17.7044349">
        <ele>11.1925</ele>
        <time>2013-05-15T15:19:22Z</time>
      </trkpt>
      <trkpt lat="59.8649707" lon="17.7043032">
        <ele>11.1925</ele>
        <time>2013-05-15T15:19:23Z</time>
      </trkpt>
      <trkpt lat="59.8649257" lon="17.7041706">
        <ele>11.1925</ele>
        <time>2013-05-15T15:19:24Z</time>
      </trkpt>
      <trkpt lat="59.8648815" lon="17.7040378">
        <ele>11.1925</ele>
        <time>2013-05-15T15:19:25Z</time>
      </trkpt>
      <trkpt lat="59.8648371" lon="17.7039046">
        <ele>11.1925</ele>
        <time>2013-05-15T15:19:26Z</time>
      </trkpt>
      <trkpt lat="59.8647927" lon="17.7037726">
        <ele>11.1925</ele>
        <time>2013-05-15T15:19:27Z</time>
      </trkpt>
      <trkpt lat="59.864748" lon="17.7036425">
        <ele>11.1925</ele>
        <time>2013-05-15T15:19:28Z</time>
      </trkpt>
      <trkpt lat="59.8647045" lon="17.7035123">
        <ele>11.6732</ele>
        <time>2013-05-15T15:19:29Z</time>
      </trkpt>
      <trkpt lat="59.8646613" lon="17.7033827">
        <ele>11.6732</ele>
        <time>2013-05-15T15:19:30Z</time>
      </trkpt>
      <trkpt lat="59.8646169" lon="17.7032535">
        <ele>11.6732</ele>
        <time>2013-05-15T15:19:31Z</time>
      </trkpt>
      <trkpt lat="59.8645728" lon="17.7031236">
        <ele>11.6732</ele>
        <time>2013-05-15T15:19:32Z</time>
      </trkpt>
      <trkpt lat="59.8645298" lon="17.7029953">
        <ele>12.1538</ele>
        <time>2013-05-15T15:19:33Z</time>
      </trkpt>
      <trkpt lat="59.8644881" lon="17.7028696">
        <ele>12.1538</ele>
        <time>2013-05-15T15:19:34Z</time>
      </trkpt>
      <trkpt lat="59.8644323" lon="17.7027253">
        <ele>11.6732</ele>
        <time>2013-05-15T15:19:35Z</time>
      </trkpt>
      <trkpt lat="59.8643822" lon="17.7025911">
        <ele>11.6732</ele>
        <time>2013-05-15T15:19:36Z</time>
      </trkpt>
      <trkpt lat="59.8643357" lon="17.702458">
        <ele>11.6732</ele>
        <time>2013-05-15T15:19:37Z</time>
      </trkpt>
      <trkpt lat="59.8642899" lon="17.7023276">
        <ele>11.6732</ele>
        <time>2013-05-15T15:19:38Z</time>
      </trkpt>
      <trkpt lat="59.864244" lon="17.7021995">
        <ele>11.6732</ele>
        <time>2013-05-15T15:19:39Z</time>
      </trkpt>
      <trkpt lat="59.8641995" lon="17.70207">
        <ele>11.6732</ele>
        <time>2013-05-15T15:19:40Z</time>
      </trkpt>
      <trkpt lat="59.8641565" lon="17.70194">
        <ele>11.6732</ele>
        <time>2013-05-15T15:19:41Z</time>
      </trkpt>
      <trkpt lat="59.8641125" lon="17.7018098">
        <ele>11.6732</ele>
        <time>2013-05-15T15:19:42Z</time>
      </trkpt>
      <trkpt lat="59.8640669" lon="17.7016803">
        <ele>11.6732</ele>
        <time>2013-05-15T15:19:43Z</time>
      </trkpt>
      <trkpt lat="59.8640238" lon="17.7015484">
        <ele>11.6732</ele>
        <time>2013-05-15T15:19:44Z</time>
      </trkpt>
      <trkpt lat="59.8639818" lon="17.7014115">
        <ele>11.6732</ele>
        <time>2013-05-15T15:19:45Z</time>
      </trkpt>
      <trkpt lat="59.8639387" lon="17.7012779">
        <ele>11.6732</ele>
        <time>2013-05-15T15:19:46Z</time>
      </trkpt>
      <trkpt lat="59.8638945" lon="17.7011499">
        <ele>11.1925</ele>
        <time>2013-05-15T15:19:47Z</time>
      </trkpt>
      <trkpt lat="59.8638512" lon="17.7010262">
        <ele>11.1925</ele>
        <time>2013-05-15T15:19:48Z</time>
      </trkpt>
      <trkpt lat="59.8638088" lon="17.7009015">
        <ele>11.1925</ele>
        <time>2013-05-15T15:19:49Z</time>
      </trkpt>
      <trkpt lat="59.8637684" lon="17.700771">
        <ele>11.1925</ele>
        <time>2013-05-15T15:19:50Z</time>
      </trkpt>
      <trkpt lat="59.8637296" lon="17.7006371">
        <ele>11.1925</ele>
        <time>2013-05-15T15:19:51Z</time>
      </trkpt>
      <trkpt lat="59.8636927" lon="17.7005018">
        <ele>11.1925</ele>
        <time>2013-05-15T15:19:52Z</time>
      </trkpt>
      <trkpt lat="59.8636566" lon="17.7003671">
        <ele>11.1925</ele>
        <time>2013-05-15T15:19:53Z</time>
      </trkpt>
      <trkpt lat="59.8636219" lon="17.7002296">
        <ele>11.1925</ele>
        <time>2013-05-15T15:19:54Z</time>
      </trkpt>
      <trkpt lat="59.8635888" lon="17.700091">
        <ele>11.1925</ele>
        <time>2013-05-15T15:19:55Z</time>
      </trkpt>
      <trkpt lat="59.8635564" lon="17.6999501">
        <ele>11.1925</ele>
        <time>2013-05-15T15:19:56Z</time>
      </trkpt>
      <trkpt lat="59.8635253" lon="17.699808">
        <ele>11.6732</ele>
        <time>2013-05-15T15:19:57Z</time>
      </trkpt>
      <trkpt lat="59.863496" lon="17.6996665">
        <ele>11.6732</ele>
        <time>2013-05-15T15:19:58Z</time>
      </trkpt>
      <trkpt lat="59.8634639" lon="17.6995146">
        <ele>11.6732</ele>
        <time>2013-05-15T15:19:59Z</time>
      </trkpt>
      <trkpt lat="59.8634338" lon="17.6993689">
        <ele>11.6732</ele>
        <time>2013-05-15T15:20:00Z</time>
      </trkpt>
      <trkpt lat="59.8634046" lon="17.6992237">
        <ele>11.6732</ele>
        <time>2013-05-15T15:20:01Z</time>
      </trkpt>
      <trkpt lat="59.8633738" lon="17.6990791">
        <ele>11.6732</ele>
        <time>2013-05-15T15:20:02Z</time>
      </trkpt>
      <trkpt lat="59.863343" lon="17.698934">
        <ele>11.6732</ele>
        <time>2013-05-15T15:20:03Z</time>
      </trkpt>
      <trkpt lat="59.8633148" lon="17.6987878">
        <ele>11.6732</ele>
        <time>2013-05-15T15:20:04Z</time>
      </trkpt>
      <trkpt lat="59.8632925" lon="17.6986391">
        <ele>12.1538</ele>
        <time>2013-05-15T15:20:05Z</time>
      </trkpt>
      <trkpt lat="59.863271" lon="17.698489">
        <ele>12.1538</ele>
        <time>2013-05-15T15:20:06Z</time>
      </trkpt>
      <trkpt lat="59.8632483" lon="17.6983403">
        <ele>12.6344</ele>
        <time>2013-05-15T15:20:07Z</time>
      </trkpt>
      <trkpt lat="59.8632256" lon="17.6981944">
        <ele>13.1151</ele>
        <time>2013-05-15T15:20:08Z</time>
      </trkpt>
      <trkpt lat="59.8632023" lon="17.6980521">
        <ele>13.1151</ele>
        <time>2013-05-15T15:20:09Z</time>
      </trkpt>
      <trkpt lat="59.8631782" lon="17.697912">
        <ele>13.1151</ele>
        <time>2013-05-15T15:20:10Z</time>
      </trkpt>
      <trkpt lat="59.8631565" lon="17.6977597">
        <ele>12.6344</ele>
        <time>2013-05-15T15:20:11Z</time>
      </trkpt>
      <trkpt lat="59.8631378" lon="17.6976151">
        <ele>12.6344</ele>
        <time>2013-05-15T15:20:12Z</time>
      </trkpt>
      <trkpt lat="59.8631216" lon="17.697469">
        <ele>12.6344</ele>
        <time>2013-05-15T15:20:13Z</time>
      </trkpt>
      <trkpt lat="59.8631044" lon="17.6973215">
        <ele>12.1538</ele>
        <time>2013-05-15T15:20:14Z</time>
      </trkpt>
      <trkpt lat="59.8630881" lon="17.6971749">
        <ele>11.6732</ele>
        <time>2013-05-15T15:20:15Z</time>
      </trkpt>
      <trkpt lat="59.8630731" lon="17.6970286">
        <ele>11.6732</ele>
        <time>2013-05-15T15:20:16Z</time>
      </trkpt>
      <trkpt lat="59.8630578" lon="17.6968801">
        <ele>11.6732</ele>
        <time>2013-05-15T15:20:17Z</time>
      </trkpt>
      <trkpt lat="59.8630457" lon="17.6967273">
        <ele>11.6732</ele>
        <time>2013-05-15T15:20:18Z</time>
      </trkpt>
      <trkpt lat="59.8630334" lon="17.6965782">
        <ele>11.6732</ele>
        <time>2013-05-15T15:20:19Z</time>
      </trkpt>
      <trkpt lat="59.863019" lon="17.6964287">
        <ele>12.1538</ele>
        <time>2013-05-15T15:20:20Z</time>
      </trkpt>
      <trkpt lat="59.8630049" lon="17.6962801">
        <ele>12.1538</ele>
        <time>2013-05-15T15:20:21Z</time>
      </trkpt>
      <trkpt lat="59.8629902" lon="17.696128">
        <ele>12.6344</ele>
        <time>2013-05-15T15:20:22Z</time>
      </trkpt>
      <trkpt lat="59.8629705" lon="17.6959768">
        <ele>13.1151</ele>
        <time>2013-05-15T15:20:23Z</time>
      </trkpt>
      <trkpt lat="59.8629543" lon="17.6958274">
        <ele>13.5958</ele>
        <time>2013-05-15T15:20:24Z</time>
      </trkpt>
      <trkpt lat="59.8629392" lon="17.6956791">
        <ele>13.5958</ele>
        <time>2013-05-15T15:20:25Z</time>
      </trkpt>
      <trkpt lat="59.8629229" lon="17.6955286">
        <ele>14.0764</ele>
        <time>2013-05-15T15:20:26Z</time>
      </trkpt>
      <trkpt lat="59.8629069" lon="17.6953756">
        <ele>14.0764</ele>
        <time>2013-05-15T15:20:27Z</time>
      </trkpt>
      <trkpt lat="59.8628924" lon="17.6952236">
        <ele>14.0764</ele>
        <time>2013-05-15T15:20:28Z</time>
      </trkpt>
      <trkpt lat="59.8628786" lon="17.6950752">
        <ele>14.557</ele>
        <time>2013-05-15T15:20:29Z</time>
      </trkpt>
      <trkpt lat="59.8628646" lon="17.6949267">
        <ele>14.557</ele>
        <time>2013-05-15T15:20:30Z</time>
      </trkpt>
      <trkpt lat="59.862847" lon="17.694779">
        <ele>14.557</ele>
        <time>2013-05-15T15:20:31Z</time>
      </trkpt>
      <trkpt lat="59.8628281" lon="17.694632">
        <ele>15.0377</ele>
        <time>2013-05-15T15:20:32Z</time>
      </trkpt>
      <trkpt lat="59.8628115" lon="17.6944812">
        <ele>15.5184</ele>
        <time>2013-05-15T15:20:33Z</time>
      </trkpt>
      <trkpt lat="59.8627921" lon="17.694333">
        <ele>15.5184</ele>
        <time>2013-05-15T15:20:34Z</time>
      </trkpt>
      <trkpt lat="59.8627722" lon="17.6941853">
        <ele>15.5184</ele>
        <time>2013-05-15T15:20:35Z</time>
      </trkpt>
      <trkpt lat="59.8627532" lon="17.694036">
        <ele>15.999</ele>
        <time>2013-05-15T15:20:36Z</time>
      </trkpt>
      <trkpt lat="59.8627348" lon="17.6938849">
        <ele>15.999</ele>
        <time>2013-05-15T15:20:37Z</time>
      </trkpt>
      <trkpt lat="59.8627159" lon="17.6937335">
        <ele>15.999</ele>
        <time>2013-05-15T15:20:38Z</time>
      </trkpt>
      <trkpt lat="59.8626958" lon="17.6935819">
        <ele>16.4797</ele>
        <time>2013-05-15T15:20:39Z</time>
      </trkpt>
      <trkpt lat="59.8626661" lon="17.6934188">
        <ele>16.4797</ele>
        <time>2013-05-15T15:20:40Z</time>
      </trkpt>
      <trkpt lat="59.8626357" lon="17.6932753">
        <ele>16.4797</ele>
        <time>2013-05-15T15:20:41Z</time>
      </trkpt>
      <trkpt lat="59.8626075" lon="17.6931292">
        <ele>16.4797</ele>
        <time>2013-05-15T15:20:42Z</time>
      </trkpt>
      <trkpt lat="59.8625768" lon="17.6929917">
        <ele>16.4797</ele>
        <time>2013-05-15T15:20:43Z</time>
      </trkpt>
      <trkpt lat="59.862546" lon="17.6928562">
        <ele>15.999</ele>
        <time>2013-05-15T15:20:44Z</time>
      </trkpt>
      <trkpt lat="59.8625159" lon="17.692722">
        <ele>15.999</ele>
        <time>2013-05-15T15:20:45Z</time>
      </trkpt>
      <trkpt lat="59.8624831" lon="17.6925864">
        <ele>15.999</ele>
        <time>2013-05-15T15:20:46Z</time>
      </trkpt>
      <trkpt lat="59.8624491" lon="17.6924562">
        <ele>15.999</ele>
        <time>2013-05-15T15:20:47Z</time>
      </trkpt>
      <trkpt lat="59.8624159" lon="17.6923251">
        <ele>15.999</ele>
        <time>2013-05-15T15:20:48Z</time>
      </trkpt>
      <trkpt lat="59.862381" lon="17.6921973">
        <ele>16.4797</ele>
        <time>2013-05-15T15:20:49Z</time>
      </trkpt>
      <trkpt lat="59.8623433" lon="17.6920691">
        <ele>16.4797</ele>
        <time>2013-05-15T15:20:50Z</time>
      </trkpt>
      <trkpt lat="59.8623042" lon="17.6919434">
        <ele>16.4797</ele>
        <time>2013-05-15T15:20:51Z</time>
      </trkpt>
      <trkpt lat="59.8622658" lon="17.6918247">
        <ele>16.4797</ele>
        <time>2013-05-15T15:20:52Z</time>
      </trkpt>
      <trkpt lat="59.8622249" lon="17.6917047">
        <ele>16.4797</ele>
        <time>2013-05-15T15:20:53Z</time>
      </trkpt>
      <trkpt lat="59.8621824" lon="17.6915851">
        <ele>16.4797</ele>
        <time>2013-05-15T15:20:54Z</time>
      </trkpt>
      <trkpt lat="59.8621386" lon="17.6914612">
        <ele>16.4797</ele>
        <time>2013-05-15T15:20:55Z</time>
      </trkpt>
      <trkpt lat="59.8620948" lon="17.691339">
        <ele>16.9604</ele>
        <time>2013-05-15T15:20:56Z</time>
      </trkpt>
      <trkpt lat="59.8620512" lon="17.6912173">
        <ele>16.9604</ele>
        <time>2013-05-15T15:20:57Z</time>
      </trkpt>
      <trkpt lat="59.8620052" lon="17.6911001">
        <ele>16.9604</ele>
        <time>2013-05-15T15:20:58Z</time>
      </trkpt>
      <trkpt lat="59.8619568" lon="17.6909906">
        <ele>16.9604</ele>
        <time>2013-05-15T15:20:59Z</time>
      </trkpt>
      <trkpt lat="59.8619061" lon="17.6908752">
        <ele>16.9604</ele>
        <time>2013-05-15T15:21:00Z</time>
      </trkpt>
      <trkpt lat="59.8618552" lon="17.6907654">
        <ele>16.9604</ele>
        <time>2013-05-15T15:21:01Z</time>
      </trkpt>
      <trkpt lat="59.8618031" lon="17.6906521">
        <ele>16.9604</ele>
        <time>2013-05-15T15:21:02Z</time>
      </trkpt>
      <trkpt lat="59.8617506" lon="17.6905391">
        <ele>16.9604</ele>
        <time>2013-05-15T15:21:03Z</time>
      </trkpt>
      <trkpt lat="59.8616971" lon="17.6904313">
        <ele>16.4797</ele>
        <time>2013-05-15T15:21:04Z</time>
      </trkpt>
      <trkpt lat="59.8616436" lon="17.6903253">
        <ele>16.4797</ele>
        <time>2013-05-15T15:21:05Z</time>
      </trkpt>
      <trkpt lat="59.8615907" lon="17.6902149">
        <ele>16.4797</ele>
        <time>2013-05-15T15:21:06Z</time>
      </trkpt>
      <trkpt lat="59.8615387" lon="17.690117">
        <ele>15.999</ele>
        <time>2013-05-15T15:21:07Z</time>
      </trkpt>
      <trkpt lat="59.8614854" lon="17.69002">
        <ele>15.5184</ele>
        <time>2013-05-15T15:21:08Z</time>
      </trkpt>
      <trkpt lat="59.8614284" lon="17.6899248">
        <ele>15.5184</ele>
        <time>2013-05-15T15:21:09Z</time>
      </trkpt>
      <trkpt lat="59.8613706" lon="17.6898331">
        <ele>15.5184</ele>
        <time>2013-05-15T15:21:10Z</time>
      </trkpt>
      <trkpt lat="59.8613125" lon="17.689741">
        <ele>15.0377</ele>
        <time>2013-05-15T15:21:11Z</time>
      </trkpt>
      <trkpt lat="59.8612549" lon="17.6896469">
        <ele>15.0377</ele>
        <time>2013-05-15T15:21:12Z</time>
      </trkpt>
      <trkpt lat="59.8611986" lon="17.6895508">
        <ele>15.0377</ele>
        <time>2013-05-15T15:21:13Z</time>
      </trkpt>
      <trkpt lat="59.8611435" lon="17.6894539">
        <ele>14.557</ele>
        <time>2013-05-15T15:21:14Z</time>
      </trkpt>
      <trkpt lat="59.8610886" lon="17.689357">
        <ele>14.557</ele>
        <time>2013-05-15T15:21:15Z</time>
      </trkpt>
      <trkpt lat="59.8610332" lon="17.6892607">
        <ele>14.557</ele>
        <time>2013-05-15T15:21:16Z</time>
      </trkpt>
      <trkpt lat="59.860965" lon="17.6891611">
        <ele>14.557</ele>
        <time>2013-05-15T15:21:17Z</time>
      </trkpt>
      <trkpt lat="59.8608951" lon="17.689053">
        <ele>14.557</ele>
        <time>2013-05-15T15:21:18Z</time>
      </trkpt>
      <trkpt lat="59.8608415" lon="17.688938">
        <ele>14.557</ele>
        <time>2013-05-15T15:21:19Z</time>
      </trkpt>
      <trkpt lat="59.8607868" lon="17.688824">
        <ele>14.0764</ele>
        <time>2013-05-15T15:21:20Z</time>
      </trkpt>
      <trkpt lat="59.8607299" lon="17.6886919">
        <ele>14.0764</ele>
        <time>2013-05-15T15:21:21Z</time>
      </trkpt>
      <trkpt lat="59.8606825" lon="17.6886114">
        <ele>13.5958</ele>
        <time>2013-05-15T15:21:22Z</time>
      </trkpt>
      <trkpt lat="59.8606356" lon="17.6885235">
        <ele>13.1151</ele>
        <time>2013-05-15T15:21:23Z</time>
      </trkpt>
      <trkpt lat="59.8605827" lon="17.6884452">
        <ele>13.5958</ele>
        <time>2013-05-15T15:21:24Z</time>
      </trkpt>
      <trkpt lat="59.860523" lon="17.6883698">
        <ele>13.5958</ele>
        <time>2013-05-15T15:21:25Z</time>
      </trkpt>
      <trkpt lat="59.8604701" lon="17.6882879">
        <ele>14.0764</ele>
        <time>2013-05-15T15:21:26Z</time>
      </trkpt>
      <trkpt lat="59.8604204" lon="17.6882008">
        <ele>14.0764</ele>
        <time>2013-05-15T15:21:27Z</time>
      </trkpt>
      <trkpt lat="59.8603719" lon="17.6881221">
        <ele>14.557</ele>
        <time>2013-05-15T15:21:28Z</time>
      </trkpt>
      <trkpt lat="59.8603212" lon="17.6880443">
        <ele>15.0377</ele>
        <time>2013-05-15T15:21:29Z</time>
      </trkpt>
      <trkpt lat="59.8602762" lon="17.6879575">
        <ele>15.0377</ele>
        <time>2013-05-15T15:21:30Z</time>
      </trkpt>
      <trkpt lat="59.8602336" lon="17.687875">
        <ele>14.557</ele>
        <time>2013-05-15T15:21:31Z</time>
      </trkpt>
      <trkpt lat="59.8601834" lon="17.6877963">
        <ele>15.5184</ele>
        <time>2013-05-15T15:21:32Z</time>
      </trkpt>
      <trkpt lat="59.8601424" lon="17.687716">
        <ele>15.5184</ele>
        <time>2013-05-15T15:21:33Z</time>
      </trkpt>
      <trkpt lat="59.8601015" lon="17.6876495">
        <ele>15.5184</ele>
        <time>2013-05-15T15:21:34Z</time>
      </trkpt>
      <trkpt lat="59.8600579" lon="17.687584">
        <ele>15.999</ele>
        <time>2013-05-15T15:21:35Z</time>
      </trkpt>
      <trkpt lat="59.860017" lon="17.6875189">
        <ele>15.999</ele>
        <time>2013-05-15T15:21:36Z</time>
      </trkpt>
      <trkpt lat="59.8599827" lon="17.6874565">
        <ele>15.999</ele>
        <time>2013-05-15T15:21:37Z</time>
      </trkpt>
      <trkpt lat="59.8599533" lon="17.6874058">
        <ele>16.4797</ele>
        <time>2013-05-15T15:21:38Z</time>
      </trkpt>
      <trkpt lat="59.8599334" lon="17.6873724">
        <ele>15.999</ele>
        <time>2013-05-15T15:21:39Z</time>
      </trkpt>
      <trkpt lat="59.859917" lon="17.6873409">
        <ele>15.999</ele>
        <time>2013-05-15T15:21:40Z</time>
      </trkpt>
      <trkpt lat="59.8597485" lon="17.6868948">
        <ele>14.0764</ele>
        <time>2013-05-15T15:22:18Z</time>
      </trkpt>
      <trkpt lat="59.8597617" lon="17.686803">
        <ele>14.557</ele>
        <time>2013-05-15T15:22:19Z</time>
      </trkpt>
      <trkpt lat="59.859793" lon="17.686723">
        <ele>14.557</ele>
        <time>2013-05-15T15:22:20Z</time>
      </trkpt>
      <trkpt lat="59.8598383" lon="17.6866565">
        <ele>15.0377</ele>
        <time>2013-05-15T15:22:21Z</time>
      </trkpt>
      <trkpt lat="59.8598926" lon="17.6865923">
        <ele>15.0377</ele>
        <time>2013-05-15T15:22:22Z</time>
      </trkpt>
      <trkpt lat="59.8599486" lon="17.6865231">
        <ele>15.5184</ele>
        <time>2013-05-15T15:22:23Z</time>
      </trkpt>
      <trkpt lat="59.8600071" lon="17.6864524">
        <ele>15.5184</ele>
        <time>2013-05-15T15:22:24Z</time>
      </trkpt>
      <trkpt lat="59.8600679" lon="17.6863738">
        <ele>15.999</ele>
        <time>2013-05-15T15:22:25Z</time>
      </trkpt>
      <trkpt lat="59.8601296" lon="17.6862904">
        <ele>15.999</ele>
        <time>2013-05-15T15:22:26Z</time>
      </trkpt>
      <trkpt lat="59.8601937" lon="17.6862086">
        <ele>15.999</ele>
        <time>2013-05-15T15:22:27Z</time>
      </trkpt>
      <trkpt lat="59.8602596" lon="17.6861268">
        <ele>15.5184</ele>
        <time>2013-05-15T15:22:28Z</time>
      </trkpt>
      <trkpt lat="59.8603253" lon="17.6860401">
        <ele>15.5184</ele>
        <time>2013-05-15T15:22:29Z</time>
      </trkpt>
      <trkpt lat="59.8603915" lon="17.6859554">
        <ele>15.5184</ele>
        <time>2013-05-15T15:22:30Z</time>
      </trkpt>
      <trkpt lat="59.8604589" lon="17.6858701">
        <ele>15.0377</ele>
        <time>2013-05-15T15:22:31Z</time>
      </trkpt>
      <trkpt lat="59.8605277" lon="17.6857875">
        <ele>15.5184</ele>
        <time>2013-05-15T15:22:32Z</time>
      </trkpt>
      <trkpt lat="59.8605973" lon="17.6857093">
        <ele>15.5184</ele>
        <time>2013-05-15T15:22:33Z</time>
      </trkpt>
      <trkpt lat="59.8606644" lon="17.6856311">
        <ele>15.0377</ele>
        <time>2013-05-15T15:22:34Z</time>
      </trkpt>
      <trkpt lat="59.8607314" lon="17.6855553">
        <ele>15.0377</ele>
        <time>2013-05-15T15:22:35Z</time>
      </trkpt>
      <trkpt lat="59.8607988" lon="17.6854786">
        <ele>15.0377</ele>
        <time>2013-05-15T15:22:36Z</time>
      </trkpt>
      <trkpt lat="59.8608686" lon="17.6854015">
        <ele>15.0377</ele>
        <time>2013-05-15T15:22:37Z</time>
      </trkpt>
      <trkpt lat="59.8609406" lon="17.6853322">
        <ele>15.5184</ele>
        <time>2013-05-15T15:22:38Z</time>
      </trkpt>
      <trkpt lat="59.8610126" lon="17.6852668">
        <ele>15.999</ele>
        <time>2013-05-15T15:22:39Z</time>
      </trkpt>
      <trkpt lat="59.8610845" lon="17.6851964">
        <ele>15.999</ele>
        <time>2013-05-15T15:22:40Z</time>
      </trkpt>
      <trkpt lat="59.8611587" lon="17.6851281">
        <ele>15.999</ele>
        <time>2013-05-15T15:22:41Z</time>
      </trkpt>
      <trkpt lat="59.8612333" lon="17.6850622">
        <ele>15.999</ele>
        <time>2013-05-15T15:22:42Z</time>
      </trkpt>
      <trkpt lat="59.861308" lon="17.684997">
        <ele>15.999</ele>
        <time>2013-05-15T15:22:43Z</time>
      </trkpt>
      <trkpt lat="59.8613825" lon="17.6849358">
        <ele>15.999</ele>
        <time>2013-05-15T15:22:44Z</time>
      </trkpt>
      <trkpt lat="59.8614588" lon="17.6848788">
        <ele>15.999</ele>
        <time>2013-05-15T15:22:45Z</time>
      </trkpt>
      <trkpt lat="59.8615352" lon="17.6848161">
        <ele>15.999</ele>
        <time>2013-05-15T15:22:46Z</time>
      </trkpt>
      <trkpt lat="59.8616137" lon="17.6847561">
        <ele>15.5184</ele>
        <time>2013-05-15T15:22:47Z</time>
      </trkpt>
      <trkpt lat="59.8616932" lon="17.6846997">
        <ele>15.0377</ele>
        <time>2013-05-15T15:22:48Z</time>
      </trkpt>
      <trkpt lat="59.8617726" lon="17.684644">
        <ele>14.557</ele>
        <time>2013-05-15T15:22:49Z</time>
      </trkpt>
      <trkpt lat="59.861854" lon="17.6845863">
        <ele>14.557</ele>
        <time>2013-05-15T15:22:50Z</time>
      </trkpt>
      <trkpt lat="59.8619353" lon="17.6845292">
        <ele>14.0764</ele>
        <time>2013-05-15T15:22:51Z</time>
      </trkpt>
      <trkpt lat="59.8620177" lon="17.6844722">
        <ele>13.5958</ele>
        <time>2013-05-15T15:22:52Z</time>
      </trkpt>
      <trkpt lat="59.8621004" lon="17.6844173">
        <ele>13.5958</ele>
        <time>2013-05-15T15:22:53Z</time>
      </trkpt>
      <trkpt lat="59.8621831" lon="17.6843646">
        <ele>14.0764</ele>
        <time>2013-05-15T15:22:54Z</time>
      </trkpt>
      <trkpt lat="59.8622656" lon="17.6843075">
        <ele>14.0764</ele>
        <time>2013-05-15T15:22:55Z</time>
      </trkpt>
      <trkpt lat="59.8623472" lon="17.6842488">
        <ele>14.0764</ele>
        <time>2013-05-15T15:22:56Z</time>
      </trkpt>
      <trkpt lat="59.8624294" lon="17.6841904">
        <ele>13.5958</ele>
        <time>2013-05-15T15:22:57Z</time>
      </trkpt>
      <trkpt lat="59.8625134" lon="17.6841316">
        <ele>13.5958</ele>
        <time>2013-05-15T15:22:58Z</time>
      </trkpt>
      <trkpt lat="59.8625979" lon="17.6840711">
        <ele>13.1151</ele>
        <time>2013-05-15T15:22:59Z</time>
      </trkpt>
      <trkpt lat="59.8626836" lon="17.6840091">
        <ele>12.6344</ele>
        <time>2013-05-15T15:23:00Z</time>
      </trkpt>
      <trkpt lat="59.8627696" lon="17.683949">
        <ele>12.6344</ele>
        <time>2013-05-15T15:23:01Z</time>
      </trkpt>
      <trkpt lat="59.8628556" lon="17.6838893">
        <ele>12.6344</ele>
        <time>2013-05-15T15:23:02Z</time>
      </trkpt>
      <trkpt lat="59.8629421" lon="17.6838309">
        <ele>12.6344</ele>
        <time>2013-05-15T15:23:03Z</time>
      </trkpt>
      <trkpt lat="59.8630291" lon="17.6837716">
        <ele>12.1538</ele>
        <time>2013-05-15T15:23:04Z</time>
      </trkpt>
      <trkpt lat="59.8631163" lon="17.6837107">
        <ele>12.1538</ele>
        <time>2013-05-15T15:23:05Z</time>
      </trkpt>
      <trkpt lat="59.8632029" lon="17.6836483">
        <ele>11.6732</ele>
        <time>2013-05-15T15:23:06Z</time>
      </trkpt>
      <trkpt lat="59.8632894" lon="17.683586">
        <ele>11.6732</ele>
        <time>2013-05-15T15:23:07Z</time>
      </trkpt>
      <trkpt lat="59.8633753" lon="17.6835216">
        <ele>11.1925</ele>
        <time>2013-05-15T15:23:08Z</time>
      </trkpt>
      <trkpt lat="59.8634598" lon="17.6834582">
        <ele>11.1925</ele>
        <time>2013-05-15T15:23:09Z</time>
      </trkpt>
      <trkpt lat="59.8635443" lon="17.6833992">
        <ele>10.7118</ele>
        <time>2013-05-15T15:23:10Z</time>
      </trkpt>
      <trkpt lat="59.8636282" lon="17.6833404">
        <ele>10.2312</ele>
        <time>2013-05-15T15:23:11Z</time>
      </trkpt>
      <trkpt lat="59.863711" lon="17.6832813">
        <ele>9.75061</ele>
        <time>2013-05-15T15:23:12Z</time>
      </trkpt>
      <trkpt lat="59.8637938" lon="17.6832227">
        <ele>9.2699</ele>
        <time>2013-05-15T15:23:13Z</time>
      </trkpt>
      <trkpt lat="59.8638747" lon="17.6831642">
        <ele>9.2699</ele>
        <time>2013-05-15T15:23:14Z</time>
      </trkpt>
      <trkpt lat="59.8639559" lon="17.6831055">
        <ele>9.2699</ele>
        <time>2013-05-15T15:23:15Z</time>
      </trkpt>
      <trkpt lat="59.8640358" lon="17.6830475">
        <ele>9.2699</ele>
        <time>2013-05-15T15:23:16Z</time>
      </trkpt>
      <trkpt lat="59.8641139" lon="17.6829877">
        <ele>8.78918</ele>
        <time>2013-05-15T15:23:17Z</time>
      </trkpt>
      <trkpt lat="59.8641907" lon="17.6829306">
        <ele>8.78918</ele>
        <time>2013-05-15T15:23:18Z</time>
      </trkpt>
      <trkpt lat="59.8642664" lon="17.6828768">
        <ele>9.2699</ele>
        <time>2013-05-15T15:23:19Z</time>
      </trkpt>
      <trkpt lat="59.8643412" lon="17.6828228">
        <ele>8.78918</ele>
        <time>2013-05-15T15:23:20Z</time>
      </trkpt>
      <trkpt lat="59.8644144" lon="17.6827678">
        <ele>8.78918</ele>
        <time>2013-05-15T15:23:21Z</time>
      </trkpt>
      <trkpt lat="59.8644867" lon="17.6827124">
        <ele>8.78918</ele>
        <time>2013-05-15T15:23:22Z</time>
      </trkpt>
      <trkpt lat="59.8645577" lon="17.6826593">
        <ele>8.30859</ele>
        <time>2013-05-15T15:23:23Z</time>
      </trkpt>
      <trkpt lat="59.8646282" lon="17.6826098">
        <ele>8.78918</ele>
        <time>2013-05-15T15:23:24Z</time>
      </trkpt>
      <trkpt lat="59.8646978" lon="17.6825595">
        <ele>8.78918</ele>
        <time>2013-05-15T15:23:25Z</time>
      </trkpt>
      <trkpt lat="59.8647659" lon="17.6825053">
        <ele>8.30859</ele>
        <time>2013-05-15T15:23:26Z</time>
      </trkpt>
      <trkpt lat="59.8648329" lon="17.682452">
        <ele>8.78918</ele>
        <time>2013-05-15T15:23:27Z</time>
      </trkpt>
      <trkpt lat="59.8648982" lon="17.6824022">
        <ele>8.30859</ele>
        <time>2013-05-15T15:23:28Z</time>
      </trkpt>
      <trkpt lat="59.8649614" lon="17.6823555">
        <ele>8.30859</ele>
        <time>2013-05-15T15:23:29Z</time>
      </trkpt>
      <trkpt lat="59.8650226" lon="17.6823114">
        <ele>8.30859</ele>
        <time>2013-05-15T15:23:30Z</time>
      </trkpt>
      <trkpt lat="59.8650827" lon="17.6822696">
        <ele>8.30859</ele>
        <time>2013-05-15T15:23:31Z</time>
      </trkpt>
      <trkpt lat="59.8651412" lon="17.6822292">
        <ele>8.30859</ele>
        <time>2013-05-15T15:23:32Z</time>
      </trkpt>
      <trkpt lat="59.8651939" lon="17.682191">
        <ele>8.30859</ele>
        <time>2013-05-15T15:23:33Z</time>
      </trkpt>
      <trkpt lat="59.8652399" lon="17.6821596">
        <ele>8.30859</ele>
        <time>2013-05-15T15:23:34Z</time>
      </trkpt>
      <trkpt lat="59.86528" lon="17.6821355">
        <ele>8.78918</ele>
        <time>2013-05-15T15:23:35Z</time>
      </trkpt>
      <trkpt lat="59.865312" lon="17.6821173">
        <ele>8.30859</ele>
        <time>2013-05-15T15:23:36Z</time>
      </trkpt>
      <trkpt lat="59.865336" lon="17.6821028">
        <ele>7.82788</ele>
        <time>2013-05-15T15:23:37Z</time>
      </trkpt>
      <trkpt lat="59.8653557" lon="17.6820904">
        <ele>7.82788</ele>
        <time>2013-05-15T15:23:38Z</time>
      </trkpt>
      <trkpt lat="59.8653717" lon="17.6820795">
        <ele>7.34717</ele>
        <time>2013-05-15T15:23:39Z</time>
      </trkpt>
      <trkpt lat="59.8653893" lon="17.6820671">
        <ele>6.86646</ele>
        <time>2013-05-15T15:23:40Z</time>
      </trkpt>
      <trkpt lat="59.8654107" lon="17.6820535">
        <ele>6.86646</ele>
        <time>2013-05-15T15:23:41Z</time>
      </trkpt>
      <trkpt lat="59.8654322" lon="17.6820391">
        <ele>6.86646</ele>
        <time>2013-05-15T15:23:42Z</time>
      </trkpt>
      <trkpt lat="59.8654524" lon="17.6820268">
        <ele>6.38586</ele>
        <time>2013-05-15T15:23:43Z</time>
      </trkpt>
      <trkpt lat="59.8654747" lon="17.6820111">
        <ele>6.38586</ele>
        <time>2013-05-15T15:23:44Z</time>
      </trkpt>
      <trkpt lat="59.8655032" lon="17.6819878">
        <ele>6.38586</ele>
        <time>2013-05-15T15:23:45Z</time>
      </trkpt>
      <trkpt lat="59.8655395" lon="17.6819607">
        <ele>6.38586</ele>
        <time>2013-05-15T15:23:46Z</time>
      </trkpt>
      <trkpt lat="59.8655815" lon="17.6819329">
        <ele>6.38586</ele>
        <time>2013-05-15T15:23:47Z</time>
      </trkpt>
      <trkpt lat="59.8656286" lon="17.6819027">
        <ele>6.38586</ele>
        <time>2013-05-15T15:23:48Z</time>
      </trkpt>
      <trkpt lat="59.8656813" lon="17.6818686">
        <ele>6.38586</ele>
        <time>2013-05-15T15:23:49Z</time>
      </trkpt>
      <trkpt lat="59.8657405" lon="17.6818309">
        <ele>6.86646</ele>
        <time>2013-05-15T15:23:50Z</time>
      </trkpt>
      <trkpt lat="59.8658051" lon="17.6817887">
        <ele>6.86646</ele>
        <time>2013-05-15T15:23:51Z</time>
      </trkpt>
      <trkpt lat="59.8658753" lon="17.6817414">
        <ele>6.86646</ele>
        <time>2013-05-15T15:23:52Z</time>
      </trkpt>
      <trkpt lat="59.8659498" lon="17.6816914">
        <ele>6.86646</ele>
        <time>2013-05-15T15:23:53Z</time>
      </trkpt>
      <trkpt lat="59.8660289" lon="17.6816421">
        <ele>6.86646</ele>
        <time>2013-05-15T15:23:54Z</time>
      </trkpt>
      <trkpt lat="59.8661114" lon="17.6815962">
        <ele>6.86646</ele>
        <time>2013-05-15T15:23:55Z</time>
      </trkpt>
      <trkpt lat="59.8661938" lon="17.6815528">
        <ele>6.86646</ele>
        <time>2013-05-15T15:23:56Z</time>
      </trkpt>
      <trkpt lat="59.8662762" lon="17.681505">
        <ele>6.86646</ele>
        <time>2013-05-15T15:23:57Z</time>
      </trkpt>
      <trkpt lat="59.8663591" lon="17.6814577">
        <ele>6.86646</ele>
        <time>2013-05-15T15:23:58Z</time>
      </trkpt>
      <trkpt lat="59.866444" lon="17.6814175">
        <ele>6.86646</ele>
        <time>2013-05-15T15:23:59Z</time>
      </trkpt>
      <trkpt lat="59.86653" lon="17.6813787">
        <ele>6.86646</ele>
        <time>2013-05-15T15:24:00Z</time>
      </trkpt>
      <trkpt lat="59.8666161" lon="17.6813373">
        <ele>6.86646</ele>
        <time>2013-05-15T15:24:01Z</time>
      </trkpt>
      <trkpt lat="59.8667014" lon="17.6812993">
        <ele>6.86646</ele>
        <time>2013-05-15T15:24:02Z</time>
      </trkpt>
      <trkpt lat="59.8667883" lon="17.68126">
        <ele>6.86646</ele>
        <time>2013-05-15T15:24:03Z</time>
      </trkpt>
      <trkpt lat="59.866875" lon="17.6812181">
        <ele>7.34717</ele>
        <time>2013-05-15T15:24:04Z</time>
      </trkpt>
      <trkpt lat="59.866962" lon="17.6811782">
        <ele>7.34717</ele>
        <time>2013-05-15T15:24:05Z</time>
      </trkpt>
      <trkpt lat="59.8670494" lon="17.6811387">
        <ele>7.82788</ele>
        <time>2013-05-15T15:24:06Z</time>
      </trkpt>
      <trkpt lat="59.8671366" lon="17.6810989">
        <ele>7.82788</ele>
        <time>2013-05-15T15:24:07Z</time>
      </trkpt>
      <trkpt lat="59.8672234" lon="17.6810614">
        <ele>7.82788</ele>
        <time>2013-05-15T15:24:08Z</time>
      </trkpt>
      <trkpt lat="59.8673106" lon="17.6810222">
        <ele>7.82788</ele>
        <time>2013-05-15T15:24:09Z</time>
      </trkpt>
      <trkpt lat="59.8673976" lon="17.6809809">
        <ele>8.30859</ele>
        <time>2013-05-15T15:24:10Z</time>
      </trkpt>
      <trkpt lat="59.8674842" lon="17.6809398">
        <ele>8.30859</ele>
        <time>2013-05-15T15:24:11Z</time>
      </trkpt>
      <trkpt lat="59.8675708" lon="17.6808996">
        <ele>8.78918</ele>
        <time>2013-05-15T15:24:12Z</time>
      </trkpt>
      <trkpt lat="59.8676575" lon="17.6808617">
        <ele>8.78918</ele>
        <time>2013-05-15T15:24:13Z</time>
      </trkpt>
      <trkpt lat="59.8677437" lon="17.6808249">
        <ele>8.78918</ele>
        <time>2013-05-15T15:24:14Z</time>
      </trkpt>
      <trkpt lat="59.8678312" lon="17.6807855">
        <ele>8.78918</ele>
        <time>2013-05-15T15:24:15Z</time>
      </trkpt>
      <trkpt lat="59.8679181" lon="17.6807445">
        <ele>8.78918</ele>
        <time>2013-05-15T15:24:16Z</time>
      </trkpt>
      <trkpt lat="59.8680053" lon="17.6807056">
        <ele>9.2699</ele>
        <time>2013-05-15T15:24:17Z</time>
      </trkpt>
      <trkpt lat="59.8680919" lon="17.6806669">
        <ele>9.2699</ele>
        <time>2013-05-15T15:24:18Z</time>
      </trkpt>
      <trkpt lat="59.8681781" lon="17.6806265">
        <ele>9.75061</ele>
        <time>2013-05-15T15:24:19Z</time>
      </trkpt>
      <trkpt lat="59.8682641" lon="17.6805851">
        <ele>9.75061</ele>
        <time>2013-05-15T15:24:20Z</time>
      </trkpt>
      <trkpt lat="59.8683513" lon="17.6805468">
        <ele>9.75061</ele>
        <time>2013-05-15T15:24:21Z</time>
      </trkpt>
      <trkpt lat="59.8684398" lon="17.6805094">
        <ele>9.75061</ele>
        <time>2013-05-15T15:24:22Z</time>
      </trkpt>
      <trkpt lat="59.8685293" lon="17.6804702">
        <ele>10.2312</ele>
        <time>2013-05-15T15:24:23Z</time>
      </trkpt>
      <trkpt lat="59.8686186" lon="17.6804297">
        <ele>10.2312</ele>
        <time>2013-05-15T15:24:24Z</time>
      </trkpt>
      <trkpt lat="59.8687073" lon="17.6803898">
        <ele>10.2312</ele>
        <time>2013-05-15T15:24:25Z</time>
      </trkpt>
      <trkpt lat="59.868795" lon="17.6803474">
        <ele>10.7118</ele>
        <time>2013-05-15T15:24:26Z</time>
      </trkpt>
      <trkpt lat="59.8688823" lon="17.6803063">
        <ele>10.7118</ele>
        <time>2013-05-15T15:24:27Z</time>
      </trkpt>
      <trkpt lat="59.8689698" lon="17.6802691">
        <ele>10.7118</ele>
        <time>2013-05-15T15:24:28Z</time>
      </trkpt>
      <trkpt lat="59.8690563" lon="17.6802312">
        <ele>10.7118</ele>
        <time>2013-05-15T15:24:29Z</time>
      </trkpt>
      <trkpt lat="59.8691421" lon="17.6801913">
        <ele>11.1925</ele>
        <time>2013-05-15T15:24:30Z</time>
      </trkpt>
      <trkpt lat="59.8692276" lon="17.6801516">
        <ele>11.1925</ele>
        <time>2013-05-15T15:24:31Z</time>
      </trkpt>
      <trkpt lat="59.8693127" lon="17.6801127">
        <ele>11.1925</ele>
        <time>2013-05-15T15:24:32Z</time>
      </trkpt>
      <trkpt lat="59.8693972" lon="17.680073">
        <ele>11.6732</ele>
        <time>2013-05-15T15:24:33Z</time>
      </trkpt>
      <trkpt lat="59.8694815" lon="17.6800344">
        <ele>11.6732</ele>
        <time>2013-05-15T15:24:34Z</time>
      </trkpt>
      <trkpt lat="59.8695656" lon="17.6799969">
        <ele>11.6732</ele>
        <time>2013-05-15T15:24:35Z</time>
      </trkpt>
      <trkpt lat="59.8696497" lon="17.6799572">
        <ele>11.6732</ele>
        <time>2013-05-15T15:24:36Z</time>
      </trkpt>
      <trkpt lat="59.8697338" lon="17.6799178">
        <ele>11.6732</ele>
        <time>2013-05-15T15:24:37Z</time>
      </trkpt>
      <trkpt lat="59.8698178" lon="17.6798799">
        <ele>11.6732</ele>
        <time>2013-05-15T15:24:38Z</time>
      </trkpt>
      <trkpt lat="59.8699017" lon="17.6798423">
        <ele>12.1538</ele>
        <time>2013-05-15T15:24:39Z</time>
      </trkpt>
      <trkpt lat="59.8699861" lon="17.6798055">
        <ele>12.1538</ele>
        <time>2013-05-15T15:24:40Z</time>
      </trkpt>
      <trkpt lat="59.8700709" lon="17.679771">
        <ele>12.1538</ele>
        <time>2013-05-15T15:24:41Z</time>
      </trkpt>
      <trkpt lat="59.870156" lon="17.6797384">
        <ele>12.6344</ele>
        <time>2013-05-15T15:24:42Z</time>
      </trkpt>
      <trkpt lat="59.8702413" lon="17.679707">
        <ele>12.6344</ele>
        <time>2013-05-15T15:24:43Z</time>
      </trkpt>
      <trkpt lat="59.8703265" lon="17.6796775">
        <ele>13.1151</ele>
        <time>2013-05-15T15:24:44Z</time>
      </trkpt>
      <trkpt lat="59.8704121" lon="17.6796496">
        <ele>13.1151</ele>
        <time>2013-05-15T15:24:45Z</time>
      </trkpt>
      <trkpt lat="59.8704969" lon="17.6796219">
        <ele>13.1151</ele>
        <time>2013-05-15T15:24:46Z</time>
      </trkpt>
      <trkpt lat="59.8705749" lon="17.679597">
        <ele>13.1151</ele>
        <time>2013-05-15T15:24:47Z</time>
      </trkpt>
      <trkpt lat="59.8706419" lon="17.6795786">
        <ele>13.1151</ele>
        <time>2013-05-15T15:24:48Z</time>
      </trkpt>
      <trkpt lat="59.8706998" lon="17.6795631">
        <ele>13.5958</ele>
        <time>2013-05-15T15:24:49Z</time>
      </trkpt>
      <trkpt lat="59.8707547" lon="17.6795474">
        <ele>13.5958</ele>
        <time>2013-05-15T15:24:50Z</time>
      </trkpt>
      <trkpt lat="59.8708096" lon="17.6795341">
        <ele>13.5958</ele>
        <time>2013-05-15T15:24:51Z</time>
      </trkpt>
      <trkpt lat="59.8708661" lon="17.67952">
        <ele>13.5958</ele>
        <time>2013-05-15T15:24:52Z</time>
      </trkpt>
      <trkpt lat="59.8709247" lon="17.6795025">
        <ele>14.0764</ele>
        <time>2013-05-15T15:24:53Z</time>
      </trkpt>
      <trkpt lat="59.8709859" lon="17.6794851">
        <ele>14.0764</ele>
        <time>2013-05-15T15:24:54Z</time>
      </trkpt>
      <trkpt lat="59.8710499" lon="17.679468">
        <ele>14.0764</ele>
        <time>2013-05-15T15:24:55Z</time>
      </trkpt>
      <trkpt lat="59.871117" lon="17.6794488">
        <ele>14.0764</ele>
        <time>2013-05-15T15:24:56Z</time>
      </trkpt>
      <trkpt lat="59.8711863" lon="17.6794273">
        <ele>14.0764</ele>
        <time>2013-05-15T15:24:57Z</time>
      </trkpt>
      <trkpt lat="59.8712574" lon="17.6794075">
        <ele>14.0764</ele>
        <time>2013-05-15T15:24:58Z</time>
      </trkpt>
      <trkpt lat="59.8713287" lon="17.6793874">
        <ele>14.557</ele>
        <time>2013-05-15T15:24:59Z</time>
      </trkpt>
      <trkpt lat="59.8714002" lon="17.6793673">
        <ele>14.557</ele>
        <time>2013-05-15T15:25:00Z</time>
      </trkpt>
      <trkpt lat="59.8714724" lon="17.6793478">
        <ele>14.557</ele>
        <time>2013-05-15T15:25:01Z</time>
      </trkpt>
      <trkpt lat="59.8715459" lon="17.6793273">
        <ele>14.557</ele>
        <time>2013-05-15T15:25:02Z</time>
      </trkpt>
      <trkpt lat="59.8716209" lon="17.6793056">
        <ele>14.557</ele>
        <time>2013-05-15T15:25:03Z</time>
      </trkpt>
      <trkpt lat="59.8716971" lon="17.6792838">
        <ele>15.0377</ele>
        <time>2013-05-15T15:25:04Z</time>
      </trkpt>
      <trkpt lat="59.8717741" lon="17.6792618">
        <ele>15.0377</ele>
        <time>2013-05-15T15:25:05Z</time>
      </trkpt>
      <trkpt lat="59.8718519" lon="17.6792394">
        <ele>15.0377</ele>
        <time>2013-05-15T15:25:06Z</time>
      </trkpt>
      <trkpt lat="59.8719313" lon="17.679217">
        <ele>15.0377</ele>
        <time>2013-05-15T15:25:07Z</time>
      </trkpt>
      <trkpt lat="59.8720124" lon="17.6791937">
        <ele>15.0377</ele>
        <time>2013-05-15T15:25:08Z</time>
      </trkpt>
      <trkpt lat="59.8720955" lon="17.6791698">
        <ele>15.5184</ele>
        <time>2013-05-15T15:25:09Z</time>
      </trkpt>
      <trkpt lat="59.872181" lon="17.6791463">
        <ele>15.5184</ele>
        <time>2013-05-15T15:25:10Z</time>
      </trkpt>
      <trkpt lat="59.8722669" lon="17.6791227">
        <ele>15.5184</ele>
        <time>2013-05-15T15:25:11Z</time>
      </trkpt>
      <trkpt lat="59.872353" lon="17.6790989">
        <ele>15.5184</ele>
        <time>2013-05-15T15:25:12Z</time>
      </trkpt>
      <trkpt lat="59.87244" lon="17.6790745">
        <ele>15.5184</ele>
        <time>2013-05-15T15:25:13Z</time>
      </trkpt>
      <trkpt lat="59.8725269" lon="17.6790481">
        <ele>15.999</ele>
        <time>2013-05-15T15:25:14Z</time>
      </trkpt>
      <trkpt lat="59.8726133" lon="17.6790215">
        <ele>15.999</ele>
        <time>2013-05-15T15:25:15Z</time>
      </trkpt>
      <trkpt lat="59.8726995" lon="17.6789946">
        <ele>15.999</ele>
        <time>2013-05-15T15:25:16Z</time>
      </trkpt>
      <trkpt lat="59.8727855" lon="17.6789682">
        <ele>15.999</ele>
        <time>2013-05-15T15:25:17Z</time>
      </trkpt>
      <trkpt lat="59.8728713" lon="17.6789448">
        <ele>15.999</ele>
        <time>2013-05-15T15:25:18Z</time>
      </trkpt>
      <trkpt lat="59.8729567" lon="17.6789227">
        <ele>15.999</ele>
        <time>2013-05-15T15:25:19Z</time>
      </trkpt>
      <trkpt lat="59.8730418" lon="17.6789009">
        <ele>16.4797</ele>
        <time>2013-05-15T15:25:20Z</time>
      </trkpt>
      <trkpt lat="59.8731264" lon="17.6788795">
        <ele>16.4797</ele>
        <time>2013-05-15T15:25:21Z</time>
      </trkpt>
      <trkpt lat="59.8732108" lon="17.6788569">
        <ele>16.4797</ele>
        <time>2013-05-15T15:25:22Z</time>
      </trkpt>
      <trkpt lat="59.8732948" lon="17.6788331">
        <ele>16.4797</ele>
        <time>2013-05-15T15:25:23Z</time>
      </trkpt>
      <trkpt lat="59.8733791" lon="17.6788099">
        <ele>16.4797</ele>
        <time>2013-05-15T15:25:24Z</time>
      </trkpt>
      <trkpt lat="59.8734635" lon="17.6787885">
        <ele>16.4797</ele>
        <time>2013-05-15T15:25:25Z</time>
      </trkpt>
      <trkpt lat="59.8735481" lon="17.6787683">
        <ele>16.9604</ele>
        <time>2013-05-15T15:25:26Z</time>
      </trkpt>
      <trkpt lat="59.873633" lon="17.678749">
        <ele>16.9604</ele>
        <time>2013-05-15T15:25:27Z</time>
      </trkpt>
      <trkpt lat="59.8737183" lon="17.6787307">
        <ele>16.9604</ele>
        <time>2013-05-15T15:25:28Z</time>
      </trkpt>
      <trkpt lat="59.8738034" lon="17.6787135">
        <ele>16.9604</ele>
        <time>2013-05-15T15:25:29Z</time>
      </trkpt>
      <trkpt lat="59.8738887" lon="17.678698">
        <ele>16.9604</ele>
        <time>2013-05-15T15:25:30Z</time>
      </trkpt>
      <trkpt lat="59.8739742" lon="17.678684">
        <ele>16.9604</ele>
        <time>2013-05-15T15:25:31Z</time>
      </trkpt>
      <trkpt lat="59.8740598" lon="17.6786701">
        <ele>17.4412</ele>
        <time>2013-05-15T15:25:32Z</time>
      </trkpt>
      <trkpt lat="59.8741448" lon="17.6786575">
        <ele>17.4412</ele>
        <time>2013-05-15T15:25:33Z</time>
      </trkpt>
      <trkpt lat="59.8742295" lon="17.678647">
        <ele>17.4412</ele>
        <time>2013-05-15T15:25:34Z</time>
      </trkpt>
      <trkpt lat="59.8743139" lon="17.6786389">
        <ele>17.9218</ele>
        <time>2013-05-15T15:25:35Z</time>
      </trkpt>
      <trkpt lat="59.8743978" lon="17.6786319">
        <ele>17.9218</ele>
        <time>2013-05-15T15:25:36Z</time>
      </trkpt>
      <trkpt lat="59.8744812" lon="17.6786249">
        <ele>17.9218</ele>
        <time>2013-05-15T15:25:37Z</time>
      </trkpt>
      <trkpt lat="59.8745638" lon="17.6786191">
        <ele>18.4023</ele>
        <time>2013-05-15T15:25:38Z</time>
      </trkpt>
      <trkpt lat="59.8746459" lon="17.678616">
        <ele>18.4023</ele>
        <time>2013-05-15T15:25:39Z</time>
      </trkpt>
      <trkpt lat="59.8747275" lon="17.6786151">
        <ele>18.4023</ele>
        <time>2013-05-15T15:25:40Z</time>
      </trkpt>
      <trkpt lat="59.8748087" lon="17.6786143">
        <ele>18.8831</ele>
        <time>2013-05-15T15:25:41Z</time>
      </trkpt>
      <trkpt lat="59.8748896" lon="17.678613">
        <ele>18.8831</ele>
        <time>2013-05-15T15:25:42Z</time>
      </trkpt>
      <trkpt lat="59.87497" lon="17.6786107">
        <ele>18.8831</ele>
        <time>2013-05-15T15:25:43Z</time>
      </trkpt>
      <trkpt lat="59.8750502" lon="17.6786097">
        <ele>19.3638</ele>
        <time>2013-05-15T15:25:44Z</time>
      </trkpt>
      <trkpt lat="59.87513" lon="17.6786098">
        <ele>19.3638</ele>
        <time>2013-05-15T15:25:45Z</time>
      </trkpt>
      <trkpt lat="59.8752083" lon="17.678605">
        <ele>19.3638</ele>
        <time>2013-05-15T15:25:46Z</time>
      </trkpt>
      <trkpt lat="59.8752848" lon="17.678595">
        <ele>19.3638</ele>
        <time>2013-05-15T15:25:47Z</time>
      </trkpt>
      <trkpt lat="59.8753595" lon="17.678585">
        <ele>19.8444</ele>
        <time>2013-05-15T15:25:48Z</time>
      </trkpt>
      <trkpt lat="59.8754331" lon="17.6785736">
        <ele>19.8444</ele>
        <time>2013-05-15T15:25:49Z</time>
      </trkpt>
      <trkpt lat="59.875505" lon="17.6785555">
        <ele>19.8444</ele>
        <time>2013-05-15T15:25:50Z</time>
      </trkpt>
      <trkpt lat="59.8755755" lon="17.6785346">
        <ele>19.8444</ele>
        <time>2013-05-15T15:25:51Z</time>
      </trkpt>
      <trkpt lat="59.875645" lon="17.6785139">
        <ele>20.325</ele>
        <time>2013-05-15T15:25:52Z</time>
      </trkpt>
      <trkpt lat="59.8757144" lon="17.6784917">
        <ele>20.325</ele>
        <time>2013-05-15T15:25:53Z</time>
      </trkpt>
      <trkpt lat="59.8757837" lon="17.6784674">
        <ele>20.325</ele>
        <time>2013-05-15T15:25:54Z</time>
      </trkpt>
      <trkpt lat="59.8758521" lon="17.6784408">
        <ele>20.8057</ele>
        <time>2013-05-15T15:25:55Z</time>
      </trkpt>
      <trkpt lat="59.8759189" lon="17.6784119">
        <ele>20.8057</ele>
        <time>2013-05-15T15:25:56Z</time>
      </trkpt>
      <trkpt lat="59.8759836" lon="17.6783818">
        <ele>21.2864</ele>
        <time>2013-05-15T15:25:57Z</time>
      </trkpt>
      <trkpt lat="59.8760436" lon="17.6783548">
        <ele>21.2864</ele>
        <time>2013-05-15T15:25:58Z</time>
      </trkpt>
      <trkpt lat="59.8761026" lon="17.6783394">
        <ele>21.2864</ele>
        <time>2013-05-15T15:25:59Z</time>
      </trkpt>
      <trkpt lat="59.8761625" lon="17.6783441">
        <ele>21.767</ele>
        <time>2013-05-15T15:26:00Z</time>
      </trkpt>
      <trkpt lat="59.8762204" lon="17.6783727">
        <ele>21.767</ele>
        <time>2013-05-15T15:26:01Z</time>
      </trkpt>
      <trkpt lat="59.8762772" lon="17.6784155">
        <ele>22.2476</ele>
        <time>2013-05-15T15:26:02Z</time>
      </trkpt>
      <trkpt lat="59.8763355" lon="17.678456">
        <ele>22.2476</ele>
        <time>2013-05-15T15:26:03Z</time>
      </trkpt>
      <trkpt lat="59.8763964" lon="17.6784817">
        <ele>22.2476</ele>
        <time>2013-05-15T15:26:04Z</time>
      </trkpt>
      <trkpt lat="59.8764593" lon="17.678483">
        <ele>22.2476</ele>
        <time>2013-05-15T15:26:05Z</time>
      </trkpt>
      <trkpt lat="59.8765215" lon="17.6784539">
        <ele>22.7283</ele>
        <time>2013-05-15T15:26:06Z</time>
      </trkpt>
      <trkpt lat="59.8765782" lon="17.6783933">
        <ele>22.7283</ele>
        <time>2013-05-15T15:26:07Z</time>
      </trkpt>
      <trkpt lat="59.8766276" lon="17.6783064">
        <ele>22.7283</ele>
        <time>2013-05-15T15:26:08Z</time>
      </trkpt>
      <trkpt lat="59.87667" lon="17.6782004">
        <ele>22.7283</ele>
        <time>2013-05-15T15:26:09Z</time>
      </trkpt>
      <trkpt lat="59.8767094" lon="17.6780856">
        <ele>22.7283</ele>
        <time>2013-05-15T15:26:10Z</time>
      </trkpt>
      <trkpt lat="59.8767537" lon="17.6779727">
        <ele>22.2476</ele>
        <time>2013-05-15T15:26:11Z</time>
      </trkpt>
      <trkpt lat="59.8768069" lon="17.6778707">
        <ele>22.2476</ele>
        <time>2013-05-15T15:26:12Z</time>
      </trkpt>
      <trkpt lat="59.8768699" lon="17.6777843">
        <ele>22.2476</ele>
        <time>2013-05-15T15:26:13Z</time>
      </trkpt>
      <trkpt lat="59.8769399" lon="17.6777116">
        <ele>22.2476</ele>
        <time>2013-05-15T15:26:14Z</time>
      </trkpt>
      <trkpt lat="59.8770141" lon="17.6776464">
        <ele>21.767</ele>
        <time>2013-05-15T15:26:15Z</time>
      </trkpt>
      <trkpt lat="59.8770912" lon="17.6775821">
        <ele>22.2476</ele>
        <time>2013-05-15T15:26:16Z</time>
      </trkpt>
      <trkpt lat="59.8771695" lon="17.6775195">
        <ele>22.2476</ele>
        <time>2013-05-15T15:26:17Z</time>
      </trkpt>
      <trkpt lat="59.877249" lon="17.6774599">
        <ele>22.2476</ele>
        <time>2013-05-15T15:26:18Z</time>
      </trkpt>
      <trkpt lat="59.8773277" lon="17.6774023">
        <ele>22.2476</ele>
        <time>2013-05-15T15:26:19Z</time>
      </trkpt>
      <trkpt lat="59.877405" lon="17.677344">
        <ele>22.2476</ele>
        <time>2013-05-15T15:26:20Z</time>
      </trkpt>
      <trkpt lat="59.8774833" lon="17.6772843">
        <ele>22.2476</ele>
        <time>2013-05-15T15:26:21Z</time>
      </trkpt>
      <trkpt lat="59.8775616" lon="17.677224">
        <ele>22.7283</ele>
        <time>2013-05-15T15:26:22Z</time>
      </trkpt>
      <trkpt lat="59.8776408" lon="17.6771584">
        <ele>22.7283</ele>
        <time>2013-05-15T15:26:23Z</time>
      </trkpt>
      <trkpt lat="59.877721" lon="17.677089">
        <ele>22.7283</ele>
        <time>2013-05-15T15:26:24Z</time>
      </trkpt>
      <trkpt lat="59.8778004" lon="17.6770169">
        <ele>22.7283</ele>
        <time>2013-05-15T15:26:25Z</time>
      </trkpt>
      <trkpt lat="59.877881" lon="17.6769428">
        <ele>22.7283</ele>
        <time>2013-05-15T15:26:26Z</time>
      </trkpt>
      <trkpt lat="59.877963" lon="17.6768694">
        <ele>22.7283</ele>
        <time>2013-05-15T15:26:27Z</time>
      </trkpt>
      <trkpt lat="59.8780452" lon="17.6767932">
        <ele>22.7283</ele>
        <time>2013-05-15T15:26:28Z</time>
      </trkpt>
      <trkpt lat="59.8781263" lon="17.6767154">
        <ele>22.7283</ele>
        <time>2013-05-15T15:26:29Z</time>
      </trkpt>
      <trkpt lat="59.878206" lon="17.6766353">
        <ele>22.7283</ele>
        <time>2013-05-15T15:26:30Z</time>
      </trkpt>
      <trkpt lat="59.8782821" lon="17.6765454">
        <ele>22.7283</ele>
        <time>2013-05-15T15:26:31Z</time>
      </trkpt>
      <trkpt lat="59.8783582" lon="17.6764569">
        <ele>22.7283</ele>
        <time>2013-05-15T15:26:32Z</time>
      </trkpt>
      <trkpt lat="59.8784367" lon="17.6763717">
        <ele>22.7283</ele>
        <time>2013-05-15T15:26:33Z</time>
      </trkpt>
      <trkpt lat="59.8785153" lon="17.6762866">
        <ele>22.2476</ele>
        <time>2013-05-15T15:26:34Z</time>
      </trkpt>
      <trkpt lat="59.8785934" lon="17.6762023">
        <ele>22.2476</ele>
        <time>2013-05-15T15:26:35Z</time>
      </trkpt>
      <trkpt lat="59.8786706" lon="17.6761192">
        <ele>22.2476</ele>
        <time>2013-05-15T15:26:36Z</time>
      </trkpt>
      <trkpt lat="59.8787474" lon="17.676038">
        <ele>22.2476</ele>
        <time>2013-05-15T15:26:37Z</time>
      </trkpt>
      <trkpt lat="59.8788242" lon="17.6759577">
        <ele>22.2476</ele>
        <time>2013-05-15T15:26:38Z</time>
      </trkpt>
      <trkpt lat="59.878901" lon="17.6758787">
        <ele>21.767</ele>
        <time>2013-05-15T15:26:39Z</time>
      </trkpt>
      <trkpt lat="59.8789788" lon="17.6758132">
        <ele>21.767</ele>
        <time>2013-05-15T15:26:40Z</time>
      </trkpt>
      <trkpt lat="59.8790578" lon="17.6757519">
        <ele>21.767</ele>
        <time>2013-05-15T15:26:41Z</time>
      </trkpt>
      <trkpt lat="59.8791332" lon="17.6756805">
        <ele>21.2864</ele>
        <time>2013-05-15T15:26:42Z</time>
      </trkpt>
      <trkpt lat="59.8792009" lon="17.6755872">
        <ele>21.2864</ele>
        <time>2013-05-15T15:26:43Z</time>
      </trkpt>
      <trkpt lat="59.8792619" lon="17.6754707">
        <ele>21.2864</ele>
        <time>2013-05-15T15:26:44Z</time>
      </trkpt>
      <trkpt lat="59.8793228" lon="17.6753446">
        <ele>20.8057</ele>
        <time>2013-05-15T15:26:45Z</time>
      </trkpt>
      <trkpt lat="59.87939" lon="17.6752271">
        <ele>20.8057</ele>
        <time>2013-05-15T15:26:46Z</time>
      </trkpt>
      <trkpt lat="59.8794627" lon="17.6751222">
        <ele>20.8057</ele>
        <time>2013-05-15T15:26:47Z</time>
      </trkpt>
      <trkpt lat="59.8795388" lon="17.6750278">
        <ele>20.8057</ele>
        <time>2013-05-15T15:26:48Z</time>
      </trkpt>
      <trkpt lat="59.8796173" lon="17.6749408">
        <ele>20.8057</ele>
        <time>2013-05-15T15:26:49Z</time>
      </trkpt>
      <trkpt lat="59.8796976" lon="17.6748583">
        <ele>20.8057</ele>
        <time>2013-05-15T15:26:50Z</time>
      </trkpt>
      <trkpt lat="59.8797789" lon="17.6747769">
        <ele>20.8057</ele>
        <time>2013-05-15T15:26:51Z</time>
      </trkpt>
      <trkpt lat="59.87986" lon="17.6746941">
        <ele>20.8057</ele>
        <time>2013-05-15T15:26:52Z</time>
      </trkpt>
      <trkpt lat="59.8799413" lon="17.6746093">
        <ele>20.8057</ele>
        <time>2013-05-15T15:26:53Z</time>
      </trkpt>
      <trkpt lat="59.8800235" lon="17.6745233">
        <ele>20.8057</ele>
        <time>2013-05-15T15:26:54Z</time>
      </trkpt>
      <trkpt lat="59.880107" lon="17.6744378">
        <ele>20.325</ele>
        <time>2013-05-15T15:26:55Z</time>
      </trkpt>
      <trkpt lat="59.8801916" lon="17.6743532">
        <ele>20.325</ele>
        <time>2013-05-15T15:26:56Z</time>
      </trkpt>
      <trkpt lat="59.8802774" lon="17.6742695">
        <ele>20.325</ele>
        <time>2013-05-15T15:26:57Z</time>
      </trkpt>
      <trkpt lat="59.8803643" lon="17.6741845">
        <ele>20.325</ele>
        <time>2013-05-15T15:26:58Z</time>
      </trkpt>
      <trkpt lat="59.8804514" lon="17.6740976">
        <ele>20.325</ele>
        <time>2013-05-15T15:26:59Z</time>
      </trkpt>
      <trkpt lat="59.8805396" lon="17.674012">
        <ele>20.325</ele>
        <time>2013-05-15T15:27:00Z</time>
      </trkpt>
      <trkpt lat="59.8806287" lon="17.6739281">
        <ele>20.325</ele>
        <time>2013-05-15T15:27:01Z</time>
      </trkpt>
      <trkpt lat="59.8807193" lon="17.673844">
        <ele>20.325</ele>
        <time>2013-05-15T15:27:02Z</time>
      </trkpt>
      <trkpt lat="59.8808109" lon="17.6737597">
        <ele>19.8444</ele>
        <time>2013-05-15T15:27:03Z</time>
      </trkpt>
      <trkpt lat="59.8809032" lon="17.6736752">
        <ele>19.8444</ele>
        <time>2013-05-15T15:27:04Z</time>
      </trkpt>
      <trkpt lat="59.8809962" lon="17.6735902">
        <ele>19.8444</ele>
        <time>2013-05-15T15:27:05Z</time>
      </trkpt>
      <trkpt lat="59.8810888" lon="17.6735071">
        <ele>19.8444</ele>
        <time>2013-05-15T15:27:06Z</time>
      </trkpt>
      <trkpt lat="59.8811817" lon="17.673429">
        <ele>19.8444</ele>
        <time>2013-05-15T15:27:07Z</time>
      </trkpt>
      <trkpt lat="59.8812736" lon="17.6733537">
        <ele>19.8444</ele>
        <time>2013-05-15T15:27:08Z</time>
      </trkpt>
      <trkpt lat="59.8813641" lon="17.6732786">
        <ele>19.8444</ele>
        <time>2013-05-15T15:27:09Z</time>
      </trkpt>
      <trkpt lat="59.8814533" lon="17.6732034">
        <ele>19.8444</ele>
        <time>2013-05-15T15:27:10Z</time>
      </trkpt>
      <trkpt lat="59.8815425" lon="17.6731298">
        <ele>19.8444</ele>
        <time>2013-05-15T15:27:11Z</time>
      </trkpt>
      <trkpt lat="59.8816316" lon="17.6730563">
        <ele>19.3638</ele>
        <time>2013-05-15T15:27:12Z</time>
      </trkpt>
      <trkpt lat="59.8817202" lon="17.672982">
        <ele>19.3638</ele>
        <time>2013-05-15T15:27:13Z</time>
      </trkpt>
      <trkpt lat="59.8818083" lon="17.6729087">
        <ele>19.3638</ele>
        <time>2013-05-15T15:27:14Z</time>
      </trkpt>
      <trkpt lat="59.8818962" lon="17.6728356">
        <ele>19.3638</ele>
        <time>2013-05-15T15:27:15Z</time>
      </trkpt>
      <trkpt lat="59.8819833" lon="17.6727614">
        <ele>19.3638</ele>
        <time>2013-05-15T15:27:16Z</time>
      </trkpt>
      <trkpt lat="59.8820708" lon="17.672688">
        <ele>19.3638</ele>
        <time>2013-05-15T15:27:17Z</time>
      </trkpt>
      <trkpt lat="59.8821588" lon="17.6726144">
        <ele>19.3638</ele>
        <time>2013-05-15T15:27:18Z</time>
      </trkpt>
      <trkpt lat="59.8822464" lon="17.6725403">
        <ele>19.3638</ele>
        <time>2013-05-15T15:27:19Z</time>
      </trkpt>
      <trkpt lat="59.8823338" lon="17.6724672">
        <ele>19.3638</ele>
        <time>2013-05-15T15:27:20Z</time>
      </trkpt>
      <trkpt lat="59.8824208" lon="17.6723942">
        <ele>19.3638</ele>
        <time>2013-05-15T15:27:21Z</time>
      </trkpt>
      <trkpt lat="59.8825075" lon="17.6723216">
        <ele>19.3638</ele>
        <time>2013-05-15T15:27:22Z</time>
      </trkpt>
      <trkpt lat="59.8825939" lon="17.6722512">
        <ele>19.3638</ele>
        <time>2013-05-15T15:27:23Z</time>
      </trkpt>
      <trkpt lat="59.8826798" lon="17.6721817">
        <ele>19.3638</ele>
        <time>2013-05-15T15:27:24Z</time>
      </trkpt>
      <trkpt lat="59.882765" lon="17.6721099">
        <ele>18.8831</ele>
        <time>2013-05-15T15:27:25Z</time>
      </trkpt>
      <trkpt lat="59.8828498" lon="17.6720368">
        <ele>18.8831</ele>
        <time>2013-05-15T15:27:26Z</time>
      </trkpt>
      <trkpt lat="59.8829342" lon="17.6719637">
        <ele>18.8831</ele>
        <time>2013-05-15T15:27:27Z</time>
      </trkpt>
      <trkpt lat="59.8830176" lon="17.6718876">
        <ele>18.8831</ele>
        <time>2013-05-15T15:27:28Z</time>
      </trkpt>
      <trkpt lat="59.8830997" lon="17.6718074">
        <ele>18.8831</ele>
        <time>2013-05-15T15:27:29Z</time>
      </trkpt>
      <trkpt lat="59.8831803" lon="17.6717238">
        <ele>18.4023</ele>
        <time>2013-05-15T15:27:30Z</time>
      </trkpt>
      <trkpt lat="59.8832586" lon="17.671638">
        <ele>18.4023</ele>
        <time>2013-05-15T15:27:31Z</time>
      </trkpt>
      <trkpt lat="59.8833348" lon="17.6715538">
        <ele>18.4023</ele>
        <time>2013-05-15T15:27:32Z</time>
      </trkpt>
      <trkpt lat="59.8834098" lon="17.6714707">
        <ele>18.4023</ele>
        <time>2013-05-15T15:27:33Z</time>
      </trkpt>
      <trkpt lat="59.8834829" lon="17.6713856">
        <ele>17.9218</ele>
        <time>2013-05-15T15:27:34Z</time>
      </trkpt>
      <trkpt lat="59.8835566" lon="17.6713013">
        <ele>17.9218</ele>
        <time>2013-05-15T15:27:35Z</time>
      </trkpt>
      <trkpt lat="59.883635" lon="17.6712255">
        <ele>17.9218</ele>
        <time>2013-05-15T15:27:36Z</time>
      </trkpt>
      <trkpt lat="59.8837171" lon="17.6711732">
        <ele>18.4023</ele>
        <time>2013-05-15T15:27:37Z</time>
      </trkpt>
      <trkpt lat="59.8838003" lon="17.6711382">
        <ele>18.4023</ele>
        <time>2013-05-15T15:27:38Z</time>
      </trkpt>
      <trkpt lat="59.8838786" lon="17.6710899">
        <ele>17.9218</ele>
        <time>2013-05-15T15:27:39Z</time>
      </trkpt>
      <trkpt lat="59.8839465" lon="17.671006">
        <ele>18.4023</ele>
        <time>2013-05-15T15:27:40Z</time>
      </trkpt>
      <trkpt lat="59.8840003" lon="17.6708898">
        <ele>18.4023</ele>
        <time>2013-05-15T15:27:41Z</time>
      </trkpt>
      <trkpt lat="59.8840404" lon="17.6707538">
        <ele>17.9218</ele>
        <time>2013-05-15T15:27:42Z</time>
      </trkpt>
      <trkpt lat="59.8840615" lon="17.6705881">
        <ele>17.9218</ele>
        <time>2013-05-15T15:27:43Z</time>
      </trkpt>
      <trkpt lat="59.8840962" lon="17.670437">
        <ele>17.9218</ele>
        <time>2013-05-15T15:27:44Z</time>
      </trkpt>
      <trkpt lat="59.8841304" lon="17.6702969">
        <ele>17.9218</ele>
        <time>2013-05-15T15:27:45Z</time>
      </trkpt>
      <trkpt lat="59.884178" lon="17.6701767">
        <ele>17.9218</ele>
        <time>2013-05-15T15:27:46Z</time>
      </trkpt>
      <trkpt lat="59.8842326" lon="17.6700609">
        <ele>17.9218</ele>
        <time>2013-05-15T15:27:47Z</time>
      </trkpt>
      <trkpt lat="59.8842905" lon="17.669943">
        <ele>17.9218</ele>
        <time>2013-05-15T15:27:48Z</time>
      </trkpt>
      <trkpt lat="59.8843495" lon="17.6698233">
        <ele>17.9218</ele>
        <time>2013-05-15T15:27:49Z</time>
      </trkpt>
      <trkpt lat="59.8844085" lon="17.669698">
        <ele>17.9218</ele>
        <time>2013-05-15T15:27:50Z</time>
      </trkpt>
      <trkpt lat="59.884465" lon="17.6695666">
        <ele>17.9218</ele>
        <time>2013-05-15T15:27:51Z</time>
      </trkpt>
      <trkpt lat="59.8845201" lon="17.6694307">
        <ele>17.9218</ele>
        <time>2013-05-15T15:27:52Z</time>
      </trkpt>
      <trkpt lat="59.8845738" lon="17.6692908">
        <ele>17.9218</ele>
        <time>2013-05-15T15:27:53Z</time>
      </trkpt>
      <trkpt lat="59.8846265" lon="17.6691457">
        <ele>17.9218</ele>
        <time>2013-05-15T15:27:54Z</time>
      </trkpt>
      <trkpt lat="59.8846774" lon="17.6689954">
        <ele>17.9218</ele>
        <time>2013-05-15T15:27:55Z</time>
      </trkpt>
      <trkpt lat="59.8847255" lon="17.6688377">
        <ele>17.9218</ele>
        <time>2013-05-15T15:27:56Z</time>
      </trkpt>
      <trkpt lat="59.8847701" lon="17.6686744">
        <ele>17.9218</ele>
        <time>2013-05-15T15:27:57Z</time>
      </trkpt>
      <trkpt lat="59.8848131" lon="17.6685082">
        <ele>17.9218</ele>
        <time>2013-05-15T15:27:58Z</time>
      </trkpt>
      <trkpt lat="59.8848541" lon="17.6683487">
        <ele>17.9218</ele>
        <time>2013-05-15T15:27:59Z</time>
      </trkpt>
      <trkpt lat="59.8848903" lon="17.6682155">
        <ele>17.9218</ele>
        <time>2013-05-15T15:28:00Z</time>
      </trkpt>
      <trkpt lat="59.8849287" lon="17.6681094">
        <ele>17.9218</ele>
        <time>2013-05-15T15:28:01Z</time>
      </trkpt>
      <trkpt lat="59.8849783" lon="17.6680195">
        <ele>17.9218</ele>
        <time>2013-05-15T15:28:02Z</time>
      </trkpt>
      <trkpt lat="59.8850348" lon="17.6679327">
        <ele>17.9218</ele>
        <time>2013-05-15T15:28:03Z</time>
      </trkpt>
      <trkpt lat="59.8850851" lon="17.6678285">
        <ele>17.4412</ele>
        <time>2013-05-15T15:28:04Z</time>
      </trkpt>
      <trkpt lat="59.885123" lon="17.6676974">
        <ele>17.9218</ele>
        <time>2013-05-15T15:28:05Z</time>
      </trkpt>
      <trkpt lat="59.885141" lon="17.6675504">
        <ele>17.4412</ele>
        <time>2013-05-15T15:28:06Z</time>
      </trkpt>
      <trkpt lat="59.8851414" lon="17.6673977">
        <ele>17.4412</ele>
        <time>2013-05-15T15:28:07Z</time>
      </trkpt>
      <trkpt lat="59.8851307" lon="17.6672473">
        <ele>17.4412</ele>
        <time>2013-05-15T15:28:08Z</time>
      </trkpt>
      <trkpt lat="59.8851229" lon="17.667093">
        <ele>17.4412</ele>
        <time>2013-05-15T15:28:09Z</time>
      </trkpt>
      <trkpt lat="59.885125" lon="17.6669369">
        <ele>16.9604</ele>
        <time>2013-05-15T15:28:10Z</time>
      </trkpt>
      <trkpt lat="59.8851367" lon="17.6667809">
        <ele>16.9604</ele>
        <time>2013-05-15T15:28:11Z</time>
      </trkpt>
      <trkpt lat="59.8851503" lon="17.6666252">
        <ele>16.9604</ele>
        <time>2013-05-15T15:28:12Z</time>
      </trkpt>
      <trkpt lat="59.8851644" lon="17.6664683">
        <ele>16.9604</ele>
        <time>2013-05-15T15:28:13Z</time>
      </trkpt>
      <trkpt lat="59.8851795" lon="17.6663101">
        <ele>16.9604</ele>
        <time>2013-05-15T15:28:14Z</time>
      </trkpt>
      <trkpt lat="59.8851954" lon="17.6661511">
        <ele>16.4797</ele>
        <time>2013-05-15T15:28:15Z</time>
      </trkpt>
      <trkpt lat="59.8852123" lon="17.6659911">
        <ele>16.4797</ele>
        <time>2013-05-15T15:28:16Z</time>
      </trkpt>
      <trkpt lat="59.8852305" lon="17.6658316">
        <ele>16.4797</ele>
        <time>2013-05-15T15:28:17Z</time>
      </trkpt>
      <trkpt lat="59.8852517" lon="17.6656742">
        <ele>16.4797</ele>
        <time>2013-05-15T15:28:18Z</time>
      </trkpt>
      <trkpt lat="59.8852768" lon="17.6655208">
        <ele>16.4797</ele>
        <time>2013-05-15T15:28:19Z</time>
      </trkpt>
      <trkpt lat="59.8853078" lon="17.6653732">
        <ele>16.4797</ele>
        <time>2013-05-15T15:28:20Z</time>
      </trkpt>
      <trkpt lat="59.8853465" lon="17.6652364">
        <ele>15.999</ele>
        <time>2013-05-15T15:28:21Z</time>
      </trkpt>
      <trkpt lat="59.8853972" lon="17.6651158">
        <ele>15.5184</ele>
        <time>2013-05-15T15:28:22Z</time>
      </trkpt>
      <trkpt lat="59.8854592" lon="17.6650176">
        <ele>14.557</ele>
        <time>2013-05-15T15:28:23Z</time>
      </trkpt>
      <trkpt lat="59.8855327" lon="17.6649489">
        <ele>14.557</ele>
        <time>2013-05-15T15:28:24Z</time>
      </trkpt>
      <trkpt lat="59.8856124" lon="17.6649173">
        <ele>14.557</ele>
        <time>2013-05-15T15:28:25Z</time>
      </trkpt>
      <trkpt lat="59.8856961" lon="17.6649166">
        <ele>15.0377</ele>
        <time>2013-05-15T15:28:26Z</time>
      </trkpt>
      <trkpt lat="59.8857812" lon="17.6649344">
        <ele>15.0377</ele>
        <time>2013-05-15T15:28:27Z</time>
      </trkpt>
      <trkpt lat="59.8858688" lon="17.6649494">
        <ele>15.0377</ele>
        <time>2013-05-15T15:28:28Z</time>
      </trkpt>
      <trkpt lat="59.8859579" lon="17.6649418">
        <ele>15.0377</ele>
        <time>2013-05-15T15:28:29Z</time>
      </trkpt>
      <trkpt lat="59.8860428" lon="17.6648924">
        <ele>14.557</ele>
        <time>2013-05-15T15:28:30Z</time>
      </trkpt>
      <trkpt lat="59.8861196" lon="17.6648018">
        <ele>14.557</ele>
        <time>2013-05-15T15:28:31Z</time>
      </trkpt>
      <trkpt lat="59.8861853" lon="17.6646791">
        <ele>14.557</ele>
        <time>2013-05-15T15:28:32Z</time>
      </trkpt>
      <trkpt lat="59.8862403" lon="17.6645345">
        <ele>14.0764</ele>
        <time>2013-05-15T15:28:33Z</time>
      </trkpt>
      <trkpt lat="59.8862905" lon="17.6643807">
        <ele>14.0764</ele>
        <time>2013-05-15T15:28:34Z</time>
      </trkpt>
      <trkpt lat="59.8863393" lon="17.6642248">
        <ele>14.557</ele>
        <time>2013-05-15T15:28:35Z</time>
      </trkpt>
      <trkpt lat="59.8863889" lon="17.6640696">
        <ele>14.557</ele>
        <time>2013-05-15T15:28:36Z</time>
      </trkpt>
      <trkpt lat="59.8864401" lon="17.6639171">
        <ele>14.557</ele>
        <time>2013-05-15T15:28:37Z</time>
      </trkpt>
      <trkpt lat="59.8864942" lon="17.6637714">
        <ele>14.557</ele>
        <time>2013-05-15T15:28:38Z</time>
      </trkpt>
      <trkpt lat="59.8865525" lon="17.6636337">
        <ele>15.0377</ele>
        <time>2013-05-15T15:28:39Z</time>
      </trkpt>
      <trkpt lat="59.8866127" lon="17.6635026">
        <ele>15.0377</ele>
        <time>2013-05-15T15:28:40Z</time>
      </trkpt>
      <trkpt lat="59.8866747" lon="17.6633788">
        <ele>15.0377</ele>
        <time>2013-05-15T15:28:41Z</time>
      </trkpt>
      <trkpt lat="59.8867365" lon="17.6632587">
        <ele>15.5184</ele>
        <time>2013-05-15T15:28:42Z</time>
      </trkpt>
      <trkpt lat="59.886796" lon="17.6631369">
        <ele>15.5184</ele>
        <time>2013-05-15T15:28:43Z</time>
      </trkpt>
      <trkpt lat="59.8868518" lon="17.66301">
        <ele>15.5184</ele>
        <time>2013-05-15T15:28:44Z</time>
      </trkpt>
      <trkpt lat="59.8869059" lon="17.6628758">
        <ele>16.4797</ele>
        <time>2013-05-15T15:28:45Z</time>
      </trkpt>
      <trkpt lat="59.8869539" lon="17.6627375">
        <ele>17.4412</ele>
        <time>2013-05-15T15:28:46Z</time>
      </trkpt>
      <trkpt lat="59.8869967" lon="17.6625966">
        <ele>17.9218</ele>
        <time>2013-05-15T15:28:47Z</time>
      </trkpt>
      <trkpt lat="59.8870344" lon="17.6624537">
        <ele>18.4023</ele>
        <time>2013-05-15T15:28:48Z</time>
      </trkpt>
      <trkpt lat="59.8870656" lon="17.6623069">
        <ele>18.8831</ele>
        <time>2013-05-15T15:28:49Z</time>
      </trkpt>
      <trkpt lat="59.8870897" lon="17.6621542">
        <ele>18.8831</ele>
        <time>2013-05-15T15:28:50Z</time>
      </trkpt>
      <trkpt lat="59.8871074" lon="17.6619978">
        <ele>19.3638</ele>
        <time>2013-05-15T15:28:51Z</time>
      </trkpt>
      <trkpt lat="59.8871197" lon="17.6618397">
        <ele>19.3638</ele>
        <time>2013-05-15T15:28:52Z</time>
      </trkpt>
      <trkpt lat="59.8871286" lon="17.6616811">
        <ele>19.3638</ele>
        <time>2013-05-15T15:28:53Z</time>
      </trkpt>
      <trkpt lat="59.8871438" lon="17.6615258">
        <ele>19.8444</ele>
        <time>2013-05-15T15:28:54Z</time>
      </trkpt>
      <trkpt lat="59.8871773" lon="17.6613835">
        <ele>20.325</ele>
        <time>2013-05-15T15:28:55Z</time>
      </trkpt>
      <trkpt lat="59.8872263" lon="17.66126">
        <ele>20.325</ele>
        <time>2013-05-15T15:28:56Z</time>
      </trkpt>
      <trkpt lat="59.8872875" lon="17.6611576">
        <ele>20.325</ele>
        <time>2013-05-15T15:28:57Z</time>
      </trkpt>
      <trkpt lat="59.887356" lon="17.6610702">
        <ele>20.325</ele>
        <time>2013-05-15T15:28:58Z</time>
      </trkpt>
      <trkpt lat="59.8874286" lon="17.6609928">
        <ele>20.325</ele>
        <time>2013-05-15T15:28:59Z</time>
      </trkpt>
      <trkpt lat="59.8875037" lon="17.6609217">
        <ele>20.325</ele>
        <time>2013-05-15T15:29:00Z</time>
      </trkpt>
      <trkpt lat="59.8875789" lon="17.6608516">
        <ele>20.325</ele>
        <time>2013-05-15T15:29:01Z</time>
      </trkpt>
      <trkpt lat="59.8876514" lon="17.6607707">
        <ele>19.8444</ele>
        <time>2013-05-15T15:29:02Z</time>
      </trkpt>
      <trkpt lat="59.8877202" lon="17.6606723">
        <ele>20.325</ele>
        <time>2013-05-15T15:29:03Z</time>
      </trkpt>
      <trkpt lat="59.8877839" lon="17.6605598">
        <ele>20.325</ele>
        <time>2013-05-15T15:29:04Z</time>
      </trkpt>
      <trkpt lat="59.8878417" lon="17.6604365">
        <ele>20.325</ele>
        <time>2013-05-15T15:29:05Z</time>
      </trkpt>
      <trkpt lat="59.8878944" lon="17.6603065">
        <ele>20.325</ele>
        <time>2013-05-15T15:29:06Z</time>
      </trkpt>
      <trkpt lat="59.8879455" lon="17.6601753">
        <ele>20.325</ele>
        <time>2013-05-15T15:29:07Z</time>
      </trkpt>
      <trkpt lat="59.8879935" lon="17.6600403">
        <ele>20.8057</ele>
        <time>2013-05-15T15:29:08Z</time>
      </trkpt>
      <trkpt lat="59.8880419" lon="17.6599076">
        <ele>21.2864</ele>
        <time>2013-05-15T15:29:09Z</time>
      </trkpt>
      <trkpt lat="59.8880895" lon="17.6597765">
        <ele>21.2864</ele>
        <time>2013-05-15T15:29:10Z</time>
      </trkpt>
      <trkpt lat="59.8881362" lon="17.6596481">
        <ele>21.2864</ele>
        <time>2013-05-15T15:29:11Z</time>
      </trkpt>
      <trkpt lat="59.8881828" lon="17.6595185">
        <ele>21.767</ele>
        <time>2013-05-15T15:29:12Z</time>
      </trkpt>
      <trkpt lat="59.8882297" lon="17.6593858">
        <ele>21.767</ele>
        <time>2013-05-15T15:29:13Z</time>
      </trkpt>
      <trkpt lat="59.888277" lon="17.6592524">
        <ele>22.2476</ele>
        <time>2013-05-15T15:29:14Z</time>
      </trkpt>
      <trkpt lat="59.8883251" lon="17.6591218">
        <ele>22.2476</ele>
        <time>2013-05-15T15:29:15Z</time>
      </trkpt>
      <trkpt lat="59.8883746" lon="17.6589902">
        <ele>22.7283</ele>
        <time>2013-05-15T15:29:16Z</time>
      </trkpt>
      <trkpt lat="59.8884235" lon="17.6588603">
        <ele>22.7283</ele>
        <time>2013-05-15T15:29:17Z</time>
      </trkpt>
      <trkpt lat="59.8884727" lon="17.6587306">
        <ele>22.7283</ele>
        <time>2013-05-15T15:29:18Z</time>
      </trkpt>
      <trkpt lat="59.8885221" lon="17.6586001">
        <ele>23.209</ele>
        <time>2013-05-15T15:29:19Z</time>
      </trkpt>
      <trkpt lat="59.8885704" lon="17.65847">
        <ele>23.6896</ele>
        <time>2013-05-15T15:29:20Z</time>
      </trkpt>
      <trkpt lat="59.888619" lon="17.6583396">
        <ele>23.6896</ele>
        <time>2013-05-15T15:29:21Z</time>
      </trkpt>
      <trkpt lat="59.8886676" lon="17.6582116">
        <ele>24.1703</ele>
        <time>2013-05-15T15:29:22Z</time>
      </trkpt>
      <trkpt lat="59.8887168" lon="17.6580838">
        <ele>24.1703</ele>
        <time>2013-05-15T15:29:23Z</time>
      </trkpt>
      <trkpt lat="59.8887657" lon="17.6579576">
        <ele>24.651</ele>
        <time>2013-05-15T15:29:24Z</time>
      </trkpt>
      <trkpt lat="59.8888131" lon="17.6578268">
        <ele>24.651</ele>
        <time>2013-05-15T15:29:25Z</time>
      </trkpt>
      <trkpt lat="59.8888596" lon="17.657696">
        <ele>25.1317</ele>
        <time>2013-05-15T15:29:26Z</time>
      </trkpt>
      <trkpt lat="59.8889064" lon="17.6575672">
        <ele>25.6123</ele>
        <time>2013-05-15T15:29:27Z</time>
      </trkpt>
      <trkpt lat="59.8889472" lon="17.6574045">
        <ele>26.0929</ele>
        <time>2013-05-15T15:29:28Z</time>
      </trkpt>
      <trkpt lat="59.8889926" lon="17.6572667">
        <ele>26.5736</ele>
        <time>2013-05-15T15:29:29Z</time>
      </trkpt>
      <trkpt lat="59.8890405" lon="17.6571394">
        <ele>27.0543</ele>
        <time>2013-05-15T15:29:30Z</time>
      </trkpt>
      <trkpt lat="59.8890862" lon="17.6570157">
        <ele>27.0543</ele>
        <time>2013-05-15T15:29:31Z</time>
      </trkpt>
      <trkpt lat="59.8891376" lon="17.6568898">
        <ele>27.5349</ele>
        <time>2013-05-15T15:29:32Z</time>
      </trkpt>
      <trkpt lat="59.889187" lon="17.6567783">
        <ele>27.0543</ele>
        <time>2013-05-15T15:29:33Z</time>
      </trkpt>
      <trkpt lat="59.8892345" lon="17.6566525">
        <ele>27.0543</ele>
        <time>2013-05-15T15:29:34Z</time>
      </trkpt>
      <trkpt lat="59.8892815" lon="17.6565256">
        <ele>27.0543</ele>
        <time>2013-05-15T15:29:35Z</time>
      </trkpt>
      <trkpt lat="59.8893282" lon="17.6563946">
        <ele>27.5349</ele>
        <time>2013-05-15T15:29:36Z</time>
      </trkpt>
      <trkpt lat="59.8893691" lon="17.6562654">
        <ele>28.0155</ele>
        <time>2013-05-15T15:29:37Z</time>
      </trkpt>
      <trkpt lat="59.8894126" lon="17.6561412">
        <ele>28.0155</ele>
        <time>2013-05-15T15:29:38Z</time>
      </trkpt>
      <trkpt lat="59.8894572" lon="17.6560174">
        <ele>28.0155</ele>
        <time>2013-05-15T15:29:39Z</time>
      </trkpt>
      <trkpt lat="59.8895045" lon="17.6558909">
        <ele>28.4962</ele>
        <time>2013-05-15T15:29:40Z</time>
      </trkpt>
      <trkpt lat="59.8895505" lon="17.6557628">
        <ele>28.9769</ele>
        <time>2013-05-15T15:29:41Z</time>
      </trkpt>
      <trkpt lat="59.8895975" lon="17.6556334">
        <ele>29.4575</ele>
        <time>2013-05-15T15:29:42Z</time>
      </trkpt>
      <trkpt lat="59.8896451" lon="17.6555033">
        <ele>29.4575</ele>
        <time>2013-05-15T15:29:43Z</time>
      </trkpt>
      <trkpt lat="59.8896928" lon="17.655374">
        <ele>29.9381</ele>
        <time>2013-05-15T15:29:44Z</time>
      </trkpt>
      <trkpt lat="59.8897399" lon="17.655246">
        <ele>29.9381</ele>
        <time>2013-05-15T15:29:45Z</time>
      </trkpt>
      <trkpt lat="59.8897855" lon="17.6551192">
        <ele>30.4188</ele>
        <time>2013-05-15T15:29:46Z</time>
      </trkpt>
      <trkpt lat="59.8898321" lon="17.6549918">
        <ele>30.8995</ele>
        <time>2013-05-15T15:29:47Z</time>
      </trkpt>
      <trkpt lat="59.8898814" lon="17.6548634">
        <ele>30.8995</ele>
        <time>2013-05-15T15:29:48Z</time>
      </trkpt>
      <trkpt lat="59.8899293" lon="17.6547357">
        <ele>31.3801</ele>
        <time>2013-05-15T15:29:49Z</time>
      </trkpt>
      <trkpt lat="59.8899772" lon="17.6546072">
        <ele>31.3801</ele>
        <time>2013-05-15T15:29:50Z</time>
      </trkpt>
      <trkpt lat="59.8900259" lon="17.6544783">
        <ele>31.8607</ele>
        <time>2013-05-15T15:29:51Z</time>
      </trkpt>
      <trkpt lat="59.8900738" lon="17.6543504">
        <ele>32.3416</ele>
        <time>2013-05-15T15:29:52Z</time>
      </trkpt>
      <trkpt lat="59.8901186" lon="17.6542245">
        <ele>32.3416</ele>
        <time>2013-05-15T15:29:53Z</time>
      </trkpt>
      <trkpt lat="59.8901658" lon="17.6540971">
        <ele>32.3416</ele>
        <time>2013-05-15T15:29:54Z</time>
      </trkpt>
      <trkpt lat="59.8902129" lon="17.6539728">
        <ele>32.3416</ele>
        <time>2013-05-15T15:29:55Z</time>
      </trkpt>
      <trkpt lat="59.8902595" lon="17.653849">
        <ele>33.3029</ele>
        <time>2013-05-15T15:29:56Z</time>
      </trkpt>
      <trkpt lat="59.8903051" lon="17.6537206">
        <ele>33.7834</ele>
        <time>2013-05-15T15:29:57Z</time>
      </trkpt>
      <trkpt lat="59.8903508" lon="17.6535926">
        <ele>34.2642</ele>
        <time>2013-05-15T15:29:58Z</time>
      </trkpt>
      <trkpt lat="59.8903984" lon="17.6534673">
        <ele>34.7449</ele>
        <time>2013-05-15T15:29:59Z</time>
      </trkpt>
      <trkpt lat="59.8904455" lon="17.6533429">
        <ele>34.7449</ele>
        <time>2013-05-15T15:30:00Z</time>
      </trkpt>
      <trkpt lat="59.890491" lon="17.6532196">
        <ele>34.7449</ele>
        <time>2013-05-15T15:30:01Z</time>
      </trkpt>
      <trkpt lat="59.8905351" lon="17.6530984">
        <ele>34.7449</ele>
        <time>2013-05-15T15:30:02Z</time>
      </trkpt>
      <trkpt lat="59.8905786" lon="17.6529783">
        <ele>34.7449</ele>
        <time>2013-05-15T15:30:03Z</time>
      </trkpt>
      <trkpt lat="59.8906278" lon="17.6528499">
        <ele>34.2642</ele>
        <time>2013-05-15T15:30:04Z</time>
      </trkpt>
      <trkpt lat="59.8906766" lon="17.6527218">
        <ele>33.7834</ele>
        <time>2013-05-15T15:30:05Z</time>
      </trkpt>
      <trkpt lat="59.8907235" lon="17.652599">
        <ele>34.2642</ele>
        <time>2013-05-15T15:30:06Z</time>
      </trkpt>
      <trkpt lat="59.8907708" lon="17.6524814">
        <ele>34.2642</ele>
        <time>2013-05-15T15:30:07Z</time>
      </trkpt>
      <trkpt lat="59.8908167" lon="17.6523577">
        <ele>34.2642</ele>
        <time>2013-05-15T15:30:08Z</time>
      </trkpt>
      <trkpt lat="59.8908625" lon="17.6522292">
        <ele>34.2642</ele>
        <time>2013-05-15T15:30:09Z</time>
      </trkpt>
      <trkpt lat="59.8909061" lon="17.6520979">
        <ele>34.2642</ele>
        <time>2013-05-15T15:30:10Z</time>
      </trkpt>
      <trkpt lat="59.8909536" lon="17.6519676">
        <ele>34.7449</ele>
        <time>2013-05-15T15:30:11Z</time>
      </trkpt>
      <trkpt lat="59.8909992" lon="17.6518415">
        <ele>34.7449</ele>
        <time>2013-05-15T15:30:12Z</time>
      </trkpt>
      <trkpt lat="59.8910444" lon="17.6517158">
        <ele>34.7449</ele>
        <time>2013-05-15T15:30:13Z</time>
      </trkpt>
      <trkpt lat="59.8910897" lon="17.6515921">
        <ele>34.2642</ele>
        <time>2013-05-15T15:30:14Z</time>
      </trkpt>
      <trkpt lat="59.8911338" lon="17.6514698">
        <ele>34.7449</ele>
        <time>2013-05-15T15:30:15Z</time>
      </trkpt>
      <trkpt lat="59.8911774" lon="17.651347">
        <ele>35.2255</ele>
        <time>2013-05-15T15:30:16Z</time>
      </trkpt>
      <trkpt lat="59.8912197" lon="17.6512267">
        <ele>35.2255</ele>
        <time>2013-05-15T15:30:17Z</time>
      </trkpt>
      <trkpt lat="59.8912599" lon="17.6511044">
        <ele>35.2255</ele>
        <time>2013-05-15T15:30:18Z</time>
      </trkpt>
      <trkpt lat="59.8913" lon="17.6509821">
        <ele>35.2255</ele>
        <time>2013-05-15T15:30:19Z</time>
      </trkpt>
      <trkpt lat="59.8913401" lon="17.6508605">
        <ele>35.2255</ele>
        <time>2013-05-15T15:30:20Z</time>
      </trkpt>
      <trkpt lat="59.8913794" lon="17.6507371">
        <ele>34.7449</ele>
        <time>2013-05-15T15:30:21Z</time>
      </trkpt>
      <trkpt lat="59.8914186" lon="17.6506136">
        <ele>34.7449</ele>
        <time>2013-05-15T15:30:22Z</time>
      </trkpt>
      <trkpt lat="59.8914567" lon="17.6504888">
        <ele>34.2642</ele>
        <time>2013-05-15T15:30:23Z</time>
      </trkpt>
      <trkpt lat="59.8914948" lon="17.6503634">
        <ele>34.7449</ele>
        <time>2013-05-15T15:30:24Z</time>
      </trkpt>
      <trkpt lat="59.8915322" lon="17.6502379">
        <ele>34.7449</ele>
        <time>2013-05-15T15:30:25Z</time>
      </trkpt>
      <trkpt lat="59.8915699" lon="17.6501094">
        <ele>34.2642</ele>
        <time>2013-05-15T15:30:26Z</time>
      </trkpt>
      <trkpt lat="59.8916066" lon="17.6499801">
        <ele>33.7834</ele>
        <time>2013-05-15T15:30:27Z</time>
      </trkpt>
      <trkpt lat="59.891641" lon="17.649849">
        <ele>33.3029</ele>
        <time>2013-05-15T15:30:28Z</time>
      </trkpt>
      <trkpt lat="59.8916737" lon="17.6497174">
        <ele>32.8223</ele>
        <time>2013-05-15T15:30:29Z</time>
      </trkpt>
      <trkpt lat="59.8917068" lon="17.6495837">
        <ele>32.8223</ele>
        <time>2013-05-15T15:30:30Z</time>
      </trkpt>
      <trkpt lat="59.891738" lon="17.649447">
        <ele>32.8223</ele>
        <time>2013-05-15T15:30:31Z</time>
      </trkpt>
      <trkpt lat="59.8917677" lon="17.6493079">
        <ele>33.3029</ele>
        <time>2013-05-15T15:30:32Z</time>
      </trkpt>
      <trkpt lat="59.8917971" lon="17.6491694">
        <ele>33.3029</ele>
        <time>2013-05-15T15:30:33Z</time>
      </trkpt>
      <trkpt lat="59.8918266" lon="17.6490298">
        <ele>33.3029</ele>
        <time>2013-05-15T15:30:34Z</time>
      </trkpt>
      <trkpt lat="59.891852" lon="17.6488905">
        <ele>33.3029</ele>
        <time>2013-05-15T15:30:35Z</time>
      </trkpt>
      <trkpt lat="59.8918772" lon="17.6487523">
        <ele>33.3029</ele>
        <time>2013-05-15T15:30:36Z</time>
      </trkpt>
      <trkpt lat="59.8919015" lon="17.6486149">
        <ele>33.7834</ele>
        <time>2013-05-15T15:30:37Z</time>
      </trkpt>
      <trkpt lat="59.8919252" lon="17.6484783">
        <ele>33.7834</ele>
        <time>2013-05-15T15:30:38Z</time>
      </trkpt>
      <trkpt lat="59.891949" lon="17.6483414">
        <ele>33.7834</ele>
        <time>2013-05-15T15:30:39Z</time>
      </trkpt>
      <trkpt lat="59.8919734" lon="17.6482046">
        <ele>33.7834</ele>
        <time>2013-05-15T15:30:40Z</time>
      </trkpt>
      <trkpt lat="59.8919972" lon="17.6480655">
        <ele>33.7834</ele>
        <time>2013-05-15T15:30:41Z</time>
      </trkpt>
      <trkpt lat="59.8920192" lon="17.647925">
        <ele>34.2642</ele>
        <time>2013-05-15T15:30:42Z</time>
      </trkpt>
      <trkpt lat="59.8920389" lon="17.647781">
        <ele>34.2642</ele>
        <time>2013-05-15T15:30:43Z</time>
      </trkpt>
      <trkpt lat="59.8920596" lon="17.6476371">
        <ele>33.7834</ele>
        <time>2013-05-15T15:30:44Z</time>
      </trkpt>
      <trkpt lat="59.8920807" lon="17.6474909">
        <ele>33.3029</ele>
        <time>2013-05-15T15:30:45Z</time>
      </trkpt>
      <trkpt lat="59.8921001" lon="17.6473418">
        <ele>33.3029</ele>
        <time>2013-05-15T15:30:46Z</time>
      </trkpt>
      <trkpt lat="59.8921213" lon="17.6471927">
        <ele>32.8223</ele>
        <time>2013-05-15T15:30:47Z</time>
      </trkpt>
      <trkpt lat="59.8921403" lon="17.6470416">
        <ele>32.8223</ele>
        <time>2013-05-15T15:30:48Z</time>
      </trkpt>
      <trkpt lat="59.892158" lon="17.6468891">
        <ele>32.3416</ele>
        <time>2013-05-15T15:30:49Z</time>
      </trkpt>
      <trkpt lat="59.8921764" lon="17.6467367">
        <ele>31.8607</ele>
        <time>2013-05-15T15:30:50Z</time>
      </trkpt>
      <trkpt lat="59.8921942" lon="17.6465834">
        <ele>31.3801</ele>
        <time>2013-05-15T15:30:51Z</time>
      </trkpt>
      <trkpt lat="59.8922112" lon="17.646429">
        <ele>30.8995</ele>
        <time>2013-05-15T15:30:52Z</time>
      </trkpt>
      <trkpt lat="59.8922274" lon="17.6462756">
        <ele>30.4188</ele>
        <time>2013-05-15T15:30:53Z</time>
      </trkpt>
      <trkpt lat="59.8922424" lon="17.6461244">
        <ele>29.9381</ele>
        <time>2013-05-15T15:30:54Z</time>
      </trkpt>
      <trkpt lat="59.8922578" lon="17.6459733">
        <ele>29.9381</ele>
        <time>2013-05-15T15:30:55Z</time>
      </trkpt>
      <trkpt lat="59.8922735" lon="17.6458229">
        <ele>29.4575</ele>
        <time>2013-05-15T15:30:56Z</time>
      </trkpt>
      <trkpt lat="59.8922884" lon="17.6456722">
        <ele>28.9769</ele>
        <time>2013-05-15T15:30:57Z</time>
      </trkpt>
      <trkpt lat="59.8923026" lon="17.6455226">
        <ele>28.4962</ele>
        <time>2013-05-15T15:30:58Z</time>
      </trkpt>
      <trkpt lat="59.8923175" lon="17.6453754">
        <ele>28.4962</ele>
        <time>2013-05-15T15:30:59Z</time>
      </trkpt>
      <trkpt lat="59.8923321" lon="17.6452292">
        <ele>28.4962</ele>
        <time>2013-05-15T15:31:00Z</time>
      </trkpt>
      <trkpt lat="59.8923462" lon="17.6450823">
        <ele>28.0155</ele>
        <time>2013-05-15T15:31:01Z</time>
      </trkpt>
      <trkpt lat="59.8923611" lon="17.6449356">
        <ele>28.0155</ele>
        <time>2013-05-15T15:31:02Z</time>
      </trkpt>
      <trkpt lat="59.8923771" lon="17.6447895">
        <ele>28.0155</ele>
        <time>2013-05-15T15:31:03Z</time>
      </trkpt>
      <trkpt lat="59.8923927" lon="17.6446435">
        <ele>27.5349</ele>
        <time>2013-05-15T15:31:04Z</time>
      </trkpt>
      <trkpt lat="59.8924082" lon="17.6444984">
        <ele>27.5349</ele>
        <time>2013-05-15T15:31:05Z</time>
      </trkpt>
      <trkpt lat="59.8924217" lon="17.6443439">
        <ele>27.5349</ele>
        <time>2013-05-15T15:31:06Z</time>
      </trkpt>
      <trkpt lat="59.8924378" lon="17.6441973">
        <ele>27.0543</ele>
        <time>2013-05-15T15:31:07Z</time>
      </trkpt>
      <trkpt lat="59.8924522" lon="17.644054">
        <ele>27.0543</ele>
        <time>2013-05-15T15:31:08Z</time>
      </trkpt>
      <trkpt lat="59.8924671" lon="17.6439119">
        <ele>27.0543</ele>
        <time>2013-05-15T15:31:09Z</time>
      </trkpt>
      <trkpt lat="59.8924822" lon="17.6437686">
        <ele>27.0543</ele>
        <time>2013-05-15T15:31:10Z</time>
      </trkpt>
      <trkpt lat="59.8924947" lon="17.6436238">
        <ele>27.0543</ele>
        <time>2013-05-15T15:31:11Z</time>
      </trkpt>
      <trkpt lat="59.8925076" lon="17.643478">
        <ele>27.0543</ele>
        <time>2013-05-15T15:31:12Z</time>
      </trkpt>
      <trkpt lat="59.892521" lon="17.6433307">
        <ele>27.5349</ele>
        <time>2013-05-15T15:31:13Z</time>
      </trkpt>
      <trkpt lat="59.8925355" lon="17.6431837">
        <ele>27.5349</ele>
        <time>2013-05-15T15:31:14Z</time>
      </trkpt>
      <trkpt lat="59.8925512" lon="17.6430376">
        <ele>27.5349</ele>
        <time>2013-05-15T15:31:15Z</time>
      </trkpt>
      <trkpt lat="59.8925662" lon="17.6428903">
        <ele>27.5349</ele>
        <time>2013-05-15T15:31:16Z</time>
      </trkpt>
      <trkpt lat="59.8925791" lon="17.6427403">
        <ele>27.5349</ele>
        <time>2013-05-15T15:31:17Z</time>
      </trkpt>
      <trkpt lat="59.8925916" lon="17.6425895">
        <ele>27.5349</ele>
        <time>2013-05-15T15:31:18Z</time>
      </trkpt>
      <trkpt lat="59.8926036" lon="17.6424399">
        <ele>27.5349</ele>
        <time>2013-05-15T15:31:19Z</time>
      </trkpt>
      <trkpt lat="59.8926147" lon="17.6422923">
        <ele>27.5349</ele>
        <time>2013-05-15T15:31:20Z</time>
      </trkpt>
      <trkpt lat="59.8926233" lon="17.6421444">
        <ele>27.0543</ele>
        <time>2013-05-15T15:31:21Z</time>
      </trkpt>
      <trkpt lat="59.8926294" lon="17.6419969">
        <ele>27.0543</ele>
        <time>2013-05-15T15:31:22Z</time>
      </trkpt>
      <trkpt lat="59.8926408" lon="17.6418473">
        <ele>27.0543</ele>
        <time>2013-05-15T15:31:23Z</time>
      </trkpt>
      <trkpt lat="59.8926512" lon="17.6416953">
        <ele>27.0543</ele>
        <time>2013-05-15T15:31:24Z</time>
      </trkpt>
      <trkpt lat="59.8926615" lon="17.641544">
        <ele>27.0543</ele>
        <time>2013-05-15T15:31:25Z</time>
      </trkpt>
      <trkpt lat="59.8926704" lon="17.6413912">
        <ele>27.0543</ele>
        <time>2013-05-15T15:31:26Z</time>
      </trkpt>
      <trkpt lat="59.892678" lon="17.6412375">
        <ele>27.0543</ele>
        <time>2013-05-15T15:31:27Z</time>
      </trkpt>
      <trkpt lat="59.892686" lon="17.6410842">
        <ele>26.5736</ele>
        <time>2013-05-15T15:31:28Z</time>
      </trkpt>
      <trkpt lat="59.8926955" lon="17.6409319">
        <ele>26.5736</ele>
        <time>2013-05-15T15:31:29Z</time>
      </trkpt>
      <trkpt lat="59.892705" lon="17.6407804">
        <ele>26.5736</ele>
        <time>2013-05-15T15:31:30Z</time>
      </trkpt>
      <trkpt lat="59.8927129" lon="17.6406288">
        <ele>27.0543</ele>
        <time>2013-05-15T15:31:31Z</time>
      </trkpt>
      <trkpt lat="59.8927206" lon="17.6404781">
        <ele>27.0543</ele>
        <time>2013-05-15T15:31:32Z</time>
      </trkpt>
      <trkpt lat="59.8927262" lon="17.6403305">
        <ele>26.5736</ele>
        <time>2013-05-15T15:31:33Z</time>
      </trkpt>
      <trkpt lat="59.8927308" lon="17.6401855">
        <ele>26.5736</ele>
        <time>2013-05-15T15:31:34Z</time>
      </trkpt>
      <trkpt lat="59.8927347" lon="17.6400418">
        <ele>26.5736</ele>
        <time>2013-05-15T15:31:35Z</time>
      </trkpt>
      <trkpt lat="59.8927362" lon="17.6398986">
        <ele>26.5736</ele>
        <time>2013-05-15T15:31:36Z</time>
      </trkpt>
      <trkpt lat="59.8927374" lon="17.639757">
        <ele>26.5736</ele>
        <time>2013-05-15T15:31:37Z</time>
      </trkpt>
      <trkpt lat="59.8927393" lon="17.6396173">
        <ele>26.5736</ele>
        <time>2013-05-15T15:31:38Z</time>
      </trkpt>
      <trkpt lat="59.8927413" lon="17.639481">
        <ele>26.5736</ele>
        <time>2013-05-15T15:31:39Z</time>
      </trkpt>
      <trkpt lat="59.8927437" lon="17.6393445">
        <ele>26.5736</ele>
        <time>2013-05-15T15:31:40Z</time>
      </trkpt>
      <trkpt lat="59.8927465" lon="17.639209">
        <ele>26.0929</ele>
        <time>2013-05-15T15:31:41Z</time>
      </trkpt>
      <trkpt lat="59.8927475" lon="17.6390741">
        <ele>26.0929</ele>
        <time>2013-05-15T15:31:42Z</time>
      </trkpt>
      <trkpt lat="59.8927465" lon="17.6389402">
        <ele>26.0929</ele>
        <time>2013-05-15T15:31:43Z</time>
      </trkpt>
      <trkpt lat="59.8927457" lon="17.6388091">
        <ele>26.0929</ele>
        <time>2013-05-15T15:31:44Z</time>
      </trkpt>
      <trkpt lat="59.8927475" lon="17.6386799">
        <ele>26.0929</ele>
        <time>2013-05-15T15:31:45Z</time>
      </trkpt>
      <trkpt lat="59.8927572" lon="17.6385523">
        <ele>26.0929</ele>
        <time>2013-05-15T15:31:46Z</time>
      </trkpt>
      <trkpt lat="59.8927816" lon="17.6384335">
        <ele>26.0929</ele>
        <time>2013-05-15T15:31:47Z</time>
      </trkpt>
      <trkpt lat="59.8928236" lon="17.638342">
        <ele>26.0929</ele>
        <time>2013-05-15T15:31:48Z</time>
      </trkpt>
      <trkpt lat="59.8928779" lon="17.6382847">
        <ele>26.0929</ele>
        <time>2013-05-15T15:31:49Z</time>
      </trkpt>
      <trkpt lat="59.8929362" lon="17.6382541">
        <ele>25.1317</ele>
        <time>2013-05-15T15:31:50Z</time>
      </trkpt>
      <trkpt lat="59.8929967" lon="17.6382269">
        <ele>24.651</ele>
        <time>2013-05-15T15:31:51Z</time>
      </trkpt>
      <trkpt lat="59.8930566" lon="17.6381956">
        <ele>24.1703</ele>
        <time>2013-05-15T15:31:52Z</time>
      </trkpt>
      <trkpt lat="59.893117" lon="17.6381657">
        <ele>23.6896</ele>
        <time>2013-05-15T15:31:53Z</time>
      </trkpt>
      <trkpt lat="59.8931781" lon="17.6381363">
        <ele>24.1703</ele>
        <time>2013-05-15T15:31:54Z</time>
      </trkpt>
      <trkpt lat="59.8932411" lon="17.6381054">
        <ele>24.1703</ele>
        <time>2013-05-15T15:31:55Z</time>
      </trkpt>
      <trkpt lat="59.8933052" lon="17.6380697">
        <ele>24.1703</ele>
        <time>2013-05-15T15:31:56Z</time>
      </trkpt>
      <trkpt lat="59.8933694" lon="17.6380355">
        <ele>24.1703</ele>
        <time>2013-05-15T15:31:57Z</time>
      </trkpt>
      <trkpt lat="59.8934333" lon="17.6379977">
        <ele>24.1703</ele>
        <time>2013-05-15T15:31:58Z</time>
      </trkpt>
      <trkpt lat="59.8934969" lon="17.6379517">
        <ele>24.1703</ele>
        <time>2013-05-15T15:31:59Z</time>
      </trkpt>
      <trkpt lat="59.8935608" lon="17.6379052">
        <ele>24.1703</ele>
        <time>2013-05-15T15:32:00Z</time>
      </trkpt>
      <trkpt lat="59.893627" lon="17.6378587">
        <ele>24.1703</ele>
        <time>2013-05-15T15:32:01Z</time>
      </trkpt>
      <trkpt lat="59.8936949" lon="17.637812">
        <ele>24.1703</ele>
        <time>2013-05-15T15:32:02Z</time>
      </trkpt>
      <trkpt lat="59.8937606" lon="17.6377626">
        <ele>24.1703</ele>
        <time>2013-05-15T15:32:03Z</time>
      </trkpt>
      <trkpt lat="59.8938255" lon="17.6377134">
        <ele>24.651</ele>
        <time>2013-05-15T15:32:04Z</time>
      </trkpt>
      <trkpt lat="59.8938908" lon="17.637667">
        <ele>24.651</ele>
        <time>2013-05-15T15:32:05Z</time>
      </trkpt>
      <trkpt lat="59.8939576" lon="17.6376198">
        <ele>25.6123</ele>
        <time>2013-05-15T15:32:06Z</time>
      </trkpt>
      <trkpt lat="59.8940242" lon="17.6375721">
        <ele>25.1317</ele>
        <time>2013-05-15T15:32:07Z</time>
      </trkpt>
      <trkpt lat="59.8940902" lon="17.6375238">
        <ele>25.1317</ele>
        <time>2013-05-15T15:32:08Z</time>
      </trkpt>
      <trkpt lat="59.8941568" lon="17.6374763">
        <ele>25.6123</ele>
        <time>2013-05-15T15:32:09Z</time>
      </trkpt>
      <trkpt lat="59.8942254" lon="17.6374312">
        <ele>26.0929</ele>
        <time>2013-05-15T15:32:10Z</time>
      </trkpt>
      <trkpt lat="59.8942938" lon="17.6373877">
        <ele>27.0543</ele>
        <time>2013-05-15T15:32:11Z</time>
      </trkpt>
      <trkpt lat="59.894363" lon="17.6373457">
        <ele>27.0543</ele>
        <time>2013-05-15T15:32:12Z</time>
      </trkpt>
      <trkpt lat="59.8944313" lon="17.6372987">
        <ele>27.5349</ele>
        <time>2013-05-15T15:32:13Z</time>
      </trkpt>
      <trkpt lat="59.8945009" lon="17.6372597">
        <ele>28.0155</ele>
        <time>2013-05-15T15:32:14Z</time>
      </trkpt>
      <trkpt lat="59.8945735" lon="17.6372209">
        <ele>28.4962</ele>
        <time>2013-05-15T15:32:15Z</time>
      </trkpt>
      <trkpt lat="59.8946453" lon="17.6371779">
        <ele>28.0155</ele>
        <time>2013-05-15T15:32:16Z</time>
      </trkpt>
      <trkpt lat="59.894718" lon="17.6371353">
        <ele>28.4962</ele>
        <time>2013-05-15T15:32:17Z</time>
      </trkpt>
      <trkpt lat="59.8947904" lon="17.6370929">
        <ele>28.4962</ele>
        <time>2013-05-15T15:32:18Z</time>
      </trkpt>
      <trkpt lat="59.8948628" lon="17.6370489">
        <ele>28.9769</ele>
        <time>2013-05-15T15:32:19Z</time>
      </trkpt>
      <trkpt lat="59.8949349" lon="17.6370054">
        <ele>28.9769</ele>
        <time>2013-05-15T15:32:20Z</time>
      </trkpt>
      <trkpt lat="59.8950071" lon="17.6369603">
        <ele>29.4575</ele>
        <time>2013-05-15T15:32:21Z</time>
      </trkpt>
      <trkpt lat="59.8950787" lon="17.6369073">
        <ele>28.9769</ele>
        <time>2013-05-15T15:32:22Z</time>
      </trkpt>
      <trkpt lat="59.89515" lon="17.6368577">
        <ele>28.9769</ele>
        <time>2013-05-15T15:32:23Z</time>
      </trkpt>
      <trkpt lat="59.8952201" lon="17.6368116">
        <ele>28.9769</ele>
        <time>2013-05-15T15:32:24Z</time>
      </trkpt>
      <trkpt lat="59.8952904" lon="17.6367665">
        <ele>28.9769</ele>
        <time>2013-05-15T15:32:25Z</time>
      </trkpt>
      <trkpt lat="59.8953624" lon="17.6367205">
        <ele>29.4575</ele>
        <time>2013-05-15T15:32:26Z</time>
      </trkpt>
      <trkpt lat="59.8954342" lon="17.6366758">
        <ele>29.4575</ele>
        <time>2013-05-15T15:32:27Z</time>
      </trkpt>
      <trkpt lat="59.8955054" lon="17.6366364">
        <ele>29.9381</ele>
        <time>2013-05-15T15:32:28Z</time>
      </trkpt>
      <trkpt lat="59.8955769" lon="17.6366007">
        <ele>29.9381</ele>
        <time>2013-05-15T15:32:29Z</time>
      </trkpt>
      <trkpt lat="59.8956498" lon="17.6365677">
        <ele>30.4188</ele>
        <time>2013-05-15T15:32:30Z</time>
      </trkpt>
      <trkpt lat="59.8957229" lon="17.6365413">
        <ele>29.4575</ele>
        <time>2013-05-15T15:32:31Z</time>
      </trkpt>
      <trkpt lat="59.8957963" lon="17.6365221">
        <ele>28.0155</ele>
        <time>2013-05-15T15:32:32Z</time>
      </trkpt>
      <trkpt lat="59.8958763" lon="17.6365159">
        <ele>28.4962</ele>
        <time>2013-05-15T15:32:33Z</time>
      </trkpt>
      <trkpt lat="59.8959525" lon="17.6365231">
        <ele>28.4962</ele>
        <time>2013-05-15T15:32:34Z</time>
      </trkpt>
      <trkpt lat="59.8960305" lon="17.6365379">
        <ele>28.4962</ele>
        <time>2013-05-15T15:32:35Z</time>
      </trkpt>
      <trkpt lat="59.8961095" lon="17.6365548">
        <ele>28.4962</ele>
        <time>2013-05-15T15:32:36Z</time>
      </trkpt>
      <trkpt lat="59.8961879" lon="17.6365761">
        <ele>28.0155</ele>
        <time>2013-05-15T15:32:37Z</time>
      </trkpt>
      <trkpt lat="59.8962633" lon="17.6366071">
        <ele>28.0155</ele>
        <time>2013-05-15T15:32:38Z</time>
      </trkpt>
      <trkpt lat="59.8963395" lon="17.636637">
        <ele>27.5349</ele>
        <time>2013-05-15T15:32:39Z</time>
      </trkpt>
      <trkpt lat="59.8964161" lon="17.6366682">
        <ele>27.5349</ele>
        <time>2013-05-15T15:32:40Z</time>
      </trkpt>
      <trkpt lat="59.8964932" lon="17.6367002">
        <ele>27.0543</ele>
        <time>2013-05-15T15:32:41Z</time>
      </trkpt>
      <trkpt lat="59.8965714" lon="17.6367319">
        <ele>27.0543</ele>
        <time>2013-05-15T15:32:42Z</time>
      </trkpt>
      <trkpt lat="59.8966537" lon="17.6367587">
        <ele>26.5736</ele>
        <time>2013-05-15T15:32:43Z</time>
      </trkpt>
      <trkpt lat="59.8967341" lon="17.6367899">
        <ele>26.5736</ele>
        <time>2013-05-15T15:32:44Z</time>
      </trkpt>
      <trkpt lat="59.8968134" lon="17.6368255">
        <ele>26.0929</ele>
        <time>2013-05-15T15:32:45Z</time>
      </trkpt>
      <trkpt lat="59.8968936" lon="17.6368625">
        <ele>25.6123</ele>
        <time>2013-05-15T15:32:46Z</time>
      </trkpt>
      <trkpt lat="59.8969744" lon="17.6369007">
        <ele>25.6123</ele>
        <time>2013-05-15T15:32:47Z</time>
      </trkpt>
      <trkpt lat="59.8970575" lon="17.636937">
        <ele>25.1317</ele>
        <time>2013-05-15T15:32:48Z</time>
      </trkpt>
      <trkpt lat="59.8971414" lon="17.636976">
        <ele>24.651</ele>
        <time>2013-05-15T15:32:49Z</time>
      </trkpt>
      <trkpt lat="59.8972263" lon="17.6370142">
        <ele>24.651</ele>
        <time>2013-05-15T15:32:50Z</time>
      </trkpt>
      <trkpt lat="59.8973108" lon="17.6370552">
        <ele>24.651</ele>
        <time>2013-05-15T15:32:51Z</time>
      </trkpt>
      <trkpt lat="59.8973946" lon="17.6371031">
        <ele>24.1703</ele>
        <time>2013-05-15T15:32:52Z</time>
      </trkpt>
      <trkpt lat="59.8974791" lon="17.6371596">
        <ele>23.6896</ele>
        <time>2013-05-15T15:32:53Z</time>
      </trkpt>
      <trkpt lat="59.8975655" lon="17.6372193">
        <ele>23.6896</ele>
        <time>2013-05-15T15:32:54Z</time>
      </trkpt>
      <trkpt lat="59.8976519" lon="17.6372856">
        <ele>23.209</ele>
        <time>2013-05-15T15:32:55Z</time>
      </trkpt>
      <trkpt lat="59.8977338" lon="17.6373724">
        <ele>23.209</ele>
        <time>2013-05-15T15:32:56Z</time>
      </trkpt>
      <trkpt lat="59.8978058" lon="17.6374828">
        <ele>22.7283</ele>
        <time>2013-05-15T15:32:57Z</time>
      </trkpt>
      <trkpt lat="59.8978692" lon="17.6376055">
        <ele>22.2476</ele>
        <time>2013-05-15T15:32:58Z</time>
      </trkpt>
      <trkpt lat="59.897935" lon="17.6377219">
        <ele>21.767</ele>
        <time>2013-05-15T15:32:59Z</time>
      </trkpt>
      <trkpt lat="59.8980067" lon="17.6378221">
        <ele>21.767</ele>
        <time>2013-05-15T15:33:00Z</time>
      </trkpt>
      <trkpt lat="59.898083" lon="17.6379076">
        <ele>21.2864</ele>
        <time>2013-05-15T15:33:01Z</time>
      </trkpt>
      <trkpt lat="59.8981617" lon="17.6379856">
        <ele>21.2864</ele>
        <time>2013-05-15T15:33:02Z</time>
      </trkpt>
      <trkpt lat="59.8982414" lon="17.6380602">
        <ele>20.8057</ele>
        <time>2013-05-15T15:33:03Z</time>
      </trkpt>
      <trkpt lat="59.8983218" lon="17.6381336">
        <ele>20.8057</ele>
        <time>2013-05-15T15:33:04Z</time>
      </trkpt>
      <trkpt lat="59.8984021" lon="17.6382067">
        <ele>20.325</ele>
        <time>2013-05-15T15:33:05Z</time>
      </trkpt>
      <trkpt lat="59.8984855" lon="17.6382698">
        <ele>19.8444</ele>
        <time>2013-05-15T15:33:06Z</time>
      </trkpt>
      <trkpt lat="59.8985708" lon="17.6383113">
        <ele>18.8831</ele>
        <time>2013-05-15T15:33:07Z</time>
      </trkpt>
      <trkpt lat="59.898659" lon="17.6383288">
        <ele>17.9218</ele>
        <time>2013-05-15T15:33:08Z</time>
      </trkpt>
      <trkpt lat="59.898746" lon="17.6383308">
        <ele>16.4797</ele>
        <time>2013-05-15T15:33:09Z</time>
      </trkpt>
      <trkpt lat="59.898841" lon="17.6383388">
        <ele>17.4412</ele>
        <time>2013-05-15T15:33:10Z</time>
      </trkpt>
      <trkpt lat="59.8989284" lon="17.6383781">
        <ele>17.9218</ele>
        <time>2013-05-15T15:33:11Z</time>
      </trkpt>
      <trkpt lat="59.8990113" lon="17.6384433">
        <ele>18.4023</ele>
        <time>2013-05-15T15:33:12Z</time>
      </trkpt>
      <trkpt lat="59.8990929" lon="17.6385188">
        <ele>18.4023</ele>
        <time>2013-05-15T15:33:13Z</time>
      </trkpt>
      <trkpt lat="59.8991739" lon="17.6386039">
        <ele>18.4023</ele>
        <time>2013-05-15T15:33:14Z</time>
      </trkpt>
      <trkpt lat="59.8992563" lon="17.6386905">
        <ele>18.8831</ele>
        <time>2013-05-15T15:33:15Z</time>
      </trkpt>
      <trkpt lat="59.8993369" lon="17.6387729">
        <ele>18.4023</ele>
        <time>2013-05-15T15:33:16Z</time>
      </trkpt>
      <trkpt lat="59.8994164" lon="17.6388526">
        <ele>17.9218</ele>
        <time>2013-05-15T15:33:17Z</time>
      </trkpt>
      <trkpt lat="59.8994956" lon="17.6389313">
        <ele>17.4412</ele>
        <time>2013-05-15T15:33:18Z</time>
      </trkpt>
      <trkpt lat="59.8995743" lon="17.6390147">
        <ele>17.4412</ele>
        <time>2013-05-15T15:33:19Z</time>
      </trkpt>
      <trkpt lat="59.8996531" lon="17.6390987">
        <ele>16.9604</ele>
        <time>2013-05-15T15:33:20Z</time>
      </trkpt>
      <trkpt lat="59.8997329" lon="17.639184">
        <ele>16.4797</ele>
        <time>2013-05-15T15:33:21Z</time>
      </trkpt>
      <trkpt lat="59.8998152" lon="17.6392704">
        <ele>16.4797</ele>
        <time>2013-05-15T15:33:22Z</time>
      </trkpt>
      <trkpt lat="59.8998976" lon="17.6393575">
        <ele>15.999</ele>
        <time>2013-05-15T15:33:23Z</time>
      </trkpt>
      <trkpt lat="59.8999815" lon="17.6394457">
        <ele>15.5184</ele>
        <time>2013-05-15T15:33:24Z</time>
      </trkpt>
      <trkpt lat="59.9000661" lon="17.6395331">
        <ele>15.0377</ele>
        <time>2013-05-15T15:33:25Z</time>
      </trkpt>
      <trkpt lat="59.900153" lon="17.6396201">
        <ele>15.0377</ele>
        <time>2013-05-15T15:33:26Z</time>
      </trkpt>
      <trkpt lat="59.9002399" lon="17.6397094">
        <ele>14.557</ele>
        <time>2013-05-15T15:33:27Z</time>
      </trkpt>
      <trkpt lat="59.9003268" lon="17.6398015">
        <ele>14.0764</ele>
        <time>2013-05-15T15:33:28Z</time>
      </trkpt>
      <trkpt lat="59.9004154" lon="17.6398926">
        <ele>13.5958</ele>
        <time>2013-05-15T15:33:29Z</time>
      </trkpt>
      <trkpt lat="59.9005046" lon="17.6399838">
        <ele>13.1151</ele>
        <time>2013-05-15T15:33:30Z</time>
      </trkpt>
      <trkpt lat="59.9005928" lon="17.6400755">
        <ele>12.6344</ele>
        <time>2013-05-15T15:33:31Z</time>
      </trkpt>
      <trkpt lat="59.9006814" lon="17.6401654">
        <ele>12.1538</ele>
        <time>2013-05-15T15:33:32Z</time>
      </trkpt>
      <trkpt lat="59.9007705" lon="17.6402533">
        <ele>11.6732</ele>
        <time>2013-05-15T15:33:33Z</time>
      </trkpt>
      <trkpt lat="59.9008588" lon="17.640341">
        <ele>11.1925</ele>
        <time>2013-05-15T15:33:34Z</time>
      </trkpt>
      <trkpt lat="59.9009477" lon="17.6404305">
        <ele>10.7118</ele>
        <time>2013-05-15T15:33:35Z</time>
      </trkpt>
      <trkpt lat="59.9010371" lon="17.6405211">
        <ele>10.2312</ele>
        <time>2013-05-15T15:33:36Z</time>
      </trkpt>
      <trkpt lat="59.9011268" lon="17.6406107">
        <ele>10.2312</ele>
        <time>2013-05-15T15:33:37Z</time>
      </trkpt>
      <trkpt lat="59.901217" lon="17.6406981">
        <ele>10.7118</ele>
        <time>2013-05-15T15:33:38Z</time>
      </trkpt>
      <trkpt lat="59.9013055" lon="17.6407841">
        <ele>10.7118</ele>
        <time>2013-05-15T15:33:39Z</time>
      </trkpt>
      <trkpt lat="59.9013932" lon="17.6408681">
        <ele>10.7118</ele>
        <time>2013-05-15T15:33:40Z</time>
      </trkpt>
      <trkpt lat="59.9014817" lon="17.6409488">
        <ele>11.1925</ele>
        <time>2013-05-15T15:33:41Z</time>
      </trkpt>
      <trkpt lat="59.9015709" lon="17.6410267">
        <ele>11.1925</ele>
        <time>2013-05-15T15:33:42Z</time>
      </trkpt>
      <trkpt lat="59.9016613" lon="17.6411024">
        <ele>11.6732</ele>
        <time>2013-05-15T15:33:43Z</time>
      </trkpt>
      <trkpt lat="59.9017508" lon="17.641179">
        <ele>11.6732</ele>
        <time>2013-05-15T15:33:44Z</time>
      </trkpt>
      <trkpt lat="59.9018408" lon="17.6412532">
        <ele>12.1538</ele>
        <time>2013-05-15T15:33:45Z</time>
      </trkpt>
      <trkpt lat="59.9019323" lon="17.6413223">
        <ele>12.1538</ele>
        <time>2013-05-15T15:33:46Z</time>
      </trkpt>
      <trkpt lat="59.9020238" lon="17.6413893">
        <ele>12.6344</ele>
        <time>2013-05-15T15:33:47Z</time>
      </trkpt>
      <trkpt lat="59.9021156" lon="17.6414556">
        <ele>12.6344</ele>
        <time>2013-05-15T15:33:48Z</time>
      </trkpt>
      <trkpt lat="59.9022069" lon="17.6415215">
        <ele>12.6344</ele>
        <time>2013-05-15T15:33:49Z</time>
      </trkpt>
      <trkpt lat="59.9022982" lon="17.6415867">
        <ele>13.1151</ele>
        <time>2013-05-15T15:33:50Z</time>
      </trkpt>
      <trkpt lat="59.9023896" lon="17.6416503">
        <ele>13.1151</ele>
        <time>2013-05-15T15:33:51Z</time>
      </trkpt>
      <trkpt lat="59.9024812" lon="17.6417124">
        <ele>13.5958</ele>
        <time>2013-05-15T15:33:52Z</time>
      </trkpt>
      <trkpt lat="59.902573" lon="17.6417715">
        <ele>13.5958</ele>
        <time>2013-05-15T15:33:53Z</time>
      </trkpt>
      <trkpt lat="59.9026656" lon="17.6418271">
        <ele>14.0764</ele>
        <time>2013-05-15T15:33:54Z</time>
      </trkpt>
      <trkpt lat="59.9027585" lon="17.6418814">
        <ele>14.0764</ele>
        <time>2013-05-15T15:33:55Z</time>
      </trkpt>
      <trkpt lat="59.9028512" lon="17.6419342">
        <ele>14.557</ele>
        <time>2013-05-15T15:33:56Z</time>
      </trkpt>
      <trkpt lat="59.9029441" lon="17.6419841">
        <ele>14.557</ele>
        <time>2013-05-15T15:33:57Z</time>
      </trkpt>
      <trkpt lat="59.9030373" lon="17.6420309">
        <ele>14.557</ele>
        <time>2013-05-15T15:33:58Z</time>
      </trkpt>
      <trkpt lat="59.9031305" lon="17.6420751">
        <ele>15.0377</ele>
        <time>2013-05-15T15:33:59Z</time>
      </trkpt>
      <trkpt lat="59.903224" lon="17.6421192">
        <ele>15.0377</ele>
        <time>2013-05-15T15:34:00Z</time>
      </trkpt>
      <trkpt lat="59.9033175" lon="17.6421647">
        <ele>15.0377</ele>
        <time>2013-05-15T15:34:01Z</time>
      </trkpt>
      <trkpt lat="59.9034114" lon="17.6422099">
        <ele>15.0377</ele>
        <time>2013-05-15T15:34:02Z</time>
      </trkpt>
      <trkpt lat="59.9035055" lon="17.6422544">
        <ele>15.0377</ele>
        <time>2013-05-15T15:34:03Z</time>
      </trkpt>
      <trkpt lat="59.9035991" lon="17.6422987">
        <ele>15.5184</ele>
        <time>2013-05-15T15:34:04Z</time>
      </trkpt>
      <trkpt lat="59.9036915" lon="17.6423439">
        <ele>15.5184</ele>
        <time>2013-05-15T15:34:05Z</time>
      </trkpt>
      <trkpt lat="59.9037835" lon="17.6423891">
        <ele>15.5184</ele>
        <time>2013-05-15T15:34:06Z</time>
      </trkpt>
      <trkpt lat="59.9038747" lon="17.642431">
        <ele>15.5184</ele>
        <time>2013-05-15T15:34:07Z</time>
      </trkpt>
      <trkpt lat="59.903966" lon="17.6424719">
        <ele>15.5184</ele>
        <time>2013-05-15T15:34:08Z</time>
      </trkpt>
      <trkpt lat="59.9040577" lon="17.6425133">
        <ele>15.0377</ele>
        <time>2013-05-15T15:34:09Z</time>
      </trkpt>
      <trkpt lat="59.9041504" lon="17.6425543">
        <ele>15.0377</ele>
        <time>2013-05-15T15:34:10Z</time>
      </trkpt>
      <trkpt lat="59.9042428" lon="17.6425976">
        <ele>15.0377</ele>
        <time>2013-05-15T15:34:11Z</time>
      </trkpt>
      <trkpt lat="59.9043343" lon="17.6426428">
        <ele>15.0377</ele>
        <time>2013-05-15T15:34:12Z</time>
      </trkpt>
      <trkpt lat="59.9044245" lon="17.6426877">
        <ele>14.557</ele>
        <time>2013-05-15T15:34:13Z</time>
      </trkpt>
      <trkpt lat="59.9045136" lon="17.6427323">
        <ele>14.557</ele>
        <time>2013-05-15T15:34:14Z</time>
      </trkpt>
      <trkpt lat="59.9046007" lon="17.6427769">
        <ele>14.557</ele>
        <time>2013-05-15T15:34:15Z</time>
      </trkpt>
      <trkpt lat="59.9046875" lon="17.642818">
        <ele>14.557</ele>
        <time>2013-05-15T15:34:16Z</time>
      </trkpt>
      <trkpt lat="59.9047744" lon="17.6428575">
        <ele>14.557</ele>
        <time>2013-05-15T15:34:17Z</time>
      </trkpt>
      <trkpt lat="59.9048591" lon="17.6428983">
        <ele>14.0764</ele>
        <time>2013-05-15T15:34:18Z</time>
      </trkpt>
      <trkpt lat="59.9049451" lon="17.6429379">
        <ele>14.557</ele>
        <time>2013-05-15T15:34:19Z</time>
      </trkpt>
      <trkpt lat="59.9050293" lon="17.6429794">
        <ele>14.0764</ele>
        <time>2013-05-15T15:34:20Z</time>
      </trkpt>
      <trkpt lat="59.9051127" lon="17.643019">
        <ele>14.0764</ele>
        <time>2013-05-15T15:34:21Z</time>
      </trkpt>
      <trkpt lat="59.9051949" lon="17.6430563">
        <ele>13.5958</ele>
        <time>2013-05-15T15:34:22Z</time>
      </trkpt>
      <trkpt lat="59.9052766" lon="17.6430936">
        <ele>13.5958</ele>
        <time>2013-05-15T15:34:23Z</time>
      </trkpt>
      <trkpt lat="59.9053575" lon="17.6431325">
        <ele>13.5958</ele>
        <time>2013-05-15T15:34:24Z</time>
      </trkpt>
      <trkpt lat="59.9054366" lon="17.64317">
        <ele>13.1151</ele>
        <time>2013-05-15T15:34:25Z</time>
      </trkpt>
      <trkpt lat="59.9055164" lon="17.6432054">
        <ele>13.1151</ele>
        <time>2013-05-15T15:34:26Z</time>
      </trkpt>
      <trkpt lat="59.905596" lon="17.643241">
        <ele>13.1151</ele>
        <time>2013-05-15T15:34:27Z</time>
      </trkpt>
      <trkpt lat="59.9056737" lon="17.6432775">
        <ele>13.1151</ele>
        <time>2013-05-15T15:34:28Z</time>
      </trkpt>
      <trkpt lat="59.9057499" lon="17.6433158">
        <ele>13.1151</ele>
        <time>2013-05-15T15:34:29Z</time>
      </trkpt>
      <trkpt lat="59.9058262" lon="17.6433526">
        <ele>13.1151</ele>
        <time>2013-05-15T15:34:30Z</time>
      </trkpt>
      <trkpt lat="59.9059033" lon="17.6433869">
        <ele>13.1151</ele>
        <time>2013-05-15T15:34:31Z</time>
      </trkpt>
      <trkpt lat="59.9059804" lon="17.6434229">
        <ele>12.6344</ele>
        <time>2013-05-15T15:34:32Z</time>
      </trkpt>
      <trkpt lat="59.9060565" lon="17.6434588">
        <ele>12.6344</ele>
        <time>2013-05-15T15:34:33Z</time>
      </trkpt>
      <trkpt lat="59.9061355" lon="17.6434919">
        <ele>13.1151</ele>
        <time>2013-05-15T15:34:34Z</time>
      </trkpt>
      <trkpt lat="59.9062181" lon="17.6435189">
        <ele>13.5958</ele>
        <time>2013-05-15T15:34:35Z</time>
      </trkpt>
      <trkpt lat="59.9063006" lon="17.6435495">
        <ele>13.5958</ele>
        <time>2013-05-15T15:34:36Z</time>
      </trkpt>
      <trkpt lat="59.9063842" lon="17.6435814">
        <ele>14.0764</ele>
        <time>2013-05-15T15:34:37Z</time>
      </trkpt>
      <trkpt lat="59.9064681" lon="17.6436119">
        <ele>14.0764</ele>
        <time>2013-05-15T15:34:38Z</time>
      </trkpt>
      <trkpt lat="59.9065528" lon="17.6436412">
        <ele>14.557</ele>
        <time>2013-05-15T15:34:39Z</time>
      </trkpt>
      <trkpt lat="59.9066379" lon="17.6436711">
        <ele>14.557</ele>
        <time>2013-05-15T15:34:40Z</time>
      </trkpt>
      <trkpt lat="59.906724" lon="17.6437001">
        <ele>15.0377</ele>
        <time>2013-05-15T15:34:41Z</time>
      </trkpt>
      <trkpt lat="59.9068115" lon="17.6437269">
        <ele>15.0377</ele>
        <time>2013-05-15T15:34:42Z</time>
      </trkpt>
      <trkpt lat="59.9068974" lon="17.6437509">
        <ele>15.0377</ele>
        <time>2013-05-15T15:34:43Z</time>
      </trkpt>
      <trkpt lat="59.906981" lon="17.6437721">
        <ele>15.0377</ele>
        <time>2013-05-15T15:34:44Z</time>
      </trkpt>
      <trkpt lat="59.9070643" lon="17.6437925">
        <ele>15.0377</ele>
        <time>2013-05-15T15:34:45Z</time>
      </trkpt>
      <trkpt lat="59.9071471" lon="17.6438125">
        <ele>15.0377</ele>
        <time>2013-05-15T15:34:46Z</time>
      </trkpt>
      <trkpt lat="59.9072293" lon="17.6438316">
        <ele>15.0377</ele>
        <time>2013-05-15T15:34:47Z</time>
      </trkpt>
      <trkpt lat="59.9073103" lon="17.64385">
        <ele>15.0377</ele>
        <time>2013-05-15T15:34:48Z</time>
      </trkpt>
      <trkpt lat="59.9073905" lon="17.6438667">
        <ele>14.557</ele>
        <time>2013-05-15T15:34:49Z</time>
      </trkpt>
      <trkpt lat="59.9074709" lon="17.6438814">
        <ele>14.557</ele>
        <time>2013-05-15T15:34:50Z</time>
      </trkpt>
      <trkpt lat="59.9075515" lon="17.643896">
        <ele>14.557</ele>
        <time>2013-05-15T15:34:51Z</time>
      </trkpt>
      <trkpt lat="59.9076314" lon="17.6439099">
        <ele>15.0377</ele>
        <time>2013-05-15T15:34:52Z</time>
      </trkpt>
      <trkpt lat="59.9077108" lon="17.6439217">
        <ele>15.0377</ele>
        <time>2013-05-15T15:34:53Z</time>
      </trkpt>
      <trkpt lat="59.9077898" lon="17.6439296">
        <ele>15.0377</ele>
        <time>2013-05-15T15:34:54Z</time>
      </trkpt>
      <trkpt lat="59.9078672" lon="17.6439353">
        <ele>15.5184</ele>
        <time>2013-05-15T15:34:55Z</time>
      </trkpt>
      <trkpt lat="59.9079424" lon="17.6439431">
        <ele>15.5184</ele>
        <time>2013-05-15T15:34:56Z</time>
      </trkpt>
      <trkpt lat="59.9080154" lon="17.6439522">
        <ele>15.999</ele>
        <time>2013-05-15T15:34:57Z</time>
      </trkpt>
      <trkpt lat="59.9080868" lon="17.6439577">
        <ele>16.4797</ele>
        <time>2013-05-15T15:34:58Z</time>
      </trkpt>
      <trkpt lat="59.9081558" lon="17.6439618">
        <ele>16.4797</ele>
        <time>2013-05-15T15:34:59Z</time>
      </trkpt>
      <trkpt lat="59.9082211" lon="17.6439481">
        <ele>16.4797</ele>
        <time>2013-05-15T15:35:00Z</time>
      </trkpt>
      <trkpt lat="59.908275" lon="17.643842">
        <ele>17.4412</ele>
        <time>2013-05-15T15:35:01Z</time>
      </trkpt>
      <trkpt lat="59.9083234" lon="17.6437567">
        <ele>17.9218</ele>
        <time>2013-05-15T15:35:02Z</time>
      </trkpt>
      <trkpt lat="59.9083836" lon="17.6436976">
        <ele>17.9218</ele>
        <time>2013-05-15T15:35:03Z</time>
      </trkpt>
      <trkpt lat="59.9084547" lon="17.6436907">
        <ele>17.9218</ele>
        <time>2013-05-15T15:35:04Z</time>
      </trkpt>
      <trkpt lat="59.9085285" lon="17.6436945">
        <ele>17.9218</ele>
        <time>2013-05-15T15:35:05Z</time>
      </trkpt>
      <trkpt lat="59.9086064" lon="17.6436943">
        <ele>17.4412</ele>
        <time>2013-05-15T15:35:06Z</time>
      </trkpt>
      <trkpt lat="59.9086841" lon="17.643694">
        <ele>17.4412</ele>
        <time>2013-05-15T15:35:07Z</time>
      </trkpt>
      <trkpt lat="59.9087633" lon="17.6436903">
        <ele>16.9604</ele>
        <time>2013-05-15T15:35:08Z</time>
      </trkpt>
      <trkpt lat="59.9088441" lon="17.6436898">
        <ele>16.9604</ele>
        <time>2013-05-15T15:35:09Z</time>
      </trkpt>
      <trkpt lat="59.908925" lon="17.6436857">
        <ele>16.9604</ele>
        <time>2013-05-15T15:35:10Z</time>
      </trkpt>
      <trkpt lat="59.9090059" lon="17.6436798">
        <ele>16.9604</ele>
        <time>2013-05-15T15:35:11Z</time>
      </trkpt>
      <trkpt lat="59.9090871" lon="17.6436716">
        <ele>17.4412</ele>
        <time>2013-05-15T15:35:12Z</time>
      </trkpt>
      <trkpt lat="59.9091693" lon="17.6436623">
        <ele>17.4412</ele>
        <time>2013-05-15T15:35:13Z</time>
      </trkpt>
      <trkpt lat="59.9092529" lon="17.6436521">
        <ele>17.4412</ele>
        <time>2013-05-15T15:35:14Z</time>
      </trkpt>
      <trkpt lat="59.9093368" lon="17.6436389">
        <ele>17.9218</ele>
        <time>2013-05-15T15:35:15Z</time>
      </trkpt>
      <trkpt lat="59.9094212" lon="17.6436231">
        <ele>17.9218</ele>
        <time>2013-05-15T15:35:16Z</time>
      </trkpt>
      <trkpt lat="59.9095052" lon="17.6436058">
        <ele>17.9218</ele>
        <time>2013-05-15T15:35:17Z</time>
      </trkpt>
      <trkpt lat="59.9095896" lon="17.6435891">
        <ele>18.4023</ele>
        <time>2013-05-15T15:35:18Z</time>
      </trkpt>
      <trkpt lat="59.9096743" lon="17.6435717">
        <ele>18.8831</ele>
        <time>2013-05-15T15:35:19Z</time>
      </trkpt>
      <trkpt lat="59.9097577" lon="17.6435551">
        <ele>18.8831</ele>
        <time>2013-05-15T15:35:20Z</time>
      </trkpt>
      <trkpt lat="59.9098423" lon="17.6435516">
        <ele>18.8831</ele>
        <time>2013-05-15T15:35:21Z</time>
      </trkpt>
      <trkpt lat="59.9099268" lon="17.6435732">
        <ele>19.3638</ele>
        <time>2013-05-15T15:35:22Z</time>
      </trkpt>
      <trkpt lat="59.9100107" lon="17.6436079">
        <ele>19.8444</ele>
        <time>2013-05-15T15:35:23Z</time>
      </trkpt>
      <trkpt lat="59.9100899" lon="17.6436324">
        <ele>19.3638</ele>
        <time>2013-05-15T15:35:24Z</time>
      </trkpt>
      <trkpt lat="59.910169" lon="17.6436375">
        <ele>19.3638</ele>
        <time>2013-05-15T15:35:25Z</time>
      </trkpt>
      <trkpt lat="59.9102464" lon="17.6436318">
        <ele>19.8444</ele>
        <time>2013-05-15T15:35:26Z</time>
      </trkpt>
      <trkpt lat="59.9103257" lon="17.6436198">
        <ele>20.325</ele>
        <time>2013-05-15T15:35:27Z</time>
      </trkpt>
      <trkpt lat="59.9104076" lon="17.6435981">
        <ele>20.8057</ele>
        <time>2013-05-15T15:35:28Z</time>
      </trkpt>
      <trkpt lat="59.9104879" lon="17.6435633">
        <ele>20.8057</ele>
        <time>2013-05-15T15:35:29Z</time>
      </trkpt>
      <trkpt lat="59.9105679" lon="17.6435208">
        <ele>20.8057</ele>
        <time>2013-05-15T15:35:30Z</time>
      </trkpt>
      <trkpt lat="59.9106492" lon="17.6434845">
        <ele>20.325</ele>
        <time>2013-05-15T15:35:31Z</time>
      </trkpt>
      <trkpt lat="59.910731" lon="17.643462">
        <ele>20.325</ele>
        <time>2013-05-15T15:35:32Z</time>
      </trkpt>
      <trkpt lat="59.9108121" lon="17.6434456">
        <ele>20.325</ele>
        <time>2013-05-15T15:35:33Z</time>
      </trkpt>
      <trkpt lat="59.9108928" lon="17.6434329">
        <ele>20.325</ele>
        <time>2013-05-15T15:35:34Z</time>
      </trkpt>
      <trkpt lat="59.9109726" lon="17.643422">
        <ele>20.325</ele>
        <time>2013-05-15T15:35:35Z</time>
      </trkpt>
      <trkpt lat="59.9110507" lon="17.6434093">
        <ele>20.8057</ele>
        <time>2013-05-15T15:35:36Z</time>
      </trkpt>
      <trkpt lat="59.9111278" lon="17.6433956">
        <ele>20.325</ele>
        <time>2013-05-15T15:35:37Z</time>
      </trkpt>
      <trkpt lat="59.9112047" lon="17.6433785">
        <ele>19.8444</ele>
        <time>2013-05-15T15:35:38Z</time>
      </trkpt>
      <trkpt lat="59.9112833" lon="17.6433594">
        <ele>20.325</ele>
        <time>2013-05-15T15:35:39Z</time>
      </trkpt>
      <trkpt lat="59.9113609" lon="17.6433375">
        <ele>20.325</ele>
        <time>2013-05-15T15:35:40Z</time>
      </trkpt>
      <trkpt lat="59.9114369" lon="17.6433188">
        <ele>20.325</ele>
        <time>2013-05-15T15:35:41Z</time>
      </trkpt>
      <trkpt lat="59.9115149" lon="17.6433037">
        <ele>20.8057</ele>
        <time>2013-05-15T15:35:42Z</time>
      </trkpt>
      <trkpt lat="59.9115933" lon="17.6432921">
        <ele>20.325</ele>
        <time>2013-05-15T15:35:43Z</time>
      </trkpt>
      <trkpt lat="59.9116743" lon="17.6432812">
        <ele>20.325</ele>
        <time>2013-05-15T15:35:44Z</time>
      </trkpt>
      <trkpt lat="59.9117548" lon="17.6432681">
        <ele>20.325</ele>
        <time>2013-05-15T15:35:45Z</time>
      </trkpt>
      <trkpt lat="59.9118341" lon="17.6432472">
        <ele>20.325</ele>
        <time>2013-05-15T15:35:46Z</time>
      </trkpt>
      <trkpt lat="59.91191" lon="17.6432247">
        <ele>19.8444</ele>
        <time>2013-05-15T15:35:47Z</time>
      </trkpt>
      <trkpt lat="59.91199" lon="17.6431993">
        <ele>20.325</ele>
        <time>2013-05-15T15:35:48Z</time>
      </trkpt>
      <trkpt lat="59.9120706" lon="17.6431758">
        <ele>20.325</ele>
        <time>2013-05-15T15:35:49Z</time>
      </trkpt>
      <trkpt lat="59.9121528" lon="17.6431505">
        <ele>20.325</ele>
        <time>2013-05-15T15:35:50Z</time>
      </trkpt>
      <trkpt lat="59.9122376" lon="17.6431206">
        <ele>19.8444</ele>
        <time>2013-05-15T15:35:51Z</time>
      </trkpt>
      <trkpt lat="59.912324" lon="17.643093">
        <ele>19.8444</ele>
        <time>2013-05-15T15:35:52Z</time>
      </trkpt>
      <trkpt lat="59.9124101" lon="17.6430739">
        <ele>19.8444</ele>
        <time>2013-05-15T15:35:53Z</time>
      </trkpt>
      <trkpt lat="59.9124959" lon="17.6430645">
        <ele>19.8444</ele>
        <time>2013-05-15T15:35:54Z</time>
      </trkpt>
      <trkpt lat="59.91258" lon="17.643077">
        <ele>19.8444</ele>
        <time>2013-05-15T15:35:55Z</time>
      </trkpt>
      <trkpt lat="59.9126628" lon="17.6431092">
        <ele>20.8057</ele>
        <time>2013-05-15T15:35:56Z</time>
      </trkpt>
      <trkpt lat="59.912741" lon="17.6431397">
        <ele>21.2864</ele>
        <time>2013-05-15T15:35:57Z</time>
      </trkpt>
      <trkpt lat="59.9128178" lon="17.6431574">
        <ele>21.2864</ele>
        <time>2013-05-15T15:35:58Z</time>
      </trkpt>
      <trkpt lat="59.9128963" lon="17.6431577">
        <ele>20.8057</ele>
        <time>2013-05-15T15:35:59Z</time>
      </trkpt>
      <trkpt lat="59.9129784" lon="17.6431479">
        <ele>20.8057</ele>
        <time>2013-05-15T15:36:00Z</time>
      </trkpt>
      <trkpt lat="59.9130598" lon="17.6431344">
        <ele>20.325</ele>
        <time>2013-05-15T15:36:01Z</time>
      </trkpt>
      <trkpt lat="59.9131391" lon="17.6431133">
        <ele>19.3638</ele>
        <time>2013-05-15T15:36:02Z</time>
      </trkpt>
      <trkpt lat="59.9132186" lon="17.6430967">
        <ele>19.3638</ele>
        <time>2013-05-15T15:36:03Z</time>
      </trkpt>
      <trkpt lat="59.9132953" lon="17.6430796">
        <ele>18.8831</ele>
        <time>2013-05-15T15:36:04Z</time>
      </trkpt>
      <trkpt lat="59.9133729" lon="17.6430607">
        <ele>18.8831</ele>
        <time>2013-05-15T15:36:05Z</time>
      </trkpt>
      <trkpt lat="59.9134502" lon="17.6430428">
        <ele>18.8831</ele>
        <time>2013-05-15T15:36:06Z</time>
      </trkpt>
      <trkpt lat="59.913529" lon="17.6430282">
        <ele>18.8831</ele>
        <time>2013-05-15T15:36:07Z</time>
      </trkpt>
      <trkpt lat="59.9136087" lon="17.6430156">
        <ele>18.4023</ele>
        <time>2013-05-15T15:36:08Z</time>
      </trkpt>
      <trkpt lat="59.9136904" lon="17.6429985">
        <ele>17.9218</ele>
        <time>2013-05-15T15:36:09Z</time>
      </trkpt>
      <trkpt lat="59.9137719" lon="17.6429794">
        <ele>17.4412</ele>
        <time>2013-05-15T15:36:10Z</time>
      </trkpt>
      <trkpt lat="59.9138549" lon="17.6429625">
        <ele>17.4412</ele>
        <time>2013-05-15T15:36:11Z</time>
      </trkpt>
      <trkpt lat="59.9139381" lon="17.6429459">
        <ele>17.4412</ele>
        <time>2013-05-15T15:36:12Z</time>
      </trkpt>
      <trkpt lat="59.9140211" lon="17.6429298">
        <ele>17.9218</ele>
        <time>2013-05-15T15:36:13Z</time>
      </trkpt>
      <trkpt lat="59.9141035" lon="17.6429136">
        <ele>16.4797</ele>
        <time>2013-05-15T15:36:14Z</time>
      </trkpt>
      <trkpt lat="59.9141865" lon="17.6428955">
        <ele>14.557</ele>
        <time>2013-05-15T15:36:15Z</time>
      </trkpt>
      <trkpt lat="59.9142716" lon="17.64288">
        <ele>14.0764</ele>
        <time>2013-05-15T15:36:16Z</time>
      </trkpt>
      <trkpt lat="59.9143576" lon="17.6428651">
        <ele>14.0764</ele>
        <time>2013-05-15T15:36:17Z</time>
      </trkpt>
      <trkpt lat="59.9144432" lon="17.642851">
        <ele>13.5958</ele>
        <time>2013-05-15T15:36:18Z</time>
      </trkpt>
      <trkpt lat="59.9145306" lon="17.6428345">
        <ele>13.5958</ele>
        <time>2013-05-15T15:36:19Z</time>
      </trkpt>
      <trkpt lat="59.9146173" lon="17.6428178">
        <ele>13.1151</ele>
        <time>2013-05-15T15:36:20Z</time>
      </trkpt>
      <trkpt lat="59.9147049" lon="17.6428028">
        <ele>13.1151</ele>
        <time>2013-05-15T15:36:21Z</time>
      </trkpt>
      <trkpt lat="59.9147926" lon="17.6427865">
        <ele>12.6344</ele>
        <time>2013-05-15T15:36:22Z</time>
      </trkpt>
      <trkpt lat="59.9148805" lon="17.6427682">
        <ele>12.6344</ele>
        <time>2013-05-15T15:36:23Z</time>
      </trkpt>
      <trkpt lat="59.914968" lon="17.6427496">
        <ele>12.6344</ele>
        <time>2013-05-15T15:36:24Z</time>
      </trkpt>
      <trkpt lat="59.9150556" lon="17.6427278">
        <ele>11.6732</ele>
        <time>2013-05-15T15:36:25Z</time>
      </trkpt>
      <trkpt lat="59.9151422" lon="17.6426942">
        <ele>11.1925</ele>
        <time>2013-05-15T15:36:26Z</time>
      </trkpt>
      <trkpt lat="59.9152284" lon="17.6426416">
        <ele>10.2312</ele>
        <time>2013-05-15T15:36:27Z</time>
      </trkpt>
      <trkpt lat="59.9153204" lon="17.6425838">
        <ele>9.75061</ele>
        <time>2013-05-15T15:36:28Z</time>
      </trkpt>
      <trkpt lat="59.9154192" lon="17.6425398">
        <ele>9.2699</ele>
        <time>2013-05-15T15:36:29Z</time>
      </trkpt>
      <trkpt lat="59.9155202" lon="17.6425116">
        <ele>9.75061</ele>
        <time>2013-05-15T15:36:30Z</time>
      </trkpt>
      <trkpt lat="59.9156201" lon="17.6424927">
        <ele>9.2699</ele>
        <time>2013-05-15T15:36:31Z</time>
      </trkpt>
      <trkpt lat="59.9157191" lon="17.6424791">
        <ele>9.2699</ele>
        <time>2013-05-15T15:36:32Z</time>
      </trkpt>
      <trkpt lat="59.9158169" lon="17.642471">
        <ele>9.2699</ele>
        <time>2013-05-15T15:36:33Z</time>
      </trkpt>
      <trkpt lat="59.9159133" lon="17.6424688">
        <ele>9.75061</ele>
        <time>2013-05-15T15:36:34Z</time>
      </trkpt>
      <trkpt lat="59.9160077" lon="17.64247">
        <ele>9.75061</ele>
        <time>2013-05-15T15:36:35Z</time>
      </trkpt>
      <trkpt lat="59.9161014" lon="17.6424699">
        <ele>9.75061</ele>
        <time>2013-05-15T15:36:36Z</time>
      </trkpt>
      <trkpt lat="59.9161931" lon="17.6424676">
        <ele>9.75061</ele>
        <time>2013-05-15T15:36:37Z</time>
      </trkpt>
      <trkpt lat="59.9162839" lon="17.6424631">
        <ele>9.75061</ele>
        <time>2013-05-15T15:36:38Z</time>
      </trkpt>
      <trkpt lat="59.9163738" lon="17.6424534">
        <ele>9.75061</ele>
        <time>2013-05-15T15:36:39Z</time>
      </trkpt>
      <trkpt lat="59.9164635" lon="17.6424392">
        <ele>9.2699</ele>
        <time>2013-05-15T15:36:40Z</time>
      </trkpt>
      <trkpt lat="59.9165532" lon="17.6424256">
        <ele>9.2699</ele>
        <time>2013-05-15T15:36:41Z</time>
      </trkpt>
      <trkpt lat="59.9166437" lon="17.6424134">
        <ele>9.2699</ele>
        <time>2013-05-15T15:36:42Z</time>
      </trkpt>
      <trkpt lat="59.916736" lon="17.6424002">
        <ele>8.78918</ele>
        <time>2013-05-15T15:36:43Z</time>
      </trkpt>
      <trkpt lat="59.9168304" lon="17.6423837">
        <ele>8.78918</ele>
        <time>2013-05-15T15:36:44Z</time>
      </trkpt>
      <trkpt lat="59.9169265" lon="17.6423648">
        <ele>8.30859</ele>
        <time>2013-05-15T15:36:45Z</time>
      </trkpt>
      <trkpt lat="59.9170244" lon="17.6423405">
        <ele>8.30859</ele>
        <time>2013-05-15T15:36:46Z</time>
      </trkpt>
      <trkpt lat="59.9171228" lon="17.6423124">
        <ele>8.30859</ele>
        <time>2013-05-15T15:36:47Z</time>
      </trkpt>
      <trkpt lat="59.9172229" lon="17.6422951">
        <ele>8.30859</ele>
        <time>2013-05-15T15:36:48Z</time>
      </trkpt>
      <trkpt lat="59.9173225" lon="17.6422926">
        <ele>8.30859</ele>
        <time>2013-05-15T15:36:49Z</time>
      </trkpt>
      <trkpt lat="59.9174219" lon="17.6422913">
        <ele>8.78918</ele>
        <time>2013-05-15T15:36:50Z</time>
      </trkpt>
      <trkpt lat="59.9175206" lon="17.6422885">
        <ele>8.78918</ele>
        <time>2013-05-15T15:36:51Z</time>
      </trkpt>
      <trkpt lat="59.9176178" lon="17.6422896">
        <ele>8.78918</ele>
        <time>2013-05-15T15:36:52Z</time>
      </trkpt>
      <trkpt lat="59.9177146" lon="17.6422904">
        <ele>9.2699</ele>
        <time>2013-05-15T15:36:53Z</time>
      </trkpt>
      <trkpt lat="59.9178094" lon="17.642286">
        <ele>8.78918</ele>
        <time>2013-05-15T15:36:54Z</time>
      </trkpt>
      <trkpt lat="59.9179039" lon="17.6422792">
        <ele>9.2699</ele>
        <time>2013-05-15T15:36:55Z</time>
      </trkpt>
      <trkpt lat="59.9179978" lon="17.6422718">
        <ele>9.2699</ele>
        <time>2013-05-15T15:36:56Z</time>
      </trkpt>
      <trkpt lat="59.9180917" lon="17.6422645">
        <ele>9.75061</ele>
        <time>2013-05-15T15:36:57Z</time>
      </trkpt>
      <trkpt lat="59.918185" lon="17.6422564">
        <ele>9.75061</ele>
        <time>2013-05-15T15:36:58Z</time>
      </trkpt>
      <trkpt lat="59.9182777" lon="17.6422475">
        <ele>10.7118</ele>
        <time>2013-05-15T15:36:59Z</time>
      </trkpt>
      <trkpt lat="59.9183682" lon="17.642236">
        <ele>10.7118</ele>
        <time>2013-05-15T15:37:00Z</time>
      </trkpt>
      <trkpt lat="59.9184589" lon="17.6422228">
        <ele>11.1925</ele>
        <time>2013-05-15T15:37:01Z</time>
      </trkpt>
      <trkpt lat="59.9185504" lon="17.6422143">
        <ele>11.6732</ele>
        <time>2013-05-15T15:37:02Z</time>
      </trkpt>
      <trkpt lat="59.9186426" lon="17.6422034">
        <ele>12.1538</ele>
        <time>2013-05-15T15:37:03Z</time>
      </trkpt>
      <trkpt lat="59.9187333" lon="17.6421891">
        <ele>12.1538</ele>
        <time>2013-05-15T15:37:04Z</time>
      </trkpt>
      <trkpt lat="59.9188205" lon="17.6421767">
        <ele>12.6344</ele>
        <time>2013-05-15T15:37:05Z</time>
      </trkpt>
      <trkpt lat="59.918906" lon="17.6421642">
        <ele>12.6344</ele>
        <time>2013-05-15T15:37:06Z</time>
      </trkpt>
      <trkpt lat="59.9189899" lon="17.6421533">
        <ele>12.6344</ele>
        <time>2013-05-15T15:37:07Z</time>
      </trkpt>
      <trkpt lat="59.9190722" lon="17.6421434">
        <ele>13.1151</ele>
        <time>2013-05-15T15:37:08Z</time>
      </trkpt>
      <trkpt lat="59.9191536" lon="17.6421352">
        <ele>13.1151</ele>
        <time>2013-05-15T15:37:09Z</time>
      </trkpt>
      <trkpt lat="59.9192354" lon="17.6421278">
        <ele>13.1151</ele>
        <time>2013-05-15T15:37:10Z</time>
      </trkpt>
      <trkpt lat="59.9193178" lon="17.6421195">
        <ele>13.1151</ele>
        <time>2013-05-15T15:37:11Z</time>
      </trkpt>
      <trkpt lat="59.9194002" lon="17.6421122">
        <ele>13.1151</ele>
        <time>2013-05-15T15:37:12Z</time>
      </trkpt>
      <trkpt lat="59.9194831" lon="17.6421047">
        <ele>13.5958</ele>
        <time>2013-05-15T15:37:13Z</time>
      </trkpt>
      <trkpt lat="59.9195643" lon="17.6420974">
        <ele>13.5958</ele>
        <time>2013-05-15T15:37:14Z</time>
      </trkpt>
      <trkpt lat="59.9196453" lon="17.6420863">
        <ele>13.5958</ele>
        <time>2013-05-15T15:37:15Z</time>
      </trkpt>
      <trkpt lat="59.919726" lon="17.6420709">
        <ele>13.5958</ele>
        <time>2013-05-15T15:37:16Z</time>
      </trkpt>
      <trkpt lat="59.9198064" lon="17.6420493">
        <ele>13.5958</ele>
        <time>2013-05-15T15:37:17Z</time>
      </trkpt>
      <trkpt lat="59.9198875" lon="17.6420259">
        <ele>13.5958</ele>
        <time>2013-05-15T15:37:18Z</time>
      </trkpt>
      <trkpt lat="59.9199694" lon="17.6420092">
        <ele>13.5958</ele>
        <time>2013-05-15T15:37:19Z</time>
      </trkpt>
      <trkpt lat="59.9200523" lon="17.6419995">
        <ele>13.5958</ele>
        <time>2013-05-15T15:37:20Z</time>
      </trkpt>
      <trkpt lat="59.9201347" lon="17.6419954">
        <ele>13.5958</ele>
        <time>2013-05-15T15:37:21Z</time>
      </trkpt>
      <trkpt lat="59.9202151" lon="17.6419928">
        <ele>13.5958</ele>
        <time>2013-05-15T15:37:22Z</time>
      </trkpt>
      <trkpt lat="59.9202958" lon="17.641988">
        <ele>13.5958</ele>
        <time>2013-05-15T15:37:23Z</time>
      </trkpt>
      <trkpt lat="59.9203787" lon="17.6419824">
        <ele>13.5958</ele>
        <time>2013-05-15T15:37:24Z</time>
      </trkpt>
      <trkpt lat="59.9204624" lon="17.6419783">
        <ele>13.5958</ele>
        <time>2013-05-15T15:37:25Z</time>
      </trkpt>
      <trkpt lat="59.9205461" lon="17.6419772">
        <ele>13.5958</ele>
        <time>2013-05-15T15:37:26Z</time>
      </trkpt>
      <trkpt lat="59.9206299" lon="17.6419777">
        <ele>13.5958</ele>
        <time>2013-05-15T15:37:27Z</time>
      </trkpt>
      <trkpt lat="59.9207132" lon="17.6419771">
        <ele>13.5958</ele>
        <time>2013-05-15T15:37:28Z</time>
      </trkpt>
      <trkpt lat="59.9207962" lon="17.641974">
        <ele>13.1151</ele>
        <time>2013-05-15T15:37:29Z</time>
      </trkpt>
      <trkpt lat="59.9208792" lon="17.6419732">
        <ele>13.1151</ele>
        <time>2013-05-15T15:37:30Z</time>
      </trkpt>
      <trkpt lat="59.9209605" lon="17.6419725">
        <ele>13.1151</ele>
        <time>2013-05-15T15:37:31Z</time>
      </trkpt>
      <trkpt lat="59.9210412" lon="17.6419691">
        <ele>13.1151</ele>
        <time>2013-05-15T15:37:32Z</time>
      </trkpt>
      <trkpt lat="59.9211215" lon="17.6419638">
        <ele>13.5958</ele>
        <time>2013-05-15T15:37:33Z</time>
      </trkpt>
      <trkpt lat="59.9212019" lon="17.6419555">
        <ele>14.0764</ele>
        <time>2013-05-15T15:37:34Z</time>
      </trkpt>
      <trkpt lat="59.9212799" lon="17.6419473">
        <ele>15.0377</ele>
        <time>2013-05-15T15:37:35Z</time>
      </trkpt>
      <trkpt lat="59.9213562" lon="17.6419375">
        <ele>15.5184</ele>
        <time>2013-05-15T15:37:36Z</time>
      </trkpt>
      <trkpt lat="59.9214333" lon="17.6419269">
        <ele>16.4797</ele>
        <time>2013-05-15T15:37:37Z</time>
      </trkpt>
      <trkpt lat="59.92151" lon="17.6419177">
        <ele>16.9604</ele>
        <time>2013-05-15T15:37:38Z</time>
      </trkpt>
      <trkpt lat="59.9215842" lon="17.6419077">
        <ele>17.9218</ele>
        <time>2013-05-15T15:37:39Z</time>
      </trkpt>
      <trkpt lat="59.9216583" lon="17.6418943">
        <ele>17.4412</ele>
        <time>2013-05-15T15:37:40Z</time>
      </trkpt>
      <trkpt lat="59.9217344" lon="17.6418822">
        <ele>17.4412</ele>
        <time>2013-05-15T15:37:41Z</time>
      </trkpt>
      <trkpt lat="59.9218129" lon="17.6418715">
        <ele>17.4412</ele>
        <time>2013-05-15T15:37:42Z</time>
      </trkpt>
      <trkpt lat="59.9218928" lon="17.6418638">
        <ele>16.9604</ele>
        <time>2013-05-15T15:37:43Z</time>
      </trkpt>
      <trkpt lat="59.9219747" lon="17.6418569">
        <ele>16.9604</ele>
        <time>2013-05-15T15:37:44Z</time>
      </trkpt>
      <trkpt lat="59.9220568" lon="17.6418488">
        <ele>16.9604</ele>
        <time>2013-05-15T15:37:45Z</time>
      </trkpt>
      <trkpt lat="59.9221381" lon="17.6418384">
        <ele>16.9604</ele>
        <time>2013-05-15T15:37:46Z</time>
      </trkpt>
      <trkpt lat="59.9222191" lon="17.6418265">
        <ele>17.4412</ele>
        <time>2013-05-15T15:37:47Z</time>
      </trkpt>
      <trkpt lat="59.9222984" lon="17.6418166">
        <ele>17.4412</ele>
        <time>2013-05-15T15:37:48Z</time>
      </trkpt>
      <trkpt lat="59.9223773" lon="17.6418056">
        <ele>17.4412</ele>
        <time>2013-05-15T15:37:49Z</time>
      </trkpt>
      <trkpt lat="59.9224564" lon="17.6417942">
        <ele>17.4412</ele>
        <time>2013-05-15T15:37:50Z</time>
      </trkpt>
      <trkpt lat="59.922536" lon="17.6417838">
        <ele>16.9604</ele>
        <time>2013-05-15T15:37:51Z</time>
      </trkpt>
      <trkpt lat="59.9226152" lon="17.6417711">
        <ele>16.9604</ele>
        <time>2013-05-15T15:37:52Z</time>
      </trkpt>
      <trkpt lat="59.9226937" lon="17.6417597">
        <ele>16.4797</ele>
        <time>2013-05-15T15:37:53Z</time>
      </trkpt>
      <trkpt lat="59.9227727" lon="17.6417494">
        <ele>16.4797</ele>
        <time>2013-05-15T15:37:54Z</time>
      </trkpt>
      <trkpt lat="59.9228525" lon="17.64174">
        <ele>15.999</ele>
        <time>2013-05-15T15:37:55Z</time>
      </trkpt>
      <trkpt lat="59.9229343" lon="17.6417321">
        <ele>15.999</ele>
        <time>2013-05-15T15:37:56Z</time>
      </trkpt>
      <trkpt lat="59.9230179" lon="17.6417243">
        <ele>15.5184</ele>
        <time>2013-05-15T15:37:57Z</time>
      </trkpt>
      <trkpt lat="59.9231029" lon="17.6417155">
        <ele>15.5184</ele>
        <time>2013-05-15T15:37:58Z</time>
      </trkpt>
      <trkpt lat="59.9231898" lon="17.6417043">
        <ele>15.5184</ele>
        <time>2013-05-15T15:37:59Z</time>
      </trkpt>
      <trkpt lat="59.923278" lon="17.6416908">
        <ele>15.0377</ele>
        <time>2013-05-15T15:38:00Z</time>
      </trkpt>
      <trkpt lat="59.9233674" lon="17.6416778">
        <ele>15.0377</ele>
        <time>2013-05-15T15:38:01Z</time>
      </trkpt>
      <trkpt lat="59.9234582" lon="17.6416643">
        <ele>14.557</ele>
        <time>2013-05-15T15:38:02Z</time>
      </trkpt>
      <trkpt lat="59.9235506" lon="17.6416494">
        <ele>14.557</ele>
        <time>2013-05-15T15:38:03Z</time>
      </trkpt>
      <trkpt lat="59.9236445" lon="17.6416349">
        <ele>14.0764</ele>
        <time>2013-05-15T15:38:04Z</time>
      </trkpt>
      <trkpt lat="59.923738" lon="17.641624">
        <ele>14.0764</ele>
        <time>2013-05-15T15:38:05Z</time>
      </trkpt>
      <trkpt lat="59.9238317" lon="17.6416139">
        <ele>14.0764</ele>
        <time>2013-05-15T15:38:06Z</time>
      </trkpt>
      <trkpt lat="59.923925" lon="17.6416016">
        <ele>14.0764</ele>
        <time>2013-05-15T15:38:07Z</time>
      </trkpt>
      <trkpt lat="59.9240185" lon="17.6415887">
        <ele>14.0764</ele>
        <time>2013-05-15T15:38:08Z</time>
      </trkpt>
      <trkpt lat="59.9241125" lon="17.6415805">
        <ele>13.5958</ele>
        <time>2013-05-15T15:38:09Z</time>
      </trkpt>
      <trkpt lat="59.9242063" lon="17.6415762">
        <ele>13.5958</ele>
        <time>2013-05-15T15:38:10Z</time>
      </trkpt>
      <trkpt lat="59.9242999" lon="17.6415701">
        <ele>13.5958</ele>
        <time>2013-05-15T15:38:11Z</time>
      </trkpt>
      <trkpt lat="59.9243928" lon="17.64156">
        <ele>13.5958</ele>
        <time>2013-05-15T15:38:12Z</time>
      </trkpt>
      <trkpt lat="59.9244859" lon="17.6415472">
        <ele>13.5958</ele>
        <time>2013-05-15T15:38:13Z</time>
      </trkpt>
      <trkpt lat="59.9245788" lon="17.6415317">
        <ele>13.5958</ele>
        <time>2013-05-15T15:38:14Z</time>
      </trkpt>
      <trkpt lat="59.9246714" lon="17.6415131">
        <ele>13.1151</ele>
        <time>2013-05-15T15:38:15Z</time>
      </trkpt>
      <trkpt lat="59.924764" lon="17.641492">
        <ele>13.1151</ele>
        <time>2013-05-15T15:38:16Z</time>
      </trkpt>
      <trkpt lat="59.924857" lon="17.6414732">
        <ele>13.1151</ele>
        <time>2013-05-15T15:38:17Z</time>
      </trkpt>
      <trkpt lat="59.9249511" lon="17.6414621">
        <ele>13.1151</ele>
        <time>2013-05-15T15:38:18Z</time>
      </trkpt>
      <trkpt lat="59.925046" lon="17.6414577">
        <ele>13.1151</ele>
        <time>2013-05-15T15:38:19Z</time>
      </trkpt>
      <trkpt lat="59.9251416" lon="17.6414552">
        <ele>12.6344</ele>
        <time>2013-05-15T15:38:20Z</time>
      </trkpt>
      <trkpt lat="59.9252372" lon="17.6414521">
        <ele>12.6344</ele>
        <time>2013-05-15T15:38:21Z</time>
      </trkpt>
      <trkpt lat="59.9253325" lon="17.6414481">
        <ele>12.6344</ele>
        <time>2013-05-15T15:38:22Z</time>
      </trkpt>
      <trkpt lat="59.9254287" lon="17.6414425">
        <ele>12.6344</ele>
        <time>2013-05-15T15:38:23Z</time>
      </trkpt>
      <trkpt lat="59.9255256" lon="17.6414349">
        <ele>12.1538</ele>
        <time>2013-05-15T15:38:24Z</time>
      </trkpt>
      <trkpt lat="59.9256226" lon="17.6414243">
        <ele>12.1538</ele>
        <time>2013-05-15T15:38:25Z</time>
      </trkpt>
      <trkpt lat="59.9257199" lon="17.6414109">
        <ele>12.1538</ele>
        <time>2013-05-15T15:38:26Z</time>
      </trkpt>
      <trkpt lat="59.9258176" lon="17.6413971">
        <ele>11.6732</ele>
        <time>2013-05-15T15:38:27Z</time>
      </trkpt>
      <trkpt lat="59.9259156" lon="17.6413829">
        <ele>11.6732</ele>
        <time>2013-05-15T15:38:28Z</time>
      </trkpt>
      <trkpt lat="59.9260141" lon="17.6413684">
        <ele>11.6732</ele>
        <time>2013-05-15T15:38:29Z</time>
      </trkpt>
      <trkpt lat="59.9261129" lon="17.6413546">
        <ele>11.6732</ele>
        <time>2013-05-15T15:38:30Z</time>
      </trkpt>
      <trkpt lat="59.9262116" lon="17.6413414">
        <ele>11.6732</ele>
        <time>2013-05-15T15:38:31Z</time>
      </trkpt>
      <trkpt lat="59.9263104" lon="17.6413288">
        <ele>11.1925</ele>
        <time>2013-05-15T15:38:32Z</time>
      </trkpt>
      <trkpt lat="59.9264092" lon="17.6413173">
        <ele>11.1925</ele>
        <time>2013-05-15T15:38:33Z</time>
      </trkpt>
      <trkpt lat="59.9265074" lon="17.6413063">
        <ele>11.1925</ele>
        <time>2013-05-15T15:38:34Z</time>
      </trkpt>
      <trkpt lat="59.9266052" lon="17.6412943">
        <ele>11.1925</ele>
        <time>2013-05-15T15:38:35Z</time>
      </trkpt>
      <trkpt lat="59.9267023" lon="17.6412815">
        <ele>11.1925</ele>
        <time>2013-05-15T15:38:36Z</time>
      </trkpt>
      <trkpt lat="59.9267994" lon="17.6412686">
        <ele>11.1925</ele>
        <time>2013-05-15T15:38:37Z</time>
      </trkpt>
      <trkpt lat="59.9268968" lon="17.6412576">
        <ele>11.1925</ele>
        <time>2013-05-15T15:38:38Z</time>
      </trkpt>
      <trkpt lat="59.9269941" lon="17.6412489">
        <ele>11.1925</ele>
        <time>2013-05-15T15:38:39Z</time>
      </trkpt>
      <trkpt lat="59.9270909" lon="17.6412402">
        <ele>11.1925</ele>
        <time>2013-05-15T15:38:40Z</time>
      </trkpt>
      <trkpt lat="59.9271874" lon="17.6412316">
        <ele>11.1925</ele>
        <time>2013-05-15T15:38:41Z</time>
      </trkpt>
      <trkpt lat="59.9272838" lon="17.6412245">
        <ele>11.1925</ele>
        <time>2013-05-15T15:38:42Z</time>
      </trkpt>
      <trkpt lat="59.9273804" lon="17.6412164">
        <ele>11.1925</ele>
        <time>2013-05-15T15:38:43Z</time>
      </trkpt>
      <trkpt lat="59.9274764" lon="17.6412074">
        <ele>11.1925</ele>
        <time>2013-05-15T15:38:44Z</time>
      </trkpt>
      <trkpt lat="59.9275728" lon="17.6411985">
        <ele>11.1925</ele>
        <time>2013-05-15T15:38:45Z</time>
      </trkpt>
      <trkpt lat="59.9276693" lon="17.6411869">
        <ele>10.7118</ele>
        <time>2013-05-15T15:38:46Z</time>
      </trkpt>
      <trkpt lat="59.9277655" lon="17.6411754">
        <ele>10.2312</ele>
        <time>2013-05-15T15:38:47Z</time>
      </trkpt>
      <trkpt lat="59.9278619" lon="17.6411638">
        <ele>9.75061</ele>
        <time>2013-05-15T15:38:48Z</time>
      </trkpt>
      <trkpt lat="59.9279581" lon="17.6411505">
        <ele>9.2699</ele>
        <time>2013-05-15T15:38:49Z</time>
      </trkpt>
      <trkpt lat="59.928054" lon="17.641137">
        <ele>9.2699</ele>
        <time>2013-05-15T15:38:50Z</time>
      </trkpt>
      <trkpt lat="59.9281502" lon="17.6411255">
        <ele>8.78918</ele>
        <time>2013-05-15T15:38:51Z</time>
      </trkpt>
      <trkpt lat="59.9282456" lon="17.6411151">
        <ele>8.78918</ele>
        <time>2013-05-15T15:38:52Z</time>
      </trkpt>
      <trkpt lat="59.9283405" lon="17.6411037">
        <ele>8.30859</ele>
        <time>2013-05-15T15:38:53Z</time>
      </trkpt>
      <trkpt lat="59.9284351" lon="17.6410902">
        <ele>8.30859</ele>
        <time>2013-05-15T15:38:54Z</time>
      </trkpt>
      <trkpt lat="59.9285281" lon="17.6410767">
        <ele>7.82788</ele>
        <time>2013-05-15T15:38:55Z</time>
      </trkpt>
      <trkpt lat="59.9286206" lon="17.6410614">
        <ele>7.82788</ele>
        <time>2013-05-15T15:38:56Z</time>
      </trkpt>
      <trkpt lat="59.9287129" lon="17.6410429">
        <ele>7.82788</ele>
        <time>2013-05-15T15:38:57Z</time>
      </trkpt>
      <trkpt lat="59.928807" lon="17.6410216">
        <ele>7.82788</ele>
        <time>2013-05-15T15:38:58Z</time>
      </trkpt>
      <trkpt lat="59.9289019" lon="17.6410018">
        <ele>7.82788</ele>
        <time>2013-05-15T15:38:59Z</time>
      </trkpt>
      <trkpt lat="59.9289969" lon="17.6409866">
        <ele>7.82788</ele>
        <time>2013-05-15T15:39:00Z</time>
      </trkpt>
      <trkpt lat="59.9290922" lon="17.6409775">
        <ele>7.82788</ele>
        <time>2013-05-15T15:39:01Z</time>
      </trkpt>
      <trkpt lat="59.9291875" lon="17.6409729">
        <ele>8.30859</ele>
        <time>2013-05-15T15:39:02Z</time>
      </trkpt>
      <trkpt lat="59.9292827" lon="17.6409698">
        <ele>8.30859</ele>
        <time>2013-05-15T15:39:03Z</time>
      </trkpt>
      <trkpt lat="59.9293781" lon="17.6409614">
        <ele>8.30859</ele>
        <time>2013-05-15T15:39:04Z</time>
      </trkpt>
      <trkpt lat="59.9294734" lon="17.6409458">
        <ele>8.78918</ele>
        <time>2013-05-15T15:39:05Z</time>
      </trkpt>
      <trkpt lat="59.9295683" lon="17.6409275">
        <ele>9.2699</ele>
        <time>2013-05-15T15:39:06Z</time>
      </trkpt>
      <trkpt lat="59.9296624" lon="17.6409084">
        <ele>9.2699</ele>
        <time>2013-05-15T15:39:07Z</time>
      </trkpt>
      <trkpt lat="59.9297546" lon="17.6408913">
        <ele>9.75061</ele>
        <time>2013-05-15T15:39:08Z</time>
      </trkpt>
      <trkpt lat="59.9298457" lon="17.6408814">
        <ele>9.75061</ele>
        <time>2013-05-15T15:39:09Z</time>
      </trkpt>
      <trkpt lat="59.9299386" lon="17.6408774">
        <ele>9.75061</ele>
        <time>2013-05-15T15:39:10Z</time>
      </trkpt>
      <trkpt lat="59.9300333" lon="17.640877">
        <ele>10.2312</ele>
        <time>2013-05-15T15:39:11Z</time>
      </trkpt>
      <trkpt lat="59.9301276" lon="17.6408805">
        <ele>10.2312</ele>
        <time>2013-05-15T15:39:12Z</time>
      </trkpt>
      <trkpt lat="59.9302217" lon="17.6408823">
        <ele>10.2312</ele>
        <time>2013-05-15T15:39:13Z</time>
      </trkpt>
      <trkpt lat="59.9303147" lon="17.6408842">
        <ele>10.7118</ele>
        <time>2013-05-15T15:39:14Z</time>
      </trkpt>
      <trkpt lat="59.9304068" lon="17.6408843">
        <ele>10.7118</ele>
        <time>2013-05-15T15:39:15Z</time>
      </trkpt>
      <trkpt lat="59.9304975" lon="17.6408789">
        <ele>10.7118</ele>
        <time>2013-05-15T15:39:16Z</time>
      </trkpt>
      <trkpt lat="59.9305861" lon="17.6408673">
        <ele>11.1925</ele>
        <time>2013-05-15T15:39:17Z</time>
      </trkpt>
      <trkpt lat="59.9306724" lon="17.6408537">
        <ele>11.1925</ele>
        <time>2013-05-15T15:39:18Z</time>
      </trkpt>
      <trkpt lat="59.930758" lon="17.6408469">
        <ele>11.1925</ele>
        <time>2013-05-15T15:39:19Z</time>
      </trkpt>
      <trkpt lat="59.9308443" lon="17.6408567">
        <ele>11.1925</ele>
        <time>2013-05-15T15:39:20Z</time>
      </trkpt>
      <trkpt lat="59.930932" lon="17.6408843">
        <ele>11.1925</ele>
        <time>2013-05-15T15:39:21Z</time>
      </trkpt>
      <trkpt lat="59.931019" lon="17.6409312">
        <ele>11.1925</ele>
        <time>2013-05-15T15:39:22Z</time>
      </trkpt>
      <trkpt lat="59.9311036" lon="17.6409889">
        <ele>11.1925</ele>
        <time>2013-05-15T15:39:23Z</time>
      </trkpt>
      <trkpt lat="59.9311858" lon="17.6410501">
        <ele>11.6732</ele>
        <time>2013-05-15T15:39:24Z</time>
      </trkpt>
      <trkpt lat="59.931265" lon="17.6411125">
        <ele>12.1538</ele>
        <time>2013-05-15T15:39:25Z</time>
      </trkpt>
      <trkpt lat="59.9313398" lon="17.6411731">
        <ele>12.1538</ele>
        <time>2013-05-15T15:39:26Z</time>
      </trkpt>
      <trkpt lat="59.9314137" lon="17.6412297">
        <ele>12.1538</ele>
        <time>2013-05-15T15:39:27Z</time>
      </trkpt>
      <trkpt lat="59.9314904" lon="17.6412847">
        <ele>12.1538</ele>
        <time>2013-05-15T15:39:28Z</time>
      </trkpt>
      <trkpt lat="59.931569" lon="17.6413431">
        <ele>12.1538</ele>
        <time>2013-05-15T15:39:29Z</time>
      </trkpt>
      <trkpt lat="59.9316493" lon="17.6413966">
        <ele>12.1538</ele>
        <time>2013-05-15T15:39:30Z</time>
      </trkpt>
      <trkpt lat="59.9317284" lon="17.6414493">
        <ele>11.6732</ele>
        <time>2013-05-15T15:39:31Z</time>
      </trkpt>
      <trkpt lat="59.9318069" lon="17.6415052">
        <ele>12.1538</ele>
        <time>2013-05-15T15:39:32Z</time>
      </trkpt>
      <trkpt lat="59.9318847" lon="17.6415581">
        <ele>12.1538</ele>
        <time>2013-05-15T15:39:33Z</time>
      </trkpt>
      <trkpt lat="59.9319602" lon="17.6416106">
        <ele>12.1538</ele>
        <time>2013-05-15T15:39:34Z</time>
      </trkpt>
      <trkpt lat="59.9320303" lon="17.64167">
        <ele>12.6344</ele>
        <time>2013-05-15T15:39:35Z</time>
      </trkpt>
      <trkpt lat="59.9320987" lon="17.6417353">
        <ele>12.1538</ele>
        <time>2013-05-15T15:39:36Z</time>
      </trkpt>
      <trkpt lat="59.9321701" lon="17.6418058">
        <ele>12.1538</ele>
        <time>2013-05-15T15:39:37Z</time>
      </trkpt>
      <trkpt lat="59.9322427" lon="17.6418787">
        <ele>11.6732</ele>
        <time>2013-05-15T15:39:38Z</time>
      </trkpt>
      <trkpt lat="59.9323174" lon="17.6419487">
        <ele>11.6732</ele>
        <time>2013-05-15T15:39:39Z</time>
      </trkpt>
      <trkpt lat="59.9323922" lon="17.6420186">
        <ele>11.6732</ele>
        <time>2013-05-15T15:39:40Z</time>
      </trkpt>
      <trkpt lat="59.9324659" lon="17.6420898">
        <ele>11.6732</ele>
        <time>2013-05-15T15:39:41Z</time>
      </trkpt>
      <trkpt lat="59.9325379" lon="17.6421643">
        <ele>11.6732</ele>
        <time>2013-05-15T15:39:42Z</time>
      </trkpt>
      <trkpt lat="59.9326073" lon="17.642243">
        <ele>11.1925</ele>
        <time>2013-05-15T15:39:43Z</time>
      </trkpt>
      <trkpt lat="59.9326742" lon="17.6423268">
        <ele>11.6732</ele>
        <time>2013-05-15T15:39:44Z</time>
      </trkpt>
      <trkpt lat="59.9327347" lon="17.642422">
        <ele>11.6732</ele>
        <time>2013-05-15T15:39:45Z</time>
      </trkpt>
      <trkpt lat="59.9327882" lon="17.6425261">
        <ele>11.6732</ele>
        <time>2013-05-15T15:39:46Z</time>
      </trkpt>
      <trkpt lat="59.9328413" lon="17.6426262">
        <ele>11.6732</ele>
        <time>2013-05-15T15:39:47Z</time>
      </trkpt>
      <trkpt lat="59.9328991" lon="17.6427164">
        <ele>11.6732</ele>
        <time>2013-05-15T15:39:48Z</time>
      </trkpt>
      <trkpt lat="59.9329617" lon="17.6427996">
        <ele>11.6732</ele>
        <time>2013-05-15T15:39:49Z</time>
      </trkpt>
      <trkpt lat="59.9330234" lon="17.6428796">
        <ele>11.6732</ele>
        <time>2013-05-15T15:39:50Z</time>
      </trkpt>
      <trkpt lat="59.9330842" lon="17.642965">
        <ele>11.6732</ele>
        <time>2013-05-15T15:39:51Z</time>
      </trkpt>
      <trkpt lat="59.9331424" lon="17.6430542">
        <ele>12.1538</ele>
        <time>2013-05-15T15:39:52Z</time>
      </trkpt>
      <trkpt lat="59.9331993" lon="17.6431439">
        <ele>12.6344</ele>
        <time>2013-05-15T15:39:53Z</time>
      </trkpt>
      <trkpt lat="59.9332559" lon="17.6432317">
        <ele>13.1151</ele>
        <time>2013-05-15T15:39:54Z</time>
      </trkpt>
      <trkpt lat="59.9333135" lon="17.6433075">
        <ele>14.557</ele>
        <time>2013-05-15T15:39:55Z</time>
      </trkpt>
      <trkpt lat="59.9333661" lon="17.6433742">
        <ele>15.5184</ele>
        <time>2013-05-15T15:39:56Z</time>
      </trkpt>
      <trkpt lat="59.9334152" lon="17.6434392">
        <ele>15.0377</ele>
        <time>2013-05-15T15:39:57Z</time>
      </trkpt>
      <trkpt lat="59.9334646" lon="17.6435026">
        <ele>14.557</ele>
        <time>2013-05-15T15:39:58Z</time>
      </trkpt>
      <trkpt lat="59.9335139" lon="17.6435623">
        <ele>15.0377</ele>
        <time>2013-05-15T15:39:59Z</time>
      </trkpt>
      <trkpt lat="59.9335649" lon="17.6436219">
        <ele>15.0377</ele>
        <time>2013-05-15T15:40:00Z</time>
      </trkpt>
      <trkpt lat="59.9336191" lon="17.643685">
        <ele>15.5184</ele>
        <time>2013-05-15T15:40:01Z</time>
      </trkpt>
      <trkpt lat="59.9336756" lon="17.6437429">
        <ele>15.999</ele>
        <time>2013-05-15T15:40:02Z</time>
      </trkpt>
      <trkpt lat="59.9337292" lon="17.643803">
        <ele>16.4797</ele>
        <time>2013-05-15T15:40:03Z</time>
      </trkpt>
      <trkpt lat="59.933783" lon="17.6438571">
        <ele>16.9604</ele>
        <time>2013-05-15T15:40:04Z</time>
      </trkpt>
      <trkpt lat="59.9338356" lon="17.6439115">
        <ele>16.9604</ele>
        <time>2013-05-15T15:40:05Z</time>
      </trkpt>
      <trkpt lat="59.9338906" lon="17.6439694">
        <ele>16.9604</ele>
        <time>2013-05-15T15:40:06Z</time>
      </trkpt>
      <trkpt lat="59.9339433" lon="17.6440332">
        <ele>16.9604</ele>
        <time>2013-05-15T15:40:07Z</time>
      </trkpt>
      <trkpt lat="59.9339971" lon="17.6441038">
        <ele>17.4412</ele>
        <time>2013-05-15T15:40:08Z</time>
      </trkpt>
      <trkpt lat="59.9340527" lon="17.6441781">
        <ele>17.9218</ele>
        <time>2013-05-15T15:40:09Z</time>
      </trkpt>
      <trkpt lat="59.9341085" lon="17.6442533">
        <ele>17.9218</ele>
        <time>2013-05-15T15:40:10Z</time>
      </trkpt>
      <trkpt lat="59.9341658" lon="17.6443267">
        <ele>18.4023</ele>
        <time>2013-05-15T15:40:11Z</time>
      </trkpt>
      <trkpt lat="59.934224" lon="17.644401">
        <ele>18.8831</ele>
        <time>2013-05-15T15:40:12Z</time>
      </trkpt>
      <trkpt lat="59.9342806" lon="17.6444765">
        <ele>18.8831</ele>
        <time>2013-05-15T15:40:13Z</time>
      </trkpt>
      <trkpt lat="59.9343369" lon="17.6445542">
        <ele>19.3638</ele>
        <time>2013-05-15T15:40:14Z</time>
      </trkpt>
      <trkpt lat="59.9343882" lon="17.6446391">
        <ele>20.325</ele>
        <time>2013-05-15T15:40:15Z</time>
      </trkpt>
      <trkpt lat="59.9344323" lon="17.6447221">
        <ele>20.8057</ele>
        <time>2013-05-15T15:40:16Z</time>
      </trkpt>
      <trkpt lat="59.9344751" lon="17.6447903">
        <ele>21.767</ele>
        <time>2013-05-15T15:40:17Z</time>
      </trkpt>
      <trkpt lat="59.9345207" lon="17.6448455">
        <ele>22.2476</ele>
        <time>2013-05-15T15:40:18Z</time>
      </trkpt>
      <trkpt lat="59.9345648" lon="17.6449007">
        <ele>22.2476</ele>
        <time>2013-05-15T15:40:19Z</time>
      </trkpt>
      <trkpt lat="59.9346094" lon="17.6449516">
        <ele>22.2476</ele>
        <time>2013-05-15T15:40:20Z</time>
      </trkpt>
      <trkpt lat="59.934654" lon="17.6450005">
        <ele>21.767</ele>
        <time>2013-05-15T15:40:21Z</time>
      </trkpt>
      <trkpt lat="59.9346996" lon="17.645049">
        <ele>21.767</ele>
        <time>2013-05-15T15:40:22Z</time>
      </trkpt>
      <trkpt lat="59.9347446" lon="17.6451015">
        <ele>22.7283</ele>
        <time>2013-05-15T15:40:23Z</time>
      </trkpt>
      <trkpt lat="59.9347905" lon="17.6451633">
        <ele>22.7283</ele>
        <time>2013-05-15T15:40:24Z</time>
      </trkpt>
      <trkpt lat="59.9348333" lon="17.6452232">
        <ele>23.209</ele>
        <time>2013-05-15T15:40:25Z</time>
      </trkpt>
      <trkpt lat="59.9348798" lon="17.6452821">
        <ele>23.6896</ele>
        <time>2013-05-15T15:40:26Z</time>
      </trkpt>
      <trkpt lat="59.9349279" lon="17.6453392">
        <ele>24.1703</ele>
        <time>2013-05-15T15:40:27Z</time>
      </trkpt>
      <trkpt lat="59.9349782" lon="17.6453955">
        <ele>24.651</ele>
        <time>2013-05-15T15:40:28Z</time>
      </trkpt>
      <trkpt lat="59.9350285" lon="17.6454546">
        <ele>25.1317</ele>
        <time>2013-05-15T15:40:29Z</time>
      </trkpt>
      <trkpt lat="59.9350763" lon="17.6455236">
        <ele>25.6123</ele>
        <time>2013-05-15T15:40:30Z</time>
      </trkpt>
      <trkpt lat="59.9351254" lon="17.645585">
        <ele>25.6123</ele>
        <time>2013-05-15T15:40:31Z</time>
      </trkpt>
      <trkpt lat="59.9351772" lon="17.6456364">
        <ele>25.6123</ele>
        <time>2013-05-15T15:40:32Z</time>
      </trkpt>
      <trkpt lat="59.935229" lon="17.645692">
        <ele>26.0929</ele>
        <time>2013-05-15T15:40:33Z</time>
      </trkpt>
      <trkpt lat="59.9352806" lon="17.645754">
        <ele>26.0929</ele>
        <time>2013-05-15T15:40:34Z</time>
      </trkpt>
      <trkpt lat="59.9353326" lon="17.6458179">
        <ele>26.5736</ele>
        <time>2013-05-15T15:40:35Z</time>
      </trkpt>
      <trkpt lat="59.9353869" lon="17.6458803">
        <ele>26.5736</ele>
        <time>2013-05-15T15:40:36Z</time>
      </trkpt>
      <trkpt lat="59.935442" lon="17.6459427">
        <ele>26.5736</ele>
        <time>2013-05-15T15:40:37Z</time>
      </trkpt>
      <trkpt lat="59.9355002" lon="17.6460051">
        <ele>27.0543</ele>
        <time>2013-05-15T15:40:38Z</time>
      </trkpt>
      <trkpt lat="59.9355583" lon="17.6460676">
        <ele>27.5349</ele>
        <time>2013-05-15T15:40:39Z</time>
      </trkpt>
      <trkpt lat="59.9356145" lon="17.6461327">
        <ele>27.5349</ele>
        <time>2013-05-15T15:40:40Z</time>
      </trkpt>
      <trkpt lat="59.9356697" lon="17.6462002">
        <ele>28.4962</ele>
        <time>2013-05-15T15:40:41Z</time>
      </trkpt>
      <trkpt lat="59.9357237" lon="17.6462694">
        <ele>28.9769</ele>
        <time>2013-05-15T15:40:42Z</time>
      </trkpt>
      <trkpt lat="59.9357759" lon="17.6463337">
        <ele>29.4575</ele>
        <time>2013-05-15T15:40:43Z</time>
      </trkpt>
      <trkpt lat="59.9358273" lon="17.6463991">
        <ele>30.4188</ele>
        <time>2013-05-15T15:40:44Z</time>
      </trkpt>
      <trkpt lat="59.9358778" lon="17.6464672">
        <ele>30.8995</ele>
        <time>2013-05-15T15:40:45Z</time>
      </trkpt>
      <trkpt lat="59.9359287" lon="17.6465346">
        <ele>30.8995</ele>
        <time>2013-05-15T15:40:46Z</time>
      </trkpt>
      <trkpt lat="59.93598" lon="17.646601">
        <ele>30.8995</ele>
        <time>2013-05-15T15:40:47Z</time>
      </trkpt>
      <trkpt lat="59.9360324" lon="17.6466664">
        <ele>30.4188</ele>
        <time>2013-05-15T15:40:48Z</time>
      </trkpt>
      <trkpt lat="59.9360866" lon="17.6467329">
        <ele>29.9381</ele>
        <time>2013-05-15T15:40:49Z</time>
      </trkpt>
      <trkpt lat="59.9361412" lon="17.6468024">
        <ele>29.9381</ele>
        <time>2013-05-15T15:40:50Z</time>
      </trkpt>
      <trkpt lat="59.9361966" lon="17.6468718">
        <ele>28.4962</ele>
        <time>2013-05-15T15:40:51Z</time>
      </trkpt>
      <trkpt lat="59.9362529" lon="17.6469444">
        <ele>28.4962</ele>
        <time>2013-05-15T15:40:52Z</time>
      </trkpt>
      <trkpt lat="59.936309" lon="17.6470193">
        <ele>28.0155</ele>
        <time>2013-05-15T15:40:53Z</time>
      </trkpt>
      <trkpt lat="59.9363664" lon="17.6470951">
        <ele>28.0155</ele>
        <time>2013-05-15T15:40:54Z</time>
      </trkpt>
      <trkpt lat="59.9364249" lon="17.6471737">
        <ele>27.5349</ele>
        <time>2013-05-15T15:40:55Z</time>
      </trkpt>
      <trkpt lat="59.9364852" lon="17.6472552">
        <ele>27.5349</ele>
        <time>2013-05-15T15:40:56Z</time>
      </trkpt>
      <trkpt lat="59.9365458" lon="17.6473351">
        <ele>28.0155</ele>
        <time>2013-05-15T15:40:57Z</time>
      </trkpt>
      <trkpt lat="59.9366038" lon="17.6474151">
        <ele>28.0155</ele>
        <time>2013-05-15T15:40:58Z</time>
      </trkpt>
      <trkpt lat="59.9366598" lon="17.6474939">
        <ele>28.4962</ele>
        <time>2013-05-15T15:40:59Z</time>
      </trkpt>
      <trkpt lat="59.936715" lon="17.6475693">
        <ele>28.4962</ele>
        <time>2013-05-15T15:41:00Z</time>
      </trkpt>
      <trkpt lat="59.9367715" lon="17.6476413">
        <ele>28.4962</ele>
        <time>2013-05-15T15:41:01Z</time>
      </trkpt>
      <trkpt lat="59.9368285" lon="17.6477146">
        <ele>28.0155</ele>
        <time>2013-05-15T15:41:02Z</time>
      </trkpt>
      <trkpt lat="59.9368876" lon="17.6477872">
        <ele>28.0155</ele>
        <time>2013-05-15T15:41:03Z</time>
      </trkpt>
      <trkpt lat="59.9369483" lon="17.6478598">
        <ele>28.0155</ele>
        <time>2013-05-15T15:41:04Z</time>
      </trkpt>
      <trkpt lat="59.9370109" lon="17.6479343">
        <ele>28.0155</ele>
        <time>2013-05-15T15:41:05Z</time>
      </trkpt>
      <trkpt lat="59.937075" lon="17.6480099">
        <ele>28.0155</ele>
        <time>2013-05-15T15:41:06Z</time>
      </trkpt>
      <trkpt lat="59.9371389" lon="17.648084">
        <ele>28.4962</ele>
        <time>2013-05-15T15:41:07Z</time>
      </trkpt>
      <trkpt lat="59.9372015" lon="17.6481611">
        <ele>28.4962</ele>
        <time>2013-05-15T15:41:08Z</time>
      </trkpt>
      <trkpt lat="59.9372636" lon="17.6482429">
        <ele>28.0155</ele>
        <time>2013-05-15T15:41:09Z</time>
      </trkpt>
      <trkpt lat="59.9373247" lon="17.6483356">
        <ele>28.4962</ele>
        <time>2013-05-15T15:41:10Z</time>
      </trkpt>
      <trkpt lat="59.9373778" lon="17.6484379">
        <ele>28.4962</ele>
        <time>2013-05-15T15:41:11Z</time>
      </trkpt>
      <trkpt lat="59.9374207" lon="17.648539">
        <ele>28.4962</ele>
        <time>2013-05-15T15:41:12Z</time>
      </trkpt>
      <trkpt lat="59.9374595" lon="17.6486392">
        <ele>28.4962</ele>
        <time>2013-05-15T15:41:13Z</time>
      </trkpt>
      <trkpt lat="59.9374958" lon="17.6487472">
        <ele>28.4962</ele>
        <time>2013-05-15T15:41:14Z</time>
      </trkpt>
      <trkpt lat="59.9375321" lon="17.648864">
        <ele>28.0155</ele>
        <time>2013-05-15T15:41:15Z</time>
      </trkpt>
      <trkpt lat="59.9375734" lon="17.6489821">
        <ele>28.0155</ele>
        <time>2013-05-15T15:41:16Z</time>
      </trkpt>
      <trkpt lat="59.9376212" lon="17.6490962">
        <ele>28.0155</ele>
        <time>2013-05-15T15:41:17Z</time>
      </trkpt>
      <trkpt lat="59.9376724" lon="17.6492092">
        <ele>28.0155</ele>
        <time>2013-05-15T15:41:18Z</time>
      </trkpt>
      <trkpt lat="59.9377236" lon="17.6493269">
        <ele>28.0155</ele>
        <time>2013-05-15T15:41:19Z</time>
      </trkpt>
      <trkpt lat="59.9377703" lon="17.6494563">
        <ele>28.0155</ele>
        <time>2013-05-15T15:41:20Z</time>
      </trkpt>
      <trkpt lat="59.9378139" lon="17.6495947">
        <ele>28.0155</ele>
        <time>2013-05-15T15:41:21Z</time>
      </trkpt>
      <trkpt lat="59.9378608" lon="17.6497333">
        <ele>28.0155</ele>
        <time>2013-05-15T15:41:22Z</time>
      </trkpt>
      <trkpt lat="59.9379116" lon="17.6498668">
        <ele>28.0155</ele>
        <time>2013-05-15T15:41:23Z</time>
      </trkpt>
      <trkpt lat="59.9379651" lon="17.6499974">
        <ele>28.0155</ele>
        <time>2013-05-15T15:41:24Z</time>
      </trkpt>
      <trkpt lat="59.9380188" lon="17.6501302">
        <ele>28.0155</ele>
        <time>2013-05-15T15:41:25Z</time>
      </trkpt>
      <trkpt lat="59.9380702" lon="17.6502694">
        <ele>28.0155</ele>
        <time>2013-05-15T15:41:26Z</time>
      </trkpt>
      <trkpt lat="59.9381195" lon="17.6504137">
        <ele>28.0155</ele>
        <time>2013-05-15T15:41:27Z</time>
      </trkpt>
      <trkpt lat="59.9381692" lon="17.6505572">
        <ele>28.0155</ele>
        <time>2013-05-15T15:41:28Z</time>
      </trkpt>
      <trkpt lat="59.9382214" lon="17.6506962">
        <ele>27.5349</ele>
        <time>2013-05-15T15:41:29Z</time>
      </trkpt>
      <trkpt lat="59.9382774" lon="17.6508311">
        <ele>27.5349</ele>
        <time>2013-05-15T15:41:30Z</time>
      </trkpt>
      <trkpt lat="59.9383358" lon="17.6509624">
        <ele>27.5349</ele>
        <time>2013-05-15T15:41:31Z</time>
      </trkpt>
      <trkpt lat="59.9383954" lon="17.6510932">
        <ele>27.5349</ele>
        <time>2013-05-15T15:41:32Z</time>
      </trkpt>
      <trkpt lat="59.9384518" lon="17.6512305">
        <ele>28.0155</ele>
        <time>2013-05-15T15:41:33Z</time>
      </trkpt>
      <trkpt lat="59.9385028" lon="17.651375">
        <ele>28.0155</ele>
        <time>2013-05-15T15:41:34Z</time>
      </trkpt>
      <trkpt lat="59.9385524" lon="17.6515226">
        <ele>28.0155</ele>
        <time>2013-05-15T15:41:35Z</time>
      </trkpt>
      <trkpt lat="59.9386011" lon="17.6516723">
        <ele>28.0155</ele>
        <time>2013-05-15T15:41:36Z</time>
      </trkpt>
      <trkpt lat="59.9386463" lon="17.651824">
        <ele>28.0155</ele>
        <time>2013-05-15T15:41:37Z</time>
      </trkpt>
      <trkpt lat="59.9386896" lon="17.6519763">
        <ele>28.0155</ele>
        <time>2013-05-15T15:41:38Z</time>
      </trkpt>
      <trkpt lat="59.9387327" lon="17.6521287">
        <ele>28.0155</ele>
        <time>2013-05-15T15:41:39Z</time>
      </trkpt>
      <trkpt lat="59.9387762" lon="17.6522813">
        <ele>28.0155</ele>
        <time>2013-05-15T15:41:40Z</time>
      </trkpt>
      <trkpt lat="59.9388188" lon="17.6524334">
        <ele>28.4962</ele>
        <time>2013-05-15T15:41:41Z</time>
      </trkpt>
      <trkpt lat="59.9388609" lon="17.6525856">
        <ele>28.4962</ele>
        <time>2013-05-15T15:41:42Z</time>
      </trkpt>
      <trkpt lat="59.938902" lon="17.6527388">
        <ele>28.4962</ele>
        <time>2013-05-15T15:41:43Z</time>
      </trkpt>
      <trkpt lat="59.9389425" lon="17.6528916">
        <ele>28.4962</ele>
        <time>2013-05-15T15:41:44Z</time>
      </trkpt>
      <trkpt lat="59.938983" lon="17.6530454">
        <ele>28.4962</ele>
        <time>2013-05-15T15:41:45Z</time>
      </trkpt>
      <trkpt lat="59.9390224" lon="17.6532011">
        <ele>28.4962</ele>
        <time>2013-05-15T15:41:46Z</time>
      </trkpt>
      <trkpt lat="59.9390597" lon="17.6533578">
        <ele>28.4962</ele>
        <time>2013-05-15T15:41:47Z</time>
      </trkpt>
      <trkpt lat="59.9390949" lon="17.6535149">
        <ele>28.4962</ele>
        <time>2013-05-15T15:41:48Z</time>
      </trkpt>
      <trkpt lat="59.9391299" lon="17.6536717">
        <ele>28.4962</ele>
        <time>2013-05-15T15:41:49Z</time>
      </trkpt>
      <trkpt lat="59.9391652" lon="17.6538272">
        <ele>28.4962</ele>
        <time>2013-05-15T15:41:50Z</time>
      </trkpt>
      <trkpt lat="59.9392005" lon="17.6539824">
        <ele>28.4962</ele>
        <time>2013-05-15T15:41:51Z</time>
      </trkpt>
      <trkpt lat="59.9392349" lon="17.6541387">
        <ele>28.4962</ele>
        <time>2013-05-15T15:41:52Z</time>
      </trkpt>
      <trkpt lat="59.9392696" lon="17.6542956">
        <ele>28.9769</ele>
        <time>2013-05-15T15:41:53Z</time>
      </trkpt>
      <trkpt lat="59.9393032" lon="17.6544536">
        <ele>28.9769</ele>
        <time>2013-05-15T15:41:54Z</time>
      </trkpt>
      <trkpt lat="59.9393342" lon="17.6546115">
        <ele>28.9769</ele>
        <time>2013-05-15T15:41:55Z</time>
      </trkpt>
      <trkpt lat="59.9393656" lon="17.6547714">
        <ele>28.9769</ele>
        <time>2013-05-15T15:41:56Z</time>
      </trkpt>
      <trkpt lat="59.9393975" lon="17.6549311">
        <ele>28.9769</ele>
        <time>2013-05-15T15:41:57Z</time>
      </trkpt>
      <trkpt lat="59.9394311" lon="17.6550907">
        <ele>28.9769</ele>
        <time>2013-05-15T15:41:58Z</time>
      </trkpt>
      <trkpt lat="59.9394643" lon="17.6552514">
        <ele>28.9769</ele>
        <time>2013-05-15T15:41:59Z</time>
      </trkpt>
      <trkpt lat="59.9394965" lon="17.6554149">
        <ele>28.9769</ele>
        <time>2013-05-15T15:42:00Z</time>
      </trkpt>
      <trkpt lat="59.9395279" lon="17.6555791">
        <ele>28.9769</ele>
        <time>2013-05-15T15:42:01Z</time>
      </trkpt>
      <trkpt lat="59.9395596" lon="17.6557417">
        <ele>28.9769</ele>
        <time>2013-05-15T15:42:02Z</time>
      </trkpt>
      <trkpt lat="59.9395918" lon="17.6559029">
        <ele>28.9769</ele>
        <time>2013-05-15T15:42:03Z</time>
      </trkpt>
      <trkpt lat="59.9396241" lon="17.656063">
        <ele>28.4962</ele>
        <time>2013-05-15T15:42:04Z</time>
      </trkpt>
      <trkpt lat="59.9396569" lon="17.6562246">
        <ele>28.4962</ele>
        <time>2013-05-15T15:42:05Z</time>
      </trkpt>
      <trkpt lat="59.9396896" lon="17.6563882">
        <ele>28.4962</ele>
        <time>2013-05-15T15:42:06Z</time>
      </trkpt>
      <trkpt lat="59.9397227" lon="17.6565525">
        <ele>28.4962</ele>
        <time>2013-05-15T15:42:07Z</time>
      </trkpt>
      <trkpt lat="59.9397559" lon="17.6567173">
        <ele>28.0155</ele>
        <time>2013-05-15T15:42:08Z</time>
      </trkpt>
      <trkpt lat="59.9397885" lon="17.6568834">
        <ele>28.0155</ele>
        <time>2013-05-15T15:42:09Z</time>
      </trkpt>
      <trkpt lat="59.9398211" lon="17.6570512">
        <ele>28.0155</ele>
        <time>2013-05-15T15:42:10Z</time>
      </trkpt>
      <trkpt lat="59.9398538" lon="17.6572212">
        <ele>28.0155</ele>
        <time>2013-05-15T15:42:11Z</time>
      </trkpt>
      <trkpt lat="59.9398872" lon="17.6573923">
        <ele>27.5349</ele>
        <time>2013-05-15T15:42:12Z</time>
      </trkpt>
      <trkpt lat="59.9399209" lon="17.6575626">
        <ele>27.5349</ele>
        <time>2013-05-15T15:42:13Z</time>
      </trkpt>
      <trkpt lat="59.9399543" lon="17.6577318">
        <ele>27.0543</ele>
        <time>2013-05-15T15:42:14Z</time>
      </trkpt>
      <trkpt lat="59.9399895" lon="17.6579012">
        <ele>27.0543</ele>
        <time>2013-05-15T15:42:15Z</time>
      </trkpt>
      <trkpt lat="59.940025" lon="17.6580702">
        <ele>26.5736</ele>
        <time>2013-05-15T15:42:16Z</time>
      </trkpt>
      <trkpt lat="59.9400609" lon="17.6582396">
        <ele>26.5736</ele>
        <time>2013-05-15T15:42:17Z</time>
      </trkpt>
      <trkpt lat="59.9400983" lon="17.6584112">
        <ele>26.0929</ele>
        <time>2013-05-15T15:42:18Z</time>
      </trkpt>
      <trkpt lat="59.9401367" lon="17.658585">
        <ele>26.0929</ele>
        <time>2013-05-15T15:42:19Z</time>
      </trkpt>
      <trkpt lat="59.9401758" lon="17.6587607">
        <ele>25.6123</ele>
        <time>2013-05-15T15:42:20Z</time>
      </trkpt>
      <trkpt lat="59.9402137" lon="17.6589378">
        <ele>25.6123</ele>
        <time>2013-05-15T15:42:21Z</time>
      </trkpt>
      <trkpt lat="59.9402511" lon="17.6591164">
        <ele>25.6123</ele>
        <time>2013-05-15T15:42:22Z</time>
      </trkpt>
      <trkpt lat="59.9402849" lon="17.6592927">
        <ele>25.6123</ele>
        <time>2013-05-15T15:42:23Z</time>
      </trkpt>
      <trkpt lat="59.9403149" lon="17.6594654">
        <ele>26.0929</ele>
        <time>2013-05-15T15:42:24Z</time>
      </trkpt>
      <trkpt lat="59.9403446" lon="17.6596316">
        <ele>26.0929</ele>
        <time>2013-05-15T15:42:25Z</time>
      </trkpt>
      <trkpt lat="59.9403775" lon="17.6597902">
        <ele>26.5736</ele>
        <time>2013-05-15T15:42:26Z</time>
      </trkpt>
      <trkpt lat="59.9404164" lon="17.6599406">
        <ele>26.5736</ele>
        <time>2013-05-15T15:42:27Z</time>
      </trkpt>
      <trkpt lat="59.9404589" lon="17.6600828">
        <ele>26.5736</ele>
        <time>2013-05-15T15:42:28Z</time>
      </trkpt>
      <trkpt lat="59.9404982" lon="17.6602174">
        <ele>26.5736</ele>
        <time>2013-05-15T15:42:29Z</time>
      </trkpt>
      <trkpt lat="59.9405278" lon="17.6603744">
        <ele>26.0929</ele>
        <time>2013-05-15T15:42:30Z</time>
      </trkpt>
      <trkpt lat="59.9405215" lon="17.6605316">
        <ele>26.0929</ele>
        <time>2013-05-15T15:42:31Z</time>
      </trkpt>
      <trkpt lat="59.940495" lon="17.660705">
        <ele>26.0929</ele>
        <time>2013-05-15T15:42:32Z</time>
      </trkpt>
      <trkpt lat="59.9404546" lon="17.6608709">
        <ele>26.0929</ele>
        <time>2013-05-15T15:42:33Z</time>
      </trkpt>
      <trkpt lat="59.9404209" lon="17.6610405">
        <ele>26.0929</ele>
        <time>2013-05-15T15:42:34Z</time>
      </trkpt>
      <trkpt lat="59.9403961" lon="17.661227">
        <ele>26.0929</ele>
        <time>2013-05-15T15:42:35Z</time>
      </trkpt>
      <trkpt lat="59.9403889" lon="17.66141">
        <ele>25.6123</ele>
        <time>2013-05-15T15:42:36Z</time>
      </trkpt>
      <trkpt lat="59.9403977" lon="17.6615838">
        <ele>25.1317</ele>
        <time>2013-05-15T15:42:37Z</time>
      </trkpt>
      <trkpt lat="59.9404173" lon="17.6617528">
        <ele>24.651</ele>
        <time>2013-05-15T15:42:38Z</time>
      </trkpt>
      <trkpt lat="59.9404586" lon="17.6618963">
        <ele>25.1317</ele>
        <time>2013-05-15T15:42:39Z</time>
      </trkpt>
      <trkpt lat="59.9405167" lon="17.6620121">
        <ele>25.1317</ele>
        <time>2013-05-15T15:42:40Z</time>
      </trkpt>
      <trkpt lat="59.9405861" lon="17.6620973">
        <ele>25.1317</ele>
        <time>2013-05-15T15:42:41Z</time>
      </trkpt>
      <trkpt lat="59.9406606" lon="17.6621521">
        <ele>25.1317</ele>
        <time>2013-05-15T15:42:42Z</time>
      </trkpt>
      <trkpt lat="59.94074" lon="17.6621882">
        <ele>25.1317</ele>
        <time>2013-05-15T15:42:43Z</time>
      </trkpt>
      <trkpt lat="59.9408218" lon="17.6622122">
        <ele>25.1317</ele>
        <time>2013-05-15T15:42:44Z</time>
      </trkpt>
      <trkpt lat="59.9409053" lon="17.6622343">
        <ele>25.6123</ele>
        <time>2013-05-15T15:42:45Z</time>
      </trkpt>
      <trkpt lat="59.9409887" lon="17.6622637">
        <ele>25.6123</ele>
        <time>2013-05-15T15:42:46Z</time>
      </trkpt>
      <trkpt lat="59.9410725" lon="17.6623038">
        <ele>26.0929</ele>
        <time>2013-05-15T15:42:47Z</time>
      </trkpt>
      <trkpt lat="59.9411561" lon="17.6623541">
        <ele>26.0929</ele>
        <time>2013-05-15T15:42:48Z</time>
      </trkpt>
      <trkpt lat="59.9412394" lon="17.6624152">
        <ele>26.5736</ele>
        <time>2013-05-15T15:42:49Z</time>
      </trkpt>
      <trkpt lat="59.9413197" lon="17.6624888">
        <ele>26.5736</ele>
        <time>2013-05-15T15:42:50Z</time>
      </trkpt>
      <trkpt lat="59.9413994" lon="17.6625753">
        <ele>26.5736</ele>
        <time>2013-05-15T15:42:51Z</time>
      </trkpt>
      <trkpt lat="59.9414734" lon="17.6626754">
        <ele>27.0543</ele>
        <time>2013-05-15T15:42:52Z</time>
      </trkpt>
      <trkpt lat="59.9415421" lon="17.6627817">
        <ele>27.0543</ele>
        <time>2013-05-15T15:42:53Z</time>
      </trkpt>
      <trkpt lat="59.9416098" lon="17.6628909">
        <ele>27.0543</ele>
        <time>2013-05-15T15:42:54Z</time>
      </trkpt>
      <trkpt lat="59.9416746" lon="17.6630033">
        <ele>27.0543</ele>
        <time>2013-05-15T15:42:55Z</time>
      </trkpt>
      <trkpt lat="59.9417377" lon="17.6631177">
        <ele>27.0543</ele>
        <time>2013-05-15T15:42:56Z</time>
      </trkpt>
      <trkpt lat="59.941801" lon="17.6632307">
        <ele>26.5736</ele>
        <time>2013-05-15T15:42:57Z</time>
      </trkpt>
      <trkpt lat="59.9418662" lon="17.6633414">
        <ele>26.5736</ele>
        <time>2013-05-15T15:42:58Z</time>
      </trkpt>
      <trkpt lat="59.9419316" lon="17.6634534">
        <ele>26.0929</ele>
        <time>2013-05-15T15:42:59Z</time>
      </trkpt>
      <trkpt lat="59.9420003" lon="17.6635652">
        <ele>25.6123</ele>
        <time>2013-05-15T15:43:00Z</time>
      </trkpt>
      <trkpt lat="59.9420701" lon="17.6636736">
        <ele>25.6123</ele>
        <time>2013-05-15T15:43:01Z</time>
      </trkpt>
      <trkpt lat="59.9421421" lon="17.6637761">
        <ele>25.6123</ele>
        <time>2013-05-15T15:43:02Z</time>
      </trkpt>
      <trkpt lat="59.9422143" lon="17.6638749">
        <ele>25.6123</ele>
        <time>2013-05-15T15:43:03Z</time>
      </trkpt>
      <trkpt lat="59.9422863" lon="17.6639731">
        <ele>25.6123</ele>
        <time>2013-05-15T15:43:04Z</time>
      </trkpt>
      <trkpt lat="59.9423597" lon="17.6640724">
        <ele>25.1317</ele>
        <time>2013-05-15T15:43:05Z</time>
      </trkpt>
      <trkpt lat="59.9424353" lon="17.6641689">
        <ele>25.6123</ele>
        <time>2013-05-15T15:43:06Z</time>
      </trkpt>
      <trkpt lat="59.9425115" lon="17.6642646">
        <ele>25.6123</ele>
        <time>2013-05-15T15:43:07Z</time>
      </trkpt>
      <trkpt lat="59.9425889" lon="17.66436">
        <ele>25.6123</ele>
        <time>2013-05-15T15:43:08Z</time>
      </trkpt>
      <trkpt lat="59.9426661" lon="17.6644567">
        <ele>25.1317</ele>
        <time>2013-05-15T15:43:09Z</time>
      </trkpt>
      <trkpt lat="59.9427453" lon="17.6645473">
        <ele>25.1317</ele>
        <time>2013-05-15T15:43:10Z</time>
      </trkpt>
      <trkpt lat="59.9428257" lon="17.664635">
        <ele>25.1317</ele>
        <time>2013-05-15T15:43:11Z</time>
      </trkpt>
      <trkpt lat="59.942908" lon="17.6647213">
        <ele>25.1317</ele>
        <time>2013-05-15T15:43:12Z</time>
      </trkpt>
      <trkpt lat="59.9429924" lon="17.6648063">
        <ele>25.1317</ele>
        <time>2013-05-15T15:43:13Z</time>
      </trkpt>
      <trkpt lat="59.9430792" lon="17.6648874">
        <ele>25.1317</ele>
        <time>2013-05-15T15:43:14Z</time>
      </trkpt>
      <trkpt lat="59.9431675" lon="17.6649655">
        <ele>25.1317</ele>
        <time>2013-05-15T15:43:15Z</time>
      </trkpt>
      <trkpt lat="59.9432574" lon="17.6650427">
        <ele>24.651</ele>
        <time>2013-05-15T15:43:16Z</time>
      </trkpt>
      <trkpt lat="59.9433484" lon="17.6651187">
        <ele>25.1317</ele>
        <time>2013-05-15T15:43:17Z</time>
      </trkpt>
      <trkpt lat="59.9434401" lon="17.6651914">
        <ele>24.651</ele>
        <time>2013-05-15T15:43:18Z</time>
      </trkpt>
      <trkpt lat="59.9435337" lon="17.6652592">
        <ele>24.651</ele>
        <time>2013-05-15T15:43:19Z</time>
      </trkpt>
      <trkpt lat="59.9436285" lon="17.6653238">
        <ele>24.651</ele>
        <time>2013-05-15T15:43:20Z</time>
      </trkpt>
      <trkpt lat="59.9437244" lon="17.6653838">
        <ele>24.651</ele>
        <time>2013-05-15T15:43:21Z</time>
      </trkpt>
      <trkpt lat="59.9438222" lon="17.66544">
        <ele>24.1703</ele>
        <time>2013-05-15T15:43:22Z</time>
      </trkpt>
      <trkpt lat="59.9439212" lon="17.6654944">
        <ele>24.1703</ele>
        <time>2013-05-15T15:43:23Z</time>
      </trkpt>
      <trkpt lat="59.9440211" lon="17.6655472">
        <ele>24.1703</ele>
        <time>2013-05-15T15:43:24Z</time>
      </trkpt>
      <trkpt lat="59.9441216" lon="17.6655965">
        <ele>24.1703</ele>
        <time>2013-05-15T15:43:25Z</time>
      </trkpt>
      <trkpt lat="59.944223" lon="17.6656434">
        <ele>24.1703</ele>
        <time>2013-05-15T15:43:26Z</time>
      </trkpt>
      <trkpt lat="59.9443252" lon="17.665689">
        <ele>24.1703</ele>
        <time>2013-05-15T15:43:27Z</time>
      </trkpt>
      <trkpt lat="59.9444281" lon="17.6657319">
        <ele>23.6896</ele>
        <time>2013-05-15T15:43:28Z</time>
      </trkpt>
      <trkpt lat="59.9445318" lon="17.6657719">
        <ele>23.6896</ele>
        <time>2013-05-15T15:43:29Z</time>
      </trkpt>
      <trkpt lat="59.9446362" lon="17.6658099">
        <ele>23.6896</ele>
        <time>2013-05-15T15:43:30Z</time>
      </trkpt>
      <trkpt lat="59.9447415" lon="17.6658475">
        <ele>23.6896</ele>
        <time>2013-05-15T15:43:31Z</time>
      </trkpt>
      <trkpt lat="59.9448473" lon="17.6658855">
        <ele>23.6896</ele>
        <time>2013-05-15T15:43:32Z</time>
      </trkpt>
      <trkpt lat="59.9449521" lon="17.6659294">
        <ele>22.7283</ele>
        <time>2013-05-15T15:43:33Z</time>
      </trkpt>
      <trkpt lat="59.9450578" lon="17.6659724">
        <ele>21.767</ele>
        <time>2013-05-15T15:43:34Z</time>
      </trkpt>
      <trkpt lat="59.9451642" lon="17.6660144">
        <ele>21.2864</ele>
        <time>2013-05-15T15:43:35Z</time>
      </trkpt>
      <trkpt lat="59.9452711" lon="17.6660555">
        <ele>20.325</ele>
        <time>2013-05-15T15:43:36Z</time>
      </trkpt>
      <trkpt lat="59.9453781" lon="17.6660978">
        <ele>19.8444</ele>
        <time>2013-05-15T15:43:37Z</time>
      </trkpt>
      <trkpt lat="59.9454855" lon="17.6661424">
        <ele>19.3638</ele>
        <time>2013-05-15T15:43:38Z</time>
      </trkpt>
      <trkpt lat="59.9455918" lon="17.666187">
        <ele>18.8831</ele>
        <time>2013-05-15T15:43:39Z</time>
      </trkpt>
      <trkpt lat="59.9456975" lon="17.6662294">
        <ele>18.4023</ele>
        <time>2013-05-15T15:43:40Z</time>
      </trkpt>
      <trkpt lat="59.9458029" lon="17.6662693">
        <ele>17.9218</ele>
        <time>2013-05-15T15:43:41Z</time>
      </trkpt>
      <trkpt lat="59.9459072" lon="17.6663078">
        <ele>17.4412</ele>
        <time>2013-05-15T15:43:42Z</time>
      </trkpt>
      <trkpt lat="59.9460104" lon="17.666347">
        <ele>16.9604</ele>
        <time>2013-05-15T15:43:43Z</time>
      </trkpt>
      <trkpt lat="59.9461137" lon="17.6663881">
        <ele>16.9604</ele>
        <time>2013-05-15T15:43:44Z</time>
      </trkpt>
      <trkpt lat="59.9462155" lon="17.6664383">
        <ele>16.9604</ele>
        <time>2013-05-15T15:43:45Z</time>
      </trkpt>
      <trkpt lat="59.9463158" lon="17.6664983">
        <ele>16.9604</ele>
        <time>2013-05-15T15:43:46Z</time>
      </trkpt>
      <trkpt lat="59.9464145" lon="17.6665533">
        <ele>16.9604</ele>
        <time>2013-05-15T15:43:47Z</time>
      </trkpt>
      <trkpt lat="59.9465138" lon="17.6665931">
        <ele>16.9604</ele>
        <time>2013-05-15T15:43:48Z</time>
      </trkpt>
      <trkpt lat="59.9466143" lon="17.6666194">
        <ele>16.9604</ele>
        <time>2013-05-15T15:43:49Z</time>
      </trkpt>
      <trkpt lat="59.9467149" lon="17.6666382">
        <ele>16.9604</ele>
        <time>2013-05-15T15:43:50Z</time>
      </trkpt>
      <trkpt lat="59.9468148" lon="17.6666614">
        <ele>16.9604</ele>
        <time>2013-05-15T15:43:51Z</time>
      </trkpt>
      <trkpt lat="59.946914" lon="17.6666951">
        <ele>16.9604</ele>
        <time>2013-05-15T15:43:52Z</time>
      </trkpt>
      <trkpt lat="59.9470127" lon="17.6667356">
        <ele>16.9604</ele>
        <time>2013-05-15T15:43:53Z</time>
      </trkpt>
      <trkpt lat="59.9471111" lon="17.6667791">
        <ele>16.9604</ele>
        <time>2013-05-15T15:43:54Z</time>
      </trkpt>
      <trkpt lat="59.9472095" lon="17.6668237">
        <ele>16.9604</ele>
        <time>2013-05-15T15:43:55Z</time>
      </trkpt>
      <trkpt lat="59.9473075" lon="17.6668697">
        <ele>16.9604</ele>
        <time>2013-05-15T15:43:56Z</time>
      </trkpt>
      <trkpt lat="59.9474048" lon="17.6669171">
        <ele>16.9604</ele>
        <time>2013-05-15T15:43:57Z</time>
      </trkpt>
      <trkpt lat="59.9475017" lon="17.666964">
        <ele>16.9604</ele>
        <time>2013-05-15T15:43:58Z</time>
      </trkpt>
      <trkpt lat="59.9475985" lon="17.6670107">
        <ele>16.9604</ele>
        <time>2013-05-15T15:43:59Z</time>
      </trkpt>
      <trkpt lat="59.9476952" lon="17.6670576">
        <ele>16.9604</ele>
        <time>2013-05-15T15:44:00Z</time>
      </trkpt>
      <trkpt lat="59.9477913" lon="17.667105">
        <ele>16.9604</ele>
        <time>2013-05-15T15:44:01Z</time>
      </trkpt>
      <trkpt lat="59.9478872" lon="17.6671552">
        <ele>16.9604</ele>
        <time>2013-05-15T15:44:02Z</time>
      </trkpt>
      <trkpt lat="59.9479828" lon="17.6672058">
        <ele>16.9604</ele>
        <time>2013-05-15T15:44:03Z</time>
      </trkpt>
      <trkpt lat="59.9480781" lon="17.6672547">
        <ele>16.9604</ele>
        <time>2013-05-15T15:44:04Z</time>
      </trkpt>
      <trkpt lat="59.948173" lon="17.6673048">
        <ele>17.4412</ele>
        <time>2013-05-15T15:44:05Z</time>
      </trkpt>
      <trkpt lat="59.9482669" lon="17.6673566">
        <ele>17.4412</ele>
        <time>2013-05-15T15:44:06Z</time>
      </trkpt>
      <trkpt lat="59.9483605" lon="17.6674082">
        <ele>17.4412</ele>
        <time>2013-05-15T15:44:07Z</time>
      </trkpt>
      <trkpt lat="59.9484538" lon="17.6674592">
        <ele>17.4412</ele>
        <time>2013-05-15T15:44:08Z</time>
      </trkpt>
      <trkpt lat="59.9485475" lon="17.6675097">
        <ele>17.4412</ele>
        <time>2013-05-15T15:44:09Z</time>
      </trkpt>
      <trkpt lat="59.9486412" lon="17.667561">
        <ele>17.4412</ele>
        <time>2013-05-15T15:44:10Z</time>
      </trkpt>
      <trkpt lat="59.9487348" lon="17.6676147">
        <ele>17.4412</ele>
        <time>2013-05-15T15:44:11Z</time>
      </trkpt>
      <trkpt lat="59.9488284" lon="17.6676694">
        <ele>17.4412</ele>
        <time>2013-05-15T15:44:12Z</time>
      </trkpt>
      <trkpt lat="59.9489224" lon="17.6677222">
        <ele>17.4412</ele>
        <time>2013-05-15T15:44:13Z</time>
      </trkpt>
      <trkpt lat="59.949017" lon="17.6677734">
        <ele>17.4412</ele>
        <time>2013-05-15T15:44:14Z</time>
      </trkpt>
      <trkpt lat="59.9491116" lon="17.6678228">
        <ele>16.9604</ele>
        <time>2013-05-15T15:44:15Z</time>
      </trkpt>
      <trkpt lat="59.9492045" lon="17.667873">
        <ele>16.4797</ele>
        <time>2013-05-15T15:44:16Z</time>
      </trkpt>
      <trkpt lat="59.9492971" lon="17.6679248">
        <ele>15.999</ele>
        <time>2013-05-15T15:44:17Z</time>
      </trkpt>
      <trkpt lat="59.9493888" lon="17.6679763">
        <ele>15.999</ele>
        <time>2013-05-15T15:44:18Z</time>
      </trkpt>
      <trkpt lat="59.949481" lon="17.6680234">
        <ele>15.5184</ele>
        <time>2013-05-15T15:44:19Z</time>
      </trkpt>
      <trkpt lat="59.9495737" lon="17.6680676">
        <ele>15.999</ele>
        <time>2013-05-15T15:44:20Z</time>
      </trkpt>
      <trkpt lat="59.9496654" lon="17.6681133">
        <ele>15.999</ele>
        <time>2013-05-15T15:44:21Z</time>
      </trkpt>
      <trkpt lat="59.9497548" lon="17.6681615">
        <ele>15.999</ele>
        <time>2013-05-15T15:44:22Z</time>
      </trkpt>
      <trkpt lat="59.9498436" lon="17.6682082">
        <ele>15.999</ele>
        <time>2013-05-15T15:44:23Z</time>
      </trkpt>
      <trkpt lat="59.9499323" lon="17.66825">
        <ele>15.999</ele>
        <time>2013-05-15T15:44:24Z</time>
      </trkpt>
      <trkpt lat="59.9500219" lon="17.6682833">
        <ele>16.4797</ele>
        <time>2013-05-15T15:44:25Z</time>
      </trkpt>
      <trkpt lat="59.9501118" lon="17.6683113">
        <ele>16.4797</ele>
        <time>2013-05-15T15:44:26Z</time>
      </trkpt>
      <trkpt lat="59.9502026" lon="17.668335">
        <ele>16.4797</ele>
        <time>2013-05-15T15:44:27Z</time>
      </trkpt>
      <trkpt lat="59.9502935" lon="17.6683543">
        <ele>16.9604</ele>
        <time>2013-05-15T15:44:28Z</time>
      </trkpt>
      <trkpt lat="59.950384" lon="17.6683665">
        <ele>16.9604</ele>
        <time>2013-05-15T15:44:29Z</time>
      </trkpt>
      <trkpt lat="59.9504744" lon="17.6683699">
        <ele>16.9604</ele>
        <time>2013-05-15T15:44:30Z</time>
      </trkpt>
      <trkpt lat="59.9505636" lon="17.6683666">
        <ele>16.9604</ele>
        <time>2013-05-15T15:44:31Z</time>
      </trkpt>
      <trkpt lat="59.9506515" lon="17.6683562">
        <ele>16.9604</ele>
        <time>2013-05-15T15:44:32Z</time>
      </trkpt>
      <trkpt lat="59.9507371" lon="17.6683419">
        <ele>16.4797</ele>
        <time>2013-05-15T15:44:33Z</time>
      </trkpt>
      <trkpt lat="59.950823" lon="17.6683248">
        <ele>15.999</ele>
        <time>2013-05-15T15:44:34Z</time>
      </trkpt>
      <trkpt lat="59.9509087" lon="17.6683041">
        <ele>15.5184</ele>
        <time>2013-05-15T15:44:35Z</time>
      </trkpt>
      <trkpt lat="59.950995" lon="17.6682782">
        <ele>15.0377</ele>
        <time>2013-05-15T15:44:36Z</time>
      </trkpt>
      <trkpt lat="59.951081" lon="17.6682497">
        <ele>14.0764</ele>
        <time>2013-05-15T15:44:37Z</time>
      </trkpt>
      <trkpt lat="59.9511667" lon="17.6682181">
        <ele>13.5958</ele>
        <time>2013-05-15T15:44:38Z</time>
      </trkpt>
      <trkpt lat="59.9512524" lon="17.6681854">
        <ele>13.1151</ele>
        <time>2013-05-15T15:44:39Z</time>
      </trkpt>
      <trkpt lat="59.9513381" lon="17.6681565">
        <ele>12.6344</ele>
        <time>2013-05-15T15:44:40Z</time>
      </trkpt>
      <trkpt lat="59.9514235" lon="17.6681337">
        <ele>12.1538</ele>
        <time>2013-05-15T15:44:41Z</time>
      </trkpt>
      <trkpt lat="59.9515075" lon="17.6681285">
        <ele>11.6732</ele>
        <time>2013-05-15T15:44:42Z</time>
      </trkpt>
      <trkpt lat="59.9515884" lon="17.6681621">
        <ele>11.1925</ele>
        <time>2013-05-15T15:44:43Z</time>
      </trkpt>
      <trkpt lat="59.9516572" lon="17.668263">
        <ele>10.7118</ele>
        <time>2013-05-15T15:44:44Z</time>
      </trkpt>
      <trkpt lat="59.9517087" lon="17.6683963">
        <ele>10.7118</ele>
        <time>2013-05-15T15:44:45Z</time>
      </trkpt>
      <trkpt lat="59.9517477" lon="17.6685537">
        <ele>11.1925</ele>
        <time>2013-05-15T15:44:46Z</time>
      </trkpt>
      <trkpt lat="59.9517783" lon="17.668717">
        <ele>11.6732</ele>
        <time>2013-05-15T15:44:47Z</time>
      </trkpt>
      <trkpt lat="59.9518009" lon="17.6688825">
        <ele>12.1538</ele>
        <time>2013-05-15T15:44:48Z</time>
      </trkpt>
      <trkpt lat="59.951811" lon="17.6690442">
        <ele>12.1538</ele>
        <time>2013-05-15T15:44:49Z</time>
      </trkpt>
      <trkpt lat="59.9518059" lon="17.6691996">
        <ele>12.6344</ele>
        <time>2013-05-15T15:44:50Z</time>
      </trkpt>
      <trkpt lat="59.9517989" lon="17.66935">
        <ele>12.6344</ele>
        <time>2013-05-15T15:44:51Z</time>
      </trkpt>
      <trkpt lat="59.9517942" lon="17.6694965">
        <ele>12.6344</ele>
        <time>2013-05-15T15:44:52Z</time>
      </trkpt>
      <trkpt lat="59.9517902" lon="17.6696436">
        <ele>12.6344</ele>
        <time>2013-05-15T15:44:53Z</time>
      </trkpt>
      <trkpt lat="59.9517836" lon="17.6697922">
        <ele>13.1151</ele>
        <time>2013-05-15T15:44:54Z</time>
      </trkpt>
      <trkpt lat="59.9517731" lon="17.6699405">
        <ele>13.1151</ele>
        <time>2013-05-15T15:44:55Z</time>
      </trkpt>
      <trkpt lat="59.9517601" lon="17.670087">
        <ele>13.5958</ele>
        <time>2013-05-15T15:44:56Z</time>
      </trkpt>
      <trkpt lat="59.9517478" lon="17.6702315">
        <ele>13.5958</ele>
        <time>2013-05-15T15:44:57Z</time>
      </trkpt>
      <trkpt lat="59.9517369" lon="17.6703782">
        <ele>14.0764</ele>
        <time>2013-05-15T15:44:58Z</time>
      </trkpt>
      <trkpt lat="59.951726" lon="17.6705268">
        <ele>14.557</ele>
        <time>2013-05-15T15:44:59Z</time>
      </trkpt>
      <trkpt lat="59.9517131" lon="17.6706755">
        <ele>14.557</ele>
        <time>2013-05-15T15:45:00Z</time>
      </trkpt>
      <trkpt lat="59.9517016" lon="17.670825">
        <ele>15.0377</ele>
        <time>2013-05-15T15:45:01Z</time>
      </trkpt>
      <trkpt lat="59.9516971" lon="17.6709745">
        <ele>15.5184</ele>
        <time>2013-05-15T15:45:02Z</time>
      </trkpt>
      <trkpt lat="59.9517048" lon="17.6711215">
        <ele>15.999</ele>
        <time>2013-05-15T15:45:03Z</time>
      </trkpt>
      <trkpt lat="59.9517258" lon="17.6712592">
        <ele>16.4797</ele>
        <time>2013-05-15T15:45:04Z</time>
      </trkpt>
      <trkpt lat="59.9517492" lon="17.6713898">
        <ele>16.9604</ele>
        <time>2013-05-15T15:45:05Z</time>
      </trkpt>
      <trkpt lat="59.9517654" lon="17.6715225">
        <ele>17.4412</ele>
        <time>2013-05-15T15:45:06Z</time>
      </trkpt>
      <trkpt lat="59.951773" lon="17.6716559">
        <ele>17.9218</ele>
        <time>2013-05-15T15:45:07Z</time>
      </trkpt>
      <trkpt lat="59.9517757" lon="17.6717903">
        <ele>17.9218</ele>
        <time>2013-05-15T15:45:08Z</time>
      </trkpt>
      <trkpt lat="59.9517763" lon="17.6719244">
        <ele>17.9218</ele>
        <time>2013-05-15T15:45:09Z</time>
      </trkpt>
      <trkpt lat="59.9517794" lon="17.6720581">
        <ele>17.9218</ele>
        <time>2013-05-15T15:45:10Z</time>
      </trkpt>
      <trkpt lat="59.9517885" lon="17.672197">
        <ele>17.9218</ele>
        <time>2013-05-15T15:45:11Z</time>
      </trkpt>
      <trkpt lat="59.9518013" lon="17.6723394">
        <ele>18.4023</ele>
        <time>2013-05-15T15:45:12Z</time>
      </trkpt>
      <trkpt lat="59.9518158" lon="17.6724823">
        <ele>18.4023</ele>
        <time>2013-05-15T15:45:13Z</time>
      </trkpt>
      <trkpt lat="59.9518311" lon="17.6726233">
        <ele>18.4023</ele>
        <time>2013-05-15T15:45:14Z</time>
      </trkpt>
      <trkpt lat="59.9518481" lon="17.6727622">
        <ele>18.4023</ele>
        <time>2013-05-15T15:45:15Z</time>
      </trkpt>
      <trkpt lat="59.9518662" lon="17.6728993">
        <ele>18.8831</ele>
        <time>2013-05-15T15:45:16Z</time>
      </trkpt>
      <trkpt lat="59.9518838" lon="17.6730352">
        <ele>18.8831</ele>
        <time>2013-05-15T15:45:17Z</time>
      </trkpt>
      <trkpt lat="59.9519017" lon="17.6731729">
        <ele>18.8831</ele>
        <time>2013-05-15T15:45:18Z</time>
      </trkpt>
      <trkpt lat="59.9519206" lon="17.673312">
        <ele>18.8831</ele>
        <time>2013-05-15T15:45:19Z</time>
      </trkpt>
      <trkpt lat="59.951941" lon="17.673451">
        <ele>19.3638</ele>
        <time>2013-05-15T15:45:20Z</time>
      </trkpt>
      <trkpt lat="59.9519638" lon="17.6735896">
        <ele>19.3638</ele>
        <time>2013-05-15T15:45:21Z</time>
      </trkpt>
      <trkpt lat="59.9519877" lon="17.6737286">
        <ele>19.3638</ele>
        <time>2013-05-15T15:45:22Z</time>
      </trkpt>
      <trkpt lat="59.9520116" lon="17.6738662">
        <ele>19.3638</ele>
        <time>2013-05-15T15:45:23Z</time>
      </trkpt>
      <trkpt lat="59.9520352" lon="17.6739986">
        <ele>19.8444</ele>
        <time>2013-05-15T15:45:24Z</time>
      </trkpt>
      <trkpt lat="59.9520596" lon="17.6741248">
        <ele>19.8444</ele>
        <time>2013-05-15T15:45:25Z</time>
      </trkpt>
      <trkpt lat="59.952086" lon="17.6742468">
        <ele>19.8444</ele>
        <time>2013-05-15T15:45:26Z</time>
      </trkpt>
      <trkpt lat="59.9521135" lon="17.6743688">
        <ele>19.8444</ele>
        <time>2013-05-15T15:45:27Z</time>
      </trkpt>
      <trkpt lat="59.952139" lon="17.6744922">
        <ele>19.8444</ele>
        <time>2013-05-15T15:45:28Z</time>
      </trkpt>
      <trkpt lat="59.9521628" lon="17.6746129">
        <ele>20.325</ele>
        <time>2013-05-15T15:45:29Z</time>
      </trkpt>
      <trkpt lat="59.9521838" lon="17.674731">
        <ele>20.325</ele>
        <time>2013-05-15T15:45:30Z</time>
      </trkpt>
      <trkpt lat="59.9522019" lon="17.6748442">
        <ele>20.325</ele>
        <time>2013-05-15T15:45:31Z</time>
      </trkpt>
      <trkpt lat="59.9522205" lon="17.674951">
        <ele>20.8057</ele>
        <time>2013-05-15T15:45:32Z</time>
      </trkpt>
      <trkpt lat="59.9522409" lon="17.6750517">
        <ele>21.2864</ele>
        <time>2013-05-15T15:45:33Z</time>
      </trkpt>
      <trkpt lat="59.9522633" lon="17.6751485">
        <ele>21.767</ele>
        <time>2013-05-15T15:45:34Z</time>
      </trkpt>
      <trkpt lat="59.952286" lon="17.6752444">
        <ele>21.2864</ele>
        <time>2013-05-15T15:45:35Z</time>
      </trkpt>
      <trkpt lat="59.9523112" lon="17.6753397">
        <ele>21.2864</ele>
        <time>2013-05-15T15:45:36Z</time>
      </trkpt>
      <trkpt lat="59.9523409" lon="17.675436">
        <ele>21.2864</ele>
        <time>2013-05-15T15:45:37Z</time>
      </trkpt>
      <trkpt lat="59.9523755" lon="17.675536">
        <ele>20.8057</ele>
        <time>2013-05-15T15:45:38Z</time>
      </trkpt>
      <trkpt lat="59.9524141" lon="17.675638">
        <ele>20.325</ele>
        <time>2013-05-15T15:45:39Z</time>
      </trkpt>
      <trkpt lat="59.9524569" lon="17.6757384">
        <ele>20.325</ele>
        <time>2013-05-15T15:45:40Z</time>
      </trkpt>
      <trkpt lat="59.9525023" lon="17.6758416">
        <ele>19.8444</ele>
        <time>2013-05-15T15:45:41Z</time>
      </trkpt>
      <trkpt lat="59.952547" lon="17.675953">
        <ele>19.8444</ele>
        <time>2013-05-15T15:45:42Z</time>
      </trkpt>
      <trkpt lat="59.9525917" lon="17.6760701">
        <ele>19.8444</ele>
        <time>2013-05-15T15:45:43Z</time>
      </trkpt>
      <trkpt lat="59.9526357" lon="17.6761912">
        <ele>19.8444</ele>
        <time>2013-05-15T15:45:44Z</time>
      </trkpt>
      <trkpt lat="59.9526787" lon="17.6763141">
        <ele>19.8444</ele>
        <time>2013-05-15T15:45:45Z</time>
      </trkpt>
      <trkpt lat="59.9527221" lon="17.6764353">
        <ele>19.8444</ele>
        <time>2013-05-15T15:45:46Z</time>
      </trkpt>
      <trkpt lat="59.9527672" lon="17.6765543">
        <ele>19.3638</ele>
        <time>2013-05-15T15:45:47Z</time>
      </trkpt>
      <trkpt lat="59.9528149" lon="17.6766725">
        <ele>19.3638</ele>
        <time>2013-05-15T15:45:48Z</time>
      </trkpt>
      <trkpt lat="59.9528634" lon="17.6767917">
        <ele>18.8831</ele>
        <time>2013-05-15T15:45:49Z</time>
      </trkpt>
      <trkpt lat="59.9529116" lon="17.6769117">
        <ele>18.8831</ele>
        <time>2013-05-15T15:45:50Z</time>
      </trkpt>
      <trkpt lat="59.952959" lon="17.6770335">
        <ele>18.8831</ele>
        <time>2013-05-15T15:45:51Z</time>
      </trkpt>
      <trkpt lat="59.9530066" lon="17.6771563">
        <ele>18.8831</ele>
        <time>2013-05-15T15:45:52Z</time>
      </trkpt>
      <trkpt lat="59.953053" lon="17.6772812">
        <ele>18.8831</ele>
        <time>2013-05-15T15:45:53Z</time>
      </trkpt>
      <trkpt lat="59.9530977" lon="17.6774058">
        <ele>18.8831</ele>
        <time>2013-05-15T15:45:54Z</time>
      </trkpt>
      <trkpt lat="59.9531421" lon="17.6775294">
        <ele>18.8831</ele>
        <time>2013-05-15T15:45:55Z</time>
      </trkpt>
      <trkpt lat="59.9531856" lon="17.677655">
        <ele>18.8831</ele>
        <time>2013-05-15T15:45:56Z</time>
      </trkpt>
      <trkpt lat="59.9532273" lon="17.6777826">
        <ele>18.8831</ele>
        <time>2013-05-15T15:45:57Z</time>
      </trkpt>
      <trkpt lat="59.95327" lon="17.6779106">
        <ele>18.8831</ele>
        <time>2013-05-15T15:45:58Z</time>
      </trkpt>
      <trkpt lat="59.9533135" lon="17.6780389">
        <ele>18.8831</ele>
        <time>2013-05-15T15:45:59Z</time>
      </trkpt>
      <trkpt lat="59.9533584" lon="17.678167">
        <ele>18.4023</ele>
        <time>2013-05-15T15:46:00Z</time>
      </trkpt>
      <trkpt lat="59.9534034" lon="17.6782944">
        <ele>18.4023</ele>
        <time>2013-05-15T15:46:01Z</time>
      </trkpt>
      <trkpt lat="59.9534473" lon="17.6784234">
        <ele>18.4023</ele>
        <time>2013-05-15T15:46:02Z</time>
      </trkpt>
      <trkpt lat="59.9534892" lon="17.6785564">
        <ele>18.4023</ele>
        <time>2013-05-15T15:46:03Z</time>
      </trkpt>
      <trkpt lat="59.9535318" lon="17.6786896">
        <ele>18.4023</ele>
        <time>2013-05-15T15:46:04Z</time>
      </trkpt>
      <trkpt lat="59.9535769" lon="17.6788207">
        <ele>18.4023</ele>
        <time>2013-05-15T15:46:05Z</time>
      </trkpt>
      <trkpt lat="59.9536235" lon="17.6789521">
        <ele>18.8831</ele>
        <time>2013-05-15T15:46:06Z</time>
      </trkpt>
      <trkpt lat="59.9536689" lon="17.6790837">
        <ele>18.8831</ele>
        <time>2013-05-15T15:46:07Z</time>
      </trkpt>
      <trkpt lat="59.9537127" lon="17.6792155">
        <ele>18.8831</ele>
        <time>2013-05-15T15:46:08Z</time>
      </trkpt>
      <trkpt lat="59.9537566" lon="17.6793465">
        <ele>18.8831</ele>
        <time>2013-05-15T15:46:09Z</time>
      </trkpt>
      <trkpt lat="59.9538002" lon="17.6794765">
        <ele>18.8831</ele>
        <time>2013-05-15T15:46:10Z</time>
      </trkpt>
      <trkpt lat="59.9538437" lon="17.6796051">
        <ele>18.8831</ele>
        <time>2013-05-15T15:46:11Z</time>
      </trkpt>
      <trkpt lat="59.9538866" lon="17.6797324">
        <ele>18.4023</ele>
        <time>2013-05-15T15:46:12Z</time>
      </trkpt>
      <trkpt lat="59.953929" lon="17.6798609">
        <ele>18.4023</ele>
        <time>2013-05-15T15:46:13Z</time>
      </trkpt>
      <trkpt lat="59.9539721" lon="17.6799896">
        <ele>18.4023</ele>
        <time>2013-05-15T15:46:14Z</time>
      </trkpt>
      <trkpt lat="59.9540161" lon="17.6801171">
        <ele>18.4023</ele>
        <time>2013-05-15T15:46:15Z</time>
      </trkpt>
      <trkpt lat="59.9540603" lon="17.6802437">
        <ele>18.4023</ele>
        <time>2013-05-15T15:46:16Z</time>
      </trkpt>
      <trkpt lat="59.9541033" lon="17.680372">
        <ele>18.4023</ele>
        <time>2013-05-15T15:46:17Z</time>
      </trkpt>
      <trkpt lat="59.9541457" lon="17.6804995">
        <ele>18.4023</ele>
        <time>2013-05-15T15:46:18Z</time>
      </trkpt>
      <trkpt lat="59.9541881" lon="17.6806245">
        <ele>18.4023</ele>
        <time>2013-05-15T15:46:19Z</time>
      </trkpt>
      <trkpt lat="59.9542311" lon="17.6807481">
        <ele>18.4023</ele>
        <time>2013-05-15T15:46:20Z</time>
      </trkpt>
      <trkpt lat="59.9542735" lon="17.6808719">
        <ele>18.4023</ele>
        <time>2013-05-15T15:46:21Z</time>
      </trkpt>
      <trkpt lat="59.954314" lon="17.6809984">
        <ele>18.4023</ele>
        <time>2013-05-15T15:46:22Z</time>
      </trkpt>
      <trkpt lat="59.954353" lon="17.6811294">
        <ele>18.4023</ele>
        <time>2013-05-15T15:46:23Z</time>
      </trkpt>
      <trkpt lat="59.954392" lon="17.681263">
        <ele>18.8831</ele>
        <time>2013-05-15T15:46:24Z</time>
      </trkpt>
      <trkpt lat="59.9544326" lon="17.6813947">
        <ele>18.8831</ele>
        <time>2013-05-15T15:46:25Z</time>
      </trkpt>
      <trkpt lat="59.9544747" lon="17.6815211">
        <ele>19.3638</ele>
        <time>2013-05-15T15:46:26Z</time>
      </trkpt>
      <trkpt lat="59.9545177" lon="17.6816449">
        <ele>19.3638</ele>
        <time>2013-05-15T15:46:27Z</time>
      </trkpt>
      <trkpt lat="59.9545623" lon="17.6817655">
        <ele>19.8444</ele>
        <time>2013-05-15T15:46:28Z</time>
      </trkpt>
      <trkpt lat="59.9546124" lon="17.6818769">
        <ele>19.8444</ele>
        <time>2013-05-15T15:46:29Z</time>
      </trkpt>
      <trkpt lat="59.9546713" lon="17.6819719">
        <ele>19.8444</ele>
        <time>2013-05-15T15:46:30Z</time>
      </trkpt>
      <trkpt lat="59.9547367" lon="17.682056">
        <ele>20.325</ele>
        <time>2013-05-15T15:46:31Z</time>
      </trkpt>
      <trkpt lat="59.9547967" lon="17.6821557">
        <ele>20.325</ele>
        <time>2013-05-15T15:46:32Z</time>
      </trkpt>
      <trkpt lat="59.954846" lon="17.6822774">
        <ele>20.8057</ele>
        <time>2013-05-15T15:46:33Z</time>
      </trkpt>
      <trkpt lat="59.9548898" lon="17.6824088">
        <ele>20.8057</ele>
        <time>2013-05-15T15:46:34Z</time>
      </trkpt>
      <trkpt lat="59.9549304" lon="17.6825456">
        <ele>20.8057</ele>
        <time>2013-05-15T15:46:35Z</time>
      </trkpt>
      <trkpt lat="59.9549696" lon="17.6826849">
        <ele>20.8057</ele>
        <time>2013-05-15T15:46:36Z</time>
      </trkpt>
      <trkpt lat="59.9550087" lon="17.682826">
        <ele>20.8057</ele>
        <time>2013-05-15T15:46:37Z</time>
      </trkpt>
      <trkpt lat="59.9550475" lon="17.682967">
        <ele>21.2864</ele>
        <time>2013-05-15T15:46:38Z</time>
      </trkpt>
      <trkpt lat="59.9550869" lon="17.6831076">
        <ele>21.2864</ele>
        <time>2013-05-15T15:46:39Z</time>
      </trkpt>
      <trkpt lat="59.9551252" lon="17.683248">
        <ele>21.767</ele>
        <time>2013-05-15T15:46:40Z</time>
      </trkpt>
      <trkpt lat="59.9551615" lon="17.68339">
        <ele>21.767</ele>
        <time>2013-05-15T15:46:41Z</time>
      </trkpt>
      <trkpt lat="59.9551962" lon="17.6835336">
        <ele>21.767</ele>
        <time>2013-05-15T15:46:42Z</time>
      </trkpt>
      <trkpt lat="59.9552295" lon="17.6836794">
        <ele>21.767</ele>
        <time>2013-05-15T15:46:43Z</time>
      </trkpt>
      <trkpt lat="59.9552624" lon="17.6838257">
        <ele>21.767</ele>
        <time>2013-05-15T15:46:44Z</time>
      </trkpt>
      <trkpt lat="59.9552942" lon="17.6839728">
        <ele>21.767</ele>
        <time>2013-05-15T15:46:45Z</time>
      </trkpt>
      <trkpt lat="59.9553245" lon="17.6841198">
        <ele>21.767</ele>
        <time>2013-05-15T15:46:46Z</time>
      </trkpt>
      <trkpt lat="59.9553526" lon="17.684266">
        <ele>22.2476</ele>
        <time>2013-05-15T15:46:47Z</time>
      </trkpt>
      <trkpt lat="59.955378" lon="17.6844119">
        <ele>22.2476</ele>
        <time>2013-05-15T15:46:48Z</time>
      </trkpt>
      <trkpt lat="59.9554029" lon="17.6845566">
        <ele>22.2476</ele>
        <time>2013-05-15T15:46:49Z</time>
      </trkpt>
      <trkpt lat="59.9554293" lon="17.6846996">
        <ele>22.2476</ele>
        <time>2013-05-15T15:46:50Z</time>
      </trkpt>
      <trkpt lat="59.9554547" lon="17.6848421">
        <ele>22.2476</ele>
        <time>2013-05-15T15:46:51Z</time>
      </trkpt>
      <trkpt lat="59.9554775" lon="17.6849865">
        <ele>22.2476</ele>
        <time>2013-05-15T15:46:52Z</time>
      </trkpt>
      <trkpt lat="59.9555001" lon="17.6851326">
        <ele>22.7283</ele>
        <time>2013-05-15T15:46:53Z</time>
      </trkpt>
      <trkpt lat="59.9555228" lon="17.6852798">
        <ele>22.7283</ele>
        <time>2013-05-15T15:46:54Z</time>
      </trkpt>
      <trkpt lat="59.9555448" lon="17.6854279">
        <ele>22.7283</ele>
        <time>2013-05-15T15:46:55Z</time>
      </trkpt>
      <trkpt lat="59.9555661" lon="17.6855762">
        <ele>22.7283</ele>
        <time>2013-05-15T15:46:56Z</time>
      </trkpt>
      <trkpt lat="59.9555864" lon="17.6857237">
        <ele>22.7283</ele>
        <time>2013-05-15T15:46:57Z</time>
      </trkpt>
      <trkpt lat="59.9556069" lon="17.6858713">
        <ele>23.209</ele>
        <time>2013-05-15T15:46:58Z</time>
      </trkpt>
      <trkpt lat="59.9556277" lon="17.6860195">
        <ele>23.209</ele>
        <time>2013-05-15T15:46:59Z</time>
      </trkpt>
      <trkpt lat="59.955649" lon="17.6861695">
        <ele>23.209</ele>
        <time>2013-05-15T15:47:00Z</time>
      </trkpt>
      <trkpt lat="59.9556697" lon="17.6863202">
        <ele>23.209</ele>
        <time>2013-05-15T15:47:01Z</time>
      </trkpt>
      <trkpt lat="59.95569" lon="17.6864701">
        <ele>23.209</ele>
        <time>2013-05-15T15:47:02Z</time>
      </trkpt>
      <trkpt lat="59.9557088" lon="17.6866192">
        <ele>23.209</ele>
        <time>2013-05-15T15:47:03Z</time>
      </trkpt>
      <trkpt lat="59.9557275" lon="17.6867649">
        <ele>23.6896</ele>
        <time>2013-05-15T15:47:04Z</time>
      </trkpt>
      <trkpt lat="59.9557482" lon="17.6869062">
        <ele>23.6896</ele>
        <time>2013-05-15T15:47:05Z</time>
      </trkpt>
      <trkpt lat="59.9557696" lon="17.6870472">
        <ele>23.209</ele>
        <time>2013-05-15T15:47:06Z</time>
      </trkpt>
      <trkpt lat="59.9557897" lon="17.6871885">
        <ele>23.209</ele>
        <time>2013-05-15T15:47:07Z</time>
      </trkpt>
      <trkpt lat="59.955808" lon="17.6873302">
        <ele>23.209</ele>
        <time>2013-05-15T15:47:08Z</time>
      </trkpt>
      <trkpt lat="59.9558269" lon="17.6874736">
        <ele>23.209</ele>
        <time>2013-05-15T15:47:09Z</time>
      </trkpt>
      <trkpt lat="59.9558483" lon="17.687616">
        <ele>23.209</ele>
        <time>2013-05-15T15:47:10Z</time>
      </trkpt>
      <trkpt lat="59.9558712" lon="17.687758">
        <ele>23.209</ele>
        <time>2013-05-15T15:47:11Z</time>
      </trkpt>
      <trkpt lat="59.9558945" lon="17.6879018">
        <ele>23.209</ele>
        <time>2013-05-15T15:47:12Z</time>
      </trkpt>
      <trkpt lat="59.9559181" lon="17.6880449">
        <ele>23.209</ele>
        <time>2013-05-15T15:47:13Z</time>
      </trkpt>
      <trkpt lat="59.9559416" lon="17.6881901">
        <ele>23.6896</ele>
        <time>2013-05-15T15:47:14Z</time>
      </trkpt>
      <trkpt lat="59.955966" lon="17.68834">
        <ele>23.6896</ele>
        <time>2013-05-15T15:47:15Z</time>
      </trkpt>
      <trkpt lat="59.9559914" lon="17.6884943">
        <ele>23.6896</ele>
        <time>2013-05-15T15:47:16Z</time>
      </trkpt>
      <trkpt lat="59.9560208" lon="17.6886489">
        <ele>24.1703</ele>
        <time>2013-05-15T15:47:17Z</time>
      </trkpt>
      <trkpt lat="59.9560572" lon="17.6887965">
        <ele>24.651</ele>
        <time>2013-05-15T15:47:18Z</time>
      </trkpt>
      <trkpt lat="59.956099" lon="17.6889379">
        <ele>24.651</ele>
        <time>2013-05-15T15:47:19Z</time>
      </trkpt>
      <trkpt lat="59.956139" lon="17.6890799">
        <ele>24.651</ele>
        <time>2013-05-15T15:47:20Z</time>
      </trkpt>
      <trkpt lat="59.9561752" lon="17.6892291">
        <ele>24.651</ele>
        <time>2013-05-15T15:47:21Z</time>
      </trkpt>
      <trkpt lat="59.9562084" lon="17.6893819">
        <ele>24.651</ele>
        <time>2013-05-15T15:47:22Z</time>
      </trkpt>
      <trkpt lat="59.9562424" lon="17.68953">
        <ele>24.651</ele>
        <time>2013-05-15T15:47:23Z</time>
      </trkpt>
      <trkpt lat="59.9562768" lon="17.6896747">
        <ele>25.1317</ele>
        <time>2013-05-15T15:47:24Z</time>
      </trkpt>
      <trkpt lat="59.9563105" lon="17.6898184">
        <ele>25.1317</ele>
        <time>2013-05-15T15:47:25Z</time>
      </trkpt>
      <trkpt lat="59.9563454" lon="17.6899573">
        <ele>25.1317</ele>
        <time>2013-05-15T15:47:26Z</time>
      </trkpt>
      <trkpt lat="59.9563822" lon="17.6900916">
        <ele>25.1317</ele>
        <time>2013-05-15T15:47:27Z</time>
      </trkpt>
      <trkpt lat="59.9564206" lon="17.6902221">
        <ele>25.1317</ele>
        <time>2013-05-15T15:47:28Z</time>
      </trkpt>
      <trkpt lat="59.9564647" lon="17.6903947">
        <ele>25.6123</ele>
        <time>2013-05-15T15:47:29Z</time>
      </trkpt>
      <trkpt lat="59.9565009" lon="17.6904985">
        <ele>25.6123</ele>
        <time>2013-05-15T15:47:30Z</time>
      </trkpt>
      <trkpt lat="59.9565509" lon="17.6906132">
        <ele>25.1317</ele>
        <time>2013-05-15T15:47:31Z</time>
      </trkpt>
      <trkpt lat="59.9565977" lon="17.6907519">
        <ele>25.1317</ele>
        <time>2013-05-15T15:47:32Z</time>
      </trkpt>
      <trkpt lat="59.9566498" lon="17.6908945">
        <ele>25.1317</ele>
        <time>2013-05-15T15:47:33Z</time>
      </trkpt>
      <trkpt lat="59.9567005" lon="17.6910362">
        <ele>25.1317</ele>
        <time>2013-05-15T15:47:34Z</time>
      </trkpt>
      <trkpt lat="59.9567498" lon="17.6911755">
        <ele>24.651</ele>
        <time>2013-05-15T15:47:35Z</time>
      </trkpt>
      <trkpt lat="59.9567984" lon="17.6913213">
        <ele>24.1703</ele>
        <time>2013-05-15T15:47:36Z</time>
      </trkpt>
      <trkpt lat="59.9568474" lon="17.6914698">
        <ele>24.1703</ele>
        <time>2013-05-15T15:47:37Z</time>
      </trkpt>
      <trkpt lat="59.9568978" lon="17.6916186">
        <ele>23.6896</ele>
        <time>2013-05-15T15:47:38Z</time>
      </trkpt>
      <trkpt lat="59.9569486" lon="17.6917682">
        <ele>23.6896</ele>
        <time>2013-05-15T15:47:39Z</time>
      </trkpt>
      <trkpt lat="59.9569994" lon="17.6919169">
        <ele>23.6896</ele>
        <time>2013-05-15T15:47:40Z</time>
      </trkpt>
      <trkpt lat="59.9570521" lon="17.6920652">
        <ele>23.209</ele>
        <time>2013-05-15T15:47:41Z</time>
      </trkpt>
      <trkpt lat="59.9571035" lon="17.6922136">
        <ele>23.209</ele>
        <time>2013-05-15T15:47:42Z</time>
      </trkpt>
      <trkpt lat="59.9571538" lon="17.6923651">
        <ele>23.209</ele>
        <time>2013-05-15T15:47:43Z</time>
      </trkpt>
      <trkpt lat="59.9572044" lon="17.6925143">
        <ele>23.209</ele>
        <time>2013-05-15T15:47:44Z</time>
      </trkpt>
      <trkpt lat="59.9572537" lon="17.6926629">
        <ele>23.209</ele>
        <time>2013-05-15T15:47:45Z</time>
      </trkpt>
      <trkpt lat="59.9573035" lon="17.6928085">
        <ele>23.209</ele>
        <time>2013-05-15T15:47:46Z</time>
      </trkpt>
      <trkpt lat="59.9573531" lon="17.6929525">
        <ele>23.209</ele>
        <time>2013-05-15T15:47:47Z</time>
      </trkpt>
      <trkpt lat="59.9574025" lon="17.6930934">
        <ele>23.209</ele>
        <time>2013-05-15T15:47:48Z</time>
      </trkpt>
      <trkpt lat="59.9574515" lon="17.6932328">
        <ele>23.209</ele>
        <time>2013-05-15T15:47:49Z</time>
      </trkpt>
      <trkpt lat="59.9575003" lon="17.6933725">
        <ele>23.209</ele>
        <time>2013-05-15T15:47:50Z</time>
      </trkpt>
      <trkpt lat="59.9575464" lon="17.6935105">
        <ele>22.7283</ele>
        <time>2013-05-15T15:47:51Z</time>
      </trkpt>
      <trkpt lat="59.9575918" lon="17.6936478">
        <ele>22.7283</ele>
        <time>2013-05-15T15:47:52Z</time>
      </trkpt>
      <trkpt lat="59.9576368" lon="17.6937861">
        <ele>22.7283</ele>
        <time>2013-05-15T15:47:53Z</time>
      </trkpt>
      <trkpt lat="59.9576824" lon="17.6939217">
        <ele>22.7283</ele>
        <time>2013-05-15T15:47:54Z</time>
      </trkpt>
      <trkpt lat="59.9577289" lon="17.6940547">
        <ele>22.7283</ele>
        <time>2013-05-15T15:47:55Z</time>
      </trkpt>
      <trkpt lat="59.9577738" lon="17.694187">
        <ele>22.7283</ele>
        <time>2013-05-15T15:47:56Z</time>
      </trkpt>
      <trkpt lat="59.9578182" lon="17.6943191">
        <ele>22.7283</ele>
        <time>2013-05-15T15:47:57Z</time>
      </trkpt>
      <trkpt lat="59.957862" lon="17.6944509">
        <ele>22.7283</ele>
        <time>2013-05-15T15:47:58Z</time>
      </trkpt>
      <trkpt lat="59.9579079" lon="17.6945781">
        <ele>22.7283</ele>
        <time>2013-05-15T15:47:59Z</time>
      </trkpt>
      <trkpt lat="59.9579583" lon="17.6947101">
        <ele>23.209</ele>
        <time>2013-05-15T15:48:00Z</time>
      </trkpt>
      <trkpt lat="59.9580042" lon="17.6948403">
        <ele>23.209</ele>
        <time>2013-05-15T15:48:01Z</time>
      </trkpt>
      <trkpt lat="59.9580495" lon="17.694968">
        <ele>23.209</ele>
        <time>2013-05-15T15:48:02Z</time>
      </trkpt>
      <trkpt lat="59.9580961" lon="17.6950977">
        <ele>23.209</ele>
        <time>2013-05-15T15:48:03Z</time>
      </trkpt>
      <trkpt lat="59.9581462" lon="17.6952178">
        <ele>23.209</ele>
        <time>2013-05-15T15:48:04Z</time>
      </trkpt>
      <trkpt lat="59.958193" lon="17.6953389">
        <ele>23.6896</ele>
        <time>2013-05-15T15:48:05Z</time>
      </trkpt>
      <trkpt lat="59.9582421" lon="17.6954605">
        <ele>23.6896</ele>
        <time>2013-05-15T15:48:06Z</time>
      </trkpt>
      <trkpt lat="59.9582909" lon="17.6955815">
        <ele>23.6896</ele>
        <time>2013-05-15T15:48:07Z</time>
      </trkpt>
      <trkpt lat="59.9583391" lon="17.6957026">
        <ele>23.6896</ele>
        <time>2013-05-15T15:48:08Z</time>
      </trkpt>
      <trkpt lat="59.958389" lon="17.6958221">
        <ele>23.6896</ele>
        <time>2013-05-15T15:48:09Z</time>
      </trkpt>
      <trkpt lat="59.9584384" lon="17.695941">
        <ele>23.6896</ele>
        <time>2013-05-15T15:48:10Z</time>
      </trkpt>
      <trkpt lat="59.9584881" lon="17.6960616">
        <ele>24.1703</ele>
        <time>2013-05-15T15:48:11Z</time>
      </trkpt>
      <trkpt lat="59.9585343" lon="17.6961809">
        <ele>24.1703</ele>
        <time>2013-05-15T15:48:12Z</time>
      </trkpt>
      <trkpt lat="59.9585797" lon="17.6963015">
        <ele>24.1703</ele>
        <time>2013-05-15T15:48:13Z</time>
      </trkpt>
      <trkpt lat="59.9586243" lon="17.6964218">
        <ele>24.651</ele>
        <time>2013-05-15T15:48:14Z</time>
      </trkpt>
      <trkpt lat="59.9586675" lon="17.6965403">
        <ele>24.651</ele>
        <time>2013-05-15T15:48:15Z</time>
      </trkpt>
      <trkpt lat="59.9587078" lon="17.6966716">
        <ele>24.651</ele>
        <time>2013-05-15T15:48:16Z</time>
      </trkpt>
      <trkpt lat="59.9587426" lon="17.6968056">
        <ele>24.651</ele>
        <time>2013-05-15T15:48:17Z</time>
      </trkpt>
      <trkpt lat="59.958774" lon="17.6969521">
        <ele>24.651</ele>
        <time>2013-05-15T15:48:18Z</time>
      </trkpt>
      <trkpt lat="59.9588037" lon="17.6970975">
        <ele>25.1317</ele>
        <time>2013-05-15T15:48:19Z</time>
      </trkpt>
      <trkpt lat="59.9588342" lon="17.6972469">
        <ele>25.1317</ele>
        <time>2013-05-15T15:48:20Z</time>
      </trkpt>
      <trkpt lat="59.9588621" lon="17.6973969">
        <ele>25.1317</ele>
        <time>2013-05-15T15:48:21Z</time>
      </trkpt>
      <trkpt lat="59.9588868" lon="17.6975495">
        <ele>25.6123</ele>
        <time>2013-05-15T15:48:22Z</time>
      </trkpt>
      <trkpt lat="59.9589124" lon="17.6976963">
        <ele>25.6123</ele>
        <time>2013-05-15T15:48:23Z</time>
      </trkpt>
      <trkpt lat="59.9589345" lon="17.6978434">
        <ele>25.6123</ele>
        <time>2013-05-15T15:48:24Z</time>
      </trkpt>
      <trkpt lat="59.9589543" lon="17.6979901">
        <ele>25.6123</ele>
        <time>2013-05-15T15:48:25Z</time>
      </trkpt>
      <trkpt lat="59.9589583" lon="17.6981268">
        <ele>25.1317</ele>
        <time>2013-05-15T15:48:26Z</time>
      </trkpt>
      <trkpt lat="59.9589647" lon="17.6982672">
        <ele>25.1317</ele>
        <time>2013-05-15T15:48:27Z</time>
      </trkpt>
      <trkpt lat="59.958976" lon="17.6984124">
        <ele>25.6123</ele>
        <time>2013-05-15T15:48:28Z</time>
      </trkpt>
      <trkpt lat="59.9589806" lon="17.6985482">
        <ele>25.6123</ele>
        <time>2013-05-15T15:48:29Z</time>
      </trkpt>
      <trkpt lat="59.9589834" lon="17.6986853">
        <ele>25.6123</ele>
        <time>2013-05-15T15:48:30Z</time>
      </trkpt>
      <trkpt lat="59.958986" lon="17.6988248">
        <ele>25.6123</ele>
        <time>2013-05-15T15:48:31Z</time>
      </trkpt>
      <trkpt lat="59.9589885" lon="17.6989625">
        <ele>25.6123</ele>
        <time>2013-05-15T15:48:32Z</time>
      </trkpt>
      <trkpt lat="59.9589917" lon="17.6991021">
        <ele>26.0929</ele>
        <time>2013-05-15T15:48:33Z</time>
      </trkpt>
      <trkpt lat="59.9589969" lon="17.6992444">
        <ele>26.0929</ele>
        <time>2013-05-15T15:48:34Z</time>
      </trkpt>
      <trkpt lat="59.9590046" lon="17.6993874">
        <ele>26.0929</ele>
        <time>2013-05-15T15:48:35Z</time>
      </trkpt>
      <trkpt lat="59.9590143" lon="17.6995293">
        <ele>26.0929</ele>
        <time>2013-05-15T15:48:36Z</time>
      </trkpt>
      <trkpt lat="59.9590253" lon="17.6996685">
        <ele>26.0929</ele>
        <time>2013-05-15T15:48:37Z</time>
      </trkpt>
      <trkpt lat="59.9590362" lon="17.6998064">
        <ele>26.0929</ele>
        <time>2013-05-15T15:48:38Z</time>
      </trkpt>
      <trkpt lat="59.9590466" lon="17.6999436">
        <ele>26.0929</ele>
        <time>2013-05-15T15:48:39Z</time>
      </trkpt>
      <trkpt lat="59.9590574" lon="17.7000807">
        <ele>26.0929</ele>
        <time>2013-05-15T15:48:40Z</time>
      </trkpt>
      <trkpt lat="59.9590693" lon="17.7002179">
        <ele>26.0929</ele>
        <time>2013-05-15T15:48:41Z</time>
      </trkpt>
      <trkpt lat="59.9590797" lon="17.700357">
        <ele>26.0929</ele>
        <time>2013-05-15T15:48:42Z</time>
      </trkpt>
      <trkpt lat="59.9590906" lon="17.7004946">
        <ele>26.0929</ele>
        <time>2013-05-15T15:48:43Z</time>
      </trkpt>
      <trkpt lat="59.9591029" lon="17.7006295">
        <ele>26.5736</ele>
        <time>2013-05-15T15:48:44Z</time>
      </trkpt>
      <trkpt lat="59.9591168" lon="17.7007615">
        <ele>26.5736</ele>
        <time>2013-05-15T15:48:45Z</time>
      </trkpt>
      <trkpt lat="59.9591305" lon="17.7008916">
        <ele>26.5736</ele>
        <time>2013-05-15T15:48:46Z</time>
      </trkpt>
      <trkpt lat="59.9591434" lon="17.70102">
        <ele>27.0543</ele>
        <time>2013-05-15T15:48:47Z</time>
      </trkpt>
      <trkpt lat="59.9591578" lon="17.7011458">
        <ele>27.0543</ele>
        <time>2013-05-15T15:48:48Z</time>
      </trkpt>
      <trkpt lat="59.9591735" lon="17.7012675">
        <ele>27.5349</ele>
        <time>2013-05-15T15:48:49Z</time>
      </trkpt>
      <trkpt lat="59.9591902" lon="17.7013852">
        <ele>27.5349</ele>
        <time>2013-05-15T15:48:50Z</time>
      </trkpt>
      <trkpt lat="59.9592088" lon="17.7014982">
        <ele>28.0155</ele>
        <time>2013-05-15T15:48:51Z</time>
      </trkpt>
      <trkpt lat="59.9592304" lon="17.7016099">
        <ele>28.0155</ele>
        <time>2013-05-15T15:48:52Z</time>
      </trkpt>
      <trkpt lat="59.9592554" lon="17.7017229">
        <ele>28.0155</ele>
        <time>2013-05-15T15:48:53Z</time>
      </trkpt>
      <trkpt lat="59.9592791" lon="17.7018347">
        <ele>28.4962</ele>
        <time>2013-05-15T15:48:54Z</time>
      </trkpt>
      <trkpt lat="59.9593045" lon="17.7019491">
        <ele>28.0155</ele>
        <time>2013-05-15T15:48:55Z</time>
      </trkpt>
      <trkpt lat="59.959333" lon="17.7020647">
        <ele>27.5349</ele>
        <time>2013-05-15T15:48:56Z</time>
      </trkpt>
      <trkpt lat="59.9593642" lon="17.7021771">
        <ele>27.5349</ele>
        <time>2013-05-15T15:48:57Z</time>
      </trkpt>
      <trkpt lat="59.9593962" lon="17.7022907">
        <ele>27.0543</ele>
        <time>2013-05-15T15:48:58Z</time>
      </trkpt>
      <trkpt lat="59.9594298" lon="17.7024055">
        <ele>26.0929</ele>
        <time>2013-05-15T15:48:59Z</time>
      </trkpt>
      <trkpt lat="59.9594678" lon="17.7025218">
        <ele>26.5736</ele>
        <time>2013-05-15T15:49:00Z</time>
      </trkpt>
      <trkpt lat="59.9595045" lon="17.7026378">
        <ele>26.5736</ele>
        <time>2013-05-15T15:49:01Z</time>
      </trkpt>
      <trkpt lat="59.9595372" lon="17.702749">
        <ele>26.5736</ele>
        <time>2013-05-15T15:49:02Z</time>
      </trkpt>
      <trkpt lat="59.9595687" lon="17.7028548">
        <ele>26.5736</ele>
        <time>2013-05-15T15:49:03Z</time>
      </trkpt>
      <trkpt lat="59.9596034" lon="17.7029609">
        <ele>26.5736</ele>
        <time>2013-05-15T15:49:04Z</time>
      </trkpt>
      <trkpt lat="59.9596356" lon="17.7030651">
        <ele>26.5736</ele>
        <time>2013-05-15T15:49:05Z</time>
      </trkpt>
      <trkpt lat="59.9596687" lon="17.7031698">
        <ele>26.5736</ele>
        <time>2013-05-15T15:49:06Z</time>
      </trkpt>
      <trkpt lat="59.9597019" lon="17.7032738">
        <ele>26.0929</ele>
        <time>2013-05-15T15:49:07Z</time>
      </trkpt>
      <trkpt lat="59.9597393" lon="17.7033797">
        <ele>26.5736</ele>
        <time>2013-05-15T15:49:08Z</time>
      </trkpt>
      <trkpt lat="59.9597753" lon="17.7034843">
        <ele>26.5736</ele>
        <time>2013-05-15T15:49:09Z</time>
      </trkpt>
      <trkpt lat="59.9598157" lon="17.703593">
        <ele>26.5736</ele>
        <time>2013-05-15T15:49:10Z</time>
      </trkpt>
      <trkpt lat="59.9598586" lon="17.7037088">
        <ele>27.0543</ele>
        <time>2013-05-15T15:49:11Z</time>
      </trkpt>
      <trkpt lat="59.9599018" lon="17.7038297">
        <ele>27.0543</ele>
        <time>2013-05-15T15:49:12Z</time>
      </trkpt>
      <trkpt lat="59.9599454" lon="17.7039536">
        <ele>27.0543</ele>
        <time>2013-05-15T15:49:13Z</time>
      </trkpt>
      <trkpt lat="59.9599862" lon="17.7040716">
        <ele>27.0543</ele>
        <time>2013-05-15T15:49:14Z</time>
      </trkpt>
      <trkpt lat="59.9600487" lon="17.7042006">
        <ele>27.0543</ele>
        <time>2013-05-15T15:49:15Z</time>
      </trkpt>
      <trkpt lat="59.9600997" lon="17.7042973">
        <ele>26.5736</ele>
        <time>2013-05-15T15:49:16Z</time>
      </trkpt>
      <trkpt lat="59.9601549" lon="17.7043919">
        <ele>26.5736</ele>
        <time>2013-05-15T15:49:17Z</time>
      </trkpt>
      <trkpt lat="59.9602034" lon="17.7044527">
        <ele>27.0543</ele>
        <time>2013-05-15T15:49:18Z</time>
      </trkpt>
      <trkpt lat="59.960271" lon="17.7045381">
        <ele>26.5736</ele>
        <time>2013-05-15T15:49:19Z</time>
      </trkpt>
      <trkpt lat="59.9603372" lon="17.7046243">
        <ele>26.5736</ele>
        <time>2013-05-15T15:49:20Z</time>
      </trkpt>
      <trkpt lat="59.9604042" lon="17.7047108">
        <ele>26.5736</ele>
        <time>2013-05-15T15:49:21Z</time>
      </trkpt>
      <trkpt lat="59.9604736" lon="17.7047972">
        <ele>26.5736</ele>
        <time>2013-05-15T15:49:22Z</time>
      </trkpt>
      <trkpt lat="59.9605305" lon="17.7048632">
        <ele>26.5736</ele>
        <time>2013-05-15T15:49:23Z</time>
      </trkpt>
      <trkpt lat="59.9605945" lon="17.7049476">
        <ele>26.0929</ele>
        <time>2013-05-15T15:49:24Z</time>
      </trkpt>
      <trkpt lat="59.9606637" lon="17.705032">
        <ele>26.0929</ele>
        <time>2013-05-15T15:49:25Z</time>
      </trkpt>
      <trkpt lat="59.9607349" lon="17.7051235">
        <ele>26.0929</ele>
        <time>2013-05-15T15:49:26Z</time>
      </trkpt>
      <trkpt lat="59.9608057" lon="17.7052181">
        <ele>26.5736</ele>
        <time>2013-05-15T15:49:27Z</time>
      </trkpt>
      <trkpt lat="59.960877" lon="17.7053122">
        <ele>26.5736</ele>
        <time>2013-05-15T15:49:28Z</time>
      </trkpt>
      <trkpt lat="59.9609467" lon="17.7054107">
        <ele>27.0543</ele>
        <time>2013-05-15T15:49:29Z</time>
      </trkpt>
      <trkpt lat="59.9610115" lon="17.7055153">
        <ele>26.5736</ele>
        <time>2013-05-15T15:49:30Z</time>
      </trkpt>
      <trkpt lat="59.9610725" lon="17.7056262">
        <ele>26.5736</ele>
        <time>2013-05-15T15:49:31Z</time>
      </trkpt>
      <trkpt lat="59.9611324" lon="17.7057413">
        <ele>26.5736</ele>
        <time>2013-05-15T15:49:32Z</time>
      </trkpt>
      <trkpt lat="59.9611916" lon="17.7058562">
        <ele>27.0543</ele>
        <time>2013-05-15T15:49:33Z</time>
      </trkpt>
      <trkpt lat="59.9612518" lon="17.7059718">
        <ele>27.0543</ele>
        <time>2013-05-15T15:49:34Z</time>
      </trkpt>
      <trkpt lat="59.9613145" lon="17.7060861">
        <ele>27.0543</ele>
        <time>2013-05-15T15:49:35Z</time>
      </trkpt>
      <trkpt lat="59.9613777" lon="17.7061985">
        <ele>27.5349</ele>
        <time>2013-05-15T15:49:36Z</time>
      </trkpt>
      <trkpt lat="59.9614403" lon="17.7063094">
        <ele>27.5349</ele>
        <time>2013-05-15T15:49:37Z</time>
      </trkpt>
      <trkpt lat="59.9615036" lon="17.7064155">
        <ele>27.5349</ele>
        <time>2013-05-15T15:49:38Z</time>
      </trkpt>
      <trkpt lat="59.9615711" lon="17.7065149">
        <ele>27.5349</ele>
        <time>2013-05-15T15:49:39Z</time>
      </trkpt>
      <trkpt lat="59.9616423" lon="17.7066041">
        <ele>28.0155</ele>
        <time>2013-05-15T15:49:40Z</time>
      </trkpt>
      <trkpt lat="59.9617157" lon="17.706687">
        <ele>27.0543</ele>
        <time>2013-05-15T15:49:41Z</time>
      </trkpt>
      <trkpt lat="59.961791" lon="17.7067586">
        <ele>26.5736</ele>
        <time>2013-05-15T15:49:42Z</time>
      </trkpt>
      <trkpt lat="59.9618711" lon="17.7068249">
        <ele>26.0929</ele>
        <time>2013-05-15T15:49:43Z</time>
      </trkpt>
      <trkpt lat="59.9619479" lon="17.7068823">
        <ele>25.6123</ele>
        <time>2013-05-15T15:49:44Z</time>
      </trkpt>
      <trkpt lat="59.9620272" lon="17.7069341">
        <ele>25.1317</ele>
        <time>2013-05-15T15:49:45Z</time>
      </trkpt>
      <trkpt lat="59.9621071" lon="17.7069832">
        <ele>24.651</ele>
        <time>2013-05-15T15:49:46Z</time>
      </trkpt>
      <trkpt lat="59.9621876" lon="17.7070288">
        <ele>24.1703</ele>
        <time>2013-05-15T15:49:47Z</time>
      </trkpt>
      <trkpt lat="59.9622681" lon="17.70707">
        <ele>23.6896</ele>
        <time>2013-05-15T15:49:48Z</time>
      </trkpt>
      <trkpt lat="59.9623494" lon="17.7071085">
        <ele>23.209</ele>
        <time>2013-05-15T15:49:49Z</time>
      </trkpt>
      <trkpt lat="59.9624315" lon="17.7071448">
        <ele>23.209</ele>
        <time>2013-05-15T15:49:50Z</time>
      </trkpt>
      <trkpt lat="59.9625144" lon="17.7071782">
        <ele>22.7283</ele>
        <time>2013-05-15T15:49:51Z</time>
      </trkpt>
      <trkpt lat="59.9625971" lon="17.7072076">
        <ele>22.2476</ele>
        <time>2013-05-15T15:49:52Z</time>
      </trkpt>
      <trkpt lat="59.9626813" lon="17.7072304">
        <ele>21.767</ele>
        <time>2013-05-15T15:49:53Z</time>
      </trkpt>
      <trkpt lat="59.9627673" lon="17.7072468">
        <ele>21.2864</ele>
        <time>2013-05-15T15:49:54Z</time>
      </trkpt>
      <trkpt lat="59.9628543" lon="17.7072562">
        <ele>20.8057</ele>
        <time>2013-05-15T15:49:55Z</time>
      </trkpt>
      <trkpt lat="59.9629416" lon="17.7072599">
        <ele>20.325</ele>
        <time>2013-05-15T15:49:56Z</time>
      </trkpt>
      <trkpt lat="59.9630302" lon="17.7072588">
        <ele>19.8444</ele>
        <time>2013-05-15T15:49:57Z</time>
      </trkpt>
      <trkpt lat="59.963118" lon="17.7072552">
        <ele>19.3638</ele>
        <time>2013-05-15T15:49:58Z</time>
      </trkpt>
      <trkpt lat="59.9632041" lon="17.7072546">
        <ele>18.8831</ele>
        <time>2013-05-15T15:49:59Z</time>
      </trkpt>
      <trkpt lat="59.9632889" lon="17.7072565">
        <ele>17.9218</ele>
        <time>2013-05-15T15:50:00Z</time>
      </trkpt>
      <trkpt lat="59.9633748" lon="17.7072588">
        <ele>17.4412</ele>
        <time>2013-05-15T15:50:01Z</time>
      </trkpt>
      <trkpt lat="59.9634621" lon="17.7072615">
        <ele>17.4412</ele>
        <time>2013-05-15T15:50:02Z</time>
      </trkpt>
      <trkpt lat="59.9635502" lon="17.707268">
        <ele>16.9604</ele>
        <time>2013-05-15T15:50:03Z</time>
      </trkpt>
      <trkpt lat="59.9636382" lon="17.7072786">
        <ele>15.999</ele>
        <time>2013-05-15T15:50:04Z</time>
      </trkpt>
      <trkpt lat="59.9637273" lon="17.7072904">
        <ele>15.999</ele>
        <time>2013-05-15T15:50:05Z</time>
      </trkpt>
      <trkpt lat="59.9638174" lon="17.707302">
        <ele>15.999</ele>
        <time>2013-05-15T15:50:06Z</time>
      </trkpt>
      <trkpt lat="59.9639071" lon="17.7073142">
        <ele>15.999</ele>
        <time>2013-05-15T15:50:07Z</time>
      </trkpt>
      <trkpt lat="59.9639967" lon="17.7073263">
        <ele>15.5184</ele>
        <time>2013-05-15T15:50:08Z</time>
      </trkpt>
      <trkpt lat="59.9640869" lon="17.7073406">
        <ele>15.5184</ele>
        <time>2013-05-15T15:50:09Z</time>
      </trkpt>
      <trkpt lat="59.9641785" lon="17.7073616">
        <ele>15.5184</ele>
        <time>2013-05-15T15:50:10Z</time>
      </trkpt>
      <trkpt lat="59.9642701" lon="17.70739">
        <ele>15.5184</ele>
        <time>2013-05-15T15:50:11Z</time>
      </trkpt>
      <trkpt lat="59.9643614" lon="17.7074226">
        <ele>15.5184</ele>
        <time>2013-05-15T15:50:12Z</time>
      </trkpt>
      <trkpt lat="59.9644535" lon="17.7074583">
        <ele>15.999</ele>
        <time>2013-05-15T15:50:13Z</time>
      </trkpt>
      <trkpt lat="59.9645436" lon="17.7075012">
        <ele>15.999</ele>
        <time>2013-05-15T15:50:14Z</time>
      </trkpt>
      <trkpt lat="59.9646324" lon="17.7075542">
        <ele>15.999</ele>
        <time>2013-05-15T15:50:15Z</time>
      </trkpt>
      <trkpt lat="59.9647203" lon="17.7076138">
        <ele>15.5184</ele>
        <time>2013-05-15T15:50:16Z</time>
      </trkpt>
      <trkpt lat="59.9648075" lon="17.7076755">
        <ele>15.5184</ele>
        <time>2013-05-15T15:50:17Z</time>
      </trkpt>
      <trkpt lat="59.9648959" lon="17.7077402">
        <ele>15.5184</ele>
        <time>2013-05-15T15:50:18Z</time>
      </trkpt>
      <trkpt lat="59.9649841" lon="17.7078055">
        <ele>15.5184</ele>
        <time>2013-05-15T15:50:19Z</time>
      </trkpt>
      <trkpt lat="59.9650719" lon="17.7078703">
        <ele>15.5184</ele>
        <time>2013-05-15T15:50:20Z</time>
      </trkpt>
      <trkpt lat="59.9651595" lon="17.7079422">
        <ele>15.0377</ele>
        <time>2013-05-15T15:50:21Z</time>
      </trkpt>
      <trkpt lat="59.9652438" lon="17.7080156">
        <ele>15.0377</ele>
        <time>2013-05-15T15:50:22Z</time>
      </trkpt>
      <trkpt lat="59.965329" lon="17.7080935">
        <ele>14.557</ele>
        <time>2013-05-15T15:50:23Z</time>
      </trkpt>
      <trkpt lat="59.9654101" lon="17.7081746">
        <ele>14.0764</ele>
        <time>2013-05-15T15:50:24Z</time>
      </trkpt>
      <trkpt lat="59.965488" lon="17.7082623">
        <ele>13.5958</ele>
        <time>2013-05-15T15:50:25Z</time>
      </trkpt>
      <trkpt lat="59.965563" lon="17.708358">
        <ele>13.5958</ele>
        <time>2013-05-15T15:50:26Z</time>
      </trkpt>
      <trkpt lat="59.9656339" lon="17.7084634">
        <ele>13.5958</ele>
        <time>2013-05-15T15:50:27Z</time>
      </trkpt>
      <trkpt lat="59.9657025" lon="17.7085788">
        <ele>13.5958</ele>
        <time>2013-05-15T15:50:28Z</time>
      </trkpt>
      <trkpt lat="59.9657646" lon="17.708705">
        <ele>14.0764</ele>
        <time>2013-05-15T15:50:29Z</time>
      </trkpt>
      <trkpt lat="59.9658201" lon="17.7088409">
        <ele>14.557</ele>
        <time>2013-05-15T15:50:30Z</time>
      </trkpt>
      <trkpt lat="59.9658711" lon="17.7089818">
        <ele>14.557</ele>
        <time>2013-05-15T15:50:31Z</time>
      </trkpt>
      <trkpt lat="59.9659195" lon="17.7091258">
        <ele>15.0377</ele>
        <time>2013-05-15T15:50:32Z</time>
      </trkpt>
      <trkpt lat="59.965965" lon="17.7092719">
        <ele>15.0377</ele>
        <time>2013-05-15T15:50:33Z</time>
      </trkpt>
      <trkpt lat="59.9660081" lon="17.7094185">
        <ele>15.5184</ele>
        <time>2013-05-15T15:50:34Z</time>
      </trkpt>
      <trkpt lat="59.9660532" lon="17.7095851">
        <ele>15.5184</ele>
        <time>2013-05-15T15:50:35Z</time>
      </trkpt>
      <trkpt lat="59.9660954" lon="17.7097324">
        <ele>15.999</ele>
        <time>2013-05-15T15:50:36Z</time>
      </trkpt>
      <trkpt lat="59.9661377" lon="17.7098794">
        <ele>16.4797</ele>
        <time>2013-05-15T15:50:37Z</time>
      </trkpt>
      <trkpt lat="59.9661748" lon="17.7100179">
        <ele>16.4797</ele>
        <time>2013-05-15T15:50:38Z</time>
      </trkpt>
      <trkpt lat="59.9662146" lon="17.7101571">
        <ele>16.4797</ele>
        <time>2013-05-15T15:50:39Z</time>
      </trkpt>
      <trkpt lat="59.9662598" lon="17.7103041">
        <ele>16.9604</ele>
        <time>2013-05-15T15:50:40Z</time>
      </trkpt>
      <trkpt lat="59.9663013" lon="17.7104505">
        <ele>17.4412</ele>
        <time>2013-05-15T15:50:41Z</time>
      </trkpt>
      <trkpt lat="59.9663427" lon="17.7105961">
        <ele>17.9218</ele>
        <time>2013-05-15T15:50:42Z</time>
      </trkpt>
      <trkpt lat="59.9663852" lon="17.7107259">
        <ele>19.3638</ele>
        <time>2013-05-15T15:50:43Z</time>
      </trkpt>
      <trkpt lat="59.9664265" lon="17.7108608">
        <ele>20.325</ele>
        <time>2013-05-15T15:50:44Z</time>
      </trkpt>
      <trkpt lat="59.9664663" lon="17.7109965">
        <ele>20.8057</ele>
        <time>2013-05-15T15:50:45Z</time>
      </trkpt>
      <trkpt lat="59.9665069" lon="17.7111317">
        <ele>21.767</ele>
        <time>2013-05-15T15:50:46Z</time>
      </trkpt>
      <trkpt lat="59.9665479" lon="17.7112698">
        <ele>22.2476</ele>
        <time>2013-05-15T15:50:47Z</time>
      </trkpt>
      <trkpt lat="59.9665878" lon="17.7114088">
        <ele>22.7283</ele>
        <time>2013-05-15T15:50:48Z</time>
      </trkpt>
      <trkpt lat="59.966629" lon="17.7115432">
        <ele>22.7283</ele>
        <time>2013-05-15T15:50:49Z</time>
      </trkpt>
      <trkpt lat="59.9666754" lon="17.7116729">
        <ele>23.209</ele>
        <time>2013-05-15T15:50:50Z</time>
      </trkpt>
      <trkpt lat="59.9667217" lon="17.7118014">
        <ele>23.6896</ele>
        <time>2013-05-15T15:50:51Z</time>
      </trkpt>
      <trkpt lat="59.9667685" lon="17.7119275">
        <ele>23.6896</ele>
        <time>2013-05-15T15:50:52Z</time>
      </trkpt>
      <trkpt lat="59.9668152" lon="17.7120542">
        <ele>23.6896</ele>
        <time>2013-05-15T15:50:53Z</time>
      </trkpt>
      <trkpt lat="59.9668609" lon="17.7121822">
        <ele>24.1703</ele>
        <time>2013-05-15T15:50:54Z</time>
      </trkpt>
      <trkpt lat="59.9669073" lon="17.7123098">
        <ele>24.1703</ele>
        <time>2013-05-15T15:50:55Z</time>
      </trkpt>
      <trkpt lat="59.9669529" lon="17.7124374">
        <ele>24.1703</ele>
        <time>2013-05-15T15:50:56Z</time>
      </trkpt>
      <trkpt lat="59.966997" lon="17.7125671">
        <ele>24.1703</ele>
        <time>2013-05-15T15:50:57Z</time>
      </trkpt>
      <trkpt lat="59.9670401" lon="17.7127009">
        <ele>24.651</ele>
        <time>2013-05-15T15:50:58Z</time>
      </trkpt>
      <trkpt lat="59.9670809" lon="17.7128393">
        <ele>24.651</ele>
        <time>2013-05-15T15:50:59Z</time>
      </trkpt>
      <trkpt lat="59.9671197" lon="17.7129818">
        <ele>24.651</ele>
        <time>2013-05-15T15:51:00Z</time>
      </trkpt>
      <trkpt lat="59.9671572" lon="17.7131285">
        <ele>24.1703</ele>
        <time>2013-05-15T15:51:01Z</time>
      </trkpt>
      <trkpt lat="59.9671923" lon="17.7132803">
        <ele>24.1703</ele>
        <time>2013-05-15T15:51:02Z</time>
      </trkpt>
      <trkpt lat="59.9672242" lon="17.7134372">
        <ele>24.1703</ele>
        <time>2013-05-15T15:51:03Z</time>
      </trkpt>
      <trkpt lat="59.9672544" lon="17.7135983">
        <ele>23.6896</ele>
        <time>2013-05-15T15:51:04Z</time>
      </trkpt>
      <trkpt lat="59.9672829" lon="17.7137636">
        <ele>23.6896</ele>
        <time>2013-05-15T15:51:05Z</time>
      </trkpt>
      <trkpt lat="59.9673097" lon="17.7139362">
        <ele>23.209</ele>
        <time>2013-05-15T15:51:06Z</time>
      </trkpt>
      <trkpt lat="59.9673352" lon="17.7141144">
        <ele>22.7283</ele>
        <time>2013-05-15T15:51:07Z</time>
      </trkpt>
      <trkpt lat="59.9673601" lon="17.7142992">
        <ele>22.2476</ele>
        <time>2013-05-15T15:51:08Z</time>
      </trkpt>
      <trkpt lat="59.9673859" lon="17.7144913">
        <ele>21.767</ele>
        <time>2013-05-15T15:51:09Z</time>
      </trkpt>
      <trkpt lat="59.967412" lon="17.714684">
        <ele>21.2864</ele>
        <time>2013-05-15T15:51:10Z</time>
      </trkpt>
      <trkpt lat="59.9674394" lon="17.7148812">
        <ele>21.2864</ele>
        <time>2013-05-15T15:51:11Z</time>
      </trkpt>
      <trkpt lat="59.9674659" lon="17.7150804">
        <ele>20.8057</ele>
        <time>2013-05-15T15:51:12Z</time>
      </trkpt>
      <trkpt lat="59.9674941" lon="17.7152792">
        <ele>20.325</ele>
        <time>2013-05-15T15:51:13Z</time>
      </trkpt>
      <trkpt lat="59.9675254" lon="17.7154757">
        <ele>20.325</ele>
        <time>2013-05-15T15:51:14Z</time>
      </trkpt>
      <trkpt lat="59.9675616" lon="17.7156641">
        <ele>19.8444</ele>
        <time>2013-05-15T15:51:15Z</time>
      </trkpt>
      <trkpt lat="59.9676018" lon="17.7158396">
        <ele>19.3638</ele>
        <time>2013-05-15T15:51:16Z</time>
      </trkpt>
      <trkpt lat="59.967646" lon="17.7160046">
        <ele>18.8831</ele>
        <time>2013-05-15T15:51:17Z</time>
      </trkpt>
      <trkpt lat="59.9676927" lon="17.7161567">
        <ele>18.8831</ele>
        <time>2013-05-15T15:51:18Z</time>
      </trkpt>
      <trkpt lat="59.967743" lon="17.7162931">
        <ele>19.3638</ele>
        <time>2013-05-15T15:51:19Z</time>
      </trkpt>
      <trkpt lat="59.9677978" lon="17.7164137">
        <ele>19.8444</ele>
        <time>2013-05-15T15:51:20Z</time>
      </trkpt>
      <trkpt lat="59.9678522" lon="17.7165254">
        <ele>20.325</ele>
        <time>2013-05-15T15:51:21Z</time>
      </trkpt>
      <trkpt lat="59.9679028" lon="17.716623">
        <ele>20.8057</ele>
        <time>2013-05-15T15:51:22Z</time>
      </trkpt>
      <trkpt lat="59.9679588" lon="17.7167158">
        <ele>21.2864</ele>
        <time>2013-05-15T15:51:23Z</time>
      </trkpt>
      <trkpt lat="59.9680137" lon="17.7168007">
        <ele>21.2864</ele>
        <time>2013-05-15T15:51:24Z</time>
      </trkpt>
      <trkpt lat="59.9680691" lon="17.7168788">
        <ele>22.2476</ele>
        <time>2013-05-15T15:51:25Z</time>
      </trkpt>
      <trkpt lat="59.9681241" lon="17.7169525">
        <ele>23.209</ele>
        <time>2013-05-15T15:51:26Z</time>
      </trkpt>
      <trkpt lat="59.9681774" lon="17.7170157">
        <ele>23.6896</ele>
        <time>2013-05-15T15:51:27Z</time>
      </trkpt>
      <trkpt lat="59.9682369" lon="17.7170729">
        <ele>23.6896</ele>
        <time>2013-05-15T15:51:28Z</time>
      </trkpt>
      <trkpt lat="59.9683022" lon="17.7171225">
        <ele>24.1703</ele>
        <time>2013-05-15T15:51:29Z</time>
      </trkpt>
      <trkpt lat="59.9683681" lon="17.7171679">
        <ele>25.1317</ele>
        <time>2013-05-15T15:51:30Z</time>
      </trkpt>
      <trkpt lat="59.9684342" lon="17.7172089">
        <ele>25.6123</ele>
        <time>2013-05-15T15:51:31Z</time>
      </trkpt>
      <trkpt lat="59.9685004" lon="17.717248">
        <ele>26.0929</ele>
        <time>2013-05-15T15:51:32Z</time>
      </trkpt>
      <trkpt lat="59.9685665" lon="17.7172853">
        <ele>26.5736</ele>
        <time>2013-05-15T15:51:33Z</time>
      </trkpt>
      <trkpt lat="59.968634" lon="17.7173181">
        <ele>27.0543</ele>
        <time>2013-05-15T15:51:34Z</time>
      </trkpt>
      <trkpt lat="59.9687047" lon="17.7173449">
        <ele>27.5349</ele>
        <time>2013-05-15T15:51:35Z</time>
      </trkpt>
      <trkpt lat="59.9687741" lon="17.7173677">
        <ele>28.0155</ele>
        <time>2013-05-15T15:51:36Z</time>
      </trkpt>
      <trkpt lat="59.9688443" lon="17.7173911">
        <ele>28.4962</ele>
        <time>2013-05-15T15:51:37Z</time>
      </trkpt>
      <trkpt lat="59.9689184" lon="17.7174143">
        <ele>28.4962</ele>
        <time>2013-05-15T15:51:38Z</time>
      </trkpt>
      <trkpt lat="59.9689944" lon="17.7174357">
        <ele>28.4962</ele>
        <time>2013-05-15T15:51:39Z</time>
      </trkpt>
      <trkpt lat="59.9690698" lon="17.717456">
        <ele>28.9769</ele>
        <time>2013-05-15T15:51:40Z</time>
      </trkpt>
      <trkpt lat="59.9691431" lon="17.7174808">
        <ele>28.9769</ele>
        <time>2013-05-15T15:51:41Z</time>
      </trkpt>
      <trkpt lat="59.969217" lon="17.7175103">
        <ele>28.9769</ele>
        <time>2013-05-15T15:51:42Z</time>
      </trkpt>
      <trkpt lat="59.9692898" lon="17.7175452">
        <ele>28.9769</ele>
        <time>2013-05-15T15:51:43Z</time>
      </trkpt>
      <trkpt lat="59.9693634" lon="17.7175855">
        <ele>28.9769</ele>
        <time>2013-05-15T15:51:44Z</time>
      </trkpt>
      <trkpt lat="59.9694382" lon="17.7176274">
        <ele>28.4962</ele>
        <time>2013-05-15T15:51:45Z</time>
      </trkpt>
      <trkpt lat="59.9695139" lon="17.7176704">
        <ele>28.4962</ele>
        <time>2013-05-15T15:51:46Z</time>
      </trkpt>
      <trkpt lat="59.9695901" lon="17.7177177">
        <ele>28.4962</ele>
        <time>2013-05-15T15:51:47Z</time>
      </trkpt>
      <trkpt lat="59.9696668" lon="17.7177703">
        <ele>28.0155</ele>
        <time>2013-05-15T15:51:48Z</time>
      </trkpt>
      <trkpt lat="59.9697438" lon="17.717827">
        <ele>28.0155</ele>
        <time>2013-05-15T15:51:49Z</time>
      </trkpt>
      <trkpt lat="59.9698201" lon="17.7178875">
        <ele>28.0155</ele>
        <time>2013-05-15T15:51:50Z</time>
      </trkpt>
      <trkpt lat="59.9698962" lon="17.7179532">
        <ele>27.5349</ele>
        <time>2013-05-15T15:51:51Z</time>
      </trkpt>
      <trkpt lat="59.9699724" lon="17.7180221">
        <ele>27.5349</ele>
        <time>2013-05-15T15:51:52Z</time>
      </trkpt>
      <trkpt lat="59.9700497" lon="17.7180906">
        <ele>27.5349</ele>
        <time>2013-05-15T15:51:53Z</time>
      </trkpt>
      <trkpt lat="59.9701276" lon="17.7181582">
        <ele>27.5349</ele>
        <time>2013-05-15T15:51:54Z</time>
      </trkpt>
      <trkpt lat="59.9702053" lon="17.7182268">
        <ele>27.0543</ele>
        <time>2013-05-15T15:51:55Z</time>
      </trkpt>
      <trkpt lat="59.9702825" lon="17.7182994">
        <ele>27.0543</ele>
        <time>2013-05-15T15:51:56Z</time>
      </trkpt>
      <trkpt lat="59.9703589" lon="17.7183733">
        <ele>27.0543</ele>
        <time>2013-05-15T15:51:57Z</time>
      </trkpt>
      <trkpt lat="59.9704353" lon="17.7184446">
        <ele>27.0543</ele>
        <time>2013-05-15T15:51:58Z</time>
      </trkpt>
      <trkpt lat="59.9705125" lon="17.718513">
        <ele>26.5736</ele>
        <time>2013-05-15T15:51:59Z</time>
      </trkpt>
      <trkpt lat="59.9705899" lon="17.7185829">
        <ele>26.5736</ele>
        <time>2013-05-15T15:52:00Z</time>
      </trkpt>
      <trkpt lat="59.970667" lon="17.7186542">
        <ele>26.0929</ele>
        <time>2013-05-15T15:52:01Z</time>
      </trkpt>
      <trkpt lat="59.9707443" lon="17.7187247">
        <ele>26.0929</ele>
        <time>2013-05-15T15:52:02Z</time>
      </trkpt>
      <trkpt lat="59.9708229" lon="17.7187966">
        <ele>26.0929</ele>
        <time>2013-05-15T15:52:03Z</time>
      </trkpt>
      <trkpt lat="59.9709007" lon="17.7188679">
        <ele>25.6123</ele>
        <time>2013-05-15T15:52:04Z</time>
      </trkpt>
      <trkpt lat="59.970979" lon="17.7189398">
        <ele>25.6123</ele>
        <time>2013-05-15T15:52:05Z</time>
      </trkpt>
      <trkpt lat="59.9710586" lon="17.7190125">
        <ele>25.6123</ele>
        <time>2013-05-15T15:52:06Z</time>
      </trkpt>
      <trkpt lat="59.9711381" lon="17.7190856">
        <ele>25.6123</ele>
        <time>2013-05-15T15:52:07Z</time>
      </trkpt>
      <trkpt lat="59.9712182" lon="17.7191561">
        <ele>25.6123</ele>
        <time>2013-05-15T15:52:08Z</time>
      </trkpt>
      <trkpt lat="59.971299" lon="17.7192263">
        <ele>25.6123</ele>
        <time>2013-05-15T15:52:09Z</time>
      </trkpt>
      <trkpt lat="59.9713799" lon="17.7192985">
        <ele>25.6123</ele>
        <time>2013-05-15T15:52:10Z</time>
      </trkpt>
      <trkpt lat="59.9714607" lon="17.719372">
        <ele>25.6123</ele>
        <time>2013-05-15T15:52:11Z</time>
      </trkpt>
      <trkpt lat="59.9715414" lon="17.7194472">
        <ele>25.6123</ele>
        <time>2013-05-15T15:52:12Z</time>
      </trkpt>
      <trkpt lat="59.9716228" lon="17.7195226">
        <ele>25.1317</ele>
        <time>2013-05-15T15:52:13Z</time>
      </trkpt>
      <trkpt lat="59.9717055" lon="17.7195956">
        <ele>25.6123</ele>
        <time>2013-05-15T15:52:14Z</time>
      </trkpt>
      <trkpt lat="59.9717881" lon="17.7196688">
        <ele>25.6123</ele>
        <time>2013-05-15T15:52:15Z</time>
      </trkpt>
      <trkpt lat="59.97187" lon="17.719743">
        <ele>25.1317</ele>
        <time>2013-05-15T15:52:16Z</time>
      </trkpt>
      <trkpt lat="59.9719522" lon="17.7198171">
        <ele>25.1317</ele>
        <time>2013-05-15T15:52:17Z</time>
      </trkpt>
      <trkpt lat="59.9720345" lon="17.7198914">
        <ele>25.1317</ele>
        <time>2013-05-15T15:52:18Z</time>
      </trkpt>
      <trkpt lat="59.972116" lon="17.7199676">
        <ele>24.651</ele>
        <time>2013-05-15T15:52:19Z</time>
      </trkpt>
      <trkpt lat="59.9721999" lon="17.7200429">
        <ele>24.651</ele>
        <time>2013-05-15T15:52:20Z</time>
      </trkpt>
      <trkpt lat="59.9722849" lon="17.7201174">
        <ele>24.651</ele>
        <time>2013-05-15T15:52:21Z</time>
      </trkpt>
      <trkpt lat="59.9723702" lon="17.7201931">
        <ele>24.651</ele>
        <time>2013-05-15T15:52:22Z</time>
      </trkpt>
      <trkpt lat="59.9724553" lon="17.7202713">
        <ele>24.1703</ele>
        <time>2013-05-15T15:52:23Z</time>
      </trkpt>
      <trkpt lat="59.9725392" lon="17.7203533">
        <ele>24.1703</ele>
        <time>2013-05-15T15:52:24Z</time>
      </trkpt>
      <trkpt lat="59.9726231" lon="17.7204361">
        <ele>24.1703</ele>
        <time>2013-05-15T15:52:25Z</time>
      </trkpt>
      <trkpt lat="59.972706" lon="17.7205226">
        <ele>22.7283</ele>
        <time>2013-05-15T15:52:26Z</time>
      </trkpt>
      <trkpt lat="59.9727904" lon="17.7206105">
        <ele>22.7283</ele>
        <time>2013-05-15T15:52:27Z</time>
      </trkpt>
      <trkpt lat="59.9728736" lon="17.720704">
        <ele>22.7283</ele>
        <time>2013-05-15T15:52:28Z</time>
      </trkpt>
      <trkpt lat="59.9729544" lon="17.7208044">
        <ele>22.7283</ele>
        <time>2013-05-15T15:52:29Z</time>
      </trkpt>
      <trkpt lat="59.9730334" lon="17.7209107">
        <ele>22.7283</ele>
        <time>2013-05-15T15:52:30Z</time>
      </trkpt>
      <trkpt lat="59.9731119" lon="17.7210203">
        <ele>22.7283</ele>
        <time>2013-05-15T15:52:31Z</time>
      </trkpt>
      <trkpt lat="59.973188" lon="17.7211349">
        <ele>23.209</ele>
        <time>2013-05-15T15:52:32Z</time>
      </trkpt>
      <trkpt lat="59.9732598" lon="17.7212571">
        <ele>23.209</ele>
        <time>2013-05-15T15:52:33Z</time>
      </trkpt>
      <trkpt lat="59.9733291" lon="17.721384">
        <ele>23.209</ele>
        <time>2013-05-15T15:52:34Z</time>
      </trkpt>
      <trkpt lat="59.9733949" lon="17.7215151">
        <ele>23.209</ele>
        <time>2013-05-15T15:52:35Z</time>
      </trkpt>
      <trkpt lat="59.9734585" lon="17.7216507">
        <ele>22.7283</ele>
        <time>2013-05-15T15:52:36Z</time>
      </trkpt>
      <trkpt lat="59.9735196" lon="17.7217903">
        <ele>22.7283</ele>
        <time>2013-05-15T15:52:37Z</time>
      </trkpt>
      <trkpt lat="59.9735781" lon="17.721934">
        <ele>22.7283</ele>
        <time>2013-05-15T15:52:38Z</time>
      </trkpt>
      <trkpt lat="59.9736338" lon="17.7220816">
        <ele>22.7283</ele>
        <time>2013-05-15T15:52:39Z</time>
      </trkpt>
      <trkpt lat="59.9736872" lon="17.7222331">
        <ele>22.7283</ele>
        <time>2013-05-15T15:52:40Z</time>
      </trkpt>
      <trkpt lat="59.973738" lon="17.7223888">
        <ele>22.7283</ele>
        <time>2013-05-15T15:52:41Z</time>
      </trkpt>
      <trkpt lat="59.973786" lon="17.7225469">
        <ele>22.7283</ele>
        <time>2013-05-15T15:52:42Z</time>
      </trkpt>
      <trkpt lat="59.9738319" lon="17.7227075">
        <ele>22.7283</ele>
        <time>2013-05-15T15:52:43Z</time>
      </trkpt>
      <trkpt lat="59.9738752" lon="17.72287">
        <ele>22.7283</ele>
        <time>2013-05-15T15:52:44Z</time>
      </trkpt>
      <trkpt lat="59.9739156" lon="17.7230344">
        <ele>22.7283</ele>
        <time>2013-05-15T15:52:45Z</time>
      </trkpt>
      <trkpt lat="59.9739536" lon="17.7232021">
        <ele>22.7283</ele>
        <time>2013-05-15T15:52:46Z</time>
      </trkpt>
      <trkpt lat="59.9739864" lon="17.7233722">
        <ele>22.7283</ele>
        <time>2013-05-15T15:52:47Z</time>
      </trkpt>
      <trkpt lat="59.974017" lon="17.7235436">
        <ele>22.7283</ele>
        <time>2013-05-15T15:52:48Z</time>
      </trkpt>
      <trkpt lat="59.9740456" lon="17.7237155">
        <ele>22.7283</ele>
        <time>2013-05-15T15:52:49Z</time>
      </trkpt>
      <trkpt lat="59.974073" lon="17.7238877">
        <ele>22.7283</ele>
        <time>2013-05-15T15:52:50Z</time>
      </trkpt>
      <trkpt lat="59.9740995" lon="17.7240606">
        <ele>22.7283</ele>
        <time>2013-05-15T15:52:51Z</time>
      </trkpt>
      <trkpt lat="59.9741247" lon="17.7242341">
        <ele>23.209</ele>
        <time>2013-05-15T15:52:52Z</time>
      </trkpt>
      <trkpt lat="59.9741487" lon="17.7244074">
        <ele>23.209</ele>
        <time>2013-05-15T15:52:53Z</time>
      </trkpt>
      <trkpt lat="59.9741725" lon="17.7245805">
        <ele>23.209</ele>
        <time>2013-05-15T15:52:54Z</time>
      </trkpt>
      <trkpt lat="59.9741963" lon="17.7247532">
        <ele>23.209</ele>
        <time>2013-05-15T15:52:55Z</time>
      </trkpt>
      <trkpt lat="59.9742197" lon="17.7249246">
        <ele>23.209</ele>
        <time>2013-05-15T15:52:56Z</time>
      </trkpt>
      <trkpt lat="59.9742433" lon="17.7250941">
        <ele>23.209</ele>
        <time>2013-05-15T15:52:57Z</time>
      </trkpt>
      <trkpt lat="59.9742646" lon="17.7252637">
        <ele>23.209</ele>
        <time>2013-05-15T15:52:58Z</time>
      </trkpt>
      <trkpt lat="59.9742828" lon="17.7254332">
        <ele>23.209</ele>
        <time>2013-05-15T15:52:59Z</time>
      </trkpt>
      <trkpt lat="59.9742986" lon="17.7256022">
        <ele>23.209</ele>
        <time>2013-05-15T15:53:00Z</time>
      </trkpt>
      <trkpt lat="59.9743121" lon="17.7257706">
        <ele>23.209</ele>
        <time>2013-05-15T15:53:01Z</time>
      </trkpt>
      <trkpt lat="59.9743237" lon="17.7259383">
        <ele>23.209</ele>
        <time>2013-05-15T15:53:02Z</time>
      </trkpt>
      <trkpt lat="59.974333" lon="17.7261052">
        <ele>23.209</ele>
        <time>2013-05-15T15:53:03Z</time>
      </trkpt>
      <trkpt lat="59.9743414" lon="17.7262715">
        <ele>23.209</ele>
        <time>2013-05-15T15:53:04Z</time>
      </trkpt>
      <trkpt lat="59.9743499" lon="17.7264382">
        <ele>23.209</ele>
        <time>2013-05-15T15:53:05Z</time>
      </trkpt>
      <trkpt lat="59.9743563" lon="17.7266043">
        <ele>23.6896</ele>
        <time>2013-05-15T15:53:06Z</time>
      </trkpt>
      <trkpt lat="59.9743624" lon="17.7267702">
        <ele>23.6896</ele>
        <time>2013-05-15T15:53:07Z</time>
      </trkpt>
      <trkpt lat="59.9743672" lon="17.7269367">
        <ele>23.209</ele>
        <time>2013-05-15T15:53:08Z</time>
      </trkpt>
      <trkpt lat="59.9743693" lon="17.7271052">
        <ele>23.209</ele>
        <time>2013-05-15T15:53:09Z</time>
      </trkpt>
      <trkpt lat="59.9743714" lon="17.7272741">
        <ele>23.209</ele>
        <time>2013-05-15T15:53:10Z</time>
      </trkpt>
      <trkpt lat="59.974374" lon="17.7274447">
        <ele>22.7283</ele>
        <time>2013-05-15T15:53:11Z</time>
      </trkpt>
      <trkpt lat="59.9743774" lon="17.7276184">
        <ele>22.7283</ele>
        <time>2013-05-15T15:53:12Z</time>
      </trkpt>
      <trkpt lat="59.9743806" lon="17.7277939">
        <ele>22.7283</ele>
        <time>2013-05-15T15:53:13Z</time>
      </trkpt>
      <trkpt lat="59.9743854" lon="17.7279719">
        <ele>22.7283</ele>
        <time>2013-05-15T15:53:14Z</time>
      </trkpt>
      <trkpt lat="59.9743899" lon="17.728149">
        <ele>22.2476</ele>
        <time>2013-05-15T15:53:15Z</time>
      </trkpt>
      <trkpt lat="59.9743927" lon="17.7283253">
        <ele>22.2476</ele>
        <time>2013-05-15T15:53:16Z</time>
      </trkpt>
      <trkpt lat="59.9743966" lon="17.7284999">
        <ele>22.2476</ele>
        <time>2013-05-15T15:53:17Z</time>
      </trkpt>
      <trkpt lat="59.9744014" lon="17.7286729">
        <ele>22.2476</ele>
        <time>2013-05-15T15:53:18Z</time>
      </trkpt>
      <trkpt lat="59.9744048" lon="17.7288455">
        <ele>22.2476</ele>
        <time>2013-05-15T15:53:19Z</time>
      </trkpt>
      <trkpt lat="59.9744087" lon="17.7290167">
        <ele>22.2476</ele>
        <time>2013-05-15T15:53:20Z</time>
      </trkpt>
      <trkpt lat="59.9744163" lon="17.7291876">
        <ele>22.2476</ele>
        <time>2013-05-15T15:53:21Z</time>
      </trkpt>
      <trkpt lat="59.9744226" lon="17.7293573">
        <ele>22.2476</ele>
        <time>2013-05-15T15:53:22Z</time>
      </trkpt>
      <trkpt lat="59.9744235" lon="17.7295256">
        <ele>22.2476</ele>
        <time>2013-05-15T15:53:23Z</time>
      </trkpt>
      <trkpt lat="59.9744186" lon="17.7296915">
        <ele>22.2476</ele>
        <time>2013-05-15T15:53:24Z</time>
      </trkpt>
      <trkpt lat="59.9744096" lon="17.7298548">
        <ele>22.2476</ele>
        <time>2013-05-15T15:53:25Z</time>
      </trkpt>
      <trkpt lat="59.9743978" lon="17.7300151">
        <ele>22.7283</ele>
        <time>2013-05-15T15:53:26Z</time>
      </trkpt>
      <trkpt lat="59.9743851" lon="17.7301727">
        <ele>22.7283</ele>
        <time>2013-05-15T15:53:27Z</time>
      </trkpt>
      <trkpt lat="59.9743714" lon="17.7303288">
        <ele>22.7283</ele>
        <time>2013-05-15T15:53:28Z</time>
      </trkpt>
      <trkpt lat="59.9743575" lon="17.7304833">
        <ele>22.7283</ele>
        <time>2013-05-15T15:53:29Z</time>
      </trkpt>
      <trkpt lat="59.9743449" lon="17.7306376">
        <ele>22.7283</ele>
        <time>2013-05-15T15:53:30Z</time>
      </trkpt>
      <trkpt lat="59.9743323" lon="17.7307912">
        <ele>22.7283</ele>
        <time>2013-05-15T15:53:31Z</time>
      </trkpt>
      <trkpt lat="59.9743202" lon="17.7309445">
        <ele>22.7283</ele>
        <time>2013-05-15T15:53:32Z</time>
      </trkpt>
      <trkpt lat="59.9743103" lon="17.7310972">
        <ele>22.7283</ele>
        <time>2013-05-15T15:53:33Z</time>
      </trkpt>
      <trkpt lat="59.9743031" lon="17.73125">
        <ele>22.7283</ele>
        <time>2013-05-15T15:53:34Z</time>
      </trkpt>
      <trkpt lat="59.9742977" lon="17.7314027">
        <ele>22.7283</ele>
        <time>2013-05-15T15:53:35Z</time>
      </trkpt>
      <trkpt lat="59.974294" lon="17.7315563">
        <ele>22.7283</ele>
        <time>2013-05-15T15:53:36Z</time>
      </trkpt>
      <trkpt lat="59.9742924" lon="17.7317111">
        <ele>22.7283</ele>
        <time>2013-05-15T15:53:37Z</time>
      </trkpt>
      <trkpt lat="59.9742933" lon="17.7318679">
        <ele>22.7283</ele>
        <time>2013-05-15T15:53:38Z</time>
      </trkpt>
      <trkpt lat="59.9742963" lon="17.7320265">
        <ele>22.7283</ele>
        <time>2013-05-15T15:53:39Z</time>
      </trkpt>
      <trkpt lat="59.9743002" lon="17.7321855">
        <ele>22.7283</ele>
        <time>2013-05-15T15:53:40Z</time>
      </trkpt>
      <trkpt lat="59.9743044" lon="17.7323457">
        <ele>22.7283</ele>
        <time>2013-05-15T15:53:41Z</time>
      </trkpt>
      <trkpt lat="59.9743077" lon="17.7325063">
        <ele>22.7283</ele>
        <time>2013-05-15T15:53:42Z</time>
      </trkpt>
      <trkpt lat="59.97431" lon="17.7326668">
        <ele>22.7283</ele>
        <time>2013-05-15T15:53:43Z</time>
      </trkpt>
      <trkpt lat="59.9743102" lon="17.7328283">
        <ele>22.7283</ele>
        <time>2013-05-15T15:53:44Z</time>
      </trkpt>
      <trkpt lat="59.9743074" lon="17.7329907">
        <ele>22.7283</ele>
        <time>2013-05-15T15:53:45Z</time>
      </trkpt>
      <trkpt lat="59.974302" lon="17.7331557">
        <ele>22.7283</ele>
        <time>2013-05-15T15:53:46Z</time>
      </trkpt>
      <trkpt lat="59.9742957" lon="17.7333231">
        <ele>22.2476</ele>
        <time>2013-05-15T15:53:47Z</time>
      </trkpt>
      <trkpt lat="59.974288" lon="17.7334883">
        <ele>22.2476</ele>
        <time>2013-05-15T15:53:48Z</time>
      </trkpt>
      <trkpt lat="59.9742797" lon="17.7336521">
        <ele>22.2476</ele>
        <time>2013-05-15T15:53:49Z</time>
      </trkpt>
      <trkpt lat="59.9742719" lon="17.7338145">
        <ele>22.2476</ele>
        <time>2013-05-15T15:53:50Z</time>
      </trkpt>
      <trkpt lat="59.974264" lon="17.7339742">
        <ele>22.2476</ele>
        <time>2013-05-15T15:53:51Z</time>
      </trkpt>
      <trkpt lat="59.9742559" lon="17.7341324">
        <ele>22.2476</ele>
        <time>2013-05-15T15:53:52Z</time>
      </trkpt>
      <trkpt lat="59.9742496" lon="17.7342909">
        <ele>22.7283</ele>
        <time>2013-05-15T15:53:53Z</time>
      </trkpt>
      <trkpt lat="59.9742458" lon="17.7344504">
        <ele>22.7283</ele>
        <time>2013-05-15T15:53:54Z</time>
      </trkpt>
      <trkpt lat="59.974245" lon="17.7346109">
        <ele>22.7283</ele>
        <time>2013-05-15T15:53:55Z</time>
      </trkpt>
      <trkpt lat="59.9742482" lon="17.7347713">
        <ele>22.7283</ele>
        <time>2013-05-15T15:53:56Z</time>
      </trkpt>
      <trkpt lat="59.9742548" lon="17.7349319">
        <ele>22.7283</ele>
        <time>2013-05-15T15:53:57Z</time>
      </trkpt>
      <trkpt lat="59.9742663" lon="17.7350936">
        <ele>22.7283</ele>
        <time>2013-05-15T15:53:58Z</time>
      </trkpt>
      <trkpt lat="59.9742812" lon="17.7352532">
        <ele>22.7283</ele>
        <time>2013-05-15T15:53:59Z</time>
      </trkpt>
      <trkpt lat="59.9742979" lon="17.7354108">
        <ele>23.209</ele>
        <time>2013-05-15T15:54:00Z</time>
      </trkpt>
      <trkpt lat="59.9743168" lon="17.7355655">
        <ele>23.209</ele>
        <time>2013-05-15T15:54:01Z</time>
      </trkpt>
      <trkpt lat="59.9743366" lon="17.7357164">
        <ele>23.209</ele>
        <time>2013-05-15T15:54:02Z</time>
      </trkpt>
      <trkpt lat="59.9743582" lon="17.7358649">
        <ele>23.209</ele>
        <time>2013-05-15T15:54:03Z</time>
      </trkpt>
      <trkpt lat="59.9743834" lon="17.7360095">
        <ele>23.209</ele>
        <time>2013-05-15T15:54:04Z</time>
      </trkpt>
      <trkpt lat="59.9744118" lon="17.73615">
        <ele>23.6896</ele>
        <time>2013-05-15T15:54:05Z</time>
      </trkpt>
      <trkpt lat="59.9744409" lon="17.7362887">
        <ele>23.6896</ele>
        <time>2013-05-15T15:54:06Z</time>
      </trkpt>
      <trkpt lat="59.974472" lon="17.736425">
        <ele>23.6896</ele>
        <time>2013-05-15T15:54:07Z</time>
      </trkpt>
      <trkpt lat="59.9745061" lon="17.7365581">
        <ele>23.209</ele>
        <time>2013-05-15T15:54:08Z</time>
      </trkpt>
      <trkpt lat="59.9745442" lon="17.7366869">
        <ele>23.209</ele>
        <time>2013-05-15T15:54:09Z</time>
      </trkpt>
      <trkpt lat="59.9745861" lon="17.7368119">
        <ele>23.209</ele>
        <time>2013-05-15T15:54:10Z</time>
      </trkpt>
      <trkpt lat="59.9746292" lon="17.7369358">
        <ele>23.209</ele>
        <time>2013-05-15T15:54:11Z</time>
      </trkpt>
      <trkpt lat="59.9746732" lon="17.7370595">
        <ele>23.209</ele>
        <time>2013-05-15T15:54:12Z</time>
      </trkpt>
      <trkpt lat="59.9747177" lon="17.7371821">
        <ele>23.209</ele>
        <time>2013-05-15T15:54:13Z</time>
      </trkpt>
      <trkpt lat="59.974764" lon="17.7373012">
        <ele>23.209</ele>
        <time>2013-05-15T15:54:14Z</time>
      </trkpt>
      <trkpt lat="59.9748132" lon="17.7374149">
        <ele>23.6896</ele>
        <time>2013-05-15T15:54:15Z</time>
      </trkpt>
      <trkpt lat="59.9748635" lon="17.7375247">
        <ele>23.6896</ele>
        <time>2013-05-15T15:54:16Z</time>
      </trkpt>
      <trkpt lat="59.9749138" lon="17.7376313">
        <ele>23.6896</ele>
        <time>2013-05-15T15:54:17Z</time>
      </trkpt>
      <trkpt lat="59.9749653" lon="17.737733">
        <ele>23.6896</ele>
        <time>2013-05-15T15:54:18Z</time>
      </trkpt>
      <trkpt lat="59.9750184" lon="17.7378309">
        <ele>23.6896</ele>
        <time>2013-05-15T15:54:19Z</time>
      </trkpt>
      <trkpt lat="59.9750728" lon="17.7379273">
        <ele>23.6896</ele>
        <time>2013-05-15T15:54:20Z</time>
      </trkpt>
      <trkpt lat="59.9751276" lon="17.7380241">
        <ele>23.6896</ele>
        <time>2013-05-15T15:54:21Z</time>
      </trkpt>
      <trkpt lat="59.9751827" lon="17.7381219">
        <ele>23.6896</ele>
        <time>2013-05-15T15:54:22Z</time>
      </trkpt>
      <trkpt lat="59.9752385" lon="17.7382205">
        <ele>23.6896</ele>
        <time>2013-05-15T15:54:23Z</time>
      </trkpt>
      <trkpt lat="59.9752945" lon="17.7383213">
        <ele>23.6896</ele>
        <time>2013-05-15T15:54:24Z</time>
      </trkpt>
      <trkpt lat="59.9753516" lon="17.7384219">
        <ele>23.6896</ele>
        <time>2013-05-15T15:54:25Z</time>
      </trkpt>
      <trkpt lat="59.9754099" lon="17.7385212">
        <ele>23.6896</ele>
        <time>2013-05-15T15:54:26Z</time>
      </trkpt>
      <trkpt lat="59.9754678" lon="17.7386211">
        <ele>23.6896</ele>
        <time>2013-05-15T15:54:27Z</time>
      </trkpt>
      <trkpt lat="59.9755253" lon="17.7387219">
        <ele>23.6896</ele>
        <time>2013-05-15T15:54:28Z</time>
      </trkpt>
      <trkpt lat="59.9755823" lon="17.7388238">
        <ele>23.6896</ele>
        <time>2013-05-15T15:54:29Z</time>
      </trkpt>
      <trkpt lat="59.9756384" lon="17.738926">
        <ele>23.6896</ele>
        <time>2013-05-15T15:54:30Z</time>
      </trkpt>
      <trkpt lat="59.9756938" lon="17.7390295">
        <ele>23.6896</ele>
        <time>2013-05-15T15:54:31Z</time>
      </trkpt>
      <trkpt lat="59.9757487" lon="17.7391306">
        <ele>23.6896</ele>
        <time>2013-05-15T15:54:32Z</time>
      </trkpt>
      <trkpt lat="59.9758031" lon="17.7392295">
        <ele>23.6896</ele>
        <time>2013-05-15T15:54:33Z</time>
      </trkpt>
      <trkpt lat="59.9758564" lon="17.7393261">
        <ele>23.6896</ele>
        <time>2013-05-15T15:54:34Z</time>
      </trkpt>
      <trkpt lat="59.9759093" lon="17.7394189">
        <ele>23.6896</ele>
        <time>2013-05-15T15:54:35Z</time>
      </trkpt>
      <trkpt lat="59.9759621" lon="17.739507">
        <ele>24.1703</ele>
        <time>2013-05-15T15:54:36Z</time>
      </trkpt>
      <trkpt lat="59.9760139" lon="17.739593">
        <ele>24.1703</ele>
        <time>2013-05-15T15:54:37Z</time>
      </trkpt>
      <trkpt lat="59.9760646" lon="17.7396651">
        <ele>24.651</ele>
        <time>2013-05-15T15:54:38Z</time>
      </trkpt>
      <trkpt lat="59.9761191" lon="17.7397247">
        <ele>25.1317</ele>
        <time>2013-05-15T15:54:39Z</time>
      </trkpt>
      <trkpt lat="59.9761726" lon="17.7397761">
        <ele>25.1317</ele>
        <time>2013-05-15T15:54:40Z</time>
      </trkpt>
      <trkpt lat="59.9762257" lon="17.7398182">
        <ele>25.6123</ele>
        <time>2013-05-15T15:54:41Z</time>
      </trkpt>
      <trkpt lat="59.9762771" lon="17.7398386">
        <ele>25.6123</ele>
        <time>2013-05-15T15:54:42Z</time>
      </trkpt>
      <trkpt lat="59.976333" lon="17.7398292">
        <ele>25.6123</ele>
        <time>2013-05-15T15:54:43Z</time>
      </trkpt>
      <trkpt lat="59.9763885" lon="17.7397904">
        <ele>25.6123</ele>
        <time>2013-05-15T15:54:44Z</time>
      </trkpt>
      <trkpt lat="59.9764459" lon="17.7397379">
        <ele>25.1317</ele>
        <time>2013-05-15T15:54:45Z</time>
      </trkpt>
      <trkpt lat="59.9765014" lon="17.739677">
        <ele>24.1703</ele>
        <time>2013-05-15T15:54:46Z</time>
      </trkpt>
      <trkpt lat="59.9765554" lon="17.7396086">
        <ele>23.6896</ele>
        <time>2013-05-15T15:54:47Z</time>
      </trkpt>
      <trkpt lat="59.9766162" lon="17.7395583">
        <ele>23.209</ele>
        <time>2013-05-15T15:54:48Z</time>
      </trkpt>
      <trkpt lat="59.9766764" lon="17.7395235">
        <ele>23.209</ele>
        <time>2013-05-15T15:54:49Z</time>
      </trkpt>
      <trkpt lat="59.9767366" lon="17.7394927">
        <ele>22.7283</ele>
        <time>2013-05-15T15:54:50Z</time>
      </trkpt>
      <trkpt lat="59.9767915" lon="17.7394652">
        <ele>22.7283</ele>
        <time>2013-05-15T15:54:51Z</time>
      </trkpt>
      <trkpt lat="59.9768418" lon="17.7394446">
        <ele>21.767</ele>
        <time>2013-05-15T15:54:52Z</time>
      </trkpt>
      <trkpt lat="59.9768916" lon="17.7394299">
        <ele>21.2864</ele>
        <time>2013-05-15T15:54:53Z</time>
      </trkpt>
      <trkpt lat="59.9769416" lon="17.7394109">
        <ele>20.8057</ele>
        <time>2013-05-15T15:54:54Z</time>
      </trkpt>
      <trkpt lat="59.9769904" lon="17.7393909">
        <ele>20.8057</ele>
        <time>2013-05-15T15:54:55Z</time>
      </trkpt>
      <trkpt lat="59.9770402" lon="17.7393749">
        <ele>20.325</ele>
        <time>2013-05-15T15:54:56Z</time>
      </trkpt>
      <trkpt lat="59.977085" lon="17.73935">
        <ele>19.3638</ele>
        <time>2013-05-15T15:54:57Z</time>
      </trkpt>
      <trkpt lat="59.9771313" lon="17.7393191">
        <ele>19.3638</ele>
        <time>2013-05-15T15:54:58Z</time>
      </trkpt>
      <trkpt lat="59.9771805" lon="17.7392916">
        <ele>18.8831</ele>
        <time>2013-05-15T15:54:59Z</time>
      </trkpt>
      <trkpt lat="59.9772299" lon="17.7392728">
        <ele>19.3638</ele>
        <time>2013-05-15T15:55:00Z</time>
      </trkpt>
      <trkpt lat="59.9772799" lon="17.7392503">
        <ele>19.3638</ele>
        <time>2013-05-15T15:55:01Z</time>
      </trkpt>
      <trkpt lat="59.9773306" lon="17.7392234">
        <ele>19.3638</ele>
        <time>2013-05-15T15:55:02Z</time>
      </trkpt>
      <trkpt lat="59.9773847" lon="17.7391949">
        <ele>20.325</ele>
        <time>2013-05-15T15:55:03Z</time>
      </trkpt>
      <trkpt lat="59.9774354" lon="17.7391762">
        <ele>20.8057</ele>
        <time>2013-05-15T15:55:04Z</time>
      </trkpt>
      <trkpt lat="59.9774862" lon="17.7391607">
        <ele>21.767</ele>
        <time>2013-05-15T15:55:05Z</time>
      </trkpt>
      <trkpt lat="59.9775328" lon="17.7391514">
        <ele>22.2476</ele>
        <time>2013-05-15T15:55:06Z</time>
      </trkpt>
      <trkpt lat="59.9775767" lon="17.7391457">
        <ele>23.209</ele>
        <time>2013-05-15T15:55:07Z</time>
      </trkpt>
      <trkpt lat="59.9776198" lon="17.7391466">
        <ele>23.6896</ele>
        <time>2013-05-15T15:55:08Z</time>
      </trkpt>
      <trkpt lat="59.9776613" lon="17.7391526">
        <ele>23.6896</ele>
        <time>2013-05-15T15:55:09Z</time>
      </trkpt>
      <trkpt lat="59.9777035" lon="17.7391633">
        <ele>23.6896</ele>
        <time>2013-05-15T15:55:10Z</time>
      </trkpt>
      <trkpt lat="59.9777434" lon="17.7391782">
        <ele>23.209</ele>
        <time>2013-05-15T15:55:11Z</time>
      </trkpt>
      <trkpt lat="59.9777789" lon="17.7391984">
        <ele>22.7283</ele>
        <time>2013-05-15T15:55:12Z</time>
      </trkpt>
      <trkpt lat="59.9778156" lon="17.7392191">
        <ele>22.2476</ele>
        <time>2013-05-15T15:55:13Z</time>
      </trkpt>
      <trkpt lat="59.9778564" lon="17.7392383">
        <ele>22.2476</ele>
        <time>2013-05-15T15:55:14Z</time>
      </trkpt>
      <trkpt lat="59.9778934" lon="17.7392656">
        <ele>23.209</ele>
        <time>2013-05-15T15:55:15Z</time>
      </trkpt>
      <trkpt lat="59.9779328" lon="17.7392899">
        <ele>23.6896</ele>
        <time>2013-05-15T15:55:16Z</time>
      </trkpt>
      <trkpt lat="59.9779704" lon="17.7393128">
        <ele>23.6896</ele>
        <time>2013-05-15T15:55:17Z</time>
      </trkpt>
      <trkpt lat="59.9780056" lon="17.7393321">
        <ele>23.6896</ele>
        <time>2013-05-15T15:55:18Z</time>
      </trkpt>
      <trkpt lat="59.9780459" lon="17.7393494">
        <ele>23.6896</ele>
        <time>2013-05-15T15:55:19Z</time>
      </trkpt>
      <trkpt lat="59.9780881" lon="17.7393616">
        <ele>24.1703</ele>
        <time>2013-05-15T15:55:20Z</time>
      </trkpt>
      <trkpt lat="59.9781332" lon="17.7393724">
        <ele>24.651</ele>
        <time>2013-05-15T15:55:21Z</time>
      </trkpt>
      <trkpt lat="59.9781771" lon="17.7393852">
        <ele>24.651</ele>
        <time>2013-05-15T15:55:22Z</time>
      </trkpt>
      <trkpt lat="59.9782182" lon="17.7394018">
        <ele>24.651</ele>
        <time>2013-05-15T15:55:23Z</time>
      </trkpt>
      <trkpt lat="59.9782606" lon="17.7394206">
        <ele>24.1703</ele>
        <time>2013-05-15T15:55:24Z</time>
      </trkpt>
      <trkpt lat="59.978308" lon="17.7394354">
        <ele>24.651</ele>
        <time>2013-05-15T15:55:25Z</time>
      </trkpt>
      <trkpt lat="59.9783563" lon="17.7394486">
        <ele>24.651</ele>
        <time>2013-05-15T15:55:26Z</time>
      </trkpt>
      <trkpt lat="59.9784067" lon="17.7394553">
        <ele>24.651</ele>
        <time>2013-05-15T15:55:27Z</time>
      </trkpt>
      <trkpt lat="59.978458" lon="17.7394575">
        <ele>25.1317</ele>
        <time>2013-05-15T15:55:28Z</time>
      </trkpt>
      <trkpt lat="59.9784988" lon="17.7394582">
        <ele>24.1703</ele>
        <time>2013-05-15T15:55:29Z</time>
      </trkpt>
      <trkpt lat="59.9785502" lon="17.7394538">
        <ele>24.651</ele>
        <time>2013-05-15T15:55:30Z</time>
      </trkpt>
      <trkpt lat="59.9786028" lon="17.7394516">
        <ele>25.6123</ele>
        <time>2013-05-15T15:55:31Z</time>
      </trkpt>
      <trkpt lat="59.9786528" lon="17.7394547">
        <ele>25.6123</ele>
        <time>2013-05-15T15:55:32Z</time>
      </trkpt>
      <trkpt lat="59.9787061" lon="17.7394536">
        <ele>25.6123</ele>
        <time>2013-05-15T15:55:33Z</time>
      </trkpt>
    </trkseg>
  </trk>
</gpx>